Add ais-nmea-sample data file to regression tests
authorJon Schlueter <jschlueter@redhat.com>
Tue, 6 Oct 2015 09:30:58 +0000 (05:30 -0400)
committerJon Schlueter <jschlueter@redhat.com>
Thu, 8 Oct 2015 01:14:58 +0000 (21:14 -0400)
only initial simple chk file generated

this was a sample file from AISHub
http://www.aishub.net/nmea-sample.php

There are known warning/errors coming out of driver_ais

These are areas of the ais where bugs might be lurking.

Will be addressed in following patches

test/daemon/ais-nmea-sample.log [new file with mode: 0644]
test/daemon/ais-nmea-sample.log.chk [new file with mode: 0644]

diff --git a/test/daemon/ais-nmea-sample.log b/test/daemon/ais-nmea-sample.log
new file mode 100644 (file)
index 0000000..306bbd4
--- /dev/null
@@ -0,0 +1,85199 @@
+# This is a sample from aishub\r
+# http://www.aishub.net/nmea-sample.php\r
+# they indicate this is 3 minues of live AISHub feed data\r
+# Added 2015-10-06 - Jon Schlueter\r
+#\r
+!AIVDM,1,1,,A,13HOI:0P0000VOHLCnHQKwvL05Ip,0*23\r
+!AIVDM,1,1,,A,133sVfPP00PD>hRMDH@jNOvN20S8,0*7F\r
+!AIVDM,1,1,,B,100h00PP0@PHFV`Mg5gTH?vNPUIp,0*3B\r
+!AIVDM,1,1,,B,13eaJF0P00Qd388Eew6aagvH85Ip,0*45\r
+!AIVDM,1,1,,A,14eGrSPP00ncMJTO5C6aBwvP2D0?,0*7A\r
+!AIVDM,1,1,,A,15MrVH0000KH<:V:NtBLoqFP2H9:,0*2F\r
+!AIVDM,1,1,,A,15N9NLPP01IS<RFF7fLVmgvN00Rv,0*7F\r
+!AIVDM,1,1,,A,133w;`PP00PCqghMcqNqdOvPR5Ip,0*65\r
+!AIVDM,1,1,,B,35Mtp?0016J5ohD?ofRWSF2R0000,0*28\r
+!AIVDM,1,1,,A,133REv0P00P=K?TMDH6P0?vN289>,0*46\r
+!AIVDM,1,1,,B,139eb:PP00PIHDNMdd6@0?vN2D2s,0*43\r
+!AIVDM,1,1,,B,33aDqfhP00PD2OnMDdF@QOvN205A,0*13\r
+!AIVDM,1,1,,B,B43JRq00LhTWc5VejDI>wwWUoP06,0*29\r
+!AIVDM,1,1,,B,133hGvP0000CjLHMG0u==:VN05Ip,0*61\r
+!AIVDM,1,1,,A,13aEOK?P00PD2wVMdLDRhgvL289?,0*26\r
+!AIVDM,1,1,,B,16S`2cPP00a3UF6EKT@2:?vOr0S2,0*00\r
+!AIVDM,2,1,9,B,53nFBv01SJ<thHp6220H4heHTf2222222222221?50:454o<`9QSlUDp,0*09\r
+!AIVDM,2,2,9,B,888888888888880,2*2E\r
+!AIVDM,1,1,,A,13AwPr00000pFa0P7InJL5JP2<0I,0*79\r
+!AIVDM,1,1,,A,14eGKMhP00rkraHJPivPFwvL0<0<,0*23\r
+!AIVDM,1,1,,B,13P:`4hP00OwbPRMN8p7ggvN0<0h,0*69\r
+!AIVDM,1,1,,A,16:=?;0P00`SstvFnFbeGH6L088h,0*44\r
+!AIVDM,1,1,,A,16`l:v8P0W8Vw>fDVB0t8OvJ0H;9,0*0A\r
+!AIVDM,1,1,,A,169a:nP01g`hm4pB7:E0;@0L088i,0*5E\r
+!AIVDM,1,1,,A,169F<h0P1S8hsm0B:H9o4gvN2@8o,0*5E\r
+!AIVDM,1,1,,A,139f0`0P00PFDVvMag8a`gvP20T;,0*67\r
+!AIVDM,1,1,,B,17u>=L001KR><?EfhW37iVFL05Ip,0*1D\r
+!AIVDM,1,1,,A,16:>Pv002B8hjC6AjP9SCBNN05Ip,0*10\r
+!AIVDM,1,1,,B,B6:io8@0=21k=`3C:eDJSww4SP00,0*68\r
+!AIVDM,1,1,,B,36:RS:001?87bnt=:rq68TnN00nh,0*20\r
+!AIVDM,2,1,6,B,56:fS:D0000000000008v0<QD4r0`T4v3400000t0`D147?ps1P00000,0*3D\r
+!AIVDM,2,2,6,B,000000000000008,2*29\r
+!AIVDM,1,1,,A,369AM`1P028d;40Aohk1EgvN2000,0*72\r
+!AIVDM,1,1,,B,16:fRwOP1=87S3R=<JbLMwvL0<3v,0*59\r
+!AIVDM,1,1,,B,B6:BGJP0AB8AfK3SthVD7wW79P06,0*32\r
+!AIVDM,1,1,,A,169:G9?P12`V`40EQkVlnOvL081N,0*4B\r
+!AIVDM,1,1,,B,169G0:?P038FCI<=G9FsrOvJ0D0i,0*28\r
+!AIVDM,1,1,,A,1=Rrj`QP?w<tSF0l4Q@>4?wv0l1?,0*0B\r
+!AIVDM,2,1,8,A,53Q6SR02=21U`@H?800l4E9<f1HTLt000000001?BhL<@4q30Glm841E,0*7C\r
+!AIVDM,2,2,8,A,1DThUDQh0000000,2*4D\r
+!AIVDM,1,1,,B,133UQ650000>gOhMGl0Sh1nH0d4D,0*33\r
+!AIVDM,1,1,,A,13f9I>0P1s0UsQnI5SNa47DN@D1k,0*50\r
+!AIVDM,1,1,,B,4020ssAuho;N?PeNwjOAp<70089A,0*09\r
+!AIVDM,1,1,,A,16KPbtP02Cb0KkpDDPBIfWTP2D5R,0*40\r
+!AIVDM,1,1,,B,13aENrwP00PH?ObN9un05wvN2<0a,0*6B\r
+!AIVDM,1,1,,B,4028j=1uho;N>Npi9j?wtk700@8a,0*09\r
+!AIVDM,1,1,,A,14`bwv000DKGV=H:S06jFRFJ0@9=,0*12\r
+!AIVDM,1,1,,A,33bi=B5wP0awIEJDAdSEoVLN0000,0*6C\r
+!AIVDM,1,1,,B,133gBLPP00PD>j:MDGWh0?vN20Sl,0*7C\r
+!AIVDM,1,1,,B,13prCC0000QEKmrO8PIqM`vN0D0O,0*64\r
+!AIVDM,1,1,,B,13aDrShP00PGrK0MaSLo8?vN25Ip,0*58\r
+!AIVDM,1,1,,A,35MwE4PP2UJe>=`GBKA99?vL0001,0*4B\r
+!AIVDM,1,1,,A,168sV@00018K0DFFCS7pj9LP2H9;,0*1A\r
+!AIVDM,1,1,,A,13u?jB?0000r4j2P4MP=0bbL05Ip,0*63\r
+!AIVDM,1,1,,A,13aGt8OP000JtR6MADlh0?vNP5Ip,0*1C\r
+!AIVDM,1,1,,A,100000?P?w<tSF0l4Q@>4?wp0`9@,0*3F\r
+!AIVDM,1,1,,B,402FhaQuho6Nj0dsn4I=k<i004ip,0*77\r
+!AIVDM,1,1,,A,139LiF0P000ePEfNWw?@0OvP00SK,0*68\r
+!AIVDM,1,1,,B,13aGu=PP000D3FHME?G:HgvN0@9B,0*56\r
+!AIVDM,1,1,,B,33QP<:5001NqN:2@72RKHP0P0000,0*7B\r
+!AIVDM,1,1,,A,133Vvn001nP=;DnMEvFV64bN0H9B,0*39\r
+!AIVDM,1,1,,A,10CUOlhP?w<tSF0l4Q@>4?wpPt3;,0*58\r
+!AIVDM,1,1,,A,33aDr2hP3T0D@tfMdfKJ@OvL01hA,0*69\r
+!AIVDM,1,1,,B,13P7lnAP0mOdt<bLkOgQ@wvP2H9;,0*38\r
+!AIVDM,1,1,,B,4025;PAuho;N>0NJbfMRhNA00D3l,0*66\r
+!AIVDM,1,1,,A,13aDr=PP00PGIljMhwO3F?wN20RJ,0*62\r
+!AIVDM,1,1,,B,24SaQh500G0Cu7nMErpJ680N0@9C,0*3F\r
+!AIVDM,1,1,,A,16SWcDPP00a3V8`EK<Gh0?vN20RB,0*66\r
+!AIVDM,1,1,,B,339dP41P00Q1GmdNnDo82wvLRDn:,0*5D\r
+!AIVDM,1,1,,B,13n34;wP000iMqtRBWe@0?vN0@9A,0*1E\r
+!AIVDM,1,1,,B,139=P:001n0T2d8HqJQ1QQ@N0D1r,0*36\r
+!AIVDM,1,1,,B,23L?MH001UP>QqDMIOlC7BHN05Ip,0*17\r
+!AIVDM,1,1,,A,33bsi40023P1eVvLsiA9eWlP05QC,0*78\r
+!AIVDM,1,1,,,13P7Bj0P0B08Gn6MfqkGwgvP2@9A,0*65\r
+!AIVDM,1,1,,A,17c<MV8P1S9we5vD2QWoO66L0UIp,0*46\r
+!AIVDM,1,1,,B,38u<a<?PAA2>P:WfuAO9PW<P0PuQ,0*6F\r
+!AIVDM,1,1,,A,13mFpH002F11V0lVOb;ibQG005Il,0*04\r
+!AIVDM,1,1,,A,402M4L@000Htt12>B0VPVH700`Ct,0*2A\r
+!AIVDM,1,1,,A,13aFerwP00PDW=jMeErDbOvNRD7c,0*2B\r
+!AIVDM,1,1,,B,14V`h2002C08@npMF?sWl6<N0<<E,0*26\r
+!AIVDM,1,1,,A,16:BWPg001`eo1hA8EEqa6<N20S6,0*71\r
+!AIVDM,1,1,,B,16:@?m001o85tmL<SbP5OlHN25Ip,0*7F\r
+!AIVDM,1,1,,A,23aFfl0P00PCR>4MEBBP0?vN20S<,0*23\r
+!AIVDM,1,1,,B,13P:v?h009Ogbr4NkiITkU>L089D,0*31\r
+!AIVDM,1,1,,A,16:Ce7PP018LG:J>09aP0?vL0<2D,0*01\r
+!AIVDM,1,1,,B,13CsGSgP0089Kcr<oOS99gvP2@8t,0*5F\r
+!AIVDM,1,1,,B,403tAEiuho;N?89E5:<nomQ00<8u,0*08\r
+!AIVDM,1,1,,B,160o>L0029`8s7h<iJ6VT5DF0UIp,0*30\r
+!AIVDM,1,1,,B,233e:qPP00PD1`4MDdeJLwvN2D6?,0*76\r
+!AIVDM,1,1,,A,19NS9jh01O0D2=pOQDDem:rJ0<0;,0*5E\r
+!AIVDM,1,1,,A,13aGuEPP000JL2vNTkLJ?wvP2D6?,0*26\r
+!AIVDM,1,1,,B,13ciTl0P000ev>>I<WI@0?vN0D14,0*3B\r
+!AIVDM,1,1,,A,36K2DrP02KabIF2CjCVCijnN00RP,0*15\r
+!AIVDM,1,1,,A,13aGEe@P00PDG8LMDRkC`gvN20Ri,0*60\r
+!AIVDM,1,1,,B,3776k`5000a3SLPEKnDQQWpH0000,0*78\r
+!AIVDM,1,1,,A,13n@oD0PB@0IRqvQj@W;EppH088t19uvPT,0*3E\r
+!AIVDM,1,1,,A,133i`mPP000CjiPMcwk1Mgwd089F,0*1E\r
+!AIVDM,1,1,,A,13pr<nS00w12lV<NUW2WPF0J088i,0*49\r
+!AIVDM,1,1,,A,14WW<8002;awlV`D9hfW25RL00Rk,0*66\r
+!AIVDM,1,1,,A,16K2=2@001awHMfD<958=7<P05Ip,0*45\r
+!AIVDM,1,1,,A,36KVnDhPBwawaN8DA9<8jVtL80V0,0*4A\r
+!AIVDM,1,1,,A,4h3OvjAuho;N>o=cf0Knevo00l3;,0*38\r
+!AIVDM,1,1,,A,13aDBphP00PEAF@M`j5eQ?wj0<5`,0*64\r
+!AIVDM,1,1,,B,13aGrqgP00PDQaPMdwuJ3?vNR89G,0*00\r
+!AIVDM,1,1,,B,33ctMd501q0gvchHRvv9i2BL018Q,0*6A\r
+!AIVDM,1,1,,B,23NCqt5OiL0>Ve4MI0rtEb0P2@9G,0*03\r
+!AIVDM,1,1,,A,15NM4o0009rde<HGBbidv:TP0<37,0*5E\r
+!AIVDM,1,1,,A,33aBN`PP00PD:<BMd7`oBgwfR11i,0*65\r
+!AIVDM,1,1,,B,33P93;gP@6OiDI:NW64E2obH0130,0*3F\r
+!AIVDM,1,1,,B,33ktps002APquJVP4PuMDb`P21hi,0*1A\r
+!AIVDM,1,1,,B,139h9WgP1BPFps<MagICLOvP289I,0*6B\r
+!AIVDM,1,1,,B,13u>>3?P011Bg>:Qt`iqWgvP20Ss,0*76\r
+!AIVDM,1,1,,B,133snFgP000D7s`MEBWqwgvPR@9I,0*10\r
+!AIVDM,1,1,,B,34ahhl5000R:EDrRAT4hUhtN0P00,0*4D\r
+!AIVDM,1,1,,A,15Mn4kPP0nG?ss6K=jw1E?vP089F,0*3F\r
+!AIVDM,1,1,,A,13EoN=0P00NqIS<@6Od00?vN0D1F,0*5D\r
+!AIVDM,1,1,,B,13aDpd0P0oPDUknMe@MBhgv@R@9I,0*51\r
+!AIVDM,1,1,,B,135OEv001hOC>mPEwlpuP:pP2<1l,0*7A\r
+!AIVDM,1,1,,B,19NSC:h023wABETF8ArVu5PP05Ip,0*12\r
+!AIVDM,1,1,,,33P<f4CP@BP8;IvMjD:GiBJP01vP,0*2C\r
+!AIVDM,1,1,,A,13:jTr0vjvP6<v@M9f@8c6qp0d7<,0*05\r
+!AIVDM,1,1,,B,139W@c?P00PU7tlNWgKq8gvLRH8u,0*59\r
+!AIVDM,1,1,,B,11mg=5OP00Pdu`JI>lS59Ov<0<0g,0*49\r
+!AIVDM,1,1,,A,13QWhR012COJ`0TDSdkCS2ph0@=j,0*6C\r
+!AIVDM,1,1,,A,4028j:Quho;MgOvPkdFl:VG000S:,0*74\r
+!AIVDM,1,1,,A,13P;ShPP08Oh8ntNtk64M?vJ0@9J,0*67\r
+!AIVDM,1,1,,A,4028j@1uho;N9OS>8NDqOko00<3J,0*62\r
+!AIVDM,1,1,,B,133gW9g0000CjIrMG2C07bVL0@9K,0*6E\r
+!AIVDM,1,1,,A,33P:LS300sP6Q8VNAhRh6bpL21v0,0*3A\r
+!AIVDM,1,1,,A,13u?jNPP00QBgJTQtKE00?vP25Ip,0*2C\r
+!AIVDM,1,1,,A,4028is1uho;MiOvObpFTNFW005Il,0*57\r
+!AIVDM,1,1,,A,E0000ChcFstP000000000000000?iM91:RGuH00003RP10,4*3F\r
+!AIVDM,1,1,,A,4028nBiuhoHtt<tSF0l4Q@700PS:,0*7D\r
+!AIVDM,1,1,,B,139LA7PP0h0r6@hP2I06u?vP05Ip,0*5D\r
+!AIVDM,1,1,,B,13b5LP000Q0E<u:N;KCoVErN00Sd,0*01\r
+!AIVDM,1,1,,B,133h0RPP000DUqJMDK;00?vNR<3k,0*4C\r
+!AIVDM,1,1,,B,16:@K0002L8d7u6EWaQWLErP0D3U,0*39\r
+!AIVDM,1,1,,A,169@SiPP15`VRpPEQPuRN?vN0<19,0*0C\r
+!AIVDM,1,1,,A,177jE;00008RsIn>pEQiphTP0<0U,0*7B\r
+!AIVDM,1,1,,A,15Mj3>g001o?@W<K;vvb6nTR0D1r,0*5E\r
+!AIVDM,1,1,,A,16:>Hi0P058bMobEVKLCuSHJ08>G,0*79\r
+!AIVDM,1,1,,B,C69DqeP0Ar8;JH3R6<4O7wWPl@:62L>jcaQgh0000000?104222P,0*32\r
+!AIVDM,1,1,,B,18Jobt001q0=2gPMICcJ1p8P089K,0*6A\r
+!AIVDM,1,1,,B,403t?hAuho;N>`Pc:j>Kgq700D2D,0*2C\r
+!AIVDM,2,1,8,A,569r?PP000000000000P4UQDr3737000000000000000040000000000,0*08\r
+!AIVDM,2,2,8,A,000000000000000,2*2C\r
+!AIVDM,1,1,,B,403tB81uho;N>85Ckv=2s=Q00D86,0*1D\r
+!AIVDM,1,1,,B,169?sl0P1K8PTVR>;AC8NgvN0D2n,0*1F\r
+!AIVDM,1,1,,A,14R8V`001nOuoMHO>CcLj:LN0<0B,0*41\r
+!AIVDM,1,1,,A,15Mv5v?P00IS0J`A86KTROvN0<5k,0*12\r
+!AIVDM,1,1,,A,15Mwd<PP00ISfGpA7jBr??vP0<3:,0*04\r
+!AIVDM,2,1,4,B,55MwW7P00001L@?;GS0<51B08Thj0TdpE800000P0hD556IE07RlSm6P0000,0*0B\r
+!AIVDM,2,2,4,B,00000000000,2*23\r
+!AIVDM,1,1,,A,15N7th0P00ISsi4A5I?:fgvP2<40,0*06\r
+!AIVDM,1,1,,A,15NIEcP000ISrjPA8tEIBq<P089=,0*63\r
+!AIVDM,1,1,,B,15MuS0PP00IS00HA8gEtSgvN0<3U,0*61\r
+!AIVDM,1,1,,A,16K8Au@000awU:FD9l?JcnrP289D,0*15\r
+!AIVDM,1,1,,A,15MwP=0000ISS5lA7=qJ57jL05Ip,0*0D\r
+!AIVDM,1,1,,B,15NF:5g007qTHIhA:wWrK2nN089A,0*3A\r
+!AIVDM,1,1,,A,15N8<TPP00IRlor@ktvdDgvN0D56,0*77\r
+!AIVDM,1,1,,B,15MmOb?P00ISh=hA8e5:rgvP25Ip,0*7A\r
+!AIVDM,1,1,,A,15N0vCPP00ITM6>@rCmcr?vN00SB,0*2A\r
+!AIVDM,1,1,,A,15NF8f0P00ISHSt@nv3c3OvP2D5>,0*4E\r
+!AIVDM,1,1,,A,15N0DbPP00IT6IvA5ETR0?vN089I,0*16\r
+!AIVDM,1,1,,B,13aC2k@P1IPTG@HKobtHcgvP25Ip,0*19\r
+!AIVDM,1,1,,B,33`j4pPP00PCrPfMEqNjW?vN22wk,0*2D\r
+!AIVDM,1,1,,A,13I49l?P000Fka<HmA6cawvP25Ip,0*1C\r
+!AIVDM,1,1,,A,D04757QWpr4ea<r4ebdr4d00M6D,2*61\r
+!AIVDM,1,1,,A,16KVqwP01`awQq@D6Dma5G@P2H9G,0*21\r
+!AIVDM,1,1,,A,13b7ht0P010D2a:MdgP9Q?vP2@9M,0*78\r
+!AIVDM,1,1,,A,13pr=`PP0011CaPNn=TP0?vJ00Ra,0*10\r
+!AIVDM,1,1,,B,13=I`D5P008VjT2DanJ80OvN0d2t,0*1C\r
+!AIVDM,1,1,,B,13aGDjAP1GPHf;HNKN0jNOvNR<0g,0*54\r
+!AIVDM,1,1,,A,15N4cJ`000JrjatH@0==<RlL0L0C,0*1F\r
+!AIVDM,1,1,,B,13aGEE?P00PDT:@Mdgvh0?vP2D7J,0*26\r
+!AIVDM,1,1,,B,177AIG021gR=p?Afk2hH8VRP0L0q,0*20\r
+!AIVDM,1,1,,A,15N31ogP00Je<s4GBP5@0?vL00S5,0*11\r
+!AIVDM,1,1,,,33P1aH?P0CP81flMjSWWu?vP25dS,0*48\r
+!AIVDM,1,1,,A,14eGcjPOiBo;c4@KpNIe2:VL089G,0*42\r
+!AIVDM,1,1,,A,15N;0>0OiLJllmHGWd3<Ir0N088o,0*0D\r
+!AIVDM,1,1,,A,14eGEB?02@o;@VtKqBvQ`1HN0UIp,0*19\r
+!AIVDM,1,1,,A,13aFfPPP0DPDP;tMdr?rSOvP2@9N,0*63\r
+!AIVDM,1,1,,A,14Ris:000604N;tMNB>amTPP0H9E,0*71\r
+!AIVDM,1,1,,B,155?c800000JF:@Qg`cscF2P0<0n,0*65\r
+!AIVDM,1,1,,A,14SH4T002>PI9SBQmu5HeVtP05Ip,0*7A\r
+!AIVDM,1,1,,A,13aBN9hP180CcolMHp16uwvL0<3w,0*50\r
+!AIVDM,1,1,,A,19NWt8hwh0wnM40Pdfi=`SJP0@9M,0*47\r
+!AIVDM,1,1,,B,13aJG9hP00PCqTpMdVi3bgvP20Rv,0*2C\r
+!AIVDM,1,1,,B,13B0?j00140jDqfPqNOLI9lf0PRe,0*4D\r
+!AIVDM,1,1,,B,33u?eoP90IPmvfrPw>iS6jJL012Q,0*31\r
+!AIVDM,1,1,,B,B3u@sp0000=Mvr8@;P803wWUkP06,0*76\r
+!AIVDM,1,1,,B,13uA;v?P0s0nd78Q19FS7gvL00T4,0*01\r
+!AIVDM,1,1,,A,13u?oh00000mBWrQ2bK005:N05Ip,0*64\r
+!AIVDM,1,1,,A,802R5Ph0BkEachFWA2GaOwwwwwwwwwwwwkBwwwwwwwwwwwwwwwwwwwwwwwu,2*57\r
+!AIVDM,1,1,,A,14eGIGgP00G<=7fL6h3s>wvN0H8r,0*3E\r
+!AIVDM,1,1,,B,14eH?fwOhLG=On<L:UBIk`2P05Ip,0*52\r
+!AIVDM,1,1,,A,1595J0OP00o=D@@L;0TJ<gvP2<1e,0*23\r
+!AIVDM,1,1,,B,14eGM40P03G=E9lL9<7i5OvN05Ip,0*1B\r
+!AIVDM,1,1,,B,3030p6O000o<WVtL99r9@P>L00lQ,0*62\r
+!AIVDM,1,1,,B,1815:bh000o=T>RL<wKi?:2L089G,0*6A\r
+!AIVDM,1,1,,B,16S`4w0P00a3OjjEKPDh0?vOr<1A,0*55\r
+!AIVDM,1,1,,A,33aGrU@OhB0Hpi8NL0:@bQeF1aHk,0*70\r
+!AIVDM,1,1,,A,133sMgPP010D<dLMDv27mwvLPH9O,0*1B\r
+!AIVDM,1,1,,A,33pr<nS00w12lV<NUW2WPF0J0000,0*12\r
+!AIVDM,1,1,,A,16K2<nh000awHPlD<8gaP7DP0<3w,0*4D\r
+!AIVDM,1,1,,A,13aEOepP00PCrh:MDh4sGOvN20Rp,0*0F\r
+!AIVDM,1,1,,B,33aI90gOhqPIHmLMdWe2rRFP20t@,0*6C\r
+!AIVDM,1,1,,A,16K2<4P00?awMNfDCJDRViTL0000wvCvFH,0*0A\r
+!AIVDM,1,1,,,13lcO20001P5C3LMijlHV18P0L22,0*56\r
+!AIVDM,1,1,,B,13aDs1@P00PDSsbMdgiT7wvLR<?4,0*6A\r
+!AIVDM,1,1,,A,E04<o5AaWdPnaGaP00000000000DPmI6:aCVH00000Wh20,4*02\r
+!AIVDM,1,1,,A,133f3v700000RNNLD4>ceH`P0<1@,0*60\r
+!AIVDM,1,1,,B,13aDql@P00PL5=nMhSKkvwvN20Ra,0*2B\r
+!AIVDM,1,1,,B,13aJGc0P150Hr<DMcuVAlOvL0D21,0*1C\r
+!AIVDM,1,1,,A,16K2>6P000awht@DI4HdcQ6N25IpapGvFH,0*35\r
+!AIVDM,1,1,,B,17bNP<0P?w<tSF0l4Q@>4?wp0W3h,0*61\r
+!AIVDM,1,1,,B,16Sfle0P00a3`wlEM:cR?OvN289D,0*6B\r
+!AIVDM,1,1,,B,133kV>PP00PD6BHMDnCPuwvP2<70,0*66\r
+!AIVDM,1,1,,A,139alnPP010KrWRMbreWE?vL089K,0*26\r
+!AIVDM,1,1,,A,168sVa0P008K37@FCLrCUgvP0D5i,0*4E\r
+!AIVDM,1,1,,A,13aGtn@P1bPD:48MdVT9cww<R5Ip,0*6A\r
+!AIVDM,1,1,,A,133e`UPP000DCGLMDA400?vPP@9R,0*65\r
+!AIVDM,1,1,,B,11l7pH0P00PD@`NMcpUi>wvN25Ip,0*71\r
+!AIVDM,1,1,,B,13P<Nw0000P=L6fMCsK8AVJR089R,0*61\r
+!AIVDM,1,1,,A,13`wgT0P5fPGmDfN>o?TN?vN2<05,0*5D\r
+!AIVDM,1,1,,B,13m32n001T0p5hjPGO7FE52N05Ip,0*2E\r
+!AIVDM,1,1,,A,15>ucf0036o?N>8K=Nd6GU<N089P,0*1A\r
+!AIVDM,1,1,,A,4020tPiuho;N@PoHAPO027G00@9S,0*5B\r
+!AIVDM,1,1,,A,16K2;RP000abph0Cn7A4@bvN0<2I,0*78\r
+!AIVDM,1,1,,A,1:16dn0P010g<ITHseOtPwvP0@9Q,0*4B\r
+!AIVDM,1,1,,A,16K8Dah002awB4nDB6>a8n`P2<4AUsGvJL,0*40\r
+!AIVDM,1,1,,A,15NE7mPP4`Je3VTG@24=qwvR0<2u,0*6C\r
+!AIVDM,1,1,,A,13`gb9@P010Ch8@Md@c6<OvL00S0,0*1C\r
+!AIVDM,1,1,,A,33lrw>1000`Sfn@D3BeUGjHP0D`:,0*15\r
+!AIVDM,1,1,,B,177nPUP0008:GHt<ibEeHEop05Ip,0*5F\r
+!AIVDM,1,1,,A,168tHT?0008R`bBCpI2=to`Or<35,0*5D\r
+!AIVDM,1,1,,A,35Q9DH50008RLR<D58ec1K0N000>,0*4C\r
+!AIVDM,1,1,,A,1694cF500L8LNch>18cPOhPP05Ip,0*5E\r
+!AIVDM,1,1,,A,16<mD88P008LOAR>18g>47dL05Ip,0*35\r
+!AIVDM,2,1,1,A,569>R:P0000088PF221`PtpM@TD8tP4W4P4v220t42F5C4o@0?6@CU0B,0*3B\r
+!AIVDM,2,2,1,A,H3l`35Dj5C`8880,2*54\r
+!AIVDM,1,1,,A,16:JD5PP008S2FB>q6;mGR4L0@=K,0*39\r
+!AIVDM,1,1,,A,4>pf7j1ufUHtt``QrPEfg1i0080V,0*69\r
+!AIVDM,1,1,,A,17ld<qh000`dNkNAv2GEPIDN289<,0*49\r
+!AIVDM,1,1,,A,15Sq:B?000IT5Bf@jd=oIUfP0@9L,0*48\r
+!AIVDM,1,1,,B,403tDGl47wk?0<tSF0l4Q@000t6H,0*07\r
+!AIVDM,1,1,,B,15ND5?0P01ISjbrA4QSIs?vP00RQ,0*77\r
+!AIVDM,1,1,,A,15NIe<PP00IRM?0A87v<MwvP0@9O,0*3B\r
+!AIVDM,1,1,,B,1690JO`00087B=p==gs3G3:L0L86,0*29\r
+!AIVDM,1,1,,A,15NDcSP000ISPDBA1r0nk2NN00SE,0*27\r
+!AIVDM,1,1,,A,38Jh6T002J8gpDhAk064M3NN0000,0*70\r
+!AIVDM,1,1,,B,169U@HPP00`ONIR><mn00?vN2<1B,0*47\r
+!AIVDM,1,1,,B,168u;00P00`:wG@<rQsMROvN0<0K,0*5D\r
+!AIVDM,1,1,,B,16:>P>P01l`O?e8=u>k9JWRJ0H9G,0*1F\r
+!AIVDM,1,1,,A,33P<cAmP00wjLLVQh<IdPOvP0JJP,0*6F\r
+!AIVDM,1,1,,2,133vwQgP00P@rSPM?GmapwvR2D3c,0*5E\r
+!AIVDM,1,1,,B,13@o;hEP0`0pqNtP90oKnwvP20Rr,0*75\r
+!AIVDM,1,1,,B,33aDo;0P000Ph?HMOfM4>?vf0Rf1,0*72\r
+!AIVDM,1,1,,,100:g0P000PIa4BN8N:@0;:PR@9O,0*12\r
+!AIVDM,1,1,,B,18I>or001IJqFhnGTdG>2;8P0<0:,0*2C\r
+!AIVDM,1,1,,A,15Mwo`0P00JnGO8GVmIsK?vP00RC,0*66\r
+!AIVDM,1,1,,A,14eGCn@029o;B0PKoGf7rnJN05Ip,0*37\r
+!AIVDM,1,1,,B,13psL9P001Q1CMjNn<qkl7RD05Ip,0*43\r
+!AIVDM,1,1,,A,13n3aW0PBuPJ`JBQh7Lbd`LP2H9Q,0*40\r
+!AIVDM,1,1,,B,33mGSF0OkFPJiBTQfuU7w6FP00U@,0*4F\r
+!AIVDM,1,1,,A,13oJ2r000011joNVP0WiITD00@Eg,0*39\r
+!AIVDM,1,1,,A,13oC1d000011jhhVP1WGo9u605Il,0*25\r
+!AIVDM,1,1,,A,139a6mgP00PeaMHN`o2anwvN089V,0*15\r
+!AIVDM,1,1,,A,19NSCSh03:PUEn0NiNmEPDHP0896,0*26\r
+!AIVDM,1,1,,B,13P<Fc@001P89iBN7t0m1hPR05Ip,0*52\r
+!AIVDM,1,1,,B,13biE60P000J;N0NToi5ugvP0@9O,0*1B\r
+!AIVDM,1,1,,A,13aa465P020LInvNSqn@7gvP0H9Q,0*48\r
+!AIVDM,1,1,,B,13aEQD0P0mPJh76NSedeTwvRR89S,0*26\r
+!AIVDM,1,1,,B,83aGF=hj2P00000001>hj@QU6SL0,0*73\r
+!AIVDM,1,1,,A,15DS6f002>9wU2dD5hea>7DL0m8c,0*3E\r
+!AIVDM,1,1,,A,A04757QAv0agH2JdGlLP7Oqa0@TGw9H170,4*5A\r
+!AIVDM,1,1,,A,13@>j4000wPWh7bNn4u5qThL0@98,0*5D\r
+!AIVDM,1,1,,B,13c1cv001o11kK>NiQIdRr8L089C,0*5D\r
+!AIVDM,1,1,,A,13P7=o000nP5N:6ML0CqgWhR20S2,0*02\r
+!AIVDM,1,1,,A,13cCp20wh1P6aL8MPwe:gRpL089`,0*46\r
+!AIVDM,1,1,,A,13aGDo3P00PD5;NMdnRCgwvBR5Ip,0*32\r
+!AIVDM,1,1,,A,34`alU001;w46E`4:Au;WI8L20qP,0*0B\r
+!AIVDM,1,1,,A,133ji6PP00PCugbMDpl@0?vPR89a,0*0F\r
+!AIVDM,1,1,,A,3344QN0PB00=CJRMIUN8IFTR012h,0*08\r
+!AIVDM,1,1,,A,13aDGp0vAePHH80NThSRiRBN0D37,0*38\r
+!AIVDM,1,1,,A,13aBC400180Bt90MfmEKsIRR20SG,0*12\r
+!AIVDM,1,1,,B,133n@sPP00PClp>MGbbSUOvN2D6H,0*0B\r
+!AIVDM,1,1,,B,14eH?jPOh0G>=Q8L9es2WS>P0D1q,0*3D\r
+!AIVDM,1,1,,B,B670WF@0G1tpiI2lG9hu?wWW1P06,0*77\r
+!AIVDM,1,1,,A,33ew540uiowwtcPO0F3<Wb4N00vP,0*6E\r
+!AIVDM,1,1,,2,133l@JgP00PA?n:M@Fwh0?vPRH9c,0*72\r
+!AIVDM,1,1,,B,15Mqu:P01RJ4lLt?js43;Bj>00RW,0*72\r
+!AIVDM,1,1,,B,1CTRUT3P001d0o8Ef1O5POvV0P00,0*36\r
+!AIVDM,1,1,,A,33M@G>m001wvw@@M5M=5I8pN0000,0*0A\r
+!AIVDM,1,1,,B,13oT?@0P1m0Jm<`Qq7c8`VnL0<0g,0*17\r
+!AIVDM,1,1,,B,13=Uan10?w<tSF0l4Q@>49gp3W3h,0*36\r
+!AIVDM,1,1,,A,1>qc9ww000OkfS@MMI5004RN0<0B,0*49\r
+!AIVDM,1,1,,B,133WgP?0?wPD:nFMDJI>45VR0@9d,0*29\r
+!AIVDM,1,1,,A,13cdUc001i0c7f:HmMFn?WVR05Ip,0*65\r
+!AIVDM,1,1,,B,13@WwF001E0b?KTNoRm`e6tJ00S5,0*72\r
+!AIVDM,1,1,,A,13:nRl02P2PawMnNn>KSVW:L0D2<,0*40\r
+!AIVDM,1,1,,A,14SQ2j00000aW>LNm=whGj2J0t2=,0*12\r
+!AIVDM,1,1,,B,14RlS8001D0aDs0NlM71wQdH0D3D,0*36\r
+!AIVDM,1,1,,A,4020rliuho;N=PWnmHNlh<700<00,0*5C\r
+!AIVDM,1,1,,A,4020sViuho;N=Pan`pNmQ0W00<00,0*30\r
+!AIVDM,1,1,,B,139K`H501B0aqhhNmCK493:L088?,0*47\r
+!AIVDM,1,1,,B,13agN@50100aO4VNlw>B@1tH0@8U,0*2E\r
+!AIVDM,1,1,,A,139IJ700000apiVNmWUakQ:P2897,0*23\r
+!AIVDM,1,1,,A,14SJ=B000I0ap?`NmVgQOQBP0L2l,0*2F\r
+!AIVDM,1,1,,A,13;5<D001J0b:R@No4d8IVnJ0@9F,0*2E\r
+!AIVDM,1,1,,B,13cD;T001<PaIkvNlid25QlL00SN,0*43\r
+!AIVDM,1,1,,A,139aUg?P000b9LFNo1bh0?vN0D1j,0*42\r
+!AIVDM,1,1,,B,18159T001iwAhsDErP9G0mVP0<2M,0*45\r
+!AIVDM,1,1,,B,13@RSd002AwD2FrEb@9uVJpP089O,0*2D\r
+!AIVDM,1,1,,A,133vAlPP1`PCLJbMIku<qOvR25Ip,0*68\r
+!AIVDM,1,1,,A,16K8Cb0000awjR8DIfBUbVLN05Ip,0*13\r
+!AIVDM,1,1,,B,33`hoKG00OPF>0:Mf8bVhRdP01o@,0*24\r
+!AIVDM,1,1,,B,13aFfGgP00PH=eVN9o2@0?vP20SD,0*56\r
+!AIVDM,1,1,,B,13a2GR002W09JlRMNFT`WFvR05Ip,0*01\r
+!AIVDM,1,1,,A,13aH00gP00PGFOFMipMSswvP25Ip,0*34\r
+!AIVDM,1,1,,A,401rWbQuho;N>8eOU6FGgMA005Ip,0*2B\r
+!AIVDM,1,1,,B,13oQg600000JA1VQgaRbkUPR0D11,0*3B\r
+!AIVDM,1,1,,B,13P<LaPP@3wgbddNs3ruO8tR2H9e,0*19\r
+!AIVDM,1,1,,B,33m:q<0PAP0JKBNQibu9=7FN00v0,0*21\r
+!AIVDM,1,1,,B,13aENUhP00PCS2jMEBH<VwvbPl7@,0*78\r
+!AIVDM,1,1,,A,13b<:<002SwiDCFNo2WbQpLL05Ip,0*79\r
+!AIVDM,1,1,,A,15RU7H00?w<tSF0l4Q@>449v0h9=,0*1B\r
+!AIVDM,1,1,,A,13`ekbhP000Cb@LMd6P@0?vN05Ip,0*09\r
+!AIVDM,1,1,,A,19NSA9hvAsP3o`pM2mrqGGLP089G,0*00\r
+!AIVDM,1,1,,A,133maoPP00PCdJNMGT59tgvR2<7;,0*60\r
+!AIVDM,1,1,,A,14hr:@?0000IbthHdv9UbnbR0D0T,0*51\r
+!AIVDM,1,1,,A,13aFgn@P00PGP;RMaKl<U?vPRD58,0*54\r
+!AIVDM,1,1,,A,13ALbL000wPqiR`P3v=rrHPP0<1T,0*33\r
+!AIVDM,1,1,,A,18KBB4001OreimtFcT8G>UbN05Ip,0*3C\r
+!AIVDM,1,1,,B,13aGCN@P000D><fMd?`at?vR289g,0*20\r
+!AIVDM,1,1,,,13t`>2@0000I`ABN8K3H8pHR0<2O,0*72\r
+!AIVDM,1,1,,B,233ugp5000PCTA0MHAU:gRvL0H9g,0*44\r
+!AIVDM,1,1,,B,14RJK@00010HoBjNKnlJ86NR25Ip,0*6C\r
+!AIVDM,1,1,,B,14R`::00000g;5pHsT1<25LR089f,0*17\r
+!AIVDM,1,1,,A,13aHId00000HiprNK8iI996N0<0u,0*1F\r
+!AIVDM,1,1,,A,133rncPP00PCmRBMABDh0?vPR@9h,0*0E\r
+!AIVDM,1,1,,B,15N50PPP00G?j>VK@@Uq1OvP0D2E,0*74\r
+!AIVDM,1,1,,B,13P<<6OP03OhF@vNt?jMu?vP2L0N,0*44\r
+!AIVDM,1,1,,B,133rjigP00PD>L0MD?89PwvRRH9h,0*7B\r
+!AIVDM,1,1,,B,14nF?V001B11T>@NjsH5QlJN0@:3,0*52\r
+!AIVDM,1,1,,B,13`emt@P00PCuh0MENooP?vP2D3w,0*28\r
+!AIVDM,1,1,,A,15N3Q??P04Je4L<GBL6Qugv80@2e,0*64\r
+!AIVDM,1,1,,A,16:AEV0P008L::P=wF8bKOvOp<2S,0*4B\r
+!AIVDM,1,1,,A,16:Qrd90008M0uF>2QDaqCrl00S2,0*16\r
+!AIVDM,1,1,,A,B6:Qno000279<OSPdw`03wWUoP06,0*78\r
+!AIVDM,1,1,,B,169pl9?000`caBREPk3IDU6P2D1>,0*49\r
+!AIVDM,1,1,,A,15?FMb80008gFp8EKRQ1E4<P00S2,0*6D\r
+!AIVDM,1,1,,B,14avgF001Q`cjUvEP;e:QpLP0H9S,0*62\r
+!AIVDM,1,1,,B,168uS@0P?w<tSF0l4Q@>4?vb1TAd,0*11\r
+!AIVDM,1,1,,B,35N99AUP00JrmUVH?DU00?vN0000,0*1E\r
+!AIVDM,1,1,,B,15MuRP0P00ISb>JA6di<O?vP0<1g,0*3D\r
+!AIVDM,1,1,,B,15N:AnPP00ISeCvA2UVc5gvR2@9U,0*4B\r
+!AIVDM,1,1,,A,15Mv7R0P00IRGPRA8NpawOvP05Ip,0*46\r
+!AIVDM,1,1,,A,15MpAUP000IR<;PA9Mp;ac:R0<3r,0*7E\r
+!AIVDM,1,1,,B,15MvaIdP00qT3g6A:WnKGwvR289a,0*0E\r
+!AIVDM,1,1,,B,15N9kWP000ITA2nA7qfJapJR0d5>,0*77\r
+!AIVDM,1,1,,B,133pjaPP00PCQgTMFJKKqOvP20Rn,0*79\r
+!AIVDM,1,1,,B,13Ib1p01@00Fn=@Hm?E:UTDL0<0a,0*68\r
+!AIVDM,1,1,,B,33ci`E1P000VoC@IFWKP0?vN0000,0*15\r
+!AIVDM,1,1,,B,13u?f1P0000n=VRPwWsV0opN0@9W,0*17\r
+!AIVDM,1,1,,B,13u=CfPq1N0muKFPuECH:nJL00S=,0*66\r
+!AIVDM,1,1,,B,33iQa45000PnCaJQ0W;C``PN0000,0*4B\r
+!AIVDM,1,1,,A,342LT35P00OWeI`DRQ;QGwvJ02uQ,0*0E\r
+!AIVDM,1,1,,A,19NS;?@01OwWFF`D`WT`36TJ05Ip,0*19\r
+!AIVDM,1,1,,A,13aGE00P000Hio`NKI;aVgvR289j,0*53\r
+!AIVDM,1,1,,A,13@nm?h0000hOEFQ1diIkiVR05Ip,0*0A\r
+!AIVDM,1,1,,A,17bHpl001Mb0:efDCM28m7rR00SE,0*2D\r
+!AIVDM,1,1,,B,139L7t0000P<USDM@VO008:N0<0b,0*39\r
+!AIVDM,1,1,,A,13aGF=hP00PCMClMH@IP0?vPR<7p,0*6C\r
+!AIVDM,1,1,,B,10000Nw0002:OR@RB>fP00:J05Ip,0*1C\r
+!AIVDM,1,1,,B,13P:W4?P0vOiB4VNVrlKA?vP2@9k,0*34\r
+!AIVDM,1,1,,A,33pr<nSP@w12lUvNUVvGQEvL0000,0*5C\r
+!AIVDM,1,1,,A,13aDrjPP00PLcCVMg??cVOvNR<18,0*7C\r
+!AIVDM,1,1,,A,13aFfpsP1SPKqThMblI;JwvNP5Ip,0*6A\r
+!AIVDM,1,1,,B,13aEPk?P00PEIg8MV0:6u?vP2H9l,0*30\r
+!AIVDM,1,1,,B,133eS7PP00PD>hNMDHrVrwvP2D5D,0*58\r
+!AIVDM,1,1,,B,13aGDPPP00PD<ehMe1W@0?vP2@9l,0*30\r
+!AIVDM,1,1,,B,13gS;gW000NqIeD@6eAu1UdR0H9k,0*20\r
+!AIVDM,1,1,,A,16SWR4000>a3V;HEK@tCsjdP0H9g,0*48\r
+!AIVDM,1,1,,A,14eGNM?001rkr6LJPi4Jr6vP2@9c,0*5A\r
+!AIVDM,1,1,,B,33a9980OhC0=KqdMCtUM`;8R01>0,0*27\r
+!AIVDM,1,1,,A,23aEPr@P010Cm?dMEo;V`OvNP@9m,0*2C\r
+!AIVDM,1,1,,B,139N4gP02sJnorlG<E`JP`HP00SQ,0*49\r
+!AIVDM,1,1,,A,15N8bOPP0>rnd`pGP=aU`?vP05Ip,0*44\r
+!AIVDM,1,1,,B,15MvFn001@rlsa`GGC49f7pP0<03,0*1F\r
+!AIVDM,1,1,,A,14aNTh0024Jmrg<G;ihrOpJP0H9<,0*6F\r
+!AIVDM,1,1,,B,15Mi<ng000o?A0@KFC;oR9LR0D1R,0*19\r
+!AIVDM,1,1,,B,14`WU>02BhwWL`tOM<hqM7bN0`8S,0*66\r
+!AIVDM,1,1,,B,13pr?I000011AdlNn9I:SH2P0<0O,0*7A\r
+!AIVDM,1,1,,A,139LF2PP1P10JLTNsScTlOvNJ5Ip,0*13\r
+!AIVDM,1,1,,A,33P;ROU000PCuwpMdk5VUUBN0000,0*79\r
+!AIVDM,1,1,,A,16KJcuP000b08VfDDThGdTDR00RL,0*4F\r
+!AIVDM,1,1,,A,1770N:002Vavq0@D2<qa97BN0<3U,0*13\r
+!AIVDM,1,1,,B,13aDpb8P010CC1tMEL7ncOvN089n,0*5A\r
+!AIVDM,1,1,,A,16K2>5@000b1IJTDGUHLGT<R089g,0*5E\r
+!AIVDM,1,1,,B,33IW><0s0aOru3FM4ijJT`RP0000,0*10\r
+!AIVDM,1,1,,A,16K2<i@000b1ICDDGTUaHT4R0H9i,0*51\r
+!AIVDM,1,1,,A,16K8Db?001aw;QbD@;uIuipR089i,0*01\r
+!AIVDM,1,1,,A,14an0h0001OSbh8Om8HKs21J2d04,0*2A\r
+!AIVDM,1,1,,A,24S8Dh5000PCSfBMH=jV=TvP0H9o,0*63\r
+!AIVDM,1,1,,A,15MvtiP000qSPHFF=Lr;hhBR00SO,0*6A\r
+!AIVDM,1,1,,B,33ILKT800f08MD0M:SOcLI<R00u1,0*77\r
+!AIVDM,1,1,,A,13u:Tn002MPsGnbOTRHi=PvP0D0v,0*57\r
+!AIVDM,1,1,,B,4h5GdPQuho;N@7KFU`0fSn700H9i,0*62\r
+!AIVDM,1,1,,A,23@QU<000IPCRsBMFcfp0FfR0@9p,0*53\r
+!AIVDM,1,1,,B,13aBNc0P1L0GFgBMjDpml?vN089p,0*74\r
+!AIVDM,1,1,,A,1018lEPP00OdoD4Llv?00?vL0L0?,0*2C\r
+!AIVDM,1,1,,A,6h2E:p66B2SR04<0@00000000000,0*4C\r
+!AIVDM,1,1,,A,13R78g0P001`titG@8;qjwvP0H9h,0*21\r
+!AIVDM,1,1,,B,13Oi>V8006Oe2?DLkmMeQ1rN0d0a,0*3F\r
+!AIVDM,1,1,,A,13prp100001Dlr0O<qT:vQlP08<>,0*41\r
+!AIVDM,1,1,,,13nSNf3000P8qv8MdS:4JPVR0UIp,0*12\r
+!AIVDM,1,1,,B,15N0qU0P1GG4cthLM:9tRwvP089f,0*43\r
+!AIVDM,1,1,,B,4h2=aDQuho;N?Ols:8Ls9EA000S:,0*33\r
+!AIVDM,1,1,,A,4h2=a@1uho;N?02t`FM6sti00H95,0*5C\r
+!AIVDM,1,1,,,13aDqA@P1>PIhQPN6dVIpgvP2D1D,0*2E\r
+!AIVDM,1,1,,A,601uEO@oWh>0048100,4*79\r
+!AIVDM,1,1,,B,B6:CvCP0E:1rN03BfnaSCw`2PD00,0*06\r
+!AIVDM,1,1,,A,133tMn001G`d:opAw2k<A9nL00S8,0*75\r
+!AIVDM,1,1,,B,1010000P0087?Op==4BnAOvP0H9M,0*76\r
+!AIVDM,1,1,,B,C69Dv5@07b83cT3QT?V?7w`0l@:PBL>jbjbMQikV0000?1@7QQRP,0*42\r
+!AIVDM,1,1,,B,B69Ds1h0=R85ml3Sg3h1Sh04SP00,0*04\r
+!AIVDM,1,1,,A,169qul0P008TRR0FpFd00?vP2<0w,0*08\r
+!AIVDM,1,1,,A,169Cf08P018hIJ:AUl<kowvP05Ip,0*20\r
+!AIVDM,1,1,,B,169FlQ00008:wih<rR39kT>P0@9U,0*4F\r
+!AIVDM,1,1,,B,13P7c9PP000qgopP49BbiwvR2L16,0*1D\r
+!AIVDM,1,1,,B,B33Q02000052pHWE5Gm`ow`5kP06,0*16\r
+!AIVDM,1,1,,A,13ev2b001sNtG7`4oTKd3qjP0<1R,0*38\r
+!AIVDM,1,1,,A,17cdLN0P1FawV=RD7@08CFNN0<0k,0*74\r
+!AIVDM,1,1,,A,13Ggvt7P0KP3DNBM09j:dgvP2<0t,0*4A\r
+!AIVDM,1,1,,A,16SnnH0029O1P6@4>`bcmSfR089f,0*5F\r
+!AIVDM,1,1,,A,B3mlTi0000@LNb9Ww12t7wiU3P06,0*3C\r
+!AIVDM,1,1,,B,143psl1P?w<tSF0l4Q@>4?wp0l0h,0*47\r
+!AIVDM,1,1,,B,13@oQRgP00PqeKLOoRkJKOvR2H9r,0*3D\r
+!AIVDM,1,1,,A,13aBNfhP0c0G2mTMei7olOvN089r,0*79\r
+!AIVDM,1,1,,B,33P:d<U000wiC0>Nu=:cUoTRP000,0*22\r
+!AIVDM,1,1,,B,1025OKhP00PJcu2NL7P00?vP2<0T,0*37\r
+!AIVDM,1,1,,B,14Vh0p001d0HhuJNa<JBn2>R089i,0*57\r
+!AIVDM,1,1,,B,33c:Bh000lPLFfPNUql`r7HP00wP,0*7A\r
+!AIVDM,1,1,,B,13aDCcWP1:0HBgJMVi4RAgvP0<59,0*2D\r
+!AIVDM,1,1,,B,34R1tn0007`VBCbDVm97?FnN02ui,0*3F\r
+!AIVDM,1,1,,A,18155uhv@7oOgA`BCt1SL0pN0L08,0*45\r
+!AIVDM,1,1,,A,13aJGvPP01PDTjvMe43A0OvP2<7w,0*1A\r
+!AIVDM,1,1,,A,16K8A;@02@:08L`DBVvQf1JN0d4A,0*31\r
+!AIVDM,1,1,,A,36K2;iPPAGawM9BDC6AJ9`4R212i,0*73\r
+!AIVDM,1,1,,A,15MwoQg000IOqw6BQuwsHBJR0D0A,0*32\r
+!AIVDM,1,1,,A,13P<;WgP?w<tSF0l4Q@>4?wp0h9t,0*58\r
+!AIVDM,1,1,,A,13bok:?0010H1qbNSR@JvohL089S,0*36\r
+!AIVDM,1,1,,B,13`fef?000PHAkjNQm3h080P2<0M,0*47\r
+!AIVDM,2,1,1,A,53m66:000000h4l4000e>0pu8LD000000000001J3hj<04000<Slk3h00000,0*5E\r
+!AIVDM,2,2,1,A,00000000003,2*26\r
+!AIVDM,1,1,,A,17PEdh0000:l2HwjJ:EqL1vP0<1S,0*79\r
+!AIVDM,1,1,,A,13uo4P01BkPqfu0OaiB6g5FR05Ip,0*39\r
+!AIVDM,1,1,,B,14SVqj001t1QjTrR61<;5q2J2<0?,0*38\r
+!AIVDM,1,1,,A,14bGa6001H0JI@lQeC7GHV8H05Ip,0*62\r
+!AIVDM,1,1,,A,13I>hf000000mc6LD=ldWPTJ0<0p,0*0D\r
+!AIVDM,1,1,,A,13aMiL00000LKgfNSsIpDE5@00Sf,0*0D\r
+!AIVDM,1,1,,B,13bh:p0P000LGaFNSpoTT?wn0D0F,0*3D\r
+!AIVDM,1,1,,B,13bWcr00000MSsPNUck8j`UN00Rv,0*10\r
+!AIVDM,1,1,,A,33c:Bh000nPLFwHNUru8V77L010@,0*21\r
+!AIVDM,1,1,,A,13Ap4F001>PHWU<O3Bq8AFQP00Rg,0*0A\r
+!AIVDM,1,1,,B,13aI9awP00PLIwnNSp<r>gwP2<0s,0*2C\r
+!AIVDM,1,1,,A,83aGDjhj2d<eL>=vLQA@ggfE0000,0*2E\r
+!AIVDM,1,1,,B,13aFdewP1IPHEAjMaki;PgvP289u,0*6A\r
+!AIVDM,1,1,,A,13bjGP000A0G:l`NPGE:R`?L00S4,0*0B\r
+!AIVDM,1,1,,B,139g;bPPClPMeDjNcEC3OBeP0@Kt,0*36\r
+!AIVDM,1,1,,A,35ECw`0PBIPMDhlNcOL3m31N00cQ,0*09\r
+!AIVDM,1,1,,B,33bfe80Oi5PL:rNNU<sRlBwL00wP,0*71\r
+!AIVDM,1,1,,A,33fCIn0Oiv0KAodNe5qBhB9P00qP,0*3A\r
+!AIVDM,2,1,7,A,53a5Rb0000010<DB220dtpTpN1LThhDn3622220`000005l<02lkkp888888,0*5C\r
+!AIVDM,2,2,7,A,88888888880,2*23\r
+!AIVDM,1,1,,A,13b<Q`00000LnVpNQ<7tOqCL00Rq,0*0D\r
+!AIVDM,1,1,,A,13ncqj03B<0FsrLNtH>au`3N00S7,0*55\r
+!AIVDM,1,1,,A,18IASj0ujT0FSdTNo:7P3c=R0<2Q,0*5C\r
+!AIVDM,1,1,,A,33`gl20OiOPGwbNNPdCJt`uP012i,0*72\r
+!AIVDM,1,1,,B,33bIIn0P@3PL=WBNTWeco0mV00r@,0*13\r
+!AIVDM,1,1,,A,177U<t003D0O;MHNjPq382SV08MS,0*13\r
+!AIVDM,1,1,,B,13c9L400000LI=JNSqa;J:UV0D0q,0*37\r
+!AIVDM,1,1,,B,19NSC`m03=0K>3@NeM>2l2;P00SA,0*3B\r
+!AIVDM,1,1,,A,33`l1T00000AMeDMH20MPc2N00S1,0*35\r
+!AIVDM,2,1,5,B,53P7fG02=bcdlELcB20MLDp@thDr222222222216DpF@@4m@0@EPCPkmEQD`,0*3C\r
+!AIVDM,2,2,5,B,88888888880,2*22\r
+!AIVDM,1,1,,A,19NWqOU001G<Ql0L<wOWsSRL089l,0*67\r
+!AIVDM,1,1,,B,402E34Quho;MjPL;CNNVEEG00HMd,0*7A\r
+!AIVDM,1,1,,A,133pc>PP00PCl<8MEC=:3wvRR5Ip,0*33\r
+!AIVDM,1,1,,B,139Qo=00000LHITNShm<q41V00SO,0*2E\r
+!AIVDM,1,1,,B,14RU:h002l0MH00NhG:30RKR0@N9,0*0A\r
+!AIVDM,1,1,,A,333tUb0vAp0L@uLNfKJjhj;V0000,0*08\r
+!AIVDM,1,1,,B,13aGtL?P00PJrMhNSIl00?w`28NT,0*1B\r
+!AIVDM,1,1,,A,177W<B0uj:0L<chNj89arGsb0HNe,0*53\r
+!AIVDM,1,1,,A,13aGt@PP00PLGWnNUsgTiOw`25Il,0*1C\r
+!AIVDM,1,1,,A,13aa465P0;0LIntNSqcDW?wd0D1d,0*76\r
+!AIVDM,1,1,,B,13abiN70000LI6vNSnsVgRed05Il,0*33\r
+!AIVDM,1,1,,A,13uDkH?000Ps=P:Oe<qtUCnR00S6,0*11\r
+!AIVDM,1,1,,A,139LF<P01O0MCoFNg@QepJob08OV,0*59\r
+!AIVDM,1,1,,B,13aGuE0P000LGiBNSu>bBwwh28PQ,0*54\r
+!AIVDM,1,1,,A,13e:6L002>0Son4NoNo332Ih08QN,0*5F\r
+!AIVDM,1,1,,B,13aMiL00010LKgfNSsJ8Am5R0@QQ,0*3E\r
+!AIVDM,1,1,,A,E>j9dhiQ0a2Hh;TW230a6h72P00@=igf?TQA000003vP10,4*54\r
+!AIVDM,1,1,,A,13brjT001MPGdAPO2Gao@msf08Qm,0*2C\r
+!AIVDM,1,1,,A,101A9kPP0=PLIFBNV3l1TOwj28Qi,0*1B\r
+!AIVDM,1,1,,A,14R1m20Oj30Mj9hNi0J30RMf05Il,0*78\r
+!AIVDM,1,1,,A,14S26D02iAPFhN4N`L:aeGih28RH,0*14\r
+!AIVDM,1,1,,A,15ECw`002HPME58NcOB3jRwn00Sb,0*1F\r
+!AIVDM,1,1,,A,15MaC<0P01Je8RpGChIL<wvR289t,0*64\r
+!AIVDM,1,1,,B,181:Ki@0000CG4tMF5iSG1?008D;,0*0B\r
+!AIVDM,1,1,,B,133n@RPP00PCt5tMF0qqawvpR<7t,0*48\r
+!AIVDM,1,1,,A,239a=5RP0wPBGTpMKnQP`gv<R<1t,0*4C\r
+!AIVDM,1,1,,B,23`ekA@P000CUf@MFW500?vN0D3w,0*45\r
+!AIVDM,1,1,,A,13aBNBg000PC`SdMHsm8oJl2P0SR,0*21\r
+!AIVDM,1,1,,B,13aJINPP00PCnVbMFFuq;wvR2H9v,0*56\r
+!AIVDM,1,1,,B,13bj?d00240FQsJNmjchCh<00@Rr,0*59\r
+!AIVDM,1,1,,B,13aEOU@P1q0D7i0MdRSb0gvPR89v,0*4D\r
+!AIVDM,1,1,,A,13fCIn001w0KB<tNe6J2oB:00@S7,0*47\r
+!AIVDM,1,1,,A,13a5Rb9000PLI<dNV5g;fWn405Ip,0*62\r
+!AIVDM,1,1,,A,33tssF0shiPn=DrQ0KMRgB6P20u1,0*53\r
+!AIVDM,1,1,,A,13aDrg`P12PLDFjNMNRQtOv4281`,0*3F\r
+!AIVDM,1,1,,2,13aFe:@P00PEmbdMw>aJ;?wJ2<3w,0*1D\r
+!AIVDM,1,1,,A,13aFgphP1i0GI0JNGp62EOw>05Il,0*2E\r
+!AIVDM,1,1,,B,13a`db00000EhILMwIV3wmsl0<:Q,0*4C\r
+!AIVDM,1,1,,A,19NWwV000W0@AKDMK6Sk52Q:00SF,0*3E\r
+!AIVDM,1,1,,A,13KObj002G0<TDrMOM3sp9i:08F1,0*59\r
+!AIVDM,1,1,,A,14SSRt021O0?bK@MO7H6QUA600Rg,0*12\r
+!AIVDM,1,1,,A,13`qEJ?020P>7JnMI4lrF`M@0@Fh,0*11\r
+!AIVDM,1,1,,2,83aGuEPj2d<ed=tLuQMi;@O54H00,0*61\r
+!AIVDM,1,1,,A,139f9C0016PHpbHMcnI1V1BRPH9w,0*5D\r
+!AIVDM,1,1,,A,13e:Qj0P000fpiVI6=<9`OvR2D0k,0*58\r
+!AIVDM,1,1,,B,365phT5000PCPJhMFA1`5Q4N0000,0*38\r
+!AIVDM,1,1,,2,13aJH0hPAM0HBldNQfi2MAqH0<0W,0*7E\r
+!AIVDM,1,1,,2,13@WP6002>0FiQdN`vT9aoiD05Il,0*36\r
+!AIVDM,1,1,,2,13`hokh0000Gol0NQuL:a3mJ08J6,0*5A\r
+!AIVDM,1,1,,A,15B1nJ002<P1nR0O6atD;SFJ0L1M,0*5A\r
+!AIVDM,1,1,,B,13prUHPP010UEBbNbf8rHwvP2<1t,0*6B\r
+!AIVDM,1,1,,2,13aB:Hhuh0PHjEFNKJg@11sH08J=,0*1E\r
+!AIVDM,1,1,,A,13aGu0h000PCmm@MEEDP03fRRD7v,0*75\r
+!AIVDM,1,1,,A,13M@VQ7000OreOfRK:LFPITR00SF,0*7B\r
+!AIVDM,1,1,,A,E04<o60;Rab?Pb7W00000000000DQiF0:ghTP00000`020,4*58\r
+!AIVDM,1,1,,B,16SW`FPP00a3P2PEKPN9rgvQr<1w,0*73\r
+!AIVDM,1,1,,A,13`el0@P00PCiE@MG;a@Q?vPR@:0,0*52\r
+!AIVDM,1,1,,B,13aGtNPP0rPD<VPMdV>BswvR2<7w,0*3A\r
+!AIVDM,1,1,,B,13QI>n001uPUJjVNb2P6i5LR0<3J,0*17\r
+!AIVDM,1,1,,B,13aoJ4002Q07r<pN?st4kkhJ0H8t,0*59\r
+!AIVDM,1,1,,B,13aBL@5P?w<tSF0l4Q@>4?wp0`RQ,0*60\r
+!AIVDM,1,1,,B,13A=aP0013Onsu4Pfc48IVdP00SO,0*15\r
+!AIVDM,1,1,,A,16:BP80000`eqTbA88uuo3@R2D7?,0*02\r
+!AIVDM,1,1,,B,13aGtdOP00PIMNJMdabP@wvP2@:1,0*4C\r
+!AIVDM,1,1,,B,13P;0JP02<`i01<@tLC0AP>L089J,0*7F\r
+!AIVDM,1,1,,B,169D6C8P00`fn1@A:KviMOvL0=Qa,0*71\r
+!AIVDM,1,1,,A,1690F2g0008LMPh>00M4vQHR0H9Q,0*60\r
+!AIVDM,1,1,,B,16:B:p0P008gaplA8nh@fwvP289R,0*3B\r
+!AIVDM,1,1,,B,169D`DP0008fDBhA6VIJnH:P0D4C,0*46\r
+!AIVDM,1,1,,B,36:D3F0415`5od0<O?W3>iDP20vA,0*1B\r
+!AIVDM,2,1,8,B,5690aR02:G388t4T001@DpN0PD00000000000016JhuF:4qd0J0PFEDE,0*45\r
+!AIVDM,2,2,8,B,@CP000000000000,2*4C\r
+!AIVDM,1,1,,B,36:C`S5P00867sD<T9S9agvL0000,0*06\r
+!AIVDM,1,1,,B,10000NwP0089Gm:<nR7P0?vP0@Nh,0*74\r
+!AIVDM,1,1,,A,368u=pPP@`8Rwb6Cp:PsfptL0000,0*4E\r
+!AIVDM,1,1,,B,177nP4PP2`8:RNL<hFmSlOvN00S8,0*42\r
+!AIVDM,1,1,,B,176rP800018:Roh<h>B7WSBP05Ip,0*6C\r
+!AIVDM,1,1,,B,176t5d001?8:RPD<hAO4I3LP089N,0*0D\r
+!AIVDM,1,1,,B,18UV0f001mwFpKbDjpFF650N0D0A,0*6B\r
+!AIVDM,1,1,,A,169>C0P00r8RRthD4dB=i12QrL34,0*3A\r
+!AIVDM,1,1,,B,177=EV0PC@`:Q>h<hHMCSRfP0<8;,0*2E\r
+!AIVDM,1,1,,A,33Q`OJ0PAUwtl@VNdrg@R0HP0Q20,0*79\r
+!AIVDM,1,1,,B,15N07F0P00ISaiHA2=GKJOvR2<4L,0*01\r
+!AIVDM,1,1,,B,140UuI@0000D>2PMe0c@010R05Ip,0*45\r
+!AIVDM,1,1,,A,15N8?9`P00IRrc<A9>lLCgvP089l,0*6D\r
+!AIVDM,1,1,,A,15NJrMWP00ISo5TA2s2P0?vN00RV,0*5B\r
+!AIVDM,1,1,,A,15N0eN0P00ISh?:A8fUsU?vP089n,0*4A\r
+!AIVDM,1,1,,A,15MTbUPP01ISbCTA7e2r@OvR0H9o,0*34\r
+!AIVDM,1,1,,A,13a=:t00000GMwlMaJW=r5pN00S6,0*07\r
+!AIVDM,1,1,,A,15N68CPP00ITEvpA7W38q?vP0D2s,0*08\r
+!AIVDM,1,1,,B,15N2NL0P01IRwd>A8ALF@?vP089r,0*20\r
+!AIVDM,1,1,,A,36KVnDhPBwawaN8DA9<8jVtL80V0nq;vJL,0*1E\r
+!AIVDM,1,1,,B,13bBkv00010EVp4Marf0=HDR00S5,0*71\r
+!AIVDM,1,1,,B,15MmgjPP0FG?f@`KI13svwvR0H9v,0*25\r
+!AIVDM,1,1,,A,4>jHC61uho;N?wS@5DOa;Io0089M,0*18\r
+!AIVDM,1,1,,A,13`e?<hP0f0D5irMDj5CwOvH2<6t,0*49\r
+!AIVDM,1,1,,A,14S60D001U0r7R0On1V=jc4N0@9N,0*4E\r
+!AIVDM,1,1,,B,133qNL50000>bc0MH:bW5i@P0PS9,0*11\r
+!AIVDM,1,1,,,13acD`8P0006gS`MQovJDwvR0D3E,0*23\r
+!AIVDM,1,1,,A,13aENohP00PDAIbMdQLqMwvR28:3,0*3F\r
+!AIVDM,1,1,,A,802At?00D000q::4P2;>bPc;4rmw0@00qH<PP2:so0cEa@0w00,4*63\r
+!AIVDM,1,1,,B,14a8;:0000QEKNhO8K?2U:>T00SI,0*2F\r
+!AIVDM,1,1,,A,13f?D88000wWHE<DcDWcT:fP0<3F,0*6E\r
+!AIVDM,1,1,,B,34i5I050000P`hdHt:V1VqTN2000,0*50\r
+!AIVDM,1,1,,B,13P<jbO0@00P;e:HrO<:t24R2<1?,0*1B\r
+!AIVDM,1,1,,B,133eU4PP00PD6GPMDjqQ<?vR25Ip,0*7F\r
+!AIVDM,1,1,,B,13n;0D002:0J;RHQgvc5PTNN08:1,0*44\r
+!AIVDM,1,1,,B,13QWhR0ujDOJ`;hDSdjST2pt05Ip,0*52\r
+!AIVDM,1,1,,B,33MFDR0Oi;Oj>7HNTvE99WHN0000,0*09\r
+!AIVDM,1,1,,A,15NJIs0P0OJeHbHGBkCU1?vR2<3G,0*66\r
+!AIVDM,1,1,,A,137WI00000r6bLf?vfo<pl:R0@:2,0*41\r
+!AIVDM,1,1,,A,139f<20P00PCgU>MG<f@0?vRR0S2,0*32\r
+!AIVDM,1,1,,A,13aDob0P1GPGHg8Mai`suwv@2H:5,0*0D\r
+!AIVDM,1,1,,B,13Q6SR002TPkrD@Pq>2U84:P05Ip,0*48\r
+!AIVDM,1,1,,B,13M0i`00010mN6dPuK9JLTPR089n,0*4B\r
+!AIVDM,1,1,,A,13uF31P001Pmvb0PtB7@Pa8N00Sj,0*02\r
+!AIVDM,1,1,,B,13@oU8hP000nBBfPw3oaqgvR05Ip,0*71\r
+!AIVDM,1,1,,A,13l=Q4002C0m>g@PlS:>1P0N0D2@,0*57\r
+!AIVDM,1,1,,B,13UPFd0021PjJ0dPw`4m?TDL0h9s,0*48\r
+!AIVDM,1,1,,B,13u=7g0000Pm4`6Q7p>G4E2P0<0O,0*6F\r
+!AIVDM,1,1,,A,802R5Ph0BkEOePDgHRGa0hKhN7wwwwwwwk4wwwwwwwwwwwwwwwwwwwwwwwt,2*51\r
+!AIVDM,1,1,,A,13P7RT@P010=JUHMD;D8>gvR00SR,0*3C\r
+!AIVDM,1,1,,B,13aC41@P00PDU80Me5P1QOvR2@:5,0*62\r
+!AIVDM,1,1,,A,16K2<4P00@awMOLDCJCBGATP0000,0*56\r
+!AIVDM,1,1,,A,36K2:jh00:awouHDCJlo2:HR00k@,0*6B\r
+!AIVDM,1,1,,A,16KPiBh000awk<0DDlFJ`1HT0<4P,0*7D\r
+!AIVDM,1,1,,A,33EplEaPC6Oe:VlE0c3JK8>R0000,0*24\r
+!AIVDM,1,1,,A,13eOQR002@o;IAHL6GvP=0@R0@9`,0*46\r
+!AIVDM,1,1,,B,34eGo=PPA4G;fhfL;aI50D6R00uQ,0*6D\r
+!AIVDM,1,1,,B,14eGMGPP01G<p?DL=EsVQgvL00S4,0*03\r
+!AIVDM,1,1,,B,14eG<A@P10G:D?HL43CufOvR05Ip,0*6C\r
+!AIVDM,1,1,,A,14eGmkgOkoG;futL6nJ9@oHR0H9m,0*4E\r
+!AIVDM,1,1,,B,14eP98001pG:D:VL;20IOoPP0d0L,0*34\r
+!AIVDM,1,1,,A,139EG?P001PW@pJNWrbtdbPR0D23,0*30\r
+!AIVDM,1,1,,A,13aGD90P00PCOQrMF<:L7?vP2H:6,0*79\r
+!AIVDM,1,1,,A,139`iS?P0wPVs5nNLSJEHwvN0<2B,0*64\r
+!AIVDM,1,1,,A,13aDrF@P1UPD=h<Mdi=7ugvJRL;5,0*48\r
+!AIVDM,1,1,,A,139Fnw0001PW@?DNWtObr56R0D2w,0*2D\r
+!AIVDM,1,1,,A,13HOIFPP0000W=jLCn0K8gvP0<1=,0*4F\r
+!AIVDM,1,1,,A,14eGsEH001FcCmlO4cFTQnjR05Ip,0*18\r
+!AIVDM,1,1,,B,13AgAn00000Ve9<IDp=`0c6P05Ip,0*01\r
+!AIVDM,1,1,,B,133jM;gP00PCqPvMEAw9q?vT25Ip,0*2E\r
+!AIVDM,1,1,,B,1441Bv0000RBHnLJo3mnhjHP25Ip,0*5A\r
+!AIVDM,1,1,,A,133u<f?P1`0CTglMGWV0?gvT0H:7,0*1E\r
+!AIVDM,1,1,,B,13aEPJhP0JPGIB4MhpoGV?vR2@:7,0*3C\r
+!AIVDM,1,1,,B,133`@p3001P@ua@MKtb8826R05Ip,0*78\r
+!AIVDM,1,1,,B,13aC2H0P1V0CfUtMDvtJm?vP00Rg,0*4C\r
+!AIVDM,1,1,,A,16:GHAgP007kVt>;BSHji6DN00Re,0*48\r
+!AIVDM,1,1,,A,33KLmkU000QisoJRJs>@0E@R2000,0*5C\r
+!AIVDM,1,1,,B,13urO@002w0jD6:Q2ePTKkVN00SR,0*43\r
+!AIVDM,1,1,,A,13uB1u?0000m;uJQ3cHbQG4T25Ip,0*62\r
+!AIVDM,1,1,,B,13uSbD002VPsC7ROSit1CA4R00S5,0*74\r
+!AIVDM,1,1,,B,13cFSr300qOweRLNrunITWFT00S;,0*35\r
+!AIVDM,1,1,,A,13aDq?@P000GGo4MhW100?vRR5Ip,0*32\r
+!AIVDM,1,1,,A,10F9w@wP000CrajMDhE@0?vP0D3w,0*3F\r
+!AIVDM,1,1,,A,13Msnp00010fpT@I6<utBVcp2l0m,0*71\r
+!AIVDM,1,1,,A,16KPe6001kacUchCkdrI<oDT0<2R,0*37\r
+!AIVDM,1,1,,A,16:D8d`P007ku<f;BOIFugvR20SQ,0*4F\r
+!AIVDM,1,1,,A,15W`;:50008dpe`AuRKV8aNN0eKo,0*6B\r
+!AIVDM,1,1,,A,16:Cg20P048dKtjAv9NDrr>N0@9e,0*38\r
+!AIVDM,1,1,,A,16:=Km001:`d@;dAv`CsdIJR05Ip,0*7E\r
+!AIVDM,1,1,,B,13R`M:00001d<DTEeRFWnVnL0H:0,0*10\r
+!AIVDM,1,1,,A,333qi9PP00PCoMBMGdO:vgvPR2hk,0*08\r
+!AIVDM,1,1,,B,14SpVV?P000FBujMa`s@0?vL0@::,0*7D\r
+!AIVDM,1,1,,B,33AiNN3Oh:11K6dNni<dnblT00wi,0*01\r
+!AIVDM,1,1,,A,13aDBj0P00PDRA@Mdnjia?vPR5Ip,0*6C\r
+!AIVDM,1,1,,A,368sVmPOh;8K<C@FC@uc8ADR015Q,0*0A\r
+!AIVDM,1,1,,A,15MlIMPP00JeHefGD5UtDgvT2000,0*77\r
+!AIVDM,1,1,,B,13aGDMhP00PDTV@Mdbn00?vR28::,0*52\r
+!AIVDM,1,1,,A,169G=0`000WkeF:;Bn@H9HpR0D1P,0*7E\r
+!AIVDM,1,1,,A,33WD`61001OW<9vDb3n4J1LP2000,0*22\r
+!AIVDM,1,1,,A,16K8Ath000awjIHDIceaTVHP00S;,0*5A\r
+!AIVDM,1,1,,A,16K8B`h000awUArD9m0h:VrR25Ip,0*62\r
+!AIVDM,1,1,,A,133qpTPP00PCaDtMd4jh0?vRRL7w,0*6A\r
+!AIVDM,1,1,,A,16K8DmO001awBPHDB;;sm9dT05Ip,0*64\r
+!AIVDM,1,1,,B,13@nfwhP000q`32Op@?J@gvR0H:<,0*77\r
+!AIVDM,1,1,,B,16:B390P187k?p`;EPd`lOwp0L14,0*3D\r
+!AIVDM,1,1,,B,13`e?chP1IPF@M`Ma4PB=gvRR0SJ,0*4A\r
+!AIVDM,1,1,,A,13aDom0P0oPD?JRMDMWcIwvR2000,0*67\r
+!AIVDM,1,1,,B,402M4L@000Htt12>B0VPVH700`E7,0*6C\r
+!AIVDM,1,1,,B,369pWcPOhL8K9OTFC?oSpqpT00tQ,0*31\r
+!AIVDM,1,1,,A,13aDqWKP00PP@NRMO1sd3OvP2@9n,0*3B\r
+!AIVDM,1,1,,A,15MpmT0P01J6eP<?uoquWOvT08::,0*21\r
+!AIVDM,1,1,,A,33uPGH?000Pr4tFP4KT@fm4P00vP,0*55\r
+!AIVDM,1,1,,A,144cG<U0002BA@DJnuL=tDrN0000,0*73\r
+!AIVDM,1,1,,A,13`qQ8?OhI0HmGHNROGT@5NR0H:0,0*4C\r
+!AIVDM,1,1,,A,139fqiPP1FPCJIvMJCkeegwR0D7@,0*1C\r
+!AIVDM,1,1,,B,13aDpC@P1=PHiI4MbWnAG?vR2<2c,0*75\r
+!AIVDM,1,1,,A,133otggP0:0ChuVMG3bRDgvNP8:>,0*10\r
+!AIVDM,1,1,,A,13Fw28000cwWc=tDSRd5o4<R0@9g,0*49\r
+!AIVDM,1,1,,B,14WcEh002j0av@DI:v<<HapR0L1g,0*66\r
+!AIVDM,1,1,,B,15NDCn0P00ISpI:A8m4rdgvR00R2,0*6A\r
+!AIVDM,1,1,,B,15NDvl0P00ISd<8A3ltc?OvR2@9v,0*4B\r
+!AIVDM,1,1,,B,15NDSgPP01IRarNA8vebRgvR0<3C,0*3D\r
+!AIVDM,1,1,,B,15Mw=;gP00qSvuvA8I7rNgvR05Ip,0*39\r
+!AIVDM,1,1,,B,15N5T10P00ISqcRA8haK;wvT28:6,0*56\r
+!AIVDM,1,1,,B,15NG5F@P00IROl@A88bL1wvR05Ip,0*02\r
+!AIVDM,1,1,,B,13b0oR001Q0;chpMFkG3oRtP08:>,0*59\r
+!AIVDM,1,1,,B,169UFV0P00Wkdql;CfIHuOvR08:4,0*7C\r
+!AIVDM,1,1,,A,16KJVgh01cawhHJD?A9hiPbN0@:4,0*67\r
+!AIVDM,1,1,,A,16KJ`Ih01wawcW:D>6T@h0VT2L56,0*70\r
+!AIVDM,1,1,,B,13bjGP000@0G:e8NPGE:UH<P089m,0*53\r
+!AIVDM,1,1,,A,1341N:0OiRPChU@MF@Dm:DBT25Ip,0*4B\r
+!AIVDM,1,1,,B,13`el`PP1PPGiLjMaInsTgvR28:?,0*77\r
+!AIVDM,1,1,,A,33P;M1qP@7P7dE0MK=04;ihT00W1,0*26\r
+!AIVDM,1,1,,A,13HOI?0P0000Vh0LCn:a6OvP0p:>,0*1A\r
+!AIVDM,1,1,,A,19u0k8?P?w<tSF0l4Q@>4?wv0VJd,0*47\r
+!AIVDM,1,1,,B,13@nhr@000PqbKtOp229:jTT08:@,0*3B\r
+!AIVDM,1,1,,A,19NSAL02jJO0r=@45`R4uT2L05Ip,0*08\r
+!AIVDM,1,1,,A,144MH?00j00C8lLN;3F0N0HJ00SC,0*40\r
+!AIVDM,1,1,,A,33IT?;?P@N03KG4LwlMe39lR012A,0*5C\r
+!AIVDM,1,1,,A,14ccwR00010`pqRIIiptO3FT00S6,0*62\r
+!AIVDM,1,1,,A,233WuF0OiMPCiklMEuS7onFR0<7a,0*00\r
+!AIVDM,1,1,,A,14QIG<5620KF@Gl:L9DI4o8N0P00,0*28\r
+!AIVDM,1,1,,B,34eGbk@PAbG=BNpL9bHrdp`T0000,0*31\r
+!AIVDM,1,1,,A,1>qc9ww000OkfS@MMI5004RP0L0B,0*27\r
+!AIVDM,1,1,,A,13aGFHhP010EI@rMlK66eOvP0@:A,0*56\r
+!AIVDM,1,1,,A,13Hj9vW00O02OCTLsuC191:R05Ip,0*6F\r
+!AIVDM,1,1,,A,13HO5<PP060A9=bHn0PjfgvN0890,0*2F\r
+!AIVDM,1,1,,A,13IV0nOP000@qovHm?BIa?vP089b,0*58\r
+!AIVDM,1,1,,B,133oAiP0000CmhdMFR10UDdT05Ip,0*64\r
+!AIVDM,1,1,,A,169AVEgP008RjODCpQfeMgvP05Ip,0*27\r
+!AIVDM,1,1,,A,16:=I6?0008RkenCp48EL6tQP0RC,0*08\r
+!AIVDM,1,1,,B,169TRJ0P518:M@d<ht>5BwvP0H9q,0*50\r
+!AIVDM,1,1,,B,16:3p210058gbRhA7sN8GBjP2h9e,0*20\r
+!AIVDM,1,1,,B,16:BDa00?w<tSF0l4Q@>48d00T00,0*11\r
+!AIVDM,1,1,,B,169I6W00018L2cdFCBbrJm6R25Ip,0*59\r
+!AIVDM,1,1,,A,13sM@=?P01OEfOdF92rWWOvN00So,0*3A\r
+!AIVDM,1,1,,B,139L7t0000P<USDM@VO008:P00ST,0*7E\r
+!AIVDM,1,1,,B,13aENnhP1iPF@W6Maa6:fwvR2<7n,0*57\r
+!AIVDM,1,1,,A,13GR2B0P00PD6CbMDna0m?vR20Sf,0*55\r
+!AIVDM,1,1,,A,16K2<M@00wb10C8DCvLKj9JR00R`,0*09\r
+!AIVDM,1,1,,B,15NEQsP021rms;:GWTJHIVpR05Ip,0*41\r
+!AIVDM,1,1,,B,15Mvr`001Ao?HrdKGLRVM56T08:<,0*26\r
+!AIVDM,1,1,,A,14eGnq7000G1C90L0GU0pDFR0<05,0*52\r
+!AIVDM,1,1,,A,13aFgbwP00PCwQnMdEjMw?vRPD6t,0*0B\r
+!AIVDM,1,1,,A,36KVls001sawoJDD9NLP2c<T00Th,0*3E\r
+!AIVDM,1,1,,B,13ci`f00000Vc<RIE4Er>i8T20S0,0*15\r
+!AIVDM,1,1,,B,13R3LJ0P001ckRLEepUP0OvP1UIp,0*56\r
+!AIVDM,1,1,,A,13R3hf0P1T1dCMlEVVSUtOvN0t2g,0*28\r
+!AIVDM,1,1,,A,13aEP8JP1BPKamJMEvv8RwvP2<0>,0*6F\r
+!AIVDM,1,1,,A,13aDqT0P1;PDP02MdhGB3?vRRH:C,0*07\r
+!AIVDM,1,1,,B,B0001300D:6rrT5Ta?PuOw`RP<00,0*35\r
+!AIVDM,1,1,,A,101lBLcP007K:TB0f`qP0?vR28:=,0*26\r
+!AIVDM,1,1,,A,133Pfn00000CnGfMEA6JDTVT0<8e,0*05\r
+!AIVDM,1,1,,B,13aGrpgP00PDQPdMdvmA?wvRR<8p,0*7C\r
+!AIVDM,1,1,,B,13aGCTPP100D8R@MD847LwvLP5Ip,0*26\r
+!AIVDM,1,1,,A,8000000Iv:ik<2t<M6Fed`VC6:S03<TegGvCs6i`WP,4*1D\r
+!AIVDM,1,1,,B,13aGD:hP1KPI<g@N6v97mwvR25Ip,0*3F\r
+!AIVDM,1,1,,A,33EaaB50010>iffMG8t63JLR0000,0*55\r
+!AIVDM,1,1,,B,16:?<p8P007kdTv;CohtQwvL0DQF,0*6D\r
+!AIVDM,1,1,,B,14SBpR0000PHLWlHkFDcoaVR2D0a,0*13\r
+!AIVDM,1,1,,A,13aBKa0P000D>UnMdtJh0?vP0L3w,0*52\r
+!AIVDM,1,1,,2,33arhr50000A;f<M>qHB>UlRP000,0*74\r
+!AIVDM,1,1,,B,13=sof00000eJ1FN`kL7mpDT20Sb,0*08\r
+!AIVDM,1,1,,A,140UtlPP00PCmg:ME?jqIOvT25Ip,0*4B\r
+!AIVDM,1,1,,A,B3mKm@00>@=jDW9P>IlGgw`UoP06,0*4F\r
+!AIVDM,1,1,,A,13AC<v?01J0r3wTOoMtVu5`R0H:F,0*73\r
+!AIVDM,1,1,,B,13llU400000CmE4MEnELHarN00RH,0*49\r
+!AIVDM,1,1,,B,402Fha0000Htt<tSF0l4Q@000l2G,0*19\r
+!AIVDM,1,1,,A,13J76l?P00O1=RL5LU;n@wvJ0<0a,0*1E\r
+!AIVDM,1,1,,B,177Ksv0Oi;06u``MLg4sgajT00R?,0*70\r
+!AIVDM,1,1,,B,16:BOl00007kc9D;BnMWNWsp00TD,0*3C\r
+!AIVDM,1,1,,B,15N7H20P00IShE0A8qqLTwvR0<25,0*7C\r
+!AIVDM,1,1,,B,15Mk`tPP00ISG72A8RPb5gvR00S4,0*43\r
+!AIVDM,1,1,,B,168sVwPP008K2phFCNiuJwvSr<5V,0*73\r
+!AIVDM,1,1,,B,16:9vK30@H`VKiPDV6w=96<00D3>,0*47\r
+!AIVDM,1,1,,A,17PA5L500;:l7ckjI1EkikbT0H:A,0*24\r
+!AIVDM,1,1,,B,15Ml=5000;o>GJbEW2;765hT00SJ,0*37\r
+!AIVDM,1,1,,A,36K2;U@026abM@nCjH<BTQdT20Q@,0*19\r
+!AIVDM,1,1,,B,13GSqP00000HRPPHj:M5AWPv05Il,0*48\r
+!AIVDM,1,1,,A,B6K2CQP002Jojb4uirl03w`UoP06,0*38\r
+!AIVDM,1,1,,A,15MqtA0P3JJe;V<GD?T06wvT2<3N,0*04\r
+!AIVDM,1,1,,B,13u><=gsQj0mQW:Q1<wRL28P0@:4,0*32\r
+!AIVDM,1,1,,A,13uCRr0P000mwsdPuU8IQOvT2<1M,0*20\r
+!AIVDM,1,1,,A,13uDWsg000PmrUFPtKt9<8TT05Ip,0*20\r
+!AIVDM,1,1,,A,33u><@81ADPmQ52Q1=pqB7PR2000,0*5F\r
+!AIVDM,1,1,,A,13u=?5?0000nMdPQ0gkqGbHT0<1w,0*21\r
+!AIVDM,1,1,,A,13aGD@0P00PFff@Mauu@0?vRRD46,0*63\r
+!AIVDM,1,1,,B,13aBME0P000ClQ2MEVpP0?vP05Ip,0*7B\r
+!AIVDM,1,1,,A,A04757QAv0agH2JdGm0`6OlO0lh6wKl1IA3v;04A,0*22\r
+!AIVDM,1,1,,A,15NEcU0001rrmV8H?FcJVEVP00S4,0*77\r
+!AIVDM,1,1,,A,33pr<70000QELMlO8JDt2T4R25P3,0*3F\r
+!AIVDM,1,1,,B,15NF2N0000rrm`bH?Fr0000P0L0E,0*20\r
+!AIVDM,1,1,,B,15DItj0001PBO1DMgE4WMq8<05Ip,0*13\r
+!AIVDM,1,1,,B,13Hb5d00000HS@tHiw80<V0N0UIp,0*55\r
+!AIVDM,1,1,,A,13cc6h0P000Ud?@GK=1d4?vR2<04,0*25\r
+!AIVDM,1,1,,A,133ss2PP00PCQGfMFGT99?vTR<:K,0*5C\r
+!AIVDM,1,1,,A,1:1RV0003>0H;k`HecEM5rLR0H:H,0*78\r
+!AIVDM,1,1,,B,15NDjPPP00IOpoRBQvsbCOvT20SJ,0*1B\r
+!AIVDM,2,1,5,A,A02V?Hib3Qba07h1GRJ8>?MP3kT`uwgk>C3v>iLq=gM3v3TWwT;v>BKuq@Lq,0*4F\r
+!AIVDM,2,2,5,A,;wf2t3TovaPA>BWtr0lq9OaLtST0,0*69\r
+!AIVDM,1,1,,B,402FhO1uho;NA0eBcBHnH9i00D1e,0*1D\r
+!AIVDM,1,1,,B,B69Dpj@0@B89rP3S1tcD3h04SP00,0*39\r
+!AIVDM,1,1,,A,169NSQ001@8cWepB1aw4kSbL05Ip,0*47\r
+!AIVDM,1,1,,A,D03t=M1VTN?`00N00GPf00G`N00,2*13\r
+!AIVDM,1,1,,A,16:6FN001c8e8ddArRq5>l<R0H9r,0*38\r
+!AIVDM,1,1,,B,16:fPIQP0087ke2=5@5@0?vP0D00,0*35\r
+!AIVDM,1,1,,A,16:84580?w<tSF0l4Q@>48sp0H:0,0*05\r
+!AIVDM,1,1,,B,16:D6qPP0087e=F=<OQMC?vP4t1:,0*49\r
+!AIVDM,1,1,,B,403tDFQuho;N?<tSF0l4Q@000PS:,0*20\r
+!AIVDM,1,1,,B,16:V4J@P?w<tSF0l4Q@>4?wv073h,0*24\r
+!AIVDM,1,1,,A,169piJ?P@08ccfFEOTPsalhR289R,0*67\r
+!AIVDM,1,1,,B,169G<dPP008FCdR=G8cId3hN0<1@,0*6B\r
+!AIVDM,1,1,,A,169pl1P0008caDlEPk6aNm6R2<1F,0*50\r
+!AIVDM,1,1,,A,169pkw8000`ckoLEObR`K34R20Rv,0*55\r
+!AIVDM,1,1,,B,16:KN200008FEw:=G2bTc`:P20S0,0*2F\r
+!AIVDM,1,1,,,33b`7@3OhFP8<e6MjKPSWQrR00ri,0*15\r
+!AIVDM,1,1,,A,4>pf7l1ufUHtt`cjk@EMM;10080V,0*0D\r
+!AIVDM,1,1,,A,169nh@8P008RVe<CpTNe:gvN0@9v,0*45\r
+!AIVDM,1,1,,B,14`c3p000:8:V?V<hL9UUTNP05Ip,0*00\r
+!AIVDM,1,1,,B,23`elhhP000CmCBMEo;00?vP0000,0*47\r
+!AIVDM,2,1,0,B,85MwpE1Kf>1ncPp`r:wJWKwi66;AhGD@Tb6T<GHfk9B,0*7D\r
+!AIVDM,2,2,0,B,iE:5haQ1f,0*39\r
+!AIVDM,1,1,,A,13P:NlSP00OjB;8NRdLtT?vT0<12,0*0D\r
+!AIVDM,1,1,,A,13aGs3@P00PCn>fMEMD=`gvdP`:J,0*1E\r
+!AIVDM,1,1,,B,13aD00PP1EPCIKRMJq8uiOvP25Ip,0*30\r
+!AIVDM,1,1,,B,13b:A6002HP7=I>M@:48tW>T05Ip,0*11\r
+!AIVDM,1,1,,A,381:Kb50002>7T?fr03t78nR0000,0*0A\r
+!AIVDM,1,1,,B,4h2=aCQuho;N?OcU4<O3<jQ000S:,0*6E\r
+!AIVDM,1,1,,A,18JnPf001fPmTJLQ:??iM16T08:@,0*6B\r
+!AIVDM,1,1,,A,33ktrGU0000>gqdMCwG0<UJN0000,0*76\r
+!AIVDM,1,1,,A,133w5iP000PCwe:ME@?h08PRR0Rl,0*2E\r
+!AIVDM,1,1,,A,16K2?Kh001awhiRDI3SAE14T08:C,0*79\r
+!AIVDM,1,1,,A,16KJU7P001awEeBD?BAe=CjT2<5G,0*76\r
+!AIVDM,1,1,,A,16KVj<P021awgvpD<6@dc:8T2@:F,0*2F\r
+!AIVDM,1,1,,,13P9ECaP0205f48MV>87rgvT2<1q,0*05\r
+!AIVDM,1,1,,A,16T0WH0P1T9whDpD;h4UhTPN0`:H,0*3B\r
+!AIVDM,1,1,,A,133okGPP000CarTMH7CekgvT0h:L,0*74\r
+!AIVDM,1,1,,A,13aDC:PP000Ce4HMd:w@0?vR00RW,0*18\r
+!AIVDM,1,1,,A,13aGEOhP0v0KOp<MDSpWKwvbQt0C,0*0D\r
+!AIVDM,1,1,,A,2340ST001M0>bVlMHFpWs6FT08:L,0*43\r
+!AIVDM,1,1,,A,13aFeOPP12PKQTTMEJnbBwvT2@:I,0*38\r
+!AIVDM,1,1,,2,13GQvOPP0dP?vQJM:Vl9AOvR28:M,0*0D\r
+!AIVDM,1,1,,A,133fgcUP1WPGdR@MaUu;D?vTR5Ip,0*47\r
+!AIVDM,1,1,,A,13u>=>gP001BgTvQtd=VegvP0@9p,0*5A\r
+!AIVDM,1,1,,A,24SaQh500G0Cu7>MErpJ680R08:M,0*05\r
+!AIVDM,1,1,,B,1<j?QA@P02OMWP@CB9mPIgvR28:L,0*49\r
+!AIVDM,1,1,,B,13ku0b001U08WLJMOvOimiJT05Ip,0*22\r
+!AIVDM,1,1,,A,13@ng3@0000qn`jOntWh03BT00S0,0*17\r
+!AIVDM,1,1,,B,13M@DFh000OdmmnLl`Chp0>J089i,0*32\r
+!AIVDM,1,1,,A,33OjLf0OiEOdu4HLjNlUhDdP00tA,0*24\r
+!AIVDM,1,1,,B,2341R400000CTjHMHADINBhT0<<p,0*7B\r
+!AIVDM,1,1,,B,144hVgg0@0R:Bd@RA5`9r9BR25Ip,0*7E\r
+!AIVDM,1,1,,A,13aDCb0P00PD@`0MdP=i;OvR25Ip,0*07\r
+!AIVDM,1,1,,B,369pWf0P@I8K9jDFCCb<1b2T00qi,0*60\r
+!AIVDM,1,1,,A,133lIIgP00PCkM0M@mF<nOvR28:N,0*28\r
+!AIVDM,1,1,,A,13c`Rd0P000e0E6I?:`7QOvP00Sf,0*71\r
+!AIVDM,1,1,,B,13cUpi0qiM0g6jpHrSE1F@rP0d0q,0*3A\r
+!AIVDM,1,1,,B,13PfTH002D05e0rM6oN8Oo6R05Ip,0*43\r
+!AIVDM,1,1,,B,19NP0102BB2>ctkfmaB@0c>P0000,0*15\r
+!AIVDM,1,1,,B,239K6?50010CTGTMH5gad:TR08:O,0*7C\r
+!AIVDM,1,1,,A,14eGqlPP00L>h5tK=f7=5wwL05Ip,0*18\r
+!AIVDM,1,1,,A,13nOdR0P0011a7pVOR18G?w00<0M,0*79\r
+!AIVDM,1,1,,B,13fKi00001wj:mdNUU0GDbLT28:O,0*04\r
+!AIVDM,1,1,,A,133hE`g0000CT;NMEC4k32TP0@:O,0*4B\r
+!AIVDM,1,1,,B,13GR5BPP0kPD;?rMDdUP7OvR2<5r,0*01\r
+!AIVDM,1,1,,B,140UuAwP00PS3ahK=9tb7?vvPH:Q,0*4D\r
+!AIVDM,1,1,,A,13b0cl00000HuENNKGTjCP4P0<1E,0*0C\r
+!AIVDM,1,1,,A,602E3U0rFKsn<P<j07,4*5A\r
+!AIVDM,1,1,,B,169<l=80008Jpd@FCdA5PhVT0@:J,0*77\r
+!AIVDM,1,1,,A,13@nknh0000q>JVOlS2qdCBT0<0p,0*7A\r
+!AIVDM,1,1,,A,13PeiV0007Nv3>t5>@22RV>T0<14,0*44\r
+!AIVDM,1,1,,A,13chjl?P160f3b>Hts`6sOvT00Sk,0*47\r
+!AIVDM,1,1,,B,15>wd`002f0d2tPI2P?58D6V00Rh,0*7D\r
+!AIVDM,1,1,,A,13c`kp?P000VbTRIE24@0?vL00RN,0*32\r
+!AIVDM,2,1,7,A,53u>=<000001<I@b221<d58L58@Dr2222222220t1@I4340Ht4`888888888,0*46\r
+!AIVDM,2,2,7,A,88888888888,2*2B\r
+!AIVDM,1,1,,B,13aDoH@P1ePCOQ6Mdwnsr?vR28:Q,0*11\r
+!AIVDM,1,1,,A,33KQD@5001QBq<tQuNn2n`RR0000,0*2E\r
+!AIVDM,1,1,,A,16K8Aqh00aawFOnDBDHacGjT28:J,0*11\r
+!AIVDM,1,1,,A,36KVnDhPBwawaKDDA8p8h6tP80Wi,0*58\r
+!AIVDM,1,1,,A,33`gl20OiNPGw8@NPeCccIfN00w@,0*51\r
+!AIVDM,1,1,,A,13M@L5P01RPr7GHOqBv3KBjR0<1P,0*2C\r
+!AIVDM,1,1,,B,16:fO;OP00`6FCt<Qgvh0?vP0<00,0*03\r
+!AIVDM,1,1,,A,169C`lwP008LU4b>3mMoEwvR2<2G,0*28\r
+!AIVDM,1,1,,B,16:Bcag0008fsELA:u6hVTFR0<5I,0*1D\r
+!AIVDM,1,1,,B,169qb8?P008fs9dA:ukj?OvR2@:4,0*08\r
+!AIVDM,1,1,,B,18KEU001BI`gBQ4A6J75o4dR00Sb,0*0E\r
+!AIVDM,1,1,,B,16:@WU0P@0`erefA88`h000R2<3P,0*78\r
+!AIVDM,1,1,,A,15S@E00020wscpTM0<uu@JNL0000,0*4C\r
+!AIVDM,1,1,,A,368twI5000`d3ehAiEOV=U4L0000,0*0A\r
+!AIVDM,1,1,,B,38;F1<5000`7D:v==g<tpk0PP000,0*30\r
+!AIVDM,1,1,,A,169A=1POh?8Se:0FmpPssbVR2@:6,0*0A\r
+!AIVDM,1,1,,A,16:>G=0Oh18clt2B0bK3P0DT08:8,0*1A\r
+!AIVDM,1,1,,B,14eU`d0P00L>eW<K=c2epwvR05Ip,0*55\r
+!AIVDM,1,1,,B,B69F48P0ER80rlSS1OteOw`61P06,0*25\r
+!AIVDM,1,1,,A,33mM@U001rPITavQeuobpphT00p@,0*4A\r
+!AIVDM,1,1,,A,15MwrC0022Je4grGAUwQ>A4R00S<,0*24\r
+!AIVDM,1,1,,A,13Gmb>002901GjhLB?N3=2TN`@9k,0*36\r
+!AIVDM,1,1,,A,13aGFrwP?w<tSF0l4Q@>4?wv0d82,0*17\r
+!AIVDM,1,1,,A,13ILgO0P0000W7DLCmseKgvR05Ip,0*0D\r
+!AIVDM,1,1,,B,368sU`0P@P8K<<TFC9;l>STT0151,0*0A\r
+!AIVDM,1,1,,A,13iCv4002=0323<MMubCaC0P08:M,0*14\r
+!AIVDM,1,1,,,33AeTN300007dC`MoMJmvV8R00q1,0*58\r
+!AIVDM,1,1,,B,3342=23P@QP=ribML0>Gk5vN00vP,0*42\r
+!AIVDM,1,1,,B,13q6LJ000o12gb<NTo=Wh6:00@0:,0*32\r
+!AIVDM,2,1,1,A,53aDom4000010CS3;L1Hthtq@40000000000001?<8=74t00008888888888,0*00\r
+!AIVDM,2,2,1,A,88800000000,2*2D\r
+!AIVDM,1,1,,B,14eGc0h000o=4KtL=5ARiW:R00S=,0*3F\r
+!AIVDM,1,1,,B,35AHeV50000eDppN`Pl;u9TR0000,0*6E\r
+!AIVDM,1,1,,B,13`e?jwP010CSrpMcfDuKOvP0@:T,0*36\r
+!AIVDM,1,1,,A,E@28isPVa9Qh:0a90SWW0h@@@@@@2kJP;hHP@00003v0100,2*33\r
+!AIVDM,1,1,,A,35Mo@N5000reH;8GBTp;;1`R0000,0*77\r
+!AIVDM,1,1,,A,14QsCt@PA1OAFj@F:if725>T00Rh,0*27\r
+!AIVDM,1,1,,B,13sM@:gP00wDq=RF92dsW?vR25Ip,0*51\r
+!AIVDM,1,1,,B,33sO7A5P00OF4URF9Bf00?vR0000,0*70\r
+!AIVDM,1,1,,B,1:022D0002ORk1`QBuk4JVFT0L02,0*36\r
+!AIVDM,1,1,,A,13M@Cn@02cwUm9HQ<7h;caFP0@:P,0*1C\r
+!AIVDM,1,1,,B,23ahdH001E0E67@N1FG3dRjT0L6?,0*71\r
+!AIVDM,1,1,,B,33aGD:PP00PCuC>ME6500?vTR@E3,0*14\r
+!AIVDM,1,1,,A,13aEN`@P000D>9dMd>L`R?vF2D9>,0*3E\r
+!AIVDM,1,1,,A,133g=hPP010GIqVMi`?F;?vT28:V,0*40\r
+!AIVDM,1,1,,B,16Sfks0P00a3PADELPGBe?vR2@:O,0*4D\r
+!AIVDM,1,1,,A,133rKfgP000D=hnMDGP<JwvT25Ip,0*33\r
+!AIVDM,1,1,,A,33u?dl5000Pt:fNOcjqJLD6T0000,0*40\r
+!AIVDM,1,1,,B,13na:0002;P7MOHNBBj5K4FP089T,0*1B\r
+!AIVDM,1,1,,A,13aC1uhP000KL:FMC7nP0?vP0H:N,0*13\r
+!AIVDM,1,1,,A,13aBNP?P00PCV96MdedT;wvT2H:V,0*38\r
+!AIVDM,1,1,,B,13ofKV0328P>e>6MJW1:>`@R0<1R,0*41\r
+!AIVDM,1,1,,A,16Sr5wP000a3QmbEKc3004PR2<2L,0*36\r
+!AIVDM,1,1,,A,15MwUh0P00IS<WpA5h:dEOvR05Ip,0*14\r
+!AIVDM,1,1,,B,15N:>1P000qSufvA8OKuvIbT0<46,0*72\r
+!AIVDM,1,1,,A,15NC6P0P00IT29DA:Vlc0wvT2D4c,0*1D\r
+!AIVDM,1,1,,A,33aBRd1P050D8ulMcsFdg?vT2DuJ,0*4E\r
+!AIVDM,1,1,,A,16:9tj8P008K2D0FCMMQLgvP00Ro,0*05\r
+!AIVDM,1,1,,B,13pr=300001DmCnO<rd0L1lR0D0i,0*25\r
+!AIVDM,1,1,,2,13aEPqhP1<P@CoNM>gWMp?vT25Ip,0*48\r
+!AIVDM,1,1,,B,13P95DiP?w07w?:N5K5>4?vT05Ip,0*15\r
+!AIVDM,1,1,,A,13aDCfPP00PHPURMWbWP0?vT2@:`,0*11\r
+!AIVDM,1,1,,A,13ciul002Q0fIGHHsN5<9qjT05Ip,0*72\r
+!AIVDM,1,1,,B,13aDoukP00PCFFhMdREkowvRR<3w,0*1B\r
+!AIVDM,1,1,,A,16::0O`0008Jpr`FCcO9W0dR0H:R,0*4F\r
+!AIVDM,1,1,,B,4020rSiuho;NAPWAg2N``ao005Ip,0*72\r
+!AIVDM,1,1,,B,13aEQ1@P1IPG3OdMg@MpB?vT2D53,0*7C\r
+!AIVDM,1,1,,B,33pr?KS00H12jE:NUNhPh0lT024@,0*25\r
+!AIVDM,1,1,,B,133dgtgP00PCri0MEqR2VgvP2L4m,0*45\r
+!AIVDM,1,1,,B,13aEOfhP00PRj;FK>aSPSwvRR5Ip,0*4E\r
+!AIVDM,1,1,,B,133aRr7P000>avtMGPm00?wp08:a,0*03\r
+!AIVDM,1,1,,A,139d@jPP00PD2RrMF00cwOvR2<3w,0*6B\r
+!AIVDM,1,1,,A,13aJFiPP00PCStjMdHMKE?vT20SH,0*58\r
+!AIVDM,1,1,,B,34WeVB5000PPa6lHt=W0PaNP0DqJ,0*3C\r
+!AIVDM,1,1,,B,369pP6P0008JwnHFCGu556FR00vQ,0*7E\r
+!AIVDM,1,1,,A,A02VqOP;b901h1@1Gd9@=3p0:3p073H0N380G3p0@2h0D3h002`043p023`0,0*35\r
+!AIVDM,1,1,,A,33aGEUPP000G8SjM`TMqPwvRPS5Q,0*47\r
+!AIVDM,1,1,,A,133lHWaP01PCro0MC4WUhgvR20Sk,0*43\r
+!AIVDM,1,1,,B,14RdOP002j0?gn4MJn:J9H8T0H:b,0*47\r
+!AIVDM,1,1,,B,13u?qPPOh00n:@@Q0cG8iRvV0@:K,0*08\r
+!AIVDM,1,1,,B,33u?ejP01S0n<DvPw00IVWTR0000,0*5B\r
+!AIVDM,1,1,,B,13u=cDP000PmGUlQ1L2JoohT00S3,0*63\r
+!AIVDM,1,1,,B,23aFfl0P00PCR>4MEBBP0?vT20S;,0*3D\r
+!AIVDM,1,1,,B,13aDr?PP19PCjv0MFo3u7gvTR5Ip,0*76\r
+!AIVDM,1,1,,A,13PhIT0000OrdM:RKDHqi7LT0D0A,0*08\r
+!AIVDM,1,1,,A,16KPj:@02?b0;onDBhbiq1PR00S1,0*3A\r
+!AIVDM,1,1,,A,16K2;<?000awB;6DB759DVdT20Sr,0*35\r
+!AIVDM,1,1,,B,802R5Ph0BkEao@DowjGaOwwwwwwwwwwwwwwP8F0I<L1OLwwwwwwwwwwwwwt,2*19\r
+!AIVDM,1,1,,B,D02M3>h00000000000000000000,2*49\r
+!AIVDM,1,1,,B,13aGul?000PFiAtMaqdAnFjTR<4T,0*3D\r
+!AIVDM,1,1,,A,13aGDWPP0tPCOtBMIROsmOvT2H:W,0*42\r
+!AIVDM,1,1,,A,16KPiBh000awk<0DDlFJ`1HT0<4P>ukvJL,0*2D\r
+!AIVDM,1,1,,A,13`wgT0P5fPGmNDN>nsDJOvR2<05,0*40\r
+!AIVDM,1,1,,A,138;UJ0000NqLpV@6Wm775dP0H:b,0*00\r
+!AIVDM,1,1,,A,14eGEH@00hG9h84L:e:JN7vP089s,0*40\r
+!AIVDM,1,1,,A,34eGED0OhwG=GOdL9gfqGGbR014i,0*1D\r
+!AIVDM,1,1,,B,14eH0lhP00G<cFNL=5MIHgv025J0,0*2D\r
+!AIVDM,1,1,,A,368v``1000o<308L=`I7iS@TP000,0*25\r
+!AIVDM,1,1,,A,13ag2r:P0>0CTf>Md4lew?wl0<=F,0*49\r
+!AIVDM,2,1,5,B,53esbD02@TnGTQ@gV219B10E@E:222222222220l1@F664000>h000000000,0*56\r
+!AIVDM,2,2,5,B,00000000000,2*22\r
+!AIVDM,1,1,,A,13aDqmhP00PFFelMaMqif?vPR0Sn,0*25\r
+!AIVDM,1,1,,A,143Nh200002BF9LJl0JVT:2P0`:d,0*4F\r
+!AIVDM,1,1,,B,D02M3v@00000000000000000000,2*29\r
+!AIVDM,1,1,,B,15Ovc20001o@N>4KM=gH:VdT0p:Q,0*40\r
+!AIVDM,1,1,,B,15N;0>0OiFJllj@GWd3<JJ0R08:0,0*71\r
+!AIVDM,1,1,,A,13uuBt00040Sog2NlAkMsI2R0H:7,0*25\r
+!AIVDM,1,1,,A,13`va@0P000HpHPNKnRJUgvV2D29,0*7F\r
+!AIVDM,1,1,,B,13iDhn0000wvsbDNeIcLWb6P0@:d,0*68\r
+!AIVDM,1,1,,A,16:Qve`000`JsPRFCU87;kVT0L6l,0*79\r
+!AIVDM,1,1,,A,13`hCB000;0Vu0RNbutEL4FT0<2L,0*27\r
+!AIVDM,1,1,,B,133mODPP0w0G5?dMaV3CkwvVR<5U,0*14\r
+!AIVDM,1,1,,2,38;FLR1000P?sI4MdsLFGQDJ0000,0*15\r
+!AIVDM,1,1,,B,15?meb001n8W4=`DW2h;18rT0D5v,0*47\r
+!AIVDM,1,1,,A,333V?v?P@BPCR:hMFNsjI1bT20wP,0*43\r
+!AIVDM,1,1,,A,EvjC9J082a4aUPV0000000000000:RFB>e3oh00003`P10,4*27\r
+!AIVDM,1,1,,A,16::1:?000`K4PVFCLMBRSVT2D5w,0*4D\r
+!AIVDM,1,1,,A,14eG>6O000rkrV>JPj@<D`RV08:P,0*3B\r
+!AIVDM,1,1,,A,13aDr`0P00PCtGlMd;C2`wvTR5Ip,0*37\r
+!AIVDM,1,1,,A,13aBNaHP000CpEPMGd3h0?vR0H:c,0*19\r
+!AIVDM,1,1,,A,13prmoSP001Drg:O<VP00?vR0D15,0*63\r
+!AIVDM,1,1,,A,13P8kbh001wqWf2M7Hgjd2tR0<15,0*5E\r
+!AIVDM,1,1,,A,13aGDJ0P00PINHDMf`b@0?vTR<50,0*18\r
+!AIVDM,1,1,,B,140UrVgP00PD8pbMDTTKBgvR28:c,0*78\r
+!AIVDM,1,1,,B,15?92B1P?w<tSF0l4Q@>4?wv0l0R,0*50\r
+!AIVDM,1,1,,B,B3uB>uP0<P>3;489=7MDcw`UkP06,0*38\r
+!AIVDM,1,1,,A,13@np0GP080leolPhpN6RgvT0<0U,0*21\r
+!AIVDM,1,1,,B,139KSd0P00PaqbNNmdj1P?vPR0SJ,0*40\r
+!AIVDM,1,1,,A,14QwWb00030aoPLNmc`17ANN0D1O,0*7C\r
+!AIVDM,1,1,,B,14S?:@001K0b=3`NoD?8KnbR0@9r,0*3C\r
+!AIVDM,1,1,,A,13GmJV0visPb5h0Nm853R2jL05Ip,0*76\r
+!AIVDM,1,1,,A,139KugP000Pans`NmahP0A:R0D1W,0*19\r
+!AIVDM,1,1,,B,4020s>Auho;NAPan`pNmQ0W00<00,0*0F\r
+!AIVDM,1,1,,B,139L>nPP?w0ao`bNmc3v4?vT0D1e,0*7A\r
+!AIVDM,1,1,,A,139aUl0P000bNt@NpqH@0?vP05Ip,0*5F\r
+!AIVDM,1,1,,A,339IHUPP0W0apWhNmb0pQgvPP02i,0*18\r
+!AIVDM,2,1,5,A,539IHUT00000@CCGK00p5E@T<00000000000001@8h:26t0Ht6i1@TSP0000,0*55\r
+!AIVDM,2,2,5,A,00000000000,2*21\r
+!AIVDM,1,1,,A,839IHUPj2d=Lt<<Md1T0`?bU8LP0,0*29\r
+!AIVDM,1,1,,A,13ebDt00PFPamltNmTG1mQNN00SJ,0*65\r
+!AIVDM,1,1,,A,169>a7P01V8cH<@EVQwLaqvR2D1r,0*60\r
+!AIVDM,1,1,,A,16:@GGPP0@`Pbhr>KELtLJ>N08:<,0*13\r
+!AIVDM,1,1,,A,16:QsqPP008LNPt=wG800?vSrD2R,0*2F\r
+!AIVDM,1,1,,B,169FaA?P0w86?hp<PPq0B?vT0@:K,0*5F\r
+!AIVDM,1,1,,A,16:=P:PP1P8Lb6P=uv<49OvR0D29,0*46\r
+!AIVDM,1,1,,B,13aIi=0P00PCn;pMEMReRgvN0D6k,0*5B\r
+!AIVDM,1,1,,A,13aIhV?P140H?T@MVbNJVOvT00Ss,0*6D\r
+!AIVDM,1,1,,A,133m04PP00P>hm:MD6u5>?vR20Re,0*40\r
+!AIVDM,1,1,,A,13aC3ahP00PCQDVMcu8P0?vT2D7i,0*0A\r
+!AIVDM,1,1,,A,13IbV=?00R03KBNM02rR2QJN00Re,0*72\r
+!AIVDM,1,1,,A,17PGN2000R:kwvEjIwSdnrBT05Ip,0*69\r
+!AIVDM,1,1,,A,16KJTn001habL`@Cjod;;pnT00Sl,0*7B\r
+!AIVDM,1,1,,A,16K2;P001TabfrvClIqBeB:T28:a,0*7A\r
+!AIVDM,1,1,,A,13m=V`000BwnMPjPddcle4JT20Sh,0*77\r
+!AIVDM,1,1,,B,133fJvPP00PD31HME9rP0?vT2<7t,0*63\r
+!AIVDM,1,1,,A,13GR9D0P0OPCK8TMEFLhA?vTRH:g,0*16\r
+!AIVDM,1,1,,B,36S`sh5000`K<OLFCwcR<:nP0000,0*62\r
+!AIVDM,2,1,5,B,A02VqLPA4I6C07h5G`Qh>?k52kdgwT42>kOtfhls9gqW13daw?;w>jStig4s,0*78\r
+!AIVDM,2,2,5,B,<?me6SdWwml0>rbb,0*47\r
+!AIVDM,1,1,,B,13aBLK?P0wPDL`2MDL2SH?vT25Ip,0*6E\r
+!AIVDM,1,1,,B,133iCFPP0SPCmh<MBhP`VgvT25Ip,0*4B\r
+!AIVDM,1,1,,B,33mHNO0OiV0H5j2Qm98K18hN00ei,0*01\r
+!AIVDM,1,1,,B,13n@oD0PB@0IRqvQj@W;EppH088t,0*32\r
+!AIVDM,1,1,,B,369wpJ1001a3<V`EHh07272R0000,0*0B\r
+!AIVDM,1,1,,,13aGEdoP0i0JEk<N6dJq@wvT0H:d,0*78\r
+!AIVDM,1,1,,B,13n3aW0PC8PJ`CdQh7Mra8JT20SB,0*6F\r
+!AIVDM,1,1,,A,13mGSF0OkFPJi?PQfu:7wnDT08:g,0*46\r
+!AIVDM,1,1,,A,13:REn01B6Oco:0Np=Rra8HT0D05,0*4C\r
+!AIVDM,1,1,,,13aJI1@P1CPIDWpN8V7Gf?vT20So,0*3B\r
+!AIVDM,1,1,,A,14T9Dr0t2E9w@mpD3uL8tW4R00Sd,0*5C\r
+!AIVDM,1,1,,A,13nG=T000011oI>VPIi6w6Gp0`EG,0*48\r
+!AIVDM,1,1,,A,15Mw1sP004qSFo8F;>ThTFPV05Ip,0*5A\r
+!AIVDM,1,1,,A,19NWq?@OiL2>9:3fqrg8lGHT0@:c,0*4B\r
+!AIVDM,1,1,,B,34bNFj5P000e2i2I?DMth?vT0Dnb,0*7D\r
+!AIVDM,1,1,,B,13`lE6002S0@NcfN1>`7Sn4T0L5J,0*4A\r
+!AIVDM,1,1,,B,13c7G@?P000D;fDMd2P5I?vN0H:j,0*6E\r
+!AIVDM,1,1,,A,35E48050010W4WjNb6G9UThUP000,0*0B\r
+!AIVDM,1,1,,B,33P<GptOi2wgAd8NuEJqK`DV017@,0*19\r
+!AIVDM,1,1,,B,143lJh0P@02I24tIPMl6UU@T0D0H,0*52\r
+!AIVDM,1,1,,B,13ncqj0uB<0FrwhNtG;r2WtP0@:`,0*4E\r
+!AIVDM,1,1,,B,15ECw`002GPME`LNcO0Sh2vP0<1E,0*34\r
+!AIVDM,1,1,,B,137Vb80020PC7M`NEvoa1W8R00SA,0*7A\r
+!AIVDM,2,1,0,,53M@>s026ELLlePSR2058<v05PF222222222220Q1qC;64o@0;A4QA1iH0,0*65\r
+!AIVDM,2,2,0,,DQ@H<dL`88880,2*0C\r
+!AIVDM,1,1,,B,13aDp=hP00PD0fnME2QjdwvT28:k,0*30\r
+!AIVDM,1,1,,A,13m3if00002BO46JoATum2DR0l17,0*1E\r
+!AIVDM,1,1,,B,15NFJTPP00IRpq`A9FeK8gvT2@:O,0*27\r
+!AIVDM,1,1,,A,15MuS=0P00IShKRA8Sed2gvR0<1j,0*72\r
+!AIVDM,1,1,,A,15Mv7TP000qT35fA85G=o`PN0D<P,0*60\r
+!AIVDM,1,1,,A,15NOV9P000ISvq6A8HrrmT1p0PRi,0*15\r
+!AIVDM,1,1,,A,140W:20024wv`hLLoTiIv80V2@:C,0*7B\r
+!AIVDM,1,1,,A,168sUo00018K<NHFCCGRrD>V0d6p,0*07\r
+!AIVDM,1,1,,A,16Tg080P1SabVNhCjKeS:2bJ0@:d,0*31\r
+!AIVDM,1,1,,A,16K8CvP02qawjfTDAjI9<GHR0H:U,0*63\r
+!AIVDM,1,1,,A,33aDCH?P00PCwapMEqf`EwvT2303,0*7F\r
+!AIVDM,1,1,,A,B6K2DD@002Jo6>TuiOD03wa5kP06,0*2A\r
+!AIVDM,1,1,,A,13=I`D5P008VjSvDanJH2wvR0UIp,0*44\r
+!AIVDM,1,1,,A,19NS1sP02a06oeTM=M:8`VpT05Ip,0*0B\r
+!AIVDM,1,1,,A,16K2D=0001aw>WHDBNVsEaRT2H:W,0*4F\r
+!AIVDM,1,1,,A,18155Gh00EwsUa4LPOdSr0jR0<<L,0*12\r
+!AIVDM,1,1,,A,35RL@v5000b0FsJD>vg:tjhRR000,0*37\r
+!AIVDM,1,1,,B,14eG=hhP00G5o0hLL2TRFgvR00S6,0*7E\r
+!AIVDM,1,1,,B,15N3cb`P00G?j0DKAG9hbgvV0<1B,0*4D\r
+!AIVDM,1,1,,B,35Mq0iU000G@QB<KM76GDSPT0000,0*58\r
+!AIVDM,1,1,,A,A04757QAv0agH2JdGn4`5OkN2U8Nw`@97hsuwha0,0*18\r
+!AIVDM,1,1,,B,13bkiF00000D2=@MDd?dCRlT08:l,0*7B\r
+!AIVDM,1,1,,A,139cmmgP0lPGJu<Mabn4ngvU2@:l,0*1B\r
+!AIVDM,1,1,,A,14RppN0000PD?LnMe55nQA0T2D9B,0*09\r
+!AIVDM,1,1,,A,15?h>600008K;pHFD@L;=rlV05Ip,0*71\r
+!AIVDM,1,1,,2,133qKbgP00PAHD`MBBSC8?vT2H:m,0*23\r
+!AIVDM,1,1,,A,18156dPvAm00o<hLsF3atH2R05Ip,0*03\r
+!AIVDM,1,1,,A,33aWJ`0thEPC8n`MT6R;O8pT0000,0*63\r
+!AIVDM,1,1,,B,14R`eD01Bf0=qdtMi8m:FHHR08:m,0*7A\r
+!AIVDM,1,1,,A,33b8<B50000D;F8ME8LuM8NTP000,0*30\r
+!AIVDM,1,1,,B,18IHAN002<08RBDN=ajDi3bR05Ip,0*1A\r
+!AIVDM,1,1,,A,13aGu;hP1KPDP::Mdf:jKgvP2@:m,0*7A\r
+!AIVDM,1,1,,B,143u`V0001RBLjJJo?WnfPJP0@:@,0*28\r
+!AIVDM,1,1,,A,144a`W001F04DeHLoJ42v2BN08:I,0*07\r
+!AIVDM,1,1,,A,148@70000a0;eElMHql3SRJP`5Ip,0*16\r
+!AIVDM,1,1,,A,13aC4p@P00PCk>`ME8hP0?vTR0S2,0*52\r
+!AIVDM,1,1,,A,13P:mT@022NuG444?1:;VaBR00Ra,0*54\r
+!AIVDM,1,1,,A,34`alU001;w46Ch4:B7;`9:R20v@,0*08\r
+!AIVDM,1,1,,A,B4uq3E@002;4RwUSnn3Q3wP63P06,0*59\r
+!AIVDM,1,1,,A,339bF8P000PD>QrMe5Qh00pT02l1,0*35\r
+!AIVDM,1,1,,A,15AwF@002Cw3Q8p4;QK4ckfT08:P,0*47\r
+!AIVDM,1,1,,A,15?Lol001gNeSj<6i3qe3:LP0@:`,0*6D\r
+!AIVDM,1,1,,A,13Ibe??P0IP2GmTLw8G92OvR2@:L,0*7F\r
+!AIVDM,1,1,,B,169E@D`0008EB=v=JQV@02PR2D0q,0*79\r
+!AIVDM,1,1,,A,169TJV00008cl7`EOp3P06BT0D26,0*49\r
+!AIVDM,1,1,,B,13bQEb0001wGNdnF2<1LO9TT0D0d,0*25\r
+!AIVDM,1,1,,A,13P;GbP02uOASI4FU0573UbT0D18,0*61\r
+!AIVDM,1,1,,B,19NSAbh02lwDA42ES:R=PblV0@:k,0*0B\r
+!AIVDM,1,1,,B,18KoA@002POBT8REkHaVQE>V05Ip,0*49\r
+!AIVDM,1,1,,A,177ngw002RwC0@TF6nAeQ:nR08:m,0*2B\r
+!AIVDM,1,1,,B,15C@QT0036wBUwjEiE7VI54V2<2?,0*4A\r
+!AIVDM,1,1,,B,13aEPU0P00PRvgJK=RiJegvV20Ro,0*25\r
+!AIVDM,1,1,,A,13cB:b00000D;`HMdiRK7EJV2<=i,0*57\r
+!AIVDM,1,1,,A,13q6`800001EUAtO8:G004tR0<11,0*3B\r
+!AIVDM,1,1,,A,13HU@e?P0QP33RhM0`dkHwvR28:W,0*16\r
+!AIVDM,1,1,,B,1001:G?P?w<tSF0l4Q@>4?wv0d3:,0*32\r
+!AIVDM,1,1,,A,35Mu1EPOjaJdv4bG@WhIC7pT00TA,0*42\r
+!AIVDM,1,1,,A,13AP96000QPrRC`OvFWF:U:R2t1J,0*5C\r
+!AIVDM,1,1,,A,13aFh<@P00PD1OjME?o00?vTR@:p,0*5A\r
+!AIVDM,1,1,,A,14Rlbt001Owj1N0NUo85N4DR08:p,0*70\r
+!AIVDM,1,1,,A,169pKuP0008JwqpFCGeAJVhT2<35,0*7C\r
+!AIVDM,1,1,,2,13aDC7@P0qPA9dLM?nMphwvT2D3@,0*4E\r
+!AIVDM,1,1,,A,13orI>0000PJ>jfQgU<=ElrP00SL,0*10\r
+!AIVDM,1,1,,A,34QsG2E000OWL6NDcLIbRrVR0000,0*4B\r
+!AIVDM,1,1,,B,13P:o>@000OnJctPdgPaKp?b0p:o,0*01\r
+!AIVDM,1,1,,,13A39`022MP7WEpMc4Br`8jT0<5i,0*2A\r
+!AIVDM,1,1,,B,16:9vA80008K=`tFC0OrSI2T2<4W,0*5D\r
+!AIVDM,1,1,,B,140UtHhP00PRukrK=WrE;gvRR0Rc,0*12\r
+!AIVDM,1,1,,B,33P:owh00=OhSSHNbb?2iQtR0000,0*30\r
+!AIVDM,1,1,,B,13aEPf0P00PDu9TN1=H:DgvV2<4t,0*24\r
+!AIVDM,1,1,,A,13P8EDhP1C02`sfM0kq8KgvT0D0v,0*13\r
+!AIVDM,1,1,,A,140Us<PP00PCi`@Md;r00?vT25Ip,0*10\r
+!AIVDM,1,1,,A,13HWr`?P0QP3Dk<LwKS9MwvR2<1W,0*3B\r
+!AIVDM,1,1,,A,15N705PP00G?iGtK@FbalgvV25Ip,0*27\r
+!AIVDM,1,1,,B,169Do?PP018LAd0FBkGWsOvd0p=:,0*79\r
+!AIVDM,1,1,,B,1018lEP01j0bqVPNjTOnGU8P0D2=,0*4A\r
+!AIVDM,1,1,,A,13aBMEhP000Hp6jNKR5r@gvV20Rb,0*46\r
+!AIVDM,1,1,,A,13HWr??P000@s4nHmIH9W?vT05Ip,0*2B\r
+!AIVDM,2,1,0,B,569DlvP000008hI?T00lTpMT4pM`PuF3T0000016:`?884o10:4BCQp10Ch0,0*60\r
+!AIVDM,2,2,0,B,00000000000,2*27\r
+!AIVDM,1,1,,B,133jQ800000C`NnMEA9htS:V08:s,0*36\r
+!AIVDM,1,1,,A,181:KE002R0csWHHnk5dgJ8N05Ip,0*0E\r
+!AIVDM,1,1,,A,344cvC50P02:GGhRAvM8h1<T0P00,0*07\r
+!AIVDM,1,1,,A,13aENn@000PFM9@Madm004vT2<5T,0*2E\r
+!AIVDM,1,1,,A,143cPL8t@pRAUc:Jb@TKCq2R0H:t,0*1F\r
+!AIVDM,1,1,,B,133ivegP00PD0l6MEKlqp?vVR<8a,0*21\r
+!AIVDM,1,1,,A,13EhV:g001OWBmDDdqhbE8NT0H:B,0*7C\r
+!AIVDM,1,1,,A,13aGD;0P00PDPV6MdQMl8wvT2@:t,0*31\r
+!AIVDM,1,1,,B,13aI<?OP00PGDw>MhRHP0?vT2D0g,0*6A\r
+!AIVDM,1,1,,B,13aGEVhP00PNwPRMqM:P0?vT2<0>,0*77\r
+!AIVDM,1,1,,A,13HWLt?00L03L3hM0Wr:I8FV0D26,0*17\r
+!AIVDM,1,1,,A,13HWWp0P0KP2olNLw<QsGwvT2<0r,0*53\r
+!AIVDM,1,1,,A,13IUtt?P0JP3>GnLwJI9cgvT2L16,0*07\r
+!AIVDM,1,1,,A,13aIjChP1SPCd>tME6ntpOvTR8:u,0*5E\r
+!AIVDM,1,1,,B,15@`Ct5000RBNERJo@mH280R0<0o,0*01\r
+!AIVDM,1,1,,B,13cleV01CF0`I`0IB5A1QQ@N0@:s,0*2F\r
+!AIVDM,1,1,,B,33u7El002qPhw4DPoFOBiBBR06FC,0*7E\r
+!AIVDM,1,1,,A,13uAbDg000PnijpQ1Q@rnANV05Ip,0*24\r
+!AIVDM,1,1,,A,13aIiR1P1MPC2:vMfK=53wvT25Ip,0*77\r
+!AIVDM,1,1,,A,16:6ib0000`K=WLFCg3iLCLT05Ip,0*38\r
+!AIVDM,1,1,,A,33aBNRmP1G0Fve>Mae@K@wvR003Q,0*3A\r
+!AIVDM,1,1,,A,16K2<L0002awQs6DB9kH3RTV28:m,0*0A\r
+!AIVDM,1,1,,A,16K8Cg@000awHWVD<9NJ4GNV25Ip,0*49\r
+!AIVDM,1,1,,A,16K2>t0014awRKhDAagtl:6`08:p,0*45\r
+!AIVDM,1,1,,A,13M@g40P0e11I6TNnsb`IgvT00S5,0*5F\r
+!AIVDM,1,1,,B,15V=>n0PAQOKLstCl;kornDV0<2W,0*52\r
+!AIVDM,1,1,,A,23L?MH001TP>QuFMIOq31RHT00S<,0*21\r
+!AIVDM,1,1,,A,13aGG2PP2>PD=bhMddMIjOvT28:v,0*50\r
+!AIVDM,1,1,,B,33aGs40P00PLbj0Mg@H4POvTR03A,0*3B\r
+!AIVDM,1,1,,B,23aEPr@P000Cm?dMEo;UHgvRP@:v,0*29\r
+!AIVDM,1,1,,B,169G8G001?86:pd<M5`aPogp0@:Q,0*7B\r
+!AIVDM,1,1,,B,16:B89=P008e220A8Agh0?vR25Ip,0*79\r
+!AIVDM,1,1,,B,403tCcl47wk?1<tSF0l4Q@000`:S,0*26\r
+!AIVDM,1,1,,A,169>G9PP008PbBr>IIdIQB@P0<0N,0*00\r
+!AIVDM,1,1,,B,169ECc`0008gs?<A8TUeLiLT28:T,0*45\r
+!AIVDM,1,1,,B,177SLm001b8fh7lA848:j8JL0d6I,0*68\r
+!AIVDM,1,1,,B,169qerPP008fHdHA6uBn0gvP0`:W,0*25\r
+!AIVDM,1,1,,A,19NWwjP02:NuLFP44?Dd`b0`0<0o,0*3D\r
+!AIVDM,1,1,,A,169AAL00018d3PDAvbsb?4RR0@:=,0*16\r
+!AIVDM,1,1,,B,C69Dp=@00r88?p3SgkF@Ow`Pl@:62L>jcUQcb0000000?0t3R22P,0*69\r
+!AIVDM,1,1,,B,16:FDiPP00`OHgl><WOh0?vR05Ip,0*7A\r
+!AIVDM,1,1,,B,14hmpl8P001dF1BEeEwRPwvR0@:c,0*5B\r
+!AIVDM,1,1,,B,B6:fMC@0D21g`d3BqF@sKh0TSP00,0*66\r
+!AIVDM,1,1,,A,13aBNc0P1L0GFhbMjDf5kwvR0D2O,0*0D\r
+!AIVDM,1,1,,B,168upRP00087R>T=<dk4F2DR00SL,0*5D\r
+!AIVDM,1,1,,A,169>c20P018dnF>Atv7FDgvP08:M,0*14\r
+!AIVDM,1,1,,B,14RCQn50000A0>pML=n1E1hN0`:v,0*29\r
+!AIVDM,1,1,,A,36:>L`U0008d1W<B4hiaEaTT0000,0*5A\r
+!AIVDM,1,1,,B,168uq?P00087`O<=;qOokRbT0@:T,0*1B\r
+!AIVDM,1,1,,A,168s:eP0008Sfj<Fn=haHRJSr<2e,0*08\r
+!AIVDM,1,1,,B,B69DphP00b85?h3QjItAkwa2P8M2,0*70\r
+!AIVDM,1,1,,A,13aDqMPP00PD3S0MDuVB;?vTR@:w,0*68\r
+!AIVDM,1,1,,2,133sfv002cP<;DLMM9<c8I4R083G,0*04\r
+!AIVDM,1,1,,A,15NHN6?000qs:mhF;nOclpHR0L06,0*2D\r
+!AIVDM,1,1,,B,15NJaS0P00G@0i>K=3brG?vT0D1O,0*12\r
+!AIVDM,1,1,,A,14SSRt0viM0?bWHMO3B6Qm@P0@:w,0*41\r
+!AIVDM,1,1,,B,13aENt0P00PC=u:MeULaFgvT28:w,0*2C\r
+!AIVDM,1,1,,A,13`vAs@P00PW@MLN`6w6O?vR25Ip,0*65\r
+!AIVDM,1,1,,B,@6STUk004lQ206bCKNOBAb6SJ@5s,0*74\r
+!AIVDM,1,1,,A,1>qc9ww000OkfS@MMI5004RR0D0B,0*2D\r
+!AIVDM,1,1,,B,133m?CPP00PDGe8MDMP;w?vT20S;,0*24\r
+!AIVDM,1,1,,A,133rSRPP00PClt<MFjg00?vT2<7:,0*4B\r
+!AIVDM,1,1,,B,13Fted0P1gODHa8E4OQ6O?vR0t2D,0*07\r
+!AIVDM,1,1,,B,139LWP0000PV?s6Nbk@h0FPV0L2>,0*46\r
+!AIVDM,1,1,,2,13aDpe0P010A4LVM?1I6AwvR0D2V,0*67\r
+!AIVDM,1,1,,B,12wdLPPP008LJJ@>0I@h3Ov@05Ip,0*04\r
+!AIVDM,1,1,,A,13upB`001hPjH:8Ps3Vsj9HV0<2h,0*04\r
+!AIVDM,1,1,,A,13uogN00000iIEdQ0>DCSH>T0h:o,0*02\r
+!AIVDM,1,1,,B,15N5>>0001ISKMvF<<77>V6T0<0`,0*21\r
+!AIVDM,1,1,,A,13cVfc0P010g9lvHrmuFRwvP0H:H,0*6C\r
+!AIVDM,1,1,,A,16SWgl0P00a3R0>EGbbln?vT2L3;,0*2B\r
+!AIVDM,1,1,,A,14SMct00009wI4LDAaR<CVNR0UIp,0*0A\r
+!AIVDM,1,1,,A,13ib48002>P9aBvMGbf4hSVR00Rr,0*36\r
+!AIVDM,1,1,,B,13c8Ib001o0=86jMHq2CIRbT0D0N,0*42\r
+!AIVDM,1,1,,A,13aDrDoP010CrDfMdh;68wvRP0Sg,0*59\r
+!AIVDM,1,1,,B,15`5R40001PBF22MLJW<hbrV0H;1,0*3B\r
+!AIVDM,1,1,,B,13aI9GOP00PDV8<MeL7=rgvT25Ip,0*4F\r
+!AIVDM,1,1,,B,139eg=?P0aPeNgnNWkLQbwvTR8;1,0*55\r
+!AIVDM,1,1,,B,23@QU<000GPCRrpMFccH1VfV0@;2,0*05\r
+!AIVDM,1,1,,A,133laJgP00PD=9NMDudr8OvV2<7N,0*73\r
+!AIVDM,1,1,,A,13P<<6OP00OhF@vNt?jetgvT2H;2,0*42\r
+!AIVDM,1,1,,A,33M@J:m001PCS:>MEHarWHrV0000,0*2B\r
+!AIVDM,1,1,,B,13`qM>501POe0e0Lkjf8QVhT0<14,0*4F\r
+!AIVDM,1,1,,A,13aDqE0P00PChI8MdALW5OvT25Ip,0*4A\r
+!AIVDM,1,1,,B,15Mh1l001GJkLGLGCOfjVR4T0`:;,0*3B\r
+!AIVDM,1,1,,A,B5Pm<l@0IffBOQUrRAQiuIa4WP06,0*3D\r
+!AIVDM,2,1,0,A,E4eHJhPR37q0000000000000000KUOSe=rq5@00000a,0*61\r
+!AIVDM,2,2,0,A,@20,4*50\r
+!AIVDM,1,1,,A,13urjj01kcQGjqHOQWF7U68T0D0L,0*50\r
+!AIVDM,1,1,,B,15NGgd0P00ITN>NA;6TK5wvT28:a,0*0A\r
+!AIVDM,1,1,,A,15N03:PP01IRQFhA8EItl?vV0D3A,0*44\r
+!AIVDM,1,1,,B,13P;O7wP00wdn?HLlT2h0?vT25Ip,0*24\r
+!AIVDM,1,1,,B,15MvnVgP00ISShdA7LDJiOvV2H:d,0*46\r
+!AIVDM,1,1,,A,15Msnd0P00ISvaRA3WVbHOvV05Ip,0*23\r
+!AIVDM,1,1,,B,15MsuVP000ITA2HA7pp:tpHT08:h,0*74\r
+!AIVDM,1,1,,B,15MwMlPP00ITKbTA;Ltd;gvT08:n,0*5E\r
+!AIVDM,1,1,,A,15NNskP000qSfuRA51TnRR:V05Ip,0*16\r
+!AIVDM,1,1,,A,15NM;HPP00qS5a@A7qo;KOvV2<5M,0*65\r
+!AIVDM,1,1,,B,15MpAPg000IRtMDA9H@c1aLV08:t,0*23\r
+!AIVDM,1,1,,A,15MvO`P000qSe0PA2R:teG>T0L3<,0*25\r
+!AIVDM,1,1,,B,15NEN40P00ISctLA65`LEwvT08;0,0*0C\r
+!AIVDM,1,1,,A,33aEPW9P00PJncNMAwJljwvJR7>3,0*21\r
+!AIVDM,1,1,,A,13@oU3@P0006PP@MGg>IbOvV2H;3,0*5E\r
+!AIVDM,1,1,,A,13P93;gP@6wiDIPNW64>47RP00Sv,0*46\r
+!AIVDM,1,1,,B,33usIn5P0bNqILN@64>UgwvT02vQ,0*79\r
+!AIVDM,1,1,,B,13aGuUPP0JPI:IDMb5D@EgvT2SwP,0*2D\r
+!AIVDM,1,1,,B,333su@0P00PDH5fMDHWiE?vTR2mk,0*7E\r
+!AIVDM,1,1,,A,13iPcQ@P000CRdtMEBHP0?vT0@;4,0*0E\r
+!AIVDM,1,1,,B,13n=<t001S126AFVT7TPKhG60@EN,0*74\r
+!AIVDM,1,1,,A,18Kiej0vjCc0=HagNad75EnT0PSc,0*2B\r
+!AIVDM,1,1,,A,16KDNc0000ad0OVCiCCA`k4V0<1g,0*77\r
+!AIVDM,1,1,,A,15SiN6801faat>rCRah0;@4R00TB,0*24\r
+!AIVDM,1,1,,B,13aGtQIP00PD93fMDE5kbgvD20R?,0*0F\r
+!AIVDM,1,1,,A,152Hk2dP00JrjpdH@0ud5wv`0@;4,0*71\r
+!AIVDM,1,1,,A,23NCqt501L0>Vb@MI19<F:0V25Ip,0*39\r
+!AIVDM,1,1,,A,13@08T0uBHPJ5edNew3IoonV0D0`,0*63\r
+!AIVDM,1,1,,B,168s64002`0H16BNWt<Bj2BV0<4T,0*37\r
+!AIVDM,1,1,,A,333tUb031q0LAbfNfLTBkB:T00u1,0*5D\r
+!AIVDM,1,1,,A,16:VFv0k0I`KQPpFATG4SgvT40:v,0*7B\r
+!AIVDM,1,1,,A,14W8jl01jePu@PfOW>EJ`pRV0<1>,0*29\r
+!AIVDM,1,1,,B,13pr;hPP001EIPlO7<SK;wvV0D1?,0*3D\r
+!AIVDM,1,1,,B,34QsEPm000PD3L`MDcoJ2Rjp2P00,0*14\r
+!AIVDM,1,1,,A,13aDs1PP00PD=hvMe2c24OvT25Ip,0*58\r
+!AIVDM,1,1,,B,33pr<nSP@v12lUVNUVmoPmvP0000,0*78\r
+!AIVDM,1,1,,A,139NNhP02qJf4@VFRh`W3UbT0@;5,0*3D\r
+!AIVDM,1,1,,B,15NNd9<0?wqOuM8BR34>49TV00SO,0*3C\r
+!AIVDM,1,1,,A,233vr3gP1gPCjU8MEtQ@UwvTR5Ip,0*65\r
+!AIVDM,1,1,,B,169GSN0P007pi2:;MP:rbgvN25Ip,0*6A\r
+!AIVDM,1,1,,B,169JEw0P007plsb;MBr2hP0N0<18,0*0E\r
+!AIVDM,1,1,,A,13UPFd0021PjJ3bPwWpE?TDR0p:v,0*15\r
+!AIVDM,1,1,,B,169JHhaP007q1R8;NAG3mV`N0@=p,0*35\r
+!AIVDM,1,1,,A,14aKtj001uNqlaL4i8SUFTDR80So,0*7E\r
+!AIVDM,1,1,,B,B6:F=FP0AAv=WC2p1DgLOw`79P06,0*75\r
+!AIVDM,1,1,,A,16K2<4P000awMO`DCJCP01TR0000,0*1D\r
+!AIVDM,1,1,,A,13l97l001W8W4RRD283kaBtR0@:g,0*29\r
+!AIVDM,1,1,,A,18159Uh01vNruat491QdWb4R00R4,0*38\r
+!AIVDM,1,1,,A,169HE:001Q8cF0hEbqmT?CLT0UIp,0*5D\r
+!AIVDM,1,1,,A,169Ebu`P008RnFF>odBP0?vT20S6,0*13\r
+!AIVDM,1,1,,B,16:@<U`000`Vhu6DaVE@03LT2D2m,0*38\r
+!AIVDM,1,1,,A,13aGDk0P11PH?KTNLoftvgvRRH;7,0*29\r
+!AIVDM,1,1,,A,133imEUP1@PGh2VN<LjSewvT28;5,0*0A\r
+!AIVDM,1,1,,A,33idTB5P@IP0eM4LC=29pR<T0000,0*5E\r
+!AIVDM,2,1,6,B,53QI>n02<9JE`@Q3N20dtE=@E88E8N222222221@:09844o>0:5jC21C3Dj0,0*56\r
+!AIVDM,2,2,6,B,EQC`8888880,2*16\r
+!AIVDM,1,1,,A,33aDC=hP00PD>K>Mdt1pKOvT22uC,0*16\r
+!AIVDM,1,1,,A,23`ekA@P000CUf@MFW500?vR0D3w,0*5A\r
+!AIVDM,1,1,,B,13u=g<0P00PsOn4Ol`>aM?vR08;9,0*22\r
+!AIVDM,1,1,,B,14hc5J00001d@JtEe;FrLl@V08;0,0*65\r
+!AIVDM,1,1,,A,13M@I0h000Oj@J8NTMcqnBbT0d14,0*11\r
+!AIVDM,1,1,,B,13aBMBh016PCKp6MIn;mq4VV0D5a,0*13\r
+!AIVDM,1,1,,A,13mG`l0P000L>48Qq>j009fP08:h,0*0D\r
+!AIVDM,1,1,,B,H>DQ@04N6DeihhlPPPPPPP000000,0*0E\r
+!AIVDM,1,1,,A,13aC250P000D:L@MdNfP0?vR0<3w,0*11\r
+!AIVDM,2,1,3,B,53MFDR00=96TL``8001<lUB1L5@E8htt0000000l1@D0:4f8U;S2ETT3,0*07\r
+!AIVDM,2,2,3,B,kk0000000000000,2*24\r
+!AIVDM,1,1,,A,E04<o5AaWdPnaGaP00000000000DPmI3:aCV`00000Sh20,4*2B\r
+!AIVDM,1,1,,A,139f<20P00PCgU6MG<fijgv@RH4l,0*42\r
+!AIVDM,1,1,,A,83aBNRhj2d<dtf=e>B00t?ch4dP0,0*58\r
+!AIVDM,1,1,,A,83aJFrhj2d<dtLeueQb@agbU0000,0*31\r
+!AIVDM,1,1,,A,601uEP@tH;3j<P<j00,4*51\r
+!AIVDM,1,1,,A,D02VqLQq8Jfp00K6F0iJ>61eK6E,2*01\r
+!AIVDM,1,1,,B,13A<CT000kODoGhF4VRH>6VT05Ip,0*55\r
+!AIVDM,1,1,,B,13sO3Sg00BwF?PNF8mJ7234R05Ip,0*7B\r
+!AIVDM,1,1,,A,13aEN<PP1WPCd=8MH6rMfwvV25Ip,0*65\r
+!AIVDM,1,1,,A,13u=tD4001Pr56<P4JlP=7pT0H;2,0*09\r
+!AIVDM,1,1,,A,833oEBPj2P00000001b@e?f@0100,0*70\r
+!AIVDM,1,1,,A,13aB8RhP00PD36>ME2Bk@gv@25Ip,0*46\r
+!AIVDM,1,1,,A,E>q7CNtJI@40Wh22W3S:P0000004>=e870B0@20@@@SWHP,4*42\r
+!AIVDM,1,1,,B,13aENjpP00PCobpMd1bojgvTR<3w,0*79\r
+!AIVDM,1,1,,A,83aENUhj2d<dttt<<icPe?bhvPP0,0*26\r
+!AIVDM,1,1,,A,E028iohVa1Qh10a1RV7W0h@@@@@@4qlL;loDH00003v0100,2*72\r
+!AIVDM,1,1,,A,D028rqPsINfp000000000000000,2*5B\r
+!AIVDM,1,1,,A,E0000?@cFsHP000000000000000?ii8e:SdfH00003RP10,4*17\r
+!AIVDM,1,1,,,13P<:=PP05090bNMelrWi?vT20Rt,0*2F\r
+!AIVDM,1,1,,A,13@oGOPP010rK`pOhd>akOvV08;;,0*0B\r
+!AIVDM,1,1,,A,D028nBhV8f00000000000000000,2*26\r
+!AIVDM,1,1,,A,E0000DPcFtI0000000000000000?iO=m:QlkH00003RP10,4*36\r
+!AIVDM,1,1,,A,237L2L0001PCNMhMHW@cu3b<0<7@,0*49\r
+!AIVDM,1,1,,A,233p8MPP00PCT04MH8tL9wv@285>,0*2E\r
+!AIVDM,1,1,,A,13aGspwP00PFE5nMaF<@0?vV25Ip,0*29\r
+!AIVDM,1,1,,B,840UuHPj2d<dttuddBL@q2w@0000,0*0A\r
+!AIVDM,1,1,,A,14eG;o@000o<F84L2aCl`iTT0L2H,0*03\r
+!AIVDM,1,1,,B,15MpsWPP00Jhw4hGSo6dV?vV2D09,0*2E\r
+!AIVDM,1,1,,A,14R7`80028PUDvjNigOdU:8P00S6,0*40\r
+!AIVDM,1,1,,A,19NS90002LP8A5tMEM`p<VP`20S5,0*47\r
+!AIVDM,1,1,,B,13am5`0001wh52@NT046ap:T0D0S,0*67\r
+!AIVDM,1,1,,A,601uEPThuaCB<P<j00,4*66\r
+!AIVDM,1,1,,B,139c>P001pOwB8HO4k0mH4HP0H;8,0*0A\r
+!AIVDM,1,1,,A,13chdT0P2H10SQdGEpLGCwvR0D0sn8kv3i,0*2D\r
+!AIVDM,1,1,,A,13aD00PP0jPHk6HMbw00d?vV2D2U,0*64\r
+!AIVDM,1,1,,B,13a0:r001S0ehMpHM@T52T8V0<0U,0*19\r
+!AIVDM,1,1,,B,13M@DN@02b0e0APHsT15o4dV0<0:,0*70\r
+!AIVDM,1,1,,A,13chv900160wps@GF<FlHCjR0<0ht2cv3i,0*1A\r
+!AIVDM,1,1,,A,16K8Aqh00aawFOnDBDHacGjT28:J5NCvJt,0*61\r
+!AIVDM,1,1,,B,13uAL>?P001BgD<Qt`EI<OvV2H;=,0*04\r
+!AIVDM,1,1,,,33aGtUPOiFPIWTtN8=P:4H0TR1p@,0*54\r
+!AIVDM,1,1,,A,133uoaPP00PCp06MF=`qROvV2<7O,0*65\r
+!AIVDM,1,1,,A,13`ww<0P000HhpJNKDK1T?vT2@;=,0*34\r
+!AIVDM,2,1,8,A,53aBN`T000010CK;W41<4iE@D00000000000001??P;59uWUJ04Sm51DQ0CH,0*49\r
+!AIVDM,2,2,8,A,?;O`2iEC1CP,2*48\r
+!AIVDM,1,1,,A,133Vrt?0000=KctMCvt9skv`05Ip,0*1E\r
+!AIVDM,1,1,,A,13aDp0hP1=PHbU@MaBT8ggvV05Ip,0*04\r
+!AIVDM,1,1,,B,343`I>0Oh0RBRGNJo=6@01>R0000,0*69\r
+!AIVDM,1,1,,A,13aI;60P00PCwbnMDdVSDwvT2<6g,0*2F\r
+!AIVDM,1,1,,A,15NCrd0P00IOr@6BOlHrUgvV2<0I,0*65\r
+!AIVDM,1,1,,B,19NWpfh0080WrkDI8gls62nT2UIp,0*21\r
+!AIVDM,1,1,,A,33aG?N0P@<0Co54MdHOU89Kp0Q01,0*51\r
+!AIVDM,1,1,,B,13aDoQ0P1@PG>ApMUtq2>gwl0l4c,0*53\r
+!AIVDM,1,1,,A,19NS9s@001vqNlN@5sHs;h0V05Ip,0*57\r
+!AIVDM,1,1,,B,169D2PP0008g5`dA8fFM=rVUp8:c,0*7A\r
+!AIVDM,1,1,,A,169Eh000008MOHV=vHP@01hT2D1>,0*76\r
+!AIVDM,1,1,,B,16:B@C`000`fJNBA6VgGV7`T0D6e,0*3A\r
+!AIVDM,1,1,,A,133c0b00000C`ndME@ur:HhT05Ip,0*02\r
+!AIVDM,1,1,,B,39NWsI043>`i3o8@uS06;50R0P00,0*04\r
+!AIVDM,1,1,,B,169qbtg03a8gJKvA5eHRDinV0L6B,0*47\r
+!AIVDM,1,1,,A,169FEU?P008LM`d=wia1cOvUr8:l,0*7C\r
+!AIVDM,1,1,,B,16:TT43P0286uRN<NvF6mgwp0`:q,0*48\r
+!AIVDM,1,1,,A,16:F@t`P?w<tSF0l4Q@>4?vT0`:o,0*27\r
+!AIVDM,1,1,,B,169JI>`00n7pkjd;MH4kvSFV28:m,0*03\r
+!AIVDM,1,1,,A,169?ooP0008RsF8CpNpcc42V2<2H,0*09\r
+!AIVDM,1,1,,B,169Fd7P0008:W2B<hTcjhRLV2H:q,0*53\r
+!AIVDM,1,1,,B,36:R1rU000`LQQ2>1gL@00NT2000,0*0C\r
+!AIVDM,1,1,,A,13o=BP00000J>06Qh53pL0lt0<1D,0*74\r
+!AIVDM,1,1,,A,13n;0D002<0J;UPQgvB5PTNR0H;;,0*18\r
+!AIVDM,1,1,,A,339Ksh0000PWqH6NlH:7U9hR00w0,0*31\r
+!AIVDM,1,1,,A,13aGt=gP00PDQHBMe>8P0?vV25Ip,0*5C\r
+!AIVDM,1,1,,A,13aJGJ@P0oP`aKDLcW;3egvV25Ip,0*7F\r
+!AIVDM,1,1,,A,33P:LS300uP6Q8TNAhgf1:nT2100,0*1A\r
+!AIVDM,1,1,,B,15NCF30000ISvcjA8K4H39TR05Ip,0*42\r
+!AIVDM,1,1,,A,15N;L9SP00ISfi8A86crjOvV2<3p,0*1A\r
+!AIVDM,1,1,,A,35Nj0j5P00qTMP8A6c>P0OvR0000,0*1A\r
+!AIVDM,1,1,,B,15N8Sg0P00ITIPrA:bq:vOvV2D5B,0*3F\r
+!AIVDM,1,1,,B,15Mwuq0P00ISrC:A5<7IaOvT0H;6,0*21\r
+!AIVDM,1,1,,B,15NFEi0P00ISfn:A4??bmwvV28;7,0*66\r
+!AIVDM,1,1,,A,15NKQk0P00ISb>4A6eIbdgvV2D3H,0*18\r
+!AIVDM,1,1,,B,15MwNGgP00IT8rDA80`rwOvV2<55,0*7B\r
+!AIVDM,1,1,,A,E000aO2Q7QPW0h22h3PW24PP000Owbmf;:1O81088;jP2P2,2*09\r
+!AIVDM,1,1,,B,33aDp<PP0p0FEsRMaMPpTgvR22nk,0*4D\r
+!AIVDM,1,1,,A,16K8CvP02qawjfTDAjI9<GHR0H:U26kvJt,0*44\r
+!AIVDM,1,1,,A,13u=dTP0000niRpQ1N1@=SEN05Ip,0*2F\r
+!AIVDM,1,1,,A,13dW8:001DPmuUpQ=Nth=@:T2D0o,0*09\r
+!AIVDM,1,1,,B,33u=R1P000Pmw4bPwkn`WqdT018i,0*76\r
+!AIVDM,1,1,,A,13lrgV001i0lw5HQ8qnRU2@T00R`,0*60\r
+!AIVDM,2,1,4,A,53u=cDP00001<h`R2209E8v2222222222222220t10@4240Ht6@000000000,0*32\r
+!AIVDM,2,2,4,A,00000000003,2*23\r
+!AIVDM,1,1,,A,14RBg400000g:vrHsaQ1k5JL08:W,0*0E\r
+!AIVDM,1,1,,A,377?hB5001b0eibDBhaJVm8V2000,0*2A\r
+!AIVDM,1,1,,A,13@oG>@000PhOoTQ1iH9iilV0<0d,0*54\r
+!AIVDM,1,1,,A,13aDpmPP1P0Cd5:MHi=N0gv`08;@,0*48\r
+!AIVDM,1,1,,A,16K2D=0001aw>WHDBNVsEaRT2H:W1q?vJt,0*78\r
+!AIVDM,1,1,,A,39NP0102BB2>ctofmaL@0c>R01ii,0*1D\r
+!AIVDM,1,1,,A,A@4<g>i:7Tcip2KBGm@`;gvG040h01h04EOw8@0L,0*28\r
+!AIVDM,1,1,,B,133eb9SP00PDBmJMD=JaS?vV2<3i,0*5F\r
+!AIVDM,1,1,,A,13@nptOP0111Ip>No8:JigvV2D0f,0*70\r
+!AIVDM,1,1,,B,83aGs40j2ddtLttf@14hT?fE39@0,0*66\r
+!AIVDM,1,1,,B,13aEPcgP00PCa58Md3c=`gvVP8;A,0*09\r
+!AIVDM,1,1,,A,13HOI<PP0000da2LC@OqO?vT0PRk,0*1B\r
+!AIVDM,1,1,,B,14eG=m@001o<6kBL93knl8LR0`:5,0*39\r
+!AIVDM,1,1,,B,18J37b002DG;SwRL4?3LGqpR00S7,0*34\r
+!AIVDM,1,1,,A,14eG;;0009o=B0@L8b80s12T0@:e,0*7D\r
+!AIVDM,1,1,,A,3030p6O000o<WVtL99r9;P>R0000,0*39\r
+!AIVDM,1,1,,B,14eGmkgPCoG;fpDL6n69AWFV00S;,0*44\r
+!AIVDM,1,1,,A,14eH@`h001G<pppL=D?7WbvT0@;1,0*2C\r
+!AIVDM,1,1,,A,133e?vgP00PDU:lMDJgP0?vV20S6,0*27\r
+!AIVDM,1,1,,B,6h2E3MtrI`0R0480J00000000000,0*49\r
+!AIVDM,1,1,,A,13IeIP0000P0W5DLCmUc1`hV0@;5,0*12\r
+!AIVDM,1,1,,A,13aFeePP0tPGRaRMgfInDOvV2@;B,0*7A\r
+!AIVDM,1,1,,A,402M4GAuho;NB0n5rPUT;<700@;@,0*69\r
+!AIVDM,1,1,,A,601uEPDhuaCB<P<j00,4*76\r
+!AIVDM,1,1,,A,13aIi60P0oPCK9HMItsF9OvV2D7w,0*60\r
+!AIVDM,1,1,,A,33bd@p5P00PHmWDNKb7e<gvV2Dvr,0*2F\r
+!AIVDM,1,1,,B,4h3OvjAuho;NDo=cf0Knevo00h;:,0*4C\r
+!AIVDM,1,1,,B,133n3aPP00PCghjMGLh00?vVR0RP,0*0F\r
+!AIVDM,1,1,,A,181589C001P7g1HMED9anhl`0D6j,0*17\r
+!AIVDM,1,1,,A,13uGR;g0000nS;rQ12@s95HV05Ip,0*23\r
+!AIVDM,1,1,,B,13Q;7S@P10PmQVhPv7b7TOvT2H;@,0*16\r
+!AIVDM,1,1,,A,13c7jV300106iDvMQ87B;B2V05Ip,0*63\r
+!AIVDM,1,1,,A,13aDp7hP00PF<q<Mf7NkhwvTRD1h,0*52\r
+!AIVDM,1,1,,B,15Mt3MPP01ISQkpF>MQ;=?vV0<0M,0*3B\r
+!AIVDM,2,1,4,A,53b?9V02>meI08lJ2208D5DlE8UB222222222216:0:;34s<0>lSm51DQ0CH8888,0*7F\r
+!AIVDM,2,2,4,A,8888880,2*20\r
+!AIVDM,1,1,,B,13aIiI@P09PCg:2Md=gv3gvV2<7s,0*71\r
+!AIVDM,1,1,,B,169q19PP008ViA<DaUrej?vWp0SF,0*5E\r
+!AIVDM,1,1,,B,833p8MPj2d<dteted01@q08p<Q@0,0*1D\r
+!AIVDM,1,1,,A,16K2<L0002awQs6DB9kH3RTV28:m`6OvMl,0*44\r
+!AIVDM,1,1,,B,833oq>Pj2d<dtdut>0VhN@P@00P0,0*56\r
+!AIVDM,1,1,,B,102;2L?P00P8MCBM:Msqewv`2H;E,0*20\r
+!AIVDM,1,1,,A,13aDpPPP00PVuUnNWJcHo?vTR0Rs,0*20\r
+!AIVDM,1,1,,B,33aGrU@OhC0Hpi>NL0=h`1iL1Qsh,0*37\r
+!AIVDM,1,1,,A,138DGr00h0awi?tDHSk00K>R0PSE,0*64\r
+!AIVDM,1,1,,A,38u<a<?PA=2>P8OfuA@I=Vt`0P00,0*45\r
+!AIVDM,1,1,,A,16KJb=@01FawdO:D6RcGIUtR08;8,0*4A\r
+!AIVDM,1,1,,A,16K2;MP001b1I42DGS:;54BV25Ip,0*29\r
+!AIVDM,1,1,,A,16K2>f0000aw>N4DBM>K09RV25Ip,0*5F\r
+!AIVDM,1,1,,A,13aDp3@P01PCaNbMd410;?vT2@;F,0*38\r
+!AIVDM,2,1,4,A,52wP7k00000000000004000000000000000000000000000000000000,0*69\r
+!AIVDM,2,2,4,A,000000000000004,2*24\r
+!AIVDM,1,1,,A,23aDpGwP00PCT5RMHKvstgvTR8;F,0*5F\r
+!AIVDM,1,1,,,13aGFc5P1<PI16tN4tAHVgv`20S@,0*55\r
+!AIVDM,1,1,,A,13nEcr503k0JijRQjtSHInj`0H;F,0*14\r
+!AIVDM,1,1,,B,33aDoVPP00PDdWVMdl6@0?vVR3Ok,0*11\r
+!AIVDM,1,1,,B,13HW:8g0000CwwbMEwMk`RhT0D5O,0*25\r
+!AIVDM,1,1,,A,13cSwB001b01M;nLtqSasWv`20Rm,0*1F\r
+!AIVDM,1,1,,A,16KPia0031awKL0D5<U96WDT05Ip,0*7D\r
+!AIVDM,1,1,,A,181:K60024P3Pn`M0=b8?V`P05Ip,0*1D\r
+!AIVDM,1,1,,B,15NBeigP00IOs1:BPHQpIOv`28;@,0*72\r
+!AIVDM,1,1,,B,15NHOl?000r0nF@F6kOKsSh`0@;D,0*19\r
+!AIVDM,1,1,,B,139K8v00000WpsFNlSE@0FFR08:I,0*54\r
+!AIVDM,1,1,,A,13m;k00P0011nFbVP5R;Sww<2HEn,0*67\r
+!AIVDM,1,1,,A,15NHNVg00IqsRJHFG2;jNAbV0<00,0*15\r
+!AIVDM,1,1,,B,176u=;?000`:RhH<h?IP0CBT08;5,0*50\r
+!AIVDM,1,1,,A,369GGV0P@I8LPLT>1QwbnpdR0000,0*7A\r
+!AIVDM,1,1,,B,15NG5iPP00ISqOLA56I:ngvV2@;<,0*71\r
+!AIVDM,1,1,,B,338a48500089Gw4<nMGJsrnV2000,0*59\r
+!AIVDM,1,1,,A,15N0D?0P00IS`qdA79;e0wvR05Ip,0*66\r
+!AIVDM,1,1,,B,15NG`20000IS4wBA7p1rQ8@V0D5o,0*75\r
+!AIVDM,1,1,,A,15N8@c?P0MIRO9H@ppTM`?vV0D0C,0*61\r
+!AIVDM,1,1,,B,133k?uPP0s0DFrnMDDaBlwvVR<3a,0*31\r
+!AIVDM,1,1,,A,11mg=5@P1APE@EBMfiLdwwvV20R<,0*30\r
+!AIVDM,1,1,,B,33`qQ8?OhJ0HmH6NROFTB5`V01qh,0*7C\r
+!AIVDM,1,1,,B,13aI:MU018PJhC@NSMtmrTfVR@;=,0*2E\r
+!AIVDM,1,1,,A,37PGuB1P00blLj7jGnihuOv`2DOr,0*59\r
+!AIVDM,1,1,,B,402Fh`1uho;NC0SLE0I6SqQ00D2l,0*64\r
+!AIVDM,1,1,,B,13@4eR001wP7pA:MHu:Ge66R05Ip,0*48\r
+!AIVDM,1,1,,B,19NS7QS0010eVGJN`MGrRqRV0<3L,0*38\r
+!AIVDM,1,1,,A,13`e>rhP1B0IC`>MdI>2>?vTP8;J,0*14\r
+!AIVDM,1,1,,B,133tGtgP0qPDNTvMDMFbIOv`2@;J,0*2E\r
+!AIVDM,1,1,,A,B3m?<g002P=iMTaP8v8RswaUkP06,0*69\r
+!AIVDM,1,1,,B,14hlRp01BtPE@wVNP750oPbV00Rt,0*44\r
+!AIVDM,1,1,,A,13aFfOhP00PDQI6Me?SP0?vV28;J,0*68\r
+!AIVDM,1,1,,2,13aGrp0P00P?V7hM8Hw@0?vVR0S?,0*5E\r
+!AIVDM,1,1,,A,133j7CPP0:PD2;pME2=l=OvV20S3,0*35\r
+!AIVDM,1,1,,B,13P<kG@P00P7qW@N6AbP0?v`0D1A,0*60\r
+!AIVDM,1,1,,A,33QUg`5P001Bu7BQu<o;1OvV0000,0*21\r
+!AIVDM,1,1,,B,13P;HIP000P6PedMGgL002HV00RG,0*02\r
+!AIVDM,1,1,,,13oKt00P4g0rLvlUwA@::wvV0@;E,0*58\r
+!AIVDM,1,1,,B,13`i;6hP00PG<8pMlKhP0?vVR<1F,0*1C\r
+!AIVDM,1,1,,B,23P:lP?P@GPCS9TMFeHWvFSp0PS3,0*55\r
+!AIVDM,1,1,,A,33:1wR002<Pr59VOhevWiV@T01bP,0*05\r
+!AIVDM,1,1,,B,13uCd3?0001C034Qu=B@Al<`0<0J,0*10\r
+!AIVDM,1,1,,A,13iPcu@P0>PDhsjMCwtTV?vV20Rb,0*52\r
+!AIVDM,1,1,,A,18151NP005O@U7rEv6;q4IPR0@;;,0*6E\r
+!AIVDM,1,1,,A,19MVHE0ujBwAdrPFSah71U`T0UIp,0*02\r
+!AIVDM,1,1,,B,18157GPw2EOC=OhEjdS=V:rT0UIp,0*2D\r
+!AIVDM,1,1,,A,13pr<l0P0012imDNUMReV?v`05Ip,0*77\r
+!AIVDM,1,1,,A,133gnHgP00PD4OhMDivqwOvVR8;M,0*05\r
+!AIVDM,1,1,,A,16K8D8@000awHhlD<9nIk7D`2@;D,0*17\r
+!AIVDM,1,1,,A,16SWgngP00a3QspEGbiP0?vV20S9,0*05\r
+!AIVDM,1,1,,A,16:;D?PP008Jt6HFB`?;3OvV28;G,0*69\r
+!AIVDM,1,1,,A,13aDoshP0=PE0udMdJCsM?vV28;M,0*61\r
+!AIVDM,1,1,,A,13I``20000ORgqRQCTwr9reN0<05,0*2C\r
+!AIVDM,1,1,,A,139eo8P001PWQRjLbE;q1AvRP@;N,0*30\r
+!AIVDM,1,1,,A,1:b;0P5P1WO0BJ45HUusLgvR0`:u,0*6A\r
+!AIVDM,1,1,,A,16KJd?h002awE:lDB=A`Ti0`25Ip,0*6D\r
+!AIVDM,1,1,,B,13prH@P0001ELBDO8JpP04@R0@;M,0*7E\r
+!AIVDM,1,1,,A,13m9c47004PhD46R>Vd8R0N`0<0j,0*26\r
+!AIVDM,1,1,,B,13bG9D001hOg9aLNt3sesK8T0<0O,0*22\r
+!AIVDM,1,1,,B,14eGLB0P00G<<OlL6i@;8?vV0L2e,0*6C\r
+!AIVDM,1,1,,A,34eGTqPP@bG;pTHL7?MkaPj`0000,0*4D\r
+!AIVDM,1,1,,B,14eGMD@P01G<lALL=I1Fv?vR0D2A,0*25\r
+!AIVDM,1,1,,A,13N<IN000JNvssH5;<GUbU4V0H;0,0*5D\r
+!AIVDM,1,1,,A,15Sekf01B2re7f0G=JGeL:jT0D3B,0*41\r
+!AIVDM,1,1,,A,33A4g<000?Pr5v@P4G4jA2:T2P55,0*24\r
+!AIVDM,1,1,,A,13aJFs?P00PHN6@M`0Rh0?vV2@;N,0*7A\r
+!AIVDM,1,1,,A,344cQFU000R:@CDRA5fAaDBV0000,0*1B\r
+!AIVDM,1,1,,B,13uPGH?000Pr4tHP4KTAum4T00Ss,0*4A\r
+!AIVDM,1,1,,A,13aEQ`@P1:PKFLjMCVvA<?vV25Ip,0*23\r
+!AIVDM,1,1,,A,63P;HIT0SInH01lS0P15PF1?;001008010@01?t?000,2*57\r
+!AIVDM,1,1,,B,13P89nCP00OjAK0NTnKb8wv`0H;N,0*1D\r
+!AIVDM,1,1,,B,15AdW20P000r6I>P4DTl4OvV00S9,0*2B\r
+!AIVDM,1,1,,A,16::06P0008JrkbFCTMtc@hV25Ip,0*05\r
+!AIVDM,1,1,,A,14SbT:0P000D?GBMe4<KJwv`05Ip,0*2E\r
+!AIVDM,1,1,,B,13u>=v?P011BgN@QtWg79wvR0D0`,0*3F\r
+!AIVDM,1,1,,A,8@2<HVh0BkOrj0W0I3UfUk=<abEqowejwwwwwwwwwwwwwwwwwwwwwwwwwt0,2*58\r
+!AIVDM,1,1,,A,139cRC`P050WA=LN`P:5mgvV28;9,0*5E\r
+!AIVDM,1,1,,A,13`qdn000C11L8DNncs9uRFV0@:v,0*7E\r
+!AIVDM,1,1,,A,33q6d25000Q2ioBNUN7K7CrV0P00,0*0C\r
+!AIVDM,1,1,,A,33n`G>0Oh?0CTu6Md1>:qbT@0Pth,0*7A\r
+!AIVDM,1,1,,B,B3P7OqP0B7vamEW@lsUMgwaUkP06,0*2E\r
+!AIVDM,1,1,,A,402FhL0000Htt000000000000D1E,0*0A\r
+!AIVDM,1,1,,B,16Sea<PP00a3mGREH25D7OvV2<26,0*7F\r
+!AIVDM,1,1,,A,15MwNp0P01IRNEnA8CT69?vV0@;C,0*4F\r
+!AIVDM,1,1,,B,35N:Ep5P00IS<>`A8IwK<gvVR000,0*6A\r
+!AIVDM,1,1,,A,15N0;J0P10IR;sTA9hjVKOv`00Ri,0*4E\r
+!AIVDM,1,1,,B,13f2Kr0000IT2LDA4dRpu1C40D8R,0*73\r
+!AIVDM,1,1,,B,19AC=Ph02907wGRMC;ba6WD`08;P,0*64\r
+!AIVDM,1,1,,A,15MlHcPP00G?tf`K>=9bWOv`0<1P,0*52\r
+!AIVDM,1,1,,A,139cN=0P00PD<kNME1gSL?vV2D3w,0*0C\r
+!AIVDM,1,1,,A,A04757QAv0agH2JdGn``7wrs1540vocuF@?s301G,0*0A\r
+!AIVDM,1,1,,A,601uEPhtH;3j<P<j00,4*79\r
+!AIVDM,1,1,,A,B6:efoP0126p1T5UP<@Jkh1TSP00,0*27\r
+!AIVDM,1,1,,B,13aGEK@P010GKd>MckUnhOvT08;Q,0*61\r
+!AIVDM,1,1,,A,13HUFT?00O02qV4LwidkI2``05Ip,0*50\r
+!AIVDM,1,1,,B,13aC21@P000CSkJMdD<h0?vT0<3w,0*4B\r
+!AIVDM,1,1,,A,13P<i1h02nwhLN@N`pNJspfT05Ip,0*1E\r
+!AIVDM,1,1,,B,35Mwm;UP01G@ED>Eid3:?OvV0000,0*62\r
+!AIVDM,1,1,,B,14aW;R0P1?OiA=dNoG0ihgvV0@;Q,0*25\r
+!AIVDM,1,1,,A,13aIjD0P06PHHvTMg2Pcg?vV2<0P,0*0B\r
+!AIVDM,1,1,,A,19NWsB@1Qva2c6PEGPur6H2T2@;L,0*4E\r
+!AIVDM,1,1,,B,8000000Iv3P0T=E9qrtmAwaAEkdq2ClmEwGMR9nwp0,4*2D\r
+!AIVDM,1,1,,A,36K2DrP02KabIJpCjCRSijnT0000,0*57\r
+!AIVDM,1,1,,A,13P:bR0P0006NnnMGbaBg?vV2<0F,0*1D\r
+!AIVDM,1,1,,B,13aFf2wP1VPHqt6Md0=`qwvV2@;R,0*46\r
+!AIVDM,1,1,,A,14RUmf0PB@0r7i<OrFConV2`2<2@,0*2C\r
+!AIVDM,1,1,,A,13tsg`00010nJRnQ0OoFD`TR00SA,0*3A\r
+!AIVDM,1,1,,A,33u?eoP9hGPmvhFPw>jC?BRT0000,0*0E\r
+!AIVDM,1,1,,A,13v0mP00000mGnTQ1CHJT6PV00S5,0*5C\r
+!AIVDM,1,1,,A,13u><=gsAk0mQbHQ1=7BJ26T0L25,0*3F\r
+!AIVDM,1,1,,A,33u=L?POh>0n=QPPw`PcB8LT0100,0*21\r
+!AIVDM,1,1,,B,13P:nch2010fpUlI6@j9OTp`0L0b,0*4D\r
+!AIVDM,1,1,,B,33P;M1qP@6P7dE4MK<wDCif`0000,0*32\r
+!AIVDM,1,1,,A,13cSuf002P0fGLTHf=3PN0JT05Ip,0*40\r
+!AIVDM,1,1,,B,13pr=SPP0011CRDNn=;P0?vT0<0N,0*37\r
+!AIVDM,1,1,,A,16K2;5g01KawHaLDBB6e5rH`2@;I,0*70\r
+!AIVDM,1,1,,A,1342=23P@QP=ri`ML09GmUtR0@;S,0*00\r
+!AIVDM,1,1,,B,13afw000010DBjPMdPsd7Gp`0D=`,0*4D\r
+!AIVDM,1,1,,B,133frb00000=JLRMD@S`Sah`08;R,0*1A\r
+!AIVDM,1,1,,A,15Mrn2P000qObmvBPeEbKS@`08;M,0*70\r
+!AIVDM,1,1,,B,16:CnJPP028:PLt<hmlmggvV28;:,0*04\r
+!AIVDM,1,1,,B,16:D9m0P0:WpdkT;NrA2kwvT0<1v,0*1F\r
+!AIVDM,1,1,,B,169Uh90P007p=pj;NIcKJwvR05Ip,0*2E\r
+!AIVDM,2,1,6,A,569quRP2?hC094@N220P4pN0aDr3C37:2222220Q8`R4?4MS0@C2@C`6,0*67\r
+!AIVDM,2,2,6,A,EC`1hCQp8888880,2*7F\r
+!AIVDM,1,1,,A,369Irf50008Rf94CpO475UbV0000,0*68\r
+!AIVDM,1,1,,B,16:CfcPP007plof;MJ?dQOv:0d17,0*1B\r
+!AIVDM,1,1,,A,1696d`PP008RspL>pOD@0?vT4`;2,0*7A\r
+!AIVDM,1,1,,B,1696mqP0018cc7lEPon=3SB`28;:,0*53\r
+!AIVDM,1,1,,B,16:B9e?000`F6tH=G;F`<RjV28;<,0*1D\r
+!AIVDM,1,1,,A,133nl5PP0BPHv3@MddfV>gvVR5Ip,0*15\r
+!AIVDM,1,1,,A,33450f300F014AhLB1ntsJbV0000,0*30\r
+!AIVDM,1,1,,A,14RvoB0001PCWN0MHFv=5S0T0<;C,0*6F\r
+!AIVDM,1,1,,A,10CGtePP00PD@vpMdom@0?vV25Ip,0*1A\r
+!AIVDM,1,1,,A,139etT0P00PGqeFMaQ7J0wv`R0Ru,0*69\r
+!AIVDM,1,1,,2,13aGE00P000HioHNKI=IcgwJ20SK,0*49\r
+!AIVDM,1,1,,2,13aJHE00000HD:HNPCWPPoeL05Il,0*53\r
+!AIVDM,1,1,,2,13aDGp001dPHGN2NTgUjnREN0<37,0*4E\r
+!AIVDM,1,1,,1,14hlRp002tPE@QRNP1VhoPeT08Ln,0*50\r
+!AIVDM,1,1,,2,13aGDk0P14PH?aFNLmpLu?wPR5Il,0*47\r
+!AIVDM,1,1,,2,402E34iuho;MjPGoPJNQwwG008M`,0*09\r
+!AIVDM,1,1,,2,13aGFROP000HnsHNKkoasgwV0D1E,0*02\r
+!AIVDM,1,1,,2,13c<c6?0000HA`PNQh5006JH00Rn,0*11\r
+!AIVDM,1,1,,2,13c::t001sPH1qDNPb5:o8aT0@Nn,0*5F\r
+!AIVDM,1,1,,2,13aTK>002S0HR=hNcr?9a`SV0<19,0*50\r
+!AIVDM,1,1,,2,13brCD5PAI0H;aLNTWCk12Qd20S3,0*72\r
+!AIVDM,1,1,,B,33n`G>0Oh?0CTu6Md1>:qbT@0PmQ,0*59\r
+!AIVDM,1,1,,B,33aC2GPP010DbvlMnTh6JOw:P6TC,0*6F\r
+!AIVDM,1,1,,B,14Rtbb00@00EFRdN1EW0Oho<0<57,0*54\r
+!AIVDM,1,1,,A,23cAs20Oh6PE3T<N1FuRsRi>08Fo,0*62\r
+!AIVDM,1,1,,A,133qNL50000>bc0MH:e9T1A<0l58,0*74\r
+!AIVDM,1,1,,A,13bg<H00010?RQdM`mep?iIp0pFq,0*71\r
+!AIVDM,1,1,,B,2340ST0Oi`0>bglMHJjF?U?>0<:6,0*3E\r
+!AIVDM,1,1,,1,13`hokh0000Gol0NQuL7a3kd0D0O,0*03\r
+!AIVDM,1,1,,2,13`fef?000PHAkdNQm3@081f2HPC,0*3C\r
+!AIVDM,1,1,,1,13av7h001M0HF<FNQBKbF`CB0hPJ,0*35\r
+!AIVDM,1,1,,1,13aJHE00000HD:HNPCWPPoeh0@Pi,0*1D\r
+!AIVDM,1,1,,A,1>qc9ww000OkfS@MMI5004RT0<0B,0*53\r
+!AIVDM,1,1,,2,33aJH0hPAL0HC2tNQgDRH1gh00@P,0*46\r
+!AIVDM,1,1,,2,13bjGP000A0G:j8NPGBbS8?f0@Q>,0*72\r
+!AIVDM,1,1,,2,13aI:?@P00PHq;`NL0<@0?v020SQ,0*5F\r
+!AIVDM,1,1,,B,14`aD:3000`Jq6tFCo3:8J`R00S;,0*0E\r
+!AIVDM,1,1,,1,402E34iuho;N0PGoPJNQwwG005Ip,0*4A\r
+!AIVDM,1,1,,B,139dNdgP1W0IIdNMdawqr?v`R5Ip,0*50\r
+!AIVDM,1,1,,2,13aGsv@P00PGCJ`NOivqvgv8282>,0*2C\r
+!AIVDM,1,1,,A,33m:q<0PAP0JK>LQibk9=WFT010i,0*26\r
+!AIVDM,1,1,,2,33aJHE00000HD:HNPCWPPod<0533,0*05\r
+!AIVDM,1,1,,2,13bok:?0020H1r0NSRDJ07h6083A,0*6F\r
+!AIVDM,1,1,,2,168s64002a0H0WrNWsJjj2B<0D4Q,0*58\r
+!AIVDM,1,1,,2,13aGE00P000HioVNKI<Iawv>2D0h,0*05\r
+!AIVDM,1,1,,2,33`gl20OiNPGwDBNPdlcEIL:00rh,0*27\r
+!AIVDM,1,1,,A,13aEOdOP1?PDDG8MdQods?vRP`;Q,0*54\r
+!AIVDM,1,1,,2,13`ww<0P000HhpdNKDKAegv@2@4w,0*21\r
+!AIVDM,1,1,,A,36K<iL0OiaGWFfPBeGu0104T0000,0*22\r
+!AIVDM,1,1,,A,13bWHH001dP9TchMFug@b@db00Sl,0*30\r
+!AIVDM,1,1,,A,13@npowP000jsa6Pk9MIjwv`2<1R,0*2C\r
+!AIVDM,1,1,,B,13uEdwW0000m;sBQ9Dw;aRL`2@;F,0*44\r
+!AIVDM,1,1,,B,13q6DV00001ENU<O8D3041jT0PSj,0*73\r
+!AIVDM,1,1,,A,13P:VTP000wjALPNTcsWnc<T08;V,0*31\r
+!AIVDM,1,1,,2,13aI<N001S0H0rfNPcwbp8hV05Ip,0*11\r
+!AIVDM,1,1,,A,13@nr?0P000r1spOkrBIsOv`25Ip,0*1E\r
+!AIVDM,1,1,,A,16KDTa0001b0bW0DGQQr@nN`05Ip,0*00\r
+!AIVDM,1,1,,A,13aGEuOP1CPFl>HMafg3jOvVR<3R,0*47\r
+!AIVDM,1,1,,B,13bIIn0Oh1PL=W0NTWdc2A4605Ip,0*4C\r
+!AIVDM,1,1,,B,13lqe<01j5OrtI<M2KMTSkbT0D2`,0*04\r
+!AIVDM,1,1,,A,16KDT@P00hawrehDH@GmuTfV0<38,0*1B\r
+!AIVDM,1,1,,B,133w2@gP00PD=L@ME9K9N?v`R5Ip,0*79\r
+!AIVDM,1,1,,A,16K2<g0000aw=jdD=2gaj6:`05Ip,0*51\r
+!AIVDM,1,1,,2,23`e=7@P00PE7ebN1PKh0?wLR0SA,0*26\r
+!AIVDM,1,1,,1,139hEM0P00PEluJMwNCapwwR2<6Q,0*36\r
+!AIVDM,1,1,,1,13aGFh0P00PEFDhN1cU4u?wPR<2r,0*7D\r
+!AIVDM,1,1,,2,23b?ED00190DsQ4N1@`3L2gR0000,0*45\r
+!AIVDM,2,1,4,2,53aFf@T000010KKG700<tp@u800000000000001S0`?33t0Ht0hCDm1DQ0C@,0*15\r
+!AIVDM,2,2,4,2,00000000000,2*53\r
+!AIVDM,1,1,,2,23aGtW@P1CPF0trMwfNT2ww`28NU,0*16\r
+!AIVDM,1,1,,2,13aGFs0P000E<rdN1OqDsOw`R<3P,0*58\r
+!AIVDM,1,1,,2,24TbiR001L0DqA2N1F;2q2Cb0D9=,0*77\r
+!AIVDM,1,1,,1,63c>gr00UBfj06P00;iL,0*48\r
+!AIVDM,1,1,,B,23aEPr@P010Cm?dMEo;6Pgv:P@3o,0*2B\r
+!AIVDM,1,1,,B,133Pfn00000CnGhMEA6b?DV>05Ip,0*4C\r
+!AIVDM,1,1,,A,13aFfE@P01PK5?PMAvWq7OvVR5Ip,0*2A\r
+!AIVDM,1,1,,A,33cUpi0qQM0g6l8HrSO1D0pT0QvP,0*61\r
+!AIVDM,1,1,,A,13aIhR?P00PIW`RN8LHaaOwR2<3S,0*53\r
+!AIVDM,1,1,,A,15NC4`0P0HJdm5tFddAtawvR05Ip,0*1C\r
+!AIVDM,1,1,,A,13aGFPPP00PJB1pN5vmbT?wP2L1;,0*37\r
+!AIVDM,1,1,,A,133ug3PP00PD=ORMDOg;DOvV2H;`,0*12\r
+!AIVDM,1,1,,A,13mE>r8000Pi7j@RAw412@V`0H;W,0*5D\r
+!AIVDM,1,1,,2,23aJHvEP00PAR7TMGEb00?wD20S6,0*32\r
+!AIVDM,1,1,,2,133reCPP00PARE<MECVAQOwD2@I@,0*00\r
+!AIVDM,1,1,,B,3399303P@6PErhLNK2HUJ5>40PtA,0*7A\r
+!AIVDM,1,1,,B,13aGsW@P1:PEtNfNAbHQ0wv8282q,0*43\r
+!AIVDM,1,1,,B,13aDCM0P00PDF?vMdev00?vV25Ip,0*6C\r
+!AIVDM,1,1,,A,13aGuJP000POgBbNPLB7OAEB20T4,0*49\r
+!AIVDM,1,1,,A,15NO8q0P00IT5GJ@jQ66MwvT00Sl,0*73\r
+!AIVDM,1,1,,A,15N0Gr0P05ISeq>A5DcdLOvV0<4e,0*75\r
+!AIVDM,1,1,,A,15N5WfPP00IS35:A;t1:v?v`2L4N,0*10\r
+!AIVDM,1,1,,B,15N7l2PP00IS`r0A728tS?vV0@;R,0*63\r
+!AIVDM,1,1,,A,402E3:0000HttPGEahN7pi701t3n,0*30\r
+!AIVDM,1,1,,B,13aEOs0P00PP@IvNJ8RD6?w6R0SQ,0*22\r
+!AIVDM,1,1,,B,13bmVR?0000OFs8NU75t5pqD00S?,0*20\r
+!AIVDM,1,1,,A,13aEPq@P00POQurNJrMRA?wB28HS,0*4B\r
+!AIVDM,1,1,,A,13aqNp?P?w<tSF0l4Q@>4?wp0UB8,0*24\r
+!AIVDM,1,1,,B,13`iAj0P0>0FienNFii8Gwv:083D,0*4C\r
+!AIVDM,1,1,,1,23aDCQhP00P@oe4MLSVRKgwD20S9,0*57\r
+!AIVDM,2,1,0,A,53aJFgD000010CWO78118Tp<DPtH0000000000151@A51t0Ht0000000000000,0*78\r
+!AIVDM,2,2,0,A,000000001,2*25\r
+!AIVDM,1,1,,A,13aJGqOP00PCanNMH=N00?vVR5Ip,0*43\r
+!AIVDM,1,1,,,13aDBgG00CPCc68N>9LqN86`0H;K,0*43\r
+!AIVDM,1,1,,B,15Mj2u0000o>brfK=i7R`Id`0H;V,0*24\r
+!AIVDM,1,1,,B,13aJGIhP0vPHRMjMWe@G0OvV2@;`,0*1F\r
+!AIVDM,1,1,,A,16K8Ar001RawnSPD:kkv3P6T05Ip,0*4C\r
+!AIVDM,1,1,,A,402M4L@000Htt12>B0VPVH700`FB,0*19\r
+!AIVDM,1,1,,B,24S8Dh5000PCSfBMH=jF=TvV0H;b,0*79\r
+!AIVDM,1,1,,A,13P7r??001Oj@e@NTMer7Bf`0<0r,0*3D\r
+!AIVDM,1,1,,A,13aFdrPP00PGE=@Mgif@0?vV20SC,0*62\r
+!AIVDM,1,1,,B,13Nvwh0021OK2i@ChPrHjW6T0H;4,0*75\r
+!AIVDM,1,1,,A,15MumhPOi1JdsoNGA<rTkCt`05Ip,0*38\r
+!AIVDM,1,1,,A,13fpPn001c0NcrlOLT9Qa1<R0@;I,0*5E\r
+!AIVDM,1,1,,B,33`fJmUP000JbNbNLClP0?vV0Dlb,0*1D\r
+!AIVDM,1,1,,A,14S26D03iBPFh5dN`KP9gGhT25Ip,0*19\r
+!AIVDM,1,1,,B,137bHJ0wBhPA6HvMk1HE=Ct`08;b,0*25\r
+!AIVDM,1,1,,A,64R1MV00UBf206P0>0,4*73\r
+!AIVDM,1,1,,A,13`elhhP000CmCBMEo;00?vT0<3w,0*0B\r
+!AIVDM,1,1,,B,168sVE?0008K0WfFCQmcfqD`0@;U,0*70\r
+!AIVDM,1,1,,A,16K2E:h020ac0@8Cg2tHTVr`00Rg,0*38\r
+!AIVDM,1,1,,A,36:@ejPOh=8LRa4>2SR@RilP0000,0*25\r
+!AIVDM,1,1,,A,16:=Gi0P00`Q1?n>ECWWU0VJ088>,0*76\r
+!AIVDM,1,1,,B,17pqVD001C85Rp<<Jn:25QrV2@;@,0*08\r
+!AIVDM,1,1,,B,16:?uKPP1m`fbunA7eKDd?vT08N:,0*23\r
+!AIVDM,1,1,,B,16:ALo0P008g1D2A:?W5pgvV08;>,0*1E\r
+!AIVDM,1,1,,2,13q5E2?P0bP@pEBM?7BIW?vVR5Ip,0*66\r
+!AIVDM,1,1,,B,169E8j00008fJ<jA86w0g5vV25Ip,0*0A\r
+!AIVDM,1,1,,A,13aBNf0P0M0HJU6MfvKsBwvT05Ip,0*2D\r
+!AIVDM,1,1,,A,133j@BPP010Crp@MDvPnUwvT05Ip,0*32\r
+!AIVDM,1,1,,B,24SaQh500G0Cu6VMErn:680V00S?,0*16\r
+!AIVDM,1,1,,B,13aDpf@P000DHtLMd8MrcOv`2H;d,0*31\r
+!AIVDM,1,1,,A,16K8Dj?002awCjnDB<6Jp9N`25Ip,0*3F\r
+!AIVDM,1,1,,A,36KVls001rawoJDD9NmP2c>`00ai,0*1C\r
+!AIVDM,1,1,,A,13P<OM0022`OVB4F<LeCmk6b05Ip,0*3B\r
+!AIVDM,1,1,,B,13MKsr?0001dJB0Ee4I8r6f`0@;U,0*7B\r
+!AIVDM,1,1,,B,102CuBkP00OLuCfC>nH@0?vV05Ip,0*02\r
+!AIVDM,1,1,,B,34Rh241003PA1VdMfJGuk0t`000>,0*1C\r
+!AIVDM,1,1,,A,13oGbT00010IUJBQmdbW@@P`00SD,0*55\r
+!AIVDM,1,1,,A,13iO8r0000015U8LCd31;8jR0@;R,0*5A\r
+!AIVDM,1,1,,A,13I;QJP00000Qu2LD:`:2jR`2<1;,0*3D\r
+!AIVDM,1,1,,A,102;70VP?w<tSF0l4Q@>4?wv0P00,0*17\r
+!AIVDM,1,1,,A,13aI:HOP11PG=fdMaoKj`wv`RD4h,0*60\r
+!AIVDM,1,1,,B,402M3wQuho;NC0i>TVRA<nQ000S:,0*23\r
+!AIVDM,1,1,,B,402V?FAuho;NDRI?3RIQfJ700@;f,0*65\r
+!AIVDM,1,1,,B,1344QN0PB10=CGLMIU7`InR`0H;f,0*58\r
+!AIVDM,1,1,,B,11Gmu?OP000CshrMdl600?vT05Ip,0*12\r
+!AIVDM,1,1,,A,13P7A3h0?w<tSF0l4Q@>4:Cp0h;b,0*07\r
+!AIVDM,1,1,,A,13aENDPP?w<tSF0l4Q@>4?wp00S9,0*3E\r
+!AIVDM,1,1,,A,15Mvtq?001qS@ILF:7`<end`05Ip,0*51\r
+!AIVDM,1,1,,A,4h2E3MAuho;NCPDAk4MdjqW00<>g,0*7C\r
+!AIVDM,1,1,,B,39NWvkhOj8OAHP@FK`N6rUTV0000,0*38\r
+!AIVDM,1,1,,A,368sVcPP@68K9;bFD6N5v7@`011A,0*67\r
+!AIVDM,1,1,,A,14eG?>PP00JBiT4HhSwsNgv`08;K,0*31\r
+!AIVDM,1,1,,A,133maNg0000CSqTMEBpDR2NV0H;h,0*2A\r
+!AIVDM,1,1,,A,402=a@Auho;NB069FJM@RGi005Ip,0*46\r
+!AIVDM,1,1,,B,13bw7r0001PFB>8MabI3?Q``05Ip,0*42\r
+!AIVDM,1,1,,B,14VbQD0P00FcCd8O4c0;a?v`0<0C,0*7F\r
+!AIVDM,1,1,,A,13aGEMPP00PDJt2MdRg1Cwv`2@;h,0*3C\r
+!AIVDM,1,1,,A,13Ej@W0P00OW7MpDbi577wvT0<34,0*4A\r
+!AIVDM,1,1,,A,403OweAuho;NCGWDA0BdK9i005Ip,0*5D\r
+!AIVDM,1,1,,A,13P<Pu8001OhBcHNtO;9R9DT0<0N,0*54\r
+!AIVDM,1,1,,B,13b5PJ0OirPA:ibN8nkmhDRb05Ip,0*10\r
+!AIVDM,1,1,,A,13@ngh@0000qh3TP4FEH<Cd`0@;d,0*40\r
+!AIVDM,1,1,,A,B44?BB0000TSbP6d=V@03waUoP06,0*6E\r
+!AIVDM,1,1,,A,14SMct00009wI4LDAaR<CVNR0UIpO1?vwl,0*26\r
+!AIVDM,1,1,,A,15NE7mPP4`Je3UPG@3F=owvb08;c,0*2D\r
+!AIVDM,1,1,,A,15Mwr;P01Grdu?bG@7v=5bjV0<2o,0*38\r
+!AIVDM,1,1,,B,19NWuDh038qkLHr;kHe@B0>J0@8L,0*05\r
+!AIVDM,1,1,,A,13aI9>?P00PDQBjMe=FP0?v`28;i,0*4B\r
+!AIVDM,1,1,,A,13P;w<0P0:OgQ76Nt=RGBwvV0@;i,0*33\r
+!AIVDM,1,1,,A,16K2<4P000awMO`DCJCP01TR0000W:gvwl,0*7A\r
+!AIVDM,1,1,,A,15Mt3l0P00ISNLrF>h;:Dwv`05Ip,0*46\r
+!AIVDM,1,1,,A,13aEOJ0P00PChS2Md@Uh0?v`28;j,0*69\r
+!AIVDM,1,1,,B,33ew540uAowwtU@O0FL<Wb4V00sQ,0*00\r
+!AIVDM,1,1,,B,13U7E8001h0pcC<P94<4pT0V0H;k,0*02\r
+!AIVDM,1,1,,A,10HL`FPP00PCphRMBqT@0?vV25Ip,0*27\r
+!AIVDM,1,1,,B,13aGsCwP00PDs2TMdcp@0?v`R<4p,0*5E\r
+!AIVDM,1,1,,A,10NHRrPP00PCRB@MEB;00?v`2H;k,0*30\r
+!AIVDM,1,1,,B,13aDo`oP00PDS3nMdQJ00?v`2@;k,0*11\r
+!AIVDM,1,1,,B,133u9SPP0fPD8kTME2CThgv`25Ip,0*44\r
+!AIVDM,1,1,,A,16:AFEP0018S`Lj>gFQo102V28;L,0*2C\r
+!AIVDM,1,1,,B,169UKr0P1N`ea@hEVI24ASPT0`;P,0*55\r
+!AIVDM,1,1,,B,B6:FAC38>1v0?N2pA6prkwavkP06,0*1D\r
+!AIVDM,1,1,,B,177nP4PP2S8:RTd<hFf3m?vV08;O,0*56\r
+!AIVDM,1,1,,A,16T:HH0000a3A:tEIK4kBP0`0H;f,0*6D\r
+!AIVDM,1,1,,A,13aDC0PP00PCo1nMEQTA6OvV25Ip,0*7A\r
+!AIVDM,1,1,,A,15N9sFPP00JrjpPH@02e2gv`28;G,0*48\r
+!AIVDM,1,1,,B,13aC220P000CtU>Md<Mh0?vTP5Ip,0*48\r
+!AIVDM,1,1,,B,33aGvF09Q608;m:N4Vih=@DV00u0,0*3E\r
+!AIVDM,1,1,,A,15MullPP01ISI16A81:sBwv`05Ip,0*51\r
+!AIVDM,1,1,,A,15NCj@0P00IT1n:A8MMqIwv`28;V,0*5A\r
+!AIVDM,1,1,,B,15NN7CPP00IRp6:@jrIL3gvV00SC,0*0B\r
+!AIVDM,1,1,,A,15Mudb0P00ISG8DA8=;<;wvV0@;W,0*6E\r
+!AIVDM,1,1,,B,15N0<MgP00ISIIDA7TOI4Ov`2D6>,0*70\r
+!AIVDM,1,1,,A,15NBs60P1DIT74vA57VtewvV0<2O,0*34\r
+!AIVDM,1,1,,B,15MwjJ0P01IT6bJA7FT@2gv`0@;c,0*16\r
+!AIVDM,1,1,,B,15N:fcPP00ISb>tA6dRsjgvV05Ip,0*41\r
+!AIVDM,1,1,,B,15N007gP00ISlQDA4dn<9gvV05Ip,0*0D\r
+!AIVDM,1,1,,A,Dh3OwhQbmN>5NLfGMMtNfqMd200,2*65\r
+!AIVDM,1,1,,B,13n9dE?P000J@K2Qg`c8wgv`2H;f,0*51\r
+!AIVDM,1,1,,A,138DGr00h0awi?tDHSk00K>R0PSERqovwl,0*45\r
+!AIVDM,1,1,,A,404<g>iuho;NCa3R6PELB=O000S:,0*58\r
+!AIVDM,1,1,,B,1341>R00000CnFTMFL9HhJFb00Rk,0*48\r
+!AIVDM,1,1,,B,4h3Owoiuho;NDrdhR4G>oE?02H;l,0*5E\r
+!AIVDM,1,1,,B,13VmD<02@0OM:0LC>Ur3i:F`0D1c,0*68\r
+!AIVDM,1,1,,B,13aIhB0P00PDTCtMdTa@0?v`25Ip,0*49\r
+!AIVDM,1,1,,A,13uCnh<0000nldRQ1gdG6JtV00S=,0*08\r
+!AIVDM,1,1,,B,13uNV67000PmH<jQ1D2h00f`2@;g,0*0E\r
+!AIVDM,1,1,,A,601uEODhrspP04<100,4*6E\r
+!AIVDM,1,1,,A,13M@@BS000Ow8:@Ncl@P06d`0@;m,0*47\r
+!AIVDM,1,1,,B,13n@Kv0000Pi7?<RAvMf1nBb2<0P,0*66\r
+!AIVDM,1,1,,A,16Kcbm001cawg18D;vBU`4JP0PSW,0*18\r
+!AIVDM,1,1,,A,36KVnDh02wawaHPDA8T8h6tT8000,0*41\r
+!AIVDM,1,1,,A,404757Quho;NC9wdLJD;;HG00@;f,0*4C\r
+!AIVDM,1,1,,A,404757iuho;NC9wLcrDAl>7000S:,0*24\r
+!AIVDM,1,1,,A,4047581uho;NC:0IUhDHEQW00@;h,0*7B\r
+!AIVDM,1,1,,B,133ghQgOh00Cj7HMG40@0:RV0@;n,0*39\r
+!AIVDM,1,1,,A,13aEQ6hP1aPHFnDMafC<5Ov8R<34,0*13\r
+!AIVDM,1,1,,,13P8Gb@P0003c;rMRghn`gv`00TD,0*6E\r
+!AIVDM,1,1,,B,13aGunOP00PCo:dMdG6Mewv`2@;n,0*11\r
+!AIVDM,1,1,,A,15MOK`7P00G?jsJKADUIM?v`0D2H,0*7F\r
+!AIVDM,1,1,,A,16:9vg00008Js>:FCToP03:`2@;h,0*20\r
+!AIVDM,1,1,,A,402=aUAuho;NCOvj2`NguOQ02H;f,0*48\r
+!AIVDM,1,1,,A,601uEPlhuaCB<P<j00,4*5E\r
+!AIVDM,1,1,,B,13aDr1PP00PGT2PMgntucwvVR0Rf,0*47\r
+!AIVDM,1,1,,B,144atH00000LfA4Sffbt>ad80h32,0*39\r
+!AIVDM,1,1,,B,19NS?pP0000LhDLSfU?<4nh:2<1E,0*12\r
+!AIVDM,1,1,,B,13mrMf00010Lp5<ShOQ:5GP<0d0c,0*11\r
+!AIVDM,1,1,,B,13c6@t0PBe0L6@BShNKAmiCp0d29,0*5E\r
+!AIVDM,1,1,,B,B3mJVg00;`73w<8sqMp1;wSUWP06,0*2B\r
+!AIVDM,1,1,,B,13mWpb70000LOm`Sh0U8KjN@0D0v,0*4D\r
+!AIVDM,1,1,,B,13mDgb0000PLgOpSfcTluSpB0D1I,0*39\r
+!AIVDM,1,1,,B,13LW`@0P1V0L9iVSiTjhg?vB0<1U,0*09\r
+!AIVDM,1,1,,B,B3m7cf000875wW`se:>LCwU5WP06,0*4A\r
+!AIVDM,1,1,,B,13mB?P0001PL9vTSgrras7t@0H69,0*33\r
+!AIVDM,1,1,,B,144SRk`0000Lf=DSffI0nqjMpD14,0*6E\r
+!AIVDM,1,1,,B,13n4wS5P15PL?NrSjbQHDOvP0D1A,0*4C\r
+!AIVDM,1,1,,B,13n34HOP000LETtSga;J1?vP0d13,0*5A\r
+!AIVDM,1,1,,B,13m??e3000PLTt4Sh1wVtBrP0<0f,0*41\r
+!AIVDM,1,1,,A,169rnEg0008KA<0FB=:P03V`2D5<,0*31\r
+!AIVDM,1,1,,B,14eGNKW001G<cfnL=6QDaAf`08;I,0*7F\r
+!AIVDM,1,1,,A,10MhC2PP?w<tSF0l4Q@>4?v00d2A,0*4B\r
+!AIVDM,1,1,,B,138d;F0004o=Dk8L9:M3jPvR08;Q,0*0A\r
+!AIVDM,1,1,,B,14eGeKhP00G=C@>L8ckkQwvV0<23,0*4F\r
+!AIVDM,1,1,,A,14eGECP01PG;SEFL;g=7BmdR0D1W,0*3B\r
+!AIVDM,1,1,,B,14eGMFhP0UG<osBL=Cno5OvR0@;:,0*6D\r
+!AIVDM,1,1,,A,14eH0=P01MG;`;nL>BarN8``2D2t,0*33\r
+!AIVDM,1,1,,B,19NWvG@02L0CTRdNACt160pV0<6e,0*6C\r
+!AIVDM,1,1,,A,16K2>f0000aw>N4DBM>K09RV25IpwCkvwl,0*6D\r
+!AIVDM,1,1,,B,8000000Iv:SJhsq67cGbWOVDGOp:OtsNU=v87vlcgh,4*01\r
+!AIVDM,1,1,,A,402Un4P000Htt26n5TDgV`W01`5G,0*6D\r
+!AIVDM,1,1,,A,B3Rm@d000@PCR0U=V8luGwU5kP06,0*3F\r
+!AIVDM,1,1,,B,402Un4P000Htt26n5TDgV`W01TCd,0*0F\r
+!AIVDM,1,1,,B,402Un81uho;N<21<cDE21PW005Ip,0*4F\r
+!AIVDM,1,1,,B,13R2lu0P541c<OpEV@n5N?vD0@67,0*54\r
+!AIVDM,1,1,,A,13a4gp0P000WBGnNWMRh0?vP08;F,0*38\r
+!AIVDM,1,1,,B,33aGG=gP1FPIOVfN7nb;nwvb22uA,0*28\r
+!AIVDM,1,1,,B,13u=IFgP000nrL6Q1kuWU?vV0L0G,0*69\r
+!AIVDM,1,1,,B,33u=a=P000Pq<NTPSbGPLFNV00qP,0*13\r
+!AIVDM,1,1,,A,4025bt1uho;NC0lffJPM1KQ00@;f,0*7B\r
+!AIVDM,1,1,,B,4h3OwoQuho;NDreTpnGEg7O025Ip,0*41\r
+!AIVDM,1,1,,B,15Muc1?P0wIv5O<FDA8=IOv`0H;n,0*61\r
+!AIVDM,1,1,,A,139h5jgP00PCmpvMEl8<MwvVRD3w,0*4D\r
+!AIVDM,1,1,,B,400000Auho;NCIj1F4;gjwA02L06,0*0C\r
+!AIVDM,1,1,,A,13QSK<0000PWpPbNl`V005J`05Ip,0*23\r
+!AIVDM,1,1,,B,4030pGiuho;NCTS;cdITGlW00D0G,0*51\r
+!AIVDM,1,1,,A,15Mf@6P001o?@slKFBIU:qLV00Re,0*24\r
+!AIVDM,1,1,,A,15NIQB0000Jn1U:Gbm8bK2j`08;9,0*27\r
+!AIVDM,1,1,,A,15MssJP000rmCoLGS6g=jahV0D06,0*05\r
+!AIVDM,1,1,,B,D025bpj0tDfr<`D01rhT0000000,2*5F\r
+!AIVDM,1,1,,A,D02M4NiRHNfr<`N000000000000,2*6E\r
+!AIVDM,1,1,,A,13CsGSgP008dB<FF?KIbJ?v`2<1G,0*51\r
+!AIVDM,1,1,,B,13a3u:@P00PFqObMabLQ7?vV2H;s,0*29\r
+!AIVDM,1,1,,A,13aB8RhP00PD36FME2Ak@gvV2@;s,0*2F\r
+!AIVDM,2,1,4,B,56SWW;P000033C;K?<0P4r0d4pN0pw<000000:o`1@K46400000000000000,0*53\r
+!AIVDM,2,2,4,B,00000000008,2*2B\r
+!AIVDM,1,1,,B,13aFf<gP00PCSP>Mcqm:Agvb2D9q,0*47\r
+!AIVDM,1,1,,A,14bAul001`Oao4vDWVRCABhT0@;:,0*51\r
+!AIVDM,1,1,,A,339Ll:50002:NLpRB907i`D`0000,0*79\r
+!AIVDM,1,1,,A,16KJd?h002awE:lDB=A`Ti0`25IpHS;vJh,0*19\r
+!AIVDM,1,1,,A,16921@?P008ccttEPwAJKOv`2D1F,0*76\r
+!AIVDM,1,1,,B,169VCd001h8eRohESfP3QRp`00Sd,0*0C\r
+!AIVDM,1,1,,B,168uSE0000`F?VP=G?<e=2`T0<25,0*4A\r
+!AIVDM,1,1,,B,33o7W>50000J96dQh277i6t`P000,0*20\r
+!AIVDM,1,1,,B,33mGSF0OkFPJi<PQftfownD`01:@,0*5B\r
+!AIVDM,1,1,,A,13nV6d001N0JdljQiWVQ0@lb00Rp,0*1D\r
+!AIVDM,1,1,,A,13n3aW0PCIPJ`9:Qh7O:W8J`28;r,0*21\r
+!AIVDM,1,1,,A,16K2;5g01KawHaLDBB6e5rH`2@;Ira7vJh,0*00\r
+!AIVDM,1,1,,B,13mmQD000111oujVP;Aujpb00pFj,0*6E\r
+!AIVDM,1,1,,A,13aFdewP1IPHE=<MakrcMwv`2<1i,0*2D\r
+!AIVDM,1,1,,A,13mEuj8P0011nDjVPA4I@ww@05Il,0*21\r
+!AIVDM,1,1,,B,Dh3OwhQbaN>5N@fGMMhNfqMP200,2*4E\r
+!AIVDM,1,1,,A,Dh3OwhATIN>5N8fGMMTNfqMP200,2*07\r
+!AIVDM,1,1,,B,35NM8d5000IT67VA5AHrvFVa2000,0*39\r
+!AIVDM,1,1,,B,15N1bLPP01IShWlA4J6W0Ov`08;n,0*52\r
+!AIVDM,1,1,,B,4h3OwhAuho;NDITk;8@sA>700L:t,0*14\r
+!AIVDM,1,1,,B,402M4L@000Htt12>B0VPVH700`GM,0*14\r
+!AIVDM,1,1,,A,133gVGgP00PD69JME<L:a?vb28;u,0*4B\r
+!AIVDM,1,1,,A,13aIis@P00PD:EjMe7R@0?v`28;u,0*57\r
+!AIVDM,1,1,,B,168tgc0P01`Vg10DaGE5P?v`00SG,0*24\r
+!AIVDM,1,1,,B,13u==?gP000sihFOnqgrBwvb20SJ,0*21\r
+!AIVDM,1,1,,B,13@WP6002>0FhLvN`tJaWohT08;m,0*55\r
+!AIVDM,1,1,,B,85MwpKAKf5T<:Vo<>IOA@a8SRsdsNhL<;crFoEM06pWd=VBtAILV,0*75\r
+!AIVDM,1,1,,A,13aFf0hP1VPHkfPMcCM7mwv`RH;v,0*03\r
+!AIVDM,1,1,,B,13aEQw@P000D0N4MDt=9tgvbRH;v,0*22\r
+!AIVDM,1,1,,A,16K2>6h001awi:hDIJlHjUv`2H;d,0*4B\r
+!AIVDM,1,1,,B,13=I`D5P008VjSvDanJt2OvV0h;p,0*08\r
+!AIVDM,1,1,,A,13LAmf001R0K9FrQttbIHGTb08;i,0*2E\r
+!AIVDM,1,1,,A,140SKh0000awkF2DGp2K0rB`2@;d,0*2D\r
+!AIVDM,1,1,,A,133fopgP1=PCTT8MIIQbngvV28;w,0*6F\r
+!AIVDM,1,1,,A,16K2;MhP01awDG@DB:upT?v`28;j,0*5D\r
+!AIVDM,1,1,,A,16K2<aP000awHOdD<8ro2G>b0<3U,0*0E\r
+!AIVDM,1,1,,A,13@oa0@0000hLtfQ1aeruH4b00Ss,0*71\r
+!AIVDM,1,1,,A,6h2E:p4r;WHf04<0@00000000000,0*39\r
+!AIVDM,1,1,,B,168sV100018K<blFCDMWSAJb08;q,0*6D\r
+!AIVDM,1,1,,A,13Hb=P00000HSO@Hj5WoS61805Il,0*24\r
+!AIVDM,1,1,,A,A04757QAv0agH2JdGodP7Oqc4@TGw9`B70,4*2C\r
+!AIVDM,1,1,,A,33ddSl0P@:PW0M2NbOlSk1lR0161,0*75\r
+!AIVDM,1,1,,A,13aGu:`P00PO1e8MqK=P0?v`20T5,0*6E\r
+!AIVDM,1,1,,B,13aBLwPP00PDDS6Md56JAwv`2H<0,0*3C\r
+!AIVDM,1,1,,B,402B5>1uho;NC1`tGlG@=GG005Ip,0*17\r
+!AIVDM,1,1,,2,1815<0P01PP:fE0MQWS1T1>T05Ip,0*36\r
+!AIVDM,1,1,,B,13auwt001NOvHp0OCh?3`S0b0<08,0*73\r
+!AIVDM,1,1,,A,133qF<PP00PD=>NMDP>P0?v`2@<1,0*14\r
+!AIVDM,1,1,,B,33ass8?OhI0D9?0MbTHC>34b00vi,0*5B\r
+!AIVDM,1,1,,A,15N97V000@G?eN4KI1m;E6l`0<1:,0*3E\r
+!AIVDM,1,1,,A,15N;0>001>Jllj@GWdL<JJ0`0D0;,0*1D\r
+!AIVDM,1,1,,A,34eGsHm000o:uj0Keanod5<T0000,0*68\r
+!AIVDM,1,1,,A,168rO00P008K1V`FCc890wv`0h;s,0*26\r
+!AIVDM,2,1,2,B,533ghrP00000uC;G?B1ADN3SB22222222222220l1p>554000:R0DPSmD`4i,0*4D\r
+!AIVDM,2,2,2,B,DUR@iH88880,2*07\r
+!AIVDM,1,1,,A,13dnd@0000Q2kOTNU?m=<0H`0@<2,0*37\r
+!AIVDM,1,1,,B,14TG?R001fOAqD4FHFvGC5hT0h;i,0*3F\r
+!AIVDM,1,1,,B,144au?002>wAcmdFR7t74E`V2`;l,0*4D\r
+!AIVDM,1,1,,A,402PeAQuho;NCOERubF@wg100@;C,0*21\r
+!AIVDM,1,1,,A,14QsE?P02LOBPFlEmqPFVm<V28;v,0*4B\r
+!AIVDM,1,1,,A,13KHn@P0001QlrJR=Bb9FFf`0l06,0*77\r
+!AIVDM,1,1,,B,133teKPP00PD=HLMDvw9ogvbR<8C,0*5B\r
+!AIVDM,1,1,,A,16KPdw@01ob0dF6DDE@rHpDb20S;,0*42\r
+!AIVDM,1,1,,A,16K8DRO000awH`hD<9>THoHb0<3v,0*02\r
+!AIVDM,1,1,,A,402R3FAuho;ND1C<86QsRfQ00@<3,0*7D\r
+!AIVDM,1,1,,A,13`qEJ?021P>6@VMI4GrF`Lb05Ip,0*49\r
+!AIVDM,1,1,,B,13aGE=PP00PD;c<MdhL66Ov`2<7w,0*13\r
+!AIVDM,1,1,,B,169<l?`31<8K0@DFCNw4QCT`00SC,0*53\r
+!AIVDM,1,1,,B,13nAml00000JAO`Qg`si@@Rb05Ip,0*5D\r
+!AIVDM,1,1,,A,13u>=K00000reQ8Oumm`JJ<b00S@,0*40\r
+!AIVDM,1,1,,B,13oQON00000JCVtQcqie9P0b0@<1,0*0A\r
+!AIVDM,1,1,,A,139O990P1s0HM26Ma:IKUwvVP@<4,0*4F\r
+!AIVDM,1,1,,B,13pr=V0P0011CL:Nn<s@0?vT0<0R,0*77\r
+!AIVDM,1,1,,A,13aDqu@P00PD:u@Mcw`0AOv`R0Ra,0*4E\r
+!AIVDM,1,1,,A,23aEPr@P010Cm?dMEo;VEwvVP@<4,0*75\r
+!AIVDM,1,1,,A,16Lbpp01jU0:LipMNRoQO1D`00Ro,0*66\r
+!AIVDM,1,1,,A,369pWf0P@K8K9idFCCdd4qvb0000,0*60\r
+!AIVDM,1,1,,B,16:=K?P0038Fn1p=DB3IT14`25Ip,0*2D\r
+!AIVDM,1,1,,A,36:8S65001`VdmlERu>;L;8`0000,0*5B\r
+!AIVDM,1,1,,A,144h?l001F8eCmjFBkv4k3nV08;v,0*4A\r
+!AIVDM,1,1,,B,15NCq=0000IT::PA7flW9`fV0@;q,0*55\r
+!AIVDM,1,1,,A,13aDClPP00PH;1fMUNOG2?v`28<5,0*1C\r
+!AIVDM,1,1,,B,4h3OwhQuho;NDISm60A8<@700<9;,0*75\r
+!AIVDM,1,1,,A,15NFNh?P00ITMA:@rDSK>Ovb2<5>,0*46\r
+!AIVDM,1,1,,B,15N7l<PP00IR34:A:RttHwv`0D2l,0*04\r
+!AIVDM,1,1,,A,13Vr@w0000OW75LDc;Q001fV0@;I,0*2F\r
+!AIVDM,1,1,,B,13P<NoP00006Pg8MGgkpE5Nb05Ip,0*15\r
+!AIVDM,1,1,,A,16:BDcP0008K4?PFCT5QVCt`00SR,0*03\r
+!AIVDM,1,1,,A,13`qJhOP020BTD:MMulhgOvH2D66,0*43\r
+!AIVDM,1,1,,A,14RCQn50000A0>pML=n1E1hT0`<5,0*75\r
+!AIVDM,1,1,,A,13aDr6hP00PGRVLMWgBcGgvVR@<6,0*66\r
+!AIVDM,1,1,,A,139Jup0P0110I2TNhI6FCwvR0H:p,0*20\r
+!AIVDM,1,1,,B,13aGsaPP0vPHGhTMW2oIMOv`2@<6,0*54\r
+!AIVDM,1,1,,B,19NWqS002NGGEb8Ccp>c=`rb0<02,0*3B\r
+!AIVDM,1,1,,A,14hW;J002l02rclLwuT9i7lV08;U,0*6D\r
+!AIVDM,1,1,,A,16K2<:wP00ad4h>Clt:<Uwv`0<1k,0*21\r
+!AIVDM,2,1,5,B,56SWoj400003K;SO;3PTp<PDtr0pvs;7J22222001@B2400Ht00000000000,0*20\r
+!AIVDM,2,2,5,B,00000000000,2*22\r
+!AIVDM,1,1,,A,13aBNFPP00PCfwNMd7ePlgv`2H<7,0*04\r
+!AIVDM,1,1,,A,13@nfK@P000rgKpOuPGh0?vP0@;k,0*65\r
+!AIVDM,1,1,,B,139QfuP0000W8PBNafO00EvR05Ip,0*2A\r
+!AIVDM,1,1,,A,13=uIH001s03:;BLn292k2:V25Ip,0*7F\r
+!AIVDM,1,1,,A,402R3a1uho;ND0r;6NP4fri00<2@,0*34\r
+!AIVDM,1,1,,B,16S`?M0P2u93?P4EHWDA<wv`28<2,0*13\r
+!AIVDM,1,1,,B,13aBNc0P1L0GFj2MjDS5lOvV05Ip,0*67\r
+!AIVDM,1,1,,A,13cW`J00120e:crI=H;<mrHb08<6,0*4B\r
+!AIVDM,1,1,,A,133V?v?P@APCR;JMFNuRHQ``20Se,0*19\r
+!AIVDM,1,1,,B,13HNvh?P000FkevHmAMrLOvb28<7,0*13\r
+!AIVDM,1,1,,B,33u=dR0PAQPnQIpQ0oPWjF2R00wh,0*27\r
+!AIVDM,1,1,,B,13uvtJ001T0mE3lPskAMvs<b0D1a,0*03\r
+!AIVDM,1,1,,B,33tssF0thjPn=GvQ0KQjfj6`2000,0*2A\r
+!AIVDM,1,1,,B,169s;bPP007kn4l;BU<dEOv`0@;v,0*0E\r
+!AIVDM,1,1,,,13bo0H0Oh106TlhMRf2EwVj`2@;d,0*68\r
+!AIVDM,1,1,,A,14cPU4001c01>SHLs@1amGrV0<2i,0*71\r
+!AIVDM,1,1,,A,13I;R??00OP2NPfLsvIQ7@<b0@<1,0*54\r
+!AIVDM,1,1,,A,37PD7<001jblQn7jFw2;eID`00lA,0*17\r
+!AIVDM,1,1,,A,16LPE60000aw>J4D<V?k06Db0H;w,0*76\r
+!AIVDM,1,1,,A,36K2:jhP@8awouHDCJjo1rFb00ii,0*21\r
+!AIVDM,1,1,,A,16K2=KP00qawmJpDCEH4ckfb00S5,0*1A\r
+!BSVDM,1,1,,A,D02M45ikTNfr<`N000000000000,2*29\r
+!AIVDM,1,1,,A,33aDor5P1G0GmGRMaDWJf?vV210i,0*54\r
+!AIVDM,1,1,,B,23`ekA@P000CUf@MFW500?vV0D3w,0*5D\r
+!AIVDM,1,1,,A,402V?Hiuho;NDRB<w>JguSG00L0j,0*24\r
+!AIVDM,1,1,,B,15A`Ad0025w?a2lEpk@07P6`00SE,0*5C\r
+!AIVDM,2,1,1,B,55N1Gl000001L@?CC350th5:0h4AV2222222220N1@N,0*5C\r
+!AIVDM,2,2,1,B,0054>004i@E531H8888888888880,2*3E\r
+!AIVDM,1,1,,A,15NK4>gP00G;5phKnGAa1Ovb25Ip,0*5D\r
+!AIVDM,1,1,,A,13`garhP00PLA0hMbBqF;gvNR<18,0*54\r
+!AIVDM,1,1,,A,16:B?rP0008Jr>hFC`WorPl`0<56,0*5E\r
+!AIVDM,1,1,,B,133hn3gP0sPD40DMDh0bmOv`2@<:,0*72\r
+!AIVDM,1,1,,A,33MFDR0Oi>Oj>4TNTv;9?7JV0000,0*12\r
+!AIVDM,1,1,,A,13aDrqhP00PCWCRMdGpC`Ovh20T2,0*67\r
+!AIVDM,1,1,,B,13b>N`0000Q`pphG@=:ohh<V00SH,0*12\r
+!AIVDM,1,1,,,13P7CohP3I06bm4Men`SmOwp0UJ0,0*1E\r
+!AIVDM,1,1,,B,13P<<6OP01OhFA2Nt?k00wv`2<0N,0*32\r
+!AIVDM,1,1,,A,169<pA8000`Js<pFCTndkkRb08<4,0*63\r
+!AIVDM,1,1,,A,1>qc9ww000OkfS@MMI5004RV0@00,0*5F\r
+!AIVDM,1,1,,A,133pFrPP00PDG>DMDDTe;gv`20R?,0*23\r
+!AIVDM,1,1,,A,13m7bt002=0JjBLQiLK8GVbV0`<:,0*0D\r
+!AIVDM,1,1,,A,14eGCrPP00JBLl:HhmE6Jgv`00SA,0*35\r
+!AIVDM,1,1,,B,13aFf@@P00PD??dMd4e00?v`R0RI,0*6E\r
+!AIVDM,1,1,,A,16:B0B`0018K;ovFC1jbCTt`2<5C,0*6C\r
+!AIVDM,1,1,,A,13P<?g@000P>ah0MGmIcVU:T00S3,0*77\r
+!AIVDM,1,1,,A,369q1U002`8VPn<DWLM3kRr`0000,0*3B\r
+!AIVDM,1,1,,A,13@o7vo00vPjVP4Pu`2IbWPb0<19,0*66\r
+!AIVDM,1,1,,A,B3u@sp0000=Mvq8@;P<03wb5kP06,0*27\r
+!AIVDM,1,1,,B,19qQJ@002APjvQ`PuDWU;T>V0@<:,0*1B\r
+!AIVDM,1,1,,A,13`e<5@P00PDBQbMd:ih0?v`2@<<,0*24\r
+!AIVDM,1,1,,A,139ItT0P00PeA@RN`9E0H?v`2H<;,0*0C\r
+!AIVDM,1,1,,B,133qEJgP00PDFG<MDDB@0?v`R8<<,0*48\r
+!AIVDM,1,1,,B,333nU=0P00PD<76MDutP0?v`207i,0*44\r
+!AIVDM,1,1,,A,16LMMP0001awBh0DC<1qMjf`00S>,0*07\r
+!AIVDM,1,1,,A,13RH<R?P00QoaeLEuik6rwvN2@9;,0*00\r
+!AIVDM,1,1,,B,8000000Iv?9uknRbj`acusOAOQ<AnB8egGvCs6i`WP,4*2C\r
+!AIVDM,1,1,,A,33U=Kh1P0021=OHDnjKh0?v@0000,0*6F\r
+!AIVDM,1,1,,A,402Un4P000Htt26n5TDgV`W01l0c,0*40\r
+!AIVDM,1,1,,A,181:Jf10011aaNHEcsdS89vB0p7;,0*24\r
+!AIVDM,1,1,,A,:81:Jf1D02J0,0*0E\r
+!AIVDM,1,1,,B,144eAK05A61p648Ev;AQp1DP0UIp,0*63\r
+!AIVDM,1,1,,B,142LUb@01TR0DBpDp=q3bBpL0L0C,0*30\r
+!AIVDM,1,1,,B,13R2>B?P001p1LlF2Fv00?vR08:R,0*3B\r
+!AIVDM,1,1,,A,142LS=00011pGTbEsNIEkqpR05Ip,0*72\r
+!AIVDM,1,1,,A,8000000Iv77nfN17<NPK9utjvev4oOPIAQA2Pe2ljP,4*04\r
+!AIVDM,1,1,,A,18K2B`001sawmqLD8Sl0008`00RE,0*4C\r
+!AIVDM,1,1,,,33b`7@300FP8<f6MjKPCSir`0000,0*34\r
+!AIVDM,1,1,,A,15Mvvn000UqOMrnBRCKA10bT0@<7,0*1E\r
+!AIVDM,1,1,,A,63aGrPP0UBf206P000,4*66\r
+!AIVDM,1,1,,A,B3prot00@@@DPnWePWj;3waUkP06,0*5D\r
+!AIVDM,1,1,,A,13aDrJhP0JPCPHBMHRpIsgvF2<8U,0*1B\r
+!AIVDM,1,1,,B,13aGs90P18PHDI4NL1j;awvb2<2Q,0*0E\r
+!AIVDM,1,1,,B,13P<N8EP1mOovLFLv7LjbOvT0<04,0*04\r
+!AIVDM,1,1,,A,4h50Ko1uho;NDWL8wp0c@G700@<7,0*25\r
+!AIVDM,1,1,,B,19NRl<O0?w08`I8Rcbw>49Pb0<0O,0*19\r
+!AIVDM,1,1,,A,133tTmgP18PCedBMGibu:wvbRD6l,0*55\r
+!AIVDM,1,1,,B,176sFl0000`:S6D<h?snO3DV00Rq,0*0C\r
+!AIVDM,1,1,,B,16:80wPP1G8:UW8<hFfK9OvV20Ro,0*7F\r
+!AIVDM,1,1,,A,14bEol001@8SW@dD5B`AuA``00Rm,0*77\r
+!AIVDM,1,1,,A,169F<c0P008LTbf=uNldTOvP08D;,0*01\r
+!AIVDM,1,1,,B,B69a7M0002;gKSTBau183wa61P06,0*4A\r
+!AIVDM,1,1,,B,169Dud0P018fLfNA:PS2JJ<N0@;M,0*2B\r
+!AIVDM,1,1,,A,B69Eab@0I27@HB3MWmN1Gwa71P06,0*61\r
+!AIVDM,1,1,,B,338?;p1001`gMiFA79p`5ab`0EK:,0*01\r
+!AIVDM,1,1,,B,16:7=:000089J0d<ns3VL4Lb05Ip,0*19\r
+!AIVDM,1,1,,B,168tdE00018gPo<A4?OtTad`0<37,0*5A\r
+!AIVDM,1,1,,B,102=VjjP?w<tSF0l4Q@>4?wv0t0S,0*52\r
+!AIVDM,1,1,,A,13M@ENh000OdmjrLl`H1O06R08;g,0*52\r
+!AIVDM,1,1,,B,33OjLf0OiCOdu62LjNUUoTjV0000,0*4A\r
+!AIVDM,1,1,,,13`e??gP00PIa6:N8N<@0?v`20T;,0*13\r
+!AIVDM,1,1,,B,13iHfh0000P>`:4MHBSWHWJ`0<5a,0*26\r
+!AIVDM,1,1,,B,13P:`ih000OjA>HNTd?:u`Db0D10,0*33\r
+!AIVDM,1,1,,A,168sUj00018K<I6FCAi=tF<b08<9,0*15\r
+!AIVDM,1,1,,,19NWqD@02`073THM`Q:p36JV0@<?,0*15\r
+!AIVDM,2,1,9,B,5387WP02>P9p?@qK:21Lm>0M8tpTpLDr22222216>`<;;4nGs>lSm51DQ0CH,0*05\r
+!AIVDM,2,2,9,B,88888888880,2*2E\r
+!AIVDM,1,1,,B,33F;U:3Oh9PKAwdO5OG3sCdV0000,0*10\r
+!AIVDM,1,1,,B,402E34Quho;NDPL;CNNVEEG00D0o,0*2D\r
+!AIVDM,1,1,,B,133u=MPP00PCNENMF?bB6wv`25Ip,0*3A\r
+!AIVDM,1,1,,A,168sJEP001`K038FCHarvVjV0@<:,0*20\r
+!AIVDM,1,1,,A,23@QU<000FPCRrfMFc``1Vhb0@<A,0*74\r
+!AIVDM,1,1,,A,16KPcVP02qabdVPCjC?S=2TT00S1,0*26\r
+!AIVDM,1,1,,A,15DnAB002B0bRMlI1SNa@WJR0<0s,0*1E\r
+!AIVDM,1,1,,A,13aDCnhP00PD3>jMgUOh=?v`25Ip,0*15\r
+!AIVDM,1,1,,A,139dL2UP0lPK9NJMBVcpTOv`25Ip,0*01\r
+!AIVDM,1,1,,A,4028nBQuho;N;wRP`dE1HUG000S:,0*6F\r
+!AIVDM,1,1,,A,D028nBAn`BfpIiJ02<`r006@J00,2*17\r
+!AIVDM,1,1,,A,E000Ws2S0a7h22h;0V2W1TPP000OwCfO;BELh1088;jP2P0,2*07\r
+!AIVDM,1,1,,A,1000@rgP00OvOEBFTlb9iOw`20Sa,0*77\r
+!AIVDM,1,1,,A,4028rqAuho;Mj<tSF0l4Q@7000S:,0*4E\r
+!AIVDM,1,1,,A,13EjtNPP00OvO<VFU6QbG?w`0<1B,0*2B\r
+!AIVDM,1,1,,A,D028rqP`0NfpSuNfpb<NfphLNfp,2*05\r
+!AIVDM,1,1,,A,10QohMwP01JduBFG?MEsMww22@CH,0*40\r
+!AIVDM,1,1,,B,4030p<iuho;NDTRjFPIMqkG00L0I,0*52\r
+!AIVDM,1,1,,A,13Ea5>PP01OvT2jFU79<0gwd0<1g,0*00\r
+!AIVDM,1,1,,B,13atFN00000F>HLMaef;@GPb25Ip,0*69\r
+!AIVDM,1,1,,B,13M@G0P00H05mB`NoW4<HajV05Ip,0*58\r
+!AIVDM,1,1,,B,13aFdK`P1QPCjCdMdLSrQwvb20S3,0*35\r
+!AIVDM,1,1,,A,13UPFd0021PjJ6bPwWcU?DDT0h<A,0*2C\r
+!AIVDM,1,1,,B,13aBMsO000PCP8vMFMw<O16`0UIp,0*31\r
+!AIVDM,1,1,,B,13aFgkhP02PChtTMG`;@Owv`R5Ip,0*0C\r
+!AIVDM,2,1,0,A,54WW<802@FET?IM?J20P598TE:22222222222216A8;6A4oWN=2T83Qkp8888888,0*54\r
+!AIVDM,2,2,0,A,8888880,2*24\r
+!AIVDM,1,1,,A,B7P9UG0002e5BDLUlMh03wb5oP06,0*36\r
+!AIVDM,1,1,,A,133n=JPP01PD;?BMDRH19?v`0@<B,0*61\r
+!AIVDM,1,1,,B,34WLTL50010i>62RAP@q@A0b0000,0*67\r
+!AIVDM,1,1,,A,15NJ<f0P05JdmS<Fdo5at?vb05Ip,0*4F\r
+!AIVDM,1,1,,A,402E34iuho;NDPGoPJNQwwG005Ip,0*4E\r
+!AIVDM,1,1,,B,13aISr30020G>8hNQ7sdbHb>00S;,0*17\r
+!AIVDM,1,1,,A,15S`H400000Gq>rNR<kJNVPN20Rf,0*16\r
+!AIVDM,1,1,,A,3399303P@3PEri<NK2IC0U4T0Pw@,0*68\r
+!AIVDM,1,1,,A,13m7C700000JAvTQgWM79C2V08<A,0*63\r
+!AIVDM,1,1,,A,601uEOJGLmk0048100,4*10\r
+!AIVDM,1,1,,A,13a8FF000000d@VLCeTJbGFV0<1P,0*23\r
+!AIVDM,1,1,,A,13aI8nJP11PH8S2Mab2k0Ov`2H<C,0*7A\r
+!AIVDM,1,1,,A,33GR895P00P0e:VLD;7TAgv`2E7:,0*24\r
+!AIVDM,1,1,,B,14`WW;000fPGPrvQb5LkERdV08:l,0*34\r
+!AIVDM,1,1,,B,33mHNO001V0H5aTQm9?K0ph`01:0,0*2C\r
+!AIVDM,1,1,,B,14`Vhp01jJOD4<dE6Cn6VUDb08<B,0*73\r
+!AIVDM,1,1,,A,169`K7PP1D7kUb>;GH27nnRV0D0k,0*3E\r
+!AIVDM,1,1,,A,13aFfF@P00PCa@@Md4k00?v`R<7I,0*0E\r
+!AIVDM,1,1,,B,239VBhP0000CT08MH:qSG4rJ00RN,0*64\r
+!AIVDM,1,1,,A,13aENO@P15PCpenMEsFMEOvVRD7u,0*73\r
+!AIVDM,1,1,,A,15NFUFgP06ISE<jF:sU1HOv`0@<B,0*75\r
+!AIVDM,1,1,,A,13aGuW0P00PD?qNMbQcsogvbR5Ip,0*78\r
+!AIVDM,1,1,,A,13uB7g?P0b1Bm1`QtPKaN?vb0@<E,0*02\r
+!AIVDM,1,1,,B,1CR7lp?P00QcoIFEf:Hh0?v`0000,0*33\r
+!AIVDM,1,1,,A,169>QHPP008Vj<PERuCL@Ovb05Ip,0*1D\r
+!AIVDM,1,1,,A,19NWvQh001`ba9vB8BPLmaBF08:c,0*18\r
+!AIVDM,1,1,,B,13aGurPP000H=stMd6MnVww<2<2a,0*4F\r
+!AIVDM,1,1,,B,16:fN1?P00`7BQb==V=00?vT0D00,0*4A\r
+!AIVDM,1,1,,A,168rO00P008dF2>ApWk@0?vT28:l,0*5E\r
+!AIVDM,1,1,,B,14`afE5P0087L4l==O?c:?vR0p:n,0*5A\r
+!AIVDM,1,1,,A,16:BO>`P008dl9@Av58LcOvR0<KU,0*3D\r
+!AIVDM,1,1,,A,139G9F002;8hmtPAh0C6wUjRHD>5,0*44\r
+!AIVDM,1,1,,A,16:=?J00018dqn8AtTNTIqWp00S?,0*21\r
+!AIVDM,1,1,,B,168uudg00S87Nat=<b3;f9RT0<6N,0*58\r
+!AIVDM,1,1,,B,B6:jv500021qI53Bu:fm?wWSQP06,0*02\r
+!AIVDM,1,1,,A,169FRqP01G8i05TAukA01@0V05Ip,0*6E\r
+!AIVDM,1,1,,B,13ru:482@OOE9t`F3MJ6b50V0D0`,0*5D\r
+!AIVDM,1,1,,A,4000=:Auho;NDwF8;fF8kDo00<0j,0*2B\r
+!AIVDM,1,1,,B,169G:gPP?w<tSF0l4Q@>402V0h;J,0*1A\r
+!AIVDM,1,1,,A,169@<JPP1=8d7QPAwQRd;gvV0H;P,0*76\r
+!AIVDM,1,1,,B,169@=0001F8PJ>v>:ar1mB>V0l3t,0*31\r
+!AIVDM,1,1,,A,168uC<P000`eRB@Atfl==:L`0@;Q,0*15\r
+!AIVDM,1,1,,A,169NRg001E8dOe<AuQClckV`0ver,0*78\r
+!AIVDM,1,1,,B,133c0b00000C`ndME@ut8Hh`0L9v,0*3E\r
+!AIVDM,1,1,,A,4028jF1uho;NCOo=5vHiF?700D1;,0*0E\r
+!AIVDM,1,1,,B,16?UgFPP0087NJD==HWP0OvV08;M,0*48\r
+!AIVDM,1,1,,A,16:Cgv8P1>8dMslAqB28LOvT00SG,0*6D\r
+!AIVDM,1,1,,B,15Mwaq0P0fItvidFGkqSJOvb05Ip,0*1E\r
+!AIVDM,1,1,,B,403tDFiuho;NB<tSF0l4Q@000hEF,0*37\r
+!AIVDM,1,1,,B,B69Dqa@0Ar8<g03R`S8HOwaRP<00,0*69\r
+!AIVDM,1,1,,B,33P<W00Oh1wh1`dNsM9dn`D`2000,0*27\r
+!AIVDM,1,1,,A,18Jh6T002I8gpK0Ajwe4JSNV0@;d,0*63\r
+!AIVDM,1,1,,A,E>l5A0L9T2W@9T:Th70W@54RhL@DF0sb8wuU`00003v010,4*61\r
+!AIVDM,1,1,,B,169G;p0P028;6IT<rHb7dgvVP8;c,0*1D\r
+!AIVDM,1,1,,B,16:F3I8P008JtpRFBUAHiOvV0d5K,0*1C\r
+!AIVDM,1,1,,B,B6:fM<h0@:1cpd3CUdJQgwb2P0S9,0*08\r
+!AIVDM,2,1,5,A,55CdFl02=Uq<Q1LB220<PTu>1A8TpUAV22222216DhH@@4k<0LSQEp3lS1@CTp5D,0*19\r
+!AIVDM,2,2,5,A,hH88880,2*01\r
+!AIVDM,1,1,,A,16TG@V0P1=8d<u2AtEud;wvT0<?L,0*1F\r
+!AIVDM,1,1,,A,16:UwMhP008dN48Aq`Hh0?vV40;b,0*50\r
+!AIVDM,1,1,,A,13aIgsPP00PDphrMduN00?vb28<E,0*2C\r
+!AIVDM,1,1,,A,169DinP0008LBuLF@o=V=0Qp08<?,0*11\r
+!AIVDM,1,1,,B,16SWVNP00093P;:EKNSP05n`2@<8,0*3B\r
+!AIVDM,1,1,,B,133oSFPP00PD>D0MDN?V3?vR2@<F,0*3E\r
+!AIVDM,1,1,,B,13u=tD4000Pr56<P4JldPWp`08<4,0*77\r
+!AIVDM,1,1,,A,13a9980OhA0=KqVMCtb=h@2b08<F,0*65\r
+!AIVDM,1,1,,B,144aon001G1EpdfO<rukc2r`0@<F,0*52\r
+!AIVDM,1,1,,A,133sehgP000CvMpMEqS<9gvdPPRl,0*02\r
+!AIVDM,1,1,,A,368sU`000N8K<=TFC9:4<STb0000,0*6E\r
+!AIVDM,1,1,,B,13u?j?P000Pr4o4P4LWcJU4`2<12,0*4F\r
+!AIVDM,1,1,,A,18M7Qv00008Rj=4CpI5P2PvR08;m,0*7C\r
+!AIVDM,1,1,,B,B69GPP00A22bt=3<7?BI7waV1P06,0*59\r
+!AIVDM,1,1,,B,176t5d001<8:RSh<hAE4GkL`05Ip,0*0E\r
+!AIVDM,1,1,,B,177=EV003?`:QDn<hHMkQ2d`05Ip,0*76\r
+!AIVDM,1,1,,B,169ULn0P1j7pIW`;RvKauovT0PS6,0*66\r
+!AIVDM,1,1,,B,16:GAQ002;7pe`2;PPT@@@2`0@;l,0*6C\r
+!AIVDM,1,1,,A,D03t=KAQdNfp00N01b0v01pE>fp,2*3A\r
+!AIVDM,1,1,,A,15W`;:50008dpeDAuRKSDaNb0eKp,0*05\r
+!AIVDM,1,1,,A,403t=M1uho;NC`dE5@ApTao005Ip,0*33\r
+!AIVDM,1,1,,A,16:>CH8P008ckALB0K8v4?vV0F2n,0*0D\r
+!AIVDM,1,1,,A,169>`d30008dDapAsud18nv`2<7r,0*31\r
+!AIVDM,1,1,,B,16:Cp;0P008:w`N<rJ?VT?vaJ<1d,0*19\r
+!AIVDM,1,1,,A,13aI9W0P00PD4;TMDdJh0?vb28<G,0*68\r
+!AIVDM,1,1,,A,140UtJPP1cPH<r8MakIIegv`R8<G,0*06\r
+!AIVDM,1,1,,B,33aDpf5P00PDHnPMd8Iqsgvb2E?r,0*02\r
+!AIVDM,1,1,,B,13u=TcgP011BhsjQtdjnD?vV08;j,0*2B\r
+!AIVDM,1,1,,A,14RQDb5001P5wV0MfWU;K9PV08<B,0*66\r
+!AIVDM,1,1,,A,13@oa4CP0006Og<MRNUPN?vb00Sh,0*55\r
+!AIVDM,1,1,,A,16K8Dj?002awCjnDB<6Jp9N`25Ipcosv@h,0*1E\r
+!AIVDM,1,1,,B,23`spfwP00PCTtpMGwI90Ovb2<:`,0*77\r
+!AIVDM,1,1,,A,33EplEaPC8Oe:N>E0bs:EH6b00S1,0*75\r
+!AIVDM,1,1,,A,4h2=aAAuho;NCOwVU:Nuo;i00<1i,0*33\r
+!AIVDM,1,1,,A,3344Ib06P@P<anLMHjCb3Ad`00th,0*10\r
+!AIVDM,1,1,,A,133loNPP00PD<sPMe4V:SgvV00Rs,0*14\r
+!AIVDM,1,1,,B,233vr3gP1gPCjUtMEth@SOvbR5Ip,0*1B\r
+!AIVDM,1,1,,A,15ECd6002no;avpL=?KRU26V08;v,0*0C\r
+!AIVDM,1,1,,A,14eGLu@P00G<lMTL=Gw;jgv`0H<4,0*37\r
+!AIVDM,1,1,,A,403OtKQuho;NDre6ORFu4rg02<4@,0*17\r
+!AIVDM,3,1,5,A,36KVnDh02wawaHPDA8T8h6tT8000t=AV=maD7?>BWiKIE@TR<2QfvaAF1ST4H31B,0*35\r
+!AIVDM,3,2,5,A,8IBP:UFW<M0FVWS0DPK19@nh4UdS:OufWUIfPF5l1U9LILBn@9@F:41Q@U1EEOE3,0*1D\r
+!AIVDM,3,3,5,A,j,0*79\r
+!AIVDM,2,1,1,B,54SLIr02:@reK88CD004pp60L000000000000016;P9?34og0?AiE1@S,0*7A\r
+!AIVDM,2,2,1,B,lQh000000000000,2*43\r
+!AIVDM,1,1,,A,139NRgP000PW:jTNaK@nT0rT0D1h,0*20\r
+!AIVDM,1,1,,B,140UtAhP000Rgv4K>hBWbgv4PH<J,0*2E\r
+!AIVDM,1,1,,B,13aDr2hP3U0D@dpMdf?:;OvV0D9a,0*0E\r
+!AIVDM,1,1,,A,13aEP;OP1H0CHfTMKBo=jwvTP`2=,0*12\r
+!AIVDM,1,1,,A,402OSE1uho;ND1I2MlO7ai1008<I,0*5C\r
+!AIVDM,2,1,5,B,55Mv`CP00001L@;WGW<h4AV0lT@LF2222222220O18=564@P08mklRjCQp1S,0*2B\r
+!AIVDM,2,2,5,B,1AE4p3;SKTP,2*77\r
+!AIVDM,1,1,,B,15NGW;0P00ITLCPA;P7qw?v`08<8,0*58\r
+!AIVDM,1,1,,A,15NBATP001ISEGhA0j@L?1Hb0L4v,0*27\r
+!AIVDM,2,1,6,A,55NDCn0294T5L@G?7;98u=>1<D6222222222220O1@D554j<0<SQEp3lS1@C,0*35\r
+!AIVDM,2,2,6,A,Tp888888880,2*06\r
+!AIVDM,1,1,,B,16:BGs80018VOfBDbD6jEmbar@<C,0*3A\r
+!AIVDM,1,1,,B,35NKeG0vAdo<P>hERoA:S8L`0PoA,0*38\r
+!AIVDM,1,1,,A,14``Dp00012>4OqfqgIQLQ`b08<C,0*10\r
+!AIVDM,1,1,,B,139HhvPP1V0I7Q2Md?HJj?vVP0Sc,0*33\r
+!AIVDM,1,1,,A,4@2OV41uho;NC12gURNpnui00D10,0*52\r
+!AIVDM,1,1,,B,13n;0D002=0J;UPQguq5PTNV00S?,0*3A\r
+!AIVDM,1,1,,B,13P;O7wP00wdn?rLlT2kP?wl2<0B,0*06\r
+!AIVDM,2,1,6,A,53Oi>V028StdL<ub2221L59<PU21=E@PE8h4pB0S4aP9700Ht>h00000,0*75\r
+!AIVDM,2,2,6,A,000000000000000,2*22\r
+!AIVDM,1,1,,B,91b55vRAirOn<94M097lV@@20<6=,0*5D\r
+!AIVDM,1,1,,A,15Mv:g0P01ISPrjF=tC:Bwvb08<H,0*5C\r
+!AIVDM,1,1,,A,404757Quho;NC9wdLJD;;HG00@;fbjSv>@,0*1F\r
+!AIVDM,1,1,,A,402R3K1uho;ND1@bDTQplpA00<1I,0*73\r
+!AIVDM,1,1,,B,13aGu1wP1DPKHN@MCr;pV?vb25Ip,0*3E\r
+!AIVDM,1,1,,A,403rCpQuho;NDPHvipMdA@G005Ip,0*56\r
+!AIVDM,1,1,,A,4047581uho;NC:0IUhDHEQW00@;huh;v>@,0*55\r
+!AIVDM,1,1,,A,13uRcl00000ngClQ1W5P7PTb0D1N,0*12\r
+!AIVDM,1,1,,A,139a=`PP000W:PjNaMLh0?vV05Ip,0*13\r
+!AIVDM,1,1,,A,16K2=3h000awBJ8DB:Es69Rb08<@,0*69\r
+!AIVDM,1,1,,A,16K2<4P000awMObDCJCh01T`0<3g,0*4D\r
+!AIVDM,1,1,,A,13aFecPP00PDK04MdtCEBgv`2<3w,0*7C\r
+!AIVDM,1,1,,A,35SLR@5000awSQ<DCeJ5PQvV0000,0*3C\r
+!AIVDM,1,1,,A,140Uu>00000Ch7hMGH01PJPd00SS,0*24\r
+!AIVDM,1,1,,A,402E3:0000HttPGEahN7pi701p<K,0*1E\r
+!AIVDM,1,1,,B,169<vSPP008JqutFClnHagvb05Ip,0*61\r
+!AIVDM,1,1,,A,4025boiuho;ND0qgK<OodKW00@<L,0*3B\r
+!AIVDM,1,1,,A,13`hK6000@wWvaHDSs9;8W>`0@;`,0*22\r
+!AIVDM,1,1,,B,13aDrnPP0iPD:>PMdEMcNOv`R8<K,0*4F\r
+!AIVDM,1,1,,B,14QsuE@001PBgi4MfvTIpq<d0@<L,0*72\r
+!AIVDM,1,1,,B,133t8ePP000CaJ8MHKR<Wgv`0<6K,0*2A\r
+!AIVDM,1,1,,B,13aEPAPP00PDGR8MDF:3fOvb20Sh,0*69\r
+!AIVDM,1,1,,B,13cbA`001V0di?bI8=gck9LV08<J,0*7E\r
+!AIVDM,1,1,,B,13aGEAHP0i0Las:MalU4WOvrR5Ip,0*73\r
+!AIVDM,1,1,,A,148S9h002wP79vPNDgomj4jT00SA,0*39\r
+!AIVDM,1,1,,A,13HRl;gP0000nvJLDTQAoOvb0@<F,0*7E\r
+!AIVDM,1,1,,B,33aEOSUP000Hj;lNKLSb>wvd2Dtr,0*0E\r
+!AIVDM,1,1,,B,138fSd001n0r>J`P0n?e0bNV0D1B,0*5E\r
+!AIVDM,1,1,,A,133pkKPP00PG7@VM`qw3R?v`R8<M,0*09\r
+!AIVDM,1,1,,A,4h2=aS1uho;NCOucgRO851A00<1b,0*03\r
+!AIVDM,1,1,,B,13aDq0hP00PChlbMd>upGgv`25Ip,0*14\r
+!AIVDM,1,1,,B,133tnkPP00PCrO4MEd1dJOvb25Ip,0*69\r
+!AIVDM,1,1,,A,36:=K:00008K1TnFCcWJtUbb20wP,0*52\r
+!AIVDM,1,1,,A,1CU0vp0P1Q1cV>4EcJ9jCOvR0000,0*2E\r
+!AIVDM,1,1,,B,33@<UL50008VA6dDVeJ`cFt`0000,0*54\r
+!AIVDM,1,1,,A,15?Hul001JG<IShL=bs;p9T`0t30,0*5F\r
+!AIVDM,1,1,,A,14eGmkg03oG;fjdL6mlaAWFb0<2q,0*7F\r
+!AIVDM,1,1,,B,100000?P00sLkG<IU9j<c?v`05Ip,0*61\r
+!AIVDM,1,1,,B,33aJH9UP0sPGwRPMgscKWgvb2C5k,0*21\r
+!AIVDM,2,1,0,A,802R5Ph0BkHgL@PCQ:GaOwwwwwwwwwww2k8wwwwwwwwwwwwwwwwwwwww,0*3A\r
+!AIVDM,2,2,0,A,wwt,2*60\r
+!AIVDM,1,1,,A,139dRBPP00PCmlLMEJOh0?v`R8<N,0*53\r
+!AIVDM,1,1,,A,35Mt<8POi0Jdq?BGAHFLQb@d0000,0*2A\r
+!AIVDM,1,1,,B,14Re:N002WOE9RTDv:Q5FT@`0H<M,0*64\r
+!AIVDM,1,1,,B,169ULfPP007kcqh;BfLc8oV`05Ip,0*2F\r
+!AIVDM,1,1,,A,15@fNN02BO0mbfJP`rauB:Tb08<?,0*0B\r
+!AIVDM,1,1,,B,1CU@CF0P011cgRFEhqS1BOv`0000,0*22\r
+!AIVDM,1,1,,A,13aDoRhP010D7NTMEBItPwvHR0SA,0*42\r
+!AIVDM,1,1,,A,13u?H>SP000pF>DQItF@0?v`08<K,0*6B\r
+!AIVDM,1,1,,A,36K2;U@026abMF0CjHKBTQdb2000,0*11\r
+!AIVDM,1,1,,B,13aDCnhP00PD3>VMgUOh=?vD20S9,0*58\r
+!AIVDM,1,1,,B,33aMeR50000COkdMkoh:7lvF0000,0*78\r
+!AIVDM,1,1,,B,402E35Quho;N;PCOD8Mki0G00<4E,0*68\r
+!AIVDM,1,1,,A,13aFh60P000EN`8Mh=;t7OvfP0Rm,0*3E\r
+!AIVDM,1,1,,B,63anGb00U@oL06P080,4*56\r
+!AIVDM,1,1,,B,64TCa400UBf006P0@0,4*36\r
+!AIVDM,1,1,,B,13aJFhhP0nPInC>MdRHD3OvJ2886,0*7D\r
+!AIVDM,1,1,,B,13aEOj0P00PBNlRMepbm2wvL20S2,0*6F\r
+!AIVDM,1,1,,B,13eP8V00000Ba18Mflo0`3`J0H8a,0*26\r
+!AIVDM,1,1,,A,169E5iP00F8LM1R=v3kpDWRb08;s,0*4D\r
+!AIVDM,1,1,,B,169GG?PP00`9KMd<o;Aq9?v`2H<1,0*20\r
+!AIVDM,1,1,,A,403t?iiuho;NC`LDo0=wap700@<0,0*09\r
+!AIVDM,1,1,,B,16:OM<DP008ft9dA<1Al;gvV0D4S,0*4B\r
+!AIVDM,2,1,0,B,56Sgq402:>f8A<Q3D004h<4q@58400000000000`48w7740000000000,0*24\r
+!AIVDM,2,2,0,B,000000000000000,2*27\r
+!AIVDM,1,1,,B,133g>9PP00PCS5nMEBB9ewvd2H<O,0*57\r
+!AIVDM,1,1,,A,36K2:jhP@8awouHDCJjo1rFb00iiAQOvQD,0*1D\r
+!AIVDM,1,1,,A,15BhjD00000CocTMGWFHwBRb05Ip,0*67\r
+!AIVDM,1,1,,A,13aJFf0P00PCfgtMcaP00?vb25Ip,0*23\r
+!AIVDM,1,1,,B,15MwQW0P0aG?pVvK?;9Twgvd08<M,0*5D\r
+!AIVDM,1,1,,B,16::12PP?w<tSF0l4Q@>4?wv0UIp,0*25\r
+!AIVDM,1,1,,A,16K2;5@001awHw4DB2E4lS`b05Ip,0*7E\r
+!AIVDM,1,1,,B,1E@09`0P001coqfEf;1hkwvb0000,0*7B\r
+!AIVDM,1,1,,B,13bB<r7P0jP=qmJM`HkQ?Ovb25Ip,0*4A\r
+!AIVDM,1,1,,B,133q`tWP00PD<wnMDGOqtwvdRD7J,0*4D\r
+!AIVDM,1,1,,A,13AiVB3008Q1KVnNne5rc`hb00SE,0*1D\r
+!AIVDM,1,1,,A,16K2;Kh01GawtU@DG1:dP:0T00S?,0*7F\r
+!AIVDM,1,1,,A,13aDpvhP00PChtLMd=BefgvbR0Rl,0*06\r
+!AIVDM,1,1,,A,16K2;kh028awLSvD@<NHko6b0<6:,0*4B\r
+!AIVDM,1,1,,B,13P;c>@000ONi0LOOfWJBAJJ0<04,0*05\r
+!AIVDM,1,1,,A,402M3UAuho;ND0JioPQS=p700D1o,0*77\r
+!AIVDM,1,1,,B,15NGI>PP01ITHgJA7Iqnk?vb2L5D,0*49\r
+!AIVDM,1,1,,A,15N0Bm0P00ISwrvA8E<:qOvb20Si,0*52\r
+!AIVDM,1,1,,B,15N9W2dP01ISGJHA7aUu=wvb05Ip,0*0C\r
+!AIVDM,1,1,,B,15N2JOPP00qT772A7F6de?vb0D2T,0*71\r
+!AIVDM,1,1,,B,15NDDFgP00ISnu>A;f;bGgv`0H<G,0*51\r
+!AIVDM,1,1,,B,15Mv4mPP00ISLaLA7=f<Bgv`0L3g,0*32\r
+!AIVDM,1,1,,A,15MwN@0P00IRQK0A8;<L8?vb05Ip,0*5A\r
+!AIVDM,1,1,,B,15NLq9?P00ITDu8A7b8bQgvb0<1>,0*7F\r
+!AIVDM,1,1,,B,15Mv1`gP00qRs<dA<8GIt?vb2H<J,0*6C\r
+!AIVDM,1,1,,B,15NIR@PP00ISc<<A6H:cuwvb0<5f,0*62\r
+!AIVDM,1,1,,B,15NLp0PP00ISfMvA7joL>Ovb08<M,0*07\r
+!AIVDM,1,1,,A,402PeD1uho;NCOF:<`EwUOi000S:,0*63\r
+!AIVDM,1,1,,A,133m@ogP00PD;6VMD5MP0?vb2L76,0*68\r
+!AIVDM,1,1,,A,13aGFW?P00PD>@LMdsl00?vbR8<R,0*43\r
+!AIVDM,1,1,,A,4h3OwmQuho;NDo56IhKcvE700l0?,0*0C\r
+!AIVDM,1,1,,A,133pdjPP00PCqQfMEAqEtwvbR@<S,0*2B\r
+!AIVDM,1,1,,A,139Lb2P02Rvg;Nf6h38>1s:R00Rt,0*64\r
+!AIVDM,2,1,0,A,55AwF@02:Tl?<H4wP00<51@4Tr0ltdDEH0000016;haA14pW0@k0Aklh00000000,0*71\r
+!AIVDM,2,2,0,A,0000003,2*27\r
+!AIVDM,1,1,,B,4h3Ovjiuho;NEo?unvK>gv700@<P,0*70\r
+!AIVDM,1,1,,A,19NSC`m03=0K?G`NeOT2l2:T00Rp,0*30\r
+!AIVDM,1,1,,A,139Qo=00000LHILNShlaI3vd00Rk,0*06\r
+!AIVDM,1,1,,A,13aGFRwP000HnmdNKlWmo?vd0H<S,0*28\r
+!AIVDM,1,1,,A,33pr?KSOhH12jEPNUNm0gPnb01A0,0*53\r
+!AIVDM,1,1,,A,13aENb0P00PH5hnMd0n00?vb20SA,0*2B\r
+!AIVDM,1,1,,A,33IT?;?00N03KF8LwlU<v9jb0000,0*01\r
+!AIVDM,1,1,,B,133gcLg0000CjD4MG2:uebb`08<T,0*70\r
+!AIVDM,1,1,,B,15MsfO0000rrhcBH?7<Fs`dd08<L,0*2E\r
+!AIVDM,1,1,,A,13aGu=<P09PD8pTMcsOM4gvdR8<T,0*3B\r
+!AIVDM,1,1,,A,15MwDwPP5dJe7?:G@pIHMOvd28<N,0*79\r
+!AIVDM,1,1,,A,133gKlPP00PD2TLMDt?h0?vb2@<T,0*42\r
+!AIVDM,1,1,,A,15MlIMPP00JeHedGD5UtCOvd2000,0*6A\r
+!AIVDM,1,1,,A,13aGFROP000Hns>NKkoqjgvd00RR,0*3D\r
+!AIVDM,1,1,,B,139>RE00000eFhpNaD2h001l08<T,0*30\r
+!AIVDM,1,1,,B,33`gl20OiNPGw3lNPeRclqlV00tA,0*43\r
+!AIVDM,1,1,,A,13aGDhwP00PH:VnN9L2lB?vN20SW,0*35\r
+!AIVDM,1,1,,A,15E40<1P16`VcsDERQoCFOv`25Ip,0*10\r
+!AIVDM,1,1,,A,169>QdP0008cVMTEOFObmof`00ST,0*05\r
+!AIVDM,1,1,,A,4020rSAuho;NDPWAg2N``ao005Ip,0*5C\r
+!AIVDM,1,1,,A,16:GG@`0008cW<@EOV<h5s8`0@<6,0*17\r
+!AIVDM,1,1,,B,169JG50P2BWp58j;Pg?6P58`0<1o,0*19\r
+!AIVDM,1,1,,A,13aGFuHP13PII6LN69TI>wvb20Sq,0*20\r
+!AIVDM,1,1,,B,16:CqdP0008:KGh<hmg5ARmp05Ip,0*11\r
+!AIVDM,1,1,,A,16:>DgPP008VU@@BAbtQ@?wT0@Nn,0*75\r
+!AIVDM,1,1,,A,16:V18@P0o8UIrnBBc1DMwvH407d,0*76\r
+!AIVDM,1,1,,A,169lu<8P008VaGLBAn<N1gwd2D5?,0*77\r
+!AIVDM,1,1,,A,14QCgl0000G?jd8K@EPHoP8d0D1e,0*61\r
+!AIVDM,1,1,,A,169JGe001H8UHNfBC1NKj9NL0L7T,0*7F\r
+!AIVDM,1,1,,A,16:ei@9P008UBmNBBjK0awvN0<01,0*00\r
+!AIVDM,1,1,,A,16:=ShPP008VtHLBD92=1?vN2D54,0*72\r
+!AIVDM,1,1,,A,1697TV00008Vuq8BC7e1dB@P20Sq,0*0B\r
+!AIVDM,2,1,0,A,5697TV000000a<m<400P4V1QDr33SOT00000000o0hH12400034hAQDj,0*27\r
+!AIVDM,2,2,0,A,2D2CQh000000000,2*1A\r
+!AIVDM,1,1,,A,1775nd001l8VRO<BAkl2Q23j0HQr,0*6D\r
+!AIVDM,1,1,,A,169L6BP01I8ViJ:BBOPRJ2NR20Sb,0*55\r
+!AIVDM,1,1,,A,16:d8LPP008Uf:RBAfqHAOvV0<01,0*17\r
+!AIVDM,1,1,,A,16:d9>@P028VkC0BB>L3G?wn28S2,0*57\r
+!AIVDM,1,1,,A,16:=<c0P008V50FBA8S@bwvT0<31,0*25\r
+!AIVDM,1,1,,A,36:a@U0P0M8VIM0BAiW4mOv202vi,0*58\r
+!AIVDM,1,1,,A,177hn@0000`Vwi@BBRM:j:p4081b,0*53\r
+!AIVDM,1,1,,A,1CTgiD00011cd9:EhdjT0;4T0000,0*62\r
+!AIVDM,1,1,,A,13M@Gw001twwvr@LCL4ToCrb25Ip,0*39\r
+!AIVDM,1,1,,B,15S@E00vj0wsclhM0=hM?bN`0000,0*2E\r
+!AIVDM,1,1,,A,13IVvu0P0100VrhLCmeA@wv`05Ip,0*4E\r
+!AIVDM,1,1,,B,13m3V00P1f0OfT@GAjp5t?wj0l0;,0*0D\r
+!AIVDM,1,1,,A,13cb9K00?w0R>HHHLbw>42F00<0G,0*67\r
+!AIVDM,1,1,,A,33GR1P5P00P0djDLD>S@0?vb2DUJ,0*4A\r
+!AIVDM,1,1,,B,13P;nR?0P00Sb`8I4afqpbp008S2,0*76\r
+!AIVDM,1,1,,B,33cjSD003V0`684G`W9SRjoj0PWi,0*4D\r
+!AIVDM,1,1,,A,1819kE@P000QU<hI0Wfb:wv008S7,0*34\r
+!AIVDM,1,1,,B,14hRFl0P000P7U4HrjkHUOwn0@RS,0*67\r
+!AIVDM,1,1,,A,13IRbI?P0NP33qPLwv28h?w00`G1,0*05\r
+!AIVDM,1,1,,A,15N:<P002n02EtTLv7Ian7r`0H<<,0*17\r
+!AIVDM,1,1,,B,23aFeIPP1RPCRUTMH>hdogvb2000,0*25\r
+!AIVDM,1,1,,A,15NIf1?000qrs80F<3@<1Abd0<04,0*4E\r
+!AIVDM,1,1,,A,4h3Ovk1uho;NCo>jPHEdjdW008;l,0*5A\r
+!AIVDM,1,1,,A,1>qc9ww000OkfS@MMI5004R`00SK,0*01\r
+!AIVDM,1,1,,B,139g5i0P00PCrMtME<LmpgvbR0S5,0*0F\r
+!AIVDM,2,1,9,A,5569ip01u;FIK@4O:205`uJ1A84@E:2222222216=hB<86@d0;4iEPDm3l3k,0*40\r
+!AIVDM,2,2,9,A,88888888888,2*25\r
+!AIVDM,1,1,,A,13GR@WPP00PA1lnHmaL00?v`R5Ip,0*7B\r
+!AIVDM,1,1,,A,16:=:T0k00WkuCD;B6jEm?vF40<L,0*2B\r
+!AIVDM,1,1,,A,13aibp001a03<<hM0f59EWLb08<C,0*59\r
+!AIVDM,1,1,,B,13P9;=h001Oj@RfNTMiQ82bb0<0w,0*6E\r
+!AIVDM,1,1,,B,23L?MH001SP>R1HMIOuC0jHb00S;,0*10\r
+!AIVDM,1,1,,2,13`soI0P00PAIoVMCOj27?vb2H<`,0*40\r
+!AIVDM,1,1,,A,13@RSd002AwD2E>Eb@t=VJpb05Ip,0*14\r
+!AIVDM,1,1,,A,13aFh30P00PFE1<MaF9amwvd2@<`,0*72\r
+!AIVDM,1,1,,A,139eb`P000PCVjBMHqw@032bR5Ip,0*39\r
+!AIVDM,1,1,,A,15NN=5P01Lriv1RG?lp2qBBb2H;n,0*53\r
+!AIVDM,1,1,,B,4h3Owoiuho;NDrdhR4G>oE?02H;n,0*5C\r
+!AIVDM,1,1,,A,33A@9b5P010qdspOo=069?vV0000,0*03\r
+!AIVDM,1,1,,A,16K8D??000aw@KbDCDLQ:R8b0@<Q,0*28\r
+!AIVDM,1,1,,B,13aGt>PP00PD>@RMe3;P0?vbR5Ip,0*46\r
+!AIVDM,1,1,,A,36K2;iPPAHawM5bDC6<r980d2000,0*25\r
+!AIVDM,1,1,,B,133rAuPP00PCu6@MF0BbHOvb2L7k,0*68\r
+!AIVDM,1,1,,B,14S;kJ0vAWwDoCdDvmq5BT<d00R`,0*25\r
+!AIVDM,1,1,,B,139eVi0P00PRul6K=`?D=wvbR@<b,0*76\r
+!AIVDM,1,1,,A,333ivDPP0bPD50VMDLR:<wv`23Ik,0*08\r
+!AIVDM,1,1,,,13oQvf001G0pu6TUw6A`tW6b0H<R,0*3E\r
+!AIVDM,1,1,,B,B3uDHsP000>QDR818;igswbUkP06,0*4D\r
+!AIVDM,1,1,,A,16Sfid`000a3QHLEKaRP04hcr8<S,0*09\r
+!AIVDM,1,1,,B,13P;Lt@P0<wslHrReh5qPwvd0<0?,0*17\r
+!AIVDM,1,1,,A,133uEbPP1?0CsK2ME:85U?v`P@<b,0*3F\r
+!AIVDM,1,1,,A,143qbd01h02I2W0IPKJ00Fj`2@<1,0*3B\r
+!AIVDM,1,1,,B,152GQ5@P01ISGIvA7aqu<?vb0@<O,0*44\r
+!AIVDM,1,1,,A,15NFjSgP00ISBcjA92Vm;wvd2@<Q,0*45\r
+!AIVDM,1,1,,A,15?5s4001:NqgN<@6wN`i6jn05Ip,0*06\r
+!AIVDM,1,1,,A,13FvC@0000vqL:6@6NLb944`0<1R,0*70\r
+!AIVDM,1,1,,B,14RgK0?P000DH2RMd2EP0?vT08<b,0*28\r
+!AIVDM,1,1,,B,13Hb5d00000HS@tHiw80?60V0`<I,0*57\r
+!AIVDM,1,1,,B,1CUUr:3P001d41tEegoP0?vb0000,0*3B\r
+!AIVDM,1,1,,A,140Up0002>wWHepDUrQRnR@b00SB,0*18\r
+!AIVDM,1,1,,A,15NJIpPP0DJeHwfGBjQ:OOvd2L36,0*70\r
+!AIVDM,1,1,,B,139aMag01>PGH1PMj2KnIm6`P`<c,0*18\r
+!AIVDM,1,1,,A,13aDpL@P000D6gvMEAh@0?v`RD7L,0*6B\r
+!AIVDM,1,1,,A,33aER5UP00PDD8nMdjFMcwvb2E3:,0*50\r
+!AIVDM,1,1,,A,H7P<1>1LPU@D8U8A<0000000000,2*6C\r
+!AIVDM,1,1,,B,168sUvP0018K<LnFCBT`7Vrd0D6U,0*55\r
+!AIVDM,1,1,,B,14eGkl@000G<c4PL=5I9d1dT0L1r,0*67\r
+!AIVDM,1,1,,B,3030p6O000o<WVtL99r9JP>`0140,0*7C\r
+!AIVDM,1,1,,A,E000a62Q7QPW0h22h;0V2W1TPP0OwC`v;B3M81088;jP2P2,2*5B\r
+!AIVDM,1,1,,B,35?W?p1001vqR>B@55I<f0Db0Dpb,0*0E\r
+!AIVDM,1,1,,A,233WuF0OiNPCiijMEu:os6Hb0<7e,0*48\r
+!AIVDM,1,1,,A,333v>CgP?w<tSF0l4Q@>4?ww0Ru1,0*56\r
+!AIVDM,1,1,,B,13FSLP0P00NqNep@5ID3TOvV0<1R,0*35\r
+!AIVDM,1,1,,B,23a<L4001VPFE=4Mw8=5QlL`0pH0,0*1F\r
+!AIVDM,1,1,,B,13F8J2?000NqIq@@6PCa0ql`0L16,0*5B\r
+!AIVDM,1,1,,A,4030p2iuho;NDrC1VPHplhG000S:,0*6D\r
+!AIVDM,1,1,,B,13P7nLg0000P`9BHt80qojJ`0hQh,0*45\r
+!AIVDM,1,1,,B,140UuF0P00PClL`MEW<07wvbP8<d,0*72\r
+!AIVDM,1,1,,B,33bdd>5P000H=l<N9t:h0?v`0DL:,0*43\r
+!AIVDM,1,1,,A,13aFgMhP00PFff0MavA@0?vb2SvG,0*27\r
+!AIVDM,1,1,,B,133iVOgP00PDUCBMDKoqKgvd2@<e,0*5A\r
+!AIVDM,1,1,,A,16KVrPP025acVD`Cm:ua=WHd00SR,0*4E\r
+!AIVDM,1,1,,B,13b<:<002SwiD7TNo2UrR8L`08<e,0*04\r
+!AIVDM,1,1,,A,169CMw8P008V<u6DV;CRSwvcr5Ip,0*6F\r
+!AIVDM,1,1,,B,139f=0PP00PE30VMU<0h0?vbR8<e,0*61\r
+!AIVDM,1,1,,A,169;5P00118WBhDDV@ll2C6b2@<:,0*44\r
+!AIVDM,1,1,,A,168tH:PP00`dJ0hAuFJbVOv`0<6>,0*58\r
+!AIVDM,2,1,6,B,53vD04000001<H?KCKUFtJ05=@E8UR22222222000000040Ht00000000000,0*3E\r
+!AIVDM,2,2,6,B,00000000002,2*23\r
+!AIVDM,1,1,,B,13uB5bgP000nVFhPv6hblwvd28<V,0*25\r
+!AIVDM,1,1,,B,13u=JE0P010mGjbQ1Kpn9OvV05Ip,0*4C\r
+!AIVDM,1,1,,A,16:j3F001j`TiSbFdlLtHqp`0@<@,0*60\r
+!AIVDM,1,1,,A,16:>BSPP008dJ=fAsQP@0?vV0@<B,0*2B\r
+!AIVDM,1,1,,B,16:;G@0P1O`PKk@>6HCaPm6`2h4q,0*7C\r
+!AIVDM,1,1,,A,169AMPP01b8hr5lEQ9Hc=pn`08<C,0*3E\r
+!AIVDM,1,1,,B,16975GP0228d@V`Eal4GL5jb0<48,0*5E\r
+!AIVDM,1,1,,B,137h;P0uh2`hWf<A3546Kbjb08<;,0*62\r
+!AIVDM,1,1,,B,169E4w`0008geoLA8SWh04bb2<6B,0*3F\r
+!AIVDM,1,1,,B,15AS`l3P008fiq:A2E>00wvb08<H,0*37\r
+!AIVDM,1,1,,A,16:d9>PP008Vfa@BC0C0AOv:20RO,0*4E\r
+!AIVDM,1,1,,A,169JBo00008W01JBBVE0vJt<083A,0*76\r
+!AIVDM,1,1,,A,16:>6T001r8UlLJBAm0l=3H:083K,0*3D\r
+!AIVDM,1,1,,A,16:V2Thk00`UwW`BB6auwOvR403L,0*18\r
+!AIVDM,1,1,,A,16ShVpPP02a3Te:EKM<aRgvb25Ip,0*66\r
+!AIVDM,1,1,,A,369Oel001F8U@9`BCg9tJqn<0P01,0*7C\r
+!AIVDM,1,1,,A,36KVls001rawoJDD9Nu00;>d0000,0*32\r
+!AIVDM,1,1,,A,169Ear00008VLmtBA>i009T>25Ip,0*4C\r
+!AIVDM,1,1,,A,A04757QAv0agH2JdGph`6OlR3Dh6wL<>IA3v<0dA,0*5E\r
+!AIVDM,1,1,,A,15Q=F<001B8VVtPBB9JaHoTB0D75,0*0E\r
+!AIVDM,1,1,,A,16UBMb0001`WkCHBDh3c@0d>0D<?,0*2C\r
+!AIVDM,1,1,,B,13Gm740000OqrwpM5hgqGatb08<d,0*23\r
+!AIVDM,1,1,,A,169AKI`P008VUg8BAcAMLwvD0=i=,0*33\r
+!AIVDM,1,1,,A,39NWwom000`WCJ0BEuPboijL0E9:,0*68\r
+!AIVDM,1,1,,A,16:d8o0P008VJRlBAnTePOvJ00S9,0*47\r
+!AIVDM,1,1,,A,36:==uU000`Uw`dBA>B6W8bP2000,0*59\r
+!AIVDM,1,1,,A,13aJG90P00PDeBFMdTgh0?vb28<f,0*5D\r
+!AIVDM,1,1,,A,13aGEG5P14PH;w6MVho48Ovb2<1B,0*34\r
+!AIVDM,1,1,,A,15AQgf002h<PsL5c=kl>1P2`0L03eV?vvgt=,0*06\r
+!AIVDM,1,1,,B,13brRt5P0wPGfvnN=h=mCgvb2<6N,0*57\r
+!AIVDM,1,1,,A,333fJ<PP00PDC10MDB:h0?vbRBm3,0*1F\r
+!AIVDM,1,1,,A,15Mt3U0P00ISQl`F>KNrDwvd0D0P,0*60\r
+!AIVDM,1,1,,B,13qGV400011EPRtO8E2LikJb0PRn,0*4A\r
+!AIVDM,1,1,,B,36:;AKP0058VDDtDVWV`f4Rcp000,0*04\r
+!AIVDM,1,1,,B,13ofGd000=NrVQr@56v`SI@d00S?,0*4E\r
+!AIVDM,1,1,,A,83GQuNPj2d<N<deL=Q;@M?`57P00,0*38\r
+!AIVDM,1,1,,B,14eGEB?02@o;@fPKqCcQWiHb0p<c,0*1A\r
+!AIVDM,1,1,,A,403Ovt1uho;NDrc`gJFcG;O02L4=,0*23\r
+!AIVDM,1,1,,A,13aDBChP160D:VJMd:jtngvdP8<h,0*47\r
+!AIVDM,1,1,,A,13o9DV00000FplVS?CCM;lrd0<0M,0*4D\r
+!AIVDM,1,1,,A,13oKt00P4g0rLTpUwA3b:wvd0@<c,0*1F\r
+!AIVDM,1,1,,B,133w3lgP1:PFwL0MaasD4OvbRH<h,0*46\r
+!AIVDM,1,1,,B,13P<MngP00wi==BNu5r@0?vb2<0K,0*51\r
+!AIVDM,1,1,,B,13uk6V0007Pt=>0OcjQ3PP@V08<i,0*26\r
+!AIVDM,2,1,5,,55N:gCP0004MLCKOSJ0<51B1`DdF22222222220l0`@354jBF7P0000000000,0*00\r
+!AIVDM,2,2,5,,0000000000,2*50\r
+!AIVDM,1,1,,B,16K2BkP003actlJClf4hsm4d2<21,0*17\r
+!AIVDM,1,1,,A,13aGsi0P00PCm?BMbrQ4pgv`R<:1,0*27\r
+!AIVDM,1,1,,A,16KPbtP02Bb0Kc<DDOtIfoRd2H<`,0*11\r
+!AIVDM,1,1,,B,13aDqS0P05PHk?lMapJ6;wvb28<i,0*42\r
+!AIVDM,1,1,,A,16K8CwP000awiFHDIG2B98Rd20Ru,0*5F\r
+!AIVDM,1,1,,A,13q5E<gP00Q2`BLNT@80bwvbR@<j,0*34\r
+!AIVDM,1,1,,A,D02M4IiOpNfr<`N000000000000,2*4C\r
+!AIVDM,1,1,,A,15Mwkn`P01G?gM<K2n@Vwwv`0H<g,0*76\r
+!AIVDM,1,1,,A,13id`<0P000D9WpMd@o@0?vT00SG,0*00\r
+!AIVDM,1,1,,A,433wH8Quho;NEPBe3jM=A`7000S:,0*17\r
+!AIVDM,1,1,,B,1815;6A01h8VVgTDWHSD93BV0H<d,0*74\r
+!AIVDM,1,1,,A,16K2:?0000awSktD9obW:;4d08<L,0*09\r
+!AIVDM,1,1,,A,16KDPM0P2;awQDfD1c<Po?vd28<Q,0*60\r
+!AIVDM,1,1,,A,33P:owh00=OhST0Nbb?2g1rb00sP,0*37\r
+!AIVDM,2,1,3,B,53aFf;4000010KGG;80`4<t:1=8000000000001@2`422t0Ht50CU5iDT1CP,0*14\r
+!AIVDM,2,2,3,B,00000000000,2*24\r
+!AIVDM,1,1,,A,138jAv002Pav1J:CuLCq3G:b0@<R,0*0F\r
+!AIVDM,1,1,,A,13aJFm@P0NPHFttMabhm7wvbR8<k,0*36\r
+!AIVDM,1,1,,A,14WW<8002:awlV`D9gQ6wUR`0<5S,0*64\r
+!AIVDM,1,1,,A,E028iq@Va1Qh3TU7W@@@@@@@@@@Oju2N<MVBH00003v0100,2*2B\r
+!AIVDM,1,1,,A,14QsEe50000D@ERMcpst3a8b0P00,0*36\r
+!AIVDM,1,1,,B,102>3a0P000O3kpMqH<AA?vHRH<h,0*4A\r
+!AIVDM,1,1,,B,14QsEw@01W0p`j4V9Ak=jc4d0D0W,0*6A\r
+!AIVDM,1,1,,B,339K40U000PW@gvN`NLK27hT2000,0*3C\r
+!AIVDM,1,1,,B,13aJHpp000PFiQPMassP00fbR8<k,0*4F\r
+!AIVDM,1,1,,B,33A4g<000>Pr5vnP4G62Hj:b2P00,0*35\r
+!AIVDM,1,1,,A,19NWwF0028OS5STDSa?D2kFF087N,0*07\r
+!AIVDM,1,1,,A,177Nt:001eP3RjHF62w5AT=V08P8,0*4E\r
+!AIVDM,1,1,,A,13AiRH301<wS=r4DrU2l>kHL05Ip,0*17\r
+!AIVDM,1,1,,A,4028nBAuho;N;wPh=bE?sV700L2>,0*41\r
+!AIVDM,1,1,,A,14SQ:V0wivOKgAhDgwF463DL088=,0*79\r
+!AIVDM,1,1,,A,13F7np0000OS?jNDqni:LqdF0<15,0*53\r
+!AIVDM,1,1,,B,15OK5d0000G@0J@K=3Wa<Rpf08<h,0*1E\r
+!AIVDM,1,1,,A,15MvdBPP1gG?g5jK9RaMB?vb0D11,0*38\r
+!AIVDM,1,1,,A,402PeI1uho;N=OL9>JE>dFQ00<3<,0*12\r
+!AIVDM,1,1,,A,13Wb;0;P00OW5LlDbr6o5gvb2H;o,0*19\r
+!AIVDM,1,1,,B,13LBwt0000Oe7F:LlIlh3c4b0@<R,0*3E\r
+!AIVDM,1,1,,A,402E34Auho;NDPOIQHNQ=57005Ip,0*33\r
+!AIVDM,1,1,,2,133TfD?0040A<prM?fJB<B<b0<6W,0*07\r
+!AIVDM,1,1,,B,13oK1J800011rDtVPDL7T0mB0@Gf,0*11\r
+!AIVDM,1,1,,B,13mFpH002F11V@`VOc1QbQG>0D0F,0*64\r
+!AIVDM,1,1,,B,13aI8sPP00PGh>:MaW:P0?vb2<4S,0*5C\r
+!AIVDM,1,1,,A,33AiNN3Oh:11K6HNni?<v:rd0000,0*05\r
+!AIVDM,1,1,,A,4030p:iuho;NDncN;jO42H700L0I,0*50\r
+!AIVDM,1,1,,A,14`WWT002GPSrtfNuEdKjIFb0D5`,0*76\r
+!AIVDM,1,1,,B,13cTaN00000Cb6hMHfJ7l5<T0d5K,0*75\r
+!AIVDM,1,1,,B,15MtM5g000J6UmF?vRgeVPTd08<k,0*45\r
+!AIVDM,1,1,,B,15Mw<=?P00INp4NBUswLM?vb0D06,0*33\r
+!AIVDM,1,1,,A,18159Mh034P8:=dME7lH8FLd0<9N,0*3D\r
+!AIVDM,1,1,,B,13uo4P01BkPqfvLOahQ6gEFb08<n,0*71\r
+!AIVDM,1,1,,B,13lJ9b001gP`t1TNku7b<`:T0D47,0*6D\r
+!AIVDM,1,1,,A,13ng<f000A0b=d8NoF4Qp18P0<<@,0*6E\r
+!AIVDM,1,1,,A,1779s?000mPbOR>Nq1D`6V`T0d1d,0*51\r
+!AIVDM,1,1,,B,139H48PP01Pb0=8NnC19dwv`0@;a,0*18\r
+!AIVDM,1,1,,B,139JP2?P00PanwnNmWg90OvV28;b,0*39\r
+!AIVDM,1,1,,B,139aC6PP000aoqBNmcE00?vV0H;v,0*28\r
+!AIVDM,1,1,,A,4020s=iuho;NDPan`pNmQ0W00<00,0*22\r
+!AIVDM,1,1,,B,139IQJPP010ao:>NmOJ7Kwv`00RL,0*52\r
+!AIVDM,1,1,,B,13lW=V000?PavJVNmBvka2lV0@<B,0*38\r
+!AIVDM,1,1,,A,13@`NV00000aoK8NmSg39Fld0<1b,0*5D\r
+!AIVDM,1,1,,A,14QsE`P2@i0aiVDNmHGRg2F`08<i,0*15\r
+!AIVDM,1,1,,B,13aGFHgP01PD:B8ME1usMwvdR8<n,0*42\r
+!AIVDM,1,1,,B,33bfe80P@jPL;DJNU<vkKBnV00vi,0*0B\r
+!AIVDM,1,1,,A,14RU:h002m0MI?4NhHO332JV0D13,0*6F\r
+!AIVDM,1,1,,A,15N7GwgP00ISdvdA7adKuwvb0<3K,0*6A\r
+!AIVDM,1,1,,A,15NNo5<P00ISwq6A8DNs;wvd2@<W,0*79\r
+!AIVDM,1,1,,B,18Hs>10P007kpEf;BNSh0?vb0@D>,0*6A\r
+!AIVDM,1,1,,A,402;bMiuho;NEPIQ4lHe7go00<1i,0*49\r
+!AIVDM,1,1,,A,13aJHWhP07PD3q2MddKi7gvb28<n,0*38\r
+!AIVDM,1,1,,A,13aB7VhP00PFr76MeJpP0?vb2@<o,0*43\r
+!AIVDM,1,1,,A,33oIKn0PAe0IBCrQpcfVumTd012@n2evPT,0*09\r
+!AIVDM,1,1,,A,13a3q<00000Wou0NlSh5AP<b0h<:,0*4B\r
+!AIVDM,1,1,,B,13boGl0001NqJ0L@6aQdLE`d08<n,0*7C\r
+!AIVDM,1,1,,A,14SCrt001pawkq6D9q76nmLd25Ip,0*56\r
+!AIVDM,1,1,,B,23aFfl0P00PCR>:MEBB@0?vb20S6,0*18\r
+!AIVDM,1,1,,B,169JHw`P007pm50;MAHE7Uv`05Ip,0*03\r
+!AIVDM,1,1,,A,13lgI25PAb8RLgND4fnUul:V0D3r,0*70\r
+!AIVDM,1,1,,B,16:;BJ00?w<tSF0l4Q@>43000T00,0*1A\r
+!AIVDM,1,1,,A,15N0RM001cJn;=pGWSCm`Tfb25Ip,0*20\r
+!AIVDM,1,1,,A,16:@CC`0008WCgHDTvhe?jgp00RM,0*3E\r
+!AIVDM,1,1,,B,1Cb8s:001QQetCrEPQ7aw`0`0000,0*00\r
+!AIVDM,1,1,,B,15EE9n00008JrupFCkd63a:b0@<i,0*60\r
+!AIVDM,1,1,,B,169UKDPP0087dFt=:hh00?vb2<7:,0*37\r
+!AIVDM,1,1,,A,403t>Viuho;ND`fp<fA@@G700H<I,0*07\r
+!AIVDM,1,1,,A,13@o?R?P000qg9<Oo`H:Fwvd28<p,0*7D\r
+!AIVDM,1,1,,A,36973>001T8dvqrAsVNTSkRb02sQ,0*3A\r
+!AIVDM,1,1,,B,13aFeS?P000CpF>MdCaJ8gvd2D<3,0*57\r
+!AIVDM,1,1,,A,403t=kAuho;ND`bEL@B<8d7008<L,0*27\r
+!AIVDM,1,1,,B,B6:fOUh0=R1oRQSC=jo9Gwb61P06,0*6F\r
+!AIVDM,1,1,,A,169p8I81@0`SjkhFnIG9d:``0H<R,0*6D\r
+!AIVDM,1,1,,A,13QKCb001>00V@8NuE06E56`05Ip,0*5C\r
+!AIVDM,1,1,,B,13cEtn001oPF8LtN`66ad7hV08<L,0*09\r
+!AIVDM,1,1,,B,13bt<J0P000GCFdNOi@J6?vd00SQ,0*4A\r
+!AIVDM,1,1,,A,33P7JTP:1dOrtPpM3V47sVj`0000,0*0D\r
+!AIVDM,1,1,,B,14RhU>02ieOHQqRDSRwe>JVd2@<n,0*3B\r
+!AIVDM,1,1,,B,1442=T0000RBIJDJko:JH@hb2H<p,0*12\r
+!AIVDM,1,1,,A,13aGtqwP11PHB9dN:5=a3wvb28<p,0*2C\r
+!AIVDM,1,1,,A,33nSr45000PJ3v0QhJk;f:4b0000,0*1E\r
+!AIVDM,1,1,,A,B43JHF0000V@sC6H3t803wbT3P06,0*27\r
+!AIVDM,1,1,,B,13q6oh001RQE@WLO;Jc=0JNb0<14,0*74\r
+!AIVDM,1,1,,A,13aGtK?P19PGEhLMjO;tswvbR<6G,0*04\r
+!AIVDM,1,1,,A,13HPIH0P0aP0e8HLCdOBFgvb0@<f,0*00\r
+!AIVDM,1,1,,B,33uCViPP000sOkhOl`T@0?vb064S,0*0E\r
+!AIVDM,1,1,,A,13HP0i00000Fl;THm@sEATVd0<0q,0*29\r
+!AIVDM,2,1,7,A,53GR1P4000037??WCL1LE=A0P4hTD0000000001?8h=54uE6?180000000000000,0*32\r
+!AIVDM,2,2,7,A,0000000,2*23\r
+!AIVDM,1,1,,A,13GQutPP00PCSAFMEBEDkwv`2@<q,0*0A\r
+!AIVDM,1,1,,A,339pFF5000R:D2tRABK`DVbV0000,0*5C\r
+!AIVDM,1,1,,B,13aD00PP00PGN>TMaJDPCgvd25Ip,0*4B\r
+!AIVDM,1,1,,B,13obEp001SOrCIdRbUaVB50`0d0;,0*04\r
+!AIVDM,1,1,,B,13HU1APP000Dw?RMm0ih0?vLP0SW,0*64\r
+!AIVDM,1,1,,A,13aGFT0P0uPEEIdMgNAI`?vN20S3,0*21\r
+!AIVDM,1,1,,B,13aGrvOP00PDQ1<Mdt0QuOvNRH9j,0*25\r
+!AIVDM,1,1,,A,33P7PEU0000BpV0MfgI2P9FN0000,0*03\r
+!AIVDM,1,1,,A,13P;ta?P1:OgHk0Nsmd9EgvV0D0J,0*04\r
+!AIVDM,1,1,,A,15MwpW@P00o<ehfEs3QGCOvb0D02,0*6A\r
+!AIVDM,1,1,,A,13`jecP000PEp38NCUV5D0nb0H<r,0*53\r
+!AIVDM,1,1,,B,13aDoOSP00PDUJbMDKw<=?vb2@<r,0*6B\r
+!AIVDM,1,1,,A,14QsF6hP1VOD>fTEVpi=b:pb08<4,0*54\r
+!AIVDM,1,1,,A,402;bAAuho;NEwpAmfHm9=o000S:,0*51\r
+!AIVDM,1,1,,A,13P9fuw000OrwCdM4kQh0A<`0<1E,0*0A\r
+!AIVDM,1,1,,A,13pr;k0000QEUfTO8:jqJR8d08<r,0*51\r
+!AIVDM,1,1,,A,13aoJ4002Q07rF6N?sPlkkhT0<0K,0*47\r
+!AIVDM,1,1,,A,13P<Bn@01r070?BNEFGUpTtb0@;w,0*4C\r
+!AIVDM,1,1,,B,13P:LS300uP6Q8NNAhsMtrl`28<6,0*06\r
+!AIVDM,1,1,,B,13tw:H001O0spfvOWCD:W`TV0<0h,0*4F\r
+!AIVDM,1,1,,B,15SWlr001Nn`PHlO5BpSB2l`00Sb,0*68\r
+!AIVDM,1,1,,B,13e9rf001b0?ESdMblH1O1>V0D:0,0*13\r
+!AIVDM,1,1,,A,E0000A0cFsL0000000000000000?ia<q:SlsH00003RP10,4*78\r
+!AIVDM,1,1,,A,13@ndo0P00Pr5u<P4IGGcOvb0<12,0*25\r
+!AIVDM,1,1,,A,343`I>0Oh0RBRGNJo=6@01@`09kh,0*2C\r
+!AIVDM,1,1,,A,139e>N0P02PD8?lME6Rckwvb2D3w,0*20\r
+!AIVDM,1,1,,B,13aGG30P0F0DF7DMdTV:fgvLR<85,0*6B\r
+!AIVDM,1,1,,B,14SM@V0uQj0qLs8P74TdaJ8d0D0t,0*34\r
+!AIVDM,1,1,,A,13u=Qw0P00PnEUhQ0ILG`Ovb0D1K,0*7A\r
+!AIVDM,1,1,,A,13ceS00P010wlSTGD4J7POvT0D0BJ`7v5c,0*40\r
+!AIVDM,1,1,,A,16KJWP@01n9TDAHCbLe9aWh`8UIpHhqv:@,0*2E\r
+!AIVDM,1,1,,A,14QsCMR006OMf:4D0R1as7BL0D1I,0*31\r
+!AIVDM,1,1,,B,13`e>l@P00PHpB4N3Jc5t?vb2D22,0*36\r
+!AIVDM,1,1,,A,13aDrhPP00PGQM2MVaRpuwvb28<u,0*2F\r
+!AIVDM,1,1,,A,24SaQh500G0Cu5vMErn9uWvb08<u,0*46\r
+!AIVDM,1,1,,A,E000WR2S0a7h22h1PW2b0000000OwQUn;FMD`1088;jP2P0,2*11\r
+!AIVDM,1,1,,A,19NS8GE027OKTcVCufB=4bRNP5Ip,0*60\r
+!AIVDM,1,1,,A,13aK=H001oOQ3uvDVVal6S:R0L3A,0*41\r
+!AIVDM,1,1,,B,13LBbW3P001Rgf>T65sJS?vd2@<u,0*08\r
+!AIVDM,1,1,,A,15DQAR0Oj9wRbJdDTl6:P`PR00RV,0*27\r
+!AIVDM,1,1,,A,E0000APcFsp0000000000000000?i`<m:Sonp00003RP10,4*1F\r
+!AIVDM,1,1,,A,4028j@1uho;NCOS>8NDqOko00L3O,0*6D\r
+!AIVDM,1,1,,A,139NWvP0000D@KpMcwW7U92d08<u,0*5F\r
+!AIVDM,1,1,,A,13P7eqh000ORgc@QCTS0ATbd0`<?,0*33\r
+!AIVDM,1,1,,A,13a2fv0000QDhWDO=?tR<1ij0D0h,0*40\r
+!AIVDM,1,1,,A,15NL:U?000o?;<HK4JLV1UHd08<r,0*7E\r
+!AIVDM,1,1,,A,403t:cQuho;ND`d@3bEOT<o008<K,0*79\r
+!AIVDM,1,1,,B,16:CprPP008F@S@=G@:P0?vb25Ip,0*01\r
+!AIVDM,1,1,,A,35ABS45wP08S`Pd>g=bTkc8`0000,0*5B\r
+!AIVDM,1,1,,B,169s;e51h37pkhF;MTarOC0b08<S,0*63\r
+!AIVDM,1,1,,A,403t=1Quho;ND`TOr0D1UO700L6c,0*03\r
+!AIVDM,1,1,,B,169Fd7P0028:W:V<hUIBPBLd2000,0*67\r
+!AIVDM,1,1,,B,16:DCIg000`g4tVA2FQdi:td20SE,0*47\r
+!AIVDM,1,1,,B,36:>J3QP00`fj`FA:d65Ggvb07ph,0*21\r
+!AIVDM,1,1,,B,169FCbPP0386:iv<QHuE9gvd0<1f,0*56\r
+!AIVDM,1,1,,B,140UuHgP00PClB`MEHReb?vHP0Ss,0*46\r
+!AIVDM,1,1,,B,369Qj`10028ebpdA;;CHkc6b2000,0*7E\r
+!AIVDM,1,1,,A,16:QwTgP00`LMhp=wgqh0?vb28<V,0*68\r
+!AIVDM,1,1,,A,35B0h650008LTU@>2j9TCnvb088@,0*7E\r
+!AIVDM,1,1,,B,15NLRQgP01Iu;avFGacnhgvb0H<t,0*40\r
+!AIVDM,1,1,,A,16K2:s@02HawjnpCtg=DcCjd00Rw,0*5B\r
+!AIVDM,1,1,,A,15Mv7i0P00IR`8jA950JTwvb00S5,0*68\r
+!AIVDM,1,1,,B,15NF@i<P00qRsU6A9<0bhOvd2D5u,0*4A\r
+!AIVDM,1,1,,A,15MvoiPP01ITAb@A5o`oW?vV0<3H,0*4B\r
+!AIVDM,1,1,,A,15NL7n8P00IS5w:A7sKe@?w00@C@,0*13\r
+!AIVDM,2,1,7,B,55N:>1P00001L@CK7GQ<4HEAV118T@F22222220O0p@264vaN7Q3hjp4jA1H,0*33\r
+!AIVDM,2,2,7,B,<>LH8888880,2*26\r
+!AIVDM,2,1,8,A,55N8Sg004J<ML@CC;7P<51B0`4<f0B222222220O0h>3340Ht00000000000,0*27\r
+!AIVDM,2,2,8,A,00000000000,2*2C\r
+!AIVDM,1,1,,A,15Mw<`PP00ISw3HA8HKdEOvb08<q,0*17\r
+!AIVDM,1,1,,A,15N:GIgP00IS8v4A86gK6Ovd2H<r,0*33\r
+!AIVDM,2,1,5,B,53;1uB0285Km3=0CR21LTi<tr1<4L62222222216=09974o>0?PEQA3i,0*2D\r
+!AIVDM,2,2,5,B,DQH888888888880,2*47\r
+!AIVDM,1,1,,B,13A0In0OhMPrRR8Ov@t6UUJb08<d,0*72\r
+!AIVDM,1,1,,A,333sckSP00PD0unME:@CCOvb223i,0*21\r
+!AIVDM,1,1,,B,152HiUOP00JrjiPH@11e5?vb00Rv,0*44\r
+!AIVDM,1,1,,B,34eGED0OhwG=GMPL9g`IIod`0000,0*58\r
+!AIVDM,1,1,,B,14eG?2hP00G=JJdL:1FDR?vb05Ip,0*29\r
+!AIVDM,1,1,,B,36::gf50007krer;BHcIm8RdP000,0*05\r
+!AIVDM,1,1,,A,13aFeq@P?w<tSF0l4Q@>4?wv0p<w,0*54\r
+!AIVDM,1,1,,B,23NCqt501M0>VWNMI1H<FJ0d2D:O,0*0E\r
+!AIVDM,1,1,,A,13m7KD002I0JpoDQin81@14`0@<q,0*6C\r
+!AIVDM,1,1,,A,13mkLP00000J94lQh2pdF::b28<r,0*5A\r
+!AIVDM,1,1,,B,B43NbT0008VGWDVHNs0000N021Mk,0*6A\r
+!AIVDM,1,1,,A,10:0rfPP000HtHbMdu>nqgvdRH=0,0*00\r
+!AIVDM,1,1,,B,13aDrTgP00PH>TpN9sh=hOvb20Rq,0*52\r
+!AIVDM,1,1,,B,13aEPj0000PCbChMdC2SEWtLPH=0,0*57\r
+!AIVDM,1,1,,B,33uAT204000mPh`Q1Puh08<b011P,0*6D\r
+!AIVDM,1,1,,A,13evQr01h0PiIFpQ0>nQn`<`2@<m,0*1A\r
+!AIVDM,1,1,,B,13uCES00000mGFPQ1?WbGk`d08<n,0*13\r
+!AIVDM,1,1,,B,13uq5J0v010mN5pPuKvDfr8b0d1q,0*4B\r
+!AIVDM,1,1,,B,377nk75000`K?;`FBuvUv`lV0DNb,0*48\r
+!AIVDM,1,1,,A,33ktps002BPquEHP4R1eDr`d21ki,0*42\r
+!AIVDM,1,1,,A,16KDO?P01pawhvPD<9=dab6d2<5?,0*6A\r
+!AIVDM,1,1,,A,23c6=20001PCSL@MHM6aNIDd0<7c,0*50\r
+!AIVDM,1,1,,A,36KVnDh02wawaF0DA8@8h6t`80RP,0*0D\r
+!AIVDM,1,1,,A,13Pchd0001Pi2WpQ0NL2B7db0h<t,0*04\r
+!AIVDM,1,1,,B,4h3Owpiuho;NDo=sbvK=CG7000S:,0*01\r
+!AIVDM,1,1,,B,13u>=A?P011BhrhQte3V>wv`00SC,0*15\r
+!AIVDM,1,1,,B,B3P<0@P00GtiTD`MfuKAKwbUoP06,0*54\r
+!AIVDM,1,1,,A,168swf0P038VBqTDVoCnogvd0H<s,0*6C\r
+!AIVDM,1,1,,A,333oeqPP02PCs:2MF0b4ngv`R1<1,0*18\r
+!AIVDM,1,1,,A,35SLR@5000awSQ<DCeJ5PQvV0000lM7vQD,0*49\r
+!AIVDM,1,1,,A,13HT5AgP00P0puvLDUA5fgvb25Ip,0*6A\r
+!AIVDM,1,1,,A,133imfPP00PD9MPMD>`a;Ovb2D8>,0*63\r
+!AIVDM,1,1,,A,402:rbQuho;NDP14=`LB6O7000S:,0*39\r
+!AIVDM,1,1,,B,33bS>h0P@gPCDp0MWjQo85Tb015i,0*3A\r
+!AIVDM,1,1,,B,13aDC:wP00PCsafMDhD00?vdR8=0,0*54\r
+!AIVDM,1,1,,A,D025bvQP4Dfr<`D01qlT0000001,2*47\r
+!AIVDM,1,1,,A,139eg`gP00PCaS8MFM=edOv<P8=1,0*4A\r
+!AIVDM,1,1,,B,13aGtG0P1EPD1lrMDhDJVwvb2D3w,0*75\r
+!AIVDM,1,1,,A,139esqPP1p0E68dMdDqc5?vf05Ip,0*7D\r
+!AIVDM,1,1,,B,14`VfR80001EFirO6rSbL5Rd00R9,0*1D\r
+!AIVDM,1,1,,A,13P<3fhP1aOjTBLNrcciPOvf28=3,0*54\r
+!AIVDM,1,1,,A,13=I`D5P008VjSvDanJ;mgvb0d2t,0*06\r
+!AIVDM,1,1,,B,13`eCp0Oh=0HuA0NKH27>c:f0H=3,0*78\r
+!AIVDM,1,1,,B,11auciw000G7vkFL=>5ISs>d25Ip,0*20\r
+!AIVDM,1,1,,A,14eGDhhP01G<AL<L3Es6jwvV0<1m,0*4C\r
+!AIVDM,1,1,,B,14eHBuwP00G<7S6L6tEJlOvb05Ip,0*3E\r
+!AIVDM,1,1,,A,14eGLiPP1BG;UC@L3nILF?vd08<g,0*51\r
+!AIVDM,1,1,,A,4030pCAuho;NDo;;N2L?3Oo008<q,0*16\r
+!AIVDM,1,1,,A,4030pD1uho;NEo<L20L<nt700L2f,0*3E\r
+!AIVDM,1,1,,A,14eJB80P00G<V5fL=bF@0?vb00Rg,0*53\r
+!AIVDM,1,1,,B,13@o44@OiE0kt?`PiQkt89rd0<13,0*35\r
+!AIVDM,1,1,,A,13aENshP00PCW1lMHFgqbwv`Ph4g,0*21\r
+!AIVDM,1,1,,A,35Mu1EPOjaJduwFG@WRIH7tb00a0,0*61\r
+!AIVDM,1,1,,A,15EDJv0P28aas`hCWeqPD?vd05Ip,0*0B\r
+!AIVDM,1,1,,A,140UsEwP010IWRPMdPQ6egvb00Rs,0*53\r
+!AIVDM,1,1,,B,4h3OwpAuho;NDo?kthK7IGo005Ip,0*36\r
+!AIVDM,1,1,,A,13u?dU0001QD4>nQwIsVv@Ff08=5,0*73\r
+!AIVDM,1,1,,B,13HTvdPP00PCsHPMEil00?vd28=5,0*73\r
+!AIVDM,2,1,6,B,53FSLP02=Bn8D4HH0000000000000000000000000000040Ht>h00000,0*2A\r
+!AIVDM,2,2,6,B,000000000000000,2*21\r
+!AIVDM,1,1,,A,139@R5@P0mPKITFMCwK9>Ov`R<0s,0*76\r
+!AIVDM,1,1,,B,3DhncV5P000Ic=RHds?eegvb0000,0*62\r
+!AIVDM,1,1,,B,13TcH40P001d41:EepK00?vd05Ip,0*6C\r
+!AIVDM,1,1,,A,B5NNnTP006Gv484WlvcQ3wbUkP06,0*35\r
+!AIVDM,1,1,,A,402;bKAuho;NE0`n0lHIACG005Ip,0*2B\r
+!AIVDM,1,1,,B,16SekUPP1Qa31v4EGg8:;Ovd20RN,0*74\r
+!AIVDM,1,1,,A,13aEQh@P08PCSEvMctRPAgvdR8=6,0*5F\r
+!AIVDM,1,1,,A,4030op1uho;NEJlELfJS6kQ00H<q,0*14\r
+!AIVDM,1,1,,A,403t?IQuho;ND`Rj?`>p1ao00L0v,0*7D\r
+!AIVDM,2,1,5,A,569AMPP000008TD<00084v1<PDpN3GH0000000168@Q884on09U2@CRR,0*15\r
+!AIVDM,2,2,5,A,CP0000000000000,2*32\r
+!AIVDM,1,1,,A,16:;BGP0?w8g1V@EMVbf49lb00Rb,0*1C\r
+!AIVDM,1,1,,A,15?6mb002=8fkRTEb9h:g`V`00Rw,0*40\r
+!AIVDM,1,1,,B,15MvqH0P00IShKrA8o6HwOvb00Re,0*7B\r
+!AIVDM,1,1,,A,15Q=N00001qSPrNA7IL7kpNV0<3w,0*70\r
+!AIVDM,1,1,,A,16:ikf00008Sk>0Fn5tP018b08<T,0*73\r
+!AIVDM,1,1,,A,E>q7B;aQ0Wh24PW@J@40WP000004Euh08wrHh20@@@bWHP,4*0F\r
+!AIVDM,1,1,,B,169@3e8P?w<tSF0l4Q@>4?vb0l0:,0*7E\r
+!AIVDM,1,1,,A,169APIPP0t8d9d2AomeLDOvd00Rg,0*71\r
+!AIVDM,1,1,,B,169Fw400008:wnJ<rQKbeahb08<f,0*25\r
+!AIVDM,1,1,,B,4h3OwpQuho;NEo?<<JK4@uW00<0i,0*73\r
+!AIVDM,1,1,,A,169;1?g0008SEHPFmKTU5r>b20R<,0*5A\r
+!AIVDM,1,1,,A,36K2;iPPAHawM5bDC6<r980d2000Bm7v6p,0*0D\r
+!AIVDM,1,1,,,13aDp1SP0g0IEmpN7I3P??v80l18,0*3C\r
+!AIVDM,1,1,,A,15NBif0004Jj@;TG`9CR<0Vb0H<?,0*66\r
+!AIVDM,1,1,,A,15N8`MW00OJowMVFqWT7rnRb0H<8,0*7B\r
+!AIVDM,1,1,,B,15N;0>001:Jllg8GWdL<K:0d08<M,0*1C\r
+!AIVDM,1,1,,A,33mGSF0OkFPJi9RQftC`06Fd00Sh,0*2C\r
+!AIVDM,1,1,,B,13n3aW0PCRPJ`1`Qh7PbcHNd25Ip,0*15\r
+!AIVDM,1,1,,A,13P;1j@000OjLHtQbONr@2df0@=7,0*7B\r
+!AIVDM,1,1,,A,33`kFCUP00PIaC0N8LOh0?wP2Dmr,0*7A\r
+!AIVDM,1,1,,A,13c:Fb00000G6b4NBFM<dQc:0UIl,0*59\r
+!AIVDM,1,1,,A,14WGDP0000PPu=bNQDR9eHS@05Il,0*23\r
+!AIVDM,1,1,,B,13u:Tn002MPsGtjOTS7Q=htb00SB,0*2B\r
+!AIVDM,1,1,,A,339O2A8OiDPPgfTNdHJErDs<20nQ,0*05\r
+!AIVDM,1,1,,A,13mD:S000011je<VOt<IHbWF08HV,0*62\r
+!AIVDM,1,1,,A,139KRNP01k0O5DDNWRSd6ae@08GC,0*38\r
+!AIVDM,1,1,,A,13aFfG@P1bPFmd0MgHJHt?vdR<0I,0*60\r
+!AIVDM,1,1,,A,13oJ2r000011joPVP0W1ITD008J`,0*0F\r
+!AIVDM,1,1,,A,13aDpb8P010CC1tMEL86c?v:083q,0*1F\r
+!AIVDM,1,1,,A,23`ekA@P000CUf@MFW500?v:0@3r,0*33\r
+!AIVDM,1,1,,A,133gW9g0000CjIpMG2C07bV:05Ip,0*27\r
+!AIVDM,1,1,,A,23aEQnPP18PB0JrMIA?B6gv<20S?,0*62\r
+!AIVDM,1,1,,A,133snFgP000D7sPMEB`9wgv>RD7D,0*35\r
+!AIVDM,1,1,,A,13n0h4002Q0u9fLOWNdbbpTb0h=8,0*3A\r
+!AIVDM,1,1,,A,13aDop@P00PBMP@MIetqswv>20Sa,0*59\r
+!AIVDM,1,1,,B,13P<Dw?P000Vp:vIFrm@0?vb00Rt,0*20\r
+!AIVDM,2,1,2,B,5CR5fP01hsNQ=OGO7L104q@4p5=<40000000000l0000040000000000,0*1F\r
+!AIVDM,2,2,2,B,000000000000000,2*25\r
+!AIVDM,1,1,,B,133wC3PP00PD;5VMDMV@0?vdRD7p,0*41\r
+!AIVDM,1,1,,B,14RU:h002m0MHPlNhGbS0RJ2081g,0*37\r
+!AIVDM,1,1,,A,13`jecP000PEp38NCUV:UPn6081q,0*07\r
+!AIVDM,1,1,,B,33`jdU5P00PLK4@NSf9P0?v62DVb,0*47\r
+!AIVDM,1,1,,B,33c:Bh0OhmPLFntNUrB`eWD40000,0*65\r
+!AIVDM,1,1,,A,13abiN70000LI70NSnsCRjb60D0H,0*16\r
+!AIVDM,1,1,,A,13aGuEEP1GPJIk2NTfRRT?v82<7q,0*4A\r
+!AIVDM,1,1,,A,13FrAL3P@Pw3QEP4o<a472s20HCI,0*6A\r
+!AIVDM,1,1,,A,33`gl20OiOPGwGvNPddK?9H40000,0*58\r
+!AIVDM,1,1,,A,15@Cw:002SNv41p4V5a4tClf05Ip,0*43\r
+!AIVDM,1,1,,A,13aDC?pP000L;c`NPS5`c?v:00S0,0*72\r
+!AIVDM,1,1,,B,13aGuEPP000JL3VNTkQ:B?v:2<6?,0*4E\r
+!AIVDM,1,1,,A,34`alU001;w46Ap4:B<;Vq6`2000,0*6F\r
+!AIVDM,1,1,,B,13bWcr00000MSsRNUcjpe`T<00S3,0*63\r
+!AIVDM,1,1,,A,333tUb0t1q0LADnNfL0Ri2::00sh,0*03\r
+!AIVDM,1,1,,B,139LF<P01N0MCmtNgAaMnbn800Rk,0*37\r
+!AIVDM,1,1,,A,139g;bPOkoPMfEFNcEKSOjn<0@3@,0*44\r
+!AIVDM,1,1,,B,13bh:p0P000LGaFNSpp4T?vT0@;2,0*02\r
+!AIVDM,1,1,,B,13aI9awP00PLIwrNSp>:Gwv<2@3N,0*3C\r
+!AIVDM,1,1,,B,15ECw`002GPME?8NcO=3h2v805Ip,0*5E\r
+!AIVDM,1,1,,A,13aGuE0P00PLGiLNSu=JHwv<20RM,0*5B\r
+!AIVDM,1,1,,B,13aDph0P1;PGSvnMaNpjv?vb2H=8,0*76\r
+!AIVDM,1,1,,A,13aKpF70000LJ4bNSp:em7p<00RQ,0*78\r
+!AIVDM,1,1,,B,13ncqj0sB<0FsErNtG`J07t:0H3f,0*0D\r
+!AIVDM,1,1,,A,13AvFd003?069iVMeShJHpFb0@=8,0*0D\r
+!AIVDM,1,1,,A,13a7gB0P000LGcLNSpt00?v<0<1?,0*4D\r
+!AIVDM,1,1,,A,13aMiL00000LKgfNSsJ0Rm4<0<0L,0*48\r
+!AIVDM,1,1,,A,4020r7iuho;N6PNQWfNb76o00<00,0*3D\r
+!AIVDM,1,1,,B,14WFaR001r0ND`rNi3fRvj@>284>,0*2B\r
+!AIVDM,1,1,,A,13bjGP000@0G:g`NPGBbTH<<05Ip,0*58\r
+!AIVDM,1,1,,A,33b13@5000PGq5`NR;q;=VT@0000,0*22\r
+!AIVDM,1,1,,B,14Vh0p001c0HhgtNa<6Rn2>@0H4R,0*44\r
+!AIVDM,1,1,,A,19NSC`m03=0K>ilNeNe2l2::05Ip,0*53\r
+!AIVDM,1,1,,A,19NS3T@1B2P2bCnLuFQ9sot`08<q,0*22\r
+!AIVDM,1,1,,A,16KPbtP02Bb0Kc<DDOtIfoRd2H<`4n3v6p,0*48\r
+!AIVDM,1,1,,B,177W<B0vR:0L;iPNj6kqnGnd08<u,0*07\r
+!AIVDM,1,1,,1,33aC1whP000Etf4MwDD@0?wV004i,0*50\r
+!AIVDM,1,1,,2,602E:rqHWIfP0480J00000000000,0*0B\r
+!AIVDM,1,1,,2,23aFgmPP0V0DvlLN1H4mVgw`28O3,0*03\r
+!AIVDM,1,1,,1,33b?ED00180DsTlN1@bSIRg`00pQ,0*0F\r
+!AIVDM,1,1,,2,23ahdH0PAF0E5aRN1FPkcjgd00SF,0*78\r
+!AIVDM,1,1,,B,133oSgPP00PD:b0MDv56bgvd28=9,0*56\r
+!AIVDM,1,1,,2,23cAs20P@<PE3V`N1FwCA2id05Il,0*68\r
+!AIVDM,1,1,,1,24TJ3>001>PDk5`N1BsStC1b0D2v,0*2F\r
+!AIVDM,1,1,,2,13aGtN?P00PF3pVN1Meh0?wd2@Oq,0*48\r
+!AIVDM,1,1,,2,13bgs@?0000E22FN14D:39Ef20SH,0*58\r
+!AIVDM,1,1,,2,33QQ:b50000En0>MwLbJ3m7d2000,0*4C\r
+!AIVDM,1,1,,1,23`e=7@P00PE7efN1PL00?wfR0S8,0*2D\r
+!AIVDM,1,1,,2,33aFf@PP00PE320N1Fkn4gwf201Q,0*6C\r
+!AIVDM,1,1,,2,83aFf@Pj2d<dtMLdt0J@JhMm7P00,0*51\r
+!AIVDM,1,1,,A,83aIjhPj2d<t<t>>N@UPJSWE3L00,0*14\r
+!AIVDM,1,1,,A,16KVnM@0009c7MDCng6L?H6f25Ip,0*22\r
+!AIVDM,1,1,,B,13aJG=OP0kPDFB4McrnMw?vd2H=9,0*4D\r
+!AIVDM,1,1,,1,33bIIn0Oh1PL=W0NTWdctA00011@,0*35\r
+!AIVDM,1,1,,A,13b=P8002RP8k=<MK85paFu<28G4,0*1D\r
+!AIVDM,1,1,,A,13aG7b002CPB>a`MhGC4@SE@05Il,0*28\r
+!AIVDM,1,1,,B,23b?ED001<0DsDpN1@USNRg<0000,0*38\r
+!AIVDM,1,1,,A,16KPivP023awhe8D7BS@c0Rd0D32,0*55\r
+!AIVDM,1,1,,B,13mpt40P2M0>=>`MqRk8DVc60<1e,0*2A\r
+!AIVDM,1,1,,B,13cHpF002N0BU=hMgqeK?I7:0HG8,0*3D\r
+!AIVDM,1,1,,A,139KF@001qP<cs0McEN1NA?<08FS,0*59\r
+!AIVDM,1,1,,A,16K2C;0000b0IabD>oLUi34j0<4h,0*60\r
+!AIVDM,1,1,,B,38u<a<?PA=2>P6KfuA08s6ff0Q5@,0*03\r
+!AIVDM,1,1,,B,133fd:gP00PCn@nMEH8JRgvf25Ip,0*61\r
+!AIVDM,1,1,,A,36K8DA@000awi6RDIGM;Pmbd27@C,0*3F\r
+!AIVDM,1,1,,A,16S`6I0P00a3QLfEK`f00?vd2@=4,0*7A\r
+!AIVDM,1,1,,A,4@2OJF1uho;ND12i7dNaVG100D0e,0*76\r
+!AIVDM,1,1,,A,36K2EFh000awBELDB8n9d6Vf06mk,0*57\r
+!AIVDM,1,1,,A,339R>=SP@e0UT?2Nq`hImH4b00Si,0*63\r
+!AIVDM,1,1,,A,13aC22hP000Ct?BMBwpP0?vb0D3w,0*37\r
+!AIVDM,2,1,1,A,543qbd02>pPIED4sJ21HthtATmU:08tp@5:22216>@=796uf08liEPDm3l3k,0*14\r
+!AIVDM,2,2,1,A,88888888880,2*25\r
+!AIVDM,1,1,,B,1344Eh0000P=KuhMCulqLaTd0d0d,0*4A\r
+!AIVDM,1,1,,A,13nUcF0000PhA1fPoNHKSInd28=8,0*79\r
+!AIVDM,1,1,,B,139Hhj0P020DQ<FMdNAFcgvb08=:,0*16\r
+!AIVDM,1,1,,B,13aEQm`P1:PGvAhN7kU0NgvR28:2,0*34\r
+!AIVDM,1,1,,A,13`wgT0P5fPGmijN>nE4GOvb28=4,0*3A\r
+!AIVDM,1,1,,A,13brCD5OiI0H<<JNTWvS1jPd20SQ,0*5C\r
+!AIVDM,1,1,,A,15Mtaj001TJe03PG@<E563df08=:,0*4A\r
+!AIVDM,1,1,,B,13P:`:0P00OwbDFMN9914wvd0D0h,0*60\r
+!AIVDM,1,1,,A,133d`=gP000D;d6MD4NM:gvf0L8R,0*61\r
+!AIVDM,1,1,,B,13u@tig0001BwgjQt3ld28pf08=;,0*5D\r
+!AIVDM,1,1,,A,16Tq8T0Oita3<I<EH76Q;jld0H=5,0*65\r
+!AIVDM,1,1,,A,13HO`UPP0200Q9HLD:L0D?vV08<M,0*58\r
+!AIVDM,1,1,,B,33We:J1000wM9vhC>aBf4:Lb0000,0*63\r
+!AIVDM,1,1,,A,13P<T7PP00wgeC`NtiHuuOvf05Ip,0*05\r
+!AIVDM,1,1,,B,15B1nJ002<P1ncvO6af4;SFT08=;,0*5C\r
+!AIVDM,1,1,,B,13aIhS@P0kPCiwdMdEpW:Ovd2D6m,0*17\r
+!AIVDM,1,1,,B,33aWJ`0t0DPC8n`MT6R;E8nd00pP,0*3D\r
+!AIVDM,1,1,,A,13cccN00000`bW0IJ<1c?5Hf0<1f,0*4E\r
+!AIVDM,1,1,,B,133tcNPP010D2ThME2C6QOvb00Sp,0*50\r
+!AIVDM,1,1,,A,14V`h2002C08@htMF>hWnV<b00RR,0*06\r
+!AIVDM,1,1,,A,13aGEFgP00PDTW2MdWIh0?vd2@=<,0*22\r
+!AIVDM,1,1,,A,33mPm650008Vjp`Dak79HApV2000,0*3C\r
+!AIVDM,1,1,,B,13P7R@0P00PIch0HdkO7K?vb00SC,0*5F\r
+!AIVDM,1,1,,B,368sVcPP@18K9;TFD6MmwG>f0000,0*76\r
+!AIVDM,1,1,,A,13L>bV003>0tCGHOWFn:W`R`0D0b,0*4E\r
+!AIVDM,1,1,,A,133uLCUP1@PFJ=dMV0trm?vd25Ip,0*4F\r
+!AIVDM,1,1,,A,14RVLj002n0CC5BMIV:ePrp`88<W,0*4E\r
+!AIVDM,1,1,,B,15MwB1P00dqOMpLBPlpLA9lf0D0B,0*25\r
+!AIVDM,1,1,,A,13sO3oPP00OFKaRF7Q`@00>V05Ip,0*61\r
+!AIVDM,1,1,,A,34SaUb5000PD3`0MdfRQSJ`cR000,0*62\r
+!AIVDM,1,1,,B,15>ucf0036o?NApK=Mc6GU<b00S4,0*00\r
+!AIVDM,1,1,,A,13IWj8?P000@s66HmDsAv?vd0H<P,0*18\r
+!AIVDM,1,1,,A,16K8DCh000aw?3tDBM2976hf2H=7,0*5C\r
+!AIVDM,1,1,,A,36K2:jh008awouNDCJj70JFf0000,0*52\r
+!AIVDM,1,1,,B,33P7v45200wvj36Nh:ah0Hvb0000,0*10\r
+!AIVDM,1,1,,A,139d00PP0hPGq4<MaENBmgvdR8=>,0*5B\r
+!AIVDM,1,1,,A,15NKnRg00GqS;tBF9I7Q?0vf0@=<,0*2A\r
+!AIVDM,1,1,,A,133nbePP00PCls`MFaDmOOvd2@=>,0*32\r
+!AIVDM,1,1,,B,8000000Iv?>dq4O694uAuvB3BHp2C@idCsUwe<9KD@,4*4F\r
+!AIVDM,1,1,,A,402;bLQuho;NEPcKqTHOD9G000S:,0*2F\r
+!AIVDM,1,1,,B,E02E38A`60b37a6h5pr30ph@@@@08C;t??H?@00003v000,4*3C\r
+!AIVDM,1,1,,A,33aGrU@OhD0HpiNNL0BPUQmR1Psh,0*4A\r
+!AIVDM,1,1,,A,1696ptP0008JpslFCniLO@6f28=8,0*49\r
+!AIVDM,1,1,,A,402OHj1uho;NE1F7UfO?PeA00D1P,0*5C\r
+!AIVDM,1,1,,B,16:CgC`01A7q5OJ;RonC5jJb2<1P,0*1A\r
+!AIVDM,1,1,,B,16:FG?0026WpAI:;RlEb9H@b2<1a,0*18\r
+!AIVDM,1,1,,B,B69F?rP0Ij;g094Ar0@n7wb79P06,0*16\r
+!AIVDM,1,1,,B,169D2FP0008fIwtA<=Mh0:FcH@<j,0*4B\r
+!AIVDM,1,1,,B,169G1Vg00089CHh<nr<StoRcp8<e,0*7A\r
+!AIVDM,1,1,,A,169UB>00008LP3P>1?r@09nb20RU,0*74\r
+!AIVDM,1,1,,A,13UiLL0P001dJFHEe0LP0?vb05Ip,0*42\r
+!AIVDM,2,1,6,A,53m3if01w5SGTQAC>01H4hhDq@Tp400000000016;PP0@4ng0:SRBkkk0AEP,0*35\r
+!AIVDM,2,2,6,A,00000000000,2*22\r
+!AIVDM,1,1,,B,13aGE31P0mPHw36Md;gBq?vfRH=?,0*50\r
+!AIVDM,1,1,,A,4h3OvjAuho;NDo=cf0Knevo00PS:,0*1F\r
+!AIVDM,1,1,,A,4h3OviAuho;NEo?786KJU3700D1j,0*3C\r
+!AIVDM,1,1,,A,15@Vr6002a08k`PMHO@8h72d08=?,0*41\r
+!AIVDM,1,1,,B,143ri01P00RBFwPJn`>US?v`0000,0*7D\r
+!AIVDM,1,1,,B,133l4CPP10PDspbMCTSKWOv82D1W,0*7F\r
+!AIVDM,1,1,,A,13aFh;wP00P025VMe0T2cwvdR<7s,0*14\r
+!AIVDM,1,1,,A,14eMpV0P00L>eH>K=O;FSOvd0<0@,0*1A\r
+!AIVDM,1,1,,A,33@oI`hOh>0qbPlOu?KhGAtd20s@,0*4F\r
+!AIVDM,1,1,,A,402M4Iiuho;NF0o5I0V3CH700D0M,0*7B\r
+!AIVDM,1,1,,B,169msd00018Jr2PFCUgb@FDf08=:,0*7C\r
+!AIVDM,1,1,,A,33aC3VwP1QPDW=rMeCC:j?vf23H1,0*05\r
+!AIVDM,1,1,,A,14SRL`0005vqPKJ@58NlEPdd0UIp,0*7B\r
+!AIVDM,1,1,,A,13c>DT00001DfrDO=Nh03Sbf0<1K,0*3A\r
+!AIVDM,1,1,,A,15DS6f002?9wTpHD5h0a>7D`0m8d,0*2E\r
+!AIVDM,1,1,,A,13HUcA?P0KP3CfNM06VrR?vb2@=5,0*6B\r
+!AIVDM,1,1,,A,4h2=aCAuho;NDOUQrhQ6?aA008<G,0*3F\r
+!AIVDM,1,1,,A,15MnnEPP0pJe;<TGC3:hAgvf2H=?,0*3D\r
+!AIVDM,1,1,,A,19NSAn@01vO2H9p4mFrjEQmp0p=1,0*15\r
+!AIVDM,1,1,,A,15Ak1<0029vu9j852sS413>f0L1p,0*12\r
+!AIVDM,1,1,,A,15Utd@0001O0lFb5>V3WU`4d0@=5,0*35\r
+!AIVDM,1,1,,A,333v<FPP00PChoVMd:s=SgvdP6TC,0*51\r
+!AIVDM,1,1,,A,13EsReP001OWEf`DdiS9ET4`00SW,0*7D\r
+!AIVDM,1,1,,B,16:GEnP0008JtrTFCQGVha<V0>o2,0*41\r
+!AIVDM,1,1,,A,15AgRR002cwd>9tDbmb3<jRb0<<N,0*37\r
+!AIVDM,1,1,,B,144FV@?vh0a3P?REKu<h02ld2@=<,0*6C\r
+!AIVDM,1,1,,A,133jiOPP00PDJ;FMDId00?vdR8=B,0*64\r
+!AIVDM,1,1,,A,33pr<nSP@w12lTnNUVToNUt`014i,0*32\r
+!AIVDM,1,1,,A,4h2=aGiuho;NDOnVCvPd43Q00@<G,0*62\r
+!AIVDM,1,1,,B,13usMh000POj<78NULkn0Dt`0D0o,0*6B\r
+!AIVDM,1,1,,B,15Mu5Q0P01IT5P@A7sG7kwvd05Ip,0*63\r
+!AIVDM,1,1,,A,35N0Ef5P01ISI4rA7pD0hOvb0000,0*4D\r
+!AIVDM,1,1,,B,15MuJugP00qSfUtA8w:8tOvb25Ip,0*69\r
+!AIVDM,1,1,,B,15Mv7aPP00IRbAvA90Mt9Ovd0H=2,0*60\r
+!AIVDM,1,1,,A,15Mu6fPP00IT7`H@wJOsfOvd08=2,0*35\r
+!AIVDM,1,1,,B,15N0EhPP00IU1<VA8@kt2gvd0D5j,0*7F\r
+!AIVDM,1,1,,A,15MwcaPP00IT:M<A7uLqdgvf0<1W,0*0B\r
+!AIVDM,1,1,,A,133vtjPP0o0D@IbMDKDTCgvd2D7l,0*76\r
+!AIVDM,1,1,,B,15N1bO?P00ISu1pA5f<sK?vd05Ip,0*35\r
+!AIVDM,1,1,,A,15NMQJPP1BIT<SjA:c6JGgvf2<4r,0*4D\r
+!AIVDM,1,1,,B,15MwwagP00IRI7nA8J5bRwvd05Ip,0*5E\r
+!AIVDM,1,1,,B,15MudWgP02IRVlHA8UHK<Ovd0H=8,0*45\r
+!AIVDM,1,1,,A,15N8lOPP01IS6AVA7tRJNwvf0<3a,0*20\r
+!AIVDM,1,1,,B,35N0GtUP00ISjhPA4Tq<Bwvd0000,0*68\r
+!AIVDM,1,1,,B,1073FohP1OPGaSHMhaBD<wvd2@=C,0*35\r
+!AIVDM,1,1,,A,13uCDR00000nBF0Pw3Bd4P6f05Ip,0*54\r
+!AIVDM,1,1,,A,402R3cQuho;NF0o<l6Q0lCA00@=4,0*7D\r
+!AIVDM,1,1,,B,13a;An0vAfPlMb`Po;8=B:bf0@=5,0*45\r
+!AIVDM,1,1,,B,13uFk<0000PnMlVQ0hCMl4ld05Ip,0*61\r
+!AIVDM,1,1,,A,13Q6SR002TPkrPJPq=HE5T:d0<1n,0*0A\r
+!AIVDM,1,1,,A,13M4H600010nLdPQ0Tpc2krf0<1T,0*06\r
+!AIVDM,1,1,,B,139boES000PW<>@Na9eQUbLb2<1T,0*20\r
+!AIVDM,1,1,,A,148Onl0P000hL0DQ1`27Wgv`0PRM,0*0A\r
+!AIVDM,1,1,,B,369GGV0P@I8LPK`>1QwbvpN`0000,0*4A\r
+!AIVDM,1,1,,A,13aGCmPP0sPGhPpMaJ@DQwvd2H=D,0*65\r
+!AIVDM,1,1,,A,13IbN0?000PFn`hHmQs`7@Hf08=D,0*41\r
+!AIVDM,1,1,,B,402CuDQuho;NFwM9LLC>N5i028=C,0*59\r
+!AIVDM,1,1,,A,1>qc9ww000OkfS@MMI5004Rb0L0B,0*15\r
+!AIVDM,1,1,,A,133fDH0P010CQ5VMEPNn:wvb0@=D,0*75\r
+!AIVDM,2,1,6,B,58u<a<000001a;;C;J0mJ0<5E<EL5V1=E10hTE8N0`A3340Ht00000000000,0*38\r
+!AIVDM,2,2,6,B,00000000000,2*21\r
+!AIVDM,1,1,,B,13aFdTPP12PGRe8Mhs7EBgvf2H=D,0*39\r
+!AIVDM,1,1,,A,152J4lwP00IOmqnBR9Lrgwvf25Ip,0*78\r
+!AIVDM,1,1,,B,352MWj5P00IOv`vBQ0gIa?vd0000,0*23\r
+!AIVDM,1,1,,A,13pr@8P000QDt;rO<SfbCEBf0D1G,0*12\r
+!AIVDM,1,1,,A,13:E2B0001PiAt<R@u>:2Q0b0H=C,0*4E\r
+!AIVDM,1,1,,A,402=abiuho;NEwwdU<Nb@Bo000S:,0*10\r
+!AIVDM,1,1,,A,19NS?80000P0e1pLCVK74`6d0<1e,0*0B\r
+!AIVDM,1,1,,A,148NTj000100g>tLC=cbq8jf0H=C,0*37\r
+!AIVDM,2,1,1,B,53UUjF02>@`Q=QL>220miJ055D4l58TpF2222216;@F:74oV0=PPDPiC3kPH,0*28\r
+!AIVDM,2,2,1,B,88888888880,2*26\r
+!AIVDM,1,1,,B,181:KE002Q0csp8Hnh>LgJ9j0@0C,0*63\r
+!AIVDM,1,1,,A,24S8Dh5000PCSfBMH=jF=Tvb0<6P,0*05\r
+!AIVDM,1,1,,A,13M@DN@02a0dwvhHsVh5qTd00<0:,0*7A\r
+!AIVDM,1,1,,B,13dTP<92@0PQw12I1d0IREF205Ip,0*4F\r
+!AIVDM,1,1,,B,34W3?F50h0POkEbHqr=n;9R20E?r,0*73\r
+!AIVDM,1,1,,A,14hSM8?0000P;whHrPw=<SL000Rn,0*29\r
+!AIVDM,1,1,,A,13P7jb?P000P7RHHrjGP0?wl0d0I,0*17\r
+!AIVDM,1,1,,A,34`W075000PCBW`Me@<er;<d0000,0*52\r
+!AIVDM,1,1,,B,13P7nLgwP00P`9BHt818`BJ00PS`,0*6F\r
+!AIVDM,1,1,,A,144b4F0tATPW:4DNq3bJiHVd0l2v,0*34\r
+!AIVDM,1,1,,B,15DUrJ0028Pfh8@Hq>=SDRan0<1K,0*22\r
+!AIVDM,1,1,,B,13l;wJ0uR70RFk@Hfkl1E1;n0h0`,0*53\r
+!AIVDM,1,1,,B,13P:V90P000NHu>Hhc4IOOv22@0b,0*65\r
+!AIVDM,1,1,,A,15S1gJ0P1q0AT4DE:gLS@gv22<2e,0*25\r
+!AIVDM,1,1,,B,19NWsWh02E0Gqj4FJebAL160280i,0*05\r
+!AIVDM,1,1,,B,15DnAB002A0bRs:I1U<a@WKj05Ip,0*48\r
+!AIVDM,1,1,,A,13cj>W?0000SWhDI4SJrH2V40@10,0*2C\r
+!AIVDM,1,1,,A,14h?1e002LP?EChE>sf35RWn00SF,0*49\r
+!AIVDM,1,1,,A,3000000P@6PLI7`HW994J3R000vQ,0*26\r
+!AIVDM,1,1,,A,13lq:2?0000P7DNHrodQWm>205Ip,0*09\r
+!AIVDM,1,1,,B,33P7Vo50000Qw2nI1cph:5N40000,0*42\r
+!AIVDM,1,1,,A,13mAq`0P000J@h2QebpoJ?vf05Ip,0*09\r
+!AIVDM,1,1,,B,13lglH?P000PK<2HsNi00?wn0H1U,0*64\r
+!AIVDM,1,1,,A,33aI<3P000PD2c:MdmHk>m2dR02A,0*6D\r
+!AIVDM,1,1,,A,13QRst0000vqMv4@6`<VtUdf08=E,0*07\r
+!AIVDM,1,1,,A,15BBdR002t0aWW2ICRM4H3Sn05Ip,0*6A\r
+!AIVDM,1,1,,A,13P;@B02Ow0Qu3DI1@7f46t0081b,0*60\r
+!AIVDM,1,1,,A,23`ekA@P000CUf@MFW500?vb0D3w,0*6A\r
+!AIVDM,1,1,,A,19NSAn0004Pa>n@I=`<=eR:400S8,0*7E\r
+!AIVDM,1,1,,A,4030p7iuho;NEo:s4BKl@jW008==,0*7F\r
+!AIVDM,1,1,,A,4030p81uho;NEo;V:<KtT1G00<3h,0*64\r
+!AIVDM,1,1,,A,15Mw<Q0P00JjAA<G`>PWAwvf00Sr,0*10\r
+!AIVDM,1,1,,B,368sgS?Oh38cWAtEOb6H<8jd01oh,0*57\r
+!AIVDM,1,1,,A,18I6`T002``fk:<EcJ6TuT2`00SV,0*25\r
+!AIVDM,1,1,,A,16:I9B00008S1>L>q<vP01`d2L0@,0*5F\r
+!AIVDM,1,1,,A,403t>VAuho;NE`hpa<AJV>G00D=C,0*35\r
+!AIVDM,1,1,,A,403t=Liuho;NE`cwG8Amlv700H<m,0*2C\r
+!AIVDM,1,1,,B,13l=Q4002C0m>g@PlSt>1P0`0D2@,0*34\r
+!AIVDM,1,1,,A,B3uUHAP000=Glp8@;SH03wbUkP06,0*5E\r
+!AIVDM,1,1,,B,13mBbn001O0oLUHPP4d=DbVV05Ip,0*03\r
+!AIVDM,1,1,,A,4025bvQuho;NF0hJ3:Q2M3Q008=B,0*31\r
+!AIVDM,1,1,,A,13u?em0001Pnan4Q1=Dh0Wf`0@=D,0*7B\r
+!AIVDM,1,1,,A,36:dgP10008TNJhFmKE6N7Ld081h,0*58\r
+!AIVDM,1,1,,A,403t;4Auho;NE`VW4HD`0R7000S:,0*5C\r
+!AIVDM,1,1,,B,16:V4O@P1C86im`=>HGItgvb087S,0*13\r
+!AIVDM,1,1,,A,16KDQR0001b0Au@DFwhVLTnf0H==,0*29\r
+!AIVDM,1,1,,B,B6:fT=P0021oLlSCGL@=3wbWQP06,0*68\r
+!AIVDM,1,1,,B,16:D@t0P0187NhJ=<rA@0?vb08NG,0*02\r
+!AIVDM,1,1,,B,15PoSb002c7o=qd;Quks48rf08<u,0*50\r
+!AIVDM,1,1,,A,403t?H1uho;NE`QBfh>EjB700D2v,0*78\r
+!AIVDM,1,1,,A,369GCfgP?w<tSF0l4Q@>4?wp0RuA,0*47\r
+!AIVDM,1,1,,A,16KVjoh01oawk=BD;fvdg::f0@=?,0*45\r
+!AIVDM,1,1,,B,14SBpR0000PHLTlHkF?KoaW<20Ro,0*34\r
+!AIVDM,1,1,,B,169`K2P0008gH2P@wbCP0:Ber<1N,0*4D\r
+!AIVDM,1,1,,A,13aFdQ0P000Cu86MEbmlQgvb0@=G,0*1D\r
+!AIVDM,1,1,,A,15>wd`002f0d34DI2OW58D6h0<2@,0*26\r
+!AIVDM,1,1,,A,16KDRGh01uawTWvD@RH80FJf28=A,0*4E\r
+!AIVDM,1,1,,A,15Mj3HP01Wo?c3<K<I=;Qa8f0@=D,0*1B\r
+!AIVDM,1,1,,2,133g<UPP00P@ierM>rgh0?vdR8=H,0*08\r
+!AIVDM,1,1,,B,33M@<v5000OjLS8Qh945Jb4d0000,0*1C\r
+!AIVDM,1,1,,A,13aBNc0P1L0GFkHMjDH5m?vb08=H,0*00\r
+!AIVDM,1,1,,B,23@QU<000FPCRrVMFcW`1Vhf0D>U,0*66\r
+!AIVDM,1,1,,A,13aDA`hP00PD=0RMDGIKjgvdR0R@,0*70\r
+!AIVDM,1,1,,A,13aGuogP00PD<btMdMTh0?vd2@=H,0*53\r
+!AIVDM,1,1,,B,169<rfPP008K2lvFCM1bQOvf08=B,0*0A\r
+!AIVDM,1,1,,B,13PP2d001t0r:<pOjhOnlmPb00S3,0*3F\r
+!AIVDM,1,1,,A,13Id7N0000wnpk0M0tR40C>`05Ip,0*3C\r
+!AIVDM,1,1,,A,601uEO@oWh>2048100,4*7B\r
+!AIVDM,1,1,,A,13aFfjhP1HPGRuFMViWjw?vd25Ip,0*13\r
+!AIVDM,1,1,,B,13aEP2hP00PRhvBK>eHDRwvL2<0f,0*5C\r
+!AIVDM,1,1,,A,169pkIS0008Jp:<FCeq6F@hf0H=C,0*04\r
+!AIVDM,1,1,,A,13M@DF0000OdefBLmRLqC1@`0D0N,0*57\r
+!AIVDM,1,1,,A,15QWF@001IwqcS0M6ttU54<b08=I,0*51\r
+!AIVDM,1,1,,B,B3`el<h0085ik87Ktv@03wc5kP06,0*7F\r
+!AIVDM,1,1,,A,13et9T03AwO0J:049WNTeCld05Ip,0*00\r
+!AIVDM,1,1,,A,19NWuDh038qkLJ<;kIhhB0>T00Rt,0*52\r
+!AIVDM,1,1,,B,139eaiPP19PD>gHMbNeDS?vdR@=J,0*25\r
+!AIVDM,1,1,,B,13@4Uf000e0W5R8NaphLvrHb05Ip,0*64\r
+!AIVDM,1,1,,A,15NHOsg00Sqt=gBFHqV5clPf05Ip,0*28\r
+!AIVDM,1,1,,A,16K2<E@02@awjanD8f7GR5vf0D5J,0*46\r
+!AIVDM,1,1,,B,33mL6G500011jupVP0iP0DJ00P00,0*7E\r
+!AIVDM,1,1,,B,33aBN>hPAV0H`34MaltH7VNfPQ2h,0*28\r
+!AIVDM,1,1,,A,13P<<6OP02OhFA4Nt?k0<?vd28=J,0*79\r
+!AIVDM,1,1,,A,13QWlL001mP3CE2M0jAIWWhd2L2q,0*27\r
+!AIVDM,1,1,,A,13aDCP0P00PD1eFME2Lu`gw20@=K,0*33\r
+!AIVDM,1,1,,B,15NLPaPP01ISl:NA4cNKSwvd05Ip,0*08\r
+!AIVDM,1,1,,B,6h2E:p18RcmP04<0@00000000000,0*3B\r
+!AIVDM,1,1,,A,13aH00PP00PHKqVM`:p@0?vdR@=K,0*27\r
+!AIVDM,1,1,,A,169>QMP0148VcmDERQj3H2df00Sj,0*25\r
+!AIVDM,1,1,,B,169w3P00008F0i4=FgM@05Ber0Sq,0*4F\r
+!AIVDM,1,1,,A,16:ITt001Q8hFlPEPW0D?3Hd25Ip,0*10\r
+!AIVDM,1,1,,B,403tDGl47wk?0<tSF0l4Q@000VHt,0*67\r
+!AIVDM,1,1,,B,169MBl0P0087nOf=4qpGl?vd05Ip,0*62\r
+!AIVDM,1,1,,A,16:gS<0P1e8i14fB21>MhOvb0em4,0*18\r
+!AIVDM,1,1,,B,B6:fOf0`0B1m?A3CKGt03wbVkP06,0*51\r
+!AIVDM,1,1,,B,14`afE5P0087L4l==O@;:?vb0UIp,0*05\r
+!AIVDM,2,1,6,A,544cQFP2:wUUD9@G800dPthltLu9T0000000001600000<nA0:4hBCU841E1,0*04\r
+!AIVDM,2,2,6,A,DThUDQh0003,2*41\r
+!AIVDM,1,1,,A,16:>;10P1;8cIghB3fado:@b00SF,0*28\r
+!AIVDM,1,1,,B,16:D1<gP0187C:D==WW@0?vd05Ip,0*34\r
+!AIVDM,1,1,,B,36:FDb00008Of;2>;bU@0:4d0RvA,0*1F\r
+!AIVDM,1,1,,A,403t9QAuho;NF`ST1TFmUVW00<3F,0*39\r
+!AIVDM,1,1,,2,133ubGPP000A3J0M>SMbi?vd05Ip,0*7B\r
+!AIVDM,1,1,,A,13P<`5OP@2052U0ML9i0BALf05Ip,0*56\r
+!AIVDM,1,1,,B,133u8l80000Ck8TMFtL:=Hpf0D:0,0*5D\r
+!AIVDM,1,1,,A,402=WIiuho;NFP6NJPMIWeW00L31,0*06\r
+!AIVDM,1,1,,B,13aH00PP1EPGkuBMhGK;SwvdRKtv,0*0E\r
+!AIVDM,1,1,,A,13QQFH000sOs9UHM1em=j:nf08=G,0*12\r
+!AIVDM,1,1,,A,402<HcAuho;NE1RTavT:iLi00@=L,0*37\r
+!AIVDM,1,1,,A,13aC2b8P00PDOaFMdR`30Ovb20Ro,0*3E\r
+!AIVDM,1,1,,A,15Mwt;0000G?hB:KAMCK10vb00Sj,0*5C\r
+!AIVDM,1,1,,B,14RCQn50000A0>pML=n1E1hT0UIp,0*73\r
+!AIVDM,1,1,,A,13AhSp0000PhM:PQ1cQqwifd0D10,0*7B\r
+!AIVDM,1,1,,A,13UPFd0021PjJ;8PwWHm?DDb0PS7,0*7F\r
+!AIVDM,1,1,,A,16TwjF001hawpe@DBDIq;7Dd2<5K,0*12\r
+!AIVDM,1,1,,A,16K2As@000awSjTD9pfo:;2f0@=G,0*3A\r
+!AIVDM,1,1,,B,13aDrSPP11PChAfMdGQT?gvd2H=M,0*54\r
+!AIVDM,1,1,,B,13q5DnCP00PVoU8NQ<0P0?vd28=4,0*03\r
+!AIVDM,1,1,,A,13dVEH00008K5u0FF0leB9>`0@=G,0*0E\r
+!AIVDM,1,1,,A,13c::t001vPH14<NPbe:o8``0@=@,0*2C\r
+!AIVDM,1,1,,A,402OSf1uho;NF1CsuhOGtfA005Ip,0*51\r
+!AIVDM,1,1,,A,13cW4S0P000evCPI<V=WRgvdH8<n,0*6B\r
+!AIVDM,1,1,,A,13n;0D002=0J;``Qguq5PTNb0D0r,0*52\r
+!AIVDM,1,1,,B,15Mq48P00lG?pLJK>Q1o0UTf05Ip,0*32\r
+!AIVDM,1,1,,A,13aEQMSP0kPDerBMd`KBtOvdRD:H,0*08\r
+!AIVDM,1,1,,B,13bmj@04BC0BOQPMh7KL7qnf00SC,0*70\r
+!AIVDM,1,1,,A,233vr3gP1fPCjVdMEtw@QOvdR5Ip,0*11\r
+!AIVDM,1,1,,A,139N4gP02sJnof8G<E?JMpJd00Rv,0*48\r
+!AIVDM,1,1,,B,13@nj4P000PqaChOpH6`whjf0H=O,0*64\r
+!AIVDM,1,1,,B,133mVFgP05PD=@pMDPUWqwvd25Ip,0*33\r
+!AIVDM,1,1,,A,14eGuuP001t>hjFK>1ndvWPf28=N,0*4E\r
+!AIVDM,1,1,,A,13a2GR002W09Je2MNEq8WFth0@=O,0*13\r
+!AIVDM,1,1,,A,13P88QPP1vOj=OJNTpd7fOvh00Sj,0*48\r
+!AIVDM,1,1,,B,15NGq1P000ISPcnF=jHr4@:`08=M,0*32\r
+!AIVDM,1,1,,A,13P;19P01JOjnRLMM4`2SR2d05Ip,0*04\r
+!AIVDM,1,1,,A,16::12PP?w<tSF0l4Q@>4?wv0PS?,0*76\r
+!AIVDM,1,1,,B,16SWoj?P00a3PF>EKMiMe66d2@=G,0*58\r
+!AIVDM,1,1,,A,83aJFg@j2d<dd=<LthQhKhOU0000,0*36\r
+!AIVDM,1,1,,A,402;bLAuho;NF0cc?4H;WGG005Ip,0*16\r
+!AIVDM,1,1,,B,13UaA001B3wCG1hEiG?=Q:rd00Sn,0*11\r
+!AIVDM,1,1,,A,13ODJn7000wrddNRK@<dk:Jd2cj7,0*35\r
+!AIVDM,1,1,,B,13fiCr7001OMRN@OQ`c:Fi<d0<03,0*1E\r
+!AIVDM,1,1,,B,13aGs1hP00PGg<tMhQISugvfR0Sg,0*79\r
+!AIVDM,1,1,,A,38Infd5P0112iIPNUAo9wgvgP000,0*72\r
+!AIVDM,1,1,,B,133mvW0P00PD=mFMDOO48wvb20RW,0*5B\r
+!AIVDM,1,1,,B,13aGEq?P0o0Pa3PMOcM43wv`20Rp,0*0D\r
+!AIVDM,1,1,,B,13P<KiPP0t06rqrMIu@Hcgvf0Grc,0*51\r
+!AIVDM,1,1,,A,13M@Glh0?w<tSF0l4Q@>42Sp0PRi,0*76\r
+!AIVDM,1,1,,B,13aGCVhP03PD@OjMdLCj<?v`R5Ip,0*59\r
+!AIVDM,1,1,,A,13aDoPhP00PCmi<MEl5KoOvd20S3,0*67\r
+!AIVDM,1,1,,B,13aGEGPP01PGJ4dMi9fRKwvf28=R,0*6F\r
+!AIVDM,1,1,,A,13cWw97P0110WwrGFwAFaOvV05IpQ0Cv5c,0*2A\r
+!AIVDM,1,1,,A,36:KqH10008LeeDFBB9TPD8f0000,0*3B\r
+!AIVDM,1,1,,A,13`e>3hP000D<7bMdJ=00?vb0@=R,0*63\r
+!AIVDM,1,1,,B,133jpT70000>ajhMGQJTaaJf0@=R,0*46\r
+!AIVDM,1,1,,2,13aFeN0P00PA7HbM?QJr:?vf2@=S,0*25\r
+!AIVDM,1,1,,A,16KPcs801U9TPgPCb7>2PQtd0`=9FlMv:@,0*78\r
+!AIVDM,1,1,,A,33ew5402iowwtR8O0Fm<Wb4d0000,0*22\r
+!AIVDM,1,1,,B,133uPVPP0pPH4HtMaW7C@?vf2D3P,0*42\r
+!AIVDM,1,1,,B,16:@ejPOh=8LRa8>2SV0TArV0D2p,0*5C\r
+!AIVDM,1,1,,A,13u>>:gP00PrEffP2RAr`gvf2<0V,0*47\r
+!AIVDM,1,1,,B,133olv0000PBkePMg4hWsSTf05Ip,0*22\r
+!AIVDM,1,1,,B,16SWW;P01?a3T@0EKA`A:hrd20S<,0*15\r
+!AIVDM,1,1,,B,13KQ8R0000QjAW0RKBpVkIPd2@=S,0*3D\r
+!AIVDM,1,1,,B,15NH7IPP0OG@EfJEiennj?vb0D0k,0*6F\r
+!AIVDM,1,1,,A,168tHLg01S8RtHtCpI0D7CHd08=8,0*25\r
+!AIVDM,1,1,,A,169DA2PvA08SBA`Cpkk2P20d2<3S,0*29\r
+!AIVDM,1,1,,A,13bW`0002:0@OCHMTG8cE9@b0<7?,0*22\r
+!AIVDM,1,1,,A,16:BM`0P008VTnrERA4u4Ovd08=>,0*47\r
+!AIVDM,1,1,,A,169@;L0006`V1jBES:gPPCjf05Ip,0*3E\r
+!AIVDM,1,1,,A,169DCU0P008STDBFn9Dpqwvd08HH,0*2A\r
+!AIVDM,1,1,,A,13aC20hP000CgN0McWQ@0?vbPL3w,0*7D\r
+!AIVDM,1,1,,A,403t=Jiuho;NE8h>=fAm`?o00<@?,0*53\r
+!AIVDM,1,1,,A,15MmEg0000qSbbVA7QBqcoff0L5Q,0*54\r
+!AIVDM,1,1,,B,15MwuMPP0eISt9rA8`mqqgvd0@=A,0*5E\r
+!AIVDM,1,1,,B,403OvwAuho;NFqfjilAQ4>?028=B,0*44\r
+!AIVDM,1,1,,B,15NNEcPP00ISd>nA3mE:tgvf2L4a,0*61\r
+!AIVDM,1,1,,A,33=ct<1000qTC10A610:QCtf0Dnr,0*72\r
+!AIVDM,1,1,,B,15NLov0P00qSg7bA7p2;G?vf2<4q,0*66\r
+!AIVDM,1,1,,A,403OvwAuho;NFqfjilAQ4>?02<:I,0*4F\r
+!AIVDM,1,1,,A,15NNSlPP0UIRM0dA89CqMwvd0@=M,0*20\r
+!AIVDM,1,1,,A,13aFfPhP00PD1UDME@:c7gvd2H=S,0*7E\r
+!AIVDM,1,1,,A,13ciDJ0P1J0vq26GGG6:vOvd00S7otsv5c,0*44\r
+!AIVDM,1,1,,A,4h2=aPiuho;NCObS6tNP?8A008;g,0*69\r
+!AIVDM,1,1,,A,13aEODwP00PGJjTMiQSDlOvJR8=T,0*31\r
+!AIVDM,1,1,,A,H7P<1>4UB1I0000F=Aqpoo2P2220,0*3A\r
+!AIVDM,1,1,,A,18;IgN0Oi@awJqdDB85SwkHf0@=O,0*03\r
+!AIVDM,1,1,,A,133sHAgP00PD7S6MDW0P0?vf28=T,0*5E\r
+!AIVDM,1,1,,A,142Lat00010e0bPI??:r2A<f05Ip,0*0A\r
+!AIVDM,1,1,,B,33P93;gP@6OiDIlNW634vWJ`01uh,0*7D\r
+!AIVDM,1,1,,A,139cN:PP19PDIWvMb83kEgvdR5Ip,0*5F\r
+!AIVDM,1,1,,A,85PH6L1Kf:Jg:t2aPAa3sTI88SGTR0W5F4MFl7AumHdAMnNIABQK,0*19\r
+!AIVDM,1,1,,B,13aGuU0P0@0HT24M`J5t:Ovf0<0m,0*09\r
+!AIVDM,1,1,,B,133iCgP000PD:PvMDrne0bFf05Ip,0*0F\r
+!AIVDM,1,1,,A,15MwU?P001Je<gHGADn<E3@f05Ip,0*53\r
+!AIVDM,1,1,,B,33m:q<0PAO0JK:HQiba96oBb0000,0*69\r
+!AIVDM,1,1,,B,13aENKcP00PD3;dMdJBifOvJR<9`,0*27\r
+!AIVDM,1,1,,A,133tn1PP00PCk>bMGb<SS?vd25Ip,0*5F\r
+!AIVDM,1,1,,B,13aBNTPP1G0E>LhMa6SIMgvbP8=U,0*39\r
+!AIVDM,1,1,,B,14eGmkg03pG;feHL6mS9AGFf0<2q,0*33\r
+!AIVDM,1,1,,B,14eGMFPP01G<MQ6L=mWoPOv`05Ip,0*48\r
+!AIVDM,1,1,,A,4h2=aB1uho;NEOhRkPQTWii00D0I,0*04\r
+!AIVDM,1,1,,B,13@noC@P010qgqDP4:8EUgv`0<0w,0*6B\r
+!AIVDM,1,1,,A,402=WIQuho;NFP5Ss4MaCK700H=M,0*79\r
+!AIVDM,1,1,,B,15MwVn0P00ISPo@F=ncrtOvf00Sr,0*28\r
+!AIVDM,1,1,,A,10bVMf0P00PDGppMDK5PFgvd28=V,0*7E\r
+!AIVDM,2,1,1,B,53:DCJ02@<FWD98C:21L58puN0l5=@E:22222217CpEC64qG0BA0H3PCQr5R,0*7F\r
+!AIVDM,2,2,1,B,AE3PCJH8888,2*30\r
+!AIVDM,1,1,,B,33u?eoP90EPmviDPw>jSNBbb00th,0*2F\r
+!AIVDM,1,1,,A,402R3c1uho;NF0pf1NPcHaA00<0a,0*0D\r
+!AIVDM,1,1,,A,15Pm<;hP01JmwBVGcoQncOvV08<L,0*65\r
+!AIVDM,1,1,,B,15MwVH0000JjA=bG`DosUi@f05Ip,0*62\r
+!AIVDM,1,1,,B,91b55vRAivOnAWTM05?CNUP20<6F,0*67\r
+!AIVDM,1,1,,B,133qA7PP1HPDOBfMdi<9KOvf28=V,0*25\r
+!AIVDM,1,1,,A,16K8A;@02@:08RpDBWcQf1Jb0`=M,0*06\r
+!AIVDM,1,1,,A,13a?rf000hPGp80N=@r5I4Hf05Ip,0*42\r
+!AIVDM,1,1,,B,143tf0000`2Hub@IQ=v5mTvf00SG,0*17\r
+!AIVDM,1,1,,A,13q5Dr@P?w<tSF0l4Q@>4?wpP0Sv,0*5D\r
+!AIVDM,1,1,,A,13aJFhhP0nPInJ:MdR@l4wvf2D7;,0*3E\r
+!AIVDM,1,1,,B,13aSwp00040Ct;8MEfb;caPh0D>7,0*62\r
+!AIVDM,1,1,,A,15Mj3<0000o?J6TK;q9;4Vjd0D1e,0*3D\r
+!AIVDM,1,1,,A,13aFfe0P00PDTH2Me2@@0?vf2L7v,0*60\r
+!AIVDM,1,1,,A,19NWobh00a00eKvLCe;jH1lb00SJ,0*3E\r
+!AIVDM,1,1,,B,13aGu80P00PGE2NMif800?vg2@=W,0*4E\r
+!AIVDM,1,1,,A,36K2EFh000awBELDB8n9d6Vf06mkrvwv6p,0*14\r
+!AIVDM,1,1,,A,133mhPPP00PCvDpMEUtIG?vf20T9,0*74\r
+!AIVDM,1,1,,A,14SWdT000twh1MlN`@BCDjhd0p=`,0*0C\r
+!AIVDM,1,1,,A,13454`0000P153FLCUupbC6d0<<B,0*0E\r
+!AIVDM,1,1,,B,13aFdewP1IPHE:nMakvcMwvf2D1i,0*01\r
+!AIVDM,1,1,,A,14R6q@003H09HN8MO2JHWFpdb<4t,0*13\r
+!AIVDM,1,1,,A,14QIG<59AwKF@D@:L8vI3W>V0d05,0*1F\r
+!AIVDM,1,1,,A,14hP>603@2sGVD`:S@1=tRHd00Sr,0*2A\r
+!AIVDM,1,1,,A,34`;@f0P@8KGVu4:PL8l>jbb2000,0*7B\r
+!AIVDM,1,1,,B,23P:lP?P@FPCS94MFeCWwVUp0d<e,0*25\r
+!AIVDM,1,1,,A,16K8DCh000aw?3tDBM2976hf2H=7A8Wv6p,0*42\r
+!AIVDM,1,1,,B,13qACf001AQErB8O9CNstaTf0D1M,0*79\r
+!AIVDM,1,1,,B,33u=L?POhE0n=PRPw`RsDHbb00uA,0*13\r
+!AIVDM,1,1,,B,13u=aO0P000m4VRQ7pgh0?vd0<0>,0*4A\r
+!AIVDM,1,1,,A,802R5Ph0Bk@Ch@Fln:Ga10k`M7wwwwwwwwwwwwwwwwwwwwwwwwwwwwwwwwt,2*2F\r
+!AIVDM,1,1,,A,4030pCQuho;NEo=DhfL9PwW00L2P,0*32\r
+!AIVDM,1,1,,B,34eGTqPOhbG;pV4L7?M3b0nf00oh,0*39\r
+!AIVDM,1,1,,A,15TKaD0000o<UWjL=0PVrmVf05Ip,0*77\r
+!AIVDM,1,1,,A,14eGME@P1EG;cCrL;oalfOv`00Rq,0*4A\r
+!AIVDM,1,1,,A,15Tbb@0001o;vw0L=UtIB3Jh0D3@,0*1F\r
+!AIVDM,1,1,,B,19NWqOU000G<Ql0L<wM4JSR`00S>,0*21\r
+!AIVDM,1,1,,B,13eOQR002@o;IBPL6Hr@=P@h00Ri,0*0D\r
+!AIVDM,1,1,,B,14eGMDhP02G<JV@L=f`rwwv`08=1,0*01\r
+!AIVDM,1,1,,A,402;75Quho;NE0I`oVHf587005Ip,0*02\r
+!AIVDM,1,1,,A,33aGt2OP00PHM6DM`5v00?vfRBm3,0*71\r
+!AIVDM,1,1,,A,133fUQPP01PClajMEOn45wvd2D6m,0*60\r
+!AIVDM,1,1,,B,34Vc4N04QR0@d20MKe82RR@`00r1,0*76\r
+!AIVDM,1,1,,B,402PeFQuho;NEOH`:2EFK;i00@=3,0*48\r
+!AIVDM,1,1,,B,369I4sP01F86L9F<P=2jtR4d016i,0*1C\r
+!AIVDM,1,1,,A,16:F3000008OMp`><m`5sBnd0@=8,0*00\r
+!AIVDM,1,1,,B,169S@H8P0289?@<<nLcVBb4b08=;,0*3B\r
+!AIVDM,1,1,,B,16:Cr``P1C`h7R@@o?>0owvP2d21,0*53\r
+!AIVDM,1,1,,A,403t?hQuho;NE`PH`F>?4K7008=B,0*71\r
+!AIVDM,1,1,,A,16KDQR0001b0Au@DFwhVLTnf0H==a:sv6p,0*31\r
+!AIVDM,1,1,,B,133k1PgP00PDIBbMDHFJb?vd20RJ,0*4C\r
+!AIVDM,1,1,,B,13P<a@hP00P6PL8MGgE00?vf2<0I,0*60\r
+!AIVDM,1,1,,B,13msSa90000oD;pV39TW>V6h05Ip,0*07\r
+!AIVDM,2,1,8,B,54RK:802<l?iK8tSH008u=Dp000000000000001603@0P4aD0APTQCADR0EQ,0*79\r
+!AIVDM,2,2,8,B,CP000000000,2*3C\r
+!AIVDM,1,1,,B,D02200AdhBfp00C6EGe@1qG0R9I,2*0D\r
+!AIVDM,1,1,,A,402E3TQuho;NF0BHJvMKkPQ00@=c,0*56\r
+!AIVDM,1,1,,A,16K8Cbh000awi7LDI3@d2Q8f2D3`,0*2D\r
+!AIVDM,1,1,,B,13tuE<00010sPDdOlwIK8jHh05Ip,0*75\r
+!AIVDM,1,1,,A,15MwcH0P00IS61VA7ri<3Ovf00Rk,0*1C\r
+!AIVDM,1,1,,A,15PNN<0w01qS3KN@cGvq3:`b05Ip,0*48\r
+!AIVDM,1,1,,A,15MsuLPP01IRQFVA8F>ciOvf05Ip,0*16\r
+!AIVDM,1,1,,A,15MkupPP01ISGINA91S`Awvf08=V,0*65\r
+!AIVDM,1,1,,A,133mPOSP?w<tSF0l4Q@>4?wv00Rc,0*0F\r
+!AIVDM,1,1,,A,133j?PPP000D=GTMDwJ=H?vbPPRo,0*1F\r
+!AIVDM,1,1,,A,16KDP9PP01b0O2TDGQ:9dOvb0L2=,0*20\r
+!AIVDM,1,1,,B,13`emK@P000DWFpMeDrh0?vd0D3w,0*5A\r
+!AIVDM,1,1,,,13aIkJwP00PI`dHN8LC@0?vf20Sg,0*0E\r
+!AIVDM,1,1,,2,13ss=20P00PA6JdM>NO`B?vf20Rb,0*7C\r
+!AIVDM,1,1,,A,13uBIAPP0w0sOCVOm1gS@?vh0@=e,0*2B\r
+!AIVDM,2,1,6,B,53M@<v027n4<lhe3T00D58j1@Pu8HTpp0000000t10U6540007jjDRmhC3>S,0*79\r
+!AIVDM,2,2,6,B,SlU282Dk1Di,2*70\r
+!AIVDM,1,1,,B,13aDCK?P1HPG2?tMg;:aSOvf25Ip,0*0A\r
+!AIVDM,1,1,,A,133p;vbP00PCmojMDcFmSgvd20SO,0*1A\r
+!AIVDM,1,1,,A,15MusF3P01IRoH>F3F>71Ovf00Sr,0*3A\r
+!AIVDM,1,1,,A,14WcEh002j0av7TI:w3<Hapf00Rk,0*2B\r
+!AIVDM,1,1,,A,13aDCNhP?w<tSF0l4Q@>4?wv0d;i,0*6A\r
+!AIVDM,1,1,,B,14hi4>?000PIcJ8Hdp;0viBb08=d,0*15\r
+!AIVDM,1,1,,2,13aEP:PP00PA628M??qLjOvdR<24,0*1B\r
+!AIVDM,2,1,1,B,85NoD`1Kf22sSa=B1fqHVps2P@B1mj@?iM9M5P8mcUh,0*11\r
+!AIVDM,2,2,1,B,Gmo<LMv`9,0*43\r
+!AIVDM,2,1,2,B,85Mwqb1Kf0ATNPbf:SeRehN9uQHI@1tCd`KGrs6l<et,0*2A\r
+!AIVDM,2,2,2,B,T>N;lTaNU,0*4A\r
+!AIVDM,1,1,,A,13P<A50000wnKLpPdgqVh`<`0L0V,0*68\r
+!AIVDM,1,1,,A,13aGEf0P0wPD286MDf7CUOvfRD7t,0*6A\r
+!AIVDM,1,1,,A,1399V:301KQ1OJnNomcQsiTb05Ip,0*54\r
+!AIVDM,1,1,,A,13aGtL?P00PJrMNNSIjP0?vf2<0M,0*3C\r
+!AIVDM,1,1,,B,339LcO0POw<tSF0l4Q@>42Gv0P00,0*69\r
+!AIVDM,1,1,,A,10N6fQ0P1<PD;eFMcuoU>wvfR5Ip,0*6F\r
+!AIVDM,1,1,,B,13o5j2000g8VeD0DaSkS0RJd05Ip,0*33\r
+!AIVDM,1,1,,B,D02VqLQe@Jfp00K6EFAJ>5FUK6E,2*77\r
+!AIVDM,1,1,,B,15N5fVP00`qO8wBBFWHM0:8h00Sk,0*5D\r
+!AIVDM,1,1,,A,13CsGSTP0S8dBKDF?OJh6?vd00SF,0*6C\r
+!AIVDM,1,1,,A,13bR0`0wP1P6m3pMQ4j7F3fb0@=e,0*06\r
+!AIVDM,1,1,,A,19NSAL01BJO0rCP45Wh4uT2`0<0d,0*08\r
+!AIVDM,1,1,,A,13P:W4?P0hOiAwhNVrsc>gvf20Rj,0*6B\r
+!AIVDM,1,1,,A,15SPL@00000=L5nMD:tqfath2<28,0*1E\r
+!AIVDM,1,1,,B,33aDBG001NPD4nlMdNU3q34fP000,0*29\r
+!AIVDM,1,1,,A,377Vo<5000`K7elFCHP4W9>`0000,0*19\r
+!AIVDM,1,1,,A,13nEii9000Pi7:6RAv60=@fh0<0N,0*66\r
+!AIVDM,1,1,,A,139w?h00000hNWNQ1h;W5GLl1`RV,0*51\r
+!AIVDM,1,1,,B,133fKJ00000C`b8ME@va0HPh08=h,0*78\r
+!AIVDM,2,1,8,A,53pr=NT1s`c==4iJ220tAU<EE=b222222222220P1pD454SF0<Qi6CR@H888,0*0F\r
+!AIVDM,2,2,8,A,88888888880,2*2C\r
+!AIVDM,1,1,,A,19NSAn0004Pa>mtI=`A=eR<d05Ip,0*35\r
+!AIVDM,1,1,,B,13`hokh0000Gol0NQuG9C3lf05Ip,0*65\r
+!AIVDM,1,1,,B,13aGsv@P00PGCJRNOj09tOvf28=K,0*6D\r
+!AIVDM,1,1,,A,33`qQ8?OhL0HmITNROClHn0f012h,0*55\r
+!AIVDM,1,1,,B,33aDqKhP00PD?`:Md3k@6gvfR3<C,0*1D\r
+!AIVDM,1,1,,A,13q5DN@P00Q1MsBNncAp5wvbR@<m,0*01\r
+!AIVDM,1,1,,A,13b:A6002HP7=?fM@9JptG>h00SB,0*08\r
+!AIVDM,1,1,,A,13MFkj0021wcvhfDajlC=2bh0@=a,0*08\r
+!AIVDM,1,1,,A,13IeUW0OiKP0S5DLCks4aChh05Ip,0*28\r
+!AIVDM,1,1,,A,13400J001ROwdcLO1;l=0bHf0D0o,0*09\r
+!AIVDM,1,1,,A,13@umj54P`0CgRJMGT5:tq4f0D8?,0*5E\r
+!AIVDM,1,1,,B,168sVhPOh08K2nvFCLmu@rHf0@=c,0*2A\r
+!AIVDM,1,1,,B,33prUMUP0iPUH;VNb6af3gvf02vQ,0*3F\r
+!AIVDM,1,1,,A,64R:gF00UBf004@0@2000020000002000000000,2*18\r
+!AIVDM,1,1,,B,13aB:A0P1IPC?D2MeOj6Q?vf2<7T,0*15\r
+!AIVDM,1,1,,A,13M4L000000nJhDQ0OioC``h0<1u,0*52\r
+!AIVDM,1,1,,B,13P<Gp@0040DppbNdGdTHRQL00RE,0*53\r
+!AIVDM,1,1,,A,15Mo930010qvIt6F?hP70U`h0L07,0*67\r
+!AIVDM,1,1,,A,13M@BKS00MOkKllMO4l8r78h00R`,0*14\r
+!AIVDM,1,1,,A,13aGD@gP00PDR8dMdnUjL?vf2<7w,0*7E\r
+!AIVDM,1,1,,B,368t0>U0008VelTDaHjck8Jf2000,0*2D\r
+!AIVDM,1,1,,A,15OSTb7P00G?gP:KAVuK0?vf05Ip,0*5B\r
+!AIVDM,1,1,,B,13sO5PP01iOGD@8F2MjoL0<h00S`,0*55\r
+!AIVDM,1,1,,A,13sO55?P01OEq5@F91Th;?vb05Ip,0*26\r
+!AIVDM,1,1,,B,83aGCwhj2d<dte><N29Pqg`08LP0,0*64\r
+!AIVDM,1,1,,A,4h2=aQiuho;NEOpiMpLwBdQ00@<w,0*42\r
+!AIVDM,1,1,,A,16K2=t@01jb0bW:DGWdQWQ@h2D5;,0*50\r
+!AIVDM,1,1,,A,333sf9PP00PCMpjMF<A00?vf2BmC,0*7A\r
+!AIVDM,1,1,,A,16K2:A001ub037:DB9Iih1Lh05Ip,0*55\r
+!AIVDM,1,1,,B,13?tFH00010eS1lN`R9I2:Lf0D39,0*68\r
+!AIVDM,1,1,,A,B3`hBuh00052goWE0b<03wcUkP06,0*3C\r
+!AIVDM,1,1,,A,33tssF020jPn=JDQ0KUBeB8f2120,0*04\r
+!AIVDM,1,1,,A,13aIkFPP00PFq<`MeIgP0?vf2<1M,0*21\r
+!AIVDM,1,1,,A,13aEP5hP00PO2qHMqI94O?vL20S`,0*4A\r
+!AIVDM,1,1,,A,B69r:2P0028dKt4v8P`7wwc04D00,0*4E\r
+!AIVDM,1,1,,B,13aFf5wP00PD=LlMdojcP?vf20Rw,0*6A\r
+!AIVDM,2,1,5,B,576sFl01t1=EI98n001@4U06000000000000000`0pF724000;R2sC@@,0*4E\r
+!AIVDM,2,2,5,B,hEH000000000000,2*77\r
+!AIVDM,1,1,,A,16:@v:3P008S2jVCoo`v4?vb0<2:,0*5F\r
+!AIVDM,1,1,,A,16`VgV0P058W0uVDUjo@Dwvd0L1h,0*6F\r
+!AIVDM,1,1,,A,169`NL00008d<PvAtCoCHC@d2<80,0*4F\r
+!AIVDM,1,1,,A,169AVO`P008dWuBAtdN1uOvf0D?l,0*6F\r
+!AIVDM,1,1,,B,16:fT@?P0087Vgh=;Kk@0?vd0<09,0*2D\r
+!AIVDM,1,1,,A,168uHN0k00`dB>BApIrQIgvl40=K,0*16\r
+!AIVDM,1,1,,A,16:=THP01c8gH?NAhgHCdRNd28=N,0*4E\r
+!AIVDM,1,1,,A,169wdd0v@1`caW<ENtkS?`<d0h=F,0*32\r
+!AIVDM,1,1,,B,168uS3P0008F?cr=G?jh00Dd28=I,0*26\r
+!AIVDM,1,1,,A,16:=LM0P1C8VWlhEQ`HS:gvd05Ip,0*14\r
+!AIVDM,1,1,,A,13T>HV0OjQ1d5pNEc<tW<5h`0@=m,0*52\r
+!AIVDM,1,1,,B,13b:t4002d1QmmdR2duS<RNb0h<e,0*0C\r
+!AIVDM,1,1,,B,13aJHGPP1@PHDRbMg:VlQOvfRL43,0*23\r
+!AIVDM,1,1,,A,13aEPjPP00PD9onMDQ2quOvf28=m,0*7D\r
+!AIVDM,1,1,,A,140Utk0P000Cr1lMdau2Ugw2Ph=m,0*75\r
+!AIVDM,1,1,,A,169pWVP000`K6N`FE0BGWnRh08=g,0*5D\r
+!AIVDM,1,1,,B,1:1RV0003>0H;c:Hedd=6JLh0L0i,0*51\r
+!AIVDM,1,1,,A,14QsF:@00=00;udO0Kk0@BNh05Ip,0*5D\r
+!AIVDM,1,1,,B,33aDoj0P00PCW3>MHGSSJOvf205A,0*0D\r
+!AIVDM,1,1,,B,13aBNS0P1F0DT6>Me>C`uOvdP5Ip,0*67\r
+!AIVDM,1,1,,B,15Mi8L0035o=qRHEWel4W3`h0H=i,0*21\r
+!AIVDM,1,1,,A,15Mw:;0P00INp3hBUt<L2?vf00S<,0*34\r
+!AIVDM,1,1,,A,139c3mOP00PWtd0NIR:lsOvRRH:V,0*75\r
+!AIVDM,1,1,,B,18Ua4200000WqQ0NIIN=30VT0D0u,0*64\r
+!AIVDM,1,1,,A,139gdm0000PWMa@NJuULU:4T0<0b,0*21\r
+!AIVDM,1,1,,A,139d09PP00P`aQbNFmeVFOvVRD05,0*7E\r
+!AIVDM,1,1,,A,139`iS?P0wPVs8BNLS=UH?vV05Ip,0*32\r
+!AIVDM,1,1,,A,4025;NAuho;NDP`V3dNG3KO020S:,0*06\r
+!AIVDM,1,1,,B,139a:AUOh30Wtk0NI3V1WABV00SU,0*5A\r
+!AIVDM,1,1,,A,139bu7gP000``vlNFpL00?v`00Se,0*0B\r
+!AIVDM,1,1,,A,33`h00UP?w<tSF0l4Q@>4?wv0lbJ,0*07\r
+!AIVDM,1,1,,B,139beW0P000Wp@hNID8P0?v`PD0c,0*64\r
+!AIVDM,1,1,,A,139dmj?P00P`?wbNGkAGwwvbRH<v,0*2B\r
+!AIVDM,1,1,,A,10D:sugP00P`ae8NFj>DcwvdR8=A,0*6C\r
+!AIVDM,1,1,,B,13M@Cn@02dwUlqhQ<8R;caFb0@=T,0*75\r
+!AIVDM,1,1,,B,233WuF0OiNPCihfMEtvotFHf0<75,0*28\r
+!AIVDM,1,1,,A,13aGuJhP000DQf0Me;2h0?vf0D7v,0*15\r
+!AIVDM,1,1,,A,A04757QAv0agH2JdGqD`5OkQsU8Nw`Sg7hsv0w10,0*6F\r
+!AIVDM,1,1,,A,13mCUL0Oj10tHTlOV0QSdjrf2t0A,0*05\r
+!AIVDM,1,1,,A,13LBaDgP011Qm64R=C0sB?vh25Ip,0*04\r
+!AIVDM,1,1,,B,139Lcp0P1RPTNBTKpd:MpOvfRD0L,0*73\r
+!AIVDM,1,1,,B,33P;M1qP@3P7dE2MK<vlVAfh00Ti,0*10\r
+!AIVDM,1,1,,B,13lglH?P000PK<2HsNi00?v`00Ra,0*44\r
+!AIVDM,1,1,,A,15N0NlPP00ISffnA869<j?vf0<1n,0*56\r
+!AIVDM,1,1,,A,15N1?40P00IShQlA4IPavwvf0<4c,0*3E\r
+!AIVDM,1,1,,A,15N4hEP000IR:SlA9v1rTqhh0H=e,0*43\r
+!AIVDM,1,1,,B,15NOBv?000qSeLpA33Wcn:@f00Rw,0*42\r
+!AIVDM,1,1,,B,13`spOnP1;PI4sPN52hI>gvf20S6,0*77\r
+!AIVDM,1,1,,A,133ntcPP00PD3A:MEwo`i?vdP8=p,0*23\r
+!AIVDM,1,1,,A,13IV8b0P0009UG:M>8Rh0?vd0<3w,0*04\r
+!AIVDM,1,1,,B,13u>=<?P011BhqjQteSW2gvb08=C,0*70\r
+!AIVDM,1,1,,A,13aJHP0P1MPDdCPMdhDLjwvf2<7w,0*62\r
+!AIVDM,1,1,,B,13:nRl0w02PawN@Nn>K3do:f00Rc,0*40\r
+!AIVDM,1,1,,A,33uPGH?000Pr4tFP4KT6m54d0000,0*62\r
+!AIVDM,1,1,,B,14h@HK01AsGSJhhC8Dve<rRh05Ip,0*02\r
+!AIVDM,1,1,,B,13eop8001j0l7EnPqADt<aff08=`,0*26\r
+!AIVDM,1,1,,A,33u=dR0PAQPnQGvQ0o@ogUt`013Q,0*12\r
+!AIVDM,1,1,,A,4025bvAuho;NE0jV7:Pi?jA00L3J,0*2B\r
+!AIVDM,1,1,,B,13u?kOPP000mwtTPuUCh0?vd08=d,0*54\r
+!AIVDM,1,1,,B,13c4vr0000Pn@kHQ0W28:`Kp0PS@,0*07\r
+!AIVDM,1,1,,A,13uF36P000Pn=@lPw`8Mum0h0H=n,0*04\r
+!AIVDM,1,1,,B,14eGEE0000G<jH@L7dF3SRRd05Ip,0*7A\r
+!AIVDM,1,1,,A,133iA0PP00PDRn<MDOI3V?vf20S3,0*3C\r
+!AIVDM,1,1,,B,13aGCm@P0>0D9uJMDQ6a?OvfPH=p,0*79\r
+!AIVDM,1,1,,A,14t2cl0000PhM9JQ1bqh7T2b00Su,0*62\r
+!AIVDM,1,1,,A,13@oT5OP000h@5PPoLD9Ogvj0D11,0*46\r
+!AIVDM,1,1,,A,4h2=aLAuho;NFP5Su6MaCIo008=h,0*09\r
+!AIVDM,1,1,,A,13iCv4002=032?TMMuV3bk0d08=o,0*0E\r
+!AIVDM,1,1,,A,16@BmN002TP8uK:MGpD1Ii:h08=q,0*33\r
+!AIVDM,1,1,,B,13ciul002Q0fI>`HsNj<:9jh05Ip,0*08\r
+!AIVDM,1,1,,B,1001?3@P00OQPv<CVf3h0?vd08=o,0*52\r
+!AIVDM,1,1,,B,333rO?gP00PCsGLMEihqm?vhR2pA,0*2D\r
+!AIVDM,2,1,1,A,53aGuU4000010C;33L04l4hT40000000000000152@C2;t0Ht0;KH3@DQC`2iD,0*67\r
+!AIVDM,2,2,1,A,liC000000,2*53\r
+!AIVDM,1,1,,A,14eGQ@PP00FcB5tO4BdAL?vd0D0C,0*4C\r
+!AIVDM,1,1,,B,13aD@U0OhsPHmE@McMF19i2PR<3I,0*31\r
+!AIVDM,1,1,,B,139a220000PeJU>N`kvLQBrh08=r,0*5A\r
+!AIVDM,1,1,,A,369quRSOh=8S:M>CpNTHW`Df00r1,0*10\r
+!AIVDM,1,1,,A,33`enkmP00PD=L`Me5n=g?vh0P00,0*76\r
+!AIVDM,1,1,,A,1>qc9ww000OkfS@MMI5004Rd0H00,0*65\r
+!AIVDM,1,1,,B,15PcR8001TJ581p?k493uk<f0<0=,0*34\r
+!AIVDM,1,1,,2,13`rWL?0000AO>tMGWe:j4fb08=t,0*3C\r
+!AIVDM,1,1,,A,13nCKH00000IsSPQh`EqQh`h08=t,0*1E\r
+!AIVDM,1,1,,A,13aDpg0PAFPFirtMaj4CuS;>PD5r,0*49\r
+!AIVDM,1,1,,B,13@o6;?P00PjsHLPk9?rH?vh28=f,0*50\r
+!AIVDM,1,1,,B,33aBNVPP000DFc6MdT?P0?vdP001,0*17\r
+!AIVDM,1,1,,,33AeTN300007dCRMoMK5qV8`0000,0*46\r
+!AIVDM,1,1,,A,36K8Do@OisawL=HDB3PDLkdh019A,0*32\r
+!AIVDM,1,1,,2,13aGEJwP00P@pBbM?6SRngw825Ip,0*24\r
+!AIVDM,1,1,,A,16K8DOP000awqTnDHO9tK:<h00Rr,0*6F\r
+!AIVDM,1,1,,B,13aENn0P00PH1rjMaSg00?vf2cw7,0*54\r
+!AIVDM,1,1,,A,14`WU>022gwWLJdOM<?aOWbb0h;u,0*04\r
+!AIVDM,1,1,,A,4vjHC6Auho;NDwUOdHOHevW008<?,0*08\r
+!AIVDM,1,1,,A,13c`EJ0P000e0FtI?:F@0?vd05Ip,0*74\r
+!AIVDM,1,1,,A,16K2?h0001awConDB=5c?qTh00S5,0*23\r
+!AIVDM,1,1,,B,14RC6P00000e5GNI:hJ`@Ubh05Ip,0*2C\r
+!AIVDM,1,1,,A,239K6?50010CTGTMH5gad:Tf05Ip,0*0A\r
+!AIVDM,1,1,,A,11OGPwwP00NqIBd@6SFP0?vd05Ip,0*6C\r
+!AIVDM,1,1,,A,402HWMQuho;NFONdoJOc:nQ008=O,0*71\r
+!AIVDM,1,1,,A,13aI:bwP00PGr0<MaPmh0?vf20SJ,0*67\r
+!AIVDM,1,1,,B,133UQ650000>gOhMGl0Sh1n`0PS8,0*34\r
+!AIVDM,1,1,,B,16:B5T00008Lb0VFB<e`Fl8f0<7s,0*4A\r
+!AIVDM,1,1,,A,33P<W00001wh1``NsM9Ln`Df2000,0*29\r
+!AIVDM,1,1,,A,13aGv=0P10PK2C@MAgj9K?vf2@=s,0*62\r
+!AIVDM,1,1,,A,139hJ90P00PD>`FMe6AR3wvhRD77,0*2B\r
+!AIVDM,1,1,,B,139L3J00000oG18Nw;aIfSth00SU,0*3F\r
+!AIVDM,1,1,,B,13P:T4C3A7Opn4NM0I@i`1Nd00RW,0*63\r
+!AIVDM,1,1,,B,33:vN`1P000CRhhMwN=eN@Jb0000,0*0D\r
+!AIVDM,1,1,,B,13M@DG0000OdmdTLlwabI;0`0@=o,0*0B\r
+!AIVDM,1,1,,A,139dP>?P00Q1MCRNnbpuWwvdR<0V,0*39\r
+!AIVDM,1,1,,B,33aDpfhP010D9@JMDC7:f?vh26S3,0*0C\r
+!AIVDM,1,1,,B,13u=:PPP001D55DQwK`h0?vf00S6,0*2B\r
+!AIVDM,2,1,2,A,55O;2F000001L4KSWW8<tpHT@Dp<D000000000000`K835lFjN4i@E531@00,0*52\r
+!AIVDM,2,2,2,A,00000000000,2*26\r
+!AIVDM,1,1,,B,13aC4h?P000CvMRMd>GP0?vd05Ip,0*0D\r
+!AIVDM,1,1,,A,13aI9fwP00PO30@MqJ900?vfRKw?,0*19\r
+!AIVDM,1,1,,B,13P7gohP0lwiHohNtD`Dggvh2H=w,0*09\r
+!AIVDM,1,1,,A,4025bp1uho;NG0oQTTP5cFi00L1u,0*69\r
+!AIVDM,1,1,,B,13e1gB0000Qd;;:EeHn9h36f00RC,0*7C\r
+!AIVDM,1,1,,A,402R3GAuho;NG1BvVBQtrNi00D1r,0*51\r
+!AIVDM,1,1,,B,402M4L@000Htt12>B0VPVH700`Ik,0*3C\r
+!AIVDM,1,1,,A,16K8DMP001awCUHDB>vI2Q0h2D4k,0*67\r
+!AIVDM,1,1,,A,15Mlt20P00ISc9`A6Kw>3Ovd00Sw,0*3A\r
+!AIVDM,1,1,,A,13P;nFOP@1P7RaHMK2i1FhJh05Ip,0*49\r
+!AIVDM,1,1,,B,13aENOhP00PD30`MdJRPCwvfR@>0,0*14\r
+!AIVDM,1,1,,B,133veScP00PCc@vM?hr9rOvh28>0,0*57\r
+!AIVDM,1,1,,,19t6hQhP1607UMPMlpshegvT08<T,0*6E\r
+!AIVDM,1,1,,,13M@>s001O07Q3PMeh70gPf`2`<`,0*16\r
+!AIVDM,1,1,,B,33cUpi0qQL0g6nDHrSmQ?Pld0PvP,0*69\r
+!AIVDM,1,1,,B,402FhL0000Htt000000000000H08,0*79\r
+!AIVDM,1,1,,A,133n@RPP00PCt5NMF0nregvTR<7p,0*59\r
+!AIVDM,1,1,,B,13bIIn0000PL=VrNTWerji6f08=l,0*7E\r
+!AIVDM,1,1,,B,13@08T002HPJ5Q<Neveajoph05Ip,0*7B\r
+!AIVDM,1,1,,A,19NSBI032p0FmttO0Ee7o6Jf0PRd,0*29\r
+!AIVDM,1,1,,B,13bV6F7P130IFILNULf<Mgvf0@=v,0*30\r
+!AIVDM,1,1,,A,169DQQPP007kdT`;CwJ84?vh05Ip,0*04\r
+!AIVDM,1,1,,A,13bPv>?P0E0CqN0Md6;6<?vh00SB,0*26\r
+!AIVDM,1,1,,B,15O;2F8P?w<tSF0l4Q@>4?wp0l1T,0*2E\r
+!AIVDM,1,1,,B,13prTQP001PqbTHOp9Nc4a2h25Ip,0*04\r
+!AIVDM,2,1,7,B,A02V?Hib3Qba00@1Gh=h3OnGwP@Nw6447iOuPg`L5?lOwj<4w?t2<@ct:OAf,0*5B\r
+!AIVDM,2,2,7,B,4?hm0i47w8WuCP00,0*38\r
+!AIVDM,1,1,,B,13aI8a?P07PFEQrMaAPhlgvLP5Ip,0*76\r
+!AIVDM,1,1,,B,13aBK=wP000CsblME@t00?vd05Ip,0*76\r
+!AIVDM,1,1,,A,13aENH0P0g0Dc84Mdl9nLgv<05Ip,0*65\r
+!AIVDM,1,1,,A,15BLI`0000awUqHDCmn5o1td0dSr,0*75\r
+!AIVDM,1,1,,2,13`emm0P000A3d@M>VR00?vdP<20,0*60\r
+!AIVDM,1,1,,B,13aJH0h01L0HCRJNQhlB=1dh05Ip,0*17\r
+!AIVDM,1,1,,A,13aEPAHP00PFrMJMeK0LFwv<2@>3,0*71\r
+!AIVDM,1,1,,A,6h2E:p<jK8cR0>80@00000000000,0*27\r
+!AIVDM,1,1,,A,401uEPQuho;NG0Cl<8MEq@i005Ip,0*25\r
+!AIVDM,1,1,,A,13uSbD002VPsCA>OSjwQCA4h08>4,0*53\r
+!AIVDM,1,1,,A,13GR5GgP0000o0tLDT>5FOvh0<1<,0*1E\r
+!AIVDM,1,1,,A,139ee;1P0wPHF96Mag6DjOvhR<0=,0*30\r
+!AIVDM,1,1,,B,13bPrD0P0D0CTv<McwjbPgvh05Ip,0*1E\r
+!AIVDM,1,1,,B,15R<ld?P130i1R`R@g;2nOvh0<0;,0*34\r
+!AIVDM,1,1,,B,13P:oA000:ww7=`NcqLuw0vh0<1W,0*55\r
+!AIVDM,1,1,,B,169D>A@P?w<tSF0l4Q@>4?wp0`=g,0*64\r
+!AIVDM,1,1,,A,13aDpDgP00PCqoFMde>5fwvfR@>5,0*16\r
+!AIVDM,1,1,,A,33P;HUm0010fpI0I6<69>94B0000,0*6E\r
+!AIVDM,1,1,,A,138KTn001;0UOS@NhaSUATDd0<38,0*2D\r
+!AIVDM,1,1,,A,B69>Ww00=j;j<TUGHpdk3wc4kP06,0*10\r
+!AIVDM,1,1,,B,13sO3IP000OFKa4F7N2AN3Dh0D11,0*7F\r
+!AIVDM,1,1,,A,15DggD002@wC7I8EpGB=V:tb00SK,0*4D\r
+!AIVDM,1,1,,B,13P;GbP02vOASH`FTvmG4mbh0D18,0*58\r
+!AIVDM,1,1,,B,369pWf0P@G8K9i4FCCid:9lh00kh,0*67\r
+!AIVDM,1,1,,B,39NWvkh02;OAHPTFK`1FhUTf00`1,0*7C\r
+!AIVDM,1,1,,A,16:BL;P000`eqQtA88V@tBff20Rv,0*58\r
+!AIVDM,1,1,,B,16:D3F0:15`5ogh<O?bk>1Dd2L1<,0*0B\r
+!AIVDM,1,1,,A,36:?v=P01B8Q13P>C>M=H:dd0Ru1,0*22\r
+!AIVDM,1,1,,A,169ULEP000`LOsJ>1@KKQbhf0L2T,0*16\r
+!AIVDM,1,1,,B,16:@Rv0P008fJkhA;3`h0:>d00Sb,0*2B\r
+!AIVDM,1,1,,A,13P<FD?P02Oh@dlNuE5Thgvf2<0O,0*39\r
+!AIVDM,1,1,,B,168tdp00058fg8JA6Ue73FDf0<73,0*1B\r
+!AIVDM,1,1,,B,169r9M80008fMHLA;TWP09sF0d8=,0*46\r
+!AIVDM,1,1,,B,169w9R0vh189Al@<nil33:Lf05Ip,0*0F\r
+!AIVDM,1,1,,B,168uBfP0008f97DA7:8:O:@f28=U,0*40\r
+!AIVDM,1,1,,A,12wP7k0P168Liq0=tKGDRgvf20S5,0*25\r
+!AIVDM,1,1,,A,1691wtwP008LU2n>3m36h?vh2<38,0*59\r
+!AIVDM,1,1,,B,169DaJP0038ft`DA:>bPbI<f0<6?,0*1A\r
+!AIVDM,1,1,,B,16975;0P0385djR<dqMp6gvh0D25,0*38\r
+!AIVDM,1,1,,B,16:;BQ`P00``quT@0NrVIgv`0@=b,0*5D\r
+!AIVDM,1,1,,B,B6:iU3h0022C3d3=kch03h3TSP00,0*79\r
+!AIVDM,1,1,,A,169FEigP00`LM`p=whfP0?vgj@=a,0*48\r
+!AIVDM,1,1,,B,13aGFbOP00PIHkFMalwqWgvfR<3w,0*0A\r
+!AIVDM,1,1,,A,233e:qPP00PD1`FMDderTwvf28>6,0*72\r
+!AIVDM,1,1,,A,19NT01P00PWKD`00fEe:KRvf00S5,0*1E\r
+!AIVDM,1,1,,A,139F1bPP0pPVsBvNRBwqfOvf28=c,0*3C\r
+!AIVDM,1,1,,A,33P<GptOhjwgA`LNuEHInpJh01?P,0*14\r
+!AIVDM,1,1,,B,13aDpEhP00PG8rTM`QpLTgvfRD3t,0*34\r
+!AIVDM,1,1,,A,13aDqJ>P000JsdnMA2H<D?vVRD15,0*54\r
+!AIVDM,1,1,,A,33aGD7nP000Hm?@NK`g<HOvf2Dnr,0*64\r
+!AIVDM,1,1,,A,16KDRGh01uawTWvD@RH80FJf28=AsJGv6p,0*00\r
+!AIVDM,1,1,,B,36:WKb5001PD;ChMDkAPPbDf0000,0*07\r
+!AIVDM,1,1,,A,13aEPihP1EPL48bMHI;irOvf2D0J,0*38\r
+!AIVDM,1,1,,A,402FhaQuho;NH0dsmvI=k?Q008>5,0*3F\r
+!AIVDM,1,1,,B,13M@BJ@0010D=PtMdqD<j:Hh2L8m,0*45\r
+!AIVDM,1,1,,,13P:Kn0000062P`Mf9;phmDd0D2G,0*53\r
+!AIVDM,1,1,,2,333hFkUP00P@iOtM>s9ph?vdRDrb,0*6E\r
+!AIVDM,1,1,,A,13aDphPP1aPG87fMacJag?vd2D1U,0*0B\r
+!AIVDM,1,1,,B,133hsQg01A0Cp<HMEQvEgThf05Ip,0*65\r
+!AIVDM,1,1,,A,14RsH`002;ac<9TClpm5e4Tf05Ip,0*28\r
+!AIVDM,1,1,,B,16:BHt8000`VCL<D`s?uQmLf2L2q,0*5D\r
+!AIVDM,1,1,,B,14eHA0wP00FcCvnO4dGFQwvh0D0>,0*79\r
+!AIVDM,1,1,,B,13P:Rg0P00OvgfFNh>7@0?vd08>8,0*1A\r
+!AIVDM,1,1,,A,16TwjF001hawpe@DBDIq;7Dd2<5KJEwv6p,0*5A\r
+!AIVDM,1,1,,B,15N1c70001JrmuvH?G:eJ62h0H=e,0*34\r
+!AIVDM,1,1,,A,401uEPQuho;NF0Cl=BMEqAQ00D8?,0*29\r
+!AIVDM,1,1,,A,13P<>ngP01OgALnNuEJ`bwvh05Ip,0*06\r
+!AIVDM,1,1,,A,339gjs5P00PWBFvN`Wcp6gvd2DVr,0*0A\r
+!AIVDM,1,1,,A,16K8CvP02qawjTnDAifI<GHf0<4P,0*7C\r
+!AIVDM,1,1,,B,24SaQh500F0Cu5FMErn:47vf05Ip,0*2F\r
+!AIVDM,1,1,,A,13aJH@OP1BPGfpbMaQ6;cgvh28>:,0*6C\r
+!AIVDM,1,1,,A,152HiUgP00JrjgvH@0Btr?vf0<0E,0*3A\r
+!AIVDM,1,1,,B,23cAs2000FPE3fLN1Fv3Ijfh0@>:,0*18\r
+!AIVDM,1,1,,B,133lJ;PP00PS4u4K<tD1hgvh2@>;,0*6F\r
+!AIVDM,1,1,,A,13aI:D0P00PDPC:MdSWh0?vh25Ip,0*45\r
+!AIVDM,1,1,,A,23aFfl0P00PCR>>MEBB@0?vh20S1,0*12\r
+!AIVDM,1,1,,A,13uCVg3000Pr59hP4Juf3B6b00RC,0*6F\r
+!AIVDM,1,1,,A,403Ovl@000Htt<tSF0l4Q@100d0G,0*7A\r
+!AIVDM,1,1,,B,15O6t`0Oi:GJ2apCbwc;58hh2@>2,0*33\r
+!AIVDM,1,1,,A,15Mtb10Oh?Je1u2G@>4Fjj4h08>4,0*2C\r
+!AIVDM,1,1,,B,13aDpBhP00PD=HrMcuwQTOvfR8>:,0*03\r
+!AIVDM,1,1,,A,19NSBP000G9cr86ClghdJT0f00S2,0*1D\r
+!AIVDM,1,1,,A,16K8A;@02@:08RpDBWcQf1Jb0`=M:?Wv:A,0*59\r
+!AIVDM,1,1,,B,13aDoj@P00PCq5jMjhdQeOvTR0S0,0*59\r
+!AIVDM,1,1,,A,D02E35QsDg6D000000000000000,2*62\r
+!AIVDM,1,1,,B,133lStgP000Dw5vMm0Ks`wvf20Rq,0*26\r
+!AIVDM,1,1,,A,402E35Quho;NEPCOD8Mki0G00<4G,0*17\r
+!AIVDM,1,1,,A,13urO@002w0jDIfQ2ds4LSVd0D1W,0*27\r
+!AIVDM,1,1,,B,13uCVMP0000nVFDPv6UqEH@h0<0w,0*3A\r
+!AIVDM,1,1,,A,13lbov000l0n=lhQ0Kj2ij:f08>9,0*2A\r
+!AIVDM,1,1,,A,168u=pPP@W8RwWhCp:bsW8nb0<2?,0*6E\r
+!AIVDM,1,1,,B,177ngw002RwC0=8F6oa=Q:nf05Ip,0*17\r
+!AIVDM,1,1,,B,16:I8HP0008EDBl=JS1P02Vf20Ri,0*18\r
+!AIVDM,1,1,,A,16KPj:@02?b0;vbDBiBiqQNf0D4<,0*5A\r
+!AIVDM,1,1,,A,16KVnDh02wawaC<DA7v`eVtd85Ip,0*30\r
+!AIVDM,1,1,,A,17bHe60PAdawjMVD9>M`=Alh20Rv,0*4B\r
+!AIVDM,1,1,,A,16K2;J001Wb04ALDFbvbb`Rb05Ip,0*5E\r
+!AIVDM,1,1,,A,16K2=tP000aw>PVDBMNd1aRh0@>7,0*2D\r
+!AIVDM,1,1,,A,139K8WP2000eJIhN`kp@0Bff0<3U,0*08\r
+!AIVDM,1,1,,B,15D37n001M2>DiUfsFe9i7lb08>5,0*5B\r
+!AIVDM,1,1,,A,13aIgwOP00PG:q4N7Omh0?vh2@><,0*39\r
+!AIVDM,1,1,,B,33n1tD5P0=0KH3BQLeNkBgvf2000,0*0A\r
+!AIVDM,1,1,,B,13aDom0P0nPD?FFMDMhcHOvf2000,0*4F\r
+!AIVDM,1,1,,B,83aDoj0j2ddteLd=P1GPS?rl3900,0*6C\r
+!AIVDM,1,1,,A,13@shv0000QC2NlQu:WskoRj2<0o,0*5C\r
+!AIVDM,1,1,,A,13HOW>0P0100Q;6LD>hCk?vb0<16,0*21\r
+!AIVDM,1,1,,B,1CUWvv00?w<tSF0l4Q@>4:mp0000,0*14\r
+!AIVDM,1,1,,A,139L6C000=PTBa@NjuTKT9@H0@=i,0*41\r
+!AIVDM,1,1,,B,13aDqrhP00PCSWnMcdJS2gvfR0R8,0*5E\r
+!AIVDM,1,1,,,13c<rf0000P6gIdMQorVf8<`05Ip,0*6B\r
+!AIVDM,1,1,,A,13GgGp?P0UP2pE@LwIwj?Ovf2@=n,0*00\r
+!AIVDM,1,1,,B,13aDCGUP1`PG2QfMaWBs>Ovf2D2M,0*62\r
+!AIVDM,1,1,,A,401uEPiuho;NG0CdMBM@0MA00D3O,0*4B\r
+!AIVDM,1,1,,A,13fJn@P0150CnwhMF;r<t:Fb05Ip,0*68\r
+!AIVDM,1,1,,A,13q6@d0P0012k88NUck<hwvf0H>?,0*16\r
+!AIVDM,1,1,,B,38;GnH5000PEnePMwU`ec:dd0000,0*0C\r
+!AIVDM,1,1,,B,13cWbm8P000eWULHvQO00?vf0H><,0*1A\r
+!AIVDM,1,1,,A,13prUP0P000qbV8Op9Vrjwvh25Ip,0*11\r
+!AIVDM,1,1,,A,36K2DrPOjKabIRvCjCLCijnf00Ri,0*69\r
+!AIVDM,1,1,,,18Hsn8SP02P8=86Mj;vq0Ovd28==,0*25\r
+!AIVDM,1,1,,,33P<f4CP@AP8;IBMjD37rjDf0000,0*4E\r
+!AIVDM,1,1,,B,14eGMH@P02G<JDnL=h1u4wvb0D1A,0*00\r
+!AIVDM,1,1,,A,14eGeLPP00G<c6rL=3quLwvf0@=l,0*38\r
+!AIVDM,1,1,,A,14eGLvgP00G<RrJL9j;PK?vf08=m,0*55\r
+!AIVDM,1,1,,B,14eGuAPP?w<tSF0l4Q@>4?vh00S;,0*19\r
+!AIVDM,1,1,,B,14eGI=@000G=NRTL:=J75DNh0L2;,0*20\r
+!AIVDM,1,1,,A,14eGLt0P00o<O7@L9ddJf?vh2L2K,0*4D\r
+!AIVDM,1,1,,A,14eGLvOP00G<c4BL=4B<oOvf0D2C,0*44\r
+!AIVDM,1,1,,A,13aJHMwP0pPFfLvMalACs?vh2@>@,0*3B\r
+!AIVDM,1,1,,A,143q?F0P00RBKFTJo7B@0?vf00SQ,0*3C\r
+!AIVDM,1,1,,B,1:07NIPP00PRvPFK=T9@0?vh25Ip,0*38\r
+!AIVDM,1,1,,A,133p?pPP00PD:BPMdF;@0?vhR@>@,0*7D\r
+!AIVDM,1,1,,A,14eGP=PP00G1:l<L1JuqS?vh28>;,0*3E\r
+!AIVDM,1,1,,B,13aGsKPP00PDTIPMe9<AjOvh25Ip,0*09\r
+!AIVDM,1,1,,A,4028nBiuhoHtt<tSF0l4Q@700t1H,0*49\r
+!AIVDM,1,1,,A,133ma5P0000Cj9rMG48DpbNf0D<P,0*7C\r
+!AIVDM,1,1,,A,16K2:A001ub037:DB9Iih1Lh05IpDugv:A,0*0E\r
+!AIVDM,2,1,0,B,53c6=202AV4i09Pn220H4U90h5V1PUJ22222220l1H>757?P0?820DPSmDU5,0*18\r
+!AIVDM,2,2,0,B,As@E8888880,2*10\r
+!AIVDM,1,1,,B,13=I`D5P008VjStDanJJewvf0UIp,0*24\r
+!AIVDM,1,1,,A,19NS1G00080D40lMdeHi4hlj08>A,0*11\r
+!AIVDM,1,1,,A,4028j7iuho;NDOV`nhDauqG00<4W,0*19\r
+!AIVDM,1,1,,A,E0000@@cFsJP000000000000000?ic;M:SRhp00003RP10,4*4B\r
+!AIVDM,1,1,,A,4028nBQuho;NEwRP`dE1HUG000S:,0*11\r
+!AIVDM,1,1,,A,13EieTg000OvTa8FTdt9;Rcf0L1W,0*17\r
+!AIVDM,1,1,,A,13=<TH0000OvSspFT21`cVMn0<2c,0*6A\r
+!AIVDM,1,1,,A,4028j:Quho;MqOvPkdFl:VG00D2q,0*3C\r
+!AIVDM,1,1,,A,4h2=aQ1uho;NGOj00@NW7Oi005Ip,0*55\r
+!AIVDM,1,1,,,13aGtUP01GPIWNlN8=HIs7rhR<0>,0*6C\r
+!AIVDM,1,1,,A,339e?E5P1<0GKHNMaV4Ti?vjR2<1,0*6F\r
+!AIVDM,1,1,,B,15NHNQg00KquO0DFG2Ho<Ubh0@>?,0*2D\r
+!AIVDM,1,1,,B,13oTC:501f0Jr;4QobD6LU8f00RV,0*5D\r
+!AIVDM,1,1,,A,16:epf@P148KRMhFCv:T7?vh@H><,0*78\r
+!AIVDM,1,1,,A,16:FDl801d`VLG0DQJO94Vnh0D3V,0*79\r
+!AIVDM,1,1,,A,13oGfN81P011ja@VP1A009uF0`J3,0*53\r
+!AIVDM,1,1,,B,13aDquhP1PPFH9RMaef9RgvhR<56,0*3A\r
+!AIVDM,1,1,,A,15Cf4<001hawgoND7CsGL5th08>9,0*68\r
+!AIVDM,1,1,,A,15AG;t002203t>pLpF02uRFh2@=p,0*1C\r
+!AIVDM,1,1,,A,16K8Dr@000awHh0D<9vCCWFh00Rv,0*78\r
+!AIVDM,2,1,9,B,533u`1T00000uCCS7V1<Tp`tu:2222222222221S000004U<?00000000000,0*5F\r
+!AIVDM,2,2,9,B,00000000000,2*2E\r
+!AIVDM,1,1,,A,13aGG20P0?PD:u2MDRkJqOvjR@>C,0*46\r
+!AIVDM,1,1,,A,A04757QAv0agH2JdGrH`7wru0U40vocuF@?s4h1G,0*06\r
+!AIVDM,1,1,,A,19NWsSP02lrejEDFT<=W2m`j00Rr,0*64\r
+!AIVDM,1,1,,B,16:F32PP008VQLjDbKFRcE`d0@>=,0*6E\r
+!AIVDM,1,1,,A,33sAG27P0MwEl>DEahC`0wvh2C8k,0*4B\r
+!AIVDM,1,1,,B,139aKF00010qb3vOpOPaH6Lj0D1m,0*24\r
+!AIVDM,1,1,,B,13aGuEEP1EPJJ:DNTg92uOvj28>?,0*25\r
+!AIVDM,1,1,,B,168s64002`0H1ArNWtP2kjBj05Ip,0*59\r
+!AIVDM,1,1,,B,133sVfPP01PD>hNMDH?SJ?vh28>D,0*6C\r
+!AIVDM,1,1,,A,13HV:8?P0IP38oJM0DkJTgvf28=p,0*2C\r
+!AIVDM,1,1,,A,16K8Cvh000b1FvpDGU6TOVHd00Sb,0*1C\r
+!AIVDM,1,1,,B,16:@aC?0008g524A2C8eAJnf2L3K,0*71\r
+!AIVDM,1,1,,B,169FWN000089KqV<o:uls:2f0H=o,0*6E\r
+!AIVDM,1,1,,A,36K2;iPPAHawM2tDC68r1ovh2170,0*23\r
+!AIVDM,1,1,,B,15MwOnP000ISf8TA5DHM:RBd05Ip,0*0D\r
+!AIVDM,1,1,,B,15MwW7PP00IT8RjA80vrHgvh0<2=,0*19\r
+!AIVDM,1,1,,B,15NIoAPP00IT8HnA80J;4?vh2D5H,0*2D\r
+!AIVDM,1,1,,A,15NIRC0P00IS0sHA7uV03gvf0D0o,0*4F\r
+!AIVDM,1,1,,A,15N1n0P001qR5JtA:QG8?SRd00Rr,0*65\r
+!AIVDM,1,1,,A,169Caw?P018LSIR>2PnCvwvf2<0m,0*2C\r
+!AIVDM,1,1,,A,16:FG2`P198Qg2H>Du4iqwvf2D1?,0*58\r
+!AIVDM,1,1,,A,169ESq?0008LNN`>0c72<5tgp0SM,0*48\r
+!AIVDM,1,1,,B,13B3Rf0Oi80rfULOuP6uObnj00T5,0*10\r
+!AIVDM,1,1,,A,33IT?;?00N03KEPLwlWdsajh00w0,0*20\r
+!AIVDM,1,1,,B,14RKQT?004`hocH@simbI;8b08=t,0*47\r
+!AIVDM,1,1,,A,169UBC0P008LOjF>1;800?vf28=t,0*5B\r
+!AIVDM,1,1,,B,8000000Iv6BI`Ne<7s5NH=tdtU:;cPsWqvk`cLA>v@,4*6B\r
+!AIVDM,1,1,,B,177nP4PP2R8:Rb`<hFa3mgvf0H=q,0*42\r
+!AIVDM,1,1,,B,13aIgj7P00PHj:>MgNi00?vhRD4f,0*7B\r
+!AIVDM,1,1,,A,169bhn001u8aKIHCq0mbb`Lf85Ip,0*3A\r
+!AIVDM,1,1,,A,16@3Tr0P008RMO`Cpa`R8wvh0D2n,0*05\r
+!AIVDM,1,1,,B,16:QtcP01D8ceChEb0I4=CBf00Sf,0*5B\r
+!AIVDM,1,1,,A,369A=1POh?8Se9NFmpW<=:`f210@,0*24\r
+!AIVDM,1,1,,A,16Sd2v2vh1awi=lDHL>G8K<b08><,0*7F\r
+!AIVDM,1,1,,B,169G:gPP?w<tSF0l4Q@>402f0d0l,0*0B\r
+!AIVDM,1,1,,A,169taH001S`e;spAs4:;UaDf0@=S,0*15\r
+!AIVDM,1,1,,A,18154Oh01b8d1hhB086<HarV0<<:,0*71\r
+!AIVDM,1,1,,B,16:<vW0P0087TNb=92UHd?vb08=c,0*20\r
+!AIVDM,1,1,,A,C6:VJj00@j;2A`4MvT;9OwcPl@NL?0>bO0HB2M0`NL>0N0DH33PP,0*16\r
+!AIVDM,1,1,,A,13OUwn0000PCW?`Md8eVE54h0@>E,0*39\r
+!AIVDM,1,1,,B,13aGt3OP0APCJgdMECnQnwvjR@>E,0*6A\r
+!AIVDM,1,1,,B,16:fN:OP1J87aOT=:3iQ4gvf0<1K,0*22\r
+!AIVDM,1,1,,A,C6:Vo:00@R;51>TORgH2owc6@b30jb2M111111111110S0hS440P,0*0F\r
+!AIVDM,1,1,,B,403t>WAuho;NG`gjIPA3Cv700H=v,0*09\r
+!AIVDM,1,1,,A,35AIHT1001b0g<6DG`WqpUhf0000,0*65\r
+!AIVDM,1,1,,B,18SakP0000`6Ual<Nkr<sR0b00Rn,0*33\r
+!AIVDM,1,1,,A,16:;F7P0008e6U:FD`DuH66j0@>>,0*34\r
+!AIVDM,1,1,,A,13aEuL001E0rgcFOkHEpU6lj05Ip,0*4D\r
+!AIVDM,1,1,,B,14eGG2P000o:qBrKmdSnGBvf2<0J,0*1D\r
+!AIVDM,1,1,,A,83`e>l@j2d<dt>M<uAa0e@2E00P0,0*32\r
+!AIVDM,1,1,,A,33aDpghP12PHibVMbhH@owvj23Q3,0*42\r
+!AIVDM,1,1,,,33P<f4CP@AP8;IBMjD37rjDf00Kh,0*6D\r
+!AIVDM,1,1,,A,139dRhPP000CaPjMHQ;h0?vfR5Ip,0*2D\r
+!AIVDM,1,1,,A,13aI:6PP00PHkHtNKQpqlgvh05Ip,0*33\r
+!AIVDM,1,1,,B,13aB:Hh000PHjEBNKJgINirh0<0t,0*4F\r
+!AIVDM,1,1,,B,168sVf00008K4QhFCHCeR2<j00T5,0*1B\r
+!AIVDM,1,1,,A,34hLSf5000P3HvTMKhvdU0hd0P00,0*49\r
+!AIVDM,1,1,,A,13P:LhhP0n04=fBMN`sRUgvh0H>B,0*7B\r
+!AIVDM,1,1,,A,13A39`01jNP7W8LMc4F:c8jh0<5m,0*05\r
+!AIVDM,1,1,,B,15NOFBgP00I1dMv?s48KnwvN0@8P,0*06\r
+!AIVDM,3,1,7,A,85Mwom1KfI?GR<NgcvM1Hg<P2FaGjRN<S22j;WN:IDl,0*3E\r
+!AIVDM,3,2,7,A,e3f5Qsq6=620c;<gvsa8P?;j>Nl0oKaCLIdeFlr<Gh@,0*3D\r
+!AIVDM,3,3,7,A,Jc95:i>c0,2*08\r
+!AIVDM,1,1,,B,15NNsn?000q1gLn?rqjsUVrP25Ip,0*0C\r
+!AIVDM,1,1,,B,15Mv2@PP00I26=n?rOjJewvP0d0b,0*66\r
+!AIVDM,1,1,,B,15Mwb`PP01I23U2?rUR9TOvP0@9S,0*63\r
+!AIVDM,1,1,,A,15MwpEPP00I27KF?rVujVgvN00Sw,0*45\r
+!AIVDM,1,1,,B,15MwbIPP00I24LP?rVlqggvT08:7,0*42\r
+!AIVDM,1,1,,B,15NNs6g000q25il?rVg;THLT0D0h,0*2F\r
+!AIVDM,1,1,,A,15NJUGg000q1w=H?rnWH=9JP0<<O,0*7C\r
+!AIVDM,1,1,,A,15N4=45P0`I2pVT?suJAF?vV00RW,0*03\r
+!AIVDM,1,1,,B,15Mwdt0P00I1vHV?ru`PO?vb05Ip,0*2B\r
+!AIVDM,1,1,,A,15MwW<PP01I1vW6?rtQb>gvd0D0c,0*7B\r
+!AIVDM,1,1,,A,15N14r0000I26?<?rP:sO@>d0@<c,0*7B\r
+!AIVDM,1,1,,B,15Mwe8PP01I24LF?rVwKGOvf05Ip,0*01\r
+!AIVDM,1,1,,A,402OfA1uho;NG12hf2NTs@A00H>G,0*6F\r
+!AIVDM,1,1,,B,13prnkP0001EMsHO6dn90acl0<0h,0*02\r
+!AIVDM,1,1,,A,402OVM1uho;NGQDuGvO<ruW00H>F,0*77\r
+!AIVDM,1,1,,A,14eGjK001fG;E`tKrcdWO5tf08>=,0*50\r
+!AIVDM,1,1,,A,15N;0>0019Jllg8GWdL<Kr0h0@=`,0*0C\r
+!AIVDM,1,1,,A,13bW@T00000WrO`NlC9Wl:Ph0@=l,0*7F\r
+!AIVDM,1,1,,B,13`uG>00010eVETN`>Gia9bh0`>h,0*32\r
+!AIVDM,2,1,1,,55NM4o7T9ldiL@KKS38uU=@E:0=8DDf22222220l10F7340Ht03QEp6ClRp88,0*5A\r
+!AIVDM,2,2,1,,8888888880,2*5C\r
+!AIVDM,1,1,,B,13aGut@P00PCrqBMEEpTNOvh2@>H,0*30\r
+!AIVDM,1,1,,B,16SWlb?000a3T;>ELD`lv4bh0D1t,0*1C\r
+!AIVDM,1,1,,,14Rp`n001?P6;A@MU=8prW:d0PS:,0*03\r
+!AIVDM,1,1,,A,433wEjQuho;NGP=gdhMCETW00D50,0*54\r
+!AIVDM,1,1,,A,16K2CR0P00:0=A8D>aKSKwvj00R=,0*2B\r
+!AIVDM,1,1,,2,133hV2gP000A3V0M>VCP0?vh0Kwd,0*34\r
+!AIVDM,1,1,,A,16K8DLg001awJCbDA4gp50jh05Ip,0*6C\r
+!AIVDM,1,1,,B,33sO3Sg00AwF?PrF8mE6VBpd00U@,0*06\r
+!AIVDM,1,1,,A,15C@QT0039wBV3lEiClVKm4j2H>D,0*3F\r
+!AIVDM,1,1,,A,18KoA@002POBT:pEkG`FQU>j08>G,0*15\r
+!AIVDM,1,1,,B,13ru6:3000OF840F89@004tf00SC,0*2B\r
+!AIVDM,1,1,,A,33bpan0PANPDn2:Mb5ML1IJh20w0,0*22\r
+!AIVDM,1,1,,A,14eG?>PP00JBiT4HhSw;G?vh08>4,0*5A\r
+!AIVDM,2,1,2,A,53aDor0000010GCKCR04hhEA@F2222222222221?7h834t00002E51DQC`8888,0*1F\r
+!AIVDM,2,2,2,A,888888883,2*25\r
+!AIVDM,1,1,,B,133S0:0P01PCsIvMECAj0gvj0D8O,0*5B\r
+!AIVDM,1,1,,A,34R=7d50000etGLI<TM<f6Lf0000,0*18\r
+!AIVDM,1,1,,B,181:KE002Q0csO>HnkgLi:8b0<0v,0*3E\r
+!AIVDM,1,1,,B,13aDrRPP00PK6JDMB<Nu?gvhR8>I,0*52\r
+!AIVDM,1,1,,A,13n3aW0PCbPJWqlQh7RrgHRh20S1,0*05\r
+!AIVDM,1,1,,B,13mGSF0OkFPJi50Qfsbow6Fh00S<,0*75\r
+!AIVDM,1,1,,A,13Gi1F?P000@tBBHmbw9dOvh05Ip,0*16\r
+!AIVDM,1,1,,A,4h2=a@Quho;NG06WN6MIK<100D5j,0*35\r
+!AIVDM,1,1,,B,33QQar5001R:H7fRAIHF@6ff0000,0*61\r
+!AIVDM,1,1,,B,4h2=aHAuho;NGOq`OTR`ji100D0k,0*04\r
+!AIVDM,1,1,,A,33aDs10P00PD?8:Me2UQK?vh22tQ,0*59\r
+!AIVDM,1,1,,A,344i1CUP00R:E<pRAopH7wvf0000,0*7E\r
+!AIVDM,1,1,,A,155r=j00000qcmnOpO68ECJj05Ip,0*77\r
+!AIVDM,1,1,,B,14eGrJ@000KLlC<IT502Jr`j05Ip,0*7A\r
+!AIVDM,1,1,,B,13P;HVPP000fpEbI6;S:>wvh20S3,0*4B\r
+!AIVDM,1,1,,B,13MFDR0PAAOj>0PNTuvaB7Hf0@>K,0*07\r
+!AIVDM,1,1,,B,33aDrRwP?w<tSF0l4Q@>4?wv0RbA,0*1E\r
+!AIVDM,1,1,,B,14aVdB0th0vqMBH@6tu:<mhj25Ip,0*4D\r
+!AIVDM,1,1,,A,13prCC0001QEKmpO8PIq:8vh0@=m,0*46\r
+!AIVDM,1,1,,A,D025bvAM`Dfr<`D01FTT01aDD02,2*42\r
+!AIVDM,1,1,,A,23aEPr@P010Cm?fMEo;n>wvfP@>K,0*79\r
+!AIVDM,1,1,,A,802R5Ph0Bk;N6PGM7RGaOwwwwwwwwwwwwk;0AA1Q0@12igwwwwwwwwwwwwu,2*45\r
+!AIVDM,1,1,,A,33aDqb0P1ePFJAlMak7aJOvh2323,0*5F\r
+!AIVDM,1,1,,B,15Mv;h000DINvmpBTtLtb::f00RU,0*08\r
+!AIVDM,1,1,,B,38SaOv500086F2T<QWe`:2BhPP00,0*13\r
+!AIVDM,2,1,6,A,55B0h601pcSs<Hll000MDV1<QDp000000000000T?8I7@4o:0>62@CAC,0*79\r
+!AIVDM,2,2,6,A,`00000000000000,2*72\r
+!AIVDM,1,1,,B,169DOaP0018fuBpA8gStOqrh0<6p,0*5E\r
+!AIVDM,1,1,,A,12wdLPPP008LJJ@>0I@uvgvN05Ip,0*79\r
+!AIVDM,1,1,,B,B6:`IN00=j2ElOS=9Vo??wcSQP06,0*21\r
+!AIVDM,1,1,,,4h2=aRiuho;NG05nuFMbvqA000S:,0*46\r
+!AIVDM,1,1,,,139rrJ33P0P8?1dMjF=P0@jb05Ip,0*3C\r
+!AIVDM,1,1,,A,23@QU<000DPCRrBMFcSH0Fhj05Ip,0*61\r
+!AIVDM,1,1,,B,4h2=aOAuho;NEOVL3pOB=LQ00D0`,0*74\r
+!AIVDM,2,1,9,B,55MrOCP00001L@;GGW<m:r0<5=>222222222220O0hA594LP18mklRjCQp20,0*45\r
+!AIVDM,2,2,9,B,DPSl`888880,2*5D\r
+!AIVDM,1,1,,B,15NGAR0000ISSk4A7L5reHDj00Ru,0*74\r
+!AIVDM,1,1,,A,15N0OT0P00ISf12A4QEsEgvh00RB,0*66\r
+!AIVDM,1,1,,A,15N9;20P02ISsGBA8bLe9Ovh08>B,0*7C\r
+!AIVDM,1,1,,A,15N3@0PP00IS;F@A8C@KNOvj0D3W,0*34\r
+!AIVDM,1,1,,B,15N:=eP001qT5`hA4ied;AJj0@>F,0*3B\r
+!AIVDM,1,1,,A,13deb80000Pn7VbQ0l4KsHFh28>I,0*58\r
+!AIVDM,1,1,,B,13aC3W0P00PCR`0MEIWrt?vj2D7i,0*0B\r
+!AIVDM,1,1,,A,13u=KCPP010mBQlQ2aU6tgvd0PRn,0*7B\r
+!AIVDM,1,1,,B,13@ThD0PAT0ke42Pw?64;SNf0@>G,0*01\r
+!AIVDM,1,1,,B,133iB;PP00PD<V2MDG<JnOvh2<3w,0*05\r
+!AIVDM,1,1,,,33b`7@300HP8<g2MjKOkgArf00sh,0*09\r
+!AIVDM,1,1,,,33AeTN300007dCNMoMKV8V8f00wP,0*51\r
+!AIVDM,1,1,,A,16K8Duh009aw@P0D@1j0vSJd0@>G,0*69\r
+!AIVDM,1,1,,A,D025bp1KlDfr<`D01FTT0000000,2*6C\r
+!AIVDM,1,1,,A,16K2:SP01nawe5@D<dktfb<j08>I,0*26\r
+!AIVDM,1,1,,2,133tNUP000PA3phM>VJ:`EHdPD24,0*1F\r
+!AIVDM,1,1,,A,33u:Pt00000hLi8Q1V1PFiVj02eA,0*6A\r
+!AIVDM,1,1,,A,13fr6J00010hM9pQ1a3:e7Fj0<1k,0*31\r
+!AIVDM,1,1,,A,13aDok?P00PCtF2Md;Hcrwvh2@>M,0*5A\r
+!AIVDM,1,1,,B,13aIk2@P00PDQPnMe6n=SOvh2D5d,0*55\r
+!AIVDM,2,1,1,B,53Tc0`0296Im=SSK;D0P58ltqV0L00000000000t1@c346mE07SKVQ@D,0*2B\r
+!AIVDM,2,2,1,B,h00000000000000,2*7E\r
+!AIVDM,1,1,,A,13P:W`0P0qOw`jvMN?:c@gvh00SW,0*44\r
+!AIVDM,1,1,,A,4h5GdO1uho;NH7K:S20fa5700<7w,0*33\r
+!AIVDM,1,1,,A,33EplEaPC9Oe:EbE0beb<80j00U0,0*6D\r
+!AIVDM,1,1,,A,13e<=P0P010g:NbHs53Ufgvj05Ip,0*79\r
+!AIVDM,1,1,,B,13@o2oWP010qRi<OuCAm3?vd0@=r,0*61\r
+!AIVDM,1,1,,A,13aC2E0P0LPCvG8Md?=qJOvh20SE,0*22\r
+!AIVDM,1,1,,A,13HTua0P05PDGm@MDJAMHgvhRD5?,0*55\r
+!AIVDM,1,1,,A,133oW@PP000MF=BMnHhQqwvRPH>H,0*35\r
+!AIVDM,1,1,,A,15E8IL001s1d4u2EW;6upK4f05Ip,0*01\r
+!AIVDM,1,1,,A,402;bFQuho;NGP0DlTLE52o00H>H,0*5D\r
+!AIVDM,1,1,,B,139I@U0P00PeEI:N`Onm7gvh2@>O,0*0E\r
+!AIVDM,1,1,,A,13aDpLhP1`PG:qlMakC9D?vhRL3S,0*42\r
+!AIVDM,1,1,,B,13aFeW0P00PCikVMFnUqk?vh2D3w,0*2C\r
+!AIVDM,1,1,,B,33aENkHP00PCnr4ME>4hhgvh2001,0*7F\r
+!AIVDM,1,1,,B,13aEOEhP?w<tSF0l4Q@>4?wvPd9N,0*2A\r
+!AIVDM,1,1,,,15Va0<501L06qk0MQjVQ1@pf08=W,0*78\r
+!AIVDM,1,1,,A,13aBNhPP00PCOC0MH;D2vOvf25Ip,0*51\r
+!AIVDM,1,1,,A,83aGuU0j2d<dteduM0000@O800P0,0*65\r
+!AIVDM,1,1,,A,15@k?:?P000IfJJQiO4VBwvh28>L,0*3A\r
+!AIVDM,1,1,,B,13aJGVhP00PD9v:Me8vh0?vh25Ip,0*65\r
+!AIVDM,1,1,,B,13P<i1h02nwhLA>N`paJspff0@>Q,0*52\r
+!AIVDM,1,1,,A,13P<9q:P00wi=IVNu4df4?vh20Sl,0*73\r
+!AIVDM,1,1,,A,16:;HK?P008VhS:DaVq@0?vh28>K,0*0F\r
+!AIVDM,1,1,,A,1>qc9ww000OkfS@MMI5004Rf0<0B,0*61\r
+!AIVDM,1,1,,A,13tweR0000Pnf@vQ1O7P0ERd0H>9,0*0A\r
+!AIVDM,2,1,9,A,56KDTa02>tVh`C;;?20eUDPv0l59F2222222221@60@484oD0:gRT81SP`2AH888,0*1D\r
+!AIVDM,2,2,9,A,8888883,2*2E\r
+!AIVDM,1,1,,A,16K8DU@000b1I7dDGSJK74<j25Ip,0*40\r
+!AIVDM,1,1,,A,13P7keP01lP7`>@M?Lv1O1>f08>R,0*32\r
+!AIVDM,1,1,,A,16K8DHh000:1I<lDGT5;C4:j2D3@,0*6F\r
+!AIVDM,1,1,,A,16Tp:40P0193>08EI1jM6WRf0d34,0*4A\r
+!AIVDM,1,1,,B,13aDqcKP01PDS3JMe2;8e?vhR0RQ,0*08\r
+!AIVDM,1,1,,B,833u`1Pj2d=eL<ttM@000@UE0000,0*10\r
+!AIVDM,1,1,,A,16K8De0001aw>wjDBLApFF`j0<4O,0*41\r
+!AIVDM,1,1,,,13nF;:300308<GVMj7v7I64j2<3a,0*45\r
+!AIVDM,1,1,,,13@oda=P@0P6WMhMQQjm01fh05Ip,0*3F\r
+!AIVDM,1,1,,A,16K2:dh002awhB6D@b7qqTDj0<5O,0*0B\r
+!AIVDM,1,1,,A,33mG`l0P000L>3lQq>gP09db00w0,0*1C\r
+!AIVDM,1,1,,B,33efn050008LNlP>0qT=?PDd0000,0*22\r
+!AIVDM,1,1,,B,8000000Iv7EQOPp:GdPMROTfi<IHNOoWqvk`cLA>v@,4*46\r
+!AIVDM,1,1,,B,33aDCEPP00PCf9dMG=fpO?vh2313,0*62\r
+!AIVDM,1,1,,A,14RCQn50000A0>pML=n1E1hb0UIp,0*46\r
+!AIVDM,1,1,,A,13aJGhhP00PFr<tMab8UQwvh2<7s,0*65\r
+!AIVDM,1,1,,B,169UFSP0007kdoj;CfBC9HLj0<0q,0*03\r
+!AIVDM,1,1,,A,13aC24@P000DcjNMdu6@0?vf08>T,0*74\r
+!AIVDM,1,1,,A,33ku2;U000NqLaP@6d1RU9df0000,0*09\r
+!AIVDM,1,1,,A,15Mh`3P001o?<aBK?vAsA`hj0<1p,0*24\r
+!AIVDM,1,1,,B,13P:DSU01HOe1Q0Lkp:HIVff00S7,0*62\r
+!AIVDM,1,1,,A,16:GHo0P00`SBK2D31wP0?vf25Ip,0*53\r
+!AIVDM,1,1,,A,33OjLf0OiAOdu84LjNAmvTrf00vP,0*78\r
+!AIVDM,1,1,,B,176t5d001>8:RV@<hA=TNkLh05Ip,0*38\r
+!AIVDM,1,1,,A,19ts0200018SjbfD=nG1s2Dh0@>=,0*50\r
+!AIVDM,1,1,,A,369bIJ00268cLvdEcf1eMbkp0QbQ,0*08\r
+!AIVDM,1,1,,A,34`n:l5001`Vhm2ERmbr?Rlh0000,0*7F\r
+!AIVDM,1,1,,A,15CnO@100O`cIupB3sue:bTd05Ip,0*77\r
+!AIVDM,1,1,,A,16H;:l00008e3v@AtsrSQ3fV0L6?,0*1C\r
+!AIVDM,1,1,,A,168s:SPP008Sft8Fn>4j2Ovf2@>1,0*1A\r
+!AIVDM,1,1,,B,B69F7K00Fj7shi3RrDu3swbV1P06,0*7D\r
+!AIVDM,1,1,,A,13aEPRhP00PK6TdMB>A00?vh2<0M,0*05\r
+!AIVDM,1,1,,A,403t=2iuho;NG`cHe`BSBKo008>5,0*49\r
+!AIVDM,1,1,,B,144FV@0P00877@0==M=P0?vgrH=n,0*3B\r
+!AIVDM,1,1,,B,16:fQkwP0087B2<==hGh0?vf00RE,0*6F\r
+!AIVDM,1,1,,A,168s:?P0008SOVVFmK5e7Arir0Rq,0*17\r
+!AIVDM,1,1,,B,13aDBS0P00PHv2VMdaEqrgvdRL1f,0*4B\r
+!AIVDM,1,1,,B,15@q=v00158O8K<=wQIQmQHh0@><,0*0A\r
+!AIVDM,1,1,,A,16:BQs00008d`:nAtcURNSjh0<80,0*59\r
+!AIVDM,1,1,,A,13aGt8OP000JtR8MADm00?vhP5Ip,0*6D\r
+!AIVDM,1,1,,A,369JMp1000`TdJ`Ffmd1u6nb0000,0*41\r
+!AIVDM,1,1,,B,35Qo=p50008Jw=FFCgV8C6NjP000,0*16\r
+!AIVDM,1,1,,A,15NKjc0P00IT;D>A7qtJiOvh0@>H,0*15\r
+!AIVDM,1,1,,A,15NKKqP000IR@>nA8kArkqRj08>J,0*09\r
+!AIVDM,1,1,,A,39NS?f1001IT2I:A8<BJNa`h0000,0*5E\r
+!AIVDM,1,1,,A,13aIjphP00PJsb:MA759wOvh20Rr,0*2C\r
+!AIVDM,1,1,,A,15NKj`PP00ISa52A70FKlwvh0H>O,0*16\r
+!AIVDM,1,1,,B,15N8<TPP00IRlp<@ktu<;gvh0<55,0*5C\r
+!AIVDM,1,1,,A,13cleV003F0`Im8IB6c1T1@d05Ip,0*33\r
+!AIVDM,1,1,,A,33aI9EwP?w<tSF0l4Q@>4?wvPS11,0*0E\r
+!AIVDM,1,1,,B,13uA2tPP001C1w4Qu7w00?vh08>V,0*70\r
+!AIVDM,1,1,,A,13aWJ`0t0CPC8n`MT6s;O8nl00So,0*04\r
+!AIVDM,1,1,,B,34``av5P000?bhRN`fiESOvj2Do:,0*40\r
+!AIVDM,1,1,,B,13aGsG@P00PDSNFMe4m00?vh2H>V,0*28\r
+!AIVDM,1,1,,B,133c0b00000C`nfME@uJK8hh00S9,0*50\r
+!AIVDM,1,1,,B,15NqA`0P00rmvJjGc5<`8wvf0@=j,0*23\r
+!AIVDM,1,1,,A,100EG;3P00JnGP2GVm9R2gvd05Ip,0*20\r
+!AIVDM,1,1,,B,13aGrU@OhE0HpibNL0F0UQs`1t0k,0*4A\r
+!AIVDM,1,1,,B,13biE60P000J;NDNToi5ugvj05Ip,0*6F\r
+!AIVDM,1,1,,A,13bs=r0P00PIM;BNK`EMogvj08>O,0*37\r
+!AIVDM,1,1,,A,14cluh0Oiu0GnU6NWUpRU22j0<3@,0*06\r
+!AIVDM,1,1,,A,139Ok=g00012hSBNU>ls20hj2@>W,0*08\r
+!AIVDM,1,1,,A,13aGv8000wPHUJ6M`b<18PthR@>W,0*77\r
+!AIVDM,1,1,,A,13iPd0OP00PChQ<Md?se`wvh2D3w,0*7B\r
+!AIVDM,1,1,,B,13IgV800000CrQ>MEdV18aRh00S@,0*72\r
+!AIVDM,1,1,,A,19NSCj@000wnMGdPdck0t98d00SB,0*11\r
+!AIVDM,1,1,,A,14R`::00000g;5pHsT1<>ULj0D1B,0*10\r
+!AIVDM,1,1,,A,36:`UL10008e3`BFCTa@Mc2h25jP,0*14\r
+!AIVDM,1,1,,,14QsEVh01`06nfVMeft:M`Vf08=f,0*4C\r
+!AIVDM,1,1,,B,13c7K:?P@00DKehMdmr;hbPf0<;o,0*46\r
+!AIVDM,1,1,,A,401uEOAuho;NH0=HhdMDH1100H>W,0*4B\r
+!AIVDM,1,1,,B,16::12PP?w<tSF0l4Q@>4?wv0e;P,0*47\r
+!AIVDM,1,1,,A,18156p001L0BiuPMI:bkKBde@5Ip,0*5D\r
+!AIVDM,1,1,,B,13P;ShPP07Oh8opNtk3UKgvb0H>`,0*59\r
+!AIVDM,1,1,,B,33@oI`hOh>0qbPvOu?O0Jj0j20o1,0*0B\r
+!AIVDM,1,1,,B,13aDo@0P00PEm?0Mw`H00?vhRH>a,0*4C\r
+!AIVDM,1,1,,A,13@nh53000Prf5vOeM5JqEhP05Ip,0*7B\r
+!AIVDM,1,1,,A,13HOI:0P0000VP@LCnHAjOvf0@>T,0*31\r
+!AIVDM,1,1,,B,139j?f0P000WpADNlLVP0?vh0D2:,0*5A\r
+!AIVDM,1,1,,A,13aDpd0P0oPDUrpMe@`RmgvRRD;d,0*54\r
+!AIVDM,1,1,,A,15N61Fg00lIsfnLF>LbjF1nf05Ip,0*27\r
+!AIVDM,1,1,,A,35?Un25000blFJqjGT5=VTFh0Dib,0*42\r
+!AIVDM,1,1,,,13@oU8P00106kGFMQVj@miJj0H>S,0*7B\r
+!AIVDM,1,1,,B,13aJGuwP00PCm02MFeC@0?vj2L7k,0*39\r
+!AIVDM,1,1,,B,1778Qj00000`fH>IJ9bSNEHh2PSG,0*01\r
+!AIVDM,1,1,,B,13am`j002lP=ojhMtK;4kSdf0<<O,0*47\r
+!AIVDM,1,1,,A,133gVhPP00PD<SlMDGTP0?vj2<6=,0*05\r
+!AIVDM,1,1,,A,15N0olgP00JddsNG@F4P0?vf0<2c,0*78\r
+!AIVDM,1,1,,A,139MPn0P00PW@PfNWhM00?vh28>:,0*6C\r
+!AIVDM,1,1,,A,13aC2V@P0P0DCDnMdm52CwvfP8>c,0*5D\r
+!AIVDM,1,1,,B,34`W241th1OM1J`CA:22Rbvf0P00,0*6E\r
+!AIVDM,1,1,,A,15Mj3MP000o?;GrK?rLblq4l00SR,0*29\r
+!AIVDM,1,1,,B,14RUmf002@0r7ePOrEK7jn2j25Ip,0*78\r
+!AIVDM,1,1,,B,343lJh0P@02I24tIPMl6cE@h00w0,0*01\r
+!AIVDM,1,1,,A,4h2=aBQuho;NGOSNP@QLroi00@=d,0*75\r
+!AIVDM,1,1,,A,35S@E00viwwscjnM0>9e?bNf02iQ,0*2D\r
+!AIVDM,1,1,,A,181:Ki@0000CG4tMF5iSG1>d08>d,0*78\r
+!AIVDM,1,1,,B,15N5vv?P00IOtiJBPUOGOgvj2@>U,0*06\r
+!AIVDM,1,1,,,13`oHJ300806kajMR7Dd15rj00RD,0*07\r
+!AIVDM,1,1,,B,19NS90002LP8@wTMELh8<VPh2H>d,0*2A\r
+!AIVDM,1,1,,A,16K2?h0001awConDB=5c?qTh00S5OSGv@h,0*26\r
+!AIVDM,1,1,,A,15BLI`0000awUqHDCmn5o1td0dSr<iWvk@,0*2A\r
+!AIVDM,1,1,,A,15Mw<ePP00ISvtdA8Hv;wwvh08>R,0*3B\r
+!AIVDM,1,1,,B,15N7GmPP00IShJPA8sDLHgvh05Ip,0*15\r
+!AIVDM,1,1,,B,33R6dW?P00Q`ugrG@5M`W?vh20A3,0*55\r
+!AIVDM,1,1,,B,13aGG2PP2<P8j?RMdd8qlOvj2<7u,0*62\r
+!AIVDM,1,1,,B,16:QlB0000`LMWjFBRVH64Pj0@>W,0*52\r
+!AIVDM,1,1,,A,13cVaV02jG10TClGFDVP004dH5IpJ2Kv5c,0*37\r
+!AIVDM,1,1,,A,13aDCk@P00PG6sLMUihMpwvh25Ip,0*54\r
+!AIVDM,1,1,,A,168tHa00008LRit>2AcP02lh25Ip,0*39\r
+!AIVDM,1,1,,A,13?up200328Mg4N=kMomLl@d0D2F,0*58\r
+!AIVDM,1,1,,B,139a6p?P00Pe>l<N`MjCO?vf28>e,0*76\r
+!AIVDM,1,1,,B,13cSeD00010g:?LHs5QMvnnf0D0p,0*1F\r
+!AIVDM,1,1,,B,169UB;PP0L`LNf`>1:ePR?vd0<2e,0*0B\r
+!AIVDM,1,1,,B,16:3nqgP008K69FFE16TKwvj25Ip,0*77\r
+!AIVDM,1,1,,B,13aEO5?P00PDTi<Md`FP0?vj2@>e,0*66\r
+!AIVDM,1,1,,B,33a9980Oh@0=KqRMCtfep@4j01u@,0*6D\r
+!AIVDM,1,1,,A,3819kCU000PId5pHdqg=r6pj0E5r,0*3B\r
+!AIVDM,1,1,,A,35SWMN1000R>Nk9fvgP002tf0000,0*51\r
+!AIVDM,1,1,,B,333Rm>?P00PCfjNMDi2P0?vj2BjC,0*61\r
+!AIVDM,1,1,,B,13pr<nS00w12lTPNUVLGL5rd00T1,0*74\r
+!AIVDM,1,1,,B,13=FEH001fP?EANNGvsogn>h08?E,0*6D\r
+!AIVDM,1,1,,B,13A><b0P000pFgJP7IvbK?vj08>W,0*7E\r
+!AIVDM,1,1,,A,13P:nUP001Ow:lpNd0p6FaPh0D14,0*38\r
+!AIVDM,1,1,,B,15N00D0P00G?@EBKdIP8?wvh0@>e,0*07\r
+!AIVDM,1,1,,A,13GQu5PP00PD>L@MD@TEAOvjR5Ip,0*40\r
+!AIVDM,1,1,,B,15MrmuP000qS<W<F7K09@0<h0@>f,0*2C\r
+!AIVDM,1,1,,B,13n;0D0PB=0J;chQguP5PTLf05Ip,0*67\r
+!AIVDM,1,1,,A,13aEQHPP00PD3=BMdmk=C?vh2H>h,0*1D\r
+!AIVDM,1,1,,B,13M@Db0P?w<tSF0l4Q@>4?wv0d03,0*63\r
+!AIVDM,1,1,,B,133qNL50000>bc0MH:b`U1@h0d5>,0*73\r
+!AIVDM,1,1,,A,402E3U1uho;NH0?h84MNklQ00<2p,0*0D\r
+!AIVDM,2,1,7,A,53u?oh400001<m5:220hTp@6222222222222220t2PD4340Ht80000000000,0*6D\r
+!AIVDM,2,2,7,A,00000000009,2*2A\r
+!AIVDM,1,1,,B,13UPFd0021PjJ<`PwWBU?DFd0p>S,0*3C\r
+!AIVDM,1,1,,A,13u><@8viDPmPtjQ1=RaA7Ph25Ip,0*1D\r
+!AIVDM,1,1,,A,13u>RL0000Pm<c4Q3aJ:dIhj05Ip,0*47\r
+!AIVDM,1,1,,B,13uJPH001fPmKk>PtJSWMEvh0H>e,0*2B\r
+!AIVDM,1,1,,A,402R3dAuho;NH0n7BnQIev1008>h,0*0A\r
+!AIVDM,1,1,,A,13cgRg0P000g:BDHs>d0vgvh00Sd,0*77\r
+!AIVDM,1,1,,B,15Mwo`0P01JnGO8GVmJ;Qwvh08>5,0*57\r
+!AIVDM,1,1,,A,A04757QAv0agH2JdGsLP7OqcrhTGw9cW70,4*60\r
+!AIVDM,1,1,,A,16K8@rh000aw@qtD=>8cu6nh05Ip,0*0E\r
+!AIVDM,1,1,,B,14R8v4001g0ATe0Mj7a;FaFh0@><,0*1F\r
+!AIVDM,1,1,,A,15NDqF0001J59t@?j?EKWjtj25Ip,0*15\r
+!AIVDM,1,1,,,13P<jah01aP7rJVMR=7pGVdf08>f,0*25\r
+!AIVDM,1,1,,A,83`hoK@j2P00000000nA;@O50000,0*67\r
+!AIVDM,1,1,,A,133gS`P0000CjJDMG1dMr4fh08>j,0*32\r
+!AIVDM,1,1,,B,13aGDo3P00PD5;bMdnSkgwvTR5Ip,0*22\r
+!AIVDM,1,1,,A,83GR1P0j2P00000001WhggaE9d00,0*26\r
+!AIVDM,1,1,,A,14hTOR0000KFbC6:OAW=7Ujj0@>d,0*0E\r
+!AIVDM,1,1,,B,13buV@0OiSP85UDN5554;S0h0D<M,0*55\r
+!AIVDM,1,1,,B,13`emk0P00PE0NbN1:qEiwvh2H>k,0*13\r
+!AIVDM,1,1,,A,139LS0P01?0UM><N`iL@3@0f08>?,0*11\r
+!AIVDM,1,1,,B,13P<;WgP?w<tSF0l4Q@>4?wp0l0K,0*69\r
+!AIVDM,1,1,,B,10KHrq?P00PCq7<MF3=00?vj25Ip,0*3A\r
+!AIVDM,1,1,,A,33P;?tEP02OkRb4MMt@ddwvjP000,0*0E\r
+!AIVDM,1,1,,A,13`j4hgP00PKHL2MCEH00?vj28>l,0*10\r
+!AIVDM,1,1,,A,13B0?j00140jDk2PqNw<Iqm00PSf,0*55\r
+!AIVDM,1,1,,B,13afkB000j0nn?tP`lM6E58b05Ip,0*19\r
+!AIVDM,1,1,,A,33u<p25000PmR`FQ;bD8p4Bh0Dfb,0*0B\r
+!AIVDM,1,1,,A,13`emt@P00PCuh0MENooP?vh2L3w,0*1B\r
+!AIVDM,1,1,,A,16K8DLg001awJCbDA4gp50jh05IpWHgvRN,0*7E\r
+!AIVDM,1,1,,B,402PeI1uho;NGOL9>JE>dFQ00H>>,0*10\r
+!AIVDM,1,1,,B,177=EV0Ok=`:QLH<hHNSQ2hh0L89,0*03\r
+!AIVDM,1,1,,A,169CWjPP038SH>0D2>QMoOvir8>G,0*10\r
+!AIVDM,1,1,,B,169TRJ0P518:MR<<hrA5@Ovh08>O,0*28\r
+!AIVDM,1,1,,B,13aBKV5P1UPFf9hMamH9i?vj2<64,0*4F\r
+!AIVDM,1,1,,B,36::15001;8FbEh=DPe<Wr9p0S<A,0*1D\r
+!AIVDM,1,1,,A,133nQi0P000CmKbME`k:=Ovl2@>m,0*66\r
+!AIVDM,1,1,,A,169>UrPP008g1b`EMWPDuWNh0001,0*23\r
+!AIVDM,1,1,,A,36K2;U@025abMK4CjHbjQAdj20Qi,0*3F\r
+!AIVDM,1,1,,A,16KDT2@03;ac7J2CkBGrD`Bj05Ip,0*12\r
+!AIVDM,1,1,,B,40000Liuho;NH0?JlPNW=5100<1b,0*4D\r
+!AIVDM,1,1,,B,D025bu1cLDfr<`D01FTT0000000,2*62\r
+!AIVDM,1,1,,A,14eGJCh000o<7CfL93E74T8f0<27,0*12\r
+!AIVDM,1,1,,A,14eGMH0P02G=4TBL=N>Da?vd0@=m,0*17\r
+!AIVDM,1,1,,A,14eGDN7P00G<l?bL=FlaVgvh00Sh,0*08\r
+!AIVDM,1,1,,A,14eGECh00pG;SkjL:TN0u@fd00Rn,0*66\r
+!AIVDM,1,1,,B,14eGD5OP00G<MaTL=t2b??vh08>`,0*72\r
+!AIVDM,1,1,,B,34eG;u5001o<Ss`L6uB8h7Bd0DNr,0*1D\r
+!AIVDM,1,1,,A,14eGLNP00mG==p`KvgT4`C`h2<1=,0*7A\r
+!AIVDM,1,1,,B,1595J0OP00o=D@@L;0T:<Ovj25Ip,0*26\r
+!AIVDM,1,1,,A,33HWpB?P0LP2v2dM0Cq:dOvh201S,0*7A\r
+!AIVDM,1,1,,A,16K8Duh009aw@P0D@1j0vSJd0@>GdG?viS,0*39\r
+!AIVDM,1,1,,A,13aEPrhP10PHTFDN:O5c?wvhR<1=,0*0C\r
+!AIVDM,1,1,,B,233vr3gP1gPCjWdMEuEPM?vjR5Ip,0*53\r
+!AIVDM,1,1,,A,1395sj001?nvN;LKla3T6Sfj08>g,0*07\r
+!AIVDM,1,1,,B,13P;mk@P00P6PnhMGgWh0?vj2@>n,0*09\r
+!AIVDM,1,1,,A,33acoj0Oh9PUAPNNb941oodj0121,0*49\r
+!AIVDM,1,1,,A,13aGt<`P00PDQI6Me><h0?vj2D6E,0*14\r
+!AIVDM,1,1,,A,4025bpiuho;NI0np@VOP4LA00<3:,0*3B\r
+!AIVDM,1,1,,2,133sDGPP1@PAFA0MAT0hogvj28>o,0*0C\r
+!AIVDM,1,1,,A,16KPioh01Pb0vhPDEc9BOinl00Rv,0*00\r
+!AIVDM,1,1,,B,13pr?KSOhI12jF0NUNsPiPpj0@>o,0*07\r
+!AIVDM,1,1,,A,601uEODhrspR04<100,4*6C\r
+!AIVDM,1,1,,A,13c0iH00000D088MDd?eQ8J`0<5`,0*3F\r
+!AIVDM,1,1,,A,14QIG<5oiwKF@@V:L8a95W8f0P00,0*15\r
+!AIVDM,1,1,,A,16K2=I0000b0i1TDD9dDhCtl08>i,0*07\r
+!AIVDM,1,1,,B,13aEOepP00PCrh:MDh4sGOvh2@>m,0*2B\r
+!AIVDM,1,1,,A,10002;?000qvd9LF<kPGj38l0<08,0*38\r
+!AIVDM,1,1,,B,6h2E:p8r?4>R0480J00000000000,0*1D\r
+!AIVDM,1,1,,A,14eGang000rkr<2JPig9DFjj0<0<,0*13\r
+!AIVDM,1,1,,A,15MwDwPP5fJe75FG@o78Kgvl2H>n,0*68\r
+!AIVDM,1,1,,B,33aFdfQP00PHmP`NKQPh0?vj2DMr,0*72\r
+!AIVDM,1,1,,A,155?c800000JF9vQg`dapV2j05Ip,0*11\r
+!AIVDM,1,1,,B,14i5A<002COEc0HE0cW<JIth20S5,0*67\r
+!AIVDM,2,1,2,A,56:`UL0000009TLT001`PtpN19Dr0@63L000001@8hJ784nhN8Q0C2@C,0*6D\r
+!AIVDM,2,2,2,A,P00000000000000,2*46\r
+!AIVDM,1,1,,A,177AIG01QhR=p:afk1jH:6Rj00Rt,0*28\r
+!AIVDM,1,1,,B,14eH?f0000rBgdNHhqh9tr@h0PRO,0*7A\r
+!AIVDM,1,1,,A,33aDrShP00PGrK0MaSLo8?vj22pC,0*70\r
+!AIVDM,1,1,,B,13aGtvPP00PD4IRMEv<ujgvj28>p,0*5A\r
+!AIVDM,1,1,,B,13aC21PP000CnTpMEOPP0?vh08>o,0*30\r
+!AIVDM,1,1,,B,33aI:5G01g<tSF0l4Q@008kv0S8Q,0*28\r
+!AIVDM,1,1,,B,14R8V`001mOuoDRO>Dj<urLj00Rn,0*1D\r
+!AIVDM,1,1,,A,4vjHC8Quho;NEOW6?RO:>U7008<n,0*2E\r
+!AIVDM,1,1,,B,601uEP`tH;3h04<100,4*43\r
+!AIVDM,1,1,,,13P<b9hP00P5rB0MfGk1p?vl0@>p,0*52\r
+!AIVDM,1,1,,A,13P:v?h009Ogbs0NkiDTi5>d05Ip,0*39\r
+!AIVDM,1,1,,A,23P:lP?OhEPCS8nMFeAGwnUp0PS3,0*6E\r
+!AIVDM,1,1,,B,14aNTh0023JmrS>G;ih:QHJj0<01,0*79\r
+!AIVDM,1,1,,B,18156dm01bo;l`8KdKgaJWPj08>f,0*01\r
+!AIVDM,1,1,,B,13pr=`PP0011C`pNn=R00?vd05Ip,0*75\r
+!AIVDM,1,1,,B,144ikv9P00R:Ls<RB3j1fOvf0D1O,0*29\r
+!AIVDM,1,1,,B,18Kho6002R0Uen>NgpDlm3rj08>M,0*2A\r
+!AIVDM,1,1,,B,13bkaR002rOh5gPN`wKbhH`f0H>q,0*19\r
+!AIVDM,1,1,,B,169@?200008Vhu4Dab1s:2hj0D2r,0*2A\r
+!AIVDM,1,1,,B,15Mv7fPP01IRephA9?7;m?vh0@>U,0*30\r
+!AIVDM,1,1,,B,15N0DbPP00IT6IlA5EVrFgvh00Sh,0*66\r
+!AIVDM,1,1,,B,4h2=aGAuho;NH07pMnN6SUQ005Ip,0*29\r
+!AIVDM,1,1,,B,15NGht0P00IT4MvA80RK7Ovj2@>a,0*5F\r
+!AIVDM,1,1,,A,15MmOb?P00ISh=nA8e3:pOvj25Ip,0*69\r
+!AIVDM,1,1,,B,15Mwd<PP00ISfGnA7jBrEOvj0<3:,0*29\r
+!AIVDM,1,1,,B,15324`0001IT0HPA4@OUg0dl08>d,0*62\r
+!AIVDM,1,1,,B,13@o2@00010q`FlOnsT=t7Rj0H>r,0*04\r
+!AIVDM,1,1,,A,1CU;jB0v@01d=cbEeV60010h0000,0*64\r
+!AIVDM,1,1,,B,33@B505000WK1v60fPRdC0tl0DjJ,0*45\r
+!AIVDM,1,1,,A,15Q`PN0003actt4Clda=m2Lf0@>l,0*78\r
+!AIVDM,1,1,,A,13`e<EOP00PEP=PMan=00?vj28>r,0*75\r
+!AIVDM,1,1,,A,139LbqP01T0Wd=LNnIk5lTVf05Ip,0*36\r
+!AIVDM,1,1,,B,33n`G>0Oh>0CTsPMd1;:qb`J0Pv@,0*09\r
+!AIVDM,1,1,,B,13I49l?P000FkaHHmA7;Twvl25Ip,0*3B\r
+!AIVDM,1,1,,B,15MvOV0P00o?S<0K2juog?vf0D0J,0*23\r
+!AIVDM,1,1,,A,13bsi40023P1eGvLshl9f7ll0@>h,0*29\r
+!AIVDM,1,1,,,13P7Bj0P0D08Gm4MfqaGwwvl2H>r,0*78\r
+!AIVDM,1,1,,A,14Ut8T001K0g4irQ6kG3`3:h05Ip,0*29\r
+!AIVDM,1,1,,B,13aDr=PP00PGIlDMhwNCSwwh2D1A,0*59\r
+!AIVDM,1,1,,A,333wMwP000PD:GFMDsne<rDj0Rli,0*61\r
+!AIVDM,1,1,,A,139`iS?P0wPVs:6NLS3mIgvd0<2B,0*59\r
+!AIVDM,1,1,,A,4020reAuho;NHP`0MvNHqr700<00,0*0C\r
+!AIVDM,1,1,,A,139eK`PP00P`5P`NHq8SrwvhR0Rg,0*36\r
+!AIVDM,2,1,2,A,53P<m`@0?K@w8HQ7F21DiU=<E>2222222222221J3hN,0*7C\r
+!AIVDM,2,2,2,A,6640Ht0000000000000000000000,2*2E\r
+!AIVDM,1,1,,A,1342=2300FP=rnnML1IWf6Q:0D1u,0*62\r
+!AIVDM,1,1,,2,23aGFn@P00PE=28N1H?00?wfR0S8,0*47\r
+!AIVDM,1,1,,A,13b<Q`00000LnVrNQ<7tOqB:0@4c,0*7C\r
+!AIVDM,1,1,,B,33bfe8000rPL;:TNU<vkFk6:00uP,0*49\r
+!AIVDM,1,1,,B,177U<t003A0O<E`NjQc382PB084w,0*6B\r
+!AIVDM,1,1,,A,13e:6L002>0Sp>hNoO=S5RH@00SH,0*3C\r
+!AIVDM,1,1,,A,33afs65P000D8DnMd`GjBgvkP000,0*5B\r
+!AIVDM,1,1,,B,35Ad3p5P000Cnn6MGcDh0?v60000,0*6F\r
+!AIVDM,1,1,,B,13bjvT?0000BSeHMMwTJ?8>>0840,0*6C\r
+!AIVDM,1,1,,A,13fFQ4001F0BDnVMpUs0BPHl08>l,0*5F\r
+!AIVDM,1,1,,A,33`gl20OiNPGw0bNPefssIpd0000,0*55\r
+!AIVDM,1,1,,B,E02E381`60b37a6h6Lh@@@@@@@@0;FdI?Ede`00003v000,4*3A\r
+!AIVDM,1,1,,B,13av7h001N0HESpNQB<JG8Cp0l1=,0*39\r
+!AIVDM,1,1,,B,13bUGN00000GoWJNQuq:JPjj28>H,0*5B\r
+!AIVDM,1,1,,A,17f?aj0P000i?q2RABAP0?vh08>r,0*22\r
+!AIVDM,1,1,,B,13c5BL0P02POfkBNQ3=Kw?w@28GF,0*63\r
+!AIVDM,1,1,,B,13P6>F002sOiLS8NniSC7BRgH@>F,0*10\r
+!AIVDM,1,1,,B,13b3Cj00010E1rJMTnWaObkT0@Lt,0*39\r
+!AIVDM,1,1,,A,133wQ7PP00PD<BjMDun5LOvj28>t,0*7E\r
+!AIVDM,1,1,,B,13aBC4001;0Bt1BMfmgcsaRl28>t,0*22\r
+!AIVDM,1,1,,B,33AiNN3Oh:11K64NniAdv:th015P,0*32\r
+!AIVDM,1,1,,B,15Mj3>g000o?@W>K;vvb6nTl0H>q,0*60\r
+!AIVDM,2,1,6,2,E02E381`60b37a6h6Lh@@@@@@@@0;FdI?Ede`00003v000,4*7F\r
+!AIVDM,2,2,6,2,IV1,4*49\r
+!AIVDM,1,1,,B,13aGCo<P00PDHa2McqUe8Ovh28>t,0*08\r
+!AIVDM,1,1,,2,D02E34iFTg6D000000000000002gjG2,0*75\r
+!AIVDM,1,1,,2,33aJHE00000HD:HNPCWPPodl02H1,0*2B\r
+!AIVDM,1,1,,A,169<o6?P00`JrS0FCTPsHwvl2@>n,0*5C\r
+!AIVDM,1,1,,2,23aENG0P1;P@nVVMKim4pgw4P<4K,0*1C\r
+!AIVDM,1,1,,B,13aEOE>P08PEod0NCEwVv?v82@3g,0*09\r
+!AIVDM,1,1,,B,33aGsdmP0aPHQ>`M`snLKgvh22mQ,0*1D\r
+!AIVDM,1,1,,A,15E68r0005`iK5dAJVORb:0h00SA,0*5F\r
+!AIVDM,1,1,,B,16:=GR0P1W8PsT`>>;qHb?vh05Ip,0*64\r
+!AIVDM,1,1,,B,16:=<B8P018OmJT><7@`m?vd0<1Q,0*0F\r
+!AIVDM,1,1,,A,169`vgP0138WGhpDVT1:dpRh2D3k,0*76\r
+!AIVDM,1,1,,B,169GIF`P02`OgPP>;o71<?vd0<4I,0*25\r
+!AIVDM,1,1,,A,16:QiKP01I8i1inAqawf2h6h2@>H,0*57\r
+!AIVDM,1,1,,A,403t=3Auho;NH`S078CpkoW00D5e,0*1D\r
+!AIVDM,1,1,,A,16:BT<0000`RSOND6FrP?5Fh2D4f,0*47\r
+!AIVDM,1,1,,B,177<@n?0008:SRd<i5MIBjnh25Ip,0*1A\r
+!AIVDM,1,1,,A,13aJHD0P1APD2jbMDhM:Sgvj2D6u,0*36\r
+!AIVDM,1,1,,A,177h?U002<`ctTJCrjQkjS4h0<<P,0*16\r
+!AIVDM,1,1,,A,16:=?@00008PUBF>K=eKhkFh08>J,0*57\r
+!AIVDM,1,1,,B,403tCciuho;NG<tSF0l4Q@000PS:,0*42\r
+!AIVDM,1,1,,B,16:BBJP00486E=d<QgvCLkPj0L20,0*78\r
+!AIVDM,1,1,,A,4028is1uho;MsOvObpFTNFW000S:,0*04\r
+!AIVDM,1,1,,A,16:AAn0P00`Q0N@>E=p2Ph2d00SE,0*66\r
+!AIVDM,1,1,,A,E0000D0cFtH0000000000000000?iMam:R>vH00003RP10,4*45\r
+!AIVDM,1,1,,A,15QkGj0P1bOPqaVD5@eH`?vd0<2e,0*55\r
+!AIVDM,1,1,,A,169UB6POh08LAST=w6ev46nd00S6,0*4E\r
+!AIVDM,1,1,,B,169Cbc`00U8fJmtA:jiPwhAp0@>V,0*7F\r
+!AIVDM,1,1,,A,13`gavgP000DT9FMe0EP0?vh08>u,0*03\r
+!AIVDM,1,1,,A,13cCp20wh1P6aL8MPwe4H2pd0D3D,0*7D\r
+!AIVDM,1,1,,A,13bpuH800m0B@E2Mm3b0V0Nl2@>u,0*27\r
+!AIVDM,1,1,,A,19NSAbh02lwDA0dES;nePblj08>f,0*72\r
+!AIVDM,1,1,,B,19MVHE032CwAdrPFS`v72E`h0PSM,0*0C\r
+!AIVDM,1,1,,A,18159T001iwAhsBErO2G2UVl00T7,0*42\r
+!AIVDM,1,1,,B,14W2d<01Bqw3WG4EkpW17hlh0d0:,0*72\r
+!AIVDM,1,1,,B,39NP010ujC2>ctgfmbJ>3s>f0001,0*24\r
+!AIVDM,1,1,,A,13S@cH0vj;wL6UtDN<K:;`6d0@=P,0*74\r
+!AIVDM,1,1,,A,4028nBAuho;NEwPh=bE?sV700L2>,0*3F\r
+!AIVDM,1,1,,A,E028nGn10U7h9PV6RR4W0h8etfcgi;;1:Pe7p00003RP00,4*49\r
+!AIVDM,1,1,,B,133pCIPP00PD=FlMDwnJC?vlR5Ip,0*0F\r
+!AIVDM,1,1,,A,16K2;aP01Gb0TATDDo5Q7Prl2H>l,0*5D\r
+!AIVDM,1,1,,A,16K2>6P000awhsrDI4JdGA6l20S`,0*35\r
+!AIVDM,1,1,,A,15N02sgP00JdqSBGAvWJMwvh0<2a,0*72\r
+!AIVDM,1,1,,A,13M@DN@02b0e0GhHsRn5lTdj08>t,0*0F\r
+!AIVDM,1,1,,A,13aDoAOP00PWrGbLc3tC`wvLR@>w,0*3D\r
+!AIVDM,1,1,,A,36:AH=P00:8VivVDatlGGSPj216Q,0*50\r
+!AIVDM,1,1,,B,13aFgs@P03PGP:HMaKj=POvj2@>v,0*3B\r
+!AIVDM,1,1,,A,13na:000R=P7MaFNBAkEJDDd00Rk,0*37\r
+!AIVDM,1,1,,A,13aI9oSP00PFeV0Mad4P0?vj28>v,0*31\r
+!AIVDM,1,1,,A,13n95A00000Jg?DQrAHqq;8l25Ip,0*1A\r
+!AIVDM,1,1,,B,13nI6b0P000It1@Qj1pRkgvl0<1Q,0*1A\r
+!AIVDM,1,1,,A,16SWTf000ra3Tj8EJe45PDJj05Ip,0*62\r
+!AIVDM,1,1,,B,133m8bPP00PCvAbM=TBh0?vj28>w,0*3B\r
+!AIVDM,1,1,,A,233WuF0OiNPCigbMEtk7vFJj0<76,0*6A\r
+!AIVDM,1,1,,A,B3@o2QP000>JcOWv3uL03wdUkP06,0*70\r
+!AIVDM,1,1,,A,34R:gF5P000DAehMd?7StQrh0000,0*78\r
+!AIVDM,1,1,,B,13aDpGPP120Gl3NMaGLl2Ovi05Ip,0*45\r
+!AIVDM,1,1,,B,133ieQgP00PCnhTMF6uh0?vj28?0,0*09\r
+!AIVDM,1,1,,A,36:;AKP0058VDDbDVWWHgTRkp000,0*51\r
+!AIVDM,1,1,,B,15N;Ww0P00JmMsnGSk5;qgvj0@>G,0*11\r
+!AIVDM,1,1,,B,13Hb=P00000HSO@Hj5`E@V2j0@>i,0*1F\r
+!AIVDM,1,1,,,13aEOe0P13PIRPrN7qKd3wvh2H>m,0*34\r
+!AIVDM,1,1,,B,13ofCj000EPCqHpMd7l6T:lh05Ip,0*3A\r
+!AIVDM,1,1,,A,13aBfLhP000Cc``MdFHem?vj08?1,0*0F\r
+!AIVDM,1,1,,A,4025;PAuho;NH0NJbfMRhNA00@>n,0*18\r
+!AIVDM,1,1,,A,18Kiej022Cc0=EQgN`r76mnh0UIp,0*06\r
+!AIVDM,1,1,,B,13@nmk@0000r2pJOkoaP8Ftj0@?2,0*52\r
+!AIVDM,1,1,,B,15NCA5gP00ISrn2A8sl:uwvl2<3g,0*45\r
+!AIVDM,1,1,,A,15MuRP0P00ISb>VA6diLCOvj08>j,0*12\r
+!AIVDM,1,1,,B,15Mv7R0P00IRGPRA8NpItgvj0@>k,0*65\r
+!AIVDM,1,1,,B,15NL2H0P00ISjfvA4TgLb?vj08>m,0*49\r
+!AIVDM,1,1,,A,15NLp8?P00ISfuvA7oGJpOvj08>m,0*14\r
+!AIVDM,1,1,,B,15N0ipPP00IS33JA;tAswwvh0<21,0*3B\r
+!AIVDM,1,1,,B,15N7th0P00ISsi8A5I?biOvl25Ip,0*7E\r
+!AIVDM,1,1,,A,17u>=L021KR><<QfhV<7iVFf0@>q,0*2C\r
+!AIVDM,1,1,,A,13P7c9PP010qgopP49BJg?vl2L16,0*4F\r
+!AIVDM,1,1,,A,13P8fQhP1QOjCr`NReuEsOvh0<1:,0*3B\r
+!AIVDM,1,1,,B,133otggP0:0Chv@MG3gQcOvhP8?2,0*20\r
+!AIVDM,1,1,,A,139LA7PP0e0r6@hP2HW6u?vj0H>l,0*19\r
+!AIVDM,1,1,,A,802R5Ph0Bk;ThPGQ=RGaOwwwwwwwwwwwwk;Owwwwwwwwwwwwwwwwwwwwwwt,2*74\r
+!AIVDM,1,1,,B,34i;4B50P00P`0JHt:7ier8j2000,0*06\r
+!AIVDM,1,1,,A,13aDCthP1>PFJ>4Mf6u:3gvj20RG,0*5A\r
+!AIVDM,2,1,9,A,569pP6P000009=HT000`T4v0LtpN3O400000000l1HL46IQcN:E2@C`2,0*02\r
+!AIVDM,2,2,9,A,RCP000000000000,2*5C\r
+!AIVDM,1,1,,A,15?BgH00008K4bJFCHe7A;6h0D3u,0*16\r
+!AIVDM,1,1,,B,139a6mgP00PeaMFN`o2cFgvh0<3L,0*10\r
+!AIVDM,1,1,,B,24S8Dh5000PCSfBMH=jF=Tvh0<6Q,0*0D\r
+!AIVDM,1,1,,B,13b7ht0P000D2a<MdgOaPOvl2D=Q,0*6A\r
+!AIVDM,1,1,,B,B3uGgWP000=TKg`?iG803wdUkP06,0*42\r
+!AIVDM,1,1,,B,13u=7>P0000nEqBQ0Jm:MB8j08?0,0*08\r
+!AIVDM,1,1,,B,13vD040000Pmw7HPuHh<99<l0D1S,0*5B\r
+!AIVDM,1,1,,A,14VGJb0017wnjO2PdhSU;4Jj28>R,0*01\r
+!AIVDM,1,1,,A,13aDrGPP15PFh?FMfmq9egvj20Rp,0*07\r
+!AIVDM,1,1,,B,13Mjlh0000OnLThPdgS=J92j0@>e,0*68\r
+!AIVDM,1,1,,A,A04757QAv0agH2JdGsP`6OlPw4h6wKwuIA3v;OTA,0*1C\r
+!AIVDM,1,1,,A,13n34;wP000iMqtRBWe@0?vh05Ip,0*0F\r
+!AIVDM,1,1,,A,139T1hP0000W;MfNaR5`hEjj0D3@,0*05\r
+!AIVDM,1,1,,A,13`ekd0P00PCtNrMd:FP0?vjR<77,0*6D\r
+!AIVDM,1,1,,B,133REv0P00P=K?VMDH6h0?vj20S>,0*39\r
+!AIVDM,1,1,,B,13=t?:002=Of@aPO3Gk;waTh0`?4,0*26\r
+!AIVDM,1,1,,B,168svqPP0h8Ve7PDaSi33Ovj08>v,0*56\r
+!AIVDM,1,1,,A,13@oQRgP00PqeKHOoRk:Jgvl2<1K,0*18\r
+!AIVDM,1,1,,B,19NWvEP0000eIRrN`cjD5HLl0<3t,0*2E\r
+!AIVDM,1,1,,A,13aBNBg000PC`TBMHso9lbl`P5Ip,0*47\r
+!AIVDM,1,1,,B,143uhJ0P00RBLkbJo?`@0?vh0D0v,0*68\r
+!AIVDM,1,1,,A,403t>=1uho;NH`bgt@Apig7008>W,0*10\r
+!AIVDM,1,1,,A,169ULR000q`dAj6Aug3Is7pj20SF,0*6B\r
+!AIVDM,1,1,,B,13cSuf002P0fGOdHf>K0N0Jh05Ip,0*57\r
+!AIVDM,1,1,,A,369I6pQ000`dlRFAu7<B:Ijj0000,0*06\r
+!AIVDM,1,1,,A,11mg=3?P008dB`0F?:psLgvj20S<,0*19\r
+!AIVDM,1,1,,A,14hW;J002l02rNHLwu;9i7lj0D<O,0*56\r
+!AIVDM,1,1,,A,14`Wco0000PBu3:Mfoo`Ri6l0D92,0*23\r
+!AIVDM,1,1,,A,377:3L5000P0hudLC;?7C`nj0000,0*57\r
+!AIVDM,2,1,2,A,540UuF4000010;GKWP1920LDq@0000000000001I000004J@K04Sm51DQ0C@,0*53\r
+!AIVDM,2,2,2,A,00000000000,2*26\r
+!AIVDM,1,1,,A,13450f300C014A2LB1uLurfj0@?1,0*36\r
+!AIVDM,1,1,,A,13mA1H000GOrii0RJt1B25>j0@>u,0*7C\r
+!AIVDM,1,1,,A,38u<a<?PA=2>P5Ofu@oHkV`l0Q:1,0*23\r
+!AIVDM,1,1,,B,133w;`PP00PCqgnMcqOaf?vlR0T2,0*65\r
+!AIVDM,1,1,,B,33cSoN1u@00AJS@MfCHc3@bl0000,0*16\r
+!AIVDM,1,1,,A,133jM;gP00PCqPpMEAvIqOvl28?6,0*2F\r
+!AIVDM,1,1,,A,14eGEDhP01G<pG>L=DB60?vf08>?,0*1C\r
+!AIVDM,1,1,,B,35S4;b5000o<d=DL=U9Wq3Vh0000,0*60\r
+!AIVDM,1,1,,B,14eG;i@P0pG<e00L=EnD6Ovj05Ip,0*59\r
+!AIVDM,1,1,,A,E000Ws2S0a7h22h;0V2W1TPP000OwCfO;BELh1088;c02P0,2*6E\r
+!AIVDM,1,1,,A,14Vu@R0vjWwdQePDb<t3QRhf0@>I,0*49\r
+!AIVDM,1,1,,A,1>qc9ww000OkfS@MMI5004Rh0H00,0*69\r
+!AIVDM,1,1,,B,13bcuF0P000H@FnN:110`gvf05Ip,0*0A\r
+!AIVDM,1,1,,A,4028j=1uho;NHNpi9j?wtk7008>P,0*33\r
+!AIVDM,1,1,,A,343bqH50002BU2RJnt<2d4vl0000,0*1D\r
+!AIVDM,1,1,,B,16S`9`PP00a3P4@EKO`00?vkrD1v,0*4C\r
+!AIVDM,1,1,,B,10?QNe0P00PDGi8MDLH00?vj2D22,0*5B\r
+!AIVDM,1,1,,A,33ca9G5P000VcFPIE4S`c?vf0000,0*6B\r
+!AIVDM,1,1,,B,83aFfNPj2P00000000;H=hO03F00,0*55\r
+!AIVDM,1,1,,B,13aHId00000HippNK8ia996j00S<,0*34\r
+!AIVDM,1,1,,B,13:BN>0P@@Oi@HlNpODSOadl0@?7,0*35\r
+!AIVDM,2,1,1,A,56LPE602?95p`C;;3V1<PuTv0l59F2222222220l28@464o;0:p2T86Cjp3QjH66,0*2E\r
+!AIVDM,2,2,1,A,8888882,2*27\r
+!AIVDM,1,1,,A,339e17?P16PHSHLMa>MjCwvjRCC3,0*27\r
+!AIVDM,1,1,,A,433wJ5Quho;NIPDi4JMCv7700<7P,0*25\r
+!AIVDM,1,1,,A,13P;QKPP0106PnhMGgm1i?vj0UIp,0*23\r
+!AIVDM,1,1,,A,13aI<2@P00PD2onMdkRaNOvjR0Sc,0*0B\r
+!AIVDM,1,1,,A,15MkdnPP19G>k68K0ksp9Ovh00RK,0*78\r
+!AIVDM,1,1,,A,402<HTAuho;NI1gRhjRFI3100H?8,0*29\r
+!AIVDM,1,1,,B,4h3OvjAuho;NIo=cf0Knevo00t3?,0*50\r
+!AIVDM,1,1,,B,13aGD=EP15PGg3VMhPJl>Ovj20RJ,0*58\r
+!AIVDM,1,1,,A,13abu<?000QBdNtQtOescs0l05Ip,0*20\r
+!AIVDM,1,1,,B,133n<?P0000CT2pMEBvu:RRh05Ip,0*5B\r
+!AIVDM,1,1,,A,139hETPP00PCSarMcquP0?vj2<7u,0*12\r
+!AIVDM,1,1,,A,133oh`PP000CUdlM@@V@0?vh00RS,0*15\r
+!AIVDM,1,1,,B,15MwPIP000IT8=hA80q;ha6h00Rb,0*76\r
+!AIVDM,1,1,,A,15MuhLPP00ISjenA4TUK6?vl28?3,0*6F\r
+!AIVDM,1,1,,B,15NDcSP000ISPDHA1qtnk2Nh00Rv,0*7D\r
+!AIVDM,1,1,,A,133u`1PP00PD004MEwFC:?vj20Sw,0*56\r
+!AIVDM,1,1,,A,13aGFK0P00PCg7tMcU?P0?vj2L1c,0*73\r
+!AIVDM,1,1,,A,13aIjlOP00PKu=jMG7F@0?vjR@?3,0*1A\r
+!AIVDM,1,1,,A,13P7lnAP0mOdt@NLkP:ANwvj28>b,0*23\r
+!AIVDM,1,1,,A,13P7rKP000NqKm0@6UC`I;>l0@?7,0*6B\r
+!AIVDM,1,1,,A,13Oi>V8005Oe2?:LkmO=oQph0d0a,0*61\r
+!AIVDM,1,1,,A,24SaQh500F0Cu4fMErkb47vj05Ip,0*5C\r
+!AIVDM,1,1,,B,13oC1d000011jhhVP1VWo9uH00Rm,0*56\r
+!AIVDM,1,1,,B,13nOdR0P0011a7pVOR1;VgwD0@J8,0*37\r
+!AIVDM,1,1,,B,33P:owh00=OhST`NbbARdQpj00pQ,0*11\r
+!AIVDM,1,1,,B,133ghrP0000Cj?tMG2f=0bTh0<8f,0*04\r
+!AIVDM,1,1,,A,E000`D2S0a7h22h1bV62a0P0000OwP=h;=Q`@1088;c02P0,2*03\r
+!AIVDM,1,1,,A,13oT?@0P1n0Jm0LQq6l8eVnf08>i,0*12\r
+!AIVDM,1,1,,A,13Q4j@001d0I0:HQn3pk:jdh0<2>,0*4E\r
+!AIVDM,1,1,,A,18IASj002S0FSePNo@a01K:l08>s,0*36\r
+!AIVDM,1,1,,A,13aIkM@P00PJ@qLNL=e00?vj28?5,0*24\r
+!AIVDM,1,1,,B,13aDoP@P00PCcsbMG`Eq?wvj2L3w,0*7C\r
+!AIVDM,1,1,,B,13P;=Ah02M068brM;gN92G:n05Ip,0*42\r
+!AIVDM,1,1,,A,13aENGhP00PDuLrMe6UhFwvj28?<,0*69\r
+!AIVDM,2,1,8,A,55Mw<=0008jQL8?;;7DLhDpp60n222222222220O000004000010H1S1,0*76\r
+!AIVDM,2,2,8,A,AE8888888888880,2*28\r
+!AIVDM,1,1,,A,15QLVh002WabTANCdit1d1Fl0<3q,0*06\r
+!AIVDM,1,1,,A,13P<Hh0002wgdM`Nt2B=MWnl08?<,0*57\r
+!AIVDM,1,1,,,33P<f4CP@BP8;I6MjCwGr2@l01q@,0*6C\r
+!AIVDM,1,1,,B,13aBN9hP150CcovMHo@6wOvh0<3w,0*34\r
+!AIVDM,1,1,,A,13Q4j@001d0I0:HQn3pk:jdh0<2>F5qvPT,0*3E\r
+!AIVDM,1,1,,B,16:GHgP0007pllN;MCkF@0@f0<1K,0*21\r
+!AIVDM,1,1,,B,16:GFm0004Wp4jB;O?171Rhf20T1,0*0C\r
+!AIVDM,1,1,,B,1000<O?P0D7phuv;NhDal?vd0D0O,0*12\r
+!AIVDM,1,1,,B,368v9JUP007pkT0;MLCP0?vf0000,0*66\r
+!AIVDM,1,1,,B,169NbD00007plL`;MK`Gw88h08>Q,0*16\r
+!AIVDM,1,1,,B,1018lEgP?w<tSF0l4Q@>4?wp0h?7,0*3D\r
+!AIVDM,1,1,,B,1000<UwP067ph`H;NgglI?vh0D0D,0*1A\r
+!AIVDM,1,1,,B,16:Cr80P0086D00<SLLnj?vj28>k,0*2C\r
+!AIVDM,1,1,,A,36KVnDh02wawa@HDA7b`eVth8000,0*61\r
+!AIVDM,1,1,,A,403t?hAuho;NH`Pc:j>Kgq7000S:,0*32\r
+!AIVDM,1,1,,A,16KVls001rawoJ0D9OWf1c>l05Ip,0*5C\r
+!AIVDM,1,1,,A,36@BN25000`VR@6DV7<7dWrj0000,0*4F\r
+!AIVDM,1,1,,A,169>:4hP?w<tSF0l4Q@>4?v00PS=,0*01\r
+!AIVDM,1,1,,A,36K2:jhOh8awouHDCJhW2:Jl010h,0*3C\r
+!AIVDM,1,1,,A,168tcgP0008eqr2A88BFrSVj0H>s,0*08\r
+!AIVDM,1,1,,B,169a:A002G8hkHhA4EJ`HVpl0UIp,0*2B\r
+!AIVDM,1,1,,A,133eU4PP00PD6GVMDjqQ0wvj2<6h,0*68\r
+!AIVDM,1,1,,B,139LS80tilPU8=VNpR82rj>j2<2g,0*5F\r
+!AIVDM,1,1,,A,33nW@r5Oi>0JAk8QgcAB=R>l02wA,0*37\r
+!AIVDM,1,1,,B,13m7bt002=0Jj:PQiKbHGVbj0d1B,0*79\r
+!AIVDM,1,1,,B,15N9NLPP01IS<RTF7fJnowvj0@?<,0*31\r
+!AIVDM,1,1,,A,33aG?N000=0Co6DMdHJUlaEp0Pq0,0*75\r
+!AIVDM,1,1,,B,16:9mo`0008K8r>FD82koPlkp0Rq,0*4C\r
+!AIVDM,1,1,,A,14aOW:001T0G?RPNVGPRP1vf00S7,0*07\r
+!AIVDM,1,1,,A,14hlRp002tPEA6lNP8IPoPdl0<56,0*4A\r
+!AIVDM,1,1,,B,13tqbl0000Pt=`POcWBP06pj00Rq,0*53\r
+!AIVDM,1,1,,A,13I>hf000000mc:LD=mdWPTd08?:,0*6F\r
+!AIVDM,1,1,,B,13cDvF30000b@4dNoRASDi@d05Ip,0*25\r
+!AIVDM,1,1,,A,139Oet0P00Pao5jNmR5r9gwH0D1o,0*5F\r
+!AIVDM,1,1,,B,38ILRr50000avhPNmJB3m2hd0P00,0*3A\r
+!AIVDM,1,1,,A,13@WwF0PAE0b?B<NoR6peVph0D2>,0*13\r
+!AIVDM,1,1,,A,14RlS8001D0aE4HNlMP221dd0<3E,0*1F\r
+!AIVDM,1,1,,B,14SQ2j00000aW>LNm=wtWj2f0UIp,0*26\r
+!AIVDM,1,1,,B,4020rliuho;NGPWnmHNlh<700<00,0*25\r
+!AIVDM,1,1,,B,4020sViuho;NGPan`pNmQ0W00<00,0*49\r
+!AIVDM,1,1,,A,13agN@500w0aO=`NlwTBD1vf0<1Q,0*67\r
+!AIVDM,1,1,,A,139K`H501A0aqtBNmC;T838h05Ip,0*75\r
+!AIVDM,1,1,,A,139KSd0P00PaqbNNmdj1P?vjR5Ip,0*5C\r
+!AIVDM,1,1,,B,139aUg?P000b9LFNo1cP0?vj0<1l,0*22\r
+!AIVDM,1,1,,A,13ktps002BPquBLP4RWeDr`l2000,0*2E\r
+!AIVDM,1,1,,A,13GQwD0P00PD6f2MDmdBv?vlRH??,0*1C\r
+!AIVDM,1,1,,B,13eq2F001tOE0w0D`5Kb`pRj00RR,0*6F\r
+!AIVDM,1,1,,B,3815:jA000WjhlN;EneHmW4j0P00,0*45\r
+!AIVDM,1,1,,B,13cSeD0P000g:?LHs5QiVOwb08Or,0*47\r
+!AIVDM,1,1,,B,18KOQf0001OqpeHM5uf<5DHl0L3F,0*76\r
+!AIVDM,1,1,,B,33P<Gpt00gwgAWHNuEGqw8Jl00a@,0*23\r
+!AIVDM,2,1,3,A,53ca9G02<PA<T85`000lDL60EQ18E=>1@Q8DD0154jf,0*5B\r
+!AIVDM,2,2,3,A,E44ijN@ThESkP@00000000000000,2*0E\r
+!AIVDM,1,1,,B,13aBNfhP0c0G2kNMehgGr?vh0L1r,0*2B\r
+!AIVDM,1,1,,B,13bvt<001>07n=PMJMNPShNl05Ip,0*01\r
+!AIVDM,1,1,,A,15Mulj0000rmv6HGcEEtCS>j20Rt,0*3B\r
+!AIVDM,1,1,,A,13M@F2@000wvnshM4EOLh6Dl2@?@,0*1D\r
+!AIVDM,1,1,,A,13aDs1@P00PDSsnMdgiTE?vhR8?@,0*0B\r
+!AIVDM,1,1,,B,14QsE?P02NOBPHDEmpmnTE>h20SQ,0*29\r
+!AIVDM,1,1,,B,14QsCt@011OAFj@F:i8Vu5>l08??,0*46\r
+!AIVDM,1,1,,2,13mhtF000t0=W?:MWAtCh2hj0<43,0*44\r
+!AIVDM,1,1,,A,A04<g?i:7Tcip2KBGs@`7Owu00TN05<07it0MP1A,0*7C\r
+!AIVDM,1,1,,B,D02E3:1FTg6D000000000000001,2*2A\r
+!AIVDM,1,1,,A,14QsE<002700hd8NtFNUJ4Dl00SM,0*66\r
+!AIVDM,1,1,,A,13aFdewP1IPHE7DMal5KMwvl2@?A,0*61\r
+!AIVDM,1,1,,B,D02M3UAalNfr<`N000000000000,2*4E\r
+!AIVDM,1,1,,A,13esbD?0000W;nlNa;FP7UHh0@>h,0*23\r
+!AIVDM,1,1,,B,13u?jB?0000r4j2P4MP=0bbj00RV,0*7E\r
+!AIVDM,1,1,,2,16Lbpp022U0:LqHMNSTQO1Dl0<5U,0*09\r
+!AIVDM,1,1,,A,139eiI0P00PW:a@NaKjP0?vj2D2<,0*11\r
+!AIVDM,1,1,,B,140Utf0P00PCv2:ME7t<`OvhR5Ip,0*42\r
+!AIVDM,1,1,,A,36K<iL001aGWFg8BeHiP5h8j00v1,0*36\r
+!AIVDM,1,1,,A,33n`G>0Oh>0CTt2Md1?:qbbL0P00,0*59\r
+!AIVDM,1,1,,B,13aBN`PP01PD:<<Md7`obOv:R<9n,0*4C\r
+!AIVDM,1,1,,,33@oN7POhfP6W`VMRpti8i9p0Pkh,0*2E\r
+!AIVDM,1,1,,A,29NWv`001:PBa1tMI>mD;S@l20S2,0*2B\r
+!AIVDM,1,1,,A,15BBLr3P000CA`TMeRnWtwvl2L=q,0*11\r
+!AIVDM,1,1,,A,16:>9480008Vk6FDai3sr3<l2L3D,0*41\r
+!AIVDM,1,1,,B,15N3JtPP0wINw<2BWKVGaOvl0D0>,0*5A\r
+!AIVDM,1,1,,B,239K6?50010CTGTMH5gad:Tj0<6e,0*66\r
+!AIVDM,1,1,,A,33`hoKG00HPF>0dMf8JV`Rll01t0,0*01\r
+!AIVDM,1,1,,B,1341BL00000Id54HdwklMFhf05Ip,0*55\r
+!AIVDM,1,1,,B,168sV@00018K0D<FCS9`nqLl20Rv,0*53\r
+!AIVDM,1,1,,A,33aDo;0P000Ph?HMOfM4>?w20P01,0*70\r
+!AIVDM,1,1,,B,13aDpg@P0=PHtIJMdv0=;gw@28?D,0*2F\r
+!AIVDM,1,1,,A,12wj;=@01IQdOKlET8RF8E0k8<2F,0*00\r
+!AIVDM,1,1,,B,16SWSlPP0wa3J`>EFBAjC?vl2<3<,0*15\r
+!AIVDM,1,1,,A,133kV>PP00PD6BFMDnBhhwvl25Ip,0*44\r
+!AIVDM,1,1,,A,15Mj2wP001o>bilK=hS;E:4l00RV,0*42\r
+!AIVDM,1,1,,A,13aDq2wP1GPH5k0Mablb>gwlP8?E,0*75\r
+!AIVDM,1,1,,A,37PD7<0PAjblQiOjFwFsfIBj012@,0*15\r
+!AIVDM,1,1,,A,13aGu=PP000D3FHME?G:Hgvj0H?B,0*7F\r
+!AIVDM,1,1,,A,33mGSF0OkFPJi3NQfsMH0FFl01<h,0*0D\r
+!AIVDM,1,1,,A,19<Ja8h00P2BLp4J`eA4BCLh28?F,0*2D\r
+!AIVDM,1,1,,A,13`j4pPP00PCrPdMEqNjW?vj20Ru,0*33\r
+!AIVDM,1,1,,A,16:IpN00008giL4ENGCurA2j20SN,0*2C\r
+!AIVDM,1,1,,B,16:CpmPP028F9P>=G;QE9?vkr8>e,0*32\r
+!AIVDM,1,1,,A,368sgS?Oh28cWBBEOb5Fuq0l00r@,0*0B\r
+!AIVDM,1,1,,B,B6:Ka5P00:5OGISEbFp5l4v021Mk,0*26\r
+!AIVDM,1,1,,B,169pkw8000`ckoDEObSHK34l20Sf,0*58\r
+!AIVDM,1,1,,B,16:Qm@P000`FEHJ=G4bnWS<krL19,0*42\r
+!AIVDM,1,1,,A,33emOj1P@bKGSDB:S4OEWTCp0S1Q,0*75\r
+!AIVDM,1,1,,A,16:D`R0P018gniVEJEOk:ELf08@f,0*17\r
+!AIVDM,2,1,7,A,569nh@0000000000001=DV0P4V1UDr33380000164H:8878?N4UiBH1P,0*77\r
+!AIVDM,2,2,7,A,CQh000000000000,2*69\r
+!AIVDM,1,1,,B,168u`@;00187<0@=<`qt`o8h28>R,0*5B\r
+!AIVDM,1,1,,B,35NIEcP000ISrjJA8tCqBq<l05@C,0*70\r
+!AIVDM,1,1,,B,15AOvL100087K6h==P<3L3Dh08>T,0*60\r
+!AIVDM,1,1,,B,15MpAUP000IR<;PA9Mo:bs:l05Ip,0*3F\r
+!AIVDM,1,1,,B,16:D3g0001`7RKd=<c?0s:Tj2H>V,0*2B\r
+!AIVDM,1,1,,A,15Mw=;gP00qSvuvA8I8JNgvl0<3V,0*66\r
+!AIVDM,1,1,,B,B6:k0GP09B1ttO3Al@?BOwd3QP06,0*59\r
+!AIVDM,1,1,,B,15N0;LPP00IRcDVA96ArPgvj08?=,0*1E\r
+!AIVDM,1,1,,A,36:Qcs1000`Tf:FFiALRJoRl0000,0*1C\r
+!AIVDM,1,1,,A,403t>>1uho;NH`ajJ`AjFCo00L:@,0*2D\r
+!AIVDM,1,1,,A,403t=KQuho;NH`d:WFAtwnW00<=T,0*0C\r
+!AIVDM,1,1,,A,16:5Oj001s8jarHB=98VtEbj05Ip,0*6D\r
+!AIVDM,1,1,,A,403t=K1uho;NH`gTjhAvds7005Ip,0*27\r
+!AIVDM,1,1,,B,169GROPP0s87Mdf=<l?Dvgvj0<2:,0*5D\r
+!AIVDM,1,1,,A,E>l5A0t9T2W@9T:Th70W@54RhHpDEsAc90bD800003v010,4*06\r
+!AIVDM,1,1,,A,16:;<t00?w<tSF0l4Q@>4:wT0PSr,0*56\r
+!AIVDM,1,1,,B,169G;60P0087VU6=9Dp00?vj28?1,0*1C\r
+!AIVDM,1,1,,B,13AwPr00000pFa2P7Io:I5Jl25Ip,0*79\r
+!AIVDM,1,1,,A,19NS93@026PisEPQ1BpE7T:j0UIp,0*6A\r
+!AIVDM,1,1,,B,H0HN<8QLTdTpN22222222222223,2*1B\r
+!AIVDM,1,1,,A,13u=CfPv1Q0muDjPuDOp96Jf00SD,0*63\r
+!AIVDM,1,1,,B,13uDWsg000PmrUBPtKsIIHVl05Ip,0*6F\r
+!AIVDM,1,1,,A,33u?eoP70?Pmvj2Pw>jkL2fh0121,0*77\r
+!AIVDM,1,1,,B,18155uh1@8oOgBTBCt1S30pf0<08,0*1E\r
+!AIVDM,1,1,,B,15DR4D00000>fT`MGr<00JFn0D:;,0*48\r
+!AIVDM,1,1,,A,16K2<nh000awHPhD<8gaP7Dl0<3w,0*75\r
+!AIVDM,1,1,,A,4025bv1uho;NH0eW3jPrU6A00<3>,0*25\r
+!AIVDM,1,1,,A,133gBLPP00PD>j:MDGWP0?vl2D5C,0*58\r
+!AIVDM,1,1,,A,13`vAs0P00PW@NPN`742BOvj25Ip,0*09\r
+!AIVDM,1,1,,A,13`wgT0P5fPGn5DN>mgDHwvj2<05,0*2D\r
+!AIVDM,1,1,,A,13P<Nw0000P=L6jMCsJnD6Nl0<4B,0*7F\r
+!AIVDM,2,1,1,B,53aDC=l000010;C;WP0<UA8TpD0000000000001@?@=8740Ht=TSm1DQ0C@0,0*57\r
+!AIVDM,2,2,1,B,00000000000,2*26\r
+!AIVDM,1,1,,A,13aDrj@P00PIGnrM`VE00?vlR@?H,0*35\r
+!AIVDM,1,1,,A,18I>or001IJqFhPGTeH>1;8l0@>a,0*09\r
+!AIVDM,1,1,,A,369pWf0P@08K9hhFCCl<69hl017Q,0*7B\r
+!AIVDM,1,1,,B,140UsA0P0iPP:T@M4tV63gvlR5Ip,0*1D\r
+!AIVDM,1,1,,A,333rjigP00PD>L4MD?8qPwvnR7O3,0*58\r
+!AIVDM,1,1,,A,19AC=Ph02907w<dMC;3a97Bl0<5g,0*23\r
+!AIVDM,1,1,,B,16:GHAgP007kVt:;BSIC3FDh0H??,0*24\r
+!AIVDM,1,1,,A,19NWukm01=PBp9<MgDK4e3hj2d;8,0*0F\r
+!AIVDM,1,1,,A,13P<0D3P@lwkNu>MN5BWrV>l25Ip,0*01\r
+!AIVDM,1,1,,A,33P:EW5vh0OnPNhPd`Q<Il@f00u@,0*1D\r
+!AIVDM,1,1,,B,133qi9PP00PCoMBMGdO:vgvjR8?I,0*4C\r
+!AIVDM,1,1,,B,133fOD00000CaL0MEBq8QQBn0D;p,0*07\r
+!AIVDM,1,1,,B,13uMw2?0000p;4NPaSPs9Gth08?2,0*72\r
+!AIVDM,1,1,,B,33u=a=P001Pq<NRPSbFp=nNj0000,0*71\r
+!AIVDM,1,1,,B,133be800000=IsNMD618va`n00SD,0*6A\r
+!AIVDM,1,1,,A,139=P:001n0T2jHHqKC1QQ@f08?;,0*4B\r
+!AIVDM,1,1,,B,13cVR;0P010g9ohHrkU=egvj08>V,0*34\r
+!AIVDM,1,1,,A,13cjW>00000g92`HrSu662bB0@?G,0*7E\r
+!AIVDM,1,1,,A,13u>>3?P001Bg>BQt`i9Vgvn28?K,0*27\r
+!AIVDM,1,1,,A,16K2@s@000acpfHCh;Kre9Fl2@?<,0*69\r
+!AIVDM,1,1,,B,13P;e:@01i01ORHO@G5UPTPj00Se,0*4F\r
+!AIVDM,1,1,,B,15Mvw00000IS8oHF8bAJ0:`j0@?I,0*49\r
+!AIVDM,1,1,,A,13P7=o000nP5N3:ML06Ib7jl25Ip,0*4E\r
+!AIVDM,1,1,,A,13HUgu?P1`P0putLS;@5DOvl0<0W,0*2F\r
+!AIVDM,1,1,,A,16K2;aP01Gb0TATDDo5Q7Prl2H>lLKgvik,0*49\r
+!AIVDM,1,1,,A,139guFgP1=PD2OBMdQhCqOvn28?K,0*52\r
+!AIVDM,1,1,,A,13cBFH002102vD`LnMDSIRbT00Rt,0*2B\r
+!AIVDM,1,1,,B,13u?jNPP00QBgJlQtKEh0?vl20Rr,0*6F\r
+!AIVDM,1,1,,A,34eGTqPP@bG;pWhL7?LCdhhl0181,0*7C\r
+!AIVDM,1,1,,B,14eGEAh000o8dOTL8N2`w6dh05Ip,0*6F\r
+!AIVDM,1,1,,A,101:gNPP0QPCm4jMBQtWT?vlR<7?,0*2E\r
+!AIVDM,1,1,,A,133WgP?0?wPD:nFMDJI>45Vn08?L,0*40\r
+!AIVDM,1,1,,A,33eaN@5000wWB;LDdm6c68>f0000,0*72\r
+!AIVDM,1,1,,B,33b;3p0P@IPW0TtNbSr;=arl01r0,0*76\r
+!AIVDM,1,1,,,13acD`8P0006gSdMQp0:Dwvn0H?J,0*3D\r
+!AIVDM,1,1,,B,13@oW?P0000qgwLP41M=872n0H?=,0*11\r
+!AIVDM,1,1,,B,100:g0P000PIa3lN8N7@0;8lR@?M,0*4E\r
+!AIVDM,1,1,,B,33ew540u1owwtO0O0Fm<Wb4j00uh,0*38\r
+!AIVDM,1,1,,B,133e`UPP000DCFtMDA3h0?vlP5Ip,0*1B\r
+!AIVDM,1,1,,A,6h2E:p<rE>Ut04<0@00000000000,0*29\r
+!AIVDM,1,1,,B,139RcD000tPVs6fNq30:@8@l05Ip,0*64\r
+!AIVDM,1,1,,A,13@o;hEP0T0pqIvP917KsOvl2D0a,0*02\r
+!AIVDM,1,1,,A,15?92B1P?w<tSF0l4Q@>4?wv0d0R,0*5B\r
+!AIVDM,1,1,,A,13=I`D5P008VjT2DanI9sgvj0`?G,0*68\r
+!AIVDM,1,1,,A,15BfiJ200O;0qwEgpif8=6:h00Rv,0*4D\r
+!AIVDM,1,1,,A,169pl9?000`caBVEPk39DU6l2@?5,0*03\r
+!AIVDM,1,1,,A,14avgF001P`cjKPEP;dJSpPj0<1h,0*4A\r
+!AIVDM,1,1,,B,16:B0=`0008fj6DA2:;;LUdj28>w,0*5C\r
+!AIVDM,1,1,,A,402M4L@000Htt12>B0VPVH700`Jv,0*21\r
+!AIVDM,1,1,,B,16:BP80000`eqTJA88weo3@l2@?1,0*07\r
+!AIVDM,1,1,,B,13`e<U0P1?PGdQpMVp23Wgvl20Sb,0*04\r
+!AIVDM,1,1,,B,13m;k00P0011nFnVP5Q;TwwN28K9,0*37\r
+!AIVDM,1,1,,A,13oJ2r000011joTVP0ViITD000S3,0*10\r
+!AIVDM,1,1,,A,16Sqn;?000a3Jh<EEw:MWGll28?D,0*74\r
+!AIVDM,1,1,,A,13Ggvt7P0JP3DJrM09jrRgvj2@?9,0*05\r
+!AIVDM,1,1,,A,15MooR0P02Je;78GC2D`egvn2@?J,0*4B\r
+!AIVDM,1,1,,B,19NWsE002D0Sq38Ht3bQgiDh08?G,0*03\r
+!AIVDM,1,1,,A,13:kvh001k0aQUHHgl?ieADl08?L,0*4E\r
+!AIVDM,1,1,,B,168sVa0P008K37FFCLsSUgvl0@?H,0*49\r
+!AIVDM,1,1,,A,13aEQTHP00PD>0hMd6I@0?vlR0RQ,0*0D\r
+!AIVDM,1,1,,B,15NF8f0P00ISHSn@nv3Ju?vl2H??,0*73\r
+!AIVDM,1,1,,A,15ND5?0P01ISjblA4QTIn?vl0@?@,0*40\r
+!AIVDM,1,1,,A,13gS;gW000NqIeB@6eAdD5dl0<0L,0*45\r
+!AIVDM,1,1,,A,13aGuEPP000JL2rNTkNb=wvl2D6>,0*37\r
+!AIVDM,1,1,,B,13aEQD0P0nPJh5JNSfCMNwvlR8?@,0*66\r
+!AIVDM,1,1,,B,13aDGp0vicPHHFlNThqjq2Bl0<35,0*0D\r
+!AIVDM,1,1,,A,13aKpF70000LJ4HNSp6um7tl00RI,0*02\r
+!AIVDM,1,1,,A,13aGuE0P000LGj4NSu9rA?vn2H?H,0*7F\r
+!AIVDM,1,1,,B,19NSC`m03=0K?VtNeOrRkB:f00S@,0*04\r
+!AIVDM,1,1,,B,133fgcUP1WPGdEvMaV@c?wvnR5Ip,0*02\r
+!AIVDM,1,1,,A,18Ih@`002babF>`CjF64kSrh00Rp,0*08\r
+!AIVDM,1,1,,A,16KJWU0000b1F`bDEvM7dq<l20Rc,0*4E\r
+!AIVDM,1,1,,A,16K8Cb0000awjR8DIfBUbVLf0D2M,0*0C\r
+!AIVDM,1,1,,B,15N;0>0019Jllg8GWdL<Kr2j0<0;,0*25\r
+!AIVDM,1,1,,B,14eGcjPOiAo;c0BKpO=e=rVj00Rc,0*17\r
+!AIVDM,2,1,5,A,533oeqT00000uC?SG41@T8E8T5<000000000001S;p:46tnl000CU5iDT1CP,0*31\r
+!AIVDM,2,2,5,A,00000000000,2*21\r
+!AIVDM,1,1,,A,16K8Dah001awB4lDB6>I:n`l28?B,0*4A\r
+!AIVDM,1,1,,A,16SWm30000a3P1bEKOV>1PPl2@?H,0*5B\r
+!AIVDM,1,1,,A,16K8Db?001aw;QdD@;uquipl0<3A,0*27\r
+!AIVDM,1,1,,B,13aDq<@P060GqA:MaQ`@?gvj2D21,0*48\r
+!AIVDM,1,1,,A,13cInn3006wVbg<DQLM896hh05Ip,0*0C\r
+!AIVDM,1,1,,A,13F9HR001WOVlWpDTED7iVDb0H>0,0*3C\r
+!AIVDM,1,1,,A,16KPiBh001awk<6DDlFrHAHn00Rd,0*7E\r
+!AIVDM,1,1,,A,16K8Dkg000awMfhDChIRk:bn0@?G,0*5E\r
+!AIVDM,1,1,,A,13aPpb3Oh2PUD3vNamrRGhBl0<2v,0*0E\r
+!AIVDM,1,1,,A,13W0K80000OVgoPDQuSeEJNh05Ip,0*32\r
+!AIVDM,1,1,,A,13aDqJhP1NPE=bLMcSUd??vlRD3w,0*7F\r
+!AIVDM,1,1,,A,16KJcuP000b08VjDDTgodTDl05Ip,0*78\r
+!AIVDM,1,1,,A,169q14`0008Vf?8Da0HD570n0<3f,0*2F\r
+!AIVDM,1,1,,B,13thlJ0001Prfp`OuP3sbJnl08?Q,0*2E\r
+!AIVDM,1,1,,B,15MvtiP000qSPHHF=LqIC0Bl08?O,0*3F\r
+!AIVDM,1,1,,A,139h9WgP1BPFq6fMagK3Ngvn2D3k,0*44\r
+!AIVDM,1,1,,A,23aEP@@P00PEsrpN2G?P0?vl20Rv,0*00\r
+!AIVDM,1,1,,A,169;2fPP008Kqv4FCLSJI?vn0L7N,0*0C\r
+!AIVDM,1,1,,A,140UuI@0000D>2NMe0ch010l00Sg,0*46\r
+!AIVDM,1,1,,B,13u><wgP011Bht<QtcMV5Ovh0@>t,0*41\r
+!AIVDM,1,1,,B,14hMin00001d@CNEe:5@0DBl00SH,0*34\r
+!AIVDM,1,1,,A,13@nfwhP000q`34Op@?:7Ovn08?R,0*7A\r
+!AIVDM,1,1,,A,13MFwP001o03n22M2LD8TFnn0@?L,0*65\r
+!AIVDM,1,1,,A,19NWvG@1jJ0CT`fNADmi3Ppj00S5,0*26\r
+!AIVDM,1,1,,B,14eGqlPP00L>h5nK=f6DuOwf00Sb,0*26\r
+!AIVDM,1,1,,B,343`I>0Oh0RBRGNJo=6@01Bj09U1,0*40\r
+!AIVDM,1,1,,B,13AC<v?01K0r406OoM3nu5Vl05Ip,0*1C\r
+!AIVDM,1,1,,A,13q5BP0P00Q2q0tNVMM00?vlR8?S,0*7F\r
+!AIVDM,1,1,,B,15DnAB002B0bRE6I1Rv9@WJf08?N,0*2C\r
+!AIVDM,1,1,,B,133ji6PP00PCugjMDpm00?vlR0T6,0*7B\r
+!AIVDM,1,1,,A,802R5Ph0Bk;D4hGEQjGa0@A58gwwwwwwwwwwwwwwwwwwwwwwwwwwwwwwwwu,2*4A\r
+!AIVDM,1,1,,A,133mODPP0w0G5G`MaUwkgwvnR@?S,0*40\r
+!AIVDM,1,1,,,13nSNf3000P8qv8MdS:3m0Tn0h?R,0*05\r
+!AIVDM,1,1,,A,B3seW:0007m>8DUR>T9@;wdUoP06,0*54\r
+!AIVDM,1,1,,A,19NSC:h023wABEpF8@PVu5Pl00RG,0*03\r
+!AIVDM,1,1,,B,13bPVj001qwBHAPEoJdVT5:j00Rl,0*58\r
+!AIVDM,1,1,,A,135OEv001hOC>j@Ewn<=Qbrl28?N,0*27\r
+!AIVDM,1,1,,B,14TT;b001fwAg22FHk;G2ERn05Ip,0*11\r
+!AIVDM,1,1,,B,13`ekbhP000Cb@LMd6P@0?vj0<3w,0*5A\r
+!AIVDM,1,1,,A,16K2;6O000awBSHDB;`;@9dn2H?M,0*78\r
+!AIVDM,1,1,,A,13iDhn0000wvsbDNeIcdWb6j05Ip,0*6B\r
+!AIVDM,1,1,,B,14hr:@?0000IbthHdv9Ubnbn0H?S,0*6A\r
+!AIVDM,1,1,,A,402Pe?1uho;NIOGIurF`EAi008>l,0*02\r
+!AIVDM,1,1,,A,13aJINPP01PCnVbMFFv9>?vn2L8c,0*7E\r
+!AIVDM,1,1,,A,33ILKT800j08M=vM:SesSIBn00s1,0*26\r
+!AIVDM,1,1,,B,13b5sh?0000W8C0Na`R<q62j0H?=,0*0C\r
+!AIVDM,2,1,8,B,55B1nJ02>Fhw<Dm;V205@h4q@T>0@4U=V2222216BpJD84oh`BT3lU30,0*23\r
+!AIVDM,2,2,8,B,CQ;5Bp888888880,2*01\r
+!AIVDM,1,1,,A,38K>Kv50018VRt8DV8lIgR>l0000,0*79\r
+!AIVDM,1,1,,B,13n3aW0PCfPJWinQh7Uri`Tl2H?P,0*4E\r
+!AIVDM,1,1,,A,13oQg600000JA1JQgaR:q5Nn00Sc,0*60\r
+!AIVDM,1,1,,A,33m:q<0PAN0JK5FQibG`sG:j00qh,0*11\r
+!AIVDM,1,1,,A,13nA>h0P010L174QpfrnQgvh08>w,0*40\r
+!AIVDM,1,1,,A,15NEO?002KJeN4`GDhaHJ6hl28?P,0*4A\r
+!AIVDM,1,1,,A,402Cu@iuho;NGwVr5pDRso7008>N,0*2C\r
+!AIVDM,1,1,,B,13a=:t00000GMwlMaJTer5ph08?U,0*7E\r
+!AIVDM,1,1,,B,23@QU<000CPCRr2MFcQH1Fhn00SG,0*3A\r
+!AIVDM,1,1,,A,168sVwPP008K2prFCNk=dOvmr8?O,0*1F\r
+!AIVDM,1,1,,A,35Swd@1000`TLdTD<4n7H24p0000,0*42\r
+!AIVDM,1,1,,A,18IaCD00008cvPhB4q8HEkbl28?0,0*47\r
+!AIVDM,1,1,,B,33cHpF002L0BSd:MgtGKAq6h05@k,0*2B\r
+!AIVDM,1,1,,A,403t>=Quho;NI`cptbAstCG008?9,0*60\r
+!AIVDM,1,1,,A,403t>Uiuho;NI`gcpJAMqIo000S:,0*75\r
+!AIVDM,1,1,,B,13aDq?@P000GGo6MhW200?vjR0SJ,0*2D\r
+!AIVDM,1,1,,A,13chfQ0P000g:C@Hs?2P0?vh0@?N,0*60\r
+!AIVDM,1,1,,B,1:16dn0P000g<INHseOLGwvn0@?O,0*5A\r
+!AIVDM,1,1,,B,13e:Qj0P000fpiPI6=;qVOvn2<0k,0*60\r
+!AIVDM,1,1,,B,133Vvn001nP=;L:MEu4n64`n08?U,0*6C\r
+!AIVDM,1,1,,,13aEQMhP1IPJB94N5n?K=wvj28?S,0*19\r
+!AIVDM,1,1,,A,133pjaPP00PCQgNMFJKKogvl2D8i,0*73\r
+!AIVDM,1,1,,B,15MTbUPP01ISbCNA7e3rKgvl0D00,0*6B\r
+!AIVDM,1,1,,A,15NDvl0P00ISd<6A3lu;COvn28?G,0*10\r
+!AIVDM,1,1,,A,13aGDjAP1DPHfFFNKNORC?vjRD0g,0*41\r
+!AIVDM,1,1,,B,15N0eN0P00ISh?8A8fSd2wvl00Rc,0*27\r
+!AIVDM,1,1,,B,15NJrMWP00ISo5TA2s2P0?vj0<2q,0*37\r
+!AIVDM,1,1,,A,33P:LS3P@qP6Q8>NAi;Mirhh21th,0*24\r
+!AIVDM,1,1,,A,15NLWQPP00ISImtA7PeDHgvj0@?M,0*5A\r
+!AIVDM,1,1,,A,15NDCn0P00ISpI<A8m5<jgvn0<3V,0*1B\r
+!AIVDM,1,1,,B,15MwjVP000ITJ>T@tivLhaLn05Ip,0*0A\r
+!AIVDM,1,1,,A,15MvaIdP00qT3g6A:WnKGgvn2<5O,0*07\r
+!AIVDM,1,1,,A,15?9m400002>2>efqhB0lVBl00RE,0*16\r
+!AIVDM,1,1,,A,133f01PP000D=GpMDvN@0?vlP8?W,0*6A\r
+!AIVDM,1,1,,B,15N4cJ`000JrjatH@0=7tjlj05Ip,0*73\r
+!AIVDM,1,1,,B,6h2E:p18RcmR04<0@00000000000,0*39\r
+!AIVDM,1,1,,B,83aDowhj2d<dtN=<tibptga@0100,0*18\r
+!AIVDM,1,1,,A,15N3fV0000rn1ihGbo:mAa<l00R>,0*42\r
+!AIVDM,1,1,,A,34SA3F1001OVNUhDQSd5taf=P000,0*15\r
+!AIVDM,1,1,,A,13@nhr@000PqbKtOp22Ha2Tn08?G,0*72\r
+!AIVDM,1,1,,A,13aJGc0P160HrD2Mcv;1k?vj0@?`,0*05\r
+!AIVDM,1,1,,B,33b?ED00110Dt3LN1@lSG2bj00oQ,0*45\r
+!AIVDM,1,1,,B,13aDqWKP00PP@NRMO1sd3Ovj20Rv,0*01\r
+!AIVDM,1,1,,B,14S60D001U0r7NhOn2d=jc4j00SF,0*0E\r
+!AIVDM,1,1,,B,13aDCGwP00PD@ftMcn0lvwvl2D3w,0*52\r
+!AIVDM,1,1,,B,33aGvF02i808;nnN4WBPTPFl0000,0*42\r
+!AIVDM,1,1,,B,33aDoJ@P00PE0BBMdK<94wvlR04i,0*11\r
+!AIVDM,1,1,,B,139eMFPP070apB>NmjIl@wvh0<1o,0*3D\r
+!AIVDM,1,1,,A,13@oU8hP000nBB`Pw3mKqwvn0@?H,0*4B\r
+!AIVDM,1,1,,B,B3klf7000h=J8N`A8He=3wdUkP06,0*1A\r
+!AIVDM,1,1,,A,33u=L?POhM0n=NhPw`V;<8nj0000,0*48\r
+!AIVDM,1,1,,B,13uCRr0P000mwsbPuU7IRgvn2D1M,0*43\r
+!AIVDM,1,1,,B,13uB1u?0000m;uFQ3cHrPG4n2H?W,0*6A\r
+!AIVDM,1,1,,A,13u?ew0001Pn=H>Pw`;oVTRj05Ip,0*1D\r
+!AIVDM,1,1,,A,13UtWB002V1kIcLE3kd7GEpl0D0<,0*60\r
+!AIVDM,1,1,,A,13@nm?h0000hOELQ1diqhQTn05Ip,0*3D\r
+!AIVDM,1,1,,A,14eGnq7000G1C98L0GUuITFl0@?T,0*1A\r
+!AIVDM,1,1,,A,13P<<6OP01OhFA8Nt?k@`?vl25Ip,0*11\r
+!AIVDM,1,1,,A,16KJ`Ih01wawccdD>7q@ihTn2D56,0*57\r
+!AIVDM,1,1,,A,13aGtg?P00PFjOFMbPP00?vl28?b,0*56\r
+!AIVDM,1,1,,A,13aEQsPP13PHSovN2U4BD?vlR8?T,0*4D\r
+!AIVDM,1,1,,A,133snFgP00PD7slMEB`awgvnR0SI,0*7C\r
+!AIVDM,1,1,,A,15>vVD001M08:UtMBeE1f1Hh8d57,0*20\r
+!AIVDM,1,1,,B,B3@oekh07h>K@H80hjpFCwe5kP06,0*6A\r
+!AIVDM,1,1,,B,133oCEPP010CrpPMdiJ6@gvj05Ip,0*66\r
+!AIVDM,1,1,,A,402=aQAuho;NIP4GMhNBk3o00<13,0*11\r
+!AIVDM,1,1,,A,14RJK@00000HoBRNKnir;nNn2D3Q,0*26\r
+!AIVDM,1,1,,A,13`sFD001h0:Lh0MSV78eVvp08?a,0*56\r
+!AIVDM,2,1,4,A,53aGt3D000010C?7CF1=@E98D8u>22222222221S9@<7340Ht38888888888,0*6A\r
+!AIVDM,2,2,4,A,88888888880,2*20\r
+!AIVDM,1,1,,A,13HOIFPP0000W>2LCn0`ewvl08?U,0*2C\r
+!AIVDM,1,1,,A,35MoSR0P01Je8WdGCiBcuOvn274k,0*72\r
+!AIVDM,1,1,,,33AeTN300007dCNMoML7<68j018i,0*28\r
+!AIVDM,1,1,,A,2341R400000CTjLMHADaNBhn0<<n,0*70\r
+!AIVDM,1,1,,B,13aDqT0P1;PDP7dMdhnAwwvlRH?c,0*68\r
+!AIVDM,1,1,,A,13n8P:0018PFhHbSDgK80V8l05Ip,0*48\r
+!AIVDM,1,1,,A,1>qc9ww000OkfS@MMI5004Rj0H00,0*6B\r
+!AIVDM,1,1,,A,402OFL1uho;NG11IOpNnVCQ005Ip,0*3A\r
+!AIVDM,1,1,,A,14QsEP@01UOw8BHNdTK<A9nn0<0o,0*28\r
+!AIVDM,1,1,,B,14bGa6001H0JI>DQeB:GJF6d0<0e,0*6E\r
+!AIVDM,1,1,,A,23`ekA@P000CUf@MFW500?vj0D3w,0*62\r
+!AIVDM,1,1,,A,13GQu=0P000A>g>Hnk=P0?vjPK`6,0*72\r
+!AIVDM,1,1,,B,13aGE00P000HioTNKI;9SOvn2D0h,0*5A\r
+!AIVDM,1,1,,B,14eGIGgP00G<=7pL6h7JuOvl08?P,0*12\r
+!AIVDM,1,1,,A,13M0i`00010mN6NPuK9bAlRn0<2P,0*70\r
+!AIVDM,1,1,,B,33u=R1P000Pmw4bPwknI5Idl00sh,0*76\r
+!AIVDM,1,1,,A,16K2<M@010b10=jDCvhsiaJl05Ip,0*14\r
+!AIVDM,1,1,,A,36K2C7m000awi3rDIGKbtmVn2Dbr,0*69\r
+!AIVDM,1,1,,A,16KJVgh01cawhLFD?B?Pk@dj0H?W,0*0C\r
+!AIVDM,1,1,,A,16K2?Kh001awhiRDI3RAE14n00SO,0*2F\r
+!AIVDM,1,1,,B,13P<W00Oh0wh1`VNsM9AS8Fl2@?e,0*72\r
+!AIVDM,1,1,,B,23aEPr@P010Cm?hMEo;nTOvjP@?e,0*05\r
+!AIVDM,1,1,,B,13aGEe@P00PDG8>MDRiS`gvl2<0d,0*42\r
+!AIVDM,1,1,,B,15MwoQg000IOqw8BQuwq4BJn0<0A,0*05\r
+!AIVDM,1,1,,A,14Ris:000604N:vMNB<qjTLn08?W,0*21\r
+!AIVDM,1,1,,B,15AlrB002kIkcuT;k3lK5`hb0H=G,0*1C\r
+!AIVDM,1,1,,B,2340ST001M0>bR0MHF3WuFFn0D:3,0*14\r
+!AIVDM,1,1,,A,13P<<6OP01OhFA8Nt?k@`?vl20L6,0*57\r
+!AIVDM,1,1,,A,4h5GdPQuho;NJ7KFU`0fSn700H?`,0*64\r
+!AIVDM,1,1,,B,B3P8KaP0MGtQm>8M:gUjWwe5kP06,0*50\r
+!AIVDM,1,1,,A,15Oq?H0P01ISTLLA7AJorOvh0D6r,0*45\r
+!AIVDM,1,1,,B,1695N80013`9@PF<mbE1f9@f00SS,0*6B\r
+!AIVDM,2,1,8,A,56:Qrd0000009HAWR20860H4pN2222222222220t28C454J9j362CCAC,0*3C\r
+!AIVDM,2,2,8,A,cBRCSAC`8888880,2*2D\r
+!AIVDM,1,1,,A,16:@WU0P@0`eredA88Wh094l28?A,0*64\r
+!AIVDM,1,1,,B,11mg=5OP0189>dN<n0BrOOvj00R8,0*08\r
+!AIVDM,1,1,,A,B69F3uP0=R77tVSOUB2v7wdSQP06,0*79\r
+!AIVDM,1,1,,B,14jT:U@P01865rL<TBKP0?vj00S3,0*27\r
+!AIVDM,1,1,,B,10F9w@wP000CrajMDhE@0?vj08?g,0*66\r
+!AIVDM,1,1,,A,169GGV0P@J8LPJd>1Qwbc8Dh05Ip,0*2E\r
+!AIVDM,1,1,,B,169>SO`P008dS8tEK:mP2Ovj0<1;,0*24\r
+!AIVDM,1,1,,A,168sg:?Oh08caw<EOIFQgmll0<1q,0*7C\r
+!AIVDM,1,1,,A,13aDpC@P1=PHiNVMb`MQDwvl25Ip,0*03\r
+!AIVDM,1,1,,A,15Ovc20000o@N>4KM=gH`Vdn0t0<,0*41\r
+!AIVDM,1,1,,B,13aJGvPP01PDTjNMe3v0Tgvl28?g,0*7E\r
+!AIVDM,1,1,,B,13cmWJ00360fiDPHm7i64Tnn08?S,0*53\r
+!AIVDM,1,1,,B,13f9I>0P1s0UsF0I5Rd947Dn@8?8,0*68\r
+!AIVDM,1,1,,A,13aENUhP00PCS2hMEBH<IgvvPd7A,0*6B\r
+!AIVDM,1,1,,A,13aGEOhP0v0KOn`MDS@WK?vtQl0C,0*39\r
+!AIVDM,1,1,,A,3539Q<5P00o>`=>K=W<h0Ovj0000,0*06\r
+!AIVDM,1,1,,A,13aEQ1@P1HPG3I@Mg?gpKwvn2@?i,0*26\r
+!AIVDM,1,1,,B,13`e?<hP0f0D5j<MDj5CwOvb2H?i,0*4D\r
+!AIVDM,1,1,,A,15Mqt>PP4FJe8pTGBmR7>wvn28?e,0*19\r
+!AIVDM,1,1,,A,139P:OP0060UH><N`L1aM52n0H?Q,0*71\r
+!AIVDM,1,1,,A,13aGE1PP00PDPCfMdPse4gvl2D7w,0*07\r
+!AIVDM,1,1,,A,13aBME0P000ClQ2MEVpP0?vj0<3w,0*36\r
+!AIVDM,1,1,,,1CnSNf3000P8qv8MdS:3m0Tn0h?R,0*75\r
+!AIVDM,1,1,,A,16:k5h000P`VLn2DNQungE4l0D3u,0*63\r
+!AIVDM,1,1,,A,13@WP6002>0Fh?RN`t1qaohj05Ip,0*00\r
+!AIVDM,1,1,,A,13ah9>001m0I:wvNeGq9jGpj0d0w,0*34\r
+!AIVDM,1,1,,A,14Vh0p001d0Hi<LNa<gjnB>n0D4N,0*05\r
+!AIVDM,1,1,,A,1025OKhP00PJcu6NL7P@0?vl28?i,0*4A\r
+!AIVDM,1,1,,A,13iU?R0000PIchNHe028Mjbl28?h,0*4A\r
+!AIVDM,1,1,,B,14eGrSPP00ncMJVO5C7aB?vn2L0?,0*04\r
+!AIVDM,1,1,,B,18159Mh034P8:7@ME6pH8VLn0<9N,0*17\r
+!AIVDM,1,1,,A,15Ph;0001Vr4qg@?k3BC?2Tn0<0>,0*35\r
+!AIVDM,1,1,,B,133vAlPP1aPCLC`MIltLuOvn20S5,0*75\r
+!AIVDM,1,1,,B,13aDrI0P00PFED@MaGO=swvn0L3w,0*33\r
+!AIVDM,1,1,,B,13R78g0P001`tj4G@8<L4Ovl00SE,0*3E\r
+!AIVDM,1,1,,B,53R6dW400001=N3SSK5=0U8UB0tJ05@Pu<00000t2PQ735d076@E23lp000000000000000,2*53\r
+!AIVDM,1,1,,,13lcO20001P5C3LMijn8V18n0@?i,0*40\r
+!AIVDM,1,1,,A,13c1cv001o11kA>NiREdSr8f08>p,0*44\r
+!AIVDM,1,1,,A,233vr3gP1fPCj`0MEuM0KOvlR5Ip,0*2A\r
+!AIVDM,1,1,,A,13n@oD0PB@0IRKtQjA<;?Hjj08?WDEIvPT,0*07\r
+!AIVDM,1,1,,A,13aDrKw001PCuA8MdR>q7ohlP5Ip,0*55\r
+!AIVDM,1,1,,B,133Pfn00000CnGbMEA69@DVn08?l,0*55\r
+!AIVDM,1,1,,B,33d75H50000VcI`IDw=99:fnP000,0*37\r
+!AIVDM,1,1,,A,368sVcP0068K9;RFD6OhvG>n00u@,0*5F\r
+!AIVDM,1,1,,A,143psl1P?w<tSF0l4Q@>4?wp0hAg,0*3E\r
+!AIVDM,1,1,,A,13Ib1p01@10Fn=@Hm?E0ATDl00Ru,0*2E\r
+!AIVDM,1,1,,B,14eGsEH001FcCm<O4cI4Qnjl08?j,0*7B\r
+!AIVDM,1,1,,B,13aGDJ0P00PINH<Mf`c00?vnRH?m,0*0B\r
+!AIVDM,1,1,,B,15N8LS0P1AINu8TB`QPUcgvl00ST,0*29\r
+!AIVDM,1,1,,,13P1aH?P0DP81eTMjSIWuOvn2H?l,0*3F\r
+!AIVDM,1,1,,A,133eS7PP00PD>hPMDHr71gvn25Ip,0*70\r
+!AIVDM,1,1,,A,13sM@:gP00wDq=LF92ds5wvl20SH,0*7F\r
+!AIVDM,1,1,,B,13sM;tgP01OEfO6F94B7s?vh0D0M,0*10\r
+!AIVDM,1,1,,B,13P7SdP03A0e9QdH@nReQ:jj08?k,0*5A\r
+!AIVDM,2,1,2,B,53pr@k41Tsne=4Hb220e8tpu>22222222222220P0hF264Me09ii6CR@H888,0*59\r
+!AIVDM,2,2,2,B,88888888880,2*25\r
+!AIVDM,1,1,,A,13aDCI0P0?PCMANMeNsnj?vl20Ri,0*38\r
+!AIVDM,1,1,,B,169sCL0000a3RVTEMOQLAbjn2@?g,0*32\r
+!AIVDM,1,1,,A,15?meb001m8W44@DW39;18rn05Ip,0*0F\r
+!AIVDM,1,1,,B,19NWt8h0@0wnM40Pdfi74SJn00S2,0*2E\r
+!AIVDM,1,1,,B,15N8bOPP0=rndalGP=OUo?vl0@?E,0*72\r
+!AIVDM,1,1,,A,13aEPJhP0HPGI@vMhpWoj?vn20SN,0*0D\r
+!AIVDM,1,1,,B,15NEcU0001rrmV8H?FcJaEVl08?m,0*42\r
+!AIVDM,1,1,,B,15MusK0P0QIvORnF=5=m:?vl08?l,0*36\r
+!AIVDM,1,1,,A,13cD;T001<PaItBNlj=24iph0<23,0*20\r
+!AIVDM,1,1,,B,13:REn01j6OcnpFNp=Vba8Hn0@?o,0*25\r
+!AIVDM,1,1,,A,18K`Wh001K8cRonB2mw;eqNj0<;C,0*5C\r
+!AIVDM,1,1,,B,16:V4QOP?w<tSF0l4Q@>4?wv073h,0*30\r
+!AIVDM,1,1,,B,168udFPP0087NkB=<PpTm?w:08Ee,0*67\r
+!AIVDM,1,1,,B,169uP4000087iTT=5EM5s4=p0hG1,0*7D\r
+!AIVDM,1,1,,B,16:V4Q1P0486Qn0=>N=6Rwvj08CJ,0*31\r
+!AIVDM,1,1,,B,16:V4ThP0087TjB=98V00?vj0<1F,0*57\r
+!AIVDM,1,1,,A,169Q3h0P@28Vga>D`8?6Tjvl2H?H,0*6A\r
+!AIVDM,1,1,,A,169C4B0P008d;;@Au8e;S6Fb08?P,0*25\r
+!AIVDM,1,1,,A,169>RoP0018g27<EMQ2`p2ln2@?S,0*49\r
+!AIVDM,1,1,,B,13aGu;hP1MPDPCrMdfaR5wvj20SJ,0*47\r
+!AIVDM,1,1,,B,13aFgn@P00PGP;bMaKl<hgvnR8?q,0*03\r
+!AIVDM,1,1,,,13aGD:hP1KPI<c4N6uCon?vl2<1f,0*3E\r
+!AIVDM,1,1,,A,36K2:jhOh8awouHDCJhW2:Jl010htk7vik,0*60\r
+!AIVDM,1,1,,A,15MwomPP00r5h8`?pRP00?vj20SK,0*19\r
+!AIVDM,1,1,,B,168swE0P008ViGHDaU`RROvl00S>,0*1B\r
+!AIVDM,1,1,,B,13cdUc001i0c7kFHmL5FB7Vp0<0S,0*21\r
+!AIVDM,1,1,,B,33uBV35000wwbu4Nb8u@<@rn0000,0*10\r
+!AIVDM,1,1,,A,13aFdfhP1;PJwg`MAbLaBgvn20R:,0*4D\r
+!AIVDM,1,1,,B,133g=hPP010GIqPMi`>6;?vn2<2c,0*37\r
+!AIVDM,1,1,,B,35NKeG01ido<P8dERo?:P`Nl0Pw@,0*6F\r
+!AIVDM,1,1,,A,A04757QAv0agH2JdGtT`5OkP1m8Nw`D37hsuwhE0,0*6D\r
+!AIVDM,1,1,,B,4vjHC6Quho;NFwUuC`OE`6W00D10,0*1A\r
+!AIVDM,1,1,,A,16Sfg<PP00a3QD6EKaFFq?vl28?j,0*5A\r
+!AIVDM,1,1,,A,13EeSB0P00NqM9J@73TP0?vj08?q,0*61\r
+!AIVDM,1,1,,B,604<o3@00000>d`00296WSWjISUg4<@h0082t00040,4*7F\r
+!AIVDM,1,1,,B,13aDoahP0wPDoGRMChAKVwvlR5Ip,0*14\r
+!AIVDM,2,1,5,A,539LA7P00000@E0l000aDhD0000000000000001J2@642400084kmCQ00000,0*30\r
+!AIVDM,2,2,5,A,00000000003,2*22\r
+!AIVDM,1,1,,B,3341N:0OiNPChdtMF?REMlVn212A,0*2D\r
+!AIVDM,1,1,,A,15MwNhPP00IRM5BA8Bu<awvl0<2f,0*39\r
+!AIVDM,1,1,,B,15N09TPP00IR?c<A8m<Diwvl08?j,0*7C\r
+!AIVDM,1,1,,A,140UtHhP00PRuklK=Ws5;gvjR@?t,0*4C\r
+!AIVDM,1,1,,A,13m>oO00000Hv2PQnqu8mQhn05Ip,0*3E\r
+!AIVDM,1,1,,A,13n;0D0PB=0J;fpQguP5PTHj00S8,0*26\r
+!AIVDM,1,1,,A,11mg=5OP00Pdu`>I>lPmBgvR05Ip,0*3F\r
+!AIVDM,1,1,,A,13aJG5h01BPHNcDMfhud0aTnRH?t,0*4F\r
+!AIVDM,1,1,,B,33tssF050iPn=L`Q0K`BkR<l2131,0*04\r
+!AIVDM,1,1,,B,33u=dR0PAOPnQFDQ0noWVmlh0000,0*50\r
+!AIVDM,1,1,,A,13UPFd0021PjJA:PwVwU?DFj0PS;,0*07\r
+!AIVDM,1,1,,B,13uF31P001PmvatPtB7<vI8l0D0J,0*21\r
+!AIVDM,1,1,,A,19qQJ@002APjvc0PuD>U;T>j0<10,0*54\r
+!AIVDM,1,1,,B,13uAbDg000PnijtQ1Q@:>QNn08?r,0*6A\r
+!AIVDM,1,1,,B,169G=0`000WkeF8;Bn?p9Hpl08?j,0*4E\r
+!AIVDM,1,1,,A,13ANGl70040gUTBQ2KqM03jn08?E,0*76\r
+!AIVDM,1,1,,A,16K2<L0003awQrrDB9kGu2Rn20Rv,0*22\r
+!AIVDM,1,1,,A,133h0RPP000DUqLMDK=@0?vjR5Ip,0*73\r
+!AIVDM,1,1,,B,83aDoJ@j2ddtdudeP2`ho?aB6@h0,0*65\r
+!AIVDM,1,1,,A,13psL9P000Q1CMhNn<qa2GPT05Ip,0*75\r
+!AIVDM,1,1,,B,23P:lP?OhDPCS8`MFe?81FUp0PS=,0*03\r
+!AIVDM,1,1,,B,H44?BB1<EH5=@u0th0000000000,2*41\r
+!AIVDM,1,1,,A,139h470P00PDEURMdfm:ewvl28?u,0*10\r
+!AIVDM,1,1,,B,18UiGB331jJ5O3d?k8r3ARbn0L0H,0*1F\r
+!AIVDM,1,1,,A,402Fha0000Htt<tSF0l4Q@000W1P,0*35\r
+!AIVDM,1,1,,B,1<Qqih0P021cs6BEeob=iwvp05Ip,0*0A\r
+!AIVDM,1,1,,A,15N3QFPP00Je4TrGBnUeS?w>05Ip,0*37\r
+!AIVDM,1,1,,A,13IgVQ000000iGHLC9tQT3>j0@?q,0*75\r
+!AIVDM,1,1,,,19NWqD@02`073N8M`PHp36Jj0@?t,0*78\r
+!AIVDM,1,1,,A,13F7g40000NqIod@6Oa<PD>l00Sg,0*6D\r
+!AIVDM,1,1,,A,15N1Gl0P00G?jktKA>8JIgvl0H?k,0*45\r
+!AIVDM,1,1,,A,15Mvr`001Ao?HuFKGKd6N58n08?n,0*31\r
+!AIVDM,1,1,,B,B6:fOHh0:j2DI9S=WmKEWwdW1P06,0*2A\r
+!AIVDM,1,1,,A,18J:PD001Q`LWPN=ufwstaU00H?`,0*33\r
+!AIVDM,1,1,,A,169r?KPP018d:prAu1uG=gvn0H?Q,0*18\r
+!AIVDM,1,1,,A,168s:oP0008SRL<FmLAh002l25Ip,0*38\r
+!AIVDM,1,1,,A,16:>>>8P248dQ9rAuNwTbgvh0p?T,0*64\r
+!AIVDM,1,1,,A,15BnId000R`T20@Fg@hcJ8rj08?V,0*56\r
+!AIVDM,1,1,,B,169@;oP00e8PcWl>9>H`S7Np20SK,0*5B\r
+!AIVDM,1,1,,B,169GI?0P1S8Q;<V>@JF8Igvl00S?,0*02\r
+!AIVDM,1,1,,B,13prp100001Dlr<O<qPrvQll08BC,0*3D\r
+!AIVDM,1,1,,B,13pr<70000QELMlO8JEKql4l25Ip,0*1F\r
+!AIVDM,1,1,,A,13aGDMhP00PDTVBMdbo34gvn2@?w,0*01\r
+!AIVDM,1,1,,A,33AiNN3Oh911K64NniD=:c2p01<Q,0*2D\r
+!AIVDM,1,1,,B,139Qig002@0p3v4PRQ26hUDn0<0o,0*11\r
+!AIVDM,1,1,,B,15@fNN01BP0mbaTP`s`eBbVn0@?f,0*69\r
+!AIVDM,1,1,,A,B7P>O200Dje41tLV3tbmwwe7kP06,0*47\r
+!AIVDM,1,1,,A,16::12PP?w<tSF0l4Q@>4?wv0m;P,0*4C\r
+!AIVDM,1,1,,A,13cFSr300pOweK8NruWaTGHp0<0:,0*1F\r
+!AIVDM,1,1,,A,13FF18001`wtuC6EfD;RA1ld0PS9,0*03\r
+!AIVDM,1,1,,A,139LdCPtj8OwTqFEfdJ8Q6jN20SP,0*2C\r
+!AIVDM,1,1,,B,13GQuNgP19PD``8MU2qSIwvpR@@0,0*4B\r
+!AIVDM,1,1,,,13mFqt0P1m0rAdFV6BRsigvp05Ip,0*61\r
+!AIVDM,1,1,,A,18Jobt0PAq0=2KhMICE:2`8n00RH,0*76\r
+!AIVDM,1,1,,A,13M@VQ7000OreObRK:L`;ITn05Ip,0*27\r
+!AIVDM,1,1,,A,133mIq0P00PD=nTMdtpjj?w@28@0,0*6E\r
+!AIVDM,1,1,,B,133Vg>000A0<N22MHcNIMrPp25Ip,0*68\r
+!AIVDM,1,1,,A,15S@E00viwwschtM0>Ru?rNl0000,0*6C\r
+!AIVDM,2,1,6,B,533j7CT00000uC;W?>1<4n22222222222222221I8`?826H9k00CU5iDT1C`,0*22\r
+!AIVDM,2,2,6,B,88888888880,2*21\r
+!AIVDM,1,1,,B,10C3ko?P00PCMhLME>@00?vnR5Ip,0*4A\r
+!AIVDM,1,1,,A,15BBdR002u0a`KvICPR4H3Rh0H?w,0*12\r
+!AIVDM,1,1,,A,33MFDR0PACOj=uHNTuo9?oFl0000,0*3F\r
+!AIVDM,1,1,,A,16K2=nw000b0IP:D>obB8C4f05Ip,0*1D\r
+!AIVDM,1,1,,A,15N:<P002n02EfPLv739n7rj0D<P,0*49\r
+!AIVDM,1,1,,A,1CR1OJ?P001d>GPEeW9h0?vj0000,0*14\r
+!AIVDM,1,1,,A,16K2;>@001awi?rDIG0jJRln2L4K,0*15\r
+!AIVDM,1,1,,B,139LF2PP1P10JadNsS3TkgvlJ<0I,0*19\r
+!AIVDM,1,1,,B,6h2E:p8rEGun04<0@00000000000,0*6D\r
+!AIVDM,1,1,,A,B4eGsa@005k6aMW36Pp03we5oP06,0*0B\r
+!AIVDM,1,1,,B,14eGLv?P09G=Di0L98iSW?vj0<23,0*37\r
+!AIVDM,1,1,,A,1815:bh000o=T>VL<wKi?:2j0D2n,0*15\r
+!AIVDM,1,1,,B,14eGmkg03pG;fRLL6ls9@GDn00S;,0*0D\r
+!AIVDM,1,1,,B,15ECd6002no;b:8L=?o2U26h00Rr,0*17\r
+!AIVDM,1,1,,A,14eGMGPP01G<p?DL=EsV`wvh05Ip,0*5E\r
+!AIVDM,1,1,,B,14eG;;0Oh8o=B0`L8b<hrA6n00S`,0*77\r
+!AIVDM,1,1,,A,13?rlf0Oiu04I<lMMIt9f7th0<0g,0*0F\r
+!AIVDM,1,1,,A,16K2>5@000b1IJPDGUHLGT>n0H?o,0*1A\r
+!AIVDM,1,1,,A,36K2;iPPAHawM0@DC64b27rn20u1,0*12\r
+!AIVDM,1,1,,A,13aFfHwP00PD<s6Me4n00?vnR0Ra,0*63\r
+!AIVDM,1,1,,B,33alJb5000OjGj8NQwN8c::n0000,0*26\r
+!AIVDM,1,1,,A,16K2=?g000b0IPjD>od0rCBn05Ip,0*4C\r
+!AIVDM,1,1,,A,16K8B`h000awUApD9m0P;nrp2<47,0*70\r
+!AIVDM,1,1,,,13aGtw@P16PIhwpN=nCHR?vnR<3N,0*51\r
+!AIVDM,1,1,,B,13@ng3@0000qn`jOntWh03Bp00Sj,0*6A\r
+!AIVDM,1,1,,B,13m7KD002I0JpvPQinr1@12l05Ip,0*23\r
+!AIVDM,1,1,,A,18157@U000:GJMqbG996mR2j0000,0*46\r
+!AIVDM,1,1,,A,13cUpi0q1L0g6p<HrT<1:hhl0l0r,0*31\r
+!AIVDM,1,1,,A,13BFUN001pQ1ulVVS;eoj6=N0@KD,0*31\r
+!AIVDM,1,1,,A,15N7H20P00IShDvA8qs<<wvl0<26,0*1F\r
+!AIVDM,1,1,,B,15MuS=0P00IShKnA8SPrVgvl0@?n,0*42\r
+!AIVDM,1,1,,B,15Mv7TP000qT35dA85GMo`Ph05Ip,0*13\r
+!AIVDM,1,1,,A,15MuS0PP00IS00FA8gEslwvl00RL,0*12\r
+!AIVDM,1,1,,A,15NG5F@P00IROlVA88dL<?vn00SU,0*52\r
+!AIVDM,1,1,,B,D02M3diclNfr<`N007pf0000000,2*44\r
+!AIVDM,1,1,,B,133pc>PP00PCl<6MEC<9wwvpRD8S,0*79\r
+!AIVDM,1,1,,A,13`e?chP1IPF@`6Ma52B<wvnR@@4,0*61\r
+!AIVDM,2,1,6,A,533j?PT00000uC;WG@1HE860=9E`00000000001?D@:844mo07PQDQiC`3l8,0*0D\r
+!AIVDM,2,2,6,A,6Skk@000000,2*37\r
+!AIVDM,1,1,,A,13HWWp0P0LP2oiNLw<WcM?vl2D0r,0*45\r
+!AIVDM,1,1,,B,13`qQ8?OhL0HmK2NRO@TU6Fn00Ro,0*56\r
+!AIVDM,1,1,,B,33aGCiUP00PJfn`NO1eP0?vn2DFb,0*1E\r
+!AIVDM,1,1,,B,804<o3@0Bj96WSWjISUg3B3kNP79WwepwwwwwwwwwwwwwwwwwwwwwCwwwt0,2*36\r
+!AIVDM,1,1,,A,13IbV=?00Q03KDRM032R3iJb0@?i,0*2E\r
+!AIVDM,1,1,,A,14RWfl001`wv8eREh0qf1c8N0<1j,0*0A\r
+!AIVDM,1,1,,A,35Mt<8POhrJdq=>GAHaLdJFp013A,0*4C\r
+!AIVDM,1,1,,B,13M@g40P0h11I2PNns?8G?vp00Rs,0*61\r
+!AIVDM,1,1,,B,16SejuPP00a3R3pELj2;VOvor@?q,0*5E\r
+!AIVDM,1,1,,B,13QSvF00010Ap3>NUdJr9D8p2<1K,0*1E\r
+!AIVDM,1,1,,A,16SWc5P000a3P9VEKOSqsPfor5Ip,0*49\r
+!AIVDM,1,1,,B,133u<f?P1a0CTi>MG`f@>gvp0@@5,0*62\r
+!AIVDM,1,1,,A,168sU`000K8K<?NFC964>CTp0L5i,0*5D\r
+!AIVDM,1,1,,A,13@nkv@0000hOaNQ1hdJ7Qjl0H@3,0*12\r
+!AIVDM,1,1,,B,16SWNI?P14a3:MrEGg8iAOvn2@?w,0*04\r
+!AIVDM,1,1,,A,13bkiF00000D2=@MDd?dCRln0@@6,0*1A\r
+!AIVDM,1,1,,A,13A8QH002bP5gt0NMBITR3Vf0h>c,0*5A\r
+!AIVDM,1,1,,A,15MmgjPP0FG?f>PKI1=sswvn0H?r,0*5D\r
+!AIVDM,1,1,,A,18;C9V001SJfCt8G4tW=m;6l0@?P,0*07\r
+!AIVDM,1,1,,A,13aDC;8P00PDQ4dMdTvkGwvn2@@6,0*48\r
+!AIVDM,1,1,,A,13cc6h0P000Ud?BGK=1<4?vn2@?w,0*73\r
+!AIVDM,1,1,,B,13uDkH?000Ps=P0Oe<qHkCnp0@@7,0*5A\r
+!AIVDM,1,1,,A,169Df@`P008R`LdCpJRhkwvb00Sd,0*14\r
+!AIVDM,1,1,,A,169GH43P03`SK=4Ck`jA<gvl0D2@,0*16\r
+!AIVDM,2,1,8,A,8@2<HV@0BkLN:0frqKUfV3E@a2MVWweFwwwwwwwwwwwwwwwwwwwwwwww,0*12\r
+!AIVDM,2,2,8,A,wt0,2*2F\r
+!AIVDM,1,1,,A,169bIJ00268cLv4EcfEeMrkp0P00,0*0C\r
+!AIVDM,1,1,,B,169>`900008cWFVEOCgJaINn0<1T,0*65\r
+!AIVDM,1,1,,A,13q5COOP00Q2fR0NT7=P0?vnRKrR,0*7A\r
+!AIVDM,1,1,,B,233WuF001NPCifTMEtW806Jn0<77,0*79\r
+!AIVDM,1,1,,A,13aENnhP1iPF@G>Maa=Jg?vn2H@7,0*18\r
+!AIVDM,1,1,,A,13aGFU0P00PCSUnMcqL@0?vnR@@7,0*2B\r
+!AIVDM,2,1,9,A,59<Ja8h27O9<CHP7H02059@ET000000000000016<`=674o?04jj1DTkkP00,0*15\r
+!AIVDM,2,2,9,A,00000000000,2*2D\r
+!AIVDM,1,1,,A,14SpVV?P000FBujMa`s@0?vh05Ip,0*16\r
+!AIVDM,1,1,,B,13ag2r:P0;0CTedMd4sub?v>00SM,0*36\r
+!AIVDM,1,1,,B,B4eGMRh00=bqRo7iLGbOgwf5oP06,0*17\r
+!AIVDM,1,1,,A,35Vifj5P@0OlbpPMV6HQg0Gp0P00,0*53\r
+!AIVDM,1,1,,B,15MsWTP000J6aEl?vticWpvt0d0K,0*75\r
+!AIVDM,1,1,,B,1342dB0000P>`evMGfLHmUJp0D1t,0*41\r
+!AIVDM,1,1,,B,101lBLcP007K:T@0f`qh0?vn2<80,0*28\r
+!AIVDM,1,1,,A,3CUO@H5P001d2IDEei;h0?vn0000,0*46\r
+!AIVDM,1,1,,A,19NSA9hvArP3oI8M2m9qEGLn05Ip,0*5D\r
+!AIVDM,1,1,,A,16K8Ath000awjIHDIceaTVHl00Ru,0*29\r
+!AIVDM,1,1,,A,B3d96B0008;B5t6Cf0VIwwf5WP06,0*20\r
+!AIVDM,1,1,,A,16KVqwP01aawQgLD6D8a8W@p20Rb,0*64\r
+!AIVDM,1,1,,B,14RK:850000W;ltNa`fdiV4d0D3u,0*6A\r
+!AIVDM,1,1,,B,169vkRPP018VFCRDWmrh0?vn05Ip,0*23\r
+!AIVDM,1,1,,B,13@nknh0000q>JVOlS2IWSBp05Ip,0*36\r
+!AIVDM,1,1,,A,33elhr5000PCuqTMDsIBF68n0Dcb,0*51\r
+!AIVDM,1,1,,B,33P;M1q001P7dE4MK<w421fp00Vh,0*52\r
+!AIVDM,1,1,,A,15MwE4PP2UJe=r>GBJ99Ogvl0@@6,0*2B\r
+!AIVDM,1,1,,,13AvFd003@069SBMeSabHpFl0<1I,0*33\r
+!AIVDM,1,1,,A,13pr?I000011AdlNn9FapH2n0@?w,0*7B\r
+!AIVDM,1,1,,B,23aB;@00000CNdBMHVc@>9GT05Ip,0*3F\r
+!AIVDM,1,1,,A,36:9to1P007kogH;BP;R9wvn0000,0*50\r
+!AIVDM,1,1,,A,B3P9ca00500cafW@MOruswe5kP06,0*16\r
+!AIVDM,1,1,,A,15NBiVPP01ISfbVA8g``0?vh08?F,0*26\r
+!AIVDM,2,1,0,B,55NF@i400001L@GGC78lU=>1=TiHT6222222220O0`?9140Ht8PC1jADTp43,0*25\r
+!AIVDM,2,2,0,B,jCU88888880,2*63\r
+!AIVDM,1,1,,A,15N:AnPP00ISeCtA2UV;0Ovp20S;,0*69\r
+!AIVDM,1,1,,B,133maoPP00PCdJRMGT59vgvp25Ip,0*63\r
+!AIVDM,1,1,,A,4h2=aPAuho;MsOamPNOo`r100H01,0*65\r
+!AIVDM,1,1,,A,13P<ipP001ObHRRP0h@VtS`60D0L,0*32\r
+!AIVDM,1,1,,A,83aDor0j2ddd=<>L`1GPS?aE0000,0*64\r
+!AIVDM,1,1,,A,13P7f?0P00Ob8mTP3>aHT?vF0<0U,0*10\r
+!AIVDM,1,1,,A,4h2=aPAuho;NCOamPPOo`r1008;g,0*65\r
+!AIVDM,1,1,,B,133vO6PP00PCuodME@>IeOvn20RW,0*7C\r
+!AIVDM,1,1,,A,1344An0th00=KmlMCvKh03tl08@<,0*64\r
+!AIVDM,1,1,,B,146a=4001`07K6@MCCs6f50j0D4K,0*1F\r
+!AIVDM,1,1,,A,33aFeOPP10PKQLVMEJgr4wvp25g3,0*3B\r
+!AIVDM,2,1,7,B,55Mi8L41l?G4e8L:220Pu8U`tr0Dq@E918U<F216GPtA:4o<0GEDp3hB,0*1B\r
+!AIVDM,2,2,7,B,sdd`88888888880,2*33\r
+!AIVDM,1,1,,B,14QwWb00030aoPhNmcbP4iNj05Ip,0*01\r
+!AIVDM,1,1,,2,33aDpLPP00PA;wNM>kWT=Ovn2031,0*2E\r
+!AIVDM,1,1,,A,A04757QAv0agH2JdGu``7wrsvU40voKqF@?s5gUG,0*2F\r
+!AIVDM,1,1,,A,B3uBGjP000DeS18Nw2>doweUoP06,0*16\r
+!AIVDM,1,1,,B,13aDCH?P00PCwarMEqfHEwvn2@@=,0*63\r
+!AIVDM,1,1,,A,1441Bv0000RBHnLJo3mat2Hn2@@=,0*1D\r
+!AIVDM,1,1,,B,D02M3FAa8Nfr<`N000000000000,2*09\r
+!AIVDM,1,1,,A,13PhIT0000OrdLtRKDGai7Lp0@@4,0*7D\r
+!AIVDM,1,1,,2,13aEel0000PAS1dMFqMP:qrp28@>,0*37\r
+!AIVDM,1,1,,B,139f0`0P00PFDW4Mag8Ih?vp28@>,0*66\r
+!AIVDM,1,1,,A,13GR5BPP0kPD;@4MDe901wvn2D5s,0*4D\r
+!AIVDM,1,1,,A,15Mh1l001HJkLOlGCP4jVR4n0p?S,0*15\r
+!AIVDM,1,1,,B,13u>=>gP001BgTrQtd<nIgvj00S9,0*21\r
+!AIVDM,1,1,,B,13P<m`@0P00g994Hrhd8DQhp0<0o,0*65\r
+!AIVDM,1,1,,A,13:4Gp?001PWBfrN`Gcm1m8n0<2L,0*5D\r
+!AIVDM,1,1,,B,16:;AKP0078VDDJDVW`HgDRopD35,0*2B\r
+!AIVDM,1,1,,B,13u=?5?0000nMdPQ0gl:?:Jp0@?w,0*1A\r
+!AIVDM,2,1,8,B,53u=dR000001<@862204iI<p488Dr3F22222220t18B6140Ht51QDTVDiDUR,0*75\r
+!AIVDM,2,2,8,B,@iH1km43lU9,2*4E\r
+!AIVDM,1,1,,A,13Q;7S@P11PmQTTPv79WUOvl25Ip,0*17\r
+!AIVDM,1,1,,B,13u?oh00000mBWpQ2bK005:l08@=,0*0E\r
+!AIVDM,1,1,,A,144FV@0P008N876=unDP0?vl2D2O,0*44\r
+!AIVDM,1,1,,B,11au0H?P008fKOHA2:7@Jwvl0@?d,0*06\r
+!AIVDM,1,1,,B,14SKS>000W`etW>A8NVb2`6L0d4e,0*04\r
+!AIVDM,1,1,,B,16:B7`P0008gJHb@wUW2Frdl20Rk,0*52\r
+!AIVDM,1,1,,B,16:CqHP0008femD@wCmhGK8l0@?l,0*1A\r
+!AIVDM,1,1,,B,16:CwV001e`94Kd<hJqP`0`j05Ip,0*35\r
+!AIVDM,1,1,,A,144FV@0P?w<tSF0l4Q@>4?wqph?o,0*30\r
+!AIVDM,1,1,,A,35Vw2F50010D9?NMDWaeqkHn2000,0*29\r
+!AIVDM,1,1,,A,168tDF0P008RkDfCp5Lh0?vmp0SF,0*4F\r
+!AIVDM,1,1,,A,168u?QPP008R3;2D2rSq4?vn08?n,0*3E\r
+!AIVDM,1,1,,B,1773hD0001`:H8p<hPg00B4j0D5d,0*0A\r
+!AIVDM,1,1,,A,33aGDPPP00PD<efMe1`0Iwvn2>kC,0*74\r
+!AIVDM,1,1,,A,13Vmc`0020OVk<FDSWDotnNl25Ip,0*7B\r
+!AIVDM,1,1,,A,B3Ea9T000?w`fHU`s><i;wPUoP06,0*75\r
+!AIVDM,1,1,,A,4028rqAuho;N0<tSF0l4Q@700D2s,0*4B\r
+!AIVDM,1,1,,,33b`7@3P@GP8<hBMjKO3lipn00si,0*19\r
+!AIVDM,1,1,,A,D028rqR5hNfr6INfpfpNfp6@Nfp,2*4B\r
+!AIVDM,1,1,,A,E0000C0cFss0000000000000000?iN`E:SRGp00003RP10,4*30\r
+!AIVDM,1,1,,A,23b?ED00110Dt3LN1@lSG2bj0000,0*79\r
+!AIVDM,1,1,,A,37PCkb0PAJblQ>SjG1V;KI:n20t@,0*70\r
+!AIVDM,1,1,,A,15N6eaPP00KGILr:O:qquOvn05Ip,0*74\r
+!AIVDM,2,1,0,A,A02V?Hib3Qba00@1GmAh3OnCv@@Nw5l47iOuOgTL5?lOwR<4w?p6<@ct9wUf,0*54\r
+!AIVDM,2,2,0,A,4?hm0147w8KqCP00,0*7C\r
+!AIVDM,1,1,,A,E0000B0cFsq7000000000000000?iSA=:SfcH00003RP10,4*58\r
+!AIVDM,1,1,,A,E0000E0cFtJ0000000000000000?iMtU:QeHH00003RP10,4*0D\r
+!AIVDM,1,1,,A,33FtUp5000Ow0nRFcvOsTIL6R000,0*6A\r
+!AIVDM,1,1,,A,13FA4f0000OS?28Dqud<U70n05Ip,0*40\r
+!AIVDM,1,1,,A,E000WR2S0a7h22h1PW2b0000000OwQUn;FMD`1088;c02P0,2*78\r
+!AIVDM,1,1,,A,83aJGk0j2d<dtdded11`Qga@7t00,0*3F\r
+!AIVDM,1,1,,A,1345<L300AP1CF4LB>Jaq88j00T8,0*1B\r
+!AIVDM,2,1,1,B,533imET00000uC;SSL0I84q@t00000000000001?3p814t0Ht0h000000000,0*26\r
+!AIVDM,2,2,1,B,00000000003,2*25\r
+!AIVDM,1,1,,B,133okGPP000CarTMH7CeUgvp0d2:,0*1F\r
+!AIVDM,1,1,,B,13;5<D001I0b:L0No3r8Q6nh08?>,0*0D\r
+!AIVDM,1,1,,A,139L>nPP?w0ao`fNmc5>4?vn00Rw,0*0C\r
+!AIVDM,1,1,,B,14SJ=B000J0apB8NmVvQS1Bn08?O,0*03\r
+!AIVDM,1,1,,B,139KugP000PanshNmakh0A:n05Ip,0*3B\r
+!AIVDM,1,1,,A,14S?:@001K0b<snNoCL`Kndn05Ip,0*61\r
+!AIVDM,1,1,,A,139IQOPP1D0alRPNmHg32wv000Sh,0*07\r
+!AIVDM,1,1,,B,1779s?000mPbONrNq0op86`n0h?s,0*79\r
+!AIVDM,1,1,,A,4020s>Auho;NKPan`pNmQ0W00<00,0*06\r
+!AIVDM,1,1,,B,139IJ700010apiPNmWT:01:p28?v,0*21\r
+!AIVDM,1,1,,B,13GmJV01isPb62hNm853QRjh00Si,0*72\r
+!AIVDM,1,1,,B,139aUl0P000bNtFNpqI00?vl08@1,0*52\r
+!AIVDM,1,1,,B,24SaQh500E0Cu46MErkb4Gvn08@A,0*4D\r
+!AIVDM,1,1,,A,35Mnu8PP0?Je>OLGBUj6kOvp2311,0*7C\r
+!AIVDM,1,1,,A,3342=23P@NP=rhHMKwrWcUjj00v@,0*29\r
+!AIVDM,1,1,,B,14cf4F001>OnSstPdd3qAoJj2<0Q,0*5E\r
+!AIVDM,1,1,,B,13c`Rd0P000e0DrI?:aWQOvn0<0V,0*37\r
+!AIVDM,1,1,,A,1>qc9ww000OkfS@MMI5004Rl0@00,0*65\r
+!AIVDM,1,1,,B,B3uUHAP000=Glq8@;SD03we5kP06,0*37\r
+!AIVDM,1,1,,B,18JnPf001fPmTU@Q:@<QLi6p00S8,0*5B\r
+!AIVDM,1,1,,A,13v0qJ00000lvAfQ9nWAo8>p0<0g,0*06\r
+!AIVDM,1,1,,A,16:CtD3w01`K;b0FG3Oc>q4n0H@<,0*60\r
+!AIVDM,1,1,,A,17bHpl001Mb0:UnDCL@`lWrp00RB,0*7B\r
+!AIVDM,1,1,,A,13cSwB001a01LwJLtqAasovp2@@8,0*78\r
+!AIVDM,1,1,,A,13q6LJ000n12gW`NTn`7f68D05J0,0*18\r
+!AIVDM,1,1,,A,16K2;SP000b1G1VDGh@8vo<p08@9,0*14\r
+!AIVDM,1,1,,A,16K8Au@000awU:>D9l?rMFrp2@@:,0*0C\r
+!AIVDM,1,1,,B,13aGu0h000PCmm8MEEE@03hnR8@C,0*13\r
+!AIVDM,1,1,,A,16K<Mr0020awp1:D:cdMwh2p0<4>,0*69\r
+!AIVDM,1,1,,A,16K8DmO001awBPHDB;<cm9dp0L3v,0*52\r
+!AIVDM,1,1,,B,168tgR@P?w<tSF0l4Q@>4?v01PS9,0*5F\r
+!AIVDM,1,1,,A,13aDr2hP3H0D@GRMdepr2Ovl0@@C,0*79\r
+!AIVDM,1,1,,A,36KDRGQ000b0vs:DEJU18l<o2000,0*1F\r
+!AIVDM,1,1,,A,13P91W@OhhOqUALM7LUUKDFn0h@C,0*08\r
+!AIVDM,1,1,,A,14SMct00019wI60DAaW506Nl0h@?,0*2F\r
+!AIVDM,1,1,,A,1774`;001oOuWbrEO>R1S1BB0<1R,0*01\r
+!AIVDM,1,1,,A,15@t9N002Qwute<EU0Q`AFVh00SB,0*14\r
+!AIVDM,1,1,,A,13Evlh0OimOwUNdEidGAE1:T0D0c,0*5C\r
+!AIVDM,1,1,,B,133hE`g0000CT;2MEC6C32Tl0D8f,0*0D\r
+!AIVDM,1,1,,A,13aGt>OP00PDQIhMe>j00?vn2@@D,0*1E\r
+!AIVDM,1,1,,B,15N705PP00G?iGvK@Fb9lgvp2H@A,0*1D\r
+!AIVDM,1,1,,A,13pr=SPP0011CR`Nn=>00?vl05Ip,0*03\r
+!AIVDM,1,1,,B,33OjLf0OiAOdu8rLjN7F6m0j011A,0*00\r
+!AIVDM,1,1,,A,13M@DFh000OdmmpLl`C0p0>f0L0O,0*00\r
+!AIVDM,1,1,,B,33:1wR002;Pr52`OhdU7iV@n01Fh,0*58\r
+!AIVDM,1,1,,B,15MusA?P0eIvm=DF<MQ4Awvn08@B,0*4C\r
+!AIVDM,1,1,,A,1018lEPP00OdoB>Llv?00?vl0<0?,0*70\r
+!AIVDM,1,1,,B,13ktwp001UODIEBE30p5VlJp2H@D,0*63\r
+!AIVDM,1,1,,A,13P;O7wP00wdn>vLlT1P0?vn2@@7,0*22\r
+!AIVDM,1,1,,A,13aDoh0P1>PDiOtMdeUjiwvnR0RW,0*3D\r
+!AIVDM,1,1,,A,13b<:<002SwiCnnNo2VbR8Ll00S>,0*40\r
+!AIVDM,1,1,,A,14eGEB?02@o;@mvKqDHQWQHn0UIp,0*6F\r
+!AIVDM,1,1,,A,15Mi<ng000o?A0DKFC;WBaLr0@@>,0*57\r
+!AIVDM,1,1,,A,15MvFn001ArlsOPGGBd9dorn0D03,0*4C\r
+!AIVDM,1,1,,B,13nG=T000011oI@VPIi7:VGp0W3h,0*77\r
+!AIVDM,1,1,,B,13aIjChP1SPCd8tME7e=0gvnR<30,0*02\r
+!AIVDM,1,1,,A,13aDCcWP1:0HBq@MViQj@Ovn0@@F,0*0E\r
+!AIVDM,1,1,,A,E000a62Q7QPW0h22h;0V2W1TPP0OwC`v;B3M81088;c02P1,2*31\r
+!AIVDM,2,1,2,A,56K2AsD00000`C?7;J1<4L4lTl59F2222222220l1pI366bC07wOOE3jnCmhC`88,0*3D\r
+!AIVDM,2,2,2,A,8888880,2*26\r
+!AIVDM,1,1,,B,13aGspwP00PFE5nMaF;h0?vn20SP,0*02\r
+!AIVDM,1,1,,A,237L2L0001PCNMLMHW;cVSbl0<7C,0*06\r
+!AIVDM,1,1,,B,15Mrn2P000qObmvBPeEb63>p0<0?,0*7D\r
+!AIVDM,1,1,,B,13Msnp00010fpTBI6<utBVcp2PRp,0*33\r
+!AIVDM,1,1,,A,13ci`f00000Vc<VIE4F:>18p2D1V,0*55\r
+!AIVDM,1,1,,B,169pl1P0008caDpEPk7INm6p2<1F,0*44\r
+!AIVDM,1,1,,B,4>pf7l1ufUHtt`cjk@EMM;10086O,0*11\r
+!AIVDM,1,1,,B,16:V4a@P028:Jqr<hvrh0?vl0@N4,0*65\r
+!AIVDM,1,1,,A,15@BIV00158SSw`Cr8aaR7Vn00Sj,0*79\r
+!AIVDM,1,1,,A,36K2DrP02KabIaJCjCGSiBpn00WP,0*58\r
+!AIVDM,1,1,,B,33aGEUPP000G8SdM`TLpNOvlPS5Q,0*52\r
+!AIVDM,1,1,,A,15MuS80P00IQRQnA<LSb8Ovn0H@4,0*07\r
+!AIVDM,1,1,,A,15N2NL0P01IRwd<A8AM6@?vn0<20,0*23\r
+!AIVDM,1,1,,B,15NM;HPP00qS5aHA7qm;Gwvp2@@;,0*01\r
+!AIVDM,1,1,,B,339QeePP1iPeJMLN`ijrW?vl036C,0*30\r
+!AIVDM,1,1,,A,13uogN00000iIEdQ0>DC;8>n0h@D,0*71\r
+!AIVDM,1,1,,B,13aBNP?P00PCV9<MdedlE?vn2D80,0*6D\r
+!AIVDM,1,1,,A,64R1MV40UBf206P0>0,4*77\r
+!AIVDM,1,1,,A,13aGul?000PFiAvMaqdh06jnRD4U,0*78\r
+!AIVDM,1,1,,B,13aGtn@P1bPD9k:MdV3qfwwTR5Ip,0*75\r
+!AIVDM,1,1,,A,13bjGP000@0G:btNPGE:W`8l08?j,0*08\r
+!AIVDM,1,1,,A,13P7u<0P01OqWD>M7HqE:Ovn08@I,0*12\r
+!AIVDM,1,1,,B,33`gl20OiNPGvuVNPesd29tj00sP,0*3C\r
+!AIVDM,1,1,,A,13aDom@P0dPHGFbMg5SD`OvnR<0o,0*32\r
+!AIVDM,1,1,,A,13iO8r0000015R0LCd31;8jj00S`,0*47\r
+!AIVDM,1,1,,B,19NWq?@OiK2>937fqr38qWLp08@C,0*19\r
+!AIVDM,2,1,7,A,53aGCTT000010??SO01LThhDnla800000000001S1@=513>WN51ACDj0EQCP,0*4B\r
+!AIVDM,2,2,7,A,00000000000,2*23\r
+!AIVDM,1,1,,A,13P;q8gP0006PFfMGi>aOOvp25Ip,0*43\r
+!AIVDM,1,1,,A,402FhUQuho;NK0dRnVGJ`UQ00@@H,0*69\r
+!AIVDM,1,1,,B,13M@G0hP0?08AhjNEo=@Fwvj0D0d,0*35\r
+!AIVDM,1,1,,A,239K6?50010CTGTMH5gad:Tn00S<,0*51\r
+!AIVDM,1,1,,B,13P7RT@P000=JUHMD;AWmOvp00Rr,0*2C\r
+!AIVDM,1,1,,A,19NWuW00068VDGDDVV<pOVbp0H@D,0*45\r
+!AIVDM,1,1,,A,13P<N8EP1mOovbvLv7tRbOvp0@?w,0*0D\r
+!AIVDM,1,1,,B,13aDCfPP00PHPURMWb`00?vp2H@J,0*39\r
+!AIVDM,1,1,,B,8000000Iv77nfN17<NPKJqvffoQ6;6kcPC3Pr7dGsP,4*7A\r
+!AIVDM,1,1,,A,402Un81uho;NF21<cDE21PW005Ip,0*36\r
+!AIVDM,1,1,,A,13R1I:00001ksiHEKsDP05b`0L0<DUwviu,0*2E\r
+!AIVDM,1,1,,A,33Uvh01P@41of=@EuPg3UK2f0000,0*73\r
+!AIVDM,1,1,,A,402Un71uho;NG1qDDfF3rF700D3e,0*2F\r
+!AIVDM,1,1,,B,13pr<l0P0012imDNUMRe`?vp0<0O,0*1D\r
+!AIVDM,1,1,,B,13e89L0P010D27`MdtClTgv`0H=C,0*2E\r
+!AIVDM,1,1,,B,64TCa400UBf206P0@0,4*34\r
+!AIVDM,1,1,,B,13U3;P000OPC>56MedomMT`j0<@h,0*02\r
+!AIVDM,1,1,,B,83aDo<Pj2d<dtdd=LiT0e@UE6@P0,0*47\r
+!AIVDM,1,1,,A,13aGuowP00PDsctMe7Bh0?vnRD7w,0*3B\r
+!AIVDM,1,1,,A,13aDqO0P00P02>fMdU15f?vfR8?o,0*5E\r
+!AIVDM,1,1,,,33P<CjPOh2P99JdMa2M;?@dp00vP,0*3C\r
+!AIVDM,1,1,,A,33@UCN5000Ot4oNNgfWG>Rjj0DI:,0*21\r
+!AIVDM,1,1,,A,36:=K:00008K1TNFCc`:tUTn21s0,0*6A\r
+!AIVDM,1,1,,B,39NWvkh02;OAHP@FKWC6u5Tn00V0,0*1F\r
+!AIVDM,1,1,,A,14R1tn0008`VBCvDVm1VuFll0000,0*38\r
+!AIVDM,1,1,,B,23L?MH001SP>R9NMIP5C3jFn0<58,0*29\r
+!AIVDM,1,1,,B,13b0cl00000HuETNKGUjCP4l05Ip,0*6C\r
+!AIVDM,1,1,,B,33ktps002BPquApP4Rg=Dr`p2001,0*65\r
+!AIVDM,1,1,,A,13bBkv00010EVoLMara0=HDn0@@K,0*33\r
+!AIVDM,1,1,,B,13chjl?P160f3bPHtrp6rOvp0@@I,0*5F\r
+!AIVDM,1,1,,A,13aIj9PP0:PDtEBMdeS8SOvp2H@L,0*79\r
+!AIVDM,2,1,1,A,53aGuJT000010SK?CB1<DhTp60a:2220000000007P762tie00l5DSAD,0*45\r
+!AIVDM,2,2,1,A,QCQ000000000000,2*56\r
+!AIVDM,1,1,,A,14a8;:0001QEKNhO8K?2Cb>r08@L,0*5B\r
+!AIVDM,1,1,,A,13aDBgG00CPCc?`N>9kqVp7>0HFW,0*1A\r
+!AIVDM,1,1,,B,4h2=aCQuho;NIOcU4>O3<jA000S:,0*0A\r
+!AIVDM,1,1,,B,13bTPj0P000EsgHNCCj6Uwv<0`3q,0*0A\r
+!AIVDM,1,1,,2,333`@p3P@2P@ua@MKtb6mRCF00th,0*63\r
+!AIVDM,1,1,,B,13aJI1@P1CPIDjbN8`W7fwwR20S4,0*64\r
+!AIVDM,1,1,,B,13P9<@@P02wrLU8M1tw9s?vl05Ip,0*28\r
+!AIVDM,1,1,,B,333lEOgP00PCv2<MDtRr2gvp273S,0*47\r
+!AIVDM,1,1,,A,39NSAPm0012BHwrJkVvs<0jp0000,0*25\r
+!AIVDM,1,1,,A,13aRJD0P000OfrHNQ2gbhgw@25Il,0*68\r
+!AIVDM,1,1,,A,4020r5Auho;M`PNQUlNb76W00@GV,0*1F\r
+!AIVDM,1,1,,A,402E3OQuho;MW0OOapNTrwi008Ga,0*62\r
+!AIVDM,1,1,,A,13b=DJ0P000GpB0NQv39oOwB28Gb,0*39\r
+!AIVDM,1,1,,A,16:@<U`000`Vhu4DaVE@03Ln2@@C,0*5B\r
+!AIVDM,1,1,,A,139O2Cg000PPhotNcg8h0@g<05Il,0*16\r
+!AIVDM,1,1,,B,13cEtn001nPF9NVN`83qgWi>08Gd,0*6B\r
+!AIVDM,1,1,,A,13aGEVhP00PNwPLMqM:Ljgvp28@J,0*50\r
+!AIVDM,1,1,,B,H44?BB4lDB1>C1CEC130001@F270,0*04\r
+!AIVDM,1,1,,A,33@oI`hOh=0qbQ2Ou?P0M26p2000,0*4C\r
+!AIVDM,1,1,,A,4h3OwmQuho;NHo56IhKcvE700UIp,0*0F\r
+!AIVDM,1,1,,B,13aJHK?P000H=w>N9nQ@0?vp0D0D,0*6D\r
+!AIVDM,1,1,,B,33BCN@5000Ow7SBNcucluaRn0000,0*4E\r
+!AIVDM,1,1,,B,33aDob0P1HPGHT@Maj@cvwvV24r1,0*5E\r
+!AIVDM,1,1,,A,601uEPptH;3h04<100,4*50\r
+!AIVDM,1,1,,A,14eU`d0P01L>eW@K=bweBgvn08@M,0*48\r
+!AIVDM,1,1,,A,83aGCTPj2d<dtLe==0LhN@Mm6A00,0*38\r
+!AIVDM,1,1,,B,E>jHCJRabV2h9URa9<h64ST:47bwmrI4@qoo81088;e004i@,0*1A\r
+!AIVDM,1,1,,B,13aDs1PP00PD=hrMe2bB9?vp28@N,0*4D\r
+!AIVDM,1,1,,A,15NDjPPP00IOpoPBQvtrBgvp25Ip,0*25\r
+!AIVDM,1,1,,A,13cVCE0vh00wbVbGDF>h03Vl0<0k`Psv5c,0*06\r
+!AIVDM,1,1,,A,233RaP301T0>UspMHv2<Wavj08@N,0*18\r
+!AIVDM,1,1,,A,13P<Gpt00cwgAVPNuEGb5`Jp0<0Q,0*66\r
+!AIVDM,1,1,,,139h:80P1DPICJLN6Sl19gvn28@G,0*42\r
+!AIVDM,1,1,,B,13prmoSP001Drg<O<VP@0?vn00Sl,0*65\r
+!AIVDM,1,1,,A,1:022D0001ORk1tQBuk4EVDp0<02,0*7B\r
+!AIVDM,1,1,,B,38156p001L0Bj2PMI:e3FRdm@000,0*6E\r
+!AIVDM,1,1,,B,13GlH<001o0W>ttHav<S=2Pj00R`,0*48\r
+!AIVDM,1,1,,A,140UuAwP00PS3b4K=9tb7?wBP5Ip,0*0B\r
+!AIVDM,1,1,,B,13aIgn@P00PDT8:MeEN00?vp28@O,0*4B\r
+!AIVDM,1,1,,A,15>pcJ001iawlOFD:ApG0mRr0H@C,0*60\r
+!AIVDM,1,1,,A,169ucj0P008cjupEOID6Vgvn00Rp,0*0A\r
+!AIVDM,1,1,,B,13m9c47004PhD3fR>Va`a0Np0<0j,0*0C\r
+!AIVDM,1,1,,B,16:@K0002L8d7q<EWWRGLErp0H@:,0*22\r
+!AIVDM,1,1,,A,6>q7CE0000I8000000Ph4h00A5PB0MfwGp=181>7J8?E000000000000,0*42\r
+!AIVDM,1,1,,B,B69FVH:t0J5DwwSF`gh03wenCP06,0*65\r
+!AIVDM,1,1,,A,19NP0101jC2>ctqfmbqP0K>l0000,0*12\r
+!AIVDM,1,1,,A,36:B=JQ0008T<4tFk9S;l7op0Wh@,0*2A\r
+!AIVDM,1,1,,B,16T0o000008K7c8FEspTHSTn0<4m,0*26\r
+!AIVDM,1,1,,B,39NSCTmP?w<tSF0l4Q@>4?wp0P00,0*26\r
+!AIVDM,1,1,,B,16:V4J0P0086OJ:=>Tv00?vl05Ip,0*59\r
+!AIVDM,1,1,,A,15N5T10P00ISqc`A8h`;:gvp2D4h,0*0F\r
+!AIVDM,1,1,,B,833j7CPj2d=d<=<<L1a@i2wE00L0,0*7E\r
+!AIVDM,1,1,,A,15N7F<PP00IRm``A9Kqd7gvn0<4Q,0*50\r
+!AIVDM,1,1,,B,15@Vr6002a08kQtMHNe8eW2l08@P,0*04\r
+!AIVDM,1,1,,B,35NNevU000ISnn6A4nN;Ao:p0E4b,0*50\r
+!AIVDM,1,1,,B,1690Iw0P00871;b===9om?vj0<2g,0*6E\r
+!AIVDM,1,1,,A,15MvnVgP00ISShdA7LE:h?vp2D5T,0*50\r
+!AIVDM,1,1,,A,15NF2N0000rrm`bH?Fr0000n0H@t,0*58\r
+!AIVDM,1,1,,A,33P:owh00=OhSTtNbbARdQnn0000,0*3D\r
+!AIVDM,1,1,,A,64R:gF40UBf004@0@2000020000002000000000,2*1C\r
+!AIVDM,1,1,,A,1001:G?P?w<tSF0l4Q@>4?wv0p1a,0*7C\r
+!AIVDM,1,1,,B,16Sgq40P@71cnm@EdR12RThp0@@5,0*3E\r
+!AIVDM,1,1,,B,13o=BP00000J>0HQh53HL0m>0HG:,0*06\r
+!AIVDM,1,1,,B,33mGSF0OkGPJi0LQfs2H06Hp00TP,0*42\r
+!AIVDM,1,1,,B,33A4g<000>Pr602P4G7Smj<n2Q2A,0*11\r
+!AIVDM,1,1,,A,133nqSgP0CPHIIjMg14cH?vp28@Q,0*4B\r
+!AIVDM,1,1,,A,333dgtgP00PCri0MEqQC0wvn27cS,0*6C\r
+!AIVDM,1,1,,B,14ccwR0v010`pq>IIipdO3Fp0<1h,0*4F\r
+!AIVDM,1,1,,A,13aEOfhP00PRj;FK>aSPSwvnRH@R,0*27\r
+!AIVDM,1,1,,B,13UkMF00001dPb@EdL9ooW0r0<2?,0*75\r
+!AIVDM,1,1,,B,133qV@00000>fw8MGndJdr6p08@P,0*56\r
+!AIVDM,1,1,,B,13co1@001vPk>GrPuFWt8adn0@@A,0*4F\r
+!AIVDM,1,1,,A,13ln>R00000mRKLQ<K70?82n0<0u,0*71\r
+!AIVDM,1,1,,A,13u=cDP000PmGUnQ1L2`m7hp00Sn,0*6B\r
+!AIVDM,1,1,,A,23aFfl0P00PCR>JMEBB00?vp20S<,0*03\r
+!AIVDM,1,1,,B,13`ww<0P000HhpBNKDKAbgvn25Ip,0*51\r
+!AIVDM,1,1,,A,13P:o>@000OnJd4PdgPp68>40p@8,0*1B\r
+!AIVDM,1,1,,B,33oEqB5000OnOo4PdQwP02dn0000,0*46\r
+!AIVDM,1,1,,B,133gnHgP00PD4P0MDiw:3?vpR<4D,0*1B\r
+!AIVDM,1,1,,B,143Nh200002BF8lJl0M2g:2l0`@R,0*4D\r
+!AIVDM,1,1,,A,19NS2Dh0001d3i`EeglA7D1v0@@R,0*4E\r
+!AIVDM,1,1,,B,14V`h2002C08@cDMF=S7nV<n05Ip,0*56\r
+!AIVDM,1,1,,A,E04<o3IaRWUb0W@0h@@@@@@@@@@4QfvS:eQ7P10888efL0,4*6F\r
+!AIVDM,1,1,,B,13aFg1wP00PCmM`MEca44wvq2<7m,0*0C\r
+!AIVDM,1,1,,A,14SVqj001t1QjBHR61Os6a0f2<0?,0*11\r
+!AIVDM,1,1,,A,13aDr?PP1:PCjqpMFojM8?vpR5Ip,0*23\r
+!AIVDM,1,1,,A,13HOI?0P0000Vh0LCn:Wkgvn0p@K,0*68\r
+!AIVDM,1,1,,B,14Rlbt001Nwj1WHNUnF5N4Bn00S`,0*27\r
+!AIVDM,1,1,,A,36K2;iPPAHawM0@DC64b27rn20u1:11vdk,0*51\r
+!AIVDM,1,1,,A,13HOI<PP0000da2LC@Q7=wvn0T00,0*7E\r
+!AIVDM,1,1,,A,13ILgO0P0000W7>LCmvuIwvp00SL,0*71\r
+!AIVDM,1,1,,A,B3@niRP0=8>MsR`185uUsweUkP06,0*00\r
+!AIVDM,1,1,,B,133uoaPP00PCp08MF=aaQgvr28@T,0*1E\r
+!AIVDM,1,1,,A,13ciWt0P000Vo:4IFW700?vn0@@R,0*40\r
+!AIVDM,1,1,,A,33a9980Oh?0=KqPMCtiut06r00pP,0*76\r
+!AIVDM,2,1,2,A,53aGF<D000010;S77L0pTddV00000000000000009@<73tU<?04Sm51DQ0C@,0*15\r
+!AIVDM,2,2,2,A,00000000008,2*2E\r
+!AIVDM,1,1,,B,133rncPP00PCmR4MABDh0?vpR@@Q,0*1B\r
+!AIVDM,1,1,,A,13aJGqPP10PClwrMdKkIfgvpR0Sa,0*55\r
+!AIVDM,1,1,,A,337g1B1001nc<KhNwG5=tSFl0000,0*6C\r
+!AIVDM,1,1,,A,13Ebh>3P0OwulE6Eg0eigwvf20Sr,0*69\r
+!AIVDM,1,1,,A,13@nt?P0000hNl6Q1bl7c1hr0@@H,0*04\r
+!AIVDM,1,1,,A,13aDp=hP00PD0fnME2Qjdwvn2@@U,0*35\r
+!AIVDM,1,1,,A,15N;0>0018Jlld0GWdm<Nb2n08?l,0*40\r
+!AIVDM,1,1,,A,15N3cb`P00G?j0DKAG9Pbgvr0D1C,0*2B\r
+!AIVDM,1,1,,A,13E`4R`00uOw;;dEdf`QA1;>00Sc,0*1D\r
+!AIVDM,1,1,,A,33E`4R`00tOw;NLEdho1lAbd0000,0*4C\r
+!AIVDM,1,1,,A,14aW;R0P1?OiAE0NoGTihOvp00So,0*46\r
+!AIVDM,1,1,,B,13=I`D5P008VjT4DanHJagvn0`@O,0*7E\r
+!AIVDM,1,1,,B,13aC4p@P00PCk>hME8hP0?vpR0S3,0*7C\r
+!AIVDM,1,1,,A,16Toj`501jab:T@CkQJsLa>p0UIp,0*1C\r
+!AIVDM,1,1,,B,15NKjNP01EqOBA0BS`PT@3Vp0D0C,0*3E\r
+!AIVDM,1,1,,A,13aGCTPP100D8PBMD7H7QwvhP@@V,0*35\r
+!AIVDM,1,1,,A,13c8Ib001n0=8G2MHq4kIRbp0D0L,0*61\r
+!AIVDM,1,1,,B,13aDqMPP00PD3S0MDuVB;?vnR0Sb,0*5D\r
+!AIVDM,1,1,,A,169<l=80008JpdTFCdA5PhVp0<5W,0*2A\r
+!AIVDM,1,1,,B,13@oGOPP010rK`TOhd<9@Ovr0@@W,0*16\r
+!AIVDM,1,1,,A,16K8Ath000awjIHDIceaTVHl00RufBcvdk,0*17\r
+!AIVDM,1,1,,B,133rKfgP00PD=i2MDGRtcOvp2D7g,0*6A\r
+!AIVDM,1,1,,B,33l:Et5000PVuRTNbsK00:0n0000,0*42\r
+!AIVDM,1,1,,A,15>ucf0036o?NFTK=LMVGU>n00Rw,0*23\r
+!AIVDM,1,1,,A,369pWcPP@`8K9SDFC?oSI9:p00nQ,0*20\r
+!AIVDM,1,1,,A,16:Qe8PP0l8LHI`=v5N5hgvn28?q,0*08\r
+!AIVDM,1,1,,B,B=JTVv001B;sUJ4B6FMC?we5oP06,0*69\r
+!AIVDM,1,1,,A,16921@0P008LMBj>02EKJgvn20S@,0*3C\r
+!AIVDM,1,1,,A,13VkrF?P00OW:JHDc>U000:f00Rb,0*72\r
+!AIVDM,1,1,,A,E3Efb1h17dPh9TRa90P00000000@4wQB;kprP10@HPe020,4*0D\r
+!AIVDM,1,1,,B,16:AU;P0008g8;8A1O@h04>n2<1M,0*02\r
+!AIVDM,1,1,,B,169CQCP0048fKq`A6VNkqpRn2<4Q,0*78\r
+!AIVDM,1,1,,A,169C`lwP008LU4F>3mMoHwvp2@@5,0*5F\r
+!AIVDM,1,1,,B,169DpTPP008fb=BA:Sq1tK>d08FR,0*29\r
+!AIVDM,1,1,,B,13P;0JP02<`i034@tMvPAP>h0@@7,0*79\r
+!AIVDM,1,1,,B,13@nr?0P000r1t2OkrCIsgvr2D17,0*2D\r
+!AIVDM,1,1,,A,34eGo=POi5G;fpjL;`tlq44p00oQ,0*22\r
+!AIVDM,1,1,,A,33:g>45000G<a7PL=1a<<5bn0000,0*11\r
+!AIVDM,1,1,,B,14eG;o@000o<F84L2aCmV1Tn00Rs,0*72\r
+!AIVDM,1,1,,A,14eH0lhP00G<cFfL=5NIHgvD20S5,0*68\r
+!AIVDM,1,1,,A,14eGLB0P00G<<OhL6iAK0Ovn0@@N,0*0F\r
+!AIVDM,1,1,,A,15B1nJ002<P1norO6aLT;SFh0<1M,0*5F\r
+!AIVDM,1,1,,B,15S:>H0000PDp0tN16fqI:hr0D2e,0*0A\r
+!AIVDM,1,1,,B,139cN=0P00PD<kNME1gSL?vp28@`,0*31\r
+!AIVDM,1,1,,A,13aIkC0P0RPG;:fMc9j1kOvp2@@`,0*6A\r
+!AIVDM,1,1,,A,4020s1iuho;NK0T5AtO0<gG000S:,0*19\r
+!AIVDM,1,1,,B,15N5WfPP00IS35:A;t0rugvp2H@G,0*68\r
+!AIVDM,1,1,,A,15NEN40P00ISct8A65ad8?vn00Rw,0*7B\r
+!AIVDM,1,1,,B,15N8?9`P00IRrcBA9>kt2gvn0@@I,0*44\r
+!AIVDM,1,1,,B,15NC6P0P00IT29>A:VkbwOvp2<4c,0*41\r
+!AIVDM,1,1,,A,13n3aW0PCgPJWanQh7ablHVp2@@U,0*21\r
+!AIVDM,1,1,,A,15N0CH0000IShL0A8pTqFQhp0H@N,0*0C\r
+!AIVDM,1,1,,A,13fKi00001wj:mTNUU0GDbLp2@@`,0*3E\r
+!AIVDM,1,1,,A,15MsuVP000ITA2HA7ppc``Hp00T5,0*35\r
+!AIVDM,1,1,,B,15Mh5f0P00G?pPlK>=Ua8wvp0<1s,0*78\r
+!AIVDM,1,1,,A,13n=<t001S126FfVT8lhL@IN0D0M,0*74\r
+!AIVDM,1,1,,A,13oGfN81@011ja@VP1A009uN0PS6,0*67\r
+!AIVDM,1,1,,B,13aI;LOP00PEVFFMasKh0?vp2<4h,0*03\r
+!AIVDM,1,1,,A,333V?v?P@>PCR<jMFO2jEQTp20v@,0*14\r
+!AIVDM,1,1,,A,16K2FA@01Waw976D51IIR7Rp25Ip,0*5E\r
+!AIVDM,1,1,,B,D09RFOiWPJfp00K6EEqJ>5GMK6E,2*7C\r
+!AIVDM,1,1,,A,16KVj<P021awgo8D<7ILd::p2@@Q,0*12\r
+!AIVDM,1,1,,A,A04757QAv0agH2JdGv<P7Oq`whTGw9P070,4*47\r
+!AIVDM,1,1,,A,13Ebp9gP00OsVdDEOa8ncwvf00Rm,0*31\r
+!AIVDM,1,1,,A,13e0pV001cOsOkrENrCnGU2J0L32,0*2C\r
+!AIVDM,1,1,,B,E02E37Q`60b37a6h5q1FPh@@@@@@8HLH?Km4@00003v000,4*2E\r
+!AIVDM,1,1,,A,16KPbtP02Cb0KRLDDOVIfoRp28@G,0*4C\r
+!AIVDM,2,1,3,A,56K2C7l00000`OG7C61<4eE8622222222222220l20C734o9N8lj2@PEDPH88888,0*43\r
+!AIVDM,2,2,3,A,8888883,2*24\r
+!AIVDM,1,1,,A,133ivegP000D0l0MEKk9nwvrR@@b,0*7E\r
+!AIVDM,1,1,,B,23NCqt501N0>VQlMI1mdEr0r2H@b,0*22\r
+!AIVDM,1,1,,A,13aENjpP00PCobpMd1bojgvnRD3w,0*38\r
+!AIVDM,1,1,,B,13iPcQ@P000CRdrMEBH@0?vp0D7N,0*4D\r
+!AIVDM,1,1,,A,15N8PR0001r6VR8?vcT;3WFr08@`,0*12\r
+!AIVDM,1,1,,A,13M@IVP000wvk6LNh8ve;8vr05Ip,0*70\r
+!AIVDM,1,1,,B,14RvoB0001PCWN0MHFv4s30r0<;C,0*65\r
+!AIVDM,1,1,,B,13aIhV?P140H?JfMVbP:cgvp0H@c,0*7A\r
+!AIVDM,1,1,,A,13A0u080000hP<rQ1eb8DW8r05Ip,0*64\r
+!AIVDM,1,1,,A,13B6N>00000hLurQ1WvJgW>r0<1J,0*33\r
+!AIVDM,1,1,,B,13P:NlSP00OjB;DNRdMII?vr0D12,0*0D\r
+!AIVDM,1,1,,B,15NHNVg00IqsRLVFG2CjIAbp08@a,0*72\r
+!AIVDM,1,1,,A,33dd8N000M0C>i4Mea05USfp0000,0*61\r
+!AIVDM,1,1,,A,140UrVgP00PD8pbMDTTKBgvp2@@c,0*5B\r
+!AIVDM,1,1,,B,13L>bV003>0tC4`OWFs:bpTl0<0b,0*5C\r
+!AIVDM,1,1,,A,13`el`PP1OPGi?`MaJFsWOvp20S<,0*52\r
+!AIVDM,1,1,,A,13uAL>?P001BgD8Qt`E9Fwvr2D11,0*1F\r
+!AIVDM,1,1,,B,139L:m0000PVoIfNobBT6a`l05Ip,0*71\r
+!AIVDM,1,1,,A,13Tc0`00001d@khEe9o5ATRl0`@e,0*48\r
+!AIVDM,1,1,,A,13P89nCP00OjAK0NTnK8DOvr0D0n,0*35\r
+!AIVDM,1,1,,B,13aDrb@P1SPI`HdMdVt:fOvp28@d,0*05\r
+!AIVDM,1,1,,A,13aIhR?P00PIW`NN8LIISOvr28@e,0*34\r
+!AIVDM,1,1,,B,14RVLj002n0CC1RMIWC=Qrrl85Ip,0*29\r
+!AIVDM,1,1,,B,15Pnlj?000qOobTBQuo:Erpr0D0<,0*0F\r
+!AIVDM,1,1,,A,13aFeV0P00PCu2:Md:U00?vpR8@e,0*0E\r
+!AIVDM,1,1,,A,13aBL@5P?w<tSF0l4Q@>4?wp0d3w,0*20\r
+!AIVDM,1,1,,A,33n0wd5000OsTd8EO`N@FmBB0000,0*15\r
+!AIVDM,1,1,,A,13Hb5d00000HS@tHiw5PN61D0`IG,0*20\r
+!AIVDM,1,1,,B,13@RSd002AwD2BrEbB1uVrpp0<1g,0*1F\r
+!AIVDM,1,1,,A,15N5>>0001ISKMtF<<6oCV6n08@d,0*4E\r
+!AIVDM,1,1,,B,13aEOJ0P00PChS>Md@V`nwvp25Ip,0*0E\r
+!AIVDM,1,1,,A,333SP<5001NqM0@@72tF2Efl8000,0*2E\r
+!AIVDM,1,1,,B,13P:bR0P0006No6MGba2g?vp20SD,0*7C\r
+!AIVDM,1,1,,B,13cVfc0P010g9lvHrmuFK?vl05Ip,0*34\r
+!AIVDM,1,1,,B,13m3if00002BO4<JoATV@2Dn0`@g,0*08\r
+!AIVDM,1,1,,A,16SWW1P000a3P:BEKPJ@0;<p2@@T,0*2C\r
+!AIVDM,1,1,,A,13lJ9b001gP`slLNktub<`<j0@@@,0*50\r
+!AIVDM,1,1,,A,13P;HIP000P6PedMGgL002Hp00S?,0*5E\r
+!AIVDM,1,1,,B,333lHWaP00PCro<MC4`ELOvn218Q,0*08\r
+!AIVDM,1,1,,A,35?8K>5000:1Et`DG<d6E:th0000,0*03\r
+!AIVDM,1,1,,B,15?6mb002=8fkMpEb9jbg`Vl0D0k,0*24\r
+!AIVDM,2,1,6,A,55?6mb02;d1G<HpOR21AF14T4pN2222222222216D@HD;4oD0@C3kQjk,0*5A\r
+!AIVDM,2,2,6,A,mH8888888888880,2*07\r
+!AIVDM,1,1,,A,402M3b@000Htt0K0Q0R3T<700Tp`,0*64\r
+!AIVDM,1,1,,A,16K8Cg@000awHW`D<9Nb17Nr25Ip,0*06\r
+!AIVDM,1,1,,A,16:CGQ0P018VRTlERKt`uOvn2@@F,0*35\r
+!AIVDM,1,1,,A,33m1lf6000`gh8fEKIMkMThp0Dhb,0*59\r
+!AIVDM,1,1,,B,169G:gPP?w<tSF0l4Q@>402n0l0l,0*0B\r
+!AIVDM,1,1,,B,16:RS:001?87brp=:qln8Tnp05Ip,0*78\r
+!AIVDM,1,1,,A,11mg=DPP008SkeHFnPHD=gvn25Ip,0*70\r
+!AIVDM,1,1,,B,16:BBuUP0e8PAJP>8bk`KW4l0<1r,0*6A\r
+!AIVDM,1,1,,A,16K8Aqh00VawFKvDBD?9i7lr2<4E,0*4A\r
+!AIVDM,1,1,,A,16:BOA001e8eT`pAo4O5N4Dn0<80,0*2E\r
+!AIVDM,1,1,,A,169;59P0008Sm6<FmvThOc9p0l3H,0*60\r
+!AIVDM,1,1,,B,15STiV000087?;d==2<bDAFp00Rw,0*0C\r
+!AIVDM,1,1,,B,16S`2wP000a3M`DEG?==EIDp80S@,0*11\r
+!AIVDM,1,1,,A,16U0lh00188c1v6B6iju1:Fp0H@M,0*29\r
+!AIVDM,1,1,,A,13aGtQIP00PD93:MDE5lEOvV28@h,0*07\r
+!AIVDM,1,1,,A,16KJU7P000awEeDD?BAe33jr2@@b,0*05\r
+!AIVDM,1,1,,A,169UFV0P00Wkdqh;CfH;:Ovr0<0r,0*2E\r
+!AIVDM,1,1,,B,13P7r??000Oj@eBNTMgJLBfr0@@h,0*78\r
+!AIVDM,1,1,,A,15NFJTPP00IRpqHA9Fcc6Ovr2@@U,0*42\r
+!AIVDM,1,1,,B,15MwNp0P01IRNF<A8CP6mOvp00SA,0*01\r
+!AIVDM,1,1,,A,B>q000@0026mfP5U9isO3wfRP0QO,0*06\r
+!AIVDM,1,1,,A,15MwNGgP00IT8rDA80ac1?vr20RU,0*71\r
+!AIVDM,1,1,,B,168rO00P008K1VpFCc9pnOvp0p@b,0*79\r
+!AIVDM,1,1,,A,15NFEi0P00ISfn6A4??bogvr28@`,0*73\r
+!AIVDM,1,1,,A,13uo4P002kPqg0tOag:Vg5Hp0<1C,0*30\r
+!AIVDM,1,1,,B,13HTqg0P00PD<8rMDv5P0?vpR8@i,0*7F\r
+!AIVDM,1,1,,B,13aoJ4002Q07rSrN?rmDkkhj05Ip,0*74\r
+!AIVDM,1,1,,B,33P:LS3P@qP6Q7nNAiGehJfp20v0,0*58\r
+!AIVDM,1,1,,B,14`WU>002hwWL<`OM;e9M7bn0UIp,0*59\r
+!BSVDM,1,1,,B,D02M45iWPNfr<`N000000000000,2*12\r
+!AIVDM,1,1,,A,802R5Ph0BkDhjPF?qRGaOwwwwwwwwwww2wwwwwwwwwwwwwwwwwwwwwwwwww,2*38\r
+!AIVDM,1,1,,A,15PH9Lh000Je<bbGCujukHVn0@@h,0*29\r
+!AIVDM,1,1,,A,133gf;g0000CjGnMG1`M8:Ln05Ip,0*40\r
+!AIVDM,1,1,,B,19NS9s@001vqNlD@5sIK;h0r08@g,0*50\r
+!AIVDM,1,1,,B,13M@L5P01SPr7WDOqC0SJBjn0@@j,0*1F\r
+!AIVDM,1,1,,B,13aBMEhP000Hp6bNKR3r:wvr28@i,0*14\r
+!AIVDM,1,1,,A,33Q;6M5001OWLsdDbNGT1hNn0000,0*72\r
+!AIVDM,1,1,,A,33EplEaPC9Oe:=DE0bLr37rr0000,0*35\r
+!AIVDM,1,1,,A,23aEPr@P010Cm?hMEo;ncwvnP@@j,0*7D\r
+!AIVDM,1,1,,A,13HjhH7OhJ038p<M0GbJE8Tp05Ip,0*7C\r
+!AIVDM,1,1,,A,14SH4T002>PI9?hQmsg`eVtr0H@Q,0*37\r
+!AIVDM,1,1,,B,13aDrF@P1aPD=aRMdh588?vhR0Re,0*6C\r
+!AIVDM,1,1,,A,139NcaP0000oG<4Nw;jW7Edr0D10,0*0F\r
+!AIVDM,1,1,,A,16K2<GP01uawIa>D46`j41br0D2e,0*7D\r
+!AIVDM,1,1,,A,13bG9D001hOg9aLNt56Mr;8p00S9,0*06\r
+!AIVDM,1,1,,B,15?h>600008K;pHFD@L<Orlr00Sd,0*28\r
+!AIVDM,1,1,,A,16KJb=@01EawdM`D6QhGJUtn0L3>,0*5C\r
+!AIVDM,1,1,,A,13HWeg700M03=>TLwfbu8:Fp0@@L,0*15\r
+!AIVDM,1,1,,B,13P:FQh01V03vp<Ns>Pb?8:l0<0Q,0*51\r
+!AIVDM,1,1,,B,13aBNaHP000CpEPMGd3h0?vn0@@k,0*5C\r
+!AIVDM,1,1,,A,14RCQn50000A0>pML=n1E1hh0PSE,0*66\r
+!AIVDM,1,1,,A,169@U>0000`RmvvCpawdPl:n2D1S,0*51\r
+!AIVDM,1,1,,A,18J=o:80008RNafCp`L5Hk<p05Ip,0*5F\r
+!AIVDM,1,1,,B,277nP@hP018:UHp<h<`@eOvn2<5W,0*29\r
+!AIVDM,1,1,,B,176t5d001@8:Ra4<hA3TGSKp0<6R,0*71\r
+!AIVDM,1,1,,B,169DuaP0008g0dLA:4IsUBDn28?n,0*7F\r
+!AIVDM,1,1,,A,140W:20023wv`M>LoTH9vp0t28@d,0*35\r
+!AIVDM,1,1,,B,169Ful0001`6Erf<Qh0@sCNn28@B,0*2F\r
+!AIVDM,1,1,,B,16:D;51P16868?n<QvttEJFl0HBa,0*36\r
+!AIVDM,1,1,,B,1690aR002G88nd`<k8;Uo4Vp00Rb,0*4B\r
+!AIVDM,1,1,,B,36:BEMP02K8g=U2A1d0V@4vp20T@,0*5A\r
+!AIVDM,1,1,,B,13aJGqOP00PCanNMH=M@0?vpR@@l,0*75\r
+!AIVDM,1,1,,B,13Q6SR002TPkrb:Pq<jU5T:n0D1n,0*0A\r
+!AIVDM,1,1,,B,13u=dTP0000niRvQ1N1h=SCh00SK,0*06\r
+!AIVDM,1,1,,B,13uGR;g0000nS;jQ12@r95Hr0H@a,0*78\r
+!AIVDM,1,1,,B,B3u=gg0000=OnD8?O9l03wf5kP06,0*43\r
+!AIVDM,1,1,,A,13u=7g01@0Pm4`<Q7p>8>52n05Ip,0*63\r
+!AIVDM,1,1,,A,13l=Q4002C0m>g@PlU7>1P0n0<2A,0*05\r
+!AIVDM,1,1,,B,18;CM80000o?mLdK2vMe89hp0<0G,0*71\r
+!AIVDM,1,1,,A,1696pr0000`K<ahFCEuWWVnr0@@f,0*1B\r
+!AIVDM,1,1,,A,601uEPHtH;3h04<100,4*68\r
+!AIVDM,1,1,,A,16K2>t0012awRGrDAbFLg:4t0H@e,0*4D\r
+!AIVDM,1,1,,A,15NEQsP022rms1HGWS9pIVnp00SL,0*6A\r
+!AIVDM,1,1,,A,16K2;<?000awB;8DB74qInfr25Ip,0*7E\r
+!AIVDM,1,1,,,13P:joOP?w<tSF0l4Q@>4?wp0UI4,0*53\r
+!AIVDM,1,1,,,13M@D8@001062S:Mf9hdU`>n05Ip,0*7F\r
+!AIVDM,1,1,,B,13aBNc0P1M0GFoFMjCo5owvn0@@m,0*4E\r
+!AIVDM,1,1,,A,33dlKf1002R>tp5fv?2PASjn0DhJ,0*50\r
+!AIVDM,1,1,,A,13aGt;0P00PCfH2MdSAh0?vpR@@m,0*47\r
+!AIVDM,1,1,,B,13aENcUP14PLtW2M`8w6U?vnR<0g,0*3C\r
+!AIVDM,1,1,,B,133laJgP00PD=9@MDud:8?vr2D7N,0*1A\r
+!AIVDM,1,1,,B,33aD00PP0jPHk8NMbwQ@d?vp2BnS,0*06\r
+!AIVDM,1,1,,A,19NWobh00`00eMlLCeC2Giln0<1>,0*42\r
+!AIVDM,1,1,,A,13P:nchv000fpUrI6@jILTpr00S=,0*34\r
+!AIVDM,1,1,,A,13qEU:000012kpTNUWb000Vn05Ip,0*29\r
+!AIVDM,1,1,,A,133iDQP00rPCcljMGvhF7Tlp05Ip,0*2E\r
+!AIVDM,1,1,,B,14R:vv00270G@C:QdeBi?i6d00Ri,0*47\r
+!AIVDM,1,1,,B,13miaA70110H6PfQm0Wq6G@f05Ip,0*3D\r
+!AIVDM,1,1,,B,33mM@U0OiuPITMNQev1:splh0000,0*73\r
+!AIVDM,1,1,,B,133PA:3P0LPH=n`Qjvo1hgvj08>h,0*55\r
+!AIVDM,1,1,,B,13n@oD0PB@0IRKtQjA<;?Hjj08?W,0*3E\r
+!AIVDM,1,1,,A,13aJGIhP0vPHRN0MWd`W1gvp25Ip,0*6C\r
+!AIVDM,1,1,,A,3778PW50000FpJPHmAjVa9tn0000,0*29\r
+!AIVDM,1,1,,A,14Q9cB0P00Jds3vG@9>t=gvp08@k,0*19\r
+!AIVDM,1,1,,A,13lnN:001aJe7D>G=j@eQ:hr0D3M,0*2E\r
+!AIVDM,1,1,,B,13aDCuEP16PEu``MeI5BtwvjR8@o,0*0A\r
+!AIVDM,1,1,,B,13lrgV001i0lwFTQ8rB2WR@p08@`,0*1F\r
+!AIVDM,1,1,,B,13urO@002w0jDUDQ2dTlLSVl05Ip,0*43\r
+!AIVDM,1,1,,A,13Q?iH0P1;0n;`8QA;v7P66j08@m,0*49\r
+!AIVDM,1,1,,A,133imEUP1@PGh>4N<Lekdgvp2@@p,0*20\r
+!AIVDM,1,1,,A,840UuF0j2d<<<<<<<0000?bP01L0,0*3C\r
+!AIVDM,1,1,,B,168sUo00018K<NJFCCG2rD>r0`@j,0*2A\r
+!AIVDM,1,1,,B,13`rO`?0000BSW6MN0:b`8Hp0<1Q,0*32\r
+!AIVDM,1,1,,B,148@70000a0;eKhMHqiSSRJn`<4q,0*31\r
+!AIVDM,1,1,,B,139a8NPP0l0eIB`N`fIkJwvn0H@p,0*6C\r
+!AIVDM,1,1,,A,233p8MPP00PCT04MH8tL9wvp20SK,0*05\r
+!AIVDM,1,1,,B,23`ekA@P000CUf@MFW500?vn0D3w,0*65\r
+!AIVDM,1,1,,A,181:K60024P3Pe@M0<68?V`l05Ip,0*5F\r
+!AIVDM,1,1,,B,14eH@`h001G<ppfL=D9hS;0p0<2C,0*58\r
+!AIVDM,1,1,,B,13aGs3@P00PCn>bMEMCeegw2P`@r,0*56\r
+!AIVDM,1,1,,A,13IUtt?P0KP3>DLLwJAqVgvp25Ip,0*31\r
+!AIVDM,1,1,,A,13WaWn?P?wOVofpDR`mv4?vp08@0,0*74\r
+!AIVDM,1,1,,A,13aBLK?P0wPDLiTMDKwCH?vp2D4:,0*32\r
+!AIVDM,1,1,,A,1344QN00210=C>bMIT3pF6Pr08@r,0*51\r
+!AIVDM,1,1,,B,14eGA7hP0RKLm7PIT32ThOvr0D0G,0*4B\r
+!AIVDM,1,1,,B,14V<Cf001doGnEhCF@WKhaLp0D05,0*4C\r
+!AIVDM,1,1,,B,13aGDk0P11PH?G4NLpGLvwvnR0Rt,0*3E\r
+!AIVDM,1,1,,A,13aDr1PP00PGT2PMgntucwvpR0St,0*71\r
+!AIVDM,1,1,,A,13HW:8g0000Cww`MEwMk`Rhn08@s,0*2B\r
+!AIVDM,1,1,,A,13UM?N001wP0WwdLsNkauWvn00SB,0*7F\r
+!AIVDM,1,1,,A,13dd4T0001PBv7hMfPt0:6nn0<<J,0*37\r
+!AIVDM,1,1,,A,13R?Gd?P001daGLEbnC@ewvp0@@r,0*26\r
+!AIVDM,1,1,,A,13mmQD000211oulVP;B85`b00hM;,0*2B\r
+!AIVDM,1,1,,A,36K2;5gPAKawHU<DBBvLub@r21?1,0*08\r
+!AIVDM,1,1,,A,15W`;:50008dpeDAuRKT1aNn0`@R,0*57\r
+!AIVDM,1,1,,A,169piGd0018ca`>EOFim:D6p08@P,0*1F\r
+!AIVDM,1,1,,A,1696mqP0018cc7jEPome3SBr25Ip,0*2A\r
+!AIVDM,1,1,,A,169pkjPP148fsWtESec4>gvr0<2?,0*1A\r
+!AIVDM,1,1,,A,13aGsE@P00PClNrMcTPeCOvp20SN,0*3D\r
+!AIVDM,1,1,,A,33aI:MU01:PJhEpNSMV5pDdpRBs3,0*13\r
+!AIVDM,1,1,,B,33bfe80P@fPL;H`NU=03HB`l00qh,0*0F\r
+!AIVDM,1,1,,B,333tUb03Aq0LAsPNfLwjjR:p00ui,0*6F\r
+!AIVDM,1,1,,A,1815:g002<0KuOPOQndQGQ2n05Ip,0*5A\r
+!AIVDM,1,1,,A,15N1b=PP00IShVpA4IcK7?vp00SL,0*53\r
+!AIVDM,1,1,,B,15NKQk0P00ISb>4A6eJJ`?vr20SM,0*59\r
+!AIVDM,1,1,,B,15MwUh0P00IS<WPA5h9Kf?vp08@h,0*76\r
+!AIVDM,1,1,,A,16KDPCP032aaiF4CkluIcWdp2@@j,0*47\r
+!AIVDM,1,1,,B,13a2GR0PBW09JR>MNDuHbnrr0D58,0*34\r
+!AIVDM,1,1,,B,13aEO1UP110FU@`Mb4fkWgvn0D32,0*30\r
+!AIVDM,1,1,,B,13ci@q?P000e0>>I?;6ME?vp0<0K,0*2B\r
+!AIVDM,1,1,,A,13aDpf@P000DHtJMd8Lbgwvr20Rk,0*15\r
+!AIVDM,1,1,,A,13b0oR001P0;d0lMFk:SoRrp00Rb,0*1F\r
+!AIVDM,1,1,,B,13aFh<@P00PD1OpME?o@0?vpR<25,0*26\r
+!AIVDM,1,1,,B,16:VFv0k0J`KQSJFATAlOOvn40@n,0*70\r
+!AIVDM,1,1,,A,15NJIs0P0fJeHerGBjrm7Ovr2<3H,0*23\r
+!AIVDM,1,1,,A,13UPFd0021PjJBbPwVq5?DFl0`@s,0*57\r
+!AIVDM,1,1,,B,133w5iP000PCwe6ME@>h08PpR@@v,0*7A\r
+!AIVDM,1,1,,A,16K2;MhP02awDG>DB:vHiwvr20SB,0*34\r
+!AIVDM,1,1,,A,13aEPU0P00PRvgPK=Ri:c?vr2<0`,0*57\r
+!AIVDM,1,1,,A,33aGrU@OhE0Hpj0NL0KPbR1h0R0@,0*05\r
+!AIVDM,1,1,,A,13aBKa0P000D>UnMdtJh0?vn0<3w,0*1C\r
+!AIVDM,1,1,,A,13u?qPP0000n:@<Q0cGb1Btt0D1n,0*48\r
+!AIVDM,1,1,,A,33ew5403AowwtKpO0G><Wb4p014Q,0*78\r
+!AIVDM,1,1,,A,13ma<@001mPIpHbQi@iUHlBr0@@q,0*5A\r
+!AIVDM,1,1,,B,13n;0D0PB=0J;j0Qgu75PTDn05Ip,0*51\r
+!AIVDM,1,1,,B,133j7CPP0<PD2=<ME2=D2Ovp2@@w,0*5C\r
+!AIVDM,1,1,,A,13aISr30020G>8RNQ7tLe``P0<1=,0*2A\r
+!AIVDM,1,1,,B,14S26D01iBPFgt`N`K>afGhl2<0m,0*30\r
+!AIVDM,1,1,,A,13P<QU?P000VpN6IFuT00?vj00RA,0*53\r
+!AIVDM,1,1,,A,169I6W00008L2chFCBbqem6p2<65,0*6A\r
+!AIVDM,1,1,,A,13I<skPP0900Q3`LD:Q9Ngvn0<12,0*26\r
+!AIVDM,1,1,,B,13q6`800001EUB@O8:IP04vn0D11,0*27\r
+!AIVDM,1,1,,A,13u:Tn002MPsH5HOTT91=htp0D0w,0*1D\r
+!AIVDM,1,1,,A,B3Q;7W@0Bwqnvg5:in5wcwf5WP06,0*1A\r
+!AIVDM,1,1,,A,13aIi=0P00PCn;pMEMReSgvl0@A0,0*53\r
+!AIVDM,1,1,,A,33P7if5000wjqMLNOIuQ3Rpl0000,0*37\r
+!AIVDM,1,1,,B,11mg=5@P1BPE@@fMfj5dwwvp2D3w,0*13\r
+!AIVDM,1,1,,A,133sfv002cP<:uHMM9cK8I4n0D3w,0*44\r
+!AIVDM,1,1,,A,1>qc9ww000OkfS@MMI5004Rn0H00,0*6F\r
+!AIVDM,1,1,,A,13A<CT000kODoDhF4V3HAFVp0<16,0*28\r
+!AIVDM,1,1,,B,13sM@=?P00OEfOdF92rVKOvn05Ip,0*05\r
+!AIVDM,1,1,,A,343`I>0Oh0RBRGNJo=6@01Dn0000,0*2C\r
+!AIVDM,1,1,,B,33aGCPhP?w<tSF0l4Q@>4?wvPS4Q,0*16\r
+!AIVDM,1,1,,A,16SWNIwP?w<tSF0l4Q@>4?vp0l26,0*02\r
+!AIVDM,1,1,,A,13bBPL?P050E0n<MdK5dQgvr2L5>,0*11\r
+!AIVDM,1,1,,A,169vkEhP008VfilDa7Bh0?vp08Nw,0*75\r
+!AIVDM,1,1,,A,16K8DmO001awBPHDB;<cm9dp0L3v`<Ovdk,0*38\r
+!AIVDM,1,1,,B,DvjHC6ARLf01dtv00`UN00g@N00,2*0E\r
+!AIVDM,2,1,8,A,533qF<T00000uCC77P0iD@uHT<0000000000001?58>51vc0E0p880000000,0*43\r
+!AIVDM,2,2,8,A,00000000000,2*2C\r
+!AIVDM,1,1,,B,133e?vgP00PDU:bMDJh00?vr25Ip,0*38\r
+!AIVDM,1,1,,B,13aDoshP06PE0tVMdJCc6wvp28A3,0*5B\r
+!AIVDM,1,1,,B,14WcEh002j0av0HI:wh<Happ0D1f,0*64\r
+!AIVDM,1,1,,A,15NJE5?P00G?fijK@<r:4gvr2<1b,0*51\r
+!AIVDM,1,1,,A,139Ja;001HPRI40NjcvIr7vp05Ip,0*3C\r
+!AIVDM,1,1,,B,13P:r=@01dODa2pE1JjEOTFr0D2v,0*01\r
+!AIVDM,1,1,,2,13GR0a0P0gP@gmjM>fl06?vr2L29,0*65\r
+!AIVDM,1,1,,A,13cVT800000wka8GD861k4tn08@`vkgv7s,0*11\r
+!AIVDM,1,1,,B,13aIi60P0mPCK<BMItGn8?vr28A2,0*68\r
+!AIVDM,1,1,,B,139N4gP02sJnoQlG<E?bNHJp05Ip,0*37\r
+!AIVDM,1,1,,A,133oAiP0000CmhdMFR1@UDdr05Ip,0*31\r
+!AIVDM,1,1,,B,13aFfOhP00PDQI0Me?Rus?vr2<7u,0*19\r
+!AIVDM,1,1,,A,15MqtA0P3JJe;WvGDB9P<Ovr2<3N,0*2B\r
+!AIVDM,1,1,,B,16:Cu=gP0j8:KWf<iAcowwvn0@Nc,0*5B\r
+!AIVDM,1,1,,A,16:=?u0P008RpULCp1D00?vqr8@S,0*28\r
+!AIVDM,1,1,,B,177=EV0PC<`:QUJ<hHMkQ2hp05Ip,0*4C\r
+!AIVDM,1,1,,A,168sgbfP008cdGJEODh@08<n0@<C,0*58\r
+!AIVDM,1,1,,A,16:I6bP01=8WvPhDU<ISsjrp0<4L,0*13\r
+!AIVDM,1,1,,A,16:=;WPP1>8cpMFB1GTLNwvp2<80,0*70\r
+!AIVDM,1,1,,A,16:=E<0P0s`LI:P=w7ft>wvp2D0e,0*70\r
+!AIVDM,1,1,,B,168uRb`P?w<tSF0l4Q@>43tp0UIp,0*62\r
+!AIVDM,1,1,,B,16:<qM001S8f@KdA:dgUhDVp0D4:,0*16\r
+!AIVDM,1,1,,B,16:A9f?0008g55rA2B;e7@4p2<2a,0*25\r
+!AIVDM,1,1,,B,15N:T3g000J6e8N?uoop<;:r00S8,0*14\r
+!AIVDM,1,1,,B,140UtlPP00PCmg<ME?jqI?vr25Ip,0*18\r
+!AIVDM,1,1,,B,13aIjD0P05PHHuhMg2R;`gvr2L0P,0*65\r
+!AIVDM,1,1,,B,15Mudb0P00ISG8:A8=><BOvp0<4I,0*1C\r
+!AIVDM,1,1,,A,15N7l2PP00IS`qJA728dGOvp00St,0*75\r
+!AIVDM,1,1,,A,15MwjJ0P01IT6bHA7FV0<Ovr08@m,0*5C\r
+!AIVDM,1,1,,A,23P:lP?00CPCS8PMFe>88VT@0UIL,0*57\r
+!AIVDM,1,1,,B,15NOV9P000ISvq8A8Hs;hl0r0h@q,0*5C\r
+!AIVDM,1,1,,A,15N0<MgP00qSIIDA7TO90Ovr20S8,0*3A\r
+!AIVDM,1,1,,A,15N0IbPP00IR:Q4A9v5J3wvp0@@v,0*46\r
+!AIVDM,1,1,,A,15NCF30000ISvcpA8K3839Tn05Ip,0*10\r
+!AIVDM,1,1,,B,15N0D?0P00IS`qdA79>5Kgvn08A0,0*22\r
+!AIVDM,1,1,,B,36:@ejPOh;8LRaL>2Sc@f26l0000,0*60\r
+!AIVDM,1,1,,A,13aGsCwP00PDs2hMdcp00?vrR5Ip,0*77\r
+!AIVDM,1,1,,A,133k?uPP0r0DG1>MDDk2lOvnR5Ip,0*39\r
+!AIVDM,1,1,,B,13aGt=gP00PDQH<Me>:@0?vr20Rk,0*12\r
+!AIVDM,1,1,,A,13aI<?OP00PGDwDMhRHP0?vr20RP,0*14\r
+!AIVDM,1,1,,A,14nF?V001C11TFPNjr`EQDLl05Ip,0*28\r
+!AIVDM,2,1,0,A,53orI>02B:qk=UM:2219TLE9A8thj2222222220i1P=535QdR54VAVC2,0*37\r
+!AIVDM,2,2,0,A,iH8888888888880,2*05\r
+!AIVDM,1,1,,B,13nEcr503j0JiM@Qjr`8JVjr05Ip,0*76\r
+!AIVDM,1,1,,A,16:9vA80008K=`tFC0LJLa2r2<4`,0*43\r
+!AIVDM,1,1,,B,13aGD;0P00PDPUlMdQM48wvp25Ip,0*15\r
+!AIVDM,1,1,,A,4028j>iuho;NKO0ARF@EEmG00<1I,0*5D\r
+!AIVDM,1,1,,A,339dNdgP1W0IIP8MdadImwvtR56C,0*37\r
+!AIVDM,1,1,,A,133n3aPP00PCgi8MGLh4A?vrR@A6,0*0B\r
+!AIVDM,1,1,,B,33uAT204h90mPj8Q1PrC=p<p0000,0*7D\r
+!AIVDM,1,1,,A,13uEdwW0000m;sDQ9Dw;UBNr2L0W,0*63\r
+!AIVDM,1,1,,A,13c7jV300206iEDMQ83R8j2r08A6,0*0B\r
+!AIVDM,1,1,,A,13u@OV0P000sOWTOlVgtSgvT00R5,0*70\r
+!AIVDM,1,1,,B,13AP96000QPrREbOvF?V<U6p2d1K,0*1A\r
+!AIVDM,1,1,,B,13aFdewP1IPHE3lMal<cN?vr2@A8,0*3D\r
+!AIVDM,1,1,,A,13aDoE0P000CaMjMHKI3kwvrP<3w,0*7A\r
+!AIVDM,1,1,,B,15>wd`002f0d3=dI2NoU846t08A6,0*38\r
+!AIVDM,1,1,,B,13aDC=hP00PD>K>Mdt1pKOvp25Ip,0*3B\r
+!AIVDM,1,1,,B,13u>=v?P011BgNPQtWh7M?vn05Ip,0*38\r
+!AIVDM,1,1,,A,13Egg`g000Omt:HHipT5JnPr05Ip,0*78\r
+!AIVDM,1,1,,A,13qGJF001t01mmfLBqfRWR2r00SI,0*28\r
+!AIVDM,1,1,,B,29NWv`0vi:PBa52MI>j4:k@t2@A9,0*4B\r
+!AIVDM,1,1,,A,13UhJ2001N1cwgTEedlTaS`r0<3@,0*2B\r
+!AIVDM,1,1,,A,15Mwr;P01Grdu;VG@8nM8:jr0@A8,0*46\r
+!AIVDM,1,1,,B,16::0O`0008Jpr`FCcO9W0dr08A3,0*06\r
+!AIVDM,1,1,,B,13aI9j8P00PHiVfNKFOP0?vr2<0k,0*77\r
+!AIVDM,1,1,,B,139a8jPP060eHTTN`lK92Ovr05Ip,0*43\r
+!AIVDM,1,1,,B,14eGr60001t>hObK>0V@T7Dr0<0?,0*4D\r
+!AIVDM,1,1,,A,13aIjkPP11PD=8HMd@gKCgvr2L7w,0*0F\r
+!AIVDM,1,1,,B,13uA9bPP000p;K`PaTG:h?vr08@p,0*6B\r
+!AIVDM,1,1,,A,13P7A3h0?w<tSF0l4Q@>4:Cp0PSW,0*62\r
+!AIVDM,1,1,,A,133eb9SP00PDBmPMD=Jb=wvt2D3j,0*3A\r
+!AIVDM,1,1,,B,13aDC0PP00PCo1nMEQTA6Ovp2@A;,0*69\r
+!AIVDM,1,1,,B,13P:W4?P0OOiAuBNVrv:b?vp28A;,0*63\r
+!AIVDM,1,1,,A,13aC21@P000CSkJMdD<h0?vp0<3w,0*6C\r
+!AIVDM,1,1,,A,16K2:Cg0019bquvCn=DC<6nt08A1,0*21\r
+!AIVDM,1,1,,A,13pr;hPP001EIPlO7<R:DOvt05Ip,0*6D\r
+!AIVDM,1,1,,A,139ec>?P00P`0<nNHmAhwgvlR<0s,0*7D\r
+!AIVDM,1,1,,B,139C>OwP00PWMqfNK5Lj`gvf28?s,0*11\r
+!AIVDM,1,1,,B,139S53Pv000Wtu0NI2b0JQhl00RV,0*47\r
+!AIVDM,1,1,,A,139`iS?P0wPVs=4NLRkULOvn0L2B,0*6A\r
+!AIVDM,1,1,,A,138=NP0000OVFLtDVfm4i7lp05Ip,0*0B\r
+!AIVDM,1,1,,B,13`va@0P00PHpHhNKnQ:Swvt28A;,0*6E\r
+!AIVDM,1,1,,A,E3EmL3fQ7dPh77c2VQ2a0000000@54jM;lo5P10@HPeP20,4*3F\r
+!AIVDM,1,1,,A,16K2>t0012awRGrDAbFLg:4t0H@eQN3vdk,0*18\r
+!AIVDM,1,1,,A,4h3OvjAuho;NMo=cf0Knevo00t3A,0*29\r
+!AIVDM,1,1,,B,14SFVl0uiVJeS@pG:uM4`Sdn2`@d,0*07\r
+!AIVDM,1,1,,A,34hMJJ5000PCuF0ME44V606r0000,0*0D\r
+!AIVDM,1,1,,A,15@`Ct5000RBNETJo@mcWp0p0<0o,0*20\r
+!AIVDM,1,1,,A,13aGEePP00PG9@@M`P0P0?vr28A<,0*6D\r
+!AIVDM,1,1,,A,34QsFJm000Otj4HNcVvewItp0000,0*2D\r
+!AIVDM,1,1,,B,1819<bhP01J5fWr?pVnt3Ovr0<0>,0*06\r
+!AIVDM,1,1,,A,138DGr0100awi?tDHSk00K>n0d3d,0*74\r
+!AIVDM,1,1,,B,16::06P0008JrkjFCTMLc@hr25Ip,0*12\r
+!AIVDM,1,1,,A,15DS6f002?9wTfHD5gF9>7Bp0`@p,0*6E\r
+!AIVDM,1,1,,A,16K8D8@000awHhnD<9nIhWDr2D48,0*13\r
+!AIVDM,1,1,,B,16::12PP?w<tSF0l4Q@>4?wv0PS1,0*7B\r
+!AIVDM,1,1,,A,368u=pPP@U8RwU0Cp:g;M`ln0000,0*34\r
+!AIVDM,1,1,,B,1777cp3P048:WDn<hDo5I?vp20Rk,0*29\r
+!AIVDM,1,1,,A,16:Qp<00008SRnBCrrflaj4p08@o,0*32\r
+!AIVDM,1,1,,A,16K2;MP000b1I40DGS:K14Br20Sd,0*71\r
+!AIVDM,1,1,,A,16KDT@P00jawrghDH?vEulfp00SU,0*62\r
+!AIVDM,1,1,,B,13M@@BS000Ow8:@Ncl@P06dr0HA<,0*75\r
+!AIVDM,1,1,,A,16T0WH0P1U9whKRD;g5mgDPj0`A3,0*1A\r
+!AIVDM,1,1,,A,16K8A;@02@:08ahDB`F1hQJn0PRc,0*4C\r
+!AIVDM,1,1,,B,35NMCbUP01ISqp<A8h;:L?vp0000,0*47\r
+!AIVDM,1,1,,B,15Msnd0P01ISvaVA3WUr9?vt00Rh,0*13\r
+!AIVDM,1,1,,A,15MpAPg000IRtMJA9H?rMqLt08A5,0*34\r
+!AIVDM,1,1,,B,15MrOCPP01IS6I2A7gS9pgvr0@A8,0*25\r
+!AIVDM,1,1,,A,18K2B`001sawmqhD8U1P008r0<<>,0*58\r
+!AIVDM,1,1,,B,139KHNPP00PUF3bN`C8QgOvp25Ip,0*55\r
+!AIVDM,1,1,,,13aGG=gP1GPIOMLN7o8;pgvr2L5=,0*5F\r
+!AIVDM,1,1,,,13aC3<rP00PHl3dN2kU8qgvt0D4w,0*10\r
+!AIVDM,1,1,,A,13aFfE@P01PK5?bMAvWIHwvrR5Ip,0*43\r
+!AIVDM,1,1,,B,13orI>0000PJ>jjQgU<MElrn0HA;,0*4C\r
+!AIVDM,1,1,,B,36:R;f11P18L=T>FCM3RND>n0000,0*24\r
+!AIVDM,1,1,,A,14eGc0h000o=4KtL=5ARiW:p08@e,0*5D\r
+!AIVDM,1,1,,B,3030p6O000o<WVtL99r2iP>n0000,0*5F\r
+!AIVDM,1,1,,B,14eH0=P01LG;`16L>BaJPpVr28@t,0*27\r
+!AIVDM,1,1,,A,14eGLl0P00G<MQDL=ng00?vp0@A4,0*26\r
+!AIVDM,2,1,8,A,54eGDVh00000=WSWKR058=@T>1@4LiF22222220l2@?466fU?:15BiH45;lm,0*72\r
+!AIVDM,2,2,8,A,DTQFKlQE5DR,2*0B\r
+!AIVDM,1,1,,,13mCIk?P140sFrfUvCfGCgvp0@A8,0*78\r
+!AIVDM,1,1,,A,13cbA`001V0di7DI8>>KmaLn0<2j,0*6D\r
+!AIVDM,1,1,,A,14QIG<54j0KF@<l:L8Ca5o:n0P00,0*04\r
+!AIVDM,1,1,,A,402M4L@000Htt12>B0VPVH700`MD,0*14\r
+!AIVDM,1,1,,A,13oJ2r000011joRVP0ViITD00400,0*72\r
+!AIVDM,1,1,,B,13uC=g0P141D0u:Qw@qkhOvr00Rr,0*5B\r
+!AIVDM,1,1,,B,13bW`0002;0@O:DMTGJ;E9@p0<7A,0*13\r
+!AIVDM,1,1,,A,13aGE=PP00PD;cPMdhNV7wvr20Sp,0*5A\r
+!AIVDM,1,1,,B,13P93;gP@7OiDJFNW61U1W:l00Sg,0*27\r
+!AIVDM,1,1,,B,13aJFgOP00PFe92Madmh0?vr2@A@,0*7F\r
+!AIVDM,1,1,,B,13aDqu@P00PD:u@Mcw`0AOvrR8A?,0*1A\r
+!AIVDM,1,1,,A,13HWh57P0GP2MAPLrP0K0?vp2<10,0*5B\r
+!AIVDM,1,1,,A,13aFf;?P00PCrrVMDg84sOvr28A@,0*25\r
+!AIVDM,1,1,,B,1CR2`n8P001d>:HEeUIQ?gwf0P00,0*0C\r
+!AIVDM,1,1,,B,16:BboP0008VA>lD`iDh04nr28A:,0*42\r
+!AIVDM,1,1,,A,14`aD:3000`Jq6tFCo5:8J`l0<55,0*51\r
+!AIVDM,1,1,,B,369GGV0P@K8LPIh>1R2:ipFn0000,0*45\r
+!AIVDM,1,1,,,13P<:=PP04090bBMelookwvp20ST,0*48\r
+!AIVDM,1,1,,A,13HWr`?P0LP3DflLwKIISgvp25Ip,0*6B\r
+!AIVDM,1,1,,A,13u:=J00000hNT4Q1g;ceDtt00SB,0*05\r
+!AIVDM,2,1,4,A,56K2<nh00000`C;SC:1<PTp4pv0l59F22222220l1pG3640Ht7gRT86Clp888888,0*5C\r
+!AIVDM,2,2,4,A,8888880,2*20\r
+!AIVDM,1,1,,A,16K8CvP02qawjK4DAi2I;oFr0D4Q,0*21\r
+!AIVDM,1,1,,B,13aFeePP0sPGRcjMgej6QOvr25Ip,0*38\r
+!AIVDM,1,1,,A,239VBhP0000CSwlMH:qSG4rf00S5,0*25\r
+!AIVDM,1,1,,A,11Gmu?OP000CshrMdl600?vp0HAA,0*71\r
+!AIVDM,1,1,,A,169q19PP008ViAFDaUs=hgvspD2T,0*07\r
+!AIVDM,1,1,,A,139L2UP7@6PTs3DNkQC=Tr5p2PSh,0*17\r
+!AIVDM,1,1,,A,13aQOf0000:l3k1jIfP8V4Lr0D16,0*00\r
+!AIVDM,1,1,,B,13m=V`000BwnMSbPddTTeTJr20SS,0*0D\r
+!AIVDM,1,1,,B,33aDqihP00PCJb`McpfTv?vr2001,0*59\r
+!AIVDM,1,1,,B,139ItT0P00PeA@RN`9E0H?vr2<3J,0*17\r
+!AIVDM,1,1,,A,181:KDh02=OUBQbDS39C`jtl00Rj,0*63\r
+!AIVDM,1,1,,A,E>jAUmh`:Ra:7h22W4PP0000000@0@d?;7<9P10@HPeP20,4*21\r
+!AIVDM,1,1,,B,133rSRPP00PClt>MFjf@0?vr25Ip,0*20\r
+!AIVDM,1,1,,A,13NPn4001h06j`RMKGQEK44r0d2>,0*53\r
+!AIVDM,1,1,,A,13aI:K0P00PCmGlMcVIMEOvr2<3w,0*70\r
+!AIVDM,1,1,,A,143u`V0001RBLjNJo?`G60Jn00S0,0*56\r
+!AIVDM,1,1,,B,13b:A6002HP7=6>M@8iptW>t0HAB,0*1E\r
+!AIVDM,1,1,,B,13ag:f001s0r9alOfV208@4t00RI,0*17\r
+!AIVDM,1,1,,,33P<f4CP@AP8;HfMjCt7tR>t0180,0*74\r
+!AIVDM,1,1,,B,15Mt3l0P00ISNLnF>h;:=wvt0@AA,0*78\r
+!AIVDM,1,1,,A,133u9SPP0gPD8pvME22lmOvt2@AC,0*41\r
+!AIVDM,1,1,,B,13@nptOP0011Ip>No8:Ju?vp28@;,0*41\r
+!AIVDM,1,1,,B,34SNuv0OiT0Ct2RMdUvjvRRr00oi,0*7B\r
+!AIVDM,1,1,,B,13TBuT0P00<tSF0l4Q@>4?wp073h,0*3A\r
+!AIVDM,1,1,,A,14TG?R001gOAqBpFHEmWBUfn0p@V,0*7E\r
+!AIVDM,1,1,,B,13Ih@e0023OBu7`FJngew02n0@A=,0*7A\r
+!AIVDM,1,1,,A,13oKt00P4g0rKopUw@bb;Ovt0D0P,0*61\r
+!AIVDM,1,1,,A,402Fh`1uho;NM0SLE0I6SqQ005Hd,0*6A\r
+!AIVDM,1,1,,A,16K2D=0002aw>WNDBNVcLIRt2<4L,0*3A\r
+!AIVDM,1,1,,A,13aB:GPP00PDHSJMcqwtPwwj2D92,0*24\r
+!AIVDM,1,1,,B,15MAKuP01EJ6WMl?u;2P?0:t08AB,0*54\r
+!AIVDM,1,1,,B,169TJV00008cl7`EOp3P06Br0@@t,0*58\r
+!AIVDM,1,1,,A,168sg<gP00`cdOPEODo@02dT00S:,0*44\r
+!AIVDM,1,1,,A,369AQi10018T9:0FmF;MsWvrP000,0*67\r
+!AIVDM,1,1,,A,16:>>M8P018d:s6Au4GCJ?vl0@@l,0*2B\r
+!AIVDM,1,1,,A,16::@N0P1b8i00<AkJwMkrtl00T0,0*4E\r
+!AIVDM,1,1,,A,16:Lwd001?8d0@NAmf8=Rbvp0@@n,0*0F\r
+!AIVDM,1,1,,B,139I@v0P000eAMnN`8aP0?vp0<3:,0*1D\r
+!AIVDM,1,1,,B,169G4TP00087AW0==CF3b2pp0H@S,0*78\r
+!AIVDM,1,1,,B,C6:fQe@0021vEpSBPJ0<sweRjb:ThL>>b2L6@bC1QeUhS3d:4707,0*07\r
+!AIVDM,1,1,,B,168uq=000H87D9r==cKc5`bp00T4,0*37\r
+!AIVDM,1,1,,B,B6:W;Jh0>j1lTw3CBafM?weSQP06,0*3E\r
+!AIVDM,1,1,,A,169rE;00008dA2>AswUcj4KF2D:I,0*20\r
+!AIVDM,1,1,,B,16:BDa00?w<tSF0l4Q@>48d00`@d,0*01\r
+!AIVDM,1,1,,B,15NOtR3006rel5FG:BVsoa@r0@@s,0*6E\r
+!AIVDM,1,1,,B,16:3p210058gbRPA7sK`OBjp2h@e,0*14\r
+!AIVDM,1,1,,B,13aJFs?P00PHN6FM`0S00?vr25Ip,0*3B\r
+!AIVDM,1,1,,B,177No5001c`idPHA0vJck9Vp0H@i,0*2C\r
+!AIVDM,2,1,9,A,569>:4h1olCEA0L`000<4pN1<QDp00000000001510C3300003F2@CAC,0*79\r
+!AIVDM,2,2,9,A,P00000000000008,2*45\r
+!AIVDM,1,1,,A,16:Qe;?P008LHAT=uvHrNwvqr<1d,0*73\r
+!AIVDM,1,1,,A,16:BRN?P00`eq;`A89e8EOvr28@w,0*2B\r
+!AIVDM,1,1,,B,36:CeqPOhQ89L9P<o=?5I:@r00wA,0*5C\r
+!AIVDM,2,1,0,A,538=NP02<FuOD8iW:204hLD<U85>0`EB2222220`3@R884lb?650DRAPOU0CQiD`,0*5C\r
+!AIVDM,2,2,0,A,8888880,2*24\r
+!AIVDM,1,1,,B,13U=Ob00001d8U<EeJ4007Nn00Rq,0*0C\r
+!AIVDM,1,1,,B,13RBK000001d=1HEebm00ENp0d3D,0*2A\r
+!AIVDM,1,1,,B,13aGEuOP1CPFlJ6MafaShwvrR8AF,0*54\r
+!AIVDM,1,1,,A,233WuF0OiOPCieNMEtK7wnLr0<7:,0*5E\r
+!AIVDM,1,1,,B,13a3u65P5pPH1;`N>ADE2Ovr2<0>,0*2D\r
+!AIVDM,1,1,,A,13uCd3?0011C030Qu=FhKl<t0D0J,0*5C\r
+!AIVDM,1,1,,B,133oq>gP00PCrV6MDrsUTgvr25Ip,0*56\r
+!AIVDM,1,1,,B,1INS2Dh0001d3i`EeglA7D1v0000,0*5F\r
+!AIVDM,1,1,,A,13aBNBh000PChQ@Md=<sG6HrPt7n,0*54\r
+!AIVDM,1,1,,B,13bCfT3vhlP?OrDMilhHGndt05Ip,0*0E\r
+!AIVDM,1,1,,B,33`e>rhP1A0ICirMdId2BgvpP2oS,0*4E\r
+!AIVDM,1,1,,B,14h?ke0000PHRapHjMw3B4Vn2<0K,0*32\r
+!AIVDM,1,1,,A,133uLdP000PCs8lMF0HN42jpP8AG,0*51\r
+!AIVDM,1,1,,A,8000000Iv?>dq4O694uArSFKW9sbV>o9FOcUaDk6Dh,4*43\r
+!AIVDM,1,1,,B,13P:VTP000wjALPNTcv7nc<p05Ip,0*2A\r
+!AIVDM,1,1,,A,13aGFP0P00PD3?vMgUTh0?vr2<75,0*5E\r
+!AIVDM,1,1,,A,13aEQ`@P1:PKFQlMCWai9wvr2HAB,0*28\r
+!AIVDM,1,1,,A,15NJIpPP0KJeHunGBjUs=Ovt28AD,0*2E\r
+!AIVDM,1,1,,A,13aC1uhP000KL:FMC7nP0?vp0D0C,0*38\r
+!AIVDM,1,1,,,33m=jF0P@:0qeelUv;VUa;6r01;i,0*7A\r
+!AIVDM,1,1,,B,13`jcmhP0:0CU`lMd1pJROvop0ST,0*5A\r
+!AIVDM,1,1,,B,138;Ej0020ODL2tE??k=VJnr0`AG,0*4D\r
+!AIVDM,1,1,,A,E>jAqH722W4Ph17QPW0h2ab94Q7P0BGD;7EJ@10@HSvP14P,2*38\r
+!AIVDM,1,1,,A,102;2L?P00P8MC@M:Msqfgvt28AH,0*21\r
+!AIVDM,1,1,,A,133fc20P0swg8``Np0OVigvr28AH,0*35\r
+!AIVDM,1,1,,B,13`lE6002S0@NU`N1<jWT64t0<5C,0*14\r
+!AIVDM,1,1,,A,83aC21Pj2d<dtN<tNAhPt?`05100,0*62\r
+!AIVDM,1,1,,A,33aC220P000CtU>Md<Mh0?vpP001,0*50\r
+!AIVDM,1,1,,A,15Mwuq0P00ISrCdA5<;9`Ovr0@A9,0*5A\r
+!AIVDM,1,1,,A,15N8Sg0P00ITIPnA:bqs0?vt20RM,0*61\r
+!AIVDM,1,1,,A,15N:fcPP00ISb@`A6dLckwvr08A;,0*5D\r
+!AIVDM,1,1,,B,34R1tn0008`VBCtDVm0VuFlp030A,0*54\r
+!AIVDM,1,1,,B,33u=L?POhT0n=M4Pw``c5prp013@,0*56\r
+!AIVDM,1,1,,A,802R5Ph0Bk?M4@GP<bGaOwwwwwwwwwwwwk7Owwwwwwwwwwwwwwwwwwwwwww,2*1A\r
+!AIVDM,1,1,,B,13uCnh<0000nldFQ1gfG6Jtr08A?,0*21\r
+!AIVDM,1,1,,B,13aI:HOP11PG=o2MaoeBVOvtR<4h,0*58\r
+!AIVDM,1,1,,A,16K2>f0001aw>N4DBM>s09Rt28A@,0*71\r
+!AIVDM,1,1,,A,A04757QAv0agH2JdGw@`6OlN14h6wKt3IA3v;04A,0*0A\r
+!AIVDM,1,1,,A,16KJd?h001awE:fDB=DHWA0t2<4p,0*02\r
+!AIVDM,1,1,,A,13aGsewP?w<tSF0l4Q@>4?wv0d7<,0*34\r
+!AIVDM,1,1,,B,833imEPj2d<dtf<MLhhhIga@7p00,0*67\r
+!AIVDM,1,1,,A,133w2@gP00PD=LFME9K9PwvtR@AK,0*78\r
+!AIVDM,1,1,,A,13u=g<0P00PsOn4Ol`>WWwvn00Sv,0*56\r
+!AIVDM,1,1,,A,13aFf2wP1VPHqiPMcwNppgvr2HAK,0*43\r
+!AIVDM,1,1,,B,13oWmf0000PKJptQLUG07aRn05Ip,0*28\r
+!AIVDM,1,1,,B,13M@I0h000Oj@J@NTMcbL2br0d14,0*0D\r
+!AIVDM,1,1,,B,13aIgsPP00PDpi4MduMP0?vr20SU,0*6C\r
+!AIVDM,1,1,,A,168sw10P008VBtbDVqs8q?vspD3?,0*2D\r
+!AIVDM,1,1,,B,139f>90P00Pe?:hN`OoP0?vr2KwS,0*4F\r
+!AIVDM,1,1,,A,13aC4CPP@fPCa?RMdQ0DBk>jP8AL,0*5C\r
+!AIVDM,1,1,,A,13eOQR002Ao;ICdL6J00<h@t0<3K,0*60\r
+!AIVDM,1,1,,A,13nAml00000JAOHQg`si@@Rt0<0s,0*13\r
+!AIVDM,1,1,,A,168tI2?P0V8RQA@CpaKrQOvr0@A1,0*54\r
+!AIVDM,1,1,,A,15NJaS0P00G@0j0K=3d:Owvr08AJ,0*3D\r
+!AIVDM,1,1,,B,13upB`02AhPjGq:Ps4CshaHt05Ip,0*33\r
+!AIVDM,1,1,,B,13bhub001b0np;HPWRg=Arbp0PSJ,0*63\r
+!AIVDM,1,1,,A,13am5`0000wh52@NT0448H:t00RO,0*2C\r
+!AIVDM,1,1,,A,10rbi<wP00PCfq`MDiQ00?vr2HAM,0*5D\r
+!AIVDM,1,1,,A,16LhwP?000b0I?RD>nu791tv08AE,0*0B\r
+!AIVDM,1,1,,A,16K2DR@001b0gv:DHKE8N5Dt2<4g,0*6A\r
+!AIVDM,1,1,,B,133fopgP1=PCTILMIIarowvr20ST,0*53\r
+!AIVDM,1,1,,A,13c7G@?P000D;fDMd2P5I?vn0@AN,0*1A\r
+!AIVDM,1,1,,B,38u<a<?PA=2>P43fu@SHNnFt0P00,0*48\r
+!AIVDM,1,1,,A,E>jAqHFR2W4Ph17QPW0h10Q7a0000Atr;7@hh10@HSvP10,4*4E\r
+!AIVDM,1,1,,A,833qF<Pj2d=d<<fMN14hQ?a@8Lt0,0*57\r
+!AIVDM,1,1,,2,13aFdn@P0VPA6bFM?ORp9Ovr2@AP,0*01\r
+!AIVDM,1,1,,B,15NFUFgP06ISE=<F:saQI?vr00SL,0*07\r
+!AIVDM,1,1,,B,13M@ENh000OdmjrLl`GiO06l0D0O,0*67\r
+!AIVDM,1,1,,A,133hn3gP0sPD3ptMDh5bfOvr28AP,0*75\r
+!AIVDM,1,1,,B,16S`1qP001a3Ma@EG?Q<vpPr05Ip,0*46\r
+!AIVDM,1,1,,A,13`qM>501POe0S>Lkih8QFhr05Ip,0*7A\r
+!AIVDM,1,1,,A,15NCFr0010Je<P@GA9N2F1n00@AO,0*0D\r
+!AIVDM,1,1,,A,102=VjjP?w<tSF0l4Q@>4?wv0hAB,0*2D\r
+!AIVDM,1,1,,A,13idd63P000>b`LMGpMo4gwF0<0f,0*38\r
+!AIVDM,1,1,,,13aIiuPP00PI`dtN8LS00?vr25Ip,0*54\r
+!AIVDM,1,1,,B,13ieVd3v0vP<Uf<MJPN5=3dr2<1Q,0*23\r
+!AIVDM,1,1,,B,139Jup0P0110I2VNhI6Vjgvj00T1,0*67\r
+!AIVDM,1,1,,B,169G2<8P008FC<j=G9f5tk:d00Rv,0*24\r
+!AIVDM,1,1,,A,16:0;t002?`l54hB64J=w;<n00SR,0*24\r
+!AIVDM,1,1,,B,403tDGl47wk?1<tSF0l4Q@000t5T,0*19\r
+!AIVDM,1,1,,B,16:D1j?P0087G8h==aR00?vp0@9=,0*0E\r
+!AIVDM,1,1,,B,16:fesOP00`7V0p=;<QP0?vp0<00,0*08\r
+!AIVDM,1,1,,B,33mFG;500011iVVVOu4JPi?T0000,0*5E\r
+!AIVDM,1,1,,B,13aI;60P00PCwbfMDdUS<wvr25Ip,0*18\r
+!AIVDM,1,1,,A,143KbH?P?w<tSF0l4Q@>4?v00l0c,0*0E\r
+!AIVDM,1,1,,A,33m>gB500011je`VOwKLG74n0000,0*79\r
+!AIVDM,1,1,,A,16973s000f`dAuDAvUwKdqRr20RL,0*3A\r
+!AIVDM,1,1,,B,169@M@000087av`=;mu006Dp00S9,0*58\r
+!AIVDM,1,1,,B,13aD00PP02PFg?`Mb6BANgvr2@AQ,0*7B\r
+!AIVDM,1,1,,A,13P<NoP00006Pg6MGgkpIENt00SL,0*51\r
+!AIVDM,1,1,,B,4h2E3MAuho;NMPDAk4MdjqW00<>n,0*78\r
+!AIVDM,2,1,9,B,53ddSl02AlroTP7;;?U9B1@5<l4r22222222220l1p@670I10?PTQCADR0EQ,0*1A\r
+!AIVDM,2,2,9,B,C`888888880,2*0D\r
+!AIVDM,1,1,,A,16Kcbm001bawg7dD;uFU`4Jl0hAL,0*49\r
+!AIVDM,1,1,,A,13u==?gP000sihHOnqgJFgvt2@AR,0*6C\r
+!AIVDM,1,1,,A,15NBeigP00IOs1LBPHOpKOvt25Ip,0*40\r
+!AIVDM,1,1,,B,14RBg400000g:vnHsaRkQ5Jh0<0l,0*63\r
+!AIVDM,1,1,,A,15Mw64PP00IRF7lA8POdBgvr00SB,0*2E\r
+!AIVDM,1,1,,B,15ECw`002GPMF2HNcNnSeRvp05Ip,0*37\r
+!AIVDM,1,1,,A,13@08T022HPJ5DTNevIalont08AM,0*17\r
+!AIVDM,1,1,,B,13aGClPP00PJaqbNLBMWDwvrR5Ip,0*75\r
+!AIVDM,1,1,,B,23aFfl0P00PCR>NMEBB00?vr20S>,0*04\r
+!AIVDM,1,1,,A,13aEO0EP1SPF74:Mf1cpcwvr25Ip,0*00\r
+!AIVDM,1,1,,A,133g>9PP000CS60MEBCao?vt25Ip,0*55\r
+!AIVDM,1,1,,A,16SgAOPP?w<tSF0l4Q@>4?wqpUIp,0*58\r
+!AIVDM,1,1,,A,15Muc1?P0wIv5M<FDAfeI?vr00SH,0*32\r
+!AIVDM,1,1,,B,13`qdn000D11L5PNncn9uRDr0<0U,0*0D\r
+!AIVDM,1,1,,A,33AIc25001Q1DFJNn?TCaiVr0000,0*77\r
+!AIVDM,1,1,,A,15NE7mPP4dJe3RnG@6TMr?vv0@AR,0*05\r
+!AIVDM,1,1,,A,13aGDnvP00PD<GJMdIli7?v>R5Ip,0*50\r
+!AIVDM,1,1,,A,16KPj:@02?b0<5JDBis1nANr0D4=,0*45\r
+!AIVDM,1,1,,A,16K2<aP000awHOfD<8rW2G>t00S`,0*7B\r
+!AIVDM,1,1,,A,16K8Dj?001awCjnDB<6JlaNt25Ip,0*6C\r
+!AIVDM,1,1,,A,13P<Pu8001OhBcHNtO;:qaFp08AS,0*62\r
+!AIVDM,1,1,,A,B3@oAK@07P<2CP8A4ALV?wfUkP06,0*28\r
+!AIVDM,1,1,,B,13aI:p?P00PG7VtM`p=@0?vr2HAS,0*6B\r
+!AIVDM,1,1,,B,33ctMd501q0gvJ@HRvHai2Dn0000,0*41\r
+!AIVDM,1,1,,A,18Itu8002VGFl?RCc6jD63>t0D04,0*3C\r
+!AIVDM,1,1,,A,13aDoVPP00PDdWNMdl6P0?vrR8AT,0*06\r
+!AIVDM,1,1,,A,144aon001G1EppJO<rrSc2pr00T?,0*27\r
+!AIVDM,1,1,,B,15N;0>0018Jlld0GWdm<NJ2r0D0;,0*53\r
+!AIVDM,1,1,,A,15Mj3Cg000o?sJtKLtGK6Ent0<0B,0*57\r
+!AIVDM,1,1,,2,133o:gPP00P@j0VM>rIP0?vtR0SD,0*2A\r
+!AIVDM,1,1,,B,33`g<v51@00GqUVNR?@:4VPrR000,0*62\r
+!AIVDM,2,1,3,A,53aGsvD000010;SGKR1`DDPtpB22222222222211183136HCN2US2AC0,0*78\r
+!AIVDM,2,2,3,A,CQ8888888888880,2*35\r
+!AIVDM,1,1,,,13M@>s001N07Q6`MeiB0gPfr0`AQ,0*0A\r
+!AIVDM,2,1,2,A,533fCV02;Lt<u8dr2205@h4q@U>222222222220Q8P<;;4n>05A3mQCPVH5lQ@jp,0*03\r
+!AIVDM,2,2,2,A,8888880,2*26\r
+!AIVDM,1,1,,B,33aBN>h01V0HWvlMal?H4FLtPP00,0*01\r
+!AIVDM,1,1,,A,402M3wQuho;NM0i>UtRA<nA000S:,0*1D\r
+!AIVDM,1,1,,B,13ckMQ50000CwwdMd<RWe8pr08AT,0*73\r
+!AIVDM,1,1,,A,13I;QJP00100Qu<LD:ar<RRt20S`,0*6C\r
+!AIVDM,1,1,,B,133maNg0000CSqPMEBoDR2Nr0<<P,0*5D\r
+!AIVDM,1,1,,B,139bhq3P00PWpcDNlbdlW?vn20Rs,0*4D\r
+!AIVDM,1,1,,A,33pr<nSP@w12lSfNUV6oJUpn00sh,0*16\r
+!AIVDM,1,1,,A,A@4<g>i:7Tcip2KBGuP`;gvF040h01h04EOw8h0L,0*09\r
+!AIVDM,1,1,,A,13@4eR001vP7p;PMHseod66p05Ip,0*08\r
+!AIVDM,1,1,,A,14eG<3PP00L>e>PK=Ole7?wd05Ip,0*60\r
+!AIVDM,1,1,,A,133teKPP00PD=HDMDw0apwvtR0Rj,0*18\r
+!AIVDM,1,1,,A,15MiRi?P00G?SUlK3uIqmgvv08AS,0*65\r
+!AIVDM,1,1,,B,19NS9J@01bOCB:tENuw6TU:n05Ip,0*36\r
+!AIVDM,1,1,,A,13P;GbP02tOASHJFTuVo4Ebt0<18,0*2F\r
+!AIVDM,1,1,,B,4030pC1uho;NMt>s=BK?VOo00<0B,0*60\r
+!AIVDM,1,1,,A,1>qc9ww000OkfS@MMI5004Rp0D0B,0*0F\r
+!AIVDM,1,1,,B,402=a@Auho;NL069FJM@RGQ00<1w,0*05\r
+!AIVDM,1,1,,A,15NHOl?001r0nF<F6kOM>3ht00Ra,0*64\r
+!AIVDM,1,1,,B,4h3Ovn1uho;NMr58rt?slsO02@AU,0*55\r
+!AIVDM,1,1,,A,13nET60000OreK@RKT8<b:Hl00S?,0*67\r
+!AIVDM,1,1,,B,15VdVb001OOW7qDOK45UI4Dr0H@S,0*33\r
+!AIVDM,2,1,3,A,533mIq400000uC?CO<0HTpU@u80000000000001@<P?56tn=N04Sm51DQ0C@,0*1F\r
+!AIVDM,2,2,3,A,00000000000,2*27\r
+!AIVDM,1,1,,B,403OweAuho;NMGWDA>BdK9Q005Ip,0*66\r
+!AIVDM,1,1,,A,33pr?KSOhI12jFbNUO3Pl0rt0000,0*4D\r
+!AIVDM,1,1,,A,1341>R00000CnFTMFL9II:Ft08A`,0*1D\r
+!AIVDM,1,1,,B,402V?FAuho;NNRI?3RIQfJ700@AU,0*26\r
+!AIVDM,1,1,,B,13n@Kv0000Pi7>dRAvNf1nBt25Ip,0*7A\r
+!AIVDM,1,1,,A,181:KE002Q0csI0HnlrdfJ8n0@AV,0*51\r
+!AIVDM,1,1,,B,19NWuDh038qkLKH;kKB0@h>j0@?c,0*3A\r
+!AIVDM,1,1,,B,33aC250P000D:L@MdNfP0?vp003A,0*08\r
+!AIVDM,1,1,,B,15MOK`7P00G?jsHKADUaJwvt08AU,0*1F\r
+!AIVDM,1,1,,A,169<vSPP008JqurFClnpagvr0@AR,0*13\r
+!AIVDM,1,1,,A,16K2;MhP02awDG>DB:vHiwvr20SBsE3vH5,0*3A\r
+!AIVDM,1,1,,B,13P7w2P41:OMDkpC?o4725lr0@A2,0*3D\r
+!AIVDM,1,1,,A,15NNd9<0?wqOuM6BR34>49Rt0<0=,0*08\r
+!AIVDM,1,1,,A,14eGG3PP00L>eJ2K=Ts@ngvr05Ip,0*3A\r
+!AIVDM,1,1,,A,369quRSOh?8S:LrCpNO`cpJt00w@,0*20\r
+!AIVDM,1,1,,B,377nP;OP198:Sqt<hlO5M?vt21ei,0*6D\r
+!AIVDM,1,1,,A,168tHBP0008R`bhCpHl0K`KqpHA?,0*77\r
+!AIVDM,1,1,,A,16:;LLP000`RLddD4wFMKJpr2<3g,0*6B\r
+!AIVDM,1,1,,B,169ULC0000`LPH@>16=kd9Dt0@AA,0*47\r
+!AIVDM,1,1,,B,16:=IJ001T8fKu>@@0vA;Plr28A8,0*1C\r
+!AIVDM,1,1,,B,169CtW80008ffHTA:ni;7WRr2<6D,0*2C\r
+!AIVDM,1,1,,B,16:BE780008eq<lA89pIlr4r0@A?,0*73\r
+!AIVDM,1,1,,B,14RdOP0PBj0?gHpMJmib9p6t0D82,0*05\r
+!AIVDM,1,1,,A,339QDePP@@0dotbOG1r04b4r00v0,0*6F\r
+!AIVDM,1,1,,B,15NCj@0P00IT1n8A8MMIJOvt20Sf,0*1C\r
+!AIVDM,1,1,,A,15NLQN?P00qS>4pA8VWK:wvt2D4?,0*09\r
+!AIVDM,1,1,,B,15MullPP00ISI1DA81;cO?vt0@AN,0*22\r
+!AIVDM,1,1,,B,15Mu6aPP00IR<KjA9?jH`wvr00Rf,0*0A\r
+!AIVDM,1,1,,A,15N1bLPP01IShWrA4J470wvr0HAP,0*33\r
+!AIVDM,1,1,,B,15NBATP001ISEGfA0j@t=QHt08AQ,0*40\r
+!AIVDM,1,1,,B,15N0Gr0P05ISeprA5DfdW?vr00Sb,0*1D\r
+!AIVDM,1,1,,B,15Mv7M0P00IRen>A9?VL4Ovr08AT,0*11\r
+!AIVDM,1,1,,A,15Ms`D0P01IR@DnA8T>6Tgvr0`AT,0*7F\r
+!AIVDM,1,1,,B,139h5jgP00PCmpvMEl8<MwvrRD3w,0*6A\r
+!AIVDM,1,1,,B,4h2E3N1uho;NMP@jepMeS1W00L49,0*3B\r
+!AIVDM,1,1,,A,13Ekdmg000PUn2BI@>v243ft00RN,0*35\r
+!AIVDM,1,1,,A,15Mt3MPP01ISQl0F>MPK6?vt0L0M,0*57\r
+!AIVDM,1,1,,B,33bn`t1vh00SqthNmtP0`8pp0000,0*43\r
+!AIVDM,1,1,,A,13ofGd000=NrVQD@56q8Sq@t05Ip,0*5C\r
+!AIVDM,1,1,,A,16:@CC`0008WCg4DTvhe?jip00SE,0*45\r
+!AIVDM,1,1,,A,13aGCwPP11PE<K<MVl;WKOvLRHAc,0*75\r
+!AIVDM,1,1,,A,15MnnH0P02Je6ffGBwBrr?vt2@AW,0*35\r
+!AIVDM,1,1,,B,15N9sFPP00JrjpNH@03Lwwvt2@A<,0*45\r
+!AIVDM,1,1,,B,2341R400010CTjJMHAEINBht05Ip,0*25\r
+!AIVDM,1,1,,B,139evQ?P00PW@vbN`ItMtgvr2L1o,0*09\r
+!AIVDM,1,1,,B,133loNPP00PD<sPMe4V:O?vp0D9u,0*6C\r
+!AIVDM,1,1,,B,53P<jbDGvaHS8HE3N21@4pT61B2222222222221J3h44440Ht0000000000000000000000,2*38\r
+!AIVDM,1,1,,B,16SWumPP@1a3Qk0ELnkscr0sr@AS,0*1A\r
+!AIVDM,1,1,,B,403t:Biuho;NM`K<2`FCEC7008AU,0*60\r
+!AIVDM,1,1,,A,24SaQh500F0Cu3NMEri:47vr00S8,0*66\r
+!AIVDM,1,1,,A,33mO7f50000JBiFQgasqA2vqP000,0*06\r
+!AIVDM,1,1,,A,139a6rgP00Pe>;jN`TCbKOvp08Ac,0*26\r
+!AIVDM,1,1,,B,13aFf0hP1UPHkarMcBQGqOvrR0SR,0*49\r
+!AIVDM,1,1,,B,13mm=j001cGHv`jC`t9s;90r05Ip,0*30\r
+!AIVDM,1,1,,A,168sVE?0008K0WtFCQk;fqDt0<5T,0*58\r
+!AIVDM,1,1,,B,13v0mP00000mGnJQ1CH;A6Pt08AK,0*63\r
+!AIVDM,1,1,,A,170gfP?P000mRTbQ;b6P0?vr0@AP,0*13\r
+!AIVDM,1,1,,B,13tsg`00010nJRnQ0OoV1`Vp08AW,0*70\r
+!AIVDM,1,1,,A,33tssF05@hPn=NpQ0KcBm2<r2000,0*1C\r
+!AIVDM,1,1,,A,13aDom0P0nPD?B:MDMqKG?vr2000,0*6E\r
+!AIVDM,2,1,8,A,54eMpV7AlLe1Hti`000dTpMDd00000000000000N1pS55vvf0@@PFH4S,0*0B\r
+!AIVDM,2,2,8,A,hQDU4h000000000,2*58\r
+!AIVDM,1,1,,A,16LPE60000aw>J6D<V@C06Dt00Sv,0*24\r
+!AIVDM,1,1,,A,404757Quho;NM9wdLJD;;HG00<4U,0*02\r
+!AIVDM,1,1,,A,404757iuho;NM9wLcrDAl>700@AV,0*24\r
+!AIVDM,1,1,,B,13aENO@P15PCpbnMEt1=COvpR5Ip,0*5D\r
+!AIVDM,1,1,,A,4047581uho;NM:0IUhDHEQW00<3T,0*3D\r
+!AIVDM,1,1,,B,133gVGgP00PD69NME<LJcwvv2@Ae,0*70\r
+!AIVDM,1,1,,A,176wWo002K0MsNdNlIq:5H4t05Ip,0*25\r
+!AIVDM,1,1,,B,133Vrt?0000=KcvMCvtr:Svv05Ip,0*33\r
+!AIVDM,1,1,,B,13@ngh@0000qh3`P4FFsQSdt08AR,0*12\r
+!AIVDM,1,1,,B,4025;PQuho;NMPLV`NMb5hW00@AU,0*43\r
+!AIVDM,1,1,,B,139cmmgP0lPGK3jMabOTo?vs28Af,0*3E\r
+!AIVDM,1,1,,B,404<g?1uho;NMa1@M>ED5Jw008A`,0*79\r
+!AIVDM,1,1,,A,133tGtgP0p0DNL6MDM@JHOvv2D5s,0*1E\r
+!AIVDM,1,1,,A,13l;wJ0wB70RG=4HfoDQE18n0UIp,0*7A\r
+!AIVDM,1,1,,A,B69Gk0008Qtp:3RlN1<DWwf61P06,0*3D\r
+!AIVDM,1,1,,B,13P;Qe@PC2wrgAFM2SL`sG:r0HAR,0*6B\r
+!AIVDM,1,1,,A,14eG?>PP00JBiT2HhSusF?vt05Ip,0*35\r
+!AIVDM,1,1,,A,13Fsg<00002=udofr:n8tVvt0D0m,0*4A\r
+!AIVDM,1,1,,B,139etT0P00PGqeLMaQ7IwwvvR5Ip,0*29\r
+!AIVDM,1,1,,A,13aGG>QP0tPCBClMektE1?vr2<:C,0*4F\r
+!AIVDM,1,1,,A,13prH@P0011ELBDO8Jn004>r00Rp,0*78\r
+!AIVDM,1,1,,B,169rnEg0008KA<2FB=;s9SVt2D5?,0*6C\r
+!AIVDM,1,1,,B,139dL2UP0lPK9JDMBVBHT?vr28Ag,0*61\r
+!AIVDM,1,1,,A,139LF?0P0>0W8PbNavSs:?vt20Rn,0*6B\r
+!AIVDM,1,1,,A,13u=IFgP000nrL4Q1kuoU?vr05Ip,0*43\r
+!AIVDM,1,1,,B,13@npowP000jsa<Pk9Mqn?vt2HAV,0*45\r
+!AIVDM,1,1,,A,4h2=aB1uho;N;OhRkPQTWj100H78,0*5B\r
+!AIVDM,1,1,,A,13P:`@9002:l6`KjI=v8I1jt05Ip,0*24\r
+!AIVDM,1,1,,A,13U7E8001h0pcN8P93a4pT0r08Ai,0*7E\r
+!AIVDM,1,1,,A,833oeqPj2d=d<=<fLR3@j?`000P0,0*03\r
+!AIVDM,1,1,,A,13iPcwhP12PFRSDMavuSCwvrR<2J,0*3B\r
+!AIVDM,1,1,,A,16K8CvP02qawjK4DAi2I;oFr0D4Qh:3vHE,0*3B\r
+!AIVDM,1,1,,B,13aEOdOP1@PDDA<MdRd<s?vpPPRL,0*1C\r
+!AIVDM,1,1,,A,13FSLP0P00NqNep@5ICkTOvr0<1R,0*4D\r
+!AIVDM,1,1,,A,15MpsWPP00Jhw4jGSo6dbwvt2D09,0*71\r
+!AIVDM,2,1,9,B,A02VqLPA4I6C07h5Giah>?k:4CdgwSd0>kOtdhls9gqU0Cdaw?03>jStkO4s,0*2D\r
+!AIVDM,2,2,9,B,<?mh5kdWwmt8>rbb,0*6D\r
+!AIVDM,1,1,,B,13aEQ6hP1bPHFbdMag0<1gvLR<36,0*17\r
+!AIVDM,1,1,,A,13ciul002Q0fI6<HsOQd9qjv08Ae,0*78\r
+!AIVDM,1,1,,B,13cleV003F0`It0IB7JQT1@l08Af,0*72\r
+!AIVDM,2,1,6,B,53aI:6T26Bdu0:3WCOI=05@PtDf222222222220t2Pi6740Ht4m1DThj1C32,0*29\r
+!AIVDM,2,2,6,B,CQsB0DSTp88,2*31\r
+!AIVDM,1,1,,B,15N;L9SP00ISfi2A86frh?vt25Ip,0*35\r
+!AIVDM,1,1,,A,15NCq=0000IT::VA7fmG9`fr05Ip,0*63\r
+!AIVDM,1,1,,B,15NO8q0P00IT5G>@jQ5@pwvr00Rb,0*65\r
+!AIVDM,1,1,,A,15MvqH0P00IShKtA8o8Hqwvt0<1t,0*26\r
+!AIVDM,1,1,,A,15NG`20000IS4wJA7p1KUH@v05Ip,0*01\r
+!AIVDM,1,1,,A,19NS90002LP8@q8MEKoH<VPt2<72,0*04\r
+!AIVDM,1,1,,B,13USq@00h01`hA`G?tCqiVBt2HAb,0*3E\r
+!AIVDM,1,1,,A,133v3hgP19PCeb0MGjRu=gvvRD89,0*2B\r
+!AIVDM,2,1,6,B,56:Qm@P000009H=GP00QD61PTr3S7P0000000016:0@884oB0>lj0C`5,0*77\r
+!AIVDM,2,2,6,B,3m@000000000000,2*0F\r
+!AIVDM,1,1,,B,169G;O8P008FA26=GDe2Eh:l0D16,0*1A\r
+!AIVDM,1,1,,B,169G9pP0008F2mb=Gd@8H8@r2<0p,0*5C\r
+!AIVDM,1,1,,B,176sbF0000`:RhV<h>NWl3Br0@AJ,0*13\r
+!AIVDM,1,1,,B,169GIvP00087qUN=3Tvd57pr2<4n,0*7A\r
+!AIVDM,1,1,,B,177CWS001j`Q:02=wv4qH7Vr00Rp,0*01\r
+!AIVDM,1,1,,A,168tsT0P00`dMWpAr?H=c?vl08AB,0*70\r
+!AIVDM,1,1,,B,16:D8MPP0087?6j==2M2agvj0<2c,0*4F\r
+!AIVDM,1,1,,A,169r@BPP008dMVLAr?N32gvn0HAD,0*22\r
+!AIVDM,1,1,,B,16:@@kPP1L8PDCR>:9Sia0:j05Ip,0*09\r
+!AIVDM,1,1,,B,13aGEG5P14PH<7BMVhbD<?vt2L1B,0*6B\r
+!AIVDM,1,1,,A,13auwt001NOvI4POCh?3`S0t0D08,0*3B\r
+!AIVDM,1,1,,A,33e;DT1w002B99pJk1P4GJbv0Dm:,0*60\r
+!AIVDM,1,1,,,13aDolPP12PI70bN5>@I:wvr20S@,0*28\r
+!AIVDM,1,1,,B,33m:q<0PAN0JK1`Qib;8s78p00nQ,0*5A\r
+!AIVDM,1,1,,A,13oQON00000JCV`Qcqg=9P0v00RU,0*25\r
+!AIVDM,2,1,1,A,53nTtN02?gGHh54N221=A8Tj0<tll4p@E:22220l2`m8:4ld0ATm0EPC,0*5B\r
+!AIVDM,2,2,1,A,QiD`88888888880,2*39\r
+!AIVDM,1,1,,A,13=I`D5P008VjT6DanGJ>wvr0hAe,0*00\r
+!AIVDM,1,1,,A,133frb00000=JLPMD@SIS9hv05Ip,0*21\r
+!AIVDM,1,1,,A,13aGs90P18PHDA0NL27cg?vv25Ip,0*0E\r
+!AIVDM,1,1,,A,15DUrJ0028PfhqDHq>QSDRbr00SF,0*7C\r
+!AIVDM,1,1,,A,13oK1J800011rDpVPDL91hmV00Rv,0*44\r
+!AIVDM,1,1,,B,13aFfThP00PHnApMeNhP0?vt25Ip,0*20\r
+!AIVDM,1,1,,B,13oADD700011jmjVP9M8sVgH0d0K,0*0C\r
+!AIVDM,1,1,,B,13mD:S000011je:VOt;pFJWb0<0E,0*34\r
+!AIVDM,1,1,,A,19NWqOU000G<Ql0L<wJTJSRl00S2,0*45\r
+!AIVDM,1,1,,A,138d;F0003o=DkLL9:JT40tn08AC,0*72\r
+!AIVDM,1,1,,A,14eG=m@001o<6kBL93ko3pLr0d1a,0*57\r
+!AIVDM,1,1,,B,18J37b002CG;SgnL4@JLFqpr00SC,0*4C\r
+!AIVDM,1,1,,A,14eGNKW001G<cg:L=6K4aAft05Ip,0*11\r
+!AIVDM,1,1,,A,34eGLumP00G<c1dL=5F8Wgvr0000,0*44\r
+!AIVDM,1,1,,A,14eGDO@000G<ajTL9p=9?jdt20SN,0*05\r
+!AIVDM,1,1,,A,14eH1Thv00o<AOtL3F`oIn`r0`Ab,0*2C\r
+!AIVDM,1,1,,A,15QgeJ0036aw8iDD2q?91W<t0@Ae,0*46\r
+!AIVDM,1,1,,A,A04757QAv0agH2JdH0D`5OkOsU8Nw`Cc7hsuwNu0,0*12\r
+!AIVDM,1,1,,,33b`7@3P@EP8<i>MjKNk`Ant0000,0*05\r
+!AIVDM,1,1,,B,3815:l1v@00<CqTMKA>mlQdr0Dbb,0*6A\r
+!AIVDM,1,1,,A,13P8EDhP1R02`mlM0jsWjOvr0<10,0*6A\r
+!AIVDM,1,1,,B,23aDpGwP00PCT5RMHKvstgvtR5Ip,0*35\r
+!AIVDM,1,1,,B,33P<GptOhWwgAUVNuEGJ;HLv01@P,0*03\r
+!AIVDM,1,1,,A,33`qQ8?OhL0HmL6NRO=ThFVt01lh,0*56\r
+!AIVDM,1,1,,B,168s64002`0H1OvNWtn2j2Bv08Ag,0*3A\r
+!AIVDM,1,1,,A,16KPdw@01ob0d9NDDE<rL`Bt20Sq,0*77\r
+!AIVDM,1,1,,A,4h30otAuho;NNrECF`HRUU7008Ag,0*0B\r
+!AIVDM,1,1,,B,13P8MtPP08OULI2OBSHI0wvn05Ip,0*6F\r
+!AIVDM,1,1,,A,15Mf<50001o?;0PK?sMak;0v00S2,0*56\r
+!AIVDM,1,1,,A,40475rAuho;NN9ceoHClce7005Ip,0*64\r
+!AIVDM,1,1,,B,83aC250j2d<dteeeh1hPt?ch00P0,0*0F\r
+!AIVDM,1,1,,A,Dh30otAMdnfq<QF9I=9F9I=iF9H,2*0B\r
+!AIVDM,1,1,,B,D025buARLDfr<`D01u4T0000000,2*70\r
+!AIVDM,1,1,,A,13HU@e?P0OP33WpM0`eSLwvp20R9,0*04\r
+!AIVDM,1,1,,B,133ug3PP00PD=OFMDOfcH?vt28Am,0*05\r
+!AIVDM,1,1,,B,33cUpi0q1L0g6qLHrTMQ50dr0QvP,0*4C\r
+!AIVDM,1,1,,B,15NCrd0P00IOr@8BOlI:Uwvv2L0I,0*61\r
+!AIVDM,1,1,,A,16K2>6h000awi:lDIJkpgUvt28Aa,0*67\r
+!AIVDM,1,1,,B,E>l4ukPaTW7QT2Vh84Ra@2Pab004=RFp;9DvP00000g7HP,4*7B\r
+!AIVDM,1,1,,B,133tcoPP0:0CeJ`M@9CPe?vt08Ag,0*0B\r
+!AIVDM,1,1,,A,133qRF?P000>``LMGhvrDgvr0<5R,0*75\r
+!AIVDM,1,1,,A,138fSd0Oio0r>BTP0oI=3:Pr05Ip,0*32\r
+!AIVDM,1,1,,A,63P:`:<0SJP@>P7MuOt6eHIBo0,4*07\r
+!AIVDM,1,1,,B,139cNNPP0jPHC5jMamOkrwvtR5Ip,0*1F\r
+!AIVDM,1,1,,B,133pdjPP00PCqQfMEAqEtwvtR<3w,0*69\r
+!AIVDM,1,1,,B,15NK4>gP00G;5pvKnG?Hvwvv2D0`,0*64\r
+!AIVDM,1,1,,B,15MlHcPP00G?tfFK>=9:fgvt0HAl,0*1A\r
+!AIVDM,1,1,,A,133pTvPP000Cm6LMFiN8p?vvR8Ao,0*3E\r
+!AIVDM,1,1,,A,15N4>gPP00Jdq`fGAusuNOvt0HAl,0*7B\r
+!AIVDM,1,1,,A,13IeIP0000P0W5HLCmV90`hv0L1:,0*6F\r
+!AIVDM,1,1,,B,13KHn@P0011QlrLR=Bb9FFfr0d06,0*69\r
+!AIVDM,1,1,,A,146Ur8?P00NqJ2l@6fe8pOvv0PS<,0*33\r
+!AIVDM,1,1,,A,13aGETPP000DI1pMdAU8tgvt0d7I,0*51\r
+!AIVDM,1,1,,B,C>q000@0026mfP5U9isO3wgPHC0hBMh0000000000000WS86VQPP,0*70\r
+!AIVDM,1,1,,,13A39`002OP7VrrMc4JJeHjt08Ao,0*0D\r
+!AIVDM,1,1,,B,13`qEJ?021P>5vnMI4@bF`M00HAq,0*77\r
+!AIVDM,2,1,6,B,53pr?I01muTE=4hL00058ME<000000000000000l0pI4540Ht=4nPnQ@jCcB,0*62\r
+!AIVDM,2,2,6,B,3kA@0000000,2*78\r
+!AIVDM,1,1,,A,404759Auho;NNb4n7PDKb?7008Ak,0*0D\r
+!AIVDM,1,1,,B,14QsF6hP1UOD>e4EVq`u`bnr00SP,0*20\r
+!AIVDM,1,1,,B,15C@QT0034wBV7>EiBSnNm4t2HAa,0*20\r
+!AIVDM,1,1,,B,18151NP006O@U7FEv68q3aPp00S6,0*41\r
+!AIVDM,1,1,,B,402PeAQuho;NMOERubF@wg100<2d,0*7E\r
+!AIVDM,1,1,,B,13P<OM0022`OVOtF<LPCmk6v0@Ak,0*32\r
+!AIVDM,1,1,,B,402<HTiuho;NN1QlKrR=?KA00<0H,0*38\r
+!AIVDM,1,1,,A,E>jAUK@17dPh;2a:4R7ah9RP000@53Jq;lQG@00000f060,4*6B\r
+!AIVDM,1,1,,A,13qGV400001EPRtO8E2V5CJt0hAC,0*36\r
+!AIVDM,1,1,,B,13RCM10P17QcAP2EMUl4C?vt2Swn,0*3E\r
+!AIVDM,1,1,,B,402R3FAuho;NN1C<8:QsRfQ008Ar,0*3C\r
+!AIVDM,1,1,,B,4030p?iuho;NMt<0K8KGaEo008Aq,0*0A\r
+!AIVDM,1,1,,A,13P:`ih000OjA>BNTd>8n8Dv05Ip,0*27\r
+!AIVDM,1,1,,A,13afw000010DBjNMdPs<7Gpv00Rm,0*08\r
+!AIVDM,1,1,,A,139g5i0P00PCrMtME<LmpgvtRD3w,0*4C\r
+!AIVDM,1,1,,A,16SWp3PP13a3J90EK9Moc?vt20Rs,0*1D\r
+!AIVDM,1,1,,A,1000<25P?w<tSF0l4Q@>4?wv0d2q,0*03\r
+!AIVDM,1,1,,A,33tssF05@hPn=ObQ0Kd2mj<t2000,0*26\r
+!AIVDM,1,1,,B,1692r40P1m8ffn6A7tgrGgvt0HAB,0*7D\r
+!AIVDM,1,1,,B,36:D3F08A5`5ol0<O?i3;1Jr20vi,0*08\r
+!AIVDM,1,1,,B,B6:jst@0HB2EKN3=BtiW;wf3QP06,0*16\r
+!AIVDM,1,1,,B,169<s?05@4892mF<oBwJ@r:t00Sn,0*6F\r
+!AIVDM,1,1,,B,18KEU0002H`gBbLA6HFUo4dr0@AL,0*4A\r
+!AIVDM,1,1,,B,16:Co<PP0086DCB<QmfkIOvr2D07,0*3D\r
+!AIVDM,1,1,,B,369I4sP01F86L?P<P=@2q24r00v@,0*3D\r
+!AIVDM,1,1,,B,13n3aW0PChPJWQjQh7ero8`t28Am,0*0D\r
+!AIVDM,1,1,,A,13mGSF0OkGPJhsjQfrJ80nJt0<17,0*7E\r
+!AIVDM,1,1,,B,169D`w00008f`;RA:IHiqIfr0<3o,0*70\r
+!AIVDM,1,1,,B,12wdLPPP008LJJ@>0I@ungvt05Ip,0*58\r
+!AIVDM,1,1,,A,16:e:n001q`k0F0B68`=m3`r0<3>,0*7B\r
+!AIVDM,1,1,,B,16:fQ<wP0087mhV=9Ewh0?vr05Ip,0*01\r
+!AIVDM,1,1,,A,369A=1P00@8Se94Fmpf<Nrbr21t0,0*2E\r
+!AIVDM,1,1,,A,15MqhAPP1HJdm=JFdj=pDwvp08AD,0*47\r
+!AIVDM,1,1,,B,16921@?P008cctrEPwA:Jgvt28AP,0*24\r
+!AIVDM,1,1,,A,16:dKv001i8hIfpETjo51T2r05Ip,0*2D\r
+!AIVDM,1,1,,A,16:BGs80008VOf0DbD5R3Ubur0ST,0*23\r
+!AIVDM,1,1,,A,139c>P001pOwBF8O4ipEI4Hn0<0E,0*50\r
+!AIVDM,1,1,,B,13aBNf0P0M0HJPpMfvSKCgvr0D1J,0*49\r
+!AIVDM,1,1,,B,133qF<PP00PD=>JMDP>3s?vt28As,0*60\r
+!AIVDM,1,1,,B,15Mw5Lg000IS:fRF9;>ES0rr0L0c,0*52\r
+!AIVDM,1,1,,,13aGt:PP00PIWn:N8JwP0?vt2KwW,0*58\r
+!AIVDM,1,1,,B,4h3OvkAuho;NMo?6BpEa1QW005Ip,0*58\r
+!AIVDM,1,1,,A,13q6DV00001ENU<O8D3051jr0`At,0*6B\r
+!AIVDM,1,1,,A,133oSgPP00PD:b0MDv56bgvt25Ip,0*75\r
+!AIVDM,1,1,,A,13M@Cn@02cwUlW0Q<8s;caFp0@Aa,0*75\r
+!AIVDM,1,1,,B,14RCQn50000A0>pML=n1E1hn0hAt,0*78\r
+!AIVDM,1,1,,A,13Q`g20P1N042DNLqeaBrR@r2<30,0*07\r
+!AIVDM,1,1,,2,13aEP90P1;P@?7FM<>>hGgvrR5Ip,0*4D\r
+!AIVDM,1,1,,A,13HUFT?00O02qbhLwifCG2`t0D2E,0*37\r
+!AIVDM,1,1,,A,13M@G0P00H05m?PNoWM<Hajr00S1,0*15\r
+!AIVDM,1,1,,A,13aBNc0P1M0GFp`MjCd5pgvr0<2b,0*6D\r
+!AIVDM,1,1,,A,14cPU4001b01>EJLs?a9nGrr00SB,0*72\r
+!AIVDM,1,1,,B,13boCr9P?w<tSF0l4Q@>4?wv0PS>,0*27\r
+!AIVDM,1,1,,A,13I;R??00OP2NRhLsvdA6P:t0@AU,0*7D\r
+!AIVDM,2,1,1,A,53aI:vD000010;GWCD1<4840000000000000001S10<14v5d00k@@DhTP@j580jE,0*1C\r
+!AIVDM,2,2,1,A,6H?<p80,2*10\r
+!AIVDM,1,1,,B,23aEPr@P010Cm?hMEo;nGwvrP@Au,0*58\r
+!AIVDM,1,1,,B,15Mvvn000UqOMtJBRChA3Pbn08Ai,0*1F\r
+!AIVDM,1,1,,A,16:KWE80008K06DFBM;@08Jt25Ip,0*41\r
+!AIVDM,1,1,,A,13bw7r0000PFB>8MabI3:Q`v08Av,0*50\r
+!AIVDM,1,1,,B,B3HUqmP00089l=V?3b<03wg5oP06,0*7E\r
+!AIVDM,1,1,,A,13M@Dtk01hOr4AVM4wUdHItv05Ip,0*05\r
+!AIVDM,1,1,,A,833j?PPj2d=d<=<<<CG0qh3P9HP0,0*4C\r
+!AIVDM,1,1,,A,139a1wPP000D=2LMdKUP0?vrP@Av,0*46\r
+!AIVDM,1,1,,A,133k=>gP00P`le:LcKhI@OvvR5Ip,0*5F\r
+!AIVDM,1,1,,A,13cnCt0P1i03iAjM13Q`dwvt08Ac,0*22\r
+!AIVDM,1,1,,A,13P<<6OP02OhFA<Nt?kA0wvt2L0N,0*29\r
+!AIVDM,1,1,,B,402R3a1uho;NN0r;6JP4frA008Aw,0*51\r
+!AIVDM,1,1,,B,13aDoHh000PF<a0Mw=GLMStt0<3w,0*5C\r
+!AIVDM,1,1,,B,10HL`FPP00PCph2MBqU@0?vt2@Av,0*1C\r
+!AIVDM,1,1,,A,15A@2r002Q00M3HLjca2l2@n05Ip,0*6C\r
+!AIVDM,1,1,,A,133grBg0000CT::MECCrKRT:0<97,0*3F\r
+!AIVDM,1,1,,A,13u?er0P00Pn=EjPw`5FjOvp0<1B,0*5D\r
+!AIVDM,1,1,,B,14R`eD002f0=r:0Mi91bFHH:0841,0*2D\r
+!AIVDM,2,1,9,A,53dW8:02Ah1KTP7;7OP8t60984LF22222222220l1hB754o<N>4m1CUCQlmC,0*53\r
+!AIVDM,2,2,9,A,Q8888888882,2*46\r
+!AIVDM,1,1,,B,13u7El002pPhwUtPoGABiBBr05Ip,0*3C\r
+!AIVDM,1,1,,A,13uNV67000PmH<bQ1D3h00ft2L1b,0*13\r
+!AIVDM,1,1,,A,B3u@sp0000=Mvq8@;PL03wg5kP06,0*52\r
+!AIVDM,1,1,,A,83aDpL@j2d<dtMd=L1T0ggaE8lP0,0*79\r
+!AIVDM,1,1,,B,33aDCM@P0vPCJ30MJEtVg?v:22qC,0*44\r
+!AIVDM,1,1,,A,13aDr?PP1:PCk2VMFnA=5?v<RH43,0*1F\r
+!AIVDM,1,1,,B,333m@ogP00PD;6lMD5Nh0?vt2BFS,0*64\r
+!AIVDM,1,1,,B,23@QU<000MPCRtRMFctH2nd>0H43,0*6B\r
+!AIVDM,1,1,,B,368sVcPOh38K9;HFD6PFnoBv00u1,0*70\r
+!AIVDM,1,1,,A,133n@sPP000ClpdMGbcCQOv<20Rj,0*67\r
+!AIVDM,1,1,,A,35S?2v5001PCmn0MGUw1h`6>0000,0*35\r
+!AIVDM,1,1,,B,33aI8nJP11PH8d>Mab<Rv?vt24jC,0*7F\r
+!AIVDM,1,1,,A,13bkiF00000D2=@MDd?dCRl<00S6,0*2B\r
+!AIVDM,1,1,,A,33aGCTPP100D8SpMD8hGPgv8P35i,0*21\r
+!AIVDM,1,1,,B,23aI:T0P1oPBPEfMId3Lg?v<25Ip,0*0E\r
+!AIVDM,1,1,,B,13`el0@P00PCiE@MG;a@Q?v<R5Ip,0*7B\r
+!AIVDM,1,1,,A,16KVnDh02wawa:hDA72`eVtp85Ip,0*4D\r
+!AIVDM,1,1,,A,133kV>PP00PD6BHMDnC@0?v>2D70,0*6E\r
+!AIVDM,1,1,,A,16K8D??000aw@KnDCDNhPj:t0<3b,0*19\r
+!AIVDM,1,1,,A,233vr3gP1gPCjO<MEs8hkgv>R84:,0*43\r
+!AIVDM,1,1,,A,23aFg<0P00PCUE6MGsB=Vgv>2H4<,0*03\r
+!AIVDM,1,1,,B,13aGu0h000PCmmHMEEE@03f>R5Ip,0*0A\r
+!AIVDM,1,1,,B,1341N:001QPChKLMFA4E94:@2<=m,0*58\r
+!AIVDM,1,1,,B,133maoPP00PCdJHMGT4Itgv@2D7;,0*7E\r
+!AIVDM,1,1,,A,13aGvAh0010BSVfMN1RnvGj@05Ip,0*54\r
+!AIVDM,1,1,,B,133ss2PP00PCQGfMFGTq:gv@R0RT,0*23\r
+!AIVDM,1,1,,A,14RU:h002m0MHfpNhGqS0RJ>05Ip,0*63\r
+!AIVDM,1,1,,A,13bj?d0vj80FQupNmkw0DP<B00SV,0*21\r
+!AIVDM,1,1,,A,D02E34PB4g6D000000000000000,2*23\r
+!AIVDM,1,1,,A,139g;bP03nPMfS`NcEICRjlD05Ip,0*18\r
+!AIVDM,1,1,,A,13aGs90P17PHDS:NL1I;bOvF25Ip,0*79\r
+!AIVDM,1,1,,A,33bfe8000pPL;<nNU<vkHk4@0191,0*2E\r
+!AIVDM,1,1,,B,402E34Quho;N:PL;CNNVEEG00D0o,0*53\r
+!AIVDM,2,1,2,A,58Kiej02>BCwUKOGCR04pj1L5984Tr2222222219HA2H84on0N0EH4nA88888888,0*11\r
+!AIVDM,2,2,2,A,8888880,2*26\r
+!AIVDM,1,1,,B,13aDrg`P12PLDM8NMNwAugvF20SP,0*51\r
+!AIVDM,1,1,,A,139L4P000V0NK16NaqcKraS`0PRu,0*70\r
+!AIVDM,1,1,,A,333tUb0uiq0LANvNfLAjiB:F0000,0*16\r
+!AIVDM,1,1,,A,15ECw`002GPMEOdNcO33h2vH00Rt,0*15\r
+!AIVDM,1,1,,A,177W<B0vR:0L<4fNj7@aoGpH00S1,0*42\r
+!AIVDM,1,1,,B,13mE>r8000Pi7j:RAw4A2@Vv0<0R,0*38\r
+!AIVDM,1,1,,A,13aDrn@P00PKol@NLI2jt?vFRH71,0*21\r
+!AIVDM,1,1,,A,13P<Gp@0030DppPNdGclERQ400SR,0*39\r
+!AIVDM,1,1,,A,176wWo002K0Mt6lNlJP:5H4J00S;,0*1A\r
+!AIVDM,1,1,,B,13aI9>?P00PDQBTMe=I@0?vt2<7B,0*5E\r
+!AIVDM,1,1,,A,133ghQg0000Cj7PMG4200:Rr0<8o,0*2D\r
+!AIVDM,1,1,,B,13fCIn001w0KBRBNe6pjm2:H086a,0*3F\r
+!AIVDM,1,1,,A,13aGt@PP00PLGWhNUsgh0?vH20RJ,0*1E\r
+!AIVDM,1,1,,A,13u?j?P001Pr4o2P4L`;JU4t20SP,0*3C\r
+!AIVDM,1,1,,A,18IASj002T0FSePNo>JP2;:J0@7I,0*1A\r
+!AIVDM,1,1,,A,13ncqj0u2<0Fs9nNtGHJ2WtF087c,0*5F\r
+!AIVDM,1,1,,A,16:;BwPP00`Vwi8DUNUN43Ln08Ar,0*5F\r
+!AIVDM,1,1,,A,33c:Bh0OhlPLFi0NUqt8oWHH0000,0*33\r
+!AIVDM,1,1,,A,13aDCBgP000L;chNPRtcUOvL0<0o,0*53\r
+!AIVDM,1,1,,B,13abiN70000LI6vNSns1>BbL088H,0*6A\r
+!AIVDM,1,1,,A,13aDoF0P1mPLFrbMb6dcIOvtR5Ip,0*1A\r
+!AIVDM,1,1,,2,33aDp9UP1EPE;`0N1F65EOwfR0sQ,0*57\r
+!AIVDM,1,1,,2,23c;Pp00000Eko4Mwol0H2Mj00S9,0*57\r
+!AIVDM,1,1,,2,33aGsS?P00PF8vRMwDeh0?whRC@k,0*6F\r
+!AIVDM,1,1,,2,139hEM0P00PEluJMwNCqngwj25Il,0*58\r
+!AIVDM,1,1,,2,13aJH4wP00PE<2fN1MKh0?wj20S3,0*3B\r
+!AIVDM,1,1,,2,23aDo:mP1L0F3crMwfD;6?wT08Qm,0*0D\r
+!AIVDM,1,1,,2,13aDqchP010En?NMw;A6TwwhP5Il,0*39\r
+!AIVDM,1,1,,2,13aEN>@P00PF6`8N0C8P0?wlR0SN,0*55\r
+!AIVDM,1,1,,2,13aGtW?P0FPF4p@Mw1Qq0?wl25Il,0*44\r
+!AIVDM,1,1,,B,15N0RM0PAcJn;DLGWRNEUTbt25Ip,0*75\r
+!AIVDM,1,1,,2,23aGtW@P1CPF13jMwfFl2?wl28R9,0*4C\r
+!AIVDM,1,1,,2,13aDr:PP00PE7cdN1NUP0?wl2<5c,0*67\r
+!AIVDM,1,1,,A,139aMag01>PGH48Mj1dFKE4rPd1D,0*66\r
+!AIVDM,1,1,,2,24TbiR001M0DqHfN1FEBqBEn0D9?,0*5D\r
+!AIVDM,1,1,,2,13aDCr@P00PEFRfN1WAdbwwl2012,0*36\r
+!AIVDM,1,1,,2,13aGFh0P00PEFDTN1cTDu?wlR5Il,0*63\r
+!AIVDM,1,1,,2,23aFgmPP0W0DvnRN1GlUjOwn28Rl,0*29\r
+!AIVDM,1,1,,2,239I@q?P00PE7ahN1BJSIOwn28Rn,0*5C\r
+!AIVDM,1,1,,B,402FhaQuho;NN0dsn0I=k?i000S:,0*2D\r
+!AIVDM,1,1,,2,13P;TlsP000DurDN1=C1jOv00D4c,0*60\r
+!AIVDM,1,1,,2,13aEOb@P00PDu7dN1<uRKgwn25Il,0*0F\r
+!AIVDM,1,1,,A,13cWj@0uiJ00SLhLCjfTd3bp0D0q,0*0C\r
+!AIVDM,1,1,,2,23ahdH0PAF0E5i8N1FPk`2`00802,0*0D\r
+!AIVDM,1,1,,2,23aGj`5P@c0DrgrN1D8;88D20809,0*62\r
+!AIVDM,1,1,,2,23aJHC?P18PFOS:Mv=ES;Ov0R0SI,0*78\r
+!AIVDM,1,1,,B,14eGCrPP00JBLl2HhmFnQOvt05Ip,0*6C\r
+!AIVDM,1,1,,A,13bkaR002rOh5LnN`wKbhH`r00SF,0*39\r
+!AIVDM,1,1,,1,23b?ED00170Ds`TN1@bSIRen0000,0*20\r
+!AIVDM,1,1,,A,13HT5AgP00P0puvLDUA5fgvt2L0w,0*7B\r
+!AIVDM,1,1,,2,13anvf00000E5QvN1`5MDHj0080G,0*61\r
+!AIVDM,1,1,,A,13aGG2PP2;PD=DRMdcoarOvt2D7u,0*0E\r
+!AIVDM,1,1,,A,133mvTgP000Cs3<MED800?vr0<3w,0*67\r
+!AIVDM,1,1,,2,13aEQA@P000EvmvMwdvP0?wn080J,0*77\r
+!AIVDM,1,1,,A,13`twj101P0?KNhMPSmL09k>08G@,0*13\r
+!AIVDM,1,1,,A,13mC@g00000G0uhS?q6rv`Tv0HAw,0*54\r
+!AIVDM,1,1,,1,139Qo=00000LHITNShm=UCv00@07,0*45\r
+!AIVDM,1,1,,1,13a5Rb9000PLI<dNV5g;fWn405Ip,0*12\r
+!AIVDM,1,1,,1,13aGtL?P00PJrMnNSIk00?v22H15,0*54\r
+!AIVDM,1,1,,2,18VC;F00000E0u<N16gWiaJ20D3h,0*1E\r
+!AIVDM,1,1,,2,13aDC0@P000EnH<MwD?eEwwnR0S6,0*76\r
+!AIVDM,1,1,,B,13aDp7hP00PF<q<Mf7NkhwvtR0Rn,0*60\r
+!AIVDM,1,1,,1,13aEPgPP00PF8AbMw9iSIgv225Ip,0*27\r
+!AIVDM,1,1,,A,13b5@j1P?w<tSF0l4Q@>4?wv0p3G,0*54\r
+!AIVDM,1,1,,A,13`e<5@P00PDBQDMd:jP0?w>28GD,0*1D\r
+!AIVDM,1,1,,A,13`v660P46P@D40MKHB`jgw<0HFh,0*7C\r
+!AIVDM,1,1,,B,23L?MH001VP>Q7`MIO0jw2E>0<59,0*72\r
+!AIVDM,1,1,,B,139eb`P000PCVjFMHqu0032tR5Ip,0*5A\r
+!AIVDM,1,1,,B,13:jQ03v2=PBIaPMhwwv005@0<Fp,0*2A\r
+!AIVDM,1,1,,B,13aDoj@P00PCq5jMjhdQeOw>R5Il,0*71\r
+!AIVDM,1,1,,A,13ktppP02DP@9gHN6h78L6k@28GQ,0*79\r
+!AIVDM,1,1,,A,13`hBw0P000BQTFMfiAh0?w<00RR,0*67\r
+!AIVDM,1,1,,A,19NS1sP02a06oJlM=KL8`Vpt08B2,0*08\r
+!AIVDM,1,1,,A,13F8J2?000NqIq@@6PCSIIlt08B0,0*3E\r
+!AIVDM,1,1,,B,13e:6L002>0SpK@NoOJ332HL0<<P,0*64\r
+!AIVDM,1,1,,A,133ivegP000D0krMEKjIo?v@RD8W,0*78\r
+!AIVDM,1,1,,B,13ng<f000@0b=f0NoF<1rQ6p0<<@,0*42\r
+!AIVDM,1,1,,A,13u=TcgP011BhsdQtdjV??vp00Ss,0*3A\r
+!AIVDM,1,1,,B,33MFDR0PADOj=r@NTuba;WDr0000,0*41\r
+!AIVDM,1,1,,B,16:9vg00008Js=tFCToP03:t2@At,0*1C\r
+!AIVDM,1,1,,B,139Ntf0P1I0Oq48NWtp1f?wB0<3N,0*69\r
+!AIVDM,1,1,,A,13aGFdPP00PCmG@MbrVD<gvrR0S8,0*40\r
+!AIVDM,1,1,,A,13aEQ0PP00PI`a6N8K=P0?wR2<11,0*3B\r
+!AIVDM,1,1,,A,13aGE70P00PG9B8MUP;h0?vt2<1M,0*20\r
+!AIVDM,1,1,,A,16KDTa0001b0bW:DGQPEI6Pv0@An,0*06\r
+!AIVDM,1,1,,A,14W8jl0vBePu@1FOW>KbaHRv08B3,0*42\r
+!AIVDM,1,1,,A,13cTaN00000Cb6hMHfJ7WU<p0V2d,0*13\r
+!AIVDM,1,1,,B,13@o7vo00uPjVGlPuWkac7Rv0<18,0*19\r
+!AIVDM,1,1,,B,13uA?rP0000p;KvPaT<K;n@t00SJ,0*12\r
+!AIVDM,1,1,,A,802R5Ph0BkD1LhDwkjGa0PAF:owwwwwwwwwwwwwwwwwwwwwwwwwwwwwwwwt,2*5B\r
+!AIVDM,1,1,,A,16K2=KP00pawmP<DCE54Ukbv0D4V,0*66\r
+!AIVDM,1,1,,A,16LMMP0001awBgvDC<2Ie2ft0HAv,0*33\r
+!AIVDM,1,1,,B,339NQJgP000eUSjN`p6P1Ovr013S,0*64\r
+!AIVDM,1,1,,B,13dG0r0P000e0B8I?:t4Tgvt0<0c,0*5B\r
+!AIVDM,1,1,,A,139a;p0P00PCfg<McWj:E?vtR0RT,0*4C\r
+!AIVDM,1,1,,A,13aGEhPP00PNM:6NKdQ@0?wF2HI=,0*30\r
+!AIVDM,1,1,,A,35QD?V5000`JuOtFCdeLnq<p0001,0*27\r
+!AIVDM,1,1,,A,13:E>02P07w`<@DDbsF;15tj08AU,0*31\r
+!AIVDM,1,1,,A,133qEJgP00PDFG@MDDBh0?vtRD5A,0*03\r
+!AIVDM,1,1,,A,13a3u:@P00PFqObMabLQ7?vt2HB4,0*36\r
+!AIVDM,1,1,,B,108F:RPP00PDUNlMDJBP0?vtR@B3,0*6E\r
+!AIVDM,1,1,,A,15Mqt>PP4HJe8olGBlD75gvv28B2,0*0E\r
+!AIVDM,1,1,,B,33@oI`hOh=0qbQfOu?WPM2:v20rh,0*6C\r
+!AIVDM,1,1,,B,4h50Ko1uho;NNWL8wp0c@G700D<2,0*2D\r
+!AIVDM,1,1,,,33AeTN300007dCPMoML`m68r0000,0*78\r
+!AIVDM,1,1,,B,EfjHCJRabV2h9URa9<h64ST:47bwmrI4@qoo81088;e004i@,0*42\r
+!AIVDM,1,1,,A,133uOlP000PC?aRMe<N4eRfv2D9o,0*57\r
+!AIVDM,1,1,,B,13M@DF0000OdefBLmRLqC1<p08Ak,0*10\r
+!AIVDM,1,1,,B,15?5s4001:NqgHT@6vn`kFk<08B4,0*29\r
+!AIVDM,1,1,,A,33OjLf0Oi@Odu:DLjMjVAU8r0000,0*56\r
+!AIVDM,1,1,,A,13MKsr?0001dJB0Ee4I9fVfv00RJ,0*1D\r
+!AIVDM,1,1,,B,23@QU<000BPCRq`MFcLp3Vjv0D>T,0*4D\r
+!AIVDM,1,1,,A,B>DQ?eh0?j6ki;UUad53GwfV1P06,0*73\r
+!AIVDM,1,1,,B,18J96N0000`:BEt<iUAew8Jp0<<K,0*24\r
+!AIVDM,1,1,,A,16:>N<P00N`SJklCqFn9W7hp0@Ak,0*36\r
+!AIVDM,1,1,,,13aGti001MPIevfN=OP1IQ8tRSFs,0*73\r
+!AIVDM,1,1,,B,169>QdP0008cVMTEOFO:mofr00Sr,0*6A\r
+!AIVDM,1,1,,A,19NWue032F`h8fhAjbW3cBtr0@A`,0*35\r
+!AIVDM,1,1,,A,376wms10002>Voeg0fO`w3Br0000,0*46\r
+!AIVDM,1,1,,B,169UK=0015`PEbH>4e8jC1ft2<5d,0*61\r
+!AIVDM,1,1,,B,C6:V4mh0021mgg3CJD4gSwf2DBM0HNL?1WkU11111110S0<FRTP7,0*11\r
+!AIVDM,1,1,,B,403tDG1uho;NM`7d`6=6BtA02D6D,0*33\r
+!AIVDM,1,1,,B,403tDFT47wk?0<tSF0l4Q@000`0G,0*23\r
+!AIVDM,1,1,,B,169Bqb00008N9D:>5q8lBJ`t00RR,0*49\r
+!AIVDM,1,1,,B,14`afE5P0087L4d==O?c:?vr0d7k,0*6E\r
+!AIVDM,1,1,,B,403t4l1uho;NN`eeNFA8<GG00L7t,0*64\r
+!AIVDM,1,1,,A,16:QrM?0?w<tSF0l4Q@>49cp0d2I,0*19\r
+!AIVDM,1,1,,B,13AiVB3Oh8Q1KUnNne5rQHlt00SI,0*3E\r
+!AIVDM,1,1,,A,177n=>00008L;?H=wCW<CS>t05Ip,0*46\r
+!AIVDM,1,1,,,13aEQ0PP00PI`a0N8K>P0?vt25Ip,0*68\r
+!AIVDM,1,1,,B,169Fq5gP0089CMh<npja5wvt00RT,0*26\r
+!AIVDM,1,1,,A,33:1wR0029Pr51FOhdA7iV@t03M1,0*22\r
+!AIVDM,1,1,,B,15NBs60P1LIT6vNA58EdH?vr00S3,0*18\r
+!AIVDM,1,1,,B,15MwN@0P00IRQJrA8;9ci?vt0<2v,0*03\r
+!AIVDM,1,1,,B,15NFjSgP01ISBclA92UmSgvv2@As,0*77\r
+!AIVDM,1,1,,A,15NLp0PP00ISfNHA7jmL>?vt05Ip,0*18\r
+!AIVDM,1,1,,A,133V?v?P@<PCR=4MFO42EQTt2<5U,0*4B\r
+!AIVDM,1,1,,A,16K8DRO000awH`fD<9>DHoJv00SN,0*5E\r
+!AIVDM,1,1,,A,13aGDm?P18PG;WRMh1N`P?vt2HB7,0*3C\r
+!AIVDM,1,1,,B,34eGo=POi5G;frvL;`lDs46v00p0,0*77\r
+!AIVDM,1,1,,B,14eGLu@P00G<lM`L=H1cAgvt00Sf,0*6B\r
+!AIVDM,1,1,,B,13aDrJhP0MPCPDfMHRlb9gvb2<8V,0*6D\r
+!AIVDM,1,1,,A,35`6PT5000PCf>bMDk0qKVbtP000,0*16\r
+!AIVDM,1,1,,B,33c:Bh000mPLFWDNUqI947Lp04MS,0*7D\r
+!AIVDM,1,1,,B,402E34Quho;NNPL;CNNVEEG00D0p,0*38\r
+!AIVDM,1,1,,B,13aGD2gP00PElIfMagDC<gvJ2@B8,0*35\r
+!AIVDM,1,1,,A,15Mwaq0P0hItvnjFGku3Hgvv0<02,0*72\r
+!AIVDM,1,1,,A,169s;bPP007kn4f;BUDc6wvt0<0p,0*56\r
+!AIVDM,1,1,,B,13aDBG001OPD500MdNMSq34tP@B8,0*49\r
+!AIVDM,1,1,,A,E@28iv0Va9Qh1Pab2V67W@@@@@@@034g;KoT`00003v0100,2*1C\r
+!AIVDM,1,1,,B,13aDoRhP010D7NtMEBJe3wvdR<85,0*2F\r
+!AIVDM,1,1,,B,13a?W<02R1P@ClBMJkcj6Afv0D8R,0*12\r
+!AIVDM,1,1,,A,16K2=3h000awBJ6DB:Es69Rv0<36,0*0E\r
+!AIVDM,1,1,,A,36K2:jhOh6awouDDCJfW7rNv00kQ,0*00\r
+!AIVDM,1,1,,A,23L?MH001RP>R=NMIP9C4BFt0<59,0*17\r
+!AIVDM,1,1,,B,33aDCnhP00PD3>jMgUOh=?vt24K3,0*40\r
+!AIVDM,1,1,,A,16tJPD3P00:l6B1jI>HEuwvt2<1R,0*06\r
+!AIVDM,1,1,,A,14RUmf0Oj?0r7bHOrDS7f64v28B:,0*27\r
+!AIVDM,1,1,,A,13n;0D0PB=0J;m8Qgtf5PT@r0<0r,0*67\r
+!AIVDM,1,1,,B,133rDCPP00PClupMFaI=@Ovt28B9,0*79\r
+!AIVDM,1,1,,A,15NKCndP00IS;8nF9=crD?vv05Ip,0*5D\r
+!AIVDM,1,1,,B,15S`H400000Gq?LNR<mbNnPj20SO,0*30\r
+!AIVDM,1,1,,A,604<o3D00000>d`00296WSWjISUg4<@h0082t00040,4*78\r
+!AIVDM,1,1,,A,139NNhP02qJf4@BFRf=o45bt00SB,0*6A\r
+!AIVDM,1,1,,A,13IVvu0P0000Vr`LCmd1@wvt0@B0,0*1C\r
+!AIVDM,1,1,,B,13aENDPP?w<tSF0l4Q@>4?wp0@B:,0*5F\r
+!AIVDM,1,1,,A,102;70VP?w<tSF0l4Q@>4?wv0P00,0*17\r
+!AIVDM,1,1,,A,35Mu1EPOjUJdugTG@Vw9T`4t00Q1,0*2F\r
+!AIVDM,1,1,,B,13P<:R0027P8kNPN8<C6wUdt0@B;,0*3F\r
+!AIVDM,1,1,,B,140UtJPP1cPH<d8MajvIe?vtR<16,0*19\r
+!AIVDM,1,1,,B,13aGFW?P00PD>@bMdslP0?vvR@B;,0*75\r
+!AIVDM,1,1,,A,133c0b00000C`nfME@u:PHjt0l9s,0*2A\r
+!AIVDM,1,1,,A,1>qc9ww000OkfS@MMI5004Rr0L0B,0*05\r
+!AIVDM,1,1,,B,15Mt3U0P01ISQl`F>KO:HOvv00Sa,0*2B\r
+!AIVDM,1,1,,B,33aGtqwP11PHB38N:4lI3wvv2C63,0*25\r
+!AIVDM,1,1,,A,13P;c>@000ONi0@OOfWJ?AJf0H=s,0*65\r
+!AIVDM,1,1,,A,177ngw002RwC0;@F6pF=Q:nr05Ip,0*46\r
+!AIVDM,1,1,,A,33ru:48t@POE9uPF3M1FWE0t00uA,0*48\r
+!AIVDM,1,1,,B,18KoA@002POBT<vEkFVVT5>v0<1R,0*56\r
+!AIVDM,1,1,,B,19NSAbh02lwD@upES=0=Pblv00S9,0*07\r
+!AIVDM,1,1,,B,4000=:Auho;NNwF8;fF8kDo00@AU,0*10\r
+!AIVDM,1,1,,B,4028jF1uho;NMOo=5vHiF?700D1>,0*06\r
+!AIVDM,1,1,,A,13aGG30P0F0DF84MdTarfgvfR<86,0*41\r
+!AIVDM,1,1,,B,13aEQR@P000CTfvMG<EaROvv25Ip,0*16\r
+!AIVDM,1,1,,B,3:U6w<m000o?g1TKAUWqq5Vv0Dl:,0*34\r
+!AIVDM,1,1,,A,15OQ0V00017KSNL0e@Kn2@ft08B6,0*5A\r
+!AIVDM,1,1,,A,341;6l2OhOOWEIHDa9?QrRbp0RuQ,0*71\r
+!AIVDM,1,1,,A,13m5CH0000OW5o0Dc3I5KWRr08BE,0*5E\r
+!AIVDM,1,1,,B,139O990P1s0HLjtMa;2Ke?vrPHB=,0*0E\r
+!AIVDM,1,1,,A,13cSuf002P0fGQTHf?5PN0Jr0L0t,0*7B\r
+!AIVDM,1,1,,A,33IT?;?00O03KC`Lwll<iajv0000,0*37\r
+!AIVDM,1,1,,A,169<l?`u1<8K0HhFCNSTQkTv0HB7,0*55\r
+!AIVDM,1,1,,A,16KPj:@02?b0<5JDBis1nANr0D4=N9WvHE,0*1E\r
+!AIVDM,1,1,,B,13UGLH0P001ct>0Ef3mlJwvt0@B3,0*56\r
+!AIVDM,1,1,,B,13P:RO@P0107w5jN5IvJuwvv2D24,0*12\r
+!AIVDM,1,1,,B,15N5phP001ncfFNO50me<Eg025Ip,0*12\r
+!AIVDM,1,1,,A,40476Ciuho;NN9RNh8CcRt7000S:sWev3P,0*3D\r
+!AIVDM,1,1,,A,13aIjVh000PCtoNMd:?P07bvRD7t,0*14\r
+!AIVDM,1,1,,A,15Mj2u0001o>brnK=i72`Ibv05Ip,0*77\r
+!AIVDM,1,1,,B,13pr;k0000QEUfTO8:jI2B8v0<13,0*58\r
+!AIVDM,1,1,,A,139QfM00000oMPrNwsS@0:lp08B>,0*6C\r
+!AIVDM,1,1,,A,15N007gP00ISlQhA4dgdGOvt0<2b,0*67\r
+!AIVDM,1,1,,B,15N8ac?P00ITHe2@tpDK7wvv25Ip,0*0D\r
+!AIVDM,1,1,,A,15NIR@PP00ISc<<A6HBt2gvt0D5g,0*36\r
+!AIVDM,1,1,,A,14hW;J002m02rBlLwtqai7lt0D<O,0*72\r
+!AIVDM,1,1,,B,13aGFROP000Hns@NKkpaU?vv05Ip,0*06\r
+!AIVDM,1,1,,B,133sehgP000CvMpMEqS<9gw0PhB?,0*2F\r
+!AIVDM,1,1,,B,14eGr=P001L>fR@K=ji=jVhv00S8,0*2B\r
+!AIVDM,1,1,,A,13aDrnPP0pPD:7TMdEbcKwvtR@B@,0*53\r
+!AIVDM,1,1,,B,3815<9mP00acu4PCm<@I@1Tp0000,0*4F\r
+!AIVDM,1,1,,B,15N:M;PP?w<tSF0l4Q@>4?wp0VIl,0*3E\r
+!AIVDM,1,1,,B,15NIQB0001Jn1TtGbm;r;jjt0D06,0*3D\r
+!AIVDM,1,1,,B,13@nfK@P000rgKpOuPGh0?vn0<15,0*70\r
+!AIVDM,1,1,,B,402OSE1uho;NN1I2MhO7ahi00D1Q,0*61\r
+!AIVDM,1,1,,B,14``Dp00002>4OWfqgFiLQ`v05Ip,0*5C\r
+!AIVDM,1,1,,A,8000000Iv6BI`Ne<7s5N9@a18uJWlpeDmod8?TO8c@,4*75\r
+!AIVDM,1,1,,A,13P;>e@00twtL4<NfHh4JS8r0<0f,0*52\r
+!AIVDM,1,1,,A,13aDq0hP00PChlbMd>upGgvt2<3w,0*77\r
+!AIVDM,1,1,,B,402R3K1uho;NN1@bDTQplp100@BA,0*0D\r
+!AIVDM,1,1,,B,13GR1WPP0tPClBbMAWTo0gvvR8BA,0*11\r
+!AIVDM,1,1,,B,403rCpQuho;NNPHvipMdA@G005Ip,0*5F\r
+!AIVDM,2,1,0,B,53M4H602>SO<uc;77J1=HUA`E:0t@Dr22222220l2PB7740Ht?Akm21CPUDQ,0*4F\r
+!AIVDM,2,2,0,B,s1DhklU2CQk,2*60\r
+!AIVDM,1,1,,A,13uvtJ001U0mE3BPslP>0K<v05Ip,0*38\r
+!AIVDM,1,1,,A,13UPFd0021PjJG8PwVUU?TFr0UIp,0*7D\r
+!AIVDM,1,1,,B,403Owliuho;NMJs<S8H>j=i00L0I,0*76\r
+!AIVDM,1,1,,B,16Krfn?000vqIQ<@6bR`B06r0HB@,0*55\r
+!AIVDM,1,1,,A,15Wm7B00088dd;6AuHE5;Ilv08An,0*13\r
+!AIVDM,1,1,,B,16:Ctg`00b87RAN=<N:E9T6t0D6q,0*34\r
+!AIVDM,1,1,,B,16:MjN001D`Oit4>4NfB0iTt2<5V,0*76\r
+!AIVDM,1,1,,A,B6:j?mP00:;1C2TO?vl03wg4kP06,0*65\r
+!AIVDM,1,1,,A,400000Auho;NMIj1F0;gk0A02L06,0*43\r
+!AIVDM,1,1,,A,144awnPP002:GqPRB2`ot?vv05Ip,0*5B\r
+!AIVDM,1,1,,B,B69Etg@0B28>6uSRmHpIswg6kP06,0*0E\r
+!AIVDM,1,1,,A,35AUUl5000:0;KpD>r@d9Srt0P00,0*22\r
+!AIVDM,1,1,,B,14eGNL0000L>ffvK=kwdiVbr0<0?,0*26\r
+!AIVDM,1,1,,B,4025boiuho;NN0qgK<OodKW00HBC,0*4B\r
+!AIVDM,1,1,,A,402E3:0000HttPGEahN7pi701pBB,0*69\r
+!AIVDM,1,1,,A,83a3u:@j2d<dd=LuuhS0I3WE3h00,0*39\r
+!AIVDM,1,1,,A,35OaWH5P00r5gsV?pRW@8wvt0DoJ,0*67\r
+!AIVDM,1,1,,B,139dRBPP00PCml@MEJP00?vtR<8G,0*06\r
+!AIVDM,1,1,,A,139eVi0P00PRul6K=`?D=wvtR5Ip,0*71\r
+!AIVDM,1,1,,A,B3@oS60000>ESJ`09253Cwg5kP06,0*79\r
+!AIVDM,1,1,,B,13aJFm@P0OPHFwrMabT59gvvR5Ip,0*3C\r
+!AIVDM,1,1,,A,13HPIH0P0`P0e<pLCdbBP?vv0HB<,0*66\r
+!AIVDM,2,1,8,A,53@nfK@2;R6<u`h;80118Tq>18T<P58@000000153Qh9?4jT0<S0CQ4j,0*39\r
+!AIVDM,2,2,8,A,lSkP@0000000008,2*50\r
+!AIVDM,1,1,,B,4h2=aS1uho;NMOucgPO851A00D1J,0*5C\r
+!AIVDM,1,1,,B,143qbd02002I2VvIPKJ@0Fjt20Si,0*07\r
+!AIVDM,1,1,,B,13aFfs0P1;PG8bpMglAq7gvv2<0@,0*1A\r
+!AIVDM,1,1,,A,13P<MngP00wi==FNu5rP0?vv25Ip,0*19\r
+!AIVDM,2,1,3,B,56:@<UP000008hLo@01PTpLhtpM`PuGGD00000168@F484nb07i0EhCQhCQh,0*01\r
+!AIVDM,2,2,3,B,00000000000,2*24\r
+!AIVDM,1,1,,A,33bpan0PANPDmslMb5lcsqHt2000,0*1B\r
+!AIVDM,1,1,,B,13dnd@0000Q2kOTNU?m=h@Ht05Ip,0*46\r
+!AIVDM,1,1,,B,38IF@T1004R?49ig0Dc1GS`t0000,0*78\r
+!AIVDM,1,1,,B,4030p:Auho;NMn`erRO<Wno005Ip,0*01\r
+!AIVDM,1,1,,A,E028is0Va1Qh;0V2W1TPh@@@@@@Ow?p`;B?f`00003v0100,2*38\r
+!AIVDM,1,1,,A,14VbQD0P00FcCd8O4c0;E?w000Rk,0*4F\r
+!AIVDM,1,1,,A,23NCqt501N0>VNrMI24LEJ0v2<:P,0*52\r
+!AIVDM,1,1,,A,13aEPAPP00PDGRNMDF8@0?vv2L58,0*15\r
+!AIVDM,1,1,,B,15NL:U?000o?;<NK4JLV1UI008BB,0*60\r
+!AIVDM,1,1,,A,169jM20P008VeTLD`wSiQgvv00Sw,0*05\r
+!AIVDM,1,1,,B,34`cS81000Phg>BPwQjnNFNt0000,0*28\r
+!AIVDM,1,1,,A,13u=I:?000PlJB8QF46coHdt00T?,0*36\r
+!AIVDM,1,1,,B,33bPC@002twVpT4OD7@4EkRp0000,0*27\r
+!AIVDM,1,1,,A,13aJH9UP0sPGwJ@MgsusSOvv2D1t,0*22\r
+!AIVDM,1,1,,B,139e6dPP00PPGojMO:a@0?vvR@B;,0*16\r
+!AIVDM,2,1,6,A,56Toj`02;CihA<pGD005<T60EQ18E=<00000000::@I984oPN>jT850D00000000,0*62\r
+!AIVDM,2,2,6,A,0000000,2*22\r
+!AIVDM,1,1,,A,140UtNUP?w<tSF0l4Q@>4?wv0`BG,0*74\r
+!AIVDM,1,1,,A,16KJct@000abkKdCmaCW>c6p08AQ,0*58\r
+!AIVDM,1,1,,B,B3fJt<h087oM487pdkqeswg5kP06,0*7E\r
+!AIVDM,1,1,,B,13FvC@0000vqL:2@6NM:945005Ip,0*2C\r
+!AIVDM,1,1,,A,13P9<@P01hwr`6`M2Mk2A1hr0D29,0*45\r
+!AIVDM,1,1,,A,13pr=V0P0011CL:Nn<s@0?vr0D0K,0*33\r
+!AIVDM,1,1,,B,4@2OV41uho;NM12gURNpnui008Aq,0*12\r
+!AIVDM,1,1,,,33P<CjPOh2P99JbMa2M9whi001;0,0*39\r
+!AIVDM,1,1,,B,344jJE50000W@;RN`;pTdh@r0000,0*37\r
+!AIVDM,1,1,,A,13aEP2hP00PRhv<K>eHDRwvd2<0f,0*09\r
+!AIVDM,1,1,,B,13M@D?PP@2wqWg`M7HwC`Rpt00Si,0*7F\r
+!AIVDM,1,1,,B,13u>=K00000reQ4Oumn7lJ=00D1H,0*70\r
+!AIVDM,1,1,,B,13fJrG001swK7JNDhw:l73Dv0UIp,0*14\r
+!AIVDM,1,1,,A,23`spfwP000CTu4MGwHI1ww02HBF,0*60\r
+!AIVDM,1,1,,B,13bWHH001dP9ThtMFw50bPe00<0d,0*20\r
+!AIVDM,2,1,1,B,533nQi400000uC?KGN118E=@v22222222222221S90;484ma06@CU5iDT1C`,0*15\r
+!AIVDM,2,2,1,B,88888888880,2*26\r
+!AIVDM,1,1,,A,14QsEw@01W0p`grV9BqMjc2v00Sd,0*7B\r
+!AIVDM,1,1,,B,16:;D?PP008Jt6HFB`A00?vv2L4d,0*14\r
+!AIVDM,1,1,,B,23P:lP?00BPCS88MFe;p=nap0UIL,0*48\r
+!AIVDM,1,1,,A,13qG:f5P00QDs8tO<f<u:gvt0000,0*02\r
+!AIVDM,1,1,,A,601uEPlhuaCB<P<j00,4*5E\r
+!AIVDM,1,1,,B,402M3UAuho;NN0JioPQS=p700D1o,0*7E\r
+!AIVDM,1,1,,B,13LAmf001R0K976Qtt4aIWTv05Ip,0*05\r
+!AIVDM,1,1,,A,13n9dE?P000J@K6Qg`dq4gw020SE,0*39\r
+!AIVDM,1,1,,A,39NP01002C2>cu1fmcHP0s>r0001,0*17\r
+!AIVDM,1,1,,A,13brRt5P10PGg5BN=gemCwvv25Ip,0*67\r
+!AIVDM,1,1,,A,16K8D??000aw@KnDCDNhPj:t0<3b80Sv0q,0*75\r
+!AIVDM,1,1,,,19t6hQhP1707UQ2Mlqahjwvp0@BH,0*23\r
+!AIVDM,1,1,,A,13uPGH?000Pr4tHP4KSn154t00R<,0*13\r
+!AIVDM,1,1,,B,33AiNN3Oh911K5hNniD=Dc900000,0*28\r
+!AIVDM,1,1,,A,16KPia0031awK8`D5;1947Ft08B<,0*30\r
+!AIVDM,1,1,,A,13aDpd@000PCtEnMC024aBCp0hBI,0*52\r
+!AIVDM,1,1,,B,14eHEHwP00o=89vL85tqPgvv25Ip,0*4F\r
+!AIVDM,1,1,,B,14eGECP01NG;SD:L;f67=Ebp0@AC,0*42\r
+!AIVDM,1,1,,A,14eGMFhP0EG<os`L=CTnSgvp05Ip,0*46\r
+!AIVDM,1,1,,B,34eGbk@01bG=B<nL9bIbS`Rv00s0,0*28\r
+!AIVDM,1,1,,B,15?Hul001KG<IHPL=cNcpaTv0TSd,0*40\r
+!AIVDM,1,1,,A,14eHBuwP00G<7ShL6tBrwwvt08B=,0*22\r
+!AIVDM,1,1,,A,14eGkl@000G<c4PL=5I:51dp0D1r,0*1A\r
+!AIVDM,1,1,,A,16TwjF001gawpU`DBCma<GDv28BD,0*27\r
+!AIVDM,1,1,,A,14hP>602P2sGVD`:S@11O2K00@BF,0*6E\r
+!AIVDM,1,1,,B,24S8Dh5000PCSfBMH=jF=Tvt0HBJ,0*0A\r
+!AIVDM,1,1,,B,16:B?rP0008Jr>JFC`aWvPlv05Ip,0*50\r
+!AIVDM,1,1,,A,833mIq0j2d=d<<uuMR?hqgbm01L0,0*32\r
+!AIVDM,1,1,,A,16:APd00008f0MdA8:CKuC6t0@Al,0*4B\r
+!AIVDM,1,1,,A,16K2;Kh01IawtNdDG1w<P:2r00RV,0*17\r
+!AIVDM,1,1,,B,403t>VQuho;NN`eGv@A:b47000S:,0*21\r
+!AIVDM,1,1,,B,169@8I00018fME`A;<hCQ9>t28As,0*6A\r
+!AIVDM,1,1,,A,169FEq0P008LMbB=wjCpcOvt2<1i,0*78\r
+!AIVDM,1,1,,B,369E6B5P008feb`A6TCcdkLj0000,0*5E\r
+!AIVDM,1,1,,B,12vw<IAP1C8gKu@A4eI71?vt00S@,0*61\r
+!AIVDM,1,1,,A,14eH0u0000G=NR8L:=@u3Bfv05Ip,0*36\r
+!AIVDM,1,1,,A,139HhvPP1V0I7AHMd?QJk?vtP5Ip,0*6C\r
+!AIVDM,2,1,5,B,55>wd`02:LJK<He3N20m<>1<u0PTF22222222217FA0,0*23\r
+!AIVDM,2,2,5,B,6J4o<NGC2ESlSSp8888888888880,2*4B\r
+!AIVDM,2,1,5,B,53q6HP01?7MA=0O;CW1Lta@Df22222222222220010D444nh08ii0CTjp888,0*60\r
+!AIVDM,2,2,5,B,88888888881,2*23\r
+!AIVDM,1,1,,A,13aGt>PP00PD>@JMe3:h0?vvR5Ip,0*70\r
+!AIVDM,1,1,,B,177>st0027wNoEbD2mi1TiG00<2W,0*39\r
+!AIVDM,1,1,,A,39NRt;50008VCBHD`t?2iT`v0000,0*2B\r
+!AIVDM,1,1,,B,13P;ta?P1<OgHa`Nsm@IC?vr05Ip,0*47\r
+!AIVDM,2,1,9,B,53u?dU000001<la:220<5=@Dhh622222222222013`T5840Ht8mPF23k3H88,0*0D\r
+!AIVDM,2,2,9,B,88888888880,2*2E\r
+!AIVDM,1,1,,A,148Onl0P000hL0FQ1`1G2?vp0pBC,0*68\r
+!AIVDM,1,1,,A,13evQr0v00PiIFpQ0>nQn`<r28BK,0*37\r
+!AIVDM,1,1,,B,169UB>00008LP3R>1?qP09jt20Rj,0*4B\r
+!AIVDM,1,1,,A,33psAwU001Q1AL`Nn9Asmp>vP000,0*64\r
+!AIVDM,1,1,,B,139QotS001P7v`pN5QEKOp`t25Ip,0*06\r
+!AIVDM,1,1,,B,F030p?j2N2P73FiiNesU3FR10000,0*32\r
+!AIVDM,1,1,,A,15MwB1P00dqOMmRBPm;<AIm00HBH,0*4C\r
+!AIVDM,1,1,,B,13P<A50000wnKLpPdgqVh`<t05Ip,0*59\r
+!AIVDM,1,1,,B,13aGCpwP1<0G7M@MggsI??vtR8BM,0*45\r
+!AIVDM,1,1,,B,402E34iuho;NNPGoPJNQwwG005Ip,0*47\r
+!AIVDM,1,1,,A,13cEtn001oPF8=@N`5eqe7hr00Sf,0*67\r
+!AIVDM,1,1,,B,13c::t0023PH0hlNPbt:o8bt0@B:,0*66\r
+!AIVDM,1,1,,A,13e89L0P020D27`MdtCpSgvr0<4`,0*79\r
+!AIVDM,1,1,,B,169pP6P0008Jwk@FCGu556Fv0HBG,0*0F\r
+!AIVDM,1,1,,A,13a8FF000000d@PLCeRbbGFr0<1P,0*2F\r
+!AIVDM,1,1,,B,13`qJhOP020BTDFMMuh@gOvf2D67,0*3F\r
+!AIVDM,1,1,,A,34QsFQ@PAc0CwQ4SABBWCUht0000,0*08\r
+!AIVDM,1,1,,A,13PP2d001t0r:>POjgC6kmPt00T3,0*53\r
+!AIVDM,1,1,,A,14`VfR80001EFj:O6rW:L5Rv05Ip,0*4C\r
+!AIVDM,1,1,,A,1442=T0000RBIJ0Jko=bH@hv2@BN,0*16\r
+!AIVDM,1,1,,B,16:=:T0k00WkuCD;B6jEm?vD40BC,0*5B\r
+!AIVDM,1,1,,B,3344Ib0qh@P<al<MHj?IGidv00vP,0*39\r
+!AIVDM,1,1,,B,15NM:hPP00J6buv?vE8uvOwH0L0G,0*21\r
+!AIVDM,1,1,,A,19NS3T@1B2P2b4`LuF99tGtr05Ip,0*77\r
+!AIVDM,1,1,,A,403t=1Quho;NN`TOr0D1UO700L6k,0*01\r
+!AIVDM,1,1,,A,36K8Do@01sawLF`DB314S3g000tP,0*16\r
+!AIVDM,1,1,,A,16KDPk0000:1BorDER>Mk04v0D26,0*08\r
+!AIVDM,1,1,,A,19MVHE02jCwAdrPFSWk72U`t0hAa,0*76\r
+!AIVDM,1,1,,A,15A`Ad0025w?a3hEplK0:06t0<18,0*3C\r
+!AIVDM,1,1,,B,402PeD1uho;NMOF:<`EwUOi00HAg,0*59\r
+!AIVDM,1,1,,A,13=:vl001qOBruBEovN0U@Lv0<0p,0*70\r
+!AIVDM,1,1,,A,15Ap5J0000`e2K<FDNF5t1hv0@BH,0*32\r
+!AIVDM,1,1,,A,13aEQw@P000D0NLMDt@J0gw0R0R4,0*13\r
+!AIVDM,1,1,,B,13cW`J02120e:W>I=HnLmbI00@BM,0*29\r
+!AIVDM,1,1,,B,15V5C2?Oh0PD<K`MdII=fJi000RM,0*66\r
+!AIVDM,1,1,,B,33P7JTP7QaOrtJ`M3Tq8NW2t0000,0*54\r
+!AIVDM,1,1,,B,15MssJP000rmCoLGS6fujahv05Ip,0*21\r
+!AIVDM,1,1,,B,13oKt00P4g0rKbhUw@Ub;ww00D0P,0*3D\r
+!AIVDM,1,1,,B,13aJGs0P010FDenMaDTnF?vtP8BP,0*33\r
+!AIVDM,1,1,,A,13`e>ph000PDL2RMdodqArDv00SS,0*5D\r
+!AIVDM,1,1,,B,13nV6d001N0Jdt:Qi`W@uPk00@BL,0*2D\r
+!AIVDM,1,1,,A,13n?i050000JC`PQcrjRPh2t0L0d,0*0E\r
+!AIVDM,1,1,,B,15QWF@001Iwqcb<M6tIU54<r0<33,0*32\r
+!AIVDM,1,1,,B,15Mv:g0P01ISPrhF=tCJ7gw00HBO,0*12\r
+!AIVDM,1,1,,A,139cNL0P0iPH`P>Man;11gvvR0SO,0*33\r
+!AIVDM,1,1,,B,333g7PcP00PD;nTMDum9POw0R2jA,0*0B\r
+!AIVDM,1,1,,,14aCq:3v00P8P5fMdgKiL1:t00RW,0*7F\r
+!AIVDM,1,1,,B,13aJHWhP07PD3qtMddO1;wvv2D3w,0*43\r
+!AIVDM,1,1,,B,137bHJ0vjgPA6f>Mjwk1;wvv2D3w,0*30\r
+!AIVDM,1,1,,A,13usMh000POj<92NULQn34tr08At,0*21\r
+!AIVDM,1,1,,B,13I``20000ORgqRQCTvJ7:en0@R?,0*64\r
+!AIVDM,1,1,,B,13cbc100092=n4qflj`0o2@r00Sa,0*34\r
+!AIVDM,1,1,,B,13P;R?@w@2PfpRHI62f=oWrt05Ip,0*2C\r
+!AIVDM,1,1,,B,B3q5DSP000ELSU7iVpT03wgUoP06,0*3B\r
+!AIVDM,1,1,,A,15N:tN?000J5CEB?mUtbH6?005Ip,0*04\r
+!AIVDM,1,1,,A,16:;Lcg0008cbdREOMEq<Arv08B0,0*27\r
+!AIVDM,1,1,,A,18KUTLCwP08cfOPEPc<0@`pr2HB2,0*0D\r
+!AIVDM,1,1,,B,403t@sAuho;NN`Fdad=C03Q02D4V,0*12\r
+!AIVDM,1,1,,B,403t:cQuho;NN`d@3bEOT<o00@BB,0*7F\r
+!AIVDM,1,1,,A,133rAuPP00PCu66MF0Bas?vv2HBR,0*09\r
+!AIVDM,1,1,,A,13aGurPP000H=sBMd6CFa?wP25Ip,0*2C\r
+!AIVDM,1,1,,A,139@R5@P0mPKIN>MCw5q=OvtR@BL,0*04\r
+!AIVDM,1,1,,B,4030p2iuho;NNrC1VPHplhG000S:,0*64\r
+!AIVDM,1,1,,A,13P<i1h02nwhKvvN`pprspft0D0v,0*3F\r
+!AIVDM,1,1,,A,15Mv7aPP00IRbAdA90Ocw?vt08B9,0*4E\r
+!AIVDM,1,1,,A,15N9W2dP01ISGJHA7aU=<ww00HB?,0*2C\r
+!AIVDM,1,1,,B,15Mv:<0P00IRoQTA9I4ql?vv0D4s,0*19\r
+!AIVDM,1,1,,B,15N0Bm0P00ISwrtA8E;br?w02HBC,0*6F\r
+!AIVDM,1,1,,A,15NGI>PP01ITHgJA7IqW4?w025Ip,0*4E\r
+!AIVDM,1,1,,A,15Mu5Q0P01IT5PPA7sEH3?vv08BF,0*3F\r
+!AIVDM,1,1,,B,36:nsn1000`LO7<FBBh@:4G02DS:,0*08\r
+!AIVDM,1,1,,B,840UuGPj2d=t<<NM<R``qhOH50t0,0*69\r
+!AIVDM,1,1,,B,54WeVB40?EB5`<5WF20<u84j0U<h4pB22222220U38g686L609@CU2@QDp8888888888880,2*6A\r
+!AIVDM,1,1,,B,402;bJ1uho;NNPQRb`Hwdio005Ip,0*78\r
+!AIVDM,1,1,,A,33aGCUhP07PHS0`M`jL;e?vnR7BS,0*34\r
+!AIVDM,1,1,,B,4h3Ovk1uho;NMo>jPHEdjdW008Ac,0*22\r
+!AIVDM,1,1,,B,4h3Ovkiuho;NMoALddEhnU7005Ip,0*74\r
+!AIVDM,1,1,,B,4h3OvkQuho;NNo?UhFEf=Ko00<0u,0*68\r
+!AIVDM,1,1,,A,15?UbD0PAjaacTpCks5:H8Fv0HBI,0*05\r
+!AIVDM,1,1,,A,18159fP0B4OUQklDS<>kIBe00HBB,0*76\r
+!AIVDM,1,1,,B,402FhaQuho6O:0dsn<I=k<i00H6A,0*3C\r
+!AIVDM,1,1,,A,13u=JE0P000mGjdQ1KpG=gvr00Ro,0*68\r
+!AIVDM,1,1,,B,13uRcl00000ngChQ1W6J:0U00<1N,0*4A\r
+!AIVDM,1,1,,A,13uB5bgP000nVFdPv6iJtgw020RC,0*2D\r
+!AIVDM,1,1,,A,1073FohP1PPGag2Mha0D>?vv25Ip,0*7F\r
+!AIVDM,1,1,,B,16S`@e000Ga3Ko:EJ?@i0W@wr<41,0*0D\r
+!AIVDM,1,1,,A,36K2;iPPAHawLtbDC5vauGq02000,0*19\r
+!AIVDM,1,1,,B,13P<Bn@01q070H@NEEA5tTvt0<1m,0*20\r
+!AIVDM,1,1,,A,133gcLg0000CjD4MG2:uebbt0<7g,0*5B\r
+!AIVDM,1,1,,A,15OK5d0000G@0JTK=3W`Kjq008BR,0*54\r
+!AIVDM,1,1,,A,13iHfh0000P>`:4MHBSWHWK008BU,0*33\r
+!AIVDM,1,1,,A,13aEPj0000PCbChMdC2jsGthP@BU,0*7D\r
+!AIVDM,1,1,,B,13aGFa@P00PCoatMGdJLP?vv0HBT,0*36\r
+!AIVDM,1,1,,,33@oN7POhbP6Wb:MRq9Q>i<N0P00,0*0E\r
+!AIVDM,1,1,,B,13aENshP00PCW1lMHFh90wvrPd56,0*79\r
+!AIVDM,1,1,,A,177U<t003A0O=JHNjRM382Q00<5P,0*32\r
+!AIVDM,1,1,,A,13IL?4?000PA:DRHn>lIHSRv0@B:,0*12\r
+!AIVDM,1,1,,B,13aGEMPP00PDJt4MdRfiA?vv2<7K,0*6F\r
+!AIVDM,1,1,,B,13oaCN00000KK9HQLTJ2Brdt0`BV,0*30\r
+!AIVDM,1,1,,A,169<rfPP008K2m>FCM2@0?w000SB,0*41\r
+!AIVDM,1,1,,B,13P7jqGP0bOVuFtLnul`GOw00@BU,0*33\r
+!AIVDM,1,1,,2,133nDmPP00PA?5jM@Ail6?vtR0SA,0*60\r
+!AIVDM,1,1,,A,13aI8sPP00PGh>LMaW:h0?vv2D4S,0*7D\r
+!AIVDM,1,1,,B,13QKCb001>00VBtNuDEVGU8t05Ip,0*7D\r
+!AIVDM,1,1,,A,133mvW0P00PD=m`MDOMTLOvt2<6q,0*08\r
+!AIVDM,1,1,,B,13aI9wwP000H86nN9N>h0?vv0@BW,0*7B\r
+!AIVDM,1,1,,A,13uBDlP000QD0:HQwBjVGaa008BW,0*3E\r
+!AIVDM,1,1,,A,1CMKsr?0001dJB0Ee4I9fVfv0000,0*75\r
+!AIVDM,1,1,,A,13aJG=OP0vPDFC2McsJ0Iwvv2L7w,0*28\r
+!AIVDM,1,1,,A,13aGFHgP01PD:B>ME1v<;gw0RD:R,0*7E\r
+!AIVDM,1,1,,B,343lJh0P@02I25:IPMmW4E`v01uh,0*1C\r
+!AIVDM,1,1,,B,13mAq`0P000J@glQebp`d?w008B`,0*3B\r
+!AIVDM,1,1,,A,339>RE00000eFhnNaD2P000@07p3,0*1E\r
+!AIVDM,1,1,,A,14RQDb5000P5wV0MfWU=;aPr0HBP,0*71\r
+!AIVDM,1,1,,A,13@oa4CP0006Oh8MRN`0N?w000Sc,0*53\r
+!AIVDM,1,1,,B,1670JP?P?w8VC1lDVov>4?wp08BN,0*55\r
+!AIVDM,1,1,,A,13Q=A>00000EF@dMbi>7b4Jt00Rr,0*27\r
+!AIVDM,1,1,,B,233WuF001NPCidHMEt?7vFLv0<7<,0*23\r
+!AIVDM,1,1,,A,13qEU:000012kpTNUWb000Vt08B3,0*76\r
+!AIVDM,1,1,,A,13aGDhwP00PH:VnN9L3TB?vj28Ba,0*07\r
+!AIVDM,1,1,,B,14QsF8PP1e08iF@N;VQDu?w005Ip,0*48\r
+!AIVDM,1,1,,A,16:I@q`0008KwuvFBt3Q`l4v2<6r,0*22\r
+!AIVDM,1,1,,B,133v<FPP00PChoTMd:rMegvvPHBa,0*4D\r
+!AIVDM,1,1,,A,133q`tWP00PD<wlMDGP:0ww0RL7J,0*01\r
+!AIVDM,1,1,,B,13aGFRwP000HnmdNKlWFGgw00<1h,0*67\r
+!AIVDM,1,1,,B,13R3L10P00Qd>4JEeTv=jgvv0HBa,0*47\r
+!AIVDM,1,1,,A,15N4btP001G?gh2KAWCuG0C<0PSP,0*6A\r
+!AIVDM,1,1,,B,13aDrhPP00PGQM2MVaRpuwvv28Bb,0*51\r
+!AIVDM,1,1,,B,433wH8Quho;NOPBe3jM=A`700HBa,0*2C\r
+!AIVDM,1,1,,A,13P6>F002sOiLkDNniik7jRsH0SD,0*66\r
+!AIVDM,1,1,,A,302>3a0P000O3l@MqHHAA?vdR2>Q,0*65\r
+!AIVDM,1,1,,B,14QsEe50000D@ERMcpst6I8v0P00,0*0C\r
+!AIVDM,1,1,,A,144mlC00008VgitDaT@qUS>v00Rd,0*79\r
+!AIVDM,1,1,,A,233R2L?P1APCTB8MFfNb1gvv25Ip,0*33\r
+!AIVDM,1,1,,A,13uk6V0008Pt=>0OcjQ3S0@r00RK,0*29\r
+!AIVDM,1,1,,A,13LBwt0000Oe7F:LlIlh3c5208BS,0*6B\r
+!AIVDM,1,1,,A,H1aucil00000000P000000000000,0*7D\r
+!AIVDM,1,1,,B,168rUi000086Ect<SaI003pt28B8,0*08\r
+!AIVDM,1,1,,A,15Ms29P000rdt7jGA6M9e0op0`B`,0*34\r
+!AIVDM,1,1,,B,13aDA`hP00PD=0FMDGHP0?vvR@Bb,0*2F\r
+!AIVDM,1,1,,A,16:B5QP00p8N0<J=pL21jhlt25Ip,0*0B\r
+!AIVDM,1,1,,B,16:BLJP000`fD;BA6V`8uGfv25Ip,0*62\r
+!AIVDM,1,1,,B,B69@GN00MR;ee44@q;v7?wg71P06,0*31\r
+!AIVDM,1,1,,B,169DrE8P008gisVA80aAGOvn0PRf,0*3E\r
+!AIVDM,1,1,,B,4h4SGT1uho;NN`9JiH<lSFW00<:j,0*39\r
+!AIVDM,1,1,,B,169C?90P018g2?hA8tt559nl0UIp,0*1B\r
+!AIVDM,1,1,,A,B69A5U@3wk?8mP=18D3Q3wSRP51L,0*50\r
+!AIVDM,1,1,,A,13lDqf0000`djftAswpBWqFt05Ip,0*38\r
+!AIVDM,1,1,,B,403tB7Auho;NN87B5>==o@i00@B8,0*21\r
+!AIVDM,1,1,,A,16:><HgP048dAN2At8eiI?vr0<71,0*7A\r
+!AIVDM,1,1,,A,16:=G>0P008dL2`Av@M=uwvv2<80,0*7E\r
+!AIVDM,1,1,,A,14RGWT000LPT2H4NookRdA@t0d2p,0*73\r
+!AIVDM,1,1,,A,169DddP00`8d@FlAveS;e9Dv0<?k,0*56\r
+!AIVDM,1,1,,A,15@Tu6001q`cANjB4iAtP:0v2<<h,0*0F\r
+!AIVDM,1,1,,A,144iOF?P008Vjj8Db3O`sww`08O3,0*13\r
+!AIVDM,1,1,,,33aGtUP01GPIWE<N8=:qvWvvR0v@,0*34\r
+!AIVDM,1,1,,A,16:oO0002:`iBwVAf3rkKjU00HBD,0*5E\r
+!AIVDM,1,1,,B,13a9980Oh>0=KqPMCtmf0P=00D4W,0*3B\r
+!AIVDM,1,1,,B,13P:scPPAFOnR`LPda?I8oA008BG,0*0D\r
+!AIVDM,1,1,,A,15NLPaPP01ISl=BA4cOcLgvv0D2`,0*2E\r
+!AIVDM,1,1,,B,15NCl0PP00ITIqJ@u6as7gw025Ip,0*27\r
+!AIVDM,1,1,,A,15NLq9?P00ITDtvA7b8J8Ovv08BJ,0*4D\r
+!AIVDM,1,1,,A,152GQ5@P01ISGJ0A7aqu9Ow00D4c,0*04\r
+!AIVDM,1,1,,B,15MvoiPP01ITAbBA5o`okOvr0D33,0*21\r
+!AIVDM,1,1,,B,15Mv7i0P00IR`8jA952;bgvv05Ip,0*70\r
+!AIVDM,1,1,,A,15N1bO?P00ISu26A5f8spgvv0<0t,0*72\r
+!AIVDM,1,1,,A,15MwwagP00IRI7tA8J4r<?vv05Ip,0*62\r
+!AIVDM,1,1,,A,169msd00008Jr2<FCUgb@FE00<ao,0*48\r
+!AIVDM,1,1,,B,402R3Wiuho;NO0tgk6OgcC1000S:,0*1A\r
+!AIVDM,1,1,,A,802R5Ph0Bk=>aPG>MjGa0PE0`7wwwwwwwk9Owwwwwwwwwwwwwwwwwwwwwwt,2*4E\r
+!AIVDM,1,1,,A,13P:`:0P00OwbD:MN99A4wvv08Bd,0*7F\r
+!AIVDM,1,1,,A,18Kiej02BCc0=EogNWcG5Env0UIp,0*2B\r
+!AIVDM,1,1,,B,343`I>0Oh0RBRGNJo=6@01Ft09n@,0*10\r
+!AIVDM,1,1,,B,4030p:iuho;NNncN;jO42H700L0I,0*59\r
+!AIVDM,1,1,,A,15V9dB1OQ<0WTgVNoGimKT:v0<1v,0*00\r
+!AIVDM,1,1,,B,13aC22hP000Ct?BMBwpP0?vt05Ip,0*2E\r
+!AIVDM,1,1,,A,34ec@45000t>fspK=mF3L6dv0000,0*7F\r
+!AIVDM,1,1,,A,11@kDK1P?w<tSF0l4Q@>4?wv0PS@,0*48\r
+!AIVDM,1,1,,A,13HNvh?P00PFkdrHmAIJKww025Ip,0*1A\r
+!AIVDM,1,1,,B,402;bK1uho;NO0bmd8HVqu700D1Q,0*12\r
+!AIVDM,1,1,,A,13nUk:0P010KGH2QLhnuIww00HBe,0*21\r
+!AIVDM,1,1,,B,18IASj01jT0FSf8NoAg01c;005Ip,0*0B\r
+!AIVDM,1,1,,A,18L3f80PAm0OUPTNU:tdA9nv08BU,0*22\r
+!AIVDM,1,1,,B,33P:owh00=OhSUTNbbD2g1lv00v0,0*45\r
+!AIVDM,1,1,,A,13aGCVhP00PD@P@MdLEAugvpRD81,0*01\r
+!AIVDM,1,1,,B,15MvdBPP1fG?g26K9SkuMOvv05Ip,0*71\r
+!AIVDM,1,1,,A,36K2DrP02KabIgpCjCBkiRpv0000,0*56\r
+!AIVDM,1,1,,A,133nU=0P00PD<7:MDut00?vv2@Be,0*36\r
+!AIVDM,1,1,,B,14eGDhhP01G<AL<L3EsFWgvr0<1p,0*2B\r
+!AIVDM,1,1,,A,139a220000PeJU>N`kvLQBq00<3f,0*1C\r
+!AIVDM,1,1,,B,133ivDPP0WPD4rVMDLIr1gvv2D6C,0*07\r
+!AIVDM,1,1,,A,13boGl0000NqJ1H@6aT<LEa008Be,0*06\r
+!AIVDM,1,1,,B,15N;4c?P00r6Ukp?vSQULOw025Ip,0*02\r
+!AIVDM,1,1,,A,16KDO?P01pawhnvD<:Ada:702<5?,0*26\r
+!AIVDM,1,1,,B,133uEbPP1A0CsQVME9K5`wvtP@Bf,0*5F\r
+!AIVDM,1,1,,A,16K2<4P000awMRdDCJMh01Tt0L3l,0*37\r
+!AIVDM,1,1,,A,13Ta3`00001d9G<EeLTP0Ddt20SR,0*5A\r
+!AIVDM,1,1,,A,15SWlr001Nn`PT4O5Bs3B2lt00S<,0*06\r
+!AIVDM,1,1,,A,8000000Iv7EQOPp:GdPMVKJpnmiuGOpdCUwCm7kS2h,4*53\r
+!AIVDM,1,1,,B,35NBif0005Jj@<<G`9F29PTv013A,0*17\r
+!AIVDM,1,1,,B,15N97V000@G?eKpKI1r;E6o00<1:,0*30\r
+!AIVDM,1,1,,B,13mkLP0th00J94lQh2pclr:v2<14,0*7B\r
+!AIVDM,1,1,,A,1344Eh0u00P=KuhMCulkrqRv0hBg,0*51\r
+!AIVDM,1,1,,A,403t;4Auho;NO`VW4HD`0R7008Ba,0*14\r
+!AIVDM,1,1,,A,33`gl2001MPGvqjNPf=d;avr00ni,0*01\r
+!AIVDM,1,1,,B,13c<c6?0000HA`PNQh5006KV0@BB,0*32\r
+!AIVDM,1,1,,B,13b=DJ0P00PGpB2NQv3:4gw02L1N,0*74\r
+!AIVDM,1,1,,A,13HO`UPP0100Q9JLD:L3Uwvr0HB5,0*51\r
+!AIVDM,1,1,,B,13HP0i00000Fl;THm@sEATVv0<0p,0*39\r
+!AIVDM,1,1,,B,15NHOsg00Sqt=iFFHqDUWTQ005Ip,0*08\r
+!AIVDM,1,1,,A,6h2E:p<jK8cR04<0@00000000000,0*29\r
+!AIVDM,1,1,,A,15EE9n00008JrupFCkd63a:v08Bb,0*7A\r
+!AIVDM,1,1,,B,13P<3fhP1aOjTL>NrdSASgw025Ip,0*72\r
+!AIVDM,1,1,,A,E028iv0Va9Qh1Pab2V67W@@@@@@@034g;KoT`00003v0100,2*6C\r
+!AIVDM,1,1,,B,4030p8iuho;NOo4aijL:KHG00L04,0*08\r
+!AIVDM,1,1,,B,13M@Glh0?w<tSF0l4Q@>42Sp0d1>,0*75\r
+!AIVDM,1,1,,B,402VqOQuho;NPQK1llO@W1W00HBi,0*0B\r
+!AIVDM,1,1,,B,39NWvkh028OAHP@FKVr6rUTv0000,0*35\r
+!AIVDM,1,1,,A,13o5j2000g8VeGhDaSpS0RJt0<<J,0*26\r
+!AIVDM,1,1,,B,402;bAAuho;NOwpAmfHm9=o005Ip,0*0D\r
+!AIVDM,1,1,,B,14a:WJ001hwW2iPMBWUPe0i00L08,0*31\r
+!AIVDM,1,1,,B,1CRCM10P17QcAP2EMUl4C?vt2P00,0*54\r
+!AIVDM,1,1,,A,13P<A5S001wruv6M4R7GHP4t05Ip,0*51\r
+!AIVDM,1,1,,B,13q5E<gP00Q2`BLNT@80bwvvR<0K,0*72\r
+!AIVDM,1,1,,A,139H48PP01Pb0=8NnC1adwvp0<1g,0*23\r
+!AIVDM,1,1,,B,13ebDt00hEPamo8NmTSQhQLl05Ip,0*66\r
+!AIVDM,1,1,,B,139IHUPP0V0apSlNmaa`U?vnPD17,0*11\r
+!AIVDM,1,1,,A,13KFhN001GP`V?PNkVl3SRfr00T0,0*2D\r
+!AIVDM,1,1,,A,139IQJPP010ao:8NmOJ7Kwvt0D1E,0*5D\r
+!AIVDM,1,1,,B,4020s=iuho;NNPan`pNmQ0W00<00,0*2B\r
+!AIVDM,1,1,,A,139aC6PP000aoqHNmcEh0?vt08B7,0*13\r
+!AIVDM,1,1,,B,839eMKPj2d<<<<<<<0000@O=0000,0*16\r
+!AIVDM,1,1,,B,14QsE`P2@i0aie<NmHQRiRDt0@BV,0*0A\r
+!AIVDM,1,1,,A,139JP2?P00PanwnNmWg90Ovv2<1@,0*36\r
+!AIVDM,1,1,,A,13lW=V000?PavM2NmBv3`2jt0<1Q,0*47\r
+!AIVDM,1,1,,B,402;bM1uho;NO0OGdBHmop700<1f,0*06\r
+!AIVDM,1,1,,A,16K2=KP00pawmP<DCE54Ukbv0D4VSfkv0q,0*0F\r
+!AIVDM,1,1,,A,33aG?N000=0Co7TMdHJU:IIp0P00,0*57\r
+!AIVDM,1,1,,B,16SWoKP000a3T<@ELDnP00Dv00Rt,0*7F\r
+!AIVDM,1,1,,B,13UiLL0P001dJFHEe0LP0?vv05Ip,0*55\r
+!AIVDM,1,1,,2,13aGDlgP000@knlM>wC@0?w00<09,0*3D\r
+!AIVDM,1,1,,A,13aDq3pP00PHCNjMg?IDOgwf28Bk,0*1E\r
+!AIVDM,1,1,,B,15NKnRg00HqS;udF9IF1?0u00<0f,0*6E\r
+!AIVDM,1,1,,A,16LMMP0001awBgvDC<2Ie2ft0HAvpmgv0q,0*7E\r
+!AIVDM,1,1,,A,15E1<P0P0R`T4E:CtJVBfwvthHC1,0*6F\r
+!AIVDM,1,1,,B,177k0R9003`:S>L<h?b00C@t0HBN,0*66\r
+!AIVDM,1,1,,A,36:QhC1P00`Rs=T>pA4@0?vv0000,0*5E\r
+!AIVDM,1,1,,A,16:Cqb0P058ccPREO>8dQgvv2@BF,0*3C\r
+!AIVDM,1,1,,A,168sg??P008c`l<EO@E3wFJt00Ss,0*25\r
+!AIVDM,1,1,,A,1CP7R@0P00PIch0HdkO8L?vv0000,0*20\r
+!AIVDM,1,1,,A,16K2=3h000awBJ6DB:Es69Rv0<36UP?vgL,0*69\r
+!AIVDM,1,1,,B,13aGu:`P00PO1dvMqK<h0?w02@Bh,0*71\r
+!AIVDM,1,1,,A,4h2=aSAuho;NNOj9VhQh<pi008B>,0*35\r
+!AIVDM,1,1,,B,15NNo5<P00ISwq2A8DRc8ww02HBb,0*67\r
+!AIVDM,1,1,,A,15Mv4mPP00ISLaHA7=et<?vv08Bc,0*4F\r
+!AIVDM,1,1,,A,13aGFuHP13PIHvPN69:I@?vv25Ip,0*2F\r
+!AIVDM,1,1,,A,13aENW@P00PDQbdMe>==cwv00<5`,0*57\r
+!AIVDM,1,1,,,13aDCewP0bPJg?tN6h0FJOvtRD16,0*55\r
+!AIVDM,1,1,,,13bf9v00000IaApN8IMTGkm008Bk,0*71\r
+!AIVDM,1,1,,B,24SaQh500E0Cu2RMEri:4Gw008Bg,0*0E\r
+!AIVDM,1,1,,B,13aFeq@P?w<tSF0l4Q@>4?wv0pBm,0*33\r
+!AIVDM,1,1,,A,13P;tBhP00Ow8f4NcpI00?w008Bm,0*58\r
+!AIVDM,1,1,,B,601uEPThuaCB<P<j00,4*65\r
+!AIVDM,1,1,,A,133wC3PP00PD;5RMDMW00?w0RHBh,0*03\r
+!AIVDM,1,1,,B,10:0rfPP000HtHdMduA6i?w0R8Bn,0*66\r
+!AIVDM,1,1,,A,36K8CwP000awiFBDIG326pQ027@k,0*3D\r
+!AIVDM,1,1,,A,83aI:v@j2d=eL<vMM@I0GhMm6p00,0*1B\r
+!AIVDM,1,1,,A,239K6?50010CTGTMH5j9d:Tv08Bi,0*50\r
+!AIVDM,1,1,,A,16KPivP023awhiBD7Cs0c0S000Sg,0*66\r
+!AIVDM,1,1,,A,152HiUOP00JrjibH@15=3gvv0<0B,0*39\r
+!AIVDM,1,1,,A,33cmWJ00360fiITHm6l64Do006jC,0*5B\r
+!AIVDM,1,1,,B,133d`=gP000D;cjMD4OM:gw000Rp,0*5B\r
+!AIVDM,1,1,,B,33mGSF0OkGPJhr<Qfr<p1VK001>0,0*6F\r
+!AIVDM,1,1,,A,15MwVH0000JjA=bG`DocUi@v0D09,0*20\r
+!AIVDM,1,1,,A,13aGE1hP000F<`0Mf8JrNOw0P5Ip,0*65\r
+!AIVDM,1,1,,B,13u?dU0v06QD4>lQwIs`:0G20<0o,0*3F\r
+!AIVDM,1,1,,A,16:QgtPP0c8d>3`AuS3`uG6t0hBE,0*20\r
+!AIVDM,1,1,,B,B69Ew5h0G2885H3S`vmMKwg61P06,0*63\r
+!AIVDM,1,1,,B,169GSqPP?w<tSF0l4Q@>4?v04l3v,0*7C\r
+!AIVDM,1,1,,B,16:fRwgP0487cv0=:l?UMgvv0L4n,0*4F\r
+!AIVDM,1,1,,A,169JJV00008SmQrFmro0002v25Ip,0*17\r
+!AIVDM,1,1,,A,16:`qJ0P1S8i9?:B3Mwh;@6t05Ip,0*09\r
+!AIVDM,1,1,,A,E>l5A1L9T2W@9T:Th70W@54RhHqDEmE=914tH00003v010,4*6D\r
+!AIVDM,1,1,,A,16:9mm001S`i;K0B7f2>3c=00DDB,0*39\r
+!AIVDM,1,1,,B,403tCcl47wk?0<tSF0l4Q@000`BG,0*4B\r
+!AIVDM,1,1,,B,33`oVS0P000WB<VNW>bUwOvv23?C,0*55\r
+!AIVDM,1,1,,B,16:BLs0P178gop0@wJ:;rgvv00S<,0*75\r
+!AIVDM,1,1,,A,133nRPgP00PDUfHMDKMP0?w02HBm,0*61\r
+!AIVDM,1,1,,A,169FRbP0008LOOl=wM?sMbrv2L26,0*0C\r
+!AIVDM,1,1,,A,169FEnPP008LMc2=whUM9gvv28BN,0*7F\r
+!AIVDM,1,1,,B,16:@CdP0008fD:`A6VMHPI`v0@BQ,0*17\r
+!AIVDM,1,1,,A,369UB6PP@08LASj=w6d`:VJr0000,0*6B\r
+!AIVDM,1,1,,B,133gKlPP00PD2TRMDt?P0?w020S1,0*4E\r
+!AIVDM,1,1,,A,403t=21uho;NO`VUifCVmHW00D;u,0*12\r
+!AIVDM,1,1,,A,15MwDmPP1SJe9RhGCP:0Q?w025Ip,0*36\r
+!AIVDM,1,1,,A,15Mnu8PP0>Je>PHGBUV5pOw02000,0*02\r
+!AIVDM,1,1,,B,13aJGhP000PFic:Matam3@?0P<2J,0*59\r
+!AIVDM,1,1,,A,13af0P001T01j?@Nik`LgJ900HBo,0*23\r
+!AIVDM,1,1,,A,13Pchd0000Pi2WpQ0NL=9Wdr0pBi,0*7A\r
+!AIVDM,1,1,,B,15BhjD00000Cob:MGW<`wBS00<9w,0*74\r
+!AIVDM,1,1,,A,4h3Owpiuho;NNo=sbvK=CG700@B?,0*6C\r
+!AIVDM,1,1,,A,13P<Dw?P000Vp:vIFrm@0?vt05Ip,0*2F\r
+!AIVDM,1,1,,B,13c>@b0026wGHAhDmBBuHbg200S<,0*41\r
+!AIVDM,1,1,,A,13eP<P00000BaB<MflaebCQ000Sv,0*36\r
+!AIVDM,1,1,,A,139cJOQP0uPHi7TMbUAiA?vvR<2W,0*0A\r
+!AIVDM,1,1,,B,13Pi82@P00wgpQ8NscI78ww02<0L,0*57\r
+!AIVDM,1,1,,2,38154qi0000<1jrMJpaEMia0P000,0*25\r
+!AIVDM,1,1,,A,18IHAN002<08RV`N=`lli3dp0L0e,0*37\r
+!AIVDM,1,1,,B,33pr?KS00I12jG2NUO8@lhs00000,0*3E\r
+!AIVDM,1,1,,A,13aDoOSP00PDUJdMDKw<=gvv20SN,0*01\r
+!AIVDM,1,1,,A,14SM@V0t1i0qLi8P75N<b:4v0@Be,0*06\r
+!AIVDM,1,1,,B,13u>>:gP00PrEffP2RArbww020S0,0*08\r
+!AIVDM,1,1,,A,13aFdewP1IPHE0DMalDKM?w028Bq,0*37\r
+!AIVDM,1,1,,B,133oeqPP01PCs9tMF0e4F?vtRD7t,0*07\r
+!AIVDM,1,1,,A,4030owiuho;NOrDt:@H`aVG008Bi,0*6B\r
+!AIVDM,1,1,,A,169;5P00118WBq<DV@Vl33722D4<,0*35\r
+!AIVDM,1,1,,A,402:rbQuho;NNP14=`LB6O700<1M,0*2A\r
+!AIVDM,1,1,,B,4h2=aGiuho;NNOnVCtPd43i005Ip,0*66\r
+!AIVDM,1,1,,B,13pr@8P001QDt;lO<Sg:VmC000T:,0*51\r
+!AIVDM,1,1,,A,333u8l80000Ck8TMFtKWWpq0070k,0*11\r
+!AIVDM,1,1,,A,13cegq00010g?A@Ht6q@uF300D0p,0*63\r
+!AIVDM,1,1,,A,35N8wqU000G?vFHK?Bv`v8G10000,0*2D\r
+!AIVDM,1,1,,A,13aFf=0P00PaS>bLV;G00?w0R0SH,0*61\r
+!AIVDM,1,1,,A,133k1PgP000DIBhMDHEbaOvv2<6F,0*0B\r
+!AIVDM,1,1,,B,13uB7g?P0i1BlpTQtP7aJww20@Br,0*56\r
+!AIVDM,1,1,,B,168swf0P098VBq0DVoCpIgwp0<3H,0*6C\r
+!AIVDM,1,1,,A,13`eCp000@0HuA0NKGa7201205Ip,0*37\r
+!AIVDM,1,1,,A,140UuF0P00PClL`MEW<=pgvvP<7m,0*39\r
+!AIVDM,1,1,,A,13a?rf0uhhPGp;8N=@Q5I4I000S8,0*77\r
+!AIVDM,1,1,,A,13@o6;?P00PjsHJPk9@:Hww020SF,0*35\r
+!AIVDM,1,1,,A,B3uUHAP000=Glr8@;SD03wgUkP06,0*55\r
+!AIVDM,1,1,,B,16:d4R0P@0`LD>0FCOcc;8u02@Bm,0*3D\r
+!AIVDM,1,1,,A,4h3OwpAuho;NNo?kthK7IGo000S:,0*6A\r
+!AIVDM,1,1,,A,139Occ001PPWpHjNmF<4vT6t0@BF,0*1F\r
+!AIVDM,1,1,,B,13R5`a0P001`u6rG@:a0fOvv05Ip,0*38\r
+!AIVDM,1,1,,A,15DnAB002B0bR=tI1RRq@WJp00SC,0*06\r
+!AIVDM,1,1,,A,13u>=A?P011BhrdQte3VNOvt0@BG,0*23\r
+!AIVDM,1,1,,A,133tcNPP010D2TfME2CVE?vv00S`,0*5D\r
+!AIVDM,1,1,,B,139fHn0P1NPeTsBN`9kN2OvvR5Ip,0*00\r
+!AIVDM,1,1,,B,133nbePP00PClsVMFaEDA?w028Bt,0*49\r
+!AIVDM,1,1,,A,10DCH:?P00PCpeJMd8K00?w02L7V,0*4C\r
+!AIVDM,1,1,,A,133tRpPP00PD2dpME1B3b?vv25Ip,0*58\r
+!AIVDM,1,1,,B,133fJ<PP00PDC0tMDB:E??w0R<7d,0*59\r
+!AIVDM,1,1,,B,139esqPP1q0E5p>MdE<c6?w20<>Q,0*2B\r
+!AIVDM,1,1,,A,15NE7mPP4dJe3RJG@7=usgw20<2t,0*44\r
+!AIVDM,1,1,,,133nRt0P@lPB2<hMsuO;p9K200Ri,0*12\r
+!AIVDM,1,1,,A,4h3OwpQuho;NOo?<<JK4@uW00D0j,0*01\r
+!AIVDM,1,1,,A,33aDCsgP10PHHntMg19lfgw023;C,0*3E\r
+!AIVDM,1,1,,A,13m7bt002=0Jj2VQiJp`GFbv0`Bu,0*03\r
+!AIVDM,1,1,,B,33IfgL50000Fmf0HmPr5j0@v0000,0*37\r
+!AIVDM,1,1,,B,402;bKAuho;NO0`n0lHIACG00HBs,0*57\r
+!AIVDM,1,1,,A,13aDrSPP11PChJfMdG@4HOw02L7w,0*13\r
+!AIVDM,1,1,,A,15N;0>0017Jlld0GWdm<Ob1008BB,0*40\r
+!AIVDM,1,1,,B,402M4L@000Htt12>B0VPVH700`NO,0*1F\r
+!AIVDM,1,1,,B,13aFfG@P1bPFmQ2MgGb`qOw0R5Ip,0*32\r
+!AIVDM,1,1,,A,13LBbW3P001Rgf<T65sJTww220R`,0*1A\r
+!AIVDM,1,1,,B,169G9agP008:G=2<icaiHOvv2@BQ,0*21\r
+!AIVDM,1,1,,,13P<f4CP@AP8;HHMjCp7tB;205Ip,0*3A\r
+!AIVDM,1,1,,A,13aGu1wP1DPKHFNMCqK8OOw028Bq,0*3D\r
+!AIVDM,1,1,,B,177nP4PP2W8:Rnl<hFGSswvv0@BT,0*4D\r
+!AIVDM,1,1,,A,15CAcj0P1e8g:@0EMQvSQ?vr0HBS,0*77\r
+!AIVDM,1,1,,B,B69FVp00A25W1LSEU3s2wwg61P06,0*63\r
+!AIVDM,1,1,,A,169wAF01@0`cb<:ENv9::0vv0@B0,0*08\r
+!AIVDM,1,1,,B,13=I`D5P008VjT8DanG:AOvv0UIp,0*1E\r
+!AIVDM,1,1,,A,13M2?H0viWP?VKVMdwKRn2=208Bw,0*59\r
+!AIVDM,1,1,,A,16K2C;0000b0IabD>oLEi35408Bg,0*52\r
+!AIVDM,1,1,,B,13@o?R?P000qg9DOo`I:K?w228C0,0*2A\r
+!AIVDM,1,1,,A,16KDP9PP01b0O2@DGQ::GOw00<2;,0*31\r
+!AIVDM,2,1,9,A,533sckT00000uCCG361<pE22222222222222221?0p60040Ht00CU5iDT1C`,0*31\r
+!AIVDM,2,2,9,A,88888888880,2*2D\r
+!AIVDM,1,1,,A,16K2;5@001awHw2DB2EDlSW20<4U,0*3E\r
+!AIVDM,1,1,,A,3030p6O000o<WVtL99r7MP>t011@,0*17\r
+!AIVDM,1,1,,A,14eGMFPP01G<MQ8L=mWoOOvr0@Ar,0*37\r
+!AIVDM,1,1,,B,4030pCAuho;NNo;;N2L?3Oo008Bh,0*78\r
+!AIVDM,1,1,,B,4030pD1uho;NOo<L20L<nt700L2h,0*39\r
+!AIVDM,1,1,,A,15ECd6002no;bGTL=@E2U26t00S8,0*07\r
+!AIVDM,1,1,,B,4030pCQuho;NOo=DhfL9PwW00L2Q,0*3A\r
+!AIVDM,1,1,,A,15NNEcPP00ISd>pA3mErsOw02<4a,0*3C\r
+!AIVDM,1,1,,B,15N8lOPP01IS6ATA7tS:F?w008Be,0*36\r
+!AIVDM,1,1,,A,15NOBv?000qSeLrA33WLhJA00@Bf,0*3C\r
+!AIVDM,1,1,,B,15NL7n8P00IS5w:A7sMu@?wD08I<,0*7C\r
+!AIVDM,1,1,,B,15MwcaPP01IT:M>A7uLqQOw20D1W,0*3B\r
+!AIVDM,1,1,,A,15N2JOPP00qT772A7F6de?vv08Bj,0*54\r
+!AIVDM,2,1,2,A,55N0D?000001L@???KH<u8eT000000000000000P0P>634<;?8CADQ@EF000,0*08\r
+!AIVDM,2,2,2,A,00000000000,2*26\r
+!AIVDM,1,1,,B,15N:GIgP00IS8v8A86g;5?w020S6,0*39\r
+!AIVDM,1,1,,A,35RIdr1001b07>vD@NOjSkq02000,0*14\r
+!AIVDM,1,1,,B,15NMQJPP1BIT<KbA:c3JI?w025Ip,0*2C\r
+!AIVDM,1,1,,A,15N1?;PP0tITBGdA:l53@?w008Bo,0*6D\r
+!AIVDM,1,1,,A,16K2;kh028awLH>D@;Hppo520@Bq,0*2A\r
+!AIVDM,1,1,,A,333tUb0uiq0LB0NNfM82hj:v0000,0*6A\r
+!AIVDM,1,1,,A,19NSC`m03>0K?nTNePCRl2:r0<13,0*4C\r
+!AIVDM,1,1,,B,13@WP6002>0Fh6:N`sc9boht08Bk,0*7F\r
+!AIVDM,1,1,,B,13aGtL?P00PJrM:NSIjP0?w02@Bw,0*28\r
+!AIVDM,1,1,,A,33ass8?OhQ0D9D>MbT94Tkk200lA,0*3C\r
+!AIVDM,1,1,,B,133imfPP00PD9MPMD>`a>gvv20S5,0*4D\r
+!AIVDM,1,1,,A,16KVrPP026acV7vCm:4I=GI20HBr,0*4F\r
+!AIVDM,1,1,,B,13aI:bwP00PGr0:MaPn@0?w025Ip,0*3B\r
+!AIVDM,1,1,,A,1>qc9ww000OkfS@MMI5004Rt0D0B,0*0B\r
+!AIVDM,2,1,1,A,533sckT00000uCCG361<pE22222222222222221?0p60040Ht00CU5iDT1C`,0*39\r
+!AIVDM,2,2,1,A,88888888888,2*2D\r
+!AIVDM,1,1,,A,13aGuMgP1BPFlgFMgBFAVgw028C0,0*45\r
+!AIVDM,1,1,,A,13@o=nW0000hM`dQ1bn0iaa00<1R,0*44\r
+!AIVDM,1,1,,A,13aI<GhP00PCaM<MciKh0?w020S4,0*05\r
+!AIVDM,1,1,,B,133sHAgP00PD7S2MDVw00?w02<2K,0*3C\r
+!AIVDM,1,1,,A,13nJ<v000fOi0b<QfVn:fpc20D0O,0*2D\r
+!AIVDM,1,1,,B,13aB7VhP00PFr7>MeJqP0?w025Ip,0*05\r
+!AIVDM,1,1,,B,13aFfe0P00PDTGvMe2>@0?w02<7v,0*71\r
+!AIVDM,2,1,8,B,E03l90w4Q1h3h1:WdPOwwwwwwwwlQdn`:e55020@@@gP0000000000000000,0*47\r
+!AIVDM,2,2,8,B,00,4*19\r
+!AIVDM,1,1,,B,4h3OvjAuho;NNo=cf0Knevo00hBH,0*4D\r
+!AIVDM,1,1,,A,13q6oh001RQE@PnO;Kae2JPv0<15,0*00\r
+!AIVDM,1,1,,A,15SMt6002>PDsAFNMBoht0c00<4w,0*0C\r
+!AIVDM,1,1,,B,33`qQ8?OhL0HmLhNRO;Dpng001?P,0*33\r
+!AIVDM,1,1,,A,13HRl;gP0000nvJLDTQ1mww20HBs,0*26\r
+!AIVDM,1,1,,A,339cAN?OhfPe`h6N`oqqS7jv011P,0*5F\r
+!AIVDM,1,1,,B,13aFdQ0P000Cu82MEbn;4Ovv00SH,0*06\r
+!AIVDM,1,1,,B,33aC2b8P00PDOaFMdR`3@wvv22<Q,0*31\r
+!AIVDM,1,1,,A,B3m<0c00086qaq8MKj2mGwh5WP06,0*6D\r
+!AIVDM,1,1,,A,18KmoJ8Oh1WJrFT0gAuP;3E22HBu,0*7E\r
+!AIVDM,1,1,,B,13aI9W0P00PD4;fMDdL@0?w020S5,0*31\r
+!AIVDM,1,1,,A,16UBEn0000b10G0DG6`RCjI20<3a,0*02\r
+!AIVDM,1,1,,B,409RFOiuho;NPR:PC8RC6<3005Ip,0*1A\r
+!AIVDM,1,1,,B,18157GPvjEOC=L`EjfP=V:rt0d0T,0*32\r
+!AIVDM,1,1,,A,13P<a@hP00P6PKtMGgFh0?w028C4,0*2E\r
+!AIVDM,1,1,,A,13P;3Gh227OV1hdDTSLbE8Fv0P00,0*00\r
+!AIVDM,1,1,,A,33P<Gpt00UwgAT4NuEGb@`K200Sh,0*54\r
+!AIVDM,1,1,,B,33aGrU@OhD0HpjDNL0OPj25n0Pth,0*73\r
+!AIVDM,1,1,,B,B5NDds0006Q`nN3wePKQ3wh5kP06,0*17\r
+!AIVDM,1,1,,A,15Ak1<0029vu9sb52sAkwS?00@Bp,0*12\r
+!AIVDM,1,1,,A,13nEii9000Pi7:0RAv70=@g20<0N,0*3A\r
+!AIVDM,2,1,1,A,802R5Ph0BkJ140O99:Ga1A5Ebgwwwwwwwwwwwwwwwwwwwwwwwwwwwwww,0*41\r
+!AIVDM,2,2,1,A,wwt,2*61\r
+!AIVDM,1,1,,B,13c>DT00001DfrBO=Nh@3Sc205Ip,0*50\r
+!AIVDM,1,1,,B,402;bLQuho;NOPcKqTHOD9G005Ip,0*73\r
+!AIVDM,1,1,,B,33`n><5P010Hpk>NKPs:Kgw00000,0*67\r
+!AIVDM,1,1,,A,139eaiPP19PD>pjMbNG4S?w0R5Ip,0*2F\r
+!AIVDM,1,1,,A,13=t?:002=Of@P8O3HU;waTv0UIp,0*54\r
+!AIVDM,1,1,,B,13`u57hP1>PG5BPMgU=`KOw2R5Ip,0*0A\r
+!AIVDM,1,1,,A,13n3aW0PCiPJWIfQh7jrppc028C1,0*5A\r
+!AIVDM,1,1,,B,140Utk0P000Cr1lMdau0s?wDPl9B,0*53\r
+!AIVDM,1,1,,B,4h3OviAuho;NOo?786KJU3700@BI,0*61\r
+!AIVDM,1,1,,B,13aGun?P00PCogPMdE<00?w028C6,0*69\r
+!AIVDM,1,1,,B,402M4Iiuho;NP0o5I0V3CH700D0M,0*6E\r
+!AIVDM,1,1,,A,13aGu;`P0B0DJs<MdPVHIgv`2L9E,0*22\r
+!AIVDM,1,1,,B,402OHj1uho;NO1F7UhO?PeA00L1Q,0*52\r
+!AIVDM,1,1,,,13aDp1@P09PIDthN73KWSgvvR<0n,0*0B\r
+!AIVDM,1,1,,B,15SPL@00000=L5lMD:u9d9u22@C7,0*55\r
+!AIVDM,1,1,,B,169sjn?P00`a2<LBD?c5ggv20D6`,0*49\r
+!AIVDM,2,1,5,B,569>U3P000008<9:0018V1TuF3:0P4t00000001@8PD494pn09U2@C`2,0*43\r
+!AIVDM,2,2,5,B,RCP000000000000,2*53\r
+!AIVDM,1,1,,B,16:eiK@P1I8`uC@BDHw:>?vh0D01,0*70\r
+!AIVDM,1,1,,B,16:>O8P0?w`a8I0BCCof44Df0<6`,0*0A\r
+!AIVDM,1,1,,B,16:ClCQ014``KwfBCw6:88Bj25Ip,0*26\r
+!AIVDM,1,1,,B,16:DhF8P1V8`sevBD<v4@gv60H34,0*25\r
+!AIVDM,1,1,,B,15W`;:50008dpeDAuRKQE9Nr0pAb,0*40\r
+!AIVDM,1,1,,B,16:VFuhk12`aIMvB?:5uDOvj40?a,0*44\r
+!AIVDM,1,1,,B,13=>lr501S8aR5@B<e05O4H<0@3I,0*38\r
+!AIVDM,1,1,,B,11OGPwwP00NqIBd@6SFP0?vv00Sf,0*74\r
+!AIVDM,1,1,,B,16:cR:PP1;8WkKvBDCnk>?vl0<01,0*76\r
+!AIVDM,1,1,,B,16:P=JPP008`vK`BC<WPT?v=b@45,0*03\r
+!AIVDM,1,1,,B,169CUO0P1@`dbT8Au:<ccaD:0?F1,0*0C\r
+!AIVDM,1,1,,B,169MEN001r`UohfBAf8l:3D@00SP,0*75\r
+!AIVDM,1,1,,B,16:BTdUP018a0R0BDH2dv9R<0`5V,0*6F\r
+!AIVDM,1,1,,B,16:=KG?P018a?i<BBfjAM?vt2<52,0*40\r
+!AIVDM,1,1,,A,13aJHpp000PFiQNMass000g0R<1u,0*76\r
+!AIVDM,2,1,0,A,53q5DrD00001=;;KWL1<t8TE<dT000000000001?6p<53t@P00TnPnQ@jCcc,0*3F\r
+!AIVDM,2,2,0,A,cP000000000,2*17\r
+!AIVDM,1,1,,B,169=u6001G8erb<Aq1cK2Hlv05Ip,0*17\r
+!AIVDM,1,1,,B,15CPh`001s8eV>HAqj8DIkJH05Ip,0*3F\r
+!AIVDM,1,1,,B,177hn@0001`Vwi@BBRM;rbpF05Ip,0*05\r
+!AIVDM,1,1,,B,16:7wt001?8aTcdB<HCmGlBH05Ip,0*2D\r
+!AIVDM,1,1,,B,16:cR:@P008Weq2BD;SQ<OvH0@7T,0*2B\r
+!AIVDM,1,1,,B,16H;:l00008e3uDAtsu3Q3fF0D6?,0*67\r
+!AIVDM,1,1,,B,38J=@650000D1EPMDd?ip2m00000,0*5E\r
+!AIVDM,1,1,,B,15Q=N00001qSPr:A7INWV8Nv05Ip,0*44\r
+!AIVDM,1,1,,B,15N7GwgP00ISdvfA7adsU?w00D3J,0*11\r
+!AIVDM,1,1,,B,13aENH0P0g0Dc9TMdkenM?vN08C8,0*38\r
+!AIVDM,1,1,,B,16:B3pP01L`WGF0BEw9BajBL088T,0*68\r
+!AIVDM,1,1,,B,169@:A0P158Wwk`BD9TK?wvL288b,0*55\r
+!AIVDM,1,1,,B,16:lrt002>`f9u0Apag3r3<P0<40,0*25\r
+!AIVDM,1,1,,B,169NKj001n8`jtPBDCq3V2jP0@9u,0*58\r
+!AIVDM,1,1,,B,16:eiC0P008a26VBD@o@0?vT08:s,0*39\r
+!AIVDM,1,1,,B,16:>F>PP008aHB:B@ehM1OvP08=u,0*6D\r
+!AIVDM,1,1,,B,369CstPPA;`eBhPArGKH3FNV210h,0*19\r
+!AIVDM,1,1,,B,16:;EuPP1a8W=p<BEArAu?vl2D6S,0*6B\r
+!AIVDM,2,1,9,B,56:b;L0000008Qa>220QD60`T4pN376222222216@@M8@4pV0=k2@C`6,0*39\r
+!AIVDM,2,2,9,B,EC`1m@CQp888880,2*0E\r
+!AIVDM,1,1,,B,169NS?P01M8WevDBDf<4Q3Rh0@>S,0*30\r
+!AIVDM,1,1,,B,16:S:>001W8`oPNBDBSkaRrl25Ip,0*6F\r
+!AIVDM,1,1,,B,36:GAr0OiS8`rTDBD<e3oSHh010i,0*39\r
+!AIVDM,1,1,,B,16:P>f0P008`K;4BCa1A78Lj08?O,0*2D\r
+!AIVDM,1,1,,B,169E9;0P1>8We54BDnfKGRVh0`?q,0*48\r
+!AIVDM,1,1,,B,169L63P01@8WgaVBF<J513fn0<4R,0*5B\r
+!AIVDM,1,1,,A,16KVls001rawoJ0D9PIf1c?20L5Q,0*26\r
+!AIVDM,1,1,,B,16:BBfPP1O8`h`:BD?uk?wvp0@@b,0*51\r
+!AIVDM,2,1,0,B,56:AtF0000008eL7@008V1<PDpN0htpN3;400016:0>694oGB9Tj0CQp,0*5A\r
+!AIVDM,2,2,0,B,20B@00000000000,2*27\r
+!AIVDM,1,1,,B,16:BLTP01b8b1u`B;U6s48lv0@B3,0*71\r
+!AIVDM,1,1,,B,169@ToP0008a9g>B>6fnEPLup0Rv,0*33\r
+!AIVDM,1,1,,B,169ULEP000`LOsJ>1@KKQbi005Ip,0*64\r
+!AIVDM,1,1,,A,36:@55UP008RjklCp:0PQnhl0000,0*09\r
+!AIVDM,1,1,,A,133qrrPP00PCW3vM@Al;qwvv20Se,0*4E\r
+!AIVDM,1,1,,B,176t5d00198:Rcp<h@t4H3Ip08Bj,0*4D\r
+!AIVDM,1,1,,A,16:BOb0wj8`i7@fETpmKUaE02L3f,0*54\r
+!AIVDM,1,1,,A,601uEPptH;3j04<100,4*52\r
+!AIVDM,1,1,,B,403t@tQuho;NO`FEuN=KKW1025Ip,0*46\r
+!AIVDM,1,1,,B,403tD<Auho;NO`Eubd=EvfA025Ip,0*66\r
+!AIVDM,1,1,,A,168u?60P1l8fsERAobLTPCjl0=Kt,0*11\r
+!AIVDM,1,1,,A,14SCrt0sioawkqtD9od6r5K228C2,0*0D\r
+!AIVDM,1,1,,B,C6:k:D@0<j1ndjSAeJfsKwg2>bC0>2L?0J:C0Nc1UUi0S2`3U1P7,0*5E\r
+!AIVDM,1,1,,B,13dVEH00008K5u0FF0leB9>t0D6j,0*3B\r
+!AIVDM,1,1,,A,16:>EhP0018drtbAuUOLIWW000R@,0*58\r
+!AIVDM,1,1,,A,13aDoNhP00PCpfLM>tIDv?w0R@C8,0*3C\r
+!AIVDM,1,1,,A,18K=Ah002;8hni`AcJ:3326t0L3f,0*45\r
+!AIVDM,1,1,,A,169LjD0020`hUq4BB0BVhUU005Ip,0*20\r
+!AIVDM,1,1,,A,16:eiM0P008ad7<B=8Nh0?vv0<01,0*6F\r
+!AIVDM,1,1,,B,B69DpQh0;r87HT3RC:wOgwgRP<00,0*66\r
+!AIVDM,1,1,,A,169``8001d`cvF0B0SNdHatv0@Be,0*01\r
+!AIVDM,1,1,,B,139d00PP0iPGq:lMaEbBn?w0R@C9,0*24\r
+!AIVDM,1,1,,A,18Kg`v0000`fofHAPjpJsIS00DD3,0*49\r
+!AIVDM,1,1,,A,169F:;0P@l8d=<rAtBVTr3u00<9;,0*43\r
+!AIVDM,1,1,,A,13P:LS3P@sP6Q7FNAiWeqrhv20SW,0*08\r
+!AIVDM,1,1,,B,14eMpV0P00L>eHFK=O;6SOw008C8,0*4B\r
+!AIVDM,1,1,,A,15NGq1P000ISPcnF=jHr4@:t00Rh,0*67\r
+!AIVDM,1,1,,B,15MwpW@P00o<ehfEs3QGKgvv05Ip,0*17\r
+!AIVDM,1,1,,B,148S9h002wP7:ARNDe`EiTjv00Ru,0*5D\r
+!AIVDM,1,1,,B,403t?H1uho;NO`QBfh>EjB7008Bi,0*62\r
+!AIVDM,1,1,,A,177jmV005C88ua0<dEJTDS>J0L3>,0*05\r
+!AIVDM,1,1,,B,4h2=aCAuho;NNOUQrhQ6?aA00<03,0*4A\r
+!AIVDM,1,1,,A,18LgUt8P0288lrv<b<JqV?vL20Rs,0*0E\r
+!AIVDM,1,1,,A,177A=@006N`8NQ@<dUs:;pDL0@8j,0*71\r
+!AIVDM,1,1,,A,16:R3DP01i`8aFH<V1wIR7`N2@8o,0*3A\r
+!AIVDM,1,1,,A,176u<j0000`7mjL<dq;P0IDOp5Ip,0*65\r
+!AIVDM,1,1,,B,369qc@gOhR`fi`jA2QKhJPnv00vi,0*20\r
+!AIVDM,2,1,3,A,53MFwP0283PLlHmON20TEHthV1<TiHE:2222221@:0H4<4oF0>S1Gj0ETQH88888,0*10\r
+!AIVDM,2,2,3,A,8888882,2*25\r
+!AIVDM,1,1,,A,369GGV0P@K8LPHr>1R2:d`Ft0000,0*5A\r
+!AIVDM,1,1,,B,13aDCNhP?w<tSF0l4Q@>4?wv0`C9,0*45\r
+!AIVDM,1,1,,B,169>`i00008VCs0D`kO<KbU00D2g,0*13\r
+!AIVDM,1,1,,A,13P9;=h001Oj@S4NTMm182c00D0w,0*71\r
+!AIVDM,1,1,,B,13aDoPhP00PCmi<MEl5KoOw025Ip,0*6D\r
+!AIVDM,1,1,,A,13aC2wwP1t0FUptMb0Erogvv08C9,0*54\r
+!AIVDM,1,1,,A,133oEBPP00PD<w2MDuj00?w0R5Ip,0*22\r
+!AIVDM,1,1,,B,402=a`1uho;NPwi>PhNu0uW000S:,0*21\r
+!AIVDM,1,1,,A,33u=L?POhb0n=K4Pw`cs;Hrv017Q,0*53\r
+!AIVDM,1,1,,B,402R3cQuho;NP0o<l6Q0lC1005Ip,0*5D\r
+!AIVDM,1,1,,B,13u?em0001Pnan4Q1=Dulofr05Ip,0*26\r
+!AIVDM,1,1,,B,13aBNc0P1M0GFqtMjCPmqOvv05Ip,0*5A\r
+!AIVDM,1,1,,A,1CUUr:3P001d41tEegm00?vv0000,0*4E\r
+!AIVDM,1,1,,A,4025bvQuho;NP0hJ2nQ2M21008C9,0*16\r
+!AIVDM,1,1,,A,13A0In0OhJPrRR8Ov@S6aUO00<1V,0*09\r
+!AIVDM,1,1,,A,36KDO0U000:04t@DHP=4W5M0P000,0*16\r
+!AIVDM,1,1,,B,133fUQPP00PClajMEOnl2Ovv25Ip,0*04\r
+!AIVDM,1,1,,,19NWqD@02`073GpM`O=p36Jv00Sb,0*45\r
+!AIVDM,1,1,,B,169pWVP000`K6N`FE0BGWnS20@C5,0*51\r
+!AIVDM,1,1,,A,133l55PP00PD6L0MEAMqeOvt2<7f,0*27\r
+!AIVDM,1,1,,A,108cuS?P00PLjhJMfIu@0?w020Sh,0*47\r
+!AIVDM,1,1,,A,3815;6A01j8VVu>DWH8T:CBv06h3,0*5A\r
+!AIVDM,1,1,,B,139dR@0P11PLpr0M`tpmeww0R5Ip,0*69\r
+!AIVDM,1,1,,B,139HcvPP000eTThNWSIP0?vv0D37,0*52\r
+!AIVDM,1,1,,A,13QWlL001mP3C7hM0ik9`Gjv25Ip,0*62\r
+!AIVDM,1,1,,A,13aibp001`03;u8M0eC9@WM00<2i,0*45\r
+!AIVDM,1,1,,A,13HUcA?P0KP3CbHM06`:L?vv28Bq,0*5E\r
+!AIVDM,1,1,,A,139Hhj0P020DQ<FMdN?nlwvv0D8c,0*68\r
+!AIVDM,1,1,,B,402=abiuho;NOwwdU<Nb@Bo005Ip,0*4C\r
+!AIVDM,1,1,,A,E3F3070;2a:4R7ah77a:2P00000@53N4;lcHp10@HPgP20,4*49\r
+!AIVDM,1,1,,A,17P>0u0P00:GHbCbFw2lC?w20d0M,0*62\r
+!AIVDM,1,1,,B,13bJcp0P0s0GtGVN>HOm;?w225Ip,0*48\r
+!AIVDM,1,1,,A,14hi4>?000PIcJ8Hdp;3EiBt0<0Q,0*0C\r
+!AIVDM,1,1,,B,177;6`00002=sf9fqjt<4V>t00RJ,0*5F\r
+!AIVDM,1,1,,A,4030ouAuho;NOr?1OpHGHj700L0=,0*2A\r
+!AIVDM,1,1,,B,13GQutPP00PCSALMEBClkwvv20S=,0*68\r
+!AIVDM,1,1,,A,23cAs2000IPE3i>N1FukM2e200SD,0*54\r
+!AIVDM,1,1,,B,13@ndo0P04Pr5tVP4IB9lgw00<12,0*46\r
+!AIVDM,1,1,,B,13`e=3@P000D9PDMd?5@0?vv00SU,0*0F\r
+!AIVDM,1,1,,A,33m:q<0PAN0JJunQib18uW:v0000,0*45\r
+!AIVDM,1,1,,B,13P<<6OP05OhFA>Nt?khrOw025Ip,0*07\r
+!AIVDM,1,1,,B,13AuH<002pOL4K@DlMPsEq7005Ip,0*50\r
+!AIVDM,1,1,,B,33bPC@002twVpaDOD76TFCRt00Th,0*67\r
+!AIVDM,1,1,,A,23@QU<000APCRqNMFcJp3Fk200S4,0*49\r
+!AIVDM,1,1,,B,4030p81uho;NOo;V:<KtT1G008C5,0*44\r
+!AIVDM,1,1,,A,15N1c70000Jrmv2H?G:=Pn520<0G,0*6D\r
+!AIVDM,1,1,,B,6>l4uk@0w2Td000000U@6h0,2*17\r
+!AIVDM,1,1,,A,B3pr<g0000E>r>Wk:OOMwwh5oP06,0*16\r
+!AIVDM,1,1,,B,13cW4S0P000evClI<V=`Dgw0H0SK,0*62\r
+!AIVDM,1,1,,A,33M@H3@P@NOrnjvRK1ld`D;20161,0*0A\r
+!AIVDM,1,1,,B,133j?PPP000D=GbMDwJ<9?vtP5Ip,0*2D\r
+!AIVDM,1,1,,B,10DRKA@P0tPF@`nMf5tDBww02<1`,0*37\r
+!AIVDM,1,1,,B,6>l4ukP0w2Td000000W00P0,2*4B\r
+!AIVDM,1,1,,A,85PH5lQKf;K5>pkNvdFoELeNcIr2FbpJ<mWGUI`@M;jjj2IsOI;d,0*65\r
+!AIVDM,2,1,3,A,53MMAn02;a44mP5ON21<4pB0H4h<tr222222221J<0H:94o@?AhCQiDTm1BCTp33,0*6A\r
+!AIVDM,2,2,3,A,kQ3k`80,2*1D\r
+!AIVDM,1,1,,A,63aGrPT0UBf006P000,4*60\r
+!AIVDM,1,1,,A,13aIkK?P00PEe<tN4qEh0?w020RW,0*12\r
+!AIVDM,1,1,,A,169<l800008JqdtFCUq`VIC208C:,0*3D\r
+!AIVDM,1,1,,A,15NMAoP000ITN8:A6LMqtbq20<4G,0*13\r
+!AIVDM,1,1,,B,15NIRC0P00IS0t0A7ud@Cww00@C4,0*6A\r
+!AIVDM,1,1,,A,13aJHGPP1;PHDcNMg:@TRww0R0Se,0*49\r
+!AIVDM,1,1,,A,2341R400000CTjHMHAEINBi208CA,0*54\r
+!AIVDM,1,1,,A,18155A@02;P2@JTLlwfjhR720HBr,0*36\r
+!AIVDM,1,1,,,139rrJ33h0P8?1dMjF=P0@lt00SU,0*2E\r
+!AIVDM,1,1,,B,13aH00PP00PHKqbM`:pP0?w0R<1k,0*05\r
+!AIVDM,1,1,,A,13M@DG0000OdmdTLlwaaubvt05Ip,0*22\r
+!AIVDM,1,1,,B,13aDpL@P000D6h0MEAhP0?w0R8CB,0*66\r
+!AIVDM,1,1,,A,16KVjoh01pawk6:D;h3<fr;200Rf,0*60\r
+!AIVDM,1,1,,B,339c3mOP00PWtd0NIR:lsOvrR031,0*42\r
+!AIVDM,1,1,,B,839c3m@j2d=ML<N<t1u0ggaE6@P0,0*16\r
+!AIVDM,1,1,,A,139e7DgP00P`CDBNG`LU??vt20Rh,0*03\r
+!AIVDM,1,1,,B,139bu7gP000``vlNFpL00?vt08BC,0*23\r
+!AIVDM,1,1,,A,139a:AUOh30WtkDNI3SQr1Rt00SM,0*37\r
+!AIVDM,1,1,,A,139beW0P000Wp@hNID8P0?vtP@Be,0*03\r
+!AIVDM,1,1,,B,13P88QPP1wOj=InNToHWegw408CB,0*7D\r
+!AIVDM,2,1,4,A,53HV:8400000HM9D000JuJ0lE8<5@u800000000N0p@34t0Ht9P0000000000000,0*7F\r
+!AIVDM,2,2,4,A,0000002,2*22\r
+!AIVDM,1,1,,B,13q5Dr@P?w<tSF0l4Q@>4?wpP8CC,0*73\r
+!AIVDM,1,1,,A,13=t3L0001PeJ9hN`kLqhHO22D3Q,0*0C\r
+!AIVDM,1,1,,A,13HTvdPP00PCsH>MEij`Qww02<3U,0*5E\r
+!AIVDM,1,1,,B,402<HcAuho;NO1RTbLT:iL100@CC,0*2E\r
+!AIVDM,1,1,,B,15MusF3P01IRoHfF3F;n`?w005Ip,0*56\r
+!AIVDM,1,1,,A,13aFeS?P00PCpErMdCT:>?w225Ip,0*70\r
+!AIVDM,1,1,,,18Hsn8SP02P8=7fMj;w8sOw02<33,0*20\r
+!AIVDM,1,1,,B,402=WIiuho;NPP6NJPMIWeW00L32,0*10\r
+!AIVDM,1,1,,B,33ew540u1owwtHhO0GW<Wb500000,0*1A\r
+!AIVDM,1,1,,B,177:bq001i8aJ=PB>4EuCri005Ip,0*37\r
+!AIVDM,1,1,,B,403tB6Quho;NO892tD<bWKQ00@Bi,0*70\r
+!AIVDM,1,1,,B,168u:q0P00`9OT0<oPMBi?w005Ip,0*17\r
+!AIVDM,1,1,,A,1691wtwP008LU2n>3m26lww22@Bq,0*0B\r
+!AIVDM,1,1,,A,169EPTPP008Q0Sl>Ec3@0;2t05Ip,0*25\r
+!AIVDM,1,1,,A,16:CwV001e`94HT<hIfPUPTN0<<J,0*12\r
+!AIVDM,1,1,,A,169G?7PP0087sBR<hFSalwvR28:2,0*26\r
+!AIVDM,1,1,,A,177?Op006F`8wa<<dWf3ojvR0@:=,0*19\r
+!AIVDM,1,1,,B,13aC3VwP1QPDW0DMeCHJaww22<9r,0*6F\r
+!AIVDM,2,1,7,A,56K2<WP2?M1p`C;S7N0a21A=D84dV22222222216;pD1C4oG`;ORT86Cjp6683Qj,0*15\r
+!AIVDM,2,2,7,A,H888880,2*53\r
+!AIVDM,1,1,,A,137lE8001w0h9npQ3dajnBI200T;,0*0E\r
+!AIVDM,2,1,8,A,569oU:0000009Peb220HDr0@uF1MF0P4v222220P2hf284hWN;Am@CQp,0*48\r
+!AIVDM,2,2,8,A,6R3mH8888888880,2*66\r
+!AIVDM,1,1,,A,3770gF1P01`8vnB<SHL4JwvT0000,0*26\r
+!AIVDM,1,1,,A,176sf@006R88Eu0<d4akOBdT08:r,0*3C\r
+!AIVDM,1,1,,A,368umEQ00188vF:<boS7p@HT2000,0*57\r
+!AIVDM,1,1,,A,169Fa28P3U888q4<gBIaUgwp08;5,0*7C\r
+!AIVDM,1,1,,A,177A=@006N`8NEd<dUfr<H@V00S4,0*78\r
+!AIVDM,1,1,,B,169FcaP0018:S4J<h@grq3C008Bv,0*1D\r
+!AIVDM,1,1,,A,15W`;:50008dpeDAuRKeDaNv0`Bn,0*35\r
+!AIVDM,1,1,,B,133jiOPP00PDJ;<MDIcC5Ow0R5Ip,0*02\r
+!AIVDM,1,1,,A,16:BK?P00k`cI6dB3TUd`J102D80,0*4F\r
+!AIVDM,1,1,,B,403tDE1uho;NO`6N3j=<GBA02@Bs,0*69\r
+!AIVDM,1,1,,B,169MBiPP@087nF:=4kvhv:?02D6Q,0*3E\r
+!AIVDM,1,1,,A,16:VD=0P148d>hLAuSnR0wvv40As,0*3D\r
+!AIVDM,1,1,,A,16:F@B0P01`hc9hAqB@f4:Jv0<Rq,0*4D\r
+!AIVDM,1,1,,A,15?KiP000n8d=?`AuJc1UiQ20pBv,0*08\r
+!AIVDM,2,1,0,B,569<knP1uK1L8HiF2208TpP4V3;K>2222222221J18j764fDN<m0CQim,0*0F\r
+!AIVDM,2,2,0,B,H88888888888880,2*57\r
+!AIVDM,1,1,,B,H69GLtQ4TpMUD4pQDw?K;R22220,2*09\r
+!AIVDM,1,1,,B,403tDEiuho;NO`6pA8=1IN102HC3,0*19\r
+!AIVDM,1,1,,B,14eGeLPP00G<c7@L=3usjgw008C0,0*31\r
+!AIVDM,1,1,,A,14eGmkgOkpG;fApL6l1a>oI20L2q,0*4C\r
+!AIVDM,1,1,,B,14eJB80P00G<V5fL=bF@0?vv0D2:,0*0D\r
+!AIVDM,1,1,,A,13aEOvPP?w<tSF0l4Q@>4?wvPl72,0*58\r
+!AIVDM,1,1,,B,402OSf1uho;NP1CsuhOGtfA008CD,0*77\r
+!AIVDM,1,1,,B,13n;0D0PB=0J;p@Qgtf5KT>v0<0r,0*60\r
+!AIVDM,1,1,,A,15N:<P002n02EP8Lv6dapWs008C:,0*55\r
+!AIVDM,1,1,,A,376tAJ0P@r87mr`<dm4M;bPV01:@,0*21\r
+!AIVDM,1,1,,A,169Fq?Q00v886j0<aC9CLjDV00SL,0*14\r
+!AIVDM,1,1,,A,13aDrV0P00PDGN@MDNrE0?w0R<6:,0*42\r
+!AIVDM,1,1,,B,13aFh30P00PFE1BMaF:9ogw22<7J,0*4C\r
+!AIVDM,1,1,,A,1775kT9PAV87s6@<cu?7WV4V0D5g,0*0E\r
+!AIVDM,1,1,,A,16:Qj8P0?w<tSF0l4Q@>4:Up0l1c,0*0F\r
+!AIVDM,1,1,,B,403tBOiuho;NO83K7<<GP@A00D37,0*6B\r
+!AIVDM,1,1,,B,403tBOQuho;NP`6AJn<RgGQ02HC5,0*7D\r
+!AIVDM,1,1,,A,16:D82?P0n8LMlT>11wh`gvt05Ip,0*7D\r
+!AIVDM,1,1,,B,403t>wQuho;NO8bm>`?kdHG005Ip,0*6C\r
+!AIVDM,1,1,,A,13bt<J0P000GCFVNOi@J5gw20<0G,0*0E\r
+!AIVDM,1,1,,A,15Bcf60000`K<Q`FCK5;Qae@0=i2,0*76\r
+!AIVDM,1,1,,,402=WIQuho;NPP5Ss4MaCK700HCD,0*59\r
+!AIVDM,1,1,,A,33Kc@v5P0000U8LLD1sM`?w00000,0*63\r
+!AIVDM,2,1,7,B,59NWqS02=7E<7PEO800l4E9<f0@4m0TE80000017JA8G94o?0LShBk0C,0*4E\r
+!AIVDM,2,2,7,B,Q00000000000000,2*41\r
+!AIVDM,1,1,,A,148NTj000100g>LLC=erwHk20<1I,0*48\r
+!AIVDM,1,1,,A,33UTPD5000G<@`DL3:?0010h0000,0*3A\r
+!AIVDM,1,1,,B,144MNO001q0BPf8MtClhLPG00<5:,0*72\r
+!AIVDM,1,1,,A,15Utd@0P@3O0lFj5>V481p3208C4,0*65\r
+!AIVDM,1,1,,A,139Lb2P02Qvg;N86h5I>0s:t0@C5,0*49\r
+!AIVDM,1,1,,A,14RC6P00000e5GLI:hIpD5c205Ip,0*01\r
+!AIVDM,1,1,,A,13FrAL3P@Pw3QH`4o<T44RkH00Rv,0*35\r
+!AIVDM,1,1,,B,133nbDPP00PD:BlMDM<h0?w220Si,0*3E\r
+!AIVDM,1,1,,A,143q?F0P00RBKFTJo7B@0?vv00Sh,0*15\r
+!AIVDM,1,1,,A,404k1EQuho;NP:Etl9b:JJW008C9,0*1C\r
+!AIVDM,1,1,,B,23`ekA@P000CUf@MFW500?vv0D3w,0*7D\r
+!AIVDM,1,1,,B,13aDBChP170D:PBMd;Tdngw2PHCF,0*12\r
+!AIVDM,1,1,,A,13aDph0P1<PGT:<MaO72tgw020SS,0*01\r
+!AIVDM,1,1,,B,15Mvsu000`qSFsfF;A31=Q0t05Ip,0*17\r
+!AIVDM,2,1,4,B,54h@HK42AjAQ`L5KF2118D<TuE>04<F2222222162:nF:4o=0F`33lp0CQiC,0*0C\r
+!AIVDM,2,2,4,B,1Dp4;lm3`80,2*43\r
+!AIVDM,1,1,,A,133tuLPP00PCI1NME51h0?w225Ip,0*6F\r
+!AIVDM,1,1,,B,139ee;1P10PHF@6Mafi4i?w2R0Ss,0*2B\r
+!AIVDM,1,1,,A,13ig0R3P000=LuBMCpm<uww205Ip,0*09\r
+!AIVDM,1,1,,A,140UsDhP070D48hMdf?AJOvv08CG,0*66\r
+!AIVDM,1,1,,B,139Lb`?P000W<irNa>9h0?vr0D2;,0*49\r
+!AIVDM,1,1,,A,13fiCr7001OMRMtOQ``bFi=00HBE,0*54\r
+!AIVDM,1,1,,A,13P;19P01JOjnedMM532Qj3008C@,0*11\r
+!AIVDM,1,1,,A,1>qc9ww000OkfS@MMI5004Rv0H00,0*77\r
+!AIVDM,1,1,,B,4020tMiuho;NPPoFg@Nw;:7008CD,0*4A\r
+!AIVDM,1,1,,B,13@shv0000QC2NjQu:WTVoS42@CH,0*34\r
+!AIVDM,1,1,,A,83aFdTPj2d<dtN<vN0N0Ug`00100,0*1D\r
+!AIVDM,1,1,,B,169srP02Be0cob`H`nG=G:e20d0:,0*19\r
+!AIVDM,1,1,,B,142Lat00010e0bVI??:9jA=20@CA,0*07\r
+!AIVDM,1,1,,A,19NWsE002D0Sq<PHt4LQgiDt00SA,0*30\r
+!AIVDM,1,1,,B,13aDCP0P00PD1eBME2Lec?wH08CH,0*00\r
+!AIVDM,1,1,,A,16LVk:00000etHHI<PqeL4E008CD,0*78\r
+!AIVDM,1,1,,A,13tw:H001O0spO6OWCGJa`Vt0L0h,0*30\r
+!AIVDM,1,1,,B,13GR4`0P00P>cpHMG8WP0?w2R<2G,0*57\r
+!AIVDM,1,1,,A,13aDrc0P1>PDV=8MeDGbFgw2R<7w,0*3B\r
+!AIVDM,1,1,,B,133fDH0P010CQ5bMEPNoGgvv0D6t,0*05\r
+!AIVDM,1,1,,A,36:AH=P0088VivvDathG>CO020u@,0*09\r
+!AIVDM,1,1,,A,133fKJ00000C`b6ME@vd38O20<;5,0*19\r
+!AIVDM,1,1,,B,402HVmQuho;NOOS4?>NtMgA008Ba,0*1A\r
+!AIVDM,1,1,,B,13Lwrt401OPr6G0OhGp7MV300D0D,0*3C\r
+!AIVDM,1,1,,B,13b:t4002d1QnBJR2eBC:RO20d03,0*29\r
+!AIVDM,1,1,,A,16K2<4P000awMRdDCJMh01Tt0L3lPb;vgL,0*63\r
+!AIVDM,1,1,,A,13aDC:wP00PCsavMDhCCW?w2R@CI,0*7C\r
+!AIVDM,1,1,,A,15NLRQgP01Iu;b:FGaaVhww00D02,0*33\r
+!AIVDM,1,1,,B,13aEODwP00PGJjNMiQRTJgvfRL1R,0*65\r
+!AIVDM,1,1,,B,133nQEPP00PC`uNMHg<@0?w22L3<,0*03\r
+!AIVDM,1,1,,B,13b1NV00000>T:PMHeT=>1O208CJ,0*26\r
+!AIVDM,1,1,,,13`spOnP1<PI4kLN52EI>Ow22@CG,0*77\r
+!AIVDM,1,1,,B,13cccN00010`bW2IJ<1c5UI20<1f,0*71\r
+!AIVDM,1,1,,B,13;1uB001b0r8OhOkvaFmUNv05Ip,0*5D\r
+!AIVDM,1,1,,B,15RUV`000PoB>E4EhbPT6SW00@C>,0*56\r
+!AIVDM,1,1,,A,133j6QPP00PCWVnMd?hDa?w028CJ,0*46\r
+!AIVDM,1,1,,A,13aSwp00040Ct:bMEfd<29Q200SS,0*14\r
+!AIVDM,1,1,,B,13P7eqh000ORgcTQCTbSITc20hBc,0*03\r
+!AIVDM,1,1,,B,14QsF:@3h<00;uvO0Ku@?BO20@CJ,0*19\r
+!AIVDM,1,1,,A,13aENn0P00PH1rlMaSh@0?w225Ip,0*54\r
+!AIVDM,1,1,,B,139e>N0P00PD8?nME6RKkww02D3w,0*58\r
+!AIVDM,1,1,,A,A04757QAv0agH2JdH0p`7wrpuU40vo;kF@?s6NuG,0*15\r
+!AIVDM,1,1,,A,16:C`t?P0B8VBH0DVJ9n7gw00<3q,0*53\r
+!AIVDM,1,1,,A,601uEPDhuaCB<P<j00,4*76\r
+!AIVDM,1,1,,A,4028ipQuho;NPOVLfrDW0=W008C5,0*71\r
+!AIVDM,1,1,,A,13@nj4P000PqaClOpH5a:hk400R:,0*1D\r
+!AIVDM,1,1,,A,15AQgf002h<PsKic=mff1P3008BaRbkvvg,0*12\r
+!AIVDM,1,1,,A,16SWs40P01a3DW@EHE2Dkgw22<3A,0*09\r
+!AIVDM,1,1,,,14Rp`n001?P6;8jMU<THvo=00d5C,0*41\r
+!AIVDM,1,1,,A,169RUJ00008VA1dD`mod>bk40hCF,0*33\r
+!AIVDM,1,1,,B,15Mu6fPP00IT7``@wJWsIOw00<46,0*75\r
+!AIVDM,1,1,,A,15Nu=l0P00ITJrf@u22<1gw00<0K,0*04\r
+!AIVDM,1,1,,A,133w3lgP19PFwW6MaaeT5Ow2R@CM,0*5F\r
+!AIVDM,1,1,,A,15NLov0P00qSg7dA7p1sGOw22@C@,0*37\r
+!AIVDM,1,1,,B,15QF@P000GPCQt<NPM48@Fu42<5:,0*42\r
+!AIVDM,1,1,,A,13uCES00000mGFNQ1?Wd5Ca20@CE,0*29\r
+!AIVDM,1,1,,B,13UPFd0021PjJHVPwVOE?TFt0t2@,0*79\r
+!AIVDM,1,1,,B,15Pm<;hP01JmwBfGcoQ6p?vt0HBG,0*4A\r
+!AIVDM,1,1,,B,15Mw<Q0P00JjAADG`>PdH?w400SQ,0*69\r
+!AIVDM,1,1,,A,33bjCV5P@EPBRf0Mfjr4@Rk20000,0*01\r
+!AIVDM,1,1,,A,15MqtF0P3JJe2UnG?GwPM?w22000,0*3E\r
+!AIVDM,1,1,,B,13aJHMwP0pPFfS6Mal<Slww22@CN,0*75\r
+!AIVDM,1,1,,A,133lkuP0000Cj5pMG4qMw:K005Ip,0*51\r
+!AIVDM,1,1,,A,133rO?gP00PCsGJMEihqmOw2R8CM,0*34\r
+!AIVDM,1,1,,B,13c7?L001N06h>HM7>whFhK425Ip,0*53\r
+!AIVDM,1,1,,B,8000000Iv3P0T=E9qrtmBmvl;Pj8Qn4<oGK4`noLN@,4*35\r
+!AIVDM,1,1,,,14S3<`000R05CThMiN0<TJ920@CL,0*4A\r
+!AIVDM,1,1,,,402=WIAuho;NPP8qGHMe9c700L5P,0*1E\r
+!AIVDM,1,1,,B,2340ST001N0>bNfMHEPGvnG40HCN,0*55\r
+!AIVDM,1,1,,B,13aDCgPP00PCR2DMEB76G?w62@CM,0*1F\r
+!AIVDM,1,1,,A,91b55vRAQwOnDE<M05ICOp0208CM,0*6A\r
+!AIVDM,1,1,,A,14eHA0wP00FcCvhO4dGVTww20<0>,0*4A\r
+!AIVDM,1,1,,A,16:GEnP0008JtrTFCQGVha<t00R?,0*5E\r
+!AIVDM,1,1,,A,15MlIMPP00JeHeVGD5Ud?gw22@CM,0*35\r
+!AIVDM,1,1,,B,15S@E00vB0wsce>M0?Ee@JO00D<P,0*40\r
+!AIVDM,2,1,6,B,A02VqOP;b901h0@1Gun83Op@00@:wCD1KPOtTP9>7gjE0AtGwPp0713stOtA,0*01\r
+!AIVDM,2,2,6,B,5?lb02<0vawuF@Cujgti0gl>0A2b,0*08\r
+!AIVDM,1,1,,A,13u=:PPP001D55DQwK`h0?w005Ip,0*26\r
+!AIVDM,1,1,,B,13TqBd001mODPaDE??p=Sbjt0hCL,0*76\r
+!AIVDM,1,1,,A,33P93;gP@7OiDJdNW60Tw70t01p@,0*35\r
+!AIVDM,1,1,,B,13aFfNPP00PDQk0MdhUaR?w22HCO,0*1D\r
+!AIVDM,1,1,,A,13mpt40P2M0><@8MqJw8B6dp0D1`,0*50\r
+!AIVDM,1,1,,B,13eP8V00000Ba18Mflo0`3`v0L<E,0*3E\r
+!AIVDM,1,1,,B,13aDqa@P00PCGA8MF5<QNww028CP,0*1B\r
+!AIVDM,1,1,,B,15MwU?P000Je<gRGADoLG3A40L34,0*2C\r
+!AIVDM,1,1,,B,13`e>3hP000D<7bMdJ=00?w005Ip,0*10\r
+!AIVDM,1,1,,A,13M@BKS00JOkKjDMO4U8k77208CI,0*78\r
+!AIVDM,1,1,,A,148QLH00130iD7LPk@`1a1K20@CA,0*5B\r
+!AIVDM,1,1,,B,402R3c1uho;NP0pf1NPcHa100<0a,0*68\r
+!AIVDM,1,1,,A,33u?eoP3h7Pmvj>Pw>jk0jlv00w0,0*5A\r
+!AIVDM,1,1,,A,13u?etPP000mHbrQ1CQnDwvv08CI,0*57\r
+!AIVDM,1,1,,A,13a;An0vAfPlMQ@Po<d=B:c40<0s,0*6A\r
+!AIVDM,1,1,,B,33u=dR0PALPnQDRQ0nAGG5Pt014A,0*64\r
+!AIVDM,1,1,,B,13uCVg3000Pr59fP4JuN3B6t0<0P,0*21\r
+!AIVDM,1,1,,A,1>qc9ww000OkfS@MMI5004S008CO,0*4C\r
+!AIVDM,1,1,,B,177=EV003<`:QfJ<hHLSSRe20@C2,0*46\r
+!AIVDM,1,1,,A,19NWw=h00V`RQUlCp`o:QpK00<2F,0*3D\r
+!AIVDM,1,1,,A,16:=?T80008RL:jD5AHnqU300<36,0*0B\r
+!AIVDM,1,1,,B,169TRJ0P528:MjL<hp?5D?w00HC>,0*4E\r
+!AIVDM,1,1,,A,B68uFeP002;7jh4OAf9?Kwh2P8Mq,0*38\r
+!AIVDM,1,1,,B,403t?hQuho;NO`PH`F>?4K7005Ip,0*33\r
+!AIVDM,1,1,,B,16:FCp001S8Peqd>8=1puW=00@C<,0*4D\r
+!AIVDM,1,1,,B,16:CVIgP00`7ODf==>3P0?w005Ip,0*60\r
+!AIVDM,1,1,,B,169I7?001I8Pf2J>7st`sG?00<2t,0*4B\r
+!AIVDM,1,1,,B,B69DpO@01j875l3RD08AT0`4SP00,0*31\r
+!AIVDM,1,1,,B,402;75Quho;NO0I`oVHf587008Br,0*0F\r
+!AIVDM,1,1,,A,16KPcVP02qabdu`CjCSS=2Vt0D39,0*67\r
+!AIVDM,1,1,,A,13cHpF002K0BSMVMgth;Bq6v08CQ,0*1E\r
+!AIVDM,1,1,,A,13c4vr0000Pn@kHQ0W2;r`Kp0l2?,0*6D\r
+!AIVDM,1,1,,A,36K2:jhOh5awouDDCJfG9rQ20000,0*7C\r
+!AIVDM,1,1,,A,13aI;G?P00PCmclMEl3@0?w22<4q,0*78\r
+!AIVDM,1,1,,A,13aGE31P0mPHw:DMd;qBtOw4R@CR,0*03\r
+!AIVDM,1,1,,B,13aFh;wP00PD=ERMe0S00?w2R0Rn,0*25\r
+!AIVDM,1,1,,A,16KPbtP02Cb0KK:DDOD9fGS228CE,0*2B\r
+!AIVDM,1,1,,A,16LW:V0000b1C2tDEQR;JqI20@CG,0*0D\r
+!AIVDM,1,1,,A,139aKF00010qb42OpOPIH6M40<1m,0*6B\r
+!AIVDM,1,1,,A,16K2=t@01jb0bg6DG``iTQC220SE,0*51\r
+!AIVDM,1,1,,A,402Au11uho;NQ<tSF0l4Q@000l3C,0*7A\r
+!AIVDM,1,1,,A,13GgGp?P0SP2pHjLwJ=Qfww02<0w,0*0D\r
+!AIVDM,1,1,,A,18;IgN001BawK28DB7oD63K20HCK,0*46\r
+!AIVDM,1,1,,B,13aDpghP11PHiejMbhvPlww42@CR,0*09\r
+!AIVDM,2,1,0,A,53KGvVD00000t`Lb220IE9FhtDn222222222220t2Sh5Q5PcJPADl;Sk,0*69\r
+!AIVDM,2,2,0,A,p88888888888880,2*6C\r
+!AIVDM,1,1,,A,33cUpi0piL0g6rdHrTg12@a00Pv0,0*26\r
+!AIVDM,1,1,,A,16K8DA@000awi6PDIGMKVmc22@CL,0*65\r
+!AIVDM,1,1,,A,15N5vv?P01IOtiFBPUN7gOw42<0F,0*47\r
+!AIVDM,1,1,,B,10EACpPP0CPDpw8MFat9@Ow22D3H,0*2B\r
+!AIVDM,1,1,,A,16K8DCh001aw?40DBM3IDVi420RP,0*5F\r
+!AIVDM,1,1,,B,B43MNI0000TWjp6f6v<03whUkP06,0*6B\r
+!AIVDM,1,1,,B,1CR1lq?P11Qc>JHEVAWkG?vr0000,0*5A\r
+!AIVDM,1,1,,B,14a@6v500w9cutRClin;@`s205Ip,0*44\r
+!AIVDM,1,1,,A,13aJGVhP00PD9uvMe90P0?w225Ip,0*0D\r
+!AIVDM,1,1,,A,13aDCEPP00PCf9dMG=fpO?w220Sw,0*1D\r
+!AIVDM,1,1,,2,13`rWL?0000AO?@MGWe<v4gB05Il,0*53\r
+!AIVDM,1,1,,A,13aD@U000sPHmIHMcMqA:Q2lRHCS,0*4F\r
+!AIVDM,1,1,,A,169vk=wP008VfgvDa7100?w00D0L,0*55\r
+!AIVDM,2,1,2,B,53`wgT400001050F220I8U<>18PT8>o3F222220S0P82140Ht00000000000,0*45\r
+!AIVDM,2,2,2,B,00000000008,2*2D\r
+!AIVDM,1,1,,B,13aFgphP1h0GI`pNGqnjEwv@0<4n,0*76\r
+!AIVDM,1,1,,B,402E351uho;N:PEWC@NC:iG00@6S,0*21\r
+!AIVDM,1,1,,A,13`e>m4P00PEpVLNC9c@0?w<2<2>,0*38\r
+!AIVDM,2,1,5,A,59NSA9l2@?u<7QPKF20@u8T>0<P4m0Ttr2222216HPQBD54?0BlQ@hC0A0H88888,0*79\r
+!AIVDM,2,2,5,A,8888882,2*23\r
+!AIVDM,1,1,,B,40000Liuho;MU0?JltNW=5A00D1?,0*22\r
+!AIVDM,1,1,,A,13HWa30P0JP3AGRM0EF:dgw02HCF,0*3B\r
+!AIVDM,1,1,,A,19NWvG@02M0CSnhNA=a160q<08Fg,0*2F\r
+!AIVDM,1,1,,A,13o@aF00000Eob0NCNmuGjc>0<6@,0*35\r
+!AIVDM,1,1,,B,402E3:0000HttPGEahN7pi701t3n,0*33\r
+!AIVDM,1,1,,B,13aDrq@P000FNnvN=A8ql?wB2@Gs,0*6A\r
+!AIVDM,1,1,,B,33a;2>5001PEnL0NCE<9M:;B0000,0*33\r
+!AIVDM,1,1,,B,16SWUWg00093UDPEKUAh00s3rL2J,0*4C\r
+!AIVDM,1,1,,A,402E35Auho;MaPE@mhN:Rd700D2L,0*68\r
+!AIVDM,1,1,,A,13Eo0h?000wW6eHDc?A85WDt00SL,0*4E\r
+!AIVDM,1,1,,A,13aFdiSP16PEs=BNCvDGBwwDRHHT,0*6B\r
+!AIVDM,1,1,,A,13aGDilP1>PEi=fN?6FPggwDR<1?,0*39\r
+!AIVDM,1,1,,A,177k099PEU`97fb<dC7S2jFV0@;V,0*4C\r
+!AIVDM,1,1,,A,35ECw`0PBJPMDdLNcOL3r33F0000,0*01\r
+!AIVDM,1,1,,A,1690J;PP008913L<bgKi`OvV28;c,0*50\r
+!AIVDM,1,1,,A,13aFfj@P00PErSDN=Ec00?wF2<1o,0*64\r
+!AIVDM,1,1,,A,18Jtrp0039`8wwt<M4n`IVhV0<4`,0*07\r
+!AIVDM,1,1,,A,15MrMFP001JdOvJG@E7rh5s40D3G,0*37\r
+!AIVDM,1,1,,A,13bRs>001bPE8>dN?@0hdPOH05Il,0*07\r
+!AIVDM,1,1,,A,13oKt00P4g0rKMtUw@N:<Ow20@CR,0*06\r
+!AIVDM,1,1,,A,168ud<g00188wrv<hCb6QhDap@<6,0*74\r
+!AIVDM,1,1,,A,177?Op006E`8wp<<dWLknRvb0H<a,0*22\r
+!AIVDM,1,1,,A,160o>L0029`8s9D<iI5VVUD`0PSE,0*7F\r
+!AIVDM,1,1,,A,403tB6Auho;NE877bJ<UwRQ005Ip,0*13\r
+!AIVDM,1,1,,A,15MwDwPP5fJe6j`G@lN8E?w420SA,0*5F\r
+!AIVDM,1,1,,A,333rNMUP00PCRwDMEB2:g?w22DS:,0*53\r
+!AIVDM,1,1,,B,33P7WwU0000Eo>bNCK0Gp50N0000,0*4B\r
+!AIVDM,1,1,,A,13`iAj0P0;0FidvNFibpF?vN0<4g,0*0D\r
+!AIVDM,1,1,,B,15W@?r00000Enj@NC0U`4E>h08=g,0*37\r
+!AIVDM,1,1,,2,33aDpH0P00P@pp>MLUlM2?wFR2wC,0*1B\r
+!AIVDM,1,1,,A,139LNr?P00PPrNhNQDlawOwH28IG,0*03\r
+!AIVDM,1,1,,A,403tB6Quho;NE892tD<bWKi008<r,0*5C\r
+!AIVDM,1,1,,A,369A@v4P0088o2V<bd0IH0>`0000,0*67\r
+!AIVDM,1,1,,A,16:Css01jB88r3J<jEO6hUNf00Rh,0*3F\r
+!AIVDM,1,1,,A,1775kT9PAu87s38<ctn7CUlf05Ip,0*65\r
+!AIVDM,1,1,,B,15MpA2P01CIUaR>@Ru`K8`o205Ip,0*19\r
+!AIVDM,1,1,,A,177k099OmU`97sH<dCM322Ff0<6T,0*45\r
+!AIVDM,1,1,,A,169Fm>0P3q87sF0<d@lcr?vf05Ip,0*53\r
+!AIVDM,1,1,,A,15NNs@PP00IRS:fA8JwtEgw00HCF,0*2D\r
+!AIVDM,1,1,,A,16:>N2P01o89Ai`<c0MlcCVh05Ip,0*42\r
+!AIVDM,1,1,,A,176wH`006i`9L58<e3ub<p8h05Ip,0*53\r
+!AIVDM,1,1,,A,23P:lP?OhBPCS7vMFe:H;6ap0UIL,0*4A\r
+!AIVDM,1,1,,A,13`e?QiP1;PD3iTMdOaT7gw420R7,0*41\r
+!AIVDM,1,1,,B,13ccd@0P000g:EhHsA78:gw208CP,0*55\r
+!AIVDM,1,1,,A,13beG<00010VprhIFhKPj4S00l1C,0*3A\r
+!AIVDM,1,1,,A,13bIIn0000PL=VrNTWerji7400S4,0*10\r
+!AIVDM,1,1,,B,13brCD5OiJ0H<J8NT`>S3RQ228CE,0*46\r
+!AIVDM,1,1,,B,33aGDk@P00PEc@2Mang@0?w22BcC,0*47\r
+!AIVDM,1,1,,A,140UuHgP00PClB`MEHReagvfPHCV,0*7D\r
+!AIVDM,1,1,,A,14eGMDhP08G<JV6L=faKHOvt0<2A,0*2E\r
+!AIVDM,1,1,,B,14eGLt0P00o<O7>L9dcrm?w22HC7,0*56\r
+!AIVDM,1,1,,B,14eGLiPP1CG;U:nL3o7<BOw20@C8,0*70\r
+!AIVDM,1,1,,B,14eGLvgP00G<RrVL9j9lCww000SU,0*3D\r
+!AIVDM,1,1,,B,15Tbb@0001o;vvvL=UtI<3K405Ip,0*43\r
+!AIVDM,1,1,,A,34eGTqPP@bG;pd6L7?JCcPi4011P,0*19\r
+!AIVDM,1,1,,B,15NJIpPP16JeHtDGBjfd;gw42000,0*3C\r
+!AIVDM,1,1,,A,139K8sP0000WqO0NlJ;rID9208C1,0*49\r
+!AIVDM,1,1,,A,13bPrD0P0=0CTtNMcwkrS?w40HCV,0*52\r
+!AIVDM,1,1,,A,16K8DLg001awJC`DA4gp50k20@CO,0*75\r
+!AIVDM,1,1,,B,B3uG0KP0?PDgS08O4iNeWwhUoP06,0*77\r
+!AIVDM,1,1,,B,13aEPjPP00PD9odMDQ3h0?w22D6>,0*28\r
+!AIVDM,1,1,,B,13q5DN@P00Q1MsBNncAp5wvvR5Ip,0*0B\r
+!AIVDM,1,1,,A,19NWw0h2@qO`1?<Davw:=`Lv08CC,0*77\r
+!AIVDM,2,1,0,A,A02VqLPA4I6C00@5Gq6H7gnE0QtOvvgfD@cu<@1f4?l6wA4GwTct70;u7P8@,0*76\r
+!AIVDM,2,2,0,A,1?nI0k4DwGKk8h3sF?1I1wgPtTp=wRkv1:bb,0*3A\r
+!AIVDM,1,1,,A,13aBNS0P1H0DSu0Me=bpnww0P8CW,0*44\r
+!AIVDM,2,1,2,B,533lHWT00000uC??3D1L4i@E;L0000000000000Q4P1250l:?2PSkk@00000,0*0E\r
+!AIVDM,2,2,2,B,00000000000,2*25\r
+!AIVDM,1,1,,A,14QIG<5sB1KF@96:L7ua5o8v0P00,0*16\r
+!AIVDM,1,1,,B,14eGEB?02?o;@uJKqE5iUiI20l1N,0*6B\r
+!AIVDM,1,1,,A,13aDpfhP000D9@JMDC7:iOw428C`,0*63\r
+!AIVDM,1,1,,B,13aIkFPP00PFq<TMeIg00?w225Ip,0*6F\r
+!AIVDM,1,1,,A,13aGEMOP00PChn<Md?9@0?w228C`,0*30\r
+!AIVDM,1,1,,B,15Mj3HP01`o?bmvK<IfKQ9940@CU,0*75\r
+!AIVDM,1,1,,A,13IeUW001IP0S?PLCkJDiSm408CQ,0*3D\r
+!AIVDM,1,1,,A,133i5BgP00PCf5pMGi`IFww428CW,0*28\r
+!AIVDM,1,1,,2,33aFh=hP12PAGshMB0PWqwvt24uk,0*75\r
+!AIVDM,1,1,,,4h2=aLAuho;NPP5Su6MaCIo00D6g,0*26\r
+!AIVDM,1,1,,A,13aGs1hP00PGg<NMhQFSvgw2R0Rk,0*14\r
+!AIVDM,1,1,,B,133iA0PP00PDRnBMDOIkQ?w02<5T,0*44\r
+!AIVDM,1,1,,B,18J<dt?P007K2U`0fWc5Agw200SF,0*7F\r
+!AIVDM,1,1,,B,15BBdR002u0a`bnICOwlH3Rv05Ip,0*50\r
+!AIVDM,1,1,,B,14Re:N002VOE9jNDv8k5FTA205Ip,0*19\r
+!AIVDM,1,1,,A,133s1>PP15PD?@JMdb9C4Ow22D7w,0*77\r
+!AIVDM,1,1,,A,368sVcPOh48K9;@FD6PV17I40000,0*66\r
+!AIVDM,1,1,,B,133mPOSP?w<tSF0l4Q@>4?wv08Ca,0*17\r
+!AIVDM,1,1,,A,804<o3@0Bj96WSWjISUg3B3jNP6aWwepwwwwwwwwwwwwwwwwwwwwwCwwwt0,2*6D\r
+!AIVDM,1,1,,B,402PeFQuho;NOOH`:2EFK<1005Ip,0*5F\r
+!AIVDM,1,1,,A,133S0:0P01PCsJ4MECAR0gw408Cb,0*54\r
+!AIVDM,1,1,,A,13et9T0tQvO0JCJ49VilfSm000SE,0*27\r
+!AIVDM,1,1,,B,169DQQPP017kdT`;CwIH<Ow200Ro,0*57\r
+!AIVDM,1,1,,A,13bS>h000jPCDovMWitW0mS008Cb,0*10\r
+!AIVDM,1,1,,B,13IbN0?000PFn`jHmQs8p@I400S3,0*1D\r
+!AIVDM,1,1,,A,16:B5T00018Lb0PFB<eP5D9208CT,0*27\r
+!AIVDM,1,1,,A,13aB:Hh000PHjEBNKJgKDAs20<0k,0*28\r
+!AIVDM,1,1,,A,13prTQP001PqbTJOp9Mc4a342D1K,0*69\r
+!AIVDM,1,1,,A,38u<a<?PA<2>P2Ufu@B8?6740Pn@,0*7D\r
+!AIVDM,1,1,,B,133tn1PP00PCk>bMGb<S;ww228Cc,0*3F\r
+!AIVDM,1,1,,B,13aDpg0PAEPFj6fMaipCuS;RP@Cc,0*54\r
+!AIVDM,1,1,,B,13c`EJ0P000e0FtI?:F00?w00<0g,0*35\r
+!AIVDM,1,1,,B,13a2fv0000QDhW`O=?tR<1h@08Cc,0*48\r
+!AIVDM,1,1,,A,13aBK=wP000CsblME@t00?w00D3w,0*2C\r
+!AIVDM,1,1,,B,13aGCmPP0tPGhaNMaItlP?w22D0=,0*17\r
+!AIVDM,1,1,,B,401uEPAuho;NQ0CNE@MHfj100<94,0*56\r
+!AIVDM,1,1,,B,1440cr0P00RBHvDJo39a:?w228Cd,0*1C\r
+!AIVDM,1,1,,B,23L?MH0OiQP>RALMIP=S2jI208Cd,0*12\r
+!AIVDM,1,1,,B,13?qn>00000W:nhNaK8lQPk200R5,0*6D\r
+!AIVDM,1,1,,A,133qA7PP1HPDO6PMdhcqMOw22<6P,0*28\r
+!AIVDM,1,1,,A,13@oU8P00106kFtMQVc@miI408CV,0*55\r
+!AIVDM,1,1,,B,13GSqP00000HRPPHj:45AWPv00R@,0*03\r
+!AIVDM,1,1,,,13P<jah01aP7rD0MR<GHGVdv0<<O,0*3B\r
+!AIVDM,1,1,,,139M960P00PI`iVN8N>rGww428Cc,0*15\r
+!AIVDM,1,1,,B,15Mw<`PP00ISw3:A8HN<@?w20D0N,0*50\r
+!AIVDM,1,1,,A,15MuJugP00qSfUtA8w:8tOw025Ip,0*39\r
+!AIVDM,1,1,,B,15MwcH0P01IS61VA7rickgw205Ip,0*61\r
+!AIVDM,1,1,,B,15N3@0PP01IS;F>A8C@;UOw400S?,0*00\r
+!AIVDM,1,1,,A,15N1a`0P00IRR14A8<PatOw20<5H,0*0B\r
+!AIVDM,1,1,,B,15N1?40P00IShQ`A4IOawOw20@CV,0*7C\r
+!AIVDM,1,1,,A,15N0EhPP00IU1<dA8@ld6Ow20D5i,0*21\r
+!AIVDM,1,1,,B,14RlS8001D0aE=hNlMq1wQe00@C6,0*18\r
+!AIVDM,1,1,,A,13aEO5?P00PDTi8Md`FCrOw225Ip,0*0E\r
+!AIVDM,1,1,,B,168uRggP008F<eH=G=Rv4?vv00SI,0*70\r
+!AIVDM,1,1,,A,B69Dg000028VRD3fIk:;Cwh4kP06,0*21\r
+!AIVDM,1,1,,B,139e?E5P1<0GKQTMaU`lg?w4R<6A,0*27\r
+!AIVDM,1,1,,A,11OGQ0?1@18g;<8EMD=i=T320<3?,0*20\r
+!AIVDM,1,1,,A,169oU:000188vOv<bdMHEPLj0<5W,0*34\r
+!AIVDM,1,1,,A,403tB7Quho;NG85H0v<qnoA00@>N,0*3F\r
+!AIVDM,1,1,,A,1002QLPP1488gdh<j47hGgvj05Ip,0*6B\r
+!AIVDM,1,1,,B,1690F5?P008R6jb>RPKQAww000RW,0*31\r
+!AIVDM,2,1,1,B,56:=:T0000022222221UD4r0@63V22222222221658<6300008N>00000000,0*41\r
+!AIVDM,2,2,1,B,00000000000,2*26\r
+!AIVDM,1,1,,A,133iB;PP00PD<V2MDG<JnOw225Ip,0*29\r
+!AIVDM,1,1,,B,13`j4hgP00PKHL6MCEHP0?w22HCf,0*29\r
+!AIVDM,1,1,,B,13aEuL0PAE0rgSnOkGepVFo400SB,0*6A\r
+!AIVDM,1,1,,B,14hwBH00000PIklHsJN80Bpv0d15,0*38\r
+!AIVDM,1,1,,B,13I3>5gP000P`?lHt981cww40UIp,0*35\r
+!AIVDM,1,1,,A,33aGsdmP0bPHQ;LM`t7dJgw02001,0*25\r
+!AIVDM,1,1,,B,13aFfPhP00PD1U>ME@:cCww025Ip,0*1C\r
+!AIVDM,1,1,,A,19tq6t000wabB3>Cjw=cRqC20HCT,0*5F\r
+!AIVDM,1,1,,A,35T1a@1000ncIbNO5LH@l2a00000,0*3C\r
+!AIVDM,1,1,,A,16K2C2h000ad0PlCiE`=DC3N08CU,0*2E\r
+!AIVDM,1,1,,A,13aBNVPP000DFc6MdT?P0?w0P8Cg,0*6E\r
+!AIVDM,1,1,,A,34RsH`002<ac<A4ClodUbTU001fi,0*41\r
+!AIVDM,1,1,,B,33u=R1P000Pmw4VPwknJ49c00000,0*70\r
+!AIVDM,1,1,,B,13uCDR00000nBEtPw3CHg0740@CO,0*1D\r
+!AIVDM,1,1,,B,13M4L000000nJglQ0OgWC`a40@CP,0*36\r
+!AIVDM,1,1,,A,13eop8001j0l78>PqB9L<qg20<1k,0*08\r
+!AIVDM,1,1,,B,4025bvAuho;NP0jV6vPi?hi00L3J,0*5A\r
+!AIVDM,1,1,,B,13uBK>P0000mpHnQ>W;RVJ940<0i,0*1B\r
+!AIVDM,1,1,,A,13uJPH001gPmKgpPtIPGOmw208Cf,0*04\r
+!AIVDM,1,1,,B,13aJFhhP0nPInRdMdR6D4gw22<7>,0*1D\r
+!AIVDM,1,1,,A,D028nBi?@NfqoQN01Mhv01T0N00,2*30\r
+!AIVDM,1,1,,A,13u@tig0001Bwg:Qt3o```s40<15,0*54\r
+!AIVDM,1,1,,A,13u:Pt00000hLhnQ1Uw0>AW408Cf,0*1E\r
+!AIVDM,1,1,,A,13A;Lp70000hP@tQ1av8iDu40@Ch,0*21\r
+!AIVDM,1,1,,A,17bHe60PAbawjHhD9=SH6Qg420Rq,0*08\r
+!AIVDM,1,1,,A,16K2As@000awSjPD9pgW:;3408CT,0*41\r
+!AIVDM,1,1,,A,A04757QAv0agH2JdH1tP7OqV0@TGw9L270,4*00\r
+!AIVDM,1,1,,A,16:@Nr00008e68rFD``PWF740d3e,0*04\r
+!AIVDM,1,1,,A,35Ac1N1008OS;;@DbDr8B42p0000,0*34\r
+!AIVDM,1,1,,A,4028j?iuho;NKOQuS:E;;0G000S:,0*31\r
+!AIVDM,1,1,,A,102Cu;wP00OShLfD8d5b4wvt2<3=,0*6F\r
+!AIVDM,1,1,,A,13qACf0PAAQEr8:O9CvKuqU400SH,0*43\r
+!AIVDM,1,1,,B,1Bwj;@@P1H1bnodEbFortOw00000,0*6F\r
+!AIVDM,1,1,,A,13:E2B0001PiAt<R@u>8B1100<0Q,0*64\r
+!AIVDM,1,1,,B,35NKeG02Ado<P2@ERoA:P`M00P00,0*7C\r
+!AIVDM,1,1,,A,4028j:Quho;N7OvPkdFl:VG00<2s,0*03\r
+!AIVDM,1,1,,B,13BC:f001e0@nnpMg5iRnR?000SU,0*3F\r
+!AIVDM,1,1,,B,13GQu5PP00PD>L6MD@U00?w2R8Ci,0*07\r
+!AIVDM,1,1,,A,35Mt>c?OhKJe1r8G?rf7>bk601:1,0*13\r
+!AIVDM,1,1,,,13nF;:300308<GPMj7tWL65428Cg,0*09\r
+!AIVDM,1,1,,B,F030p2j2N2P6Ubib@=4q35b1P000,0*61\r
+!AIVDM,1,1,,B,36:jBv50007koK8;BPpB=q;20000,0*5F\r
+!AIVDM,1,1,,A,13aDrRwP?w<tSF0l4Q@>4?wv0t74,0*19\r
+!AIVDM,1,1,,A,169q1CPP008Vft8DaKV29?w3r5Ip,0*69\r
+!AIVDM,1,1,,B,13Hb5d00000HS@tHiw80D60v0hCU,0*67\r
+!AIVDM,1,1,,A,13454`0000P153FLCUu`bC700L<B,0*3B\r
+!AIVDM,1,1,,A,13GR5GgP0000o0`LDT>5FOw40@C`,0*05\r
+!AIVDM,1,1,,A,13Gbrf7P0L031h`LwlnbD?w205Ip,0*6D\r
+!AIVDM,1,1,,B,13aGrcPP00PUEmHNb=:s9?w2R0Rg,0*39\r
+!AIVDM,1,1,,A,80b`AQhj2d<dtNM=L1F@e?aE4n00,0*25\r
+!AIVDM,1,1,,B,13aGEFgP00PDTVvMdWHkTww220Ri,0*57\r
+!AIVDM,1,1,,A,13@noC@P010qgqDP4:8EBgvv08Bs,0*1B\r
+!AIVDM,1,1,,B,13uBIAPP0v0sON8Om1lSBOw400Sm,0*78\r
+!AIVDM,1,1,,A,13m7KD002I0Jq7TQion1=Q300D23,0*70\r
+!AIVDM,1,1,,A,13msSa90000oD;pV39Tajn740HCi,0*6D\r
+!AIVDM,1,1,,A,16K2CR0P00:0=@bD>ajSSOw40UIp,0*1D\r
+!AIVDM,1,1,,B,33aEP5hP00PO2qBMqI8DkOvh2;nS,0*45\r
+!AIVDM,1,1,,B,15Mj3<0000o?J6dK;q9K4Vk20@Ch,0*52\r
+!AIVDM,1,1,,A,36K2;iP01HawLqvDC5qatWq420rP,0*28\r
+!AIVDM,1,1,,B,33u=a=P001Pq<NDPSbFp26O000r1,0*28\r
+!AIVDM,1,1,,A,13u=aO0P000m4VRQ7ph00?w00<0>,0*4B\r
+!AIVDM,1,1,,A,13aJHT0P00PDVcFMe@000?w2RHCk,0*04\r
+!AIVDM,1,1,,A,16K2;J001Wb046PDFc1:b`S008Ce,0*6A\r
+!AIVDM,1,1,,A,143udP0P01RBLS6Jo?K6>gvv88C>,0*4A\r
+!AIVDM,1,1,,A,13u>=<?P011BhqhQteSFRgvv0<0e,0*3B\r
+!AIVDM,1,1,,A,18159Mh034P89vJME5T`8FM40@Ck,0*3B\r
+!AIVDM,1,1,,A,16KDQR0001b0Au0DFwk6LTo40D5N,0*1E\r
+!AIVDM,1,1,,A,16K2:A001ub03APDB:N1giM405Ip,0*1F\r
+!AIVDM,1,1,,B,14eGQ@PP00FcB5pO4Be0Pgw20<0C,0*50\r
+!AIVDM,1,1,,B,1399V:301KQ1OU<NonDQuQTv0D0R,0*3E\r
+!AIVDM,1,1,,A,381518A003OVIl@DQUs7sbVv0DWJ,0*72\r
+!AIVDM,1,1,,A,13uGg9PP00PrfkNOuSeP0?w225Ip,0*01\r
+!AIVDM,1,1,,A,13P<FmP001OglPlNsTbPUHC405Ip,0*77\r
+!AIVDM,1,1,,B,168uRKSP01871<t==<loW?vt0<3U,0*3D\r
+!AIVDM,1,1,,B,100EG;3P00JnGP6GVm:lLgw000Sm,0*33\r
+!AIVDM,1,1,,A,14eGG2P000o:qBrKmdSr2jw220Rq,0*5F\r
+!AIVDM,1,1,,B,36:?v=P01C8Q11D>C?D=Irg00Rti,0*79\r
+!AIVDM,1,1,,B,403tDFiuho;NO<tSF0l4Q@000UIp,0*3D\r
+!AIVDM,1,1,,A,35Cul050000BTrDMf2gdv7k20000,0*5D\r
+!AIVDM,1,1,,B,16:;BJ00?w<tSF0l4Q@>43000T00,0*1A\r
+!AIVDM,1,1,,B,16:F:280008OHm4><W7P01C225Ip,0*44\r
+!AIVDM,1,1,,A,E>q7Esf9bh8Th<bhHJLIKh1T2W@4GUW69Hj:000003v010,4*08\r
+!AIVDM,1,1,,A,169CGP00iq8dkPLAtJRDe3m20HCF,0*62\r
+!AIVDM,1,1,,B,B69DpLP0CJ88g@3Rw?GD;whRP8A=,0*16\r
+!AIVDM,1,1,,B,177nPP0P008:Vr@<hKP2www20@CG,0*30\r
+!AIVDM,1,1,,A,15D37n001M2>Da9fsFFai7hv08Cf,0*79\r
+!AIVDM,1,1,,A,C69@gi@00:8eJK4v0`fwcwh6Vb>2LjcQaUge11111110?1@51QP7,0*2C\r
+!AIVDM,1,1,,A,169fbn0P018S2N2>qdJo@gw200RO,0*47\r
+!AIVDM,1,1,,A,168sgUg001`ccWLEOTsKrls225Ip,0*72\r
+!AIVDM,1,1,,A,4h2=aOAuho;NOOVL3pOB=LQ00D0b,0*7F\r
+!AIVDM,1,1,,A,33Ihdm?0000@sBFHmFbPGgw204s3,0*76\r
+!AIVDM,1,1,,A,17c?=H0P1:PA7SlHl<tGKOvt0<0H,0*22\r
+!AIVDM,1,1,,B,14`Vhp02BJOD4@LE6AdVVUE208Cl,0*64\r
+!AIVDM,1,1,,B,13aC24@P000DcjNMdu6@0?w005Ip,0*7E\r
+!AIVDM,1,1,,A,13`uG>00000eVERN`>GGK9c40PSE,0*1F\r
+!AIVDM,1,1,,A,15NGAR0000ISSk0A7L6t@`G40D3?,0*79\r
+!AIVDM,2,1,3,A,55NGAR02Af91L@GKKG<<51B0`TlmV1B0lu84r20l1`=274vP0<C3miDSBDlj,0*66\r
+!AIVDM,2,2,3,A,DljD42DREQ@,2*55\r
+!AIVDM,1,1,,A,13aDrRPP00PK6JPMB<Ou?gw2RKwt,0*18\r
+!AIVDM,1,1,,B,15MwNf0P00IRNJhA8D1IVgw208Cg,0*39\r
+!AIVDM,1,1,,B,13Ug;r0P011cslfEenmh>Ow22@Cn,0*36\r
+!AIVDM,2,1,0,B,53aGCmD000010CWCST05H4q@T00000000000001?8P<27tfm02d<<<<<0000,0*5B\r
+!AIVDM,2,2,0,B,00000000000,2*27\r
+!AIVDM,1,1,,A,16SWT=P000a3P;HEKOI00673r8Ch,0*06\r
+!AIVDM,2,1,9,A,53M@IVP1WsK<MU@h000<PE99Uu<4p@000000000Q5PB0<4`0N9UklRjC,0*7B\r
+!AIVDM,2,2,9,A,Qp25C@QDP000000,2*7D\r
+!AIVDM,1,1,,A,15Mq48P00lG?pLTK>PJ71EU405Ip,0*4F\r
+!AIVDM,1,1,,B,133fmsgP0vPG5hNMaV2SQgw4R8Cm,0*33\r
+!AIVDM,1,1,,B,13P;EjO000Orre@M4Gc9@bK000RP,0*49\r
+!AIVDM,1,1,,A,13u>E<gP011D5U`QwJ;VM?w005Ip,0*5D\r
+!AIVDM,1,1,,B,139dP>?P00Q1MCRNnbpuWww2R<0V,0*6D\r
+!AIVDM,1,1,,A,369pWf0P@K8K9fpFCCsch9U4011h,0*52\r
+!AIVDM,1,1,,B,4025bp1uho;NQ0oQTNP5cG100L1v,0*3C\r
+!AIVDM,1,1,,A,13oGfN8w0011ja@VP1A009uT0l0G,0*65\r
+!AIVDM,1,1,,B,402R3GAuho;NQ1BvVBQtrNi00D20,0*05\r
+!AIVDM,1,1,,B,13aGEf0P0wPD2@tMDf6SU?w2R8Co,0*74\r
+!AIVDM,1,1,,A,143tf0000a2HudrIQ=REq53400Sf,0*3E\r
+!AIVDM,1,1,,A,15MwrOP000rdsMRG@L8LnR340<39,0*3D\r
+!AIVDM,1,1,,A,13aIk2@P00PDQPrMe6mehgw225Ip,0*40\r
+!AIVDM,1,1,,A,15N1EN0000Je2q@G@JNbNhO200Se,0*76\r
+!AIVDM,1,1,,B,402FhL0000Htt000000000000L1I,0*0D\r
+!AIVDM,1,1,,A,15MrmuP000qS<W>F7K0LLP=20<0e,0*1E\r
+!AIVDM,1,1,,A,13aDCK?P1IPG24`Mg:jIc?w228Cp,0*7C\r
+!AIVDM,1,1,,B,152J4lwP00IOmqlBR9LJdgw420S3,0*5D\r
+!AIVDM,1,1,,B,14eGuuP000t>hk6K>1pu2WS42HCo,0*08\r
+!AIVDM,1,1,,A,14RU:h002n0MIgpNhI4S32K008Ci,0*59\r
+!AIVDM,1,1,,B,14cluh0PAu0GnkVNWVH2P23405Ip,0*2E\r
+!AIVDM,1,1,,A,133veScP00PCc@tM?hrIsgw425Ip,0*68\r
+!AIVDM,1,1,,A,14h@HK01AsGSJcVC8FEM>:S405Ip,0*3A\r
+!AIVDM,1,1,,B,13aDpLhP1`PG:fTMajh9Cww2R<3`,0*13\r
+!AIVDM,1,1,,B,13aENU@P1PPC6OFMf:EU2?vn20S1,0*31\r
+!AIVDM,1,1,,B,13@umj54P`0CgLvMGT<s3I;208CC,0*60\r
+!AIVDM,1,1,,A,3344Ib07@@P<aklMHj>qtig2015i,0*35\r
+!AIVDM,1,1,,A,36K8Do@01tawLI0DB2pTTkg400rQ,0*32\r
+!AIVDM,1,1,,A,16K8De0001aw>wfDBLB`FFa405Ip,0*4A\r
+!AIVDM,1,1,,B,13nCKH00000IsSTQh`F9Qha40<1d,0*17\r
+!AIVDM,1,1,,A,13m7C700000JAw:QgWQ79Bw00HCm,0*11\r
+!AIVDM,1,1,,B,13aI:D0P00PDPBvMdSV@0?w22L7v,0*78\r
+!AIVDM,1,1,,A,33oIKn0Oif0IBDvQpbCVtUc401;1vF5vPT,0*00\r
+!AIVDM,1,1,,B,14aOW:001T0G?e8NVGqRP1vt00Sb,0*3D\r
+!AIVDM,1,1,,A,33`hokh0000Gol0NQuG37km405:3,0*21\r
+!AIVDM,1,1,,B,139K8WPw000eJJ2N`kr@0Bg008Cr,0*11\r
+!AIVDM,1,1,,B,13bs=r0P00PIM;DNK`E@Pgw408Cr,0*1F\r
+!AIVDM,1,1,,A,13P:oA0009ww7=0Ncqa@5Q3205K@,0*45\r
+!AIVDM,1,1,,A,13P;mk@P00P6PnfMGg`P0?w425Ip,0*48\r
+!AIVDM,1,1,,A,35@QRF500000oFVLCPqtCbS3P000,0*24\r
+!AIVDM,1,1,,B,139Oet0P00Pao5jNmR6J9gwb05Il,0*47\r
+!AIVDM,1,1,,B,13@`NV00000aoK8NmSg3Bnm000SO,0*1B\r
+!AIVDM,1,1,,A,13:nRl0203PawN`Nn>K3ho=20@Bu,0*0E\r
+!AIVDM,1,1,,A,13cDvF30000b@4nNoRB3DiA200S=,0*4A\r
+!AIVDM,1,1,,B,13agN@500w0aOD4NlwlBDj0v0<1Q,0*7C\r
+!AIVDM,2,1,7,B,53cDvF02?o4u0<UN221L5@E9=A8ttn222222220l1@D554Wi0<35@SBC`888,0*79\r
+!AIVDM,2,2,7,B,88888888880,2*20\r
+!AIVDM,2,1,8,B,539eMKP30000@8dR22098E<h5F222222222222152PD:340Ht00000000000,0*1F\r
+!AIVDM,2,2,8,B,00000000000,2*2F\r
+!AIVDM,1,1,,A,4020rliuho;NQPWnmHNlh<700<00,0*30\r
+!AIVDM,1,1,,A,4020sViuho;NQPan`pNmQ0W00<00,0*5C\r
+!AIVDM,1,1,,B,30N6fQ0P1<PD;m<McuDlqww4R@53,0*58\r
+!AIVDM,1,1,,B,402=acAuho;NQwi3FHNPPTW005Ip,0*59\r
+!AIVDM,1,1,,B,13b=P8002RP8isLMK0lHaVu220SK,0*36\r
+!AIVDM,1,1,,A,33IW><0r@fOrto2M4ig:G`I200uA,0*6F\r
+!AIVDM,1,1,,A,13P:Rg0P00OvgfFNh>7@0?w00<13,0*4C\r
+!AIVDM,1,1,,B,13LBaDgP001Qm60R=C1s?Ow22HCI,0*1B\r
+!AIVDM,1,1,,A,13aGsKPP00PDTIRMe9;iEww428Cs,0*69\r
+!AIVDM,1,1,,A,13aH00PP1EPGkiLMhGocRww4RKtv,0*33\r
+!AIVDM,1,1,,B,133mhPPP00PCvDhMEUsI@ww425Ip,0*25\r
+!AIVDM,1,1,,B,19NSAn0004Pa>mtI=`F=eR=00<2E,0*23\r
+!AIVDM,1,1,,B,402=aciuho;NQwj>vlNRql700<0p,0*60\r
+!AIVDM,1,1,,B,13QRst0000vqMv:@6`<FtUe40HCs,0*71\r
+!AIVDM,1,1,,B,14eRtl0000o<Sj8L6wsHkoU200S3,0*68\r
+!AIVDM,1,1,,B,15N;0>0016Jll`pGWe><Ob3205Ip,0*60\r
+!AIVDM,1,1,,A,168sVhP0028K2nvFCLmhWPO40D3g,0*7F\r
+!AIVDM,1,1,,B,13aDr2hP2j0D@8HMdeRIkww00HCt,0*25\r
+!AIVDM,1,1,,B,13aGt2OP00PHM6DM`5v00?w4R0S9,0*65\r
+!AIVDM,1,1,,A,1Sc4<80024wWER8QL3DQJ1;40000,0*51\r
+!AIVDM,1,1,,B,16:C`APP0089KwP<o;cu?Ow20@CI,0*26\r
+!AIVDM,1,1,,B,169GF20P1289HQ8<nO`A0Ow20l80,0*39\r
+!AIVDM,1,1,,B,169G?<`P1F862Pt<L?RBGio008CT,0*31\r
+!AIVDM,1,1,,A,169D>A@P?w<tSF0l4Q@>4?wp0PSQ,0*0F\r
+!AIVDM,1,1,,A,369sGF5P00`OOC@><m`:Ugw40000,0*2A\r
+!AIVDM,1,1,,A,16:Qk<?P008QHw4>G5PjmqJv0@G8,0*49\r
+!AIVDM,1,1,,A,403tAEiuho;NI89E5<<nomi00D9<,0*73\r
+!AIVDM,1,1,,A,177jmV005B88v=T<dD84<S8j0D3@,0*04\r
+!AIVDM,1,1,,A,169Fa28P3S888ah<gARaTwvl05Ip,0*18\r
+!AIVDM,1,1,,A,176v:P0000`7m90<dnA=G9Dl0@?j,0*00\r
+!AIVDM,1,1,,A,16:CdC8P1m88spV<g?l6AOvn2@@4,0*30\r
+!AIVDM,1,1,,A,15CC1f0026`8qN8<fA86wURl0<:o,0*7E\r
+!AIVDM,1,1,,A,1775kT9PB>87s38<ct4725Vn0@@A,0*19\r
+!AIVDM,1,1,,A,169rrG0P00890v`<bg1I:OvR2D2=,0*71\r
+!AIVDM,1,1,,A,169Fm>0P3r87s>J<dALcrwvp0@@R,0*73\r
+!AIVDM,1,1,,A,16:=P80P15`8Fk0<bgu@Kgvp05Ip,0*75\r
+!AIVDM,1,1,,A,16:9uQQP0088pSl<h1E00?vp05Ip,0*6D\r
+!AIVDM,1,1,,A,177n<LO002890;8<bGWugJ>r2<4f,0*40\r
+!AIVDM,1,1,,A,177?Op006E`90:p<dW7knRvr08A?,0*5A\r
+!AIVDM,1,1,,A,169833PP0088vjf<bwolF?vur<6`,0*12\r
+!AIVDM,1,1,,A,176uc@801V`7oKp<dUN;maFt05Ip,0*56\r
+!AIVDM,1,1,,A,176tAJ0PAG87mnJ<dmpLdr6v0000,0*16\r
+!AIVDM,1,1,,A,177A=@006O`8M=2<dT?r<HDv00S<,0*20\r
+!AIVDM,1,1,,B,14SWdT000twh1WNN`@FCDRi20pCu,0*37\r
+!AIVDM,1,1,,A,1775kT9PB887s38<csc6hUDv0<5h,0*5E\r
+!AIVDM,1,1,,A,177k099OmV`98E:<dD7S2RHv05Ip,0*3C\r
+!AIVDM,1,1,,B,13aEOBPP1IPDTeLMe<iiv?vjR<=I,0*44\r
+!AIVDM,1,1,,A,169Fm>0P3t87s6d<dB4;pww00@Bo,0*0C\r
+!AIVDM,1,1,,A,369?uuP01C88Wup<dLbagWw00S0Q,0*07\r
+!AIVDM,1,1,,A,168upHP000890v0<bg;d<1C005Ip,0*67\r
+!AIVDM,1,1,,A,168tHT?0008R`b6CpI1@07a3r8Ca,0*16\r
+!AIVDM,1,1,,A,16:@K0002L8d7o>EWVRGLUu405Ip,0*51\r
+!AIVDM,1,1,,B,16:D0fP000`7vsb=80mVFoK20<5G,0*7A\r
+!AIVDM,1,1,,A,169HdV0002`clt8B0bqSc9bt0@CH,0*46\r
+!AIVDM,1,1,,A,13eQ>r001f8d5HtAwe4<U:120@CT,0*0E\r
+!AIVDM,1,1,,A,168wDfP00U8cE@0B4DJeoP540LKp,0*43\r
+!AIVDM,1,1,,A,14VK8t00098jT3<AmL34M6A00@C2,0*1E\r
+!AIVDM,1,1,,B,B69@=N00AR8:K=SRw>J6OwhTkP06,0*31\r
+!AIVDM,1,1,,B,16:?td0P0087;6H=<898sPTf00Rh,0*0E\r
+!AIVDM,1,1,,B,16:ADA00018fst@A8i=IL@7228Cc,0*03\r
+!AIVDM,1,1,,A,16:Qt;?P008LjN>>4wR1Lgvv0<0C,0*4E\r
+!AIVDM,1,1,,A,16:<rS00018Kt7DFCbQrkCa40L5i,0*6A\r
+!AIVDM,1,1,,A,16:f9F80008dcJHFAfV;BRI400RK,0*4F\r
+!AIVDM,1,1,,A,13aGCm@P0=0D9s`MDQ19>Ow4P<5c,0*37\r
+!AIVDM,1,1,,A,15Mw9FPP01Je?9jGDdcELOw42<3E,0*5C\r
+!AIVDM,1,1,,B,:02Au11EB6G0,0*6F\r
+!AIVDM,1,1,,B,23NCqt5PAP0>VKvMI2BtDr142@Ct,0*4B\r
+!AIVDM,1,1,,A,36K2:jhOh5awouDDCJfG9rQ20000SE7vA>,0*54\r
+!AIVDM,1,1,,B,139MP40000PeVk8N`pp9W8740D3W,0*6C\r
+!AIVDM,1,1,,,33b`7@3P@EP8<j:MjKMkaAm200u@,0*70\r
+!AIVDM,1,1,,B,13aGE<RP1T0HaObMb0=pROwLR8Cw,0*01\r
+!AIVDM,1,1,,B,133vtjPP0oPD@SvMDK?TCgw42@Cw,0*5A\r
+!AIVDM,1,1,,B,15OSTb7P00G?gORKAVrb@ww20@Ct,0*17\r
+!AIVDM,1,1,,A,13MFDR001FOj=nPNTuKa67C00D0q,0*6A\r
+!AIVDM,1,1,,B,16:FDl801d`VL=tDQIjI36m20@Cq,0*7F\r
+!AIVDM,2,1,2,B,53u>=v020S2A<@dN2208hT@u=DpB22222222220t0pL3440Ht7`88888,0*04\r
+!AIVDM,2,2,2,B,888888888888888,2*2D\r
+!AIVDM,1,1,,A,13ckK;002?KHL0n:Mur1diLv0D0b,0*10\r
+!AIVDM,1,1,,2,13c>PB00000AO=0MGWoMqTg40<3I,0*54\r
+!AIVDM,1,1,,B,15Mw:;0P00INp3VBUt:<9gw20L0?,0*65\r
+!AIVDM,1,1,,B,13prUP0P010qbV0Op9Urm?w42<1I,0*42\r
+!AIVDM,1,1,,A,16902N0000`eBLlFE9j6rQrv00ST,0*75\r
+!AIVDM,1,1,,B,13aM:H0OinP=IRJMh5VD137005Ip,0*06\r
+!AIVDM,1,1,,B,85MwpGiKf6<;`FdIH<AS2rV`E:Ja8<WwPFeih4IUe>3DUKSWdwCL,0*4B\r
+!AIVDM,1,1,,B,401uEPQuho;NP0Cl=8MEq@A00D8B,0*2A\r
+!AIVDM,1,1,,B,401uEPQuho;NQ0Cl<:MEq@i005Ip,0*32\r
+!AIVDM,1,1,,B,13I2o`001HwU9k<QDes5qlmR08LN,0*78\r
+!AIVDM,1,1,,B,13aGt<`P00PDQIDMe>>00?w42<6E,0*18\r
+!AIVDM,1,1,,A,13pr=`PP0011C`pNn=R00?w00@Cg,0*4B\r
+!AIVDM,1,1,,A,24SaQh500E0Cu1rMErfb4Gw400S0,0*33\r
+!AIVDM,1,1,,A,1INS2shv@01dIt8Ee1b9M0s00000,0*48\r
+!AIVDM,1,1,,A,15O;2F8P?w<tSF0l4Q@>4?wp0PSA,0*66\r
+!AIVDM,1,1,,B,24TbiR001M0Dr7FN1G?jt2C40L9D,0*78\r
+!AIVDM,1,1,,A,13aoJ4002Q07rgLN?r?Tlkhv0<0J,0*6E\r
+!AIVDM,1,1,,A,16KDPM0P2=awQKhD1e3@l?w420SM,0*57\r
+!AIVDM,1,1,,B,152HiUgP00JrjhbH@09dogw205Ip,0*1C\r
+!AIVDM,1,1,,A,16KJba001pawV@lD1@C6qES428Cp,0*24\r
+!AIVDM,1,1,,A,33B:4d;1hOPC=nHMefPmE4;60000,0*24\r
+!AIVDM,1,1,,A,16K8Duh00:aw@PDD@1qPvSI00<4H,0*4B\r
+!AIVDM,1,1,,B,54hdS:00?Hq9`<ts<00h4AV0<Q8U=@Tp4000000U4hH586`D0:0hD810BC0000000000000,2*4D\r
+!AIVDM,1,1,,,177J7T001p08BolM`Cgeqc9205Ip,0*3E\r
+!AIVDM,1,1,,A,16K2<E@02@awjV:D8dLGR5w40<5J,0*77\r
+!AIVDM,1,1,,A,13P7gohP0lwiHvBNtDF4g?w42D0H,0*54\r
+!AIVDM,1,1,,B,15MmEg0000qSbbVA7QBtNGg408Cp,0*27\r
+!AIVDM,1,1,,B,15MkupPP01ISGInA91Tovww208Cq,0*75\r
+!AIVDM,1,1,,B,239K6?50010CTGTMH5j9d:U205Ip,0*09\r
+!AIVDM,1,1,,A,13aDoj0P00PCW3>MHGSSJOw220Rg,0*18\r
+!AIVDM,1,1,,A,15@Vr6002a08kE8MHMa`eW3000S6,0*20\r
+!AIVDM,1,1,,A,13u><;?000PmJ@fQ0wAJGH922@Ci,0*77\r
+!AIVDM,1,1,,B,13uF36P001Pn=@lPw`8=<51608Cm,0*35\r
+!AIVDM,1,1,,A,13u?kOPP000mwtRPuUCh0?w208Cq,0*6D\r
+!AIVDM,1,1,,B,33tssF03@hPn=QhQ0Kg2j2=220uP,0*09\r
+!AIVDM,1,1,,B,13deb80000Pn7VbQ0l4JupG22<2;,0*45\r
+!AIVDM,1,1,,A,33Qa:H1001wWH=LDd21adBU5P000,0*19\r
+!AIVDM,1,1,,A,13m4dD0009O`;PDDdK3p2@S400Rb,0*59\r
+!AIVDM,1,1,,A,83q5Dr@j2d<dt<<dtQCha?aE5`P0,0*2A\r
+!AIVDM,1,1,,A,16K8DMP001awCUHDB>va?i1425Ip,0*30\r
+!AIVDM,1,1,,A,35Q3t`5000b0F<tD>voW4`Lv0000,0*55\r
+!AIVDM,1,1,,A,16K2EFh000awBEHDB8nIi6W405Ip,0*43\r
+!AIVDM,1,1,,A,339K3g1P01Oh<QdNTuOBnpe20000,0*65\r
+!AIVDM,1,1,,B,13:jTr002vP6<O0M9cQ8c6qp0W3h,0*26\r
+!AIVDM,1,1,,A,13aEOK?P00PD2wdMdLCjhgw22D66,0*2E\r
+!AIVDM,1,1,,A,13aC3W0P00PCR`4MEI`:dOw62HD3,0*6B\r
+!AIVDM,1,1,,B,3341N:0OiIPChh`MF>smeTe620o@,0*1C\r
+!AIVDM,1,1,,A,15MmiqPP2<Je>sDGDw787ww425Ip,0*74\r
+!AIVDM,1,1,,A,19NS?80000P0e1pLCVK74`740HCw,0*4E\r
+!AIVDM,1,1,,A,18;IgN001BawK28DB7oD63K20HCK@e3v4S,0*41\r
+!AIVDM,1,1,,B,13aGG20P0@PD:rjMDRnJsww6R<6o,0*5F\r
+!AIVDM,1,1,,A,33a9980Oh=0=KqPMCtpN2@A6022P,0*13\r
+!AIVDM,1,1,,A,16:F32PP008VQLlDbKG26Ua00<3n,0*38\r
+!AIVDM,1,1,,B,13P7kePuilP7`G`M?Mr1O1?200SI,0*5B\r
+!AIVDM,1,1,,A,1>qc9ww000OkfS@MMI5004S20<0B,0*34\r
+!AIVDM,1,1,,B,14eG;4hP00G;>i4KeU7rw?w400S0,0*7C\r
+!AIVDM,1,1,,B,13aGFkhP00PD=eNMDUSh0?w4R8D6,0*25\r
+!AIVDM,1,1,,A,14V`h2002C08@`<MF<uWnV=205Ip,0*34\r
+!AIVDM,1,1,,B,13P7D850?w<tSF0l4Q@>41Sp0pCd,0*2A\r
+!AIVDM,1,1,,B,13aI:6PP00PHkI:NKQoqlgw405Ip,0*3D\r
+!AIVDM,1,1,,A,19NWu4PP00ad0pTCljCP0?w02`Cr,0*1A\r
+!AIVDM,1,1,,A,13aIgj7P00PHj:fMgNb;uww4R5Ip,0*6A\r
+!AIVDM,1,1,,B,13`wgT0P5fPGnd<N>lRTGOw220S2,0*25\r
+!AIVDM,1,1,,A,10KHrq?P00PCq76MF3=@0?w428D7,0*5B\r
+!AIVDM,1,1,,,13`oHJ3Oh806k`vMR7GL2F340@Cm,0*31\r
+!AIVDM,1,1,,A,13aBKV5P1FPFevnMam4qj?w428D8,0*07\r
+!AIVDM,1,1,,B,37fRA<50002BI@<Jo3f0TBC40000,0*09\r
+!AIVDM,1,1,,B,133gS`P0000CjJDMG1dMr4g205Ip,0*0A\r
+!AIVDM,1,1,,A,1:07NIPP00PRvPPK=T7P0?w420Ss,0*72\r
+!AIVDM,1,1,,A,13=I`D5P008VjT6DanFV8Ow20pD2,0*28\r
+!AIVDM,1,1,,B,13aJH@OP1BPGfeRMaQU;b?w42<4D,0*5D\r
+!AIVDM,1,1,,A,19NWp9@P0AwcSjTDgw`jlww20D3E,0*64\r
+!AIVDM,1,1,,B,4h2=aQ1uho;NQOj00>NW7Oi008CS,0*1A\r
+!AIVDM,1,1,,,13aGDE@P1CPJd1FN5aGkVgw4R8D2,0*71\r
+!AIVDM,1,1,,A,13prC@UP0LQEN`tO6`WlOCO00000,0*43\r
+!AIVDM,1,1,,A,168rO00P1<8S:J0CpHiRbOw228Cf,0*55\r
+!AIVDM,1,1,,B,C69F6HP0ER5Ob>SEdeHeGwhPhBM0l@:L?0@;1R000000S2l431RP,0*11\r
+!AIVDM,1,1,,A,169`P?01QO`Swk2FjAbVj5O00=?Q,0*0F\r
+!AIVDM,1,1,,B,16:F680P1C8P>af>9;La4gw225Ip,0*2A\r
+!AIVDM,1,1,,B,169?uJ`P00`7nPj=4AEHTgw00`Ck,0*61\r
+!AIVDM,1,1,,B,B6:QnD00@R89gE3S<3>1CwgWQP06,0*42\r
+!AIVDM,1,1,,A,169;4=PP018SPWdFmP1`j?w40<2j,0*4B\r
+!AIVDM,1,1,,A,16=8cv002L`iME8B3kO0I0A200S4,0*7E\r
+!AIVDM,1,1,,A,33mGSF0OkFPJhnvQfqjH2FI400Sh,0*77\r
+!AIVDM,1,1,,A,13HWpB?P0G02uw@M0Cu:k?w22@Cu,0*75\r
+!AIVDM,1,1,,B,1344An0v000=KmlMCvL003u20<0l,0*19\r
+!AIVDM,1,1,,A,13aDqE@P00PChWrMd?BGgOw42<3w,0*49\r
+!AIVDM,1,1,,A,13@RSd002AwD2A8EbBsMVrq40@D1,0*35\r
+!AIVDM,1,1,,A,13UaA00024wCFudEiHp=Q:s40@D5,0*00\r
+!AIVDM,1,1,,A,13aGuU0P0E0HSvjM`J8:v?w40<0q,0*22\r
+!AIVDM,2,1,3,B,53mEuj000000hAT>221H4E8tEUA84q>22222221?2PC346`h0;PSi3p8,0*0F\r
+!AIVDM,2,2,3,B,888888888888880,2*24\r
+!AIVDM,1,1,,A,13B3Rf0Oi90rfS0OuPqeV:s40<1c,0*02\r
+!AIVDM,1,1,,A,13P;:pPP@2P5LvfNImMmhq940<0R,0*7E\r
+!AIVDM,1,1,,A,15MwuMPP0dISt5hA8`PppOw205Ip,0*38\r
+!AIVDM,1,1,,B,13na:000j;P7MpHNB@L5IlE205Ip,0*3A\r
+!AIVDM,1,1,,A,15MwPIP000IT8=hA80psha900L1d,0*72\r
+!AIVDM,1,1,,A,15N:=eP000qT5`fA4iet1AK400Sp,0*59\r
+!AIVDM,1,1,,B,13aHMV0P000e`@pN`I`18gw00D3B,0*5B\r
+!AIVDM,1,1,,B,13aJHP0P1LPDd<@Mdi@tr?w428D:,0*0B\r
+!AIVDM,1,1,,A,377mIb5000`K7Q`FC8J668m00000,0*69\r
+!AIVDM,1,1,,A,24S8Dh5000PCSfBMH=jV=Tw20<6R,0*46\r
+!AIVDM,1,1,,A,36K2>>E001awhjdDI30:N0w42000,0*55\r
+!AIVDM,1,1,,A,16K8Cvh000b1FvpDGU6TOVI00@Ck,0*20\r
+!AIVDM,1,1,,B,13c??:?P000FKbvOMWRq0wwD20SI,0*22\r
+!AIVDM,1,1,,A,139e5wPP0uPK0n2NJ6VR=?w2R@D1,0*1E\r
+!AIVDM,1,1,,A,13aGuEEP1C0JJEnNTgFk3ww62@D:,0*17\r
+!AIVDM,1,1,,B,181:Ki@0000CG4tMF5iSG1?005Ip,0*40\r
+!AIVDM,1,1,,B,402HWMQuho;NPONdoJOc:nQ008CF,0*13\r
+!AIVDM,1,1,,A,16K8Cbh000awi7NDI3@cvi9428Cm,0*06\r
+!AIVDM,1,1,,A,13@=St0029P8NBpMD4jQhQM20<8v,0*63\r
+!AIVDM,1,1,,A,133fOD00000CaKvMEBq:q1C600SI,0*7B\r
+!AIVDM,1,1,,,4h2=aRiuho;NQ05nuFMbvqQ00L5j,0*0A\r
+!AIVDM,1,1,,A,16Sd2v2000awi>`DHL>jbK<t0L2i,0*23\r
+!AIVDM,1,1,,A,139N4gP02sJnoE>G<E?:N8K400S5,0*45\r
+!AIVDM,1,1,,A,16K2?h0001awCopDB=5K?qU40D4G,0*29\r
+!AIVDM,1,1,,B,14eGME@P1FG;cNjL;o;4V?vv00S5,0*4E\r
+!AIVDM,1,1,,A,34eGo=PPA5G;fu6L;`d4tD5400qh,0*13\r
+!AIVDM,1,1,,A,14eGuAPP00G<OJFL<rQmngw42<28,0*7D\r
+!AIVDM,1,1,,A,14eGI=@000G=NRpL:=J72DO405Ip,0*14\r
+!AIVDM,1,1,,A,14eGD5OP00G<Mb4L=subBww20<1;,0*6C\r
+!AIVDM,2,1,9,B,55TKaD42BaIk<EMGF20t<D4r0dU@F22222222216C@P6F4n50?UB@m3lPH88,0*53\r
+!AIVDM,2,2,9,B,844p8888880,2*66\r
+!AIVDM,1,1,,B,15TKaD0000o<UWbL=0OVrmW40HCt,0*43\r
+!AIVDM,1,1,,B,14eGJCh001o<7CdL93Dsp49205Ip,0*13\r
+!AIVDM,1,1,,A,14WW<80029awlVtD9ef6wUS005Ip,0*41\r
+!AIVDM,1,1,,A,16K2:SP01mawdw2D<ehdgJ=600RR,0*0D\r
+!AIVDM,1,1,,A,16KDRGh01uawTQrD@Q1p1FK62D5A,0*5A\r
+!AIVDM,1,1,,A,A04757QAv0agH2JdH2P`6OlK1Th6wKl4IA3v:@HA,0*27\r
+!AIVDM,1,1,,A,19NS93@026PisS`Q1B057T;20`D9,0*54\r
+!AIVDM,1,1,,A,15RTgt002kO2A;<43OA4i3u400RR,0*73\r
+!AIVDM,1,1,,B,13aDok?P01PCtElMd;L=6gw42@D=,0*5C\r
+!AIVDM,1,1,,A,133wBbP000PCutFME@QDB`Q4RD6I,0*07\r
+!AIVDM,1,1,,B,402OVM1uho;NQQDuGvO<ruW00<1O,0*10\r
+!AIVDM,1,1,,,33AeTN300007dC`MoMM7A69200r@,0*41\r
+!AIVDM,1,1,,B,402OfA1uho;NQ12hf2NTs@A00<0R,0*15\r
+!AIVDM,1,1,,A,16:IAQ`01C8MSd<=mBcAhiO200ST,0*55\r
+!AIVDM,1,1,,B,169Fk<30018fL5tA;0cPV9m20<6H,0*60\r
+!AIVDM,1,1,,B,403t>WAuho;NQ`gjIPA3Cv700<>v,0*68\r
+!AIVDM,1,1,,B,15Re;08P008g81nA:AoARww408Cp,0*04\r
+!AIVDM,1,1,,A,169UB;PP0M`LNft>1;2@Lgw008Cp,0*28\r
+!AIVDM,1,1,,B,133n@RPP00PCt5HMF0mIcOvpR8D>,0*57\r
+!AIVDM,1,1,,A,33aC4h?P000CvMRMd>GP0?w202nS,0*58\r
+!AIVDM,1,1,,B,13aEQMSP0iPDf1pMd`cjG?w4R5Ip,0*53\r
+!AIVDM,1,1,,A,140Utf0P00PCv2@ME7sLLww2RHD?,0*3C\r
+!AIVDM,1,1,,B,E02E38A`60b37a6h5pr30ph@@@@08C;t??H?@00003v000,4*3C\r
+!AIVDM,1,1,,B,16:BHgP0008JpEdFCe>Iehe40@D9,0*70\r
+!AIVDM,1,1,,A,13aDr=PP00PGIl8MhwNCSwv:2@D@,0*05\r
+!AIVDM,1,1,,B,433wEjQuho;NQP=gdhMCETW008D=,0*41\r
+!AIVDM,1,1,,A,139I@U0P00PeEI:N`Onm7gw428D?,0*22\r
+!AIVDM,1,1,,B,133wQ7PP00PD<BDMDun4s?w420S;,0*68\r
+!AIVDM,1,1,,B,H43JHF5S0000000h0000002P>:10,0*77\r
+!AIVDM,1,1,,B,13400J001ROwdT8O1<nLwrI405Ip,0*2E\r
+!AIVDM,1,1,,B,13n3aW0PCiPJWAdQh7p:q8e425Ip,0*0C\r
+!AIVDM,2,1,3,B,55@k?:425`Qs<Dlg800<5=@u8v3L00000000001@5AuSQvD<Rt4m0EPC,0*54\r
+!AIVDM,2,2,3,B,QiDP00000000000,2*08\r
+!AIVDM,1,1,,A,85MwpKAKf2h8R3s8FVJMG@gE7?=H4fFW?hlEGc@=W:mk3NdBDkfQ,0*0D\r
+!AIVDM,1,1,,B,333wMwP000PD:GDMDsne<rE40S6i,0*64\r
+!AIVDM,1,1,,B,4h2=a@Quho;NQ06WN0MIK<100D5q,0*3D\r
+!AIVDM,1,1,,A,15NFV3P000Je?cHGADJ008t00@D=,0*69\r
+!AIVDM,1,1,,A,13P:W4?P0IOiAs8NVrtquww428DA,0*36\r
+!AIVDM,1,1,,A,140Uts@P16PCptBMbt0Ehww2R5Ip,0*29\r
+!AIVDM,1,1,,A,13cgU5001cOda8bDdQIJ@8E628D<,0*09\r
+!AIVDM,1,1,,B,13P<>ngP00OgALjNuEKeAww60@DA,0*31\r
+!AIVDM,1,1,,A,35Mt<8POhjJdq:jGAHvdm:K600r@,0*4B\r
+!AIVDM,1,1,,B,13aENGhP00PDuLrMe6UhFww420Sp,0*1D\r
+!AIVDM,1,1,,A,13aIk<OP0s0F=LtMf9VSMgw42D3w,0*38\r
+!AIVDM,1,1,,B,15Mwb0PP0IITKu<A67IWP?w40<3<,0*5E\r
+!AIVDM,1,1,,A,15NIoAPP00IT8HPA80Oc5?w62D5H,0*13\r
+!AIVDM,1,1,,A,4020rQAuho;NQPU=7jNlR9G000S:,0*26\r
+!AIVDM,1,1,,A,601uEPHtH;3j04<100,4*6A\r
+!AIVDM,1,1,,A,33u17H5000Ote9tNc:<;S3C40000,0*0C\r
+!AIVDM,1,1,,B,4h2=aBQuho;NQOSNP@QLroi008CS,0*51\r
+!AIVDM,1,1,,A,33aDpEhP00PG8rTM`QpLTgw4R031,0*57\r
+!AIVDM,1,1,,A,13uA2tPP001C1w2Qu7w@0?w205Ip,0*02\r
+!AIVDM,1,1,,B,15NL4cPP01Iu;e6FGbM6kgw408DA,0*7B\r
+!AIVDM,1,1,,A,133pDTPP0tPKtC<MG2`0w?w4RD02,0*54\r
+!AIVDM,1,1,,B,13eOQR002Ao;IDNL6Jj@<0A605Ip,0*37\r
+!AIVDM,1,1,,A,15NqA`0P00rmvJlGc5;cJ?w200S9,0*00\r
+!AIVDM,1,1,,A,18156dm01bo;lOHKdKFaJWQ605Ip,0*4D\r
+!AIVDM,1,1,,B,13P;QKPP0106PnhMGgm1i?w40PSC,0*53\r
+!AIVDM,1,1,,B,155r=j00000qcmnOpO6efSK600Rf,0*4F\r
+!AIVDM,1,1,,A,B3`e<7000P634aWRN@HRowi5kP06,0*01\r
+!AIVDM,1,1,,A,13:jQ03vB>PBIVlMi8H>0P560<G>,0*31\r
+!AIVDM,1,1,,B,14hfDL0w@00PRehHs223NUu00`D;,0*57\r
+!AIVDM,1,1,,B,369pWmU000`JrD6FCm6Lq6K00000,0*32\r
+!AIVDM,1,1,,B,19NSCj@000wnMGdPdck0t9900<0V,0*3C\r
+!AIVDM,1,1,,A,13cVR;0P010g9ndHrkKT>?w40D0h,0*5D\r
+!AIVDM,1,1,,B,B3ps8dP000E>jo7k86t03wi5kP06,0*26\r
+!AIVDM,1,1,,B,833nQi0j2d=d<<v>MP000?`57m00,0*4B\r
+!AIVDM,1,1,,A,13aGD=EP150Gg;HMhP=4>Ow428DE,0*4C\r
+!AIVDM,1,1,,B,13lbov000j0n=tpQ0KvRgR940<2S,0*56\r
+!AIVDM,1,1,,A,13uCVMP0000nVF>Pv6UqqHC60D0w,0*52\r
+!AIVDM,1,1,,A,13@ThD001T0keB<Pw>p41SM008D<,0*0B\r
+!AIVDM,1,1,,B,13tweR0000Pnf@vQ1O7h0ES20HD<,0*19\r
+!AIVDM,1,1,,B,13u>RL0000Pm<cHQ3aJ7uqi60@D=,0*74\r
+!AIVDM,1,1,,A,13u=R40P00PnEQNQ0I6h=gw20PRQ,0*04\r
+!AIVDM,1,1,,A,170R;D0P000mS5<Q;`dP0?w200Rn,0*12\r
+!AIVDM,1,1,,A,168tHQPPAh8RuoNCpAdJ:p?5r0RH,0*27\r
+!AIVDM,1,1,,A,133uPVPP0oPH4RDMaW=k:?w42<3T,0*03\r
+!AIVDM,1,1,,B,4h5GdO1uho;NR7K:S20fa5700<7w,0*2A\r
+!AIVDM,1,1,,A,404<g?iuho;NQ93hgfE@aMA00000,0*76\r
+!AIVDM,1,1,,A,4h3OwmQuho;NQo56IhKcvE700`DM,0*13\r
+!AIVDM,1,1,,A,13aGsG@P00PDSN@Me4lQm?w42<76,0*50\r
+!AIVDM,1,1,,B,13aDpDgP00PCqoRMde>lrww4R5Ip,0*58\r
+!AIVDM,1,1,,B,13aDBNP000PGCv6MapNDg1Db08DF,0*56\r
+!AIVDM,1,1,,A,13L>bV003>0tBiTOWG2bf8W008DG,0*69\r
+!AIVDM,1,1,,A,802At?00D000q6bL02;A=hc5UPqw0000qK1;02;>=0c7Kh0w00,4*7D\r
+!AIVDM,1,1,,A,14eH?f0000rBgdNHhqgqbJA40PS1,0*32\r
+!AIVDM,1,1,,A,13HOW>0P0100Q;4LD>h`6ww008C`,0*66\r
+!AIVDM,1,1,,A,402;bFQuho;NQP0DlTLE52o008D?,0*36\r
+!AIVDM,1,1,,B,13@nh53001Prf5nOeM5JGEhl05Ip,0*6B\r
+!AIVDM,1,1,,A,13oTC:501f0Jr@4Qoa6VLU9408D7,0*18\r
+!AIVDM,1,1,,B,15N8DRPP01I1o@h?r`Qqpgvj0L0d,0*51\r
+!AIVDM,1,1,,A,15Mv2@PP00I26>0?rOj:ewvl0`?0,0*2D\r
+!AIVDM,2,1,9,B,85Mwom1Kf4sNlOCIi7MmvnnJoO?amarE08jIJRvBCkG,0*79\r
+!AIVDM,2,2,9,B,J:67So8AK,0*63\r
+!AIVDM,1,1,,A,15Mwb`PP01I23U2?rUQaFOvp0<0W,0*78\r
+!AIVDM,1,1,,B,15MwpEPP00I27JR?rVt4Sgvl00S2,0*6E\r
+!AIVDM,1,1,,A,15MwbIPP01I24LP?rVlql?vr05Ip,0*0C\r
+!AIVDM,1,1,,A,15NNs6g000q25in?rVhbH8Nr0<0h,0*48\r
+!AIVDM,1,1,,B,15NJUGg000q1w<j?rnW8=9Jn08A2,0*16\r
+!AIVDM,1,1,,A,15Mwd7PP01I1dWR?s3RKGOvt0<0V,0*55\r
+!AIVDM,1,1,,B,15N4=45P0RI2pW`?suhPtwvp0<0s,0*22\r
+!AIVDM,1,1,,A,15Mwdt0P01I1vHT?ru`hQ?vt05Ip,0*1B\r
+!AIVDM,1,1,,B,15N14r0001I26?:?rP:cV@?000Rg,0*39\r
+!AIVDM,1,1,,B,15MwW<PP00I1vW6?rtQ:5gw005Ip,0*64\r
+!AIVDM,1,1,,A,15Mwe8PP01I24Kl?rVucD?w408C`,0*32\r
+!AIVDM,1,1,,B,15NOFBgP01I1dMv?s48Km?w60D0S,0*3A\r
+!AIVDM,1,1,,A,33P:owh00=OhSUpNbbD2g1k20141,0*63\r
+!AIVDM,1,1,,B,339ajN3P@I0WrJnNlaQshaK400vQ,0*32\r
+!AIVDM,1,1,,B,13oT?@0P1m0JljHQq5k8V6m40<0i,0*41\r
+!AIVDM,1,1,,A,139eb=0P1GPCKG>MIte69gw428DH,0*28\r
+!AIVDM,1,1,,A,16K8DOP000awqTpDHO9LK:=608D>,0*44\r
+!AIVDM,1,1,,A,15BLI`0000awUqHDCmn5o1u40UIp,0*0D\r
+!AIVDM,1,1,,B,13u=KCPP010mBQhQ2aTmKOw00UIp,0*64\r
+!AIVDM,1,1,,B,13e<=P0P010g:N`Hs53mi?w60<0k,0*21\r
+!AIVDM,1,1,,B,23@QU<000APCRqFMFcJ826k60D>R,0*00\r
+!AIVDM,2,1,6,A,53aC2E4000010GCGK<0Pthh4pA>0@TE00000001@<P:48tb=j81lSkRCQkP0,0*43\r
+!AIVDM,2,2,6,A,00000000000,2*22\r
+!AIVDM,1,1,,A,13aBMW@P000D:SvMdLfeW?w40`DH,0*77\r
+!AIVDM,1,1,,A,16U:F8001N`VI?PDWBFBKAtt0=M5,0*75\r
+!AIVDM,1,1,,B,13aDCk@P00PG6sLMUihMpww42D3w,0*06\r
+!AIVDM,1,1,,B,83aGF<@j2P00000001b@gP0500L0,0*57\r
+!AIVDM,1,1,,A,13@o2oWP010qRi<OuCAnp?w008Cm,0*6E\r
+!AIVDM,1,1,,A,35Ms<v5000reHw4GBPvWeIw4R000,0*34\r
+!AIVDM,1,1,,B,13cSeD00010g:?HHs5QevVo20D0p,0*5E\r
+!AIVDM,1,1,,B,133k4B301pP`dADNkhv:<`900D1F,0*4D\r
+!AIVDM,1,1,,A,33ktps002CPqu<`P4Sl=E:a62001,0*0E\r
+!AIVDM,1,1,,B,16:;HK?P008VhSNDaVq<eOw42HDE,0*78\r
+!AIVDM,1,1,,B,13@o;hEP0W0pqEPP91E;ngw625Ip,0*5D\r
+!AIVDM,1,1,,A,133c0b00000C`nhME@uJa8k40l9r,0*55\r
+!AIVDM,1,1,,B,16@4OP001I07pIbN<@6<uJE62@DL,0*63\r
+!AIVDM,1,1,,B,4020tliuho;NQPw=A8NuR5700D00,0*48\r
+!AIVDM,1,1,,A,169UFSP0007kdon;CfBS9HM600T3,0*63\r
+!AIVDM,1,1,,A,13aFerwP00PDW=>MeElE>Ow4R<7c,0*3F\r
+!AIVDM,1,1,,B,13P<Nw0000P=L6lMCsJnv6Q605Ip,0*4B\r
+!AIVDM,1,1,,B,33OjLf0Oi>Odu;>LjMS6HEA0011P,0*4B\r
+!AIVDM,1,1,,2,13aDr;PP0sPAD=RMA9DhA?w425Ip,0*58\r
+!AIVDM,1,1,,B,33aDo;0P000Ph?HMOfM4>?wD0P01,0*05\r
+!AIVDM,1,1,,A,16K8@rh000aw@qtD=>8cu6o408DD,0*67\r
+!AIVDM,1,1,,B,13HTua0P04PDGm<MDJEMDOw4R0R>,0*44\r
+!AIVDM,2,1,3,A,56K8Ar01sdUd`kCSC:1<Dr0DV0l59F0pvs>2221688?:44o=0=wRT82mlp55KkSV,0*24\r
+!AIVDM,2,2,3,A,8888880,2*27\r
+!AIVDM,1,1,,B,1815:g002<0KuTlOQo:QGQ320@DI,0*3D\r
+!AIVDM,1,1,,A,601uEPi8ad50048100,4*29\r
+!AIVDM,1,1,,A,13UR?j00011d<n`EeW::j5M40@DI,0*3C\r
+!AIVDM,1,1,,B,16:I8U00008F2B<=Fjmqs8;220RR,0*43\r
+!AIVDM,1,1,,A,16:IBq001A8ilkDELGp5iDap00SW,0*30\r
+!AIVDM,1,1,,A,18I6`T002``fkKHEcHiTuT300<4V,0*47\r
+!AIVDM,1,1,,A,16:BFG00008VfmVESC0Eaqs405Ip,0*20\r
+!AIVDM,1,1,,A,144iBM0P008Vj5`ERls0Cgvt0UIp,0*02\r
+!AIVDM,1,1,,A,16:Qh6P0008LMgr=whG=jk940<2>,0*0C\r
+!AIVDM,1,1,,A,16:@g7PP008PbCH>IN@eDP2D0<Jj,0*58\r
+!AIVDM,1,1,,A,16:85a0P@088pd0<h0b00:A20HCO,0*78\r
+!AIVDM,1,1,,B,133p?pPP00PD:BTMdF;0dww4R0RT,0*43\r
+!AIVDM,1,1,,A,1690aR002F88nj@<k735lTW208CT,0*0F\r
+!AIVDM,1,1,,A,16h1SqOP0087lu4<dnl9o?v225It,0*2A\r
+!AIVDM,1,1,,A,15Mwd<PP00ISfGnA7jBJQOw40D3:,0*21\r
+!AIVDM,1,1,,A,160o>L0029`8s<8<iG;6VUE00pE4,0*70\r
+!AIVDM,1,1,,A,15MwW7PP01IT8RjA80uJ?ww60<2=,0*18\r
+!AIVDM,1,1,,A,1772cT0000`7mTF<dngKO9E22<2Q,0*4C\r
+!AIVDM,1,1,,B,15N0NlPP00ISffjA866dHww40@D;,0*63\r
+!AIVDM,1,1,,B,15NLp8?P00ISfuTA7oE;A?w40D2j,0*2F\r
+!AIVDM,1,1,,B,15Mlt20P00ISc9TA6KwN3Ow208Cb,0*27\r
+!AIVDM,1,1,,A,15Mv5v?P00IS0JhA86LCpgw408DA,0*24\r
+!AIVDM,1,1,,B,402OFL1uho;NQ11IOrNnVCi00HCn,0*7C\r
+!AIVDM,1,1,,B,16::0i001@8fwcdA8FQcNIA425Ip,0*65\r
+!AIVDM,1,1,,A,16:DA=P000`90tr<bgEQkQg3r<1F,0*56\r
+!AIVDM,1,1,,A,18K;or501s`cHH`B3M95N48v0?;O,0*19\r
+!AIVDM,1,1,,B,168u`Qg0018:wL6<rT0I;JU60<0H,0*02\r
+!AIVDM,1,1,,B,B6:fNa<8021otuSC<nt03whvkP06,0*1A\r
+!AIVDM,1,1,,A,169vkfOP008Vfl`Da1RP0?w40D2K,0*2F\r
+!AIVDM,1,1,,B,B6:D5@fT021jSmSBwLl03wh6kP06,0*5E\r
+!AIVDM,1,1,,B,B69GJQP0CR1iLgSBnj8akwh79P06,0*56\r
+!AIVDM,1,1,,B,C6:k>SP0021qtO3BuosCKwgRhBLjb:`NL?SWi1111110S0<GRRP7,0*0C\r
+!AIVDM,1,1,,B,39NWv=10021cd3rEas7iWbU40000,0*54\r
+!AIVDM,1,1,,A,83aDpEhj2d<dt==ttAChT?a@6pP0,0*43\r
+!AIVDM,1,1,,B,;03tB91uho;NQ89:VJ=>H:i00000,0*7A\r
+!AIVDM,1,1,,A,133Rm>?P00PCfjHMDi2@0?w42D0o,0*59\r
+!AIVDM,1,1,,A,B6:Utu4022;9Fw4OLSMISwhVkP06,0*4C\r
+!AIVDM,1,1,,A,15AqvP0P028d:R0Atp8;;5bt08D1,0*71\r
+!AIVDM,1,1,,A,16:h>:001``cBgVB4SitnJ?62HD4,0*49\r
+!AIVDM,1,1,,A,36:AmD5P008dKJpAsCuBVww>0000,0*17\r
+!AIVDM,1,1,,A,16K8A;@02A:08hDDBa0Qf1K20d4O,0*32\r
+!AIVDM,1,1,,A,13fr6J00010hM9rQ1a1btoG605Ip,0*17\r
+!AIVDM,1,1,,B,169UBC0P008LOj>>1;8P0?w42@D5,0*53\r
+!AIVDM,1,1,,B,34S:625000R:IJVRAteh06e40000,0*4A\r
+!AIVDM,1,1,,A,13P;HVPP000fpERI6;TJ>ww420S2,0*53\r
+!AIVDM,1,1,,B,401uEOAuho;NR0=Hi0MDH0i00HDN,0*3D\r
+!AIVDM,1,1,,A,14`WU>0vBhwWKvDOM;<IR7c20hB`,0*48\r
+!AIVDM,2,1,7,B,57bNP<01q<jqQD4?D00ltAE<000000000000,0*7E\r
+!AIVDM,2,2,7,B,0016;pC580U906p4iEPDm3l3k0000000008,2*56\r
+!AIVDM,1,1,,A,13n;0D0PB=0J;sHQgtE5D4;200SD,0*3C\r
+!AIVDM,1,1,,B,15@k?:?P000IfJLQiO4F6?w425Ip,0*08\r
+!AIVDM,1,1,,A,13aDpGPP120Gl;PMaGD3wOw308DP,0*39\r
+!AIVDM,1,1,,A,34`;@f0004KGVuD:PL6me2a420wh,0*51\r
+!AIVDM,1,1,,A,13aEQg@P00PS4`PK=235eOw0R<0K,0*1B\r
+!AIVDM,1,1,,B,13aDs1@P00PDSsnMdgiTHgw2R0SG,0*65\r
+!AIVDM,1,1,,A,23`ekA@P000CUf@MFW500?w20D3w,0*3B\r
+!AIVDM,1,1,,B,36:;Kt0P01`VQJ@DV6`a3gw406ni,0*21\r
+!AIVDM,1,1,,A,13P<<6OP0;OhFA:Nt?lhe?w420Pc,0*65\r
+!AIVDM,1,1,,B,33`gl2001MPGvotNPfG<?avv0000,0*27\r
+!AIVDM,1,1,,A,13av7h001N0HEFHNQB7rH8Cp0`D?,0*50\r
+!AIVDM,1,1,,B,168sNQ0P008K1G@FCDL=>ww40<01,0*64\r
+!AIVDM,1,1,,B,133p;vbP00PCmojMDcEENww22<8<,0*7C\r
+!AIVDM,1,1,,A,133ghrP0000Cj?pMG2eu0bW20HDQ,0*2E\r
+!AIVDM,1,1,,B,4020rmAuho;NQPWnmHNlh<700<00,0*1A\r
+!AIVDM,1,1,,B,14eGMH0P02G=4TBL=N>4SOw00<1j,0*04\r
+!AIVDM,1,1,,B,14eGLvOP00G<c4>L=4Aa6?w60<2C,0*65\r
+!AIVDM,1,1,,B,14eGDN7P00G<l?JL=FjqTww400S7,0*25\r
+!AIVDM,1,1,,A,13aDCGUP1`PG2BDMaWcK?ww428DR,0*36\r
+!AIVDM,1,1,,B,19NSC:h023wABF<F8?>6u5Q600SG,0*64\r
+!AIVDM,1,1,,A,13P<0D300kwkNrnMN4iooF=60@DP,0*5D\r
+!AIVDM,1,1,,A,333V?v?P@:PCR=RMFO5jEQS621sP,0*7B\r
+!AIVDM,1,1,,A,601uEO@oWh>2048100,4*7B\r
+!AIVDM,1,1,,B,16:Qgr00008K9u8FC`V@j9O420S9,0*68\r
+!AIVDM,1,1,,A,36K2;iP01HawLqvDC5qatWq420rPCkcv<m,0*44\r
+!AIVDM,1,1,,B,101:gNPP0QPCm3pMBQVGS?w6R<7?,0*5E\r
+!AIVDM,1,1,,A,16SqtWPP1Ia3O6bELU;GTww5r8DH,0*16\r
+!AIVDM,1,1,,B,403tD<1uho;NQ`E8ej=L8F102<1h,0*32\r
+!AIVDM,1,1,,A,15N;Ww0P00JmMsvGSk4bfOw40HCm,0*6D\r
+!AIVDM,1,1,,A,34eGCn@Oj8o;Aj@KoE:H6VW4015A,0*29\r
+!AIVDM,1,1,,B,13aEQHPP00PD3=6MdmkuIww42D8s,0*2C\r
+!AIVDM,1,1,,B,16SWUv000:a3SFDEL1=6CDk42D2O,0*6C\r
+!AIVDM,1,1,,A,16::12PP?w<tSF0l4Q@>4?wv0hDM,0*2B\r
+!AIVDM,1,1,,A,36K8Do@01tawLI0DB2pTTkg400rQRjKv6P,0*51\r
+!AIVDM,1,1,,A,13aIhAhP19PEAbJMc?cEb?w62@DS,0*27\r
+!AIVDM,1,1,,B,343lJh00002I24tIPMl7DEk6010h,0*5C\r
+!AIVDM,1,1,,A,233vr3gP1fPCjb2MEvIPB?w6R5Ip,0*6F\r
+!AIVDM,1,1,,A,33cStt50000`c80IJ9L8tUI60000,0*38\r
+!AIVDM,1,1,,A,13a2GR0PBV09JJ`MNDApa6o80@DT,0*69\r
+!AIVDM,1,1,,A,16:;<t00?w<tSF0l4Q@>4:v00`DN,0*28\r
+!AIVDM,1,1,,A,133i`mPP000CjijMcwi`AwvJ0D80,0*4F\r
+!AIVDM,1,1,,B,33P;M1qOh1P7dE0MK<wLpii600`A,0*45\r
+!AIVDM,1,1,,A,F030owj2N2P6Ubib@=4q35b10000,0*58\r
+!AIVDM,1,1,,A,14eG?>PP01JBiSvHhSt;@ww60@D@,0*7B\r
+!AIVDM,1,1,,B,133gVhPP00PD<SjMDGU00?w628DU,0*22\r
+!AIVDM,1,1,,A,B43Ojm0000TW9U6el3<03wi5kP06,0*61\r
+!AIVDM,1,1,,B,10002;?000qvd9LF<kPcrC;60HDR,0*44\r
+!AIVDM,1,1,,,13aIk4PP11PKDvpN7dqIl?w625Ip,0*42\r
+!AIVDM,1,1,,B,15>ucf0035o?NKTK=K16GU?20HDR,0*23\r
+!AIVDM,1,1,,A,14R6q@003I09H6dMO0=HW6q4b8D0,0*52\r
+!AIVDM,1,1,,A,13P;wdPP07OgPa2NsunBbOw625Ip,0*46\r
+!AIVDM,1,1,,A,16:BHt8000`VCL8D`s?uAUM42D2q,0*29\r
+!AIVDM,1,1,,A,16K8DMP001awCUHDB>va?i1425Ip7JWvH;,0*1F\r
+!AIVDM,1,1,,B,13ciTl0P000ev>>I<WIP0?w400SU,0*27\r
+!AIVDM,1,1,,A,13b7ht0P000D2a>MdgNqS?w62@DV,0*28\r
+!AIVDM,1,1,,B,15N9;20P02ISsG<A8bOe6gw40HDC,0*73\r
+!AIVDM,1,1,,A,15N7GmPP00IShIpA8sFL>Ow408DF,0*02\r
+!AIVDM,1,1,,A,15DS6f002?9wTaHD5fwa>7A40PRT,0*40\r
+!AIVDM,1,1,,A,15NDcSP000ISPDDA1qu6k2O200S;,0*3C\r
+!AIVDM,1,1,,B,15WF:l0wh00PK=@HsM2A5lW42@DN,0*68\r
+!AIVDM,1,1,,A,13aC21PP000CnTpMEOPP0?w20<3w,0*79\r
+!AIVDM,1,1,,B,1CUU;B80001co0NEeeEh0@160000,0*7A\r
+!AIVDM,1,1,,A,169`vgP0148WGafDVT2rb`S62<3k,0*14\r
+!AIVDM,1,1,,B,13aI9oSP00PFeUtMad4EaOw62HRU,0*23\r
+!AIVDM,1,1,,B,13BIdd7PAB0D0WdN=LL@ehI80D1p,0*45\r
+!AIVDM,1,1,,B,83aGCm@j2d<dteMeNAT0bgaEOAL0,0*03\r
+!AIVDM,2,1,1,B,53tsg`41hgOm<UHB2208tp@Dr22222222222220l1@F554dQ0=Qkm21CPUDQ,0*72\r
+!AIVDM,2,2,1,B,p8888888883,2*6D\r
+!AIVDM,1,1,,A,13UPFd0021PjJM4PwV<E?TG20`DU,0*5E\r
+!AIVDM,1,1,,A,14WcEh002j0aun4I;0fdHao608DV,0*36\r
+!AIVDM,1,1,,B,13aDoTgP00PCwHjMdNfh0?w6RD7s,0*3D\r
+!AIVDM,1,1,,A,16K2=2@001awHMlD<948=7=60@DM,0*6C\r
+!AIVDM,1,1,,A,13@oI`hOww0qbQtOu?cf42C62<1F,0*09\r
+!AIVDM,1,1,,A,343`I>0Oh0RBRGNJo=6@01I209fQ,0*43\r
+!AIVDM,1,1,,A,13afWT0P000CsI0MdhL0`?w808Da,0*39\r
+!AIVDM,1,1,,A,13RtBd0P001d@qhEe:J00Ow00hDb,0*6E\r
+!AIVDM,1,1,,A,14SQ2j00000aW>NNm>0=CR320PRN,0*73\r
+!AIVDM,1,1,,A,169I7APP018Rdc4D35<;cgw428D@,0*73\r
+!AIVDM,1,1,,A,4>pf7hiufUHtt`RBdPD64V100@<D,0*5F\r
+!AIVDM,1,1,,B,B69Ds0P0@r83gL3RJVIGCwi2PHQJ,0*02\r
+!AIVDM,1,1,,B,14`afE5P0087L4f==O>s:?w20l7l,0*33\r
+!AIVDM,1,1,,B,16:fS:@P00`7Pk0==<`@0?w40<00,0*07\r
+!AIVDM,1,1,,A,15Qn?H001Q8clb4B1K5lvl342HD<,0*15\r
+!AIVDM,1,1,,A,33dd8N0P@N0C>j`Me`i5e3U600vA,0*6F\r
+!AIVDM,1,1,,B,169FlV00008;014<rP67n`E400S;,0*59\r
+!AIVDM,1,1,,A,169qul0P008TRQbFpFcP0?w42@DF,0*62\r
+!AIVDM,1,1,,B,169I:G0P1R8Q1gB>4e9prOw425Ip,0*37\r
+!AIVDM,1,1,,B,369Ful0002`6Erh<QgwAsCM42000,0*3A\r
+!AIVDM,1,1,,B,36:@F00OjK8g=PrA1TjE2lQ420TP,0*04\r
+!AIVDM,1,1,,B,403t>`Auho;NQ`eb7f@tNv7005Ip,0*2E\r
+!AIVDM,1,1,,B,403tB7Quho;NQ`5H0v<qnoA028DE,0*79\r
+!AIVDM,1,1,,B,11>kdh0P018fa?HA2d7kv?w60D<?,0*61\r
+!AIVDM,1,1,,A,13HOI:0P0000VPfLCnDi:gw20<1>,0*07\r
+!AIVDM,1,1,,A,13aGrU@OhC0Hpj`NL0S@qR841PSn,0*51\r
+!AIVDM,1,1,,B,29NWv`0vi:PBa;:MI>cl9SA82<=k,0*38\r
+!AIVDM,1,1,,B,143psl1P?w<tSF0l4Q@>4?wp0t0j,0*5D\r
+!AIVDM,1,1,,B,13aJGDhP00PCgr:MGK2P0?w62@Dc,0*33\r
+!AIVDM,1,1,,B,139eK`PP00P`5P`NHq8Srww0R5Ip,0*65\r
+!AIVDM,1,1,,B,83aGsPhj2d<d<<M>N1A@T?aE8800,0*65\r
+!AIVDM,1,1,,B,4020reAuho;NRP`0MvNHqr700<00,0*15\r
+!AIVDM,1,1,,A,13c7K:?0000DKehMdmr;hbO20L;o,0*6E\r
+!AIVDM,1,1,,B,402R3dAuho;NR0n7B`QIetA00L2L,0*33\r
+!AIVDM,1,1,,B,13aDrShP00PGrK0MaSLo8?w42<3s,0*53\r
+!AIVDM,1,1,,B,13cjW>00000g92`HrSu4JRc40<13,0*12\r
+!AIVDM,1,1,,,402=VVAuho;NRP62>8MetVo00@Dc,0*28\r
+!AIVDM,1,1,,A,16K2<e001fabmD0CeUQifQE625Ip,0*7D\r
+!AIVDM,1,1,,A,19NSBP000G9cr6HClgutO43400Rr,0*15\r
+!AIVDM,1,1,,A,13aEOk@P00PCls8MFb;F2gw620RE,0*15\r
+!AIVDM,1,1,,A,169vjrHP018VFNdDWn600?w40@5m,0*72\r
+!AIVDM,1,1,,A,13P7oR0000wsBv2RQlIc2Bq628DV,0*16\r
+!AIVDM,1,1,,B,23P:lP?OhAPCS7lMFe881Vcp0UIL,0*4A\r
+!AIVDM,1,1,,A,13EwcL0000wW6O`Dc688c1c00@D@,0*64\r
+!AIVDM,2,1,2,2,533rfoT00000uCC?CF0Tq@E8pu>222222222221?78:355Lbe00CU5iDT1C`,0*2B\r
+!AIVDM,2,2,2,2,88888888882,2*57\r
+!AIVDM,1,1,,A,15R<ld?P130i1fjR@gJBkOw80<0;,0*5C\r
+!AIVDM,1,1,,A,16K2>6P000awhsdDI4GL=A5620Sl,0*29\r
+!AIVDM,2,1,1,A,56K8Dj000000`C;7W60d5=DL4l59F2222222220l1HQ7340Ht9wRT86Cjp6H8888,0*59\r
+!AIVDM,2,2,1,A,8888883,2*26\r
+!AIVDM,1,1,,B,133ma5P0000Cj9pMG48DpbO40D<P,0*2E\r
+!AIVDM,1,1,,B,4025bpiuho;NR0np@VOP4LA00<3;,0*22\r
+!AIVDM,1,1,,A,16KPiBh001awk<8DDlGrTiI80<4P,0*4C\r
+!AIVDM,1,1,,B,33A4g<000;Pr61FP4G8S<BA42Pth,0*5E\r
+!AIVDM,1,1,,A,13ofKV0026P>dffMJVe:BHA400Se,0*79\r
+!AIVDM,1,1,,A,16KPj:@02@b0<;2DBjM1oQO60<4=,0*5D\r
+!AIVDM,1,1,,A,19NWvEP0000eIRjN`cg45HM800RS,0*57\r
+!AIVDM,1,1,,A,133p3iPP00PCardMHr95=gw22<6r,0*77\r
+!AIVDM,1,1,,A,13A><b0P010pFgJP7IwJKOw60D0K,0*16\r
+!AIVDM,1,1,,A,14eGcjPOi@o;btjKpOte=rW400SP,0*5C\r
+!AIVDM,1,1,,A,15>wd`002f0d3H`I2N0U84780HDc,0*78\r
+!AIVDM,1,1,,A,13aDr2@P00PD>qpMd5;bM?w6R8Df,0*44\r
+!AIVDM,1,1,,B,13aGDjAP1APHfORNKNtj@?w4R8Df,0*0C\r
+!AIVDM,1,1,,B,13uo4P002kPqg36Oaf0VgEI408D6,0*48\r
+!AIVDM,1,1,,B,16`l:v8P0T8Vw8RDVBT;wOw20D3h,0*70\r
+!AIVDM,1,1,,B,;5E8IL1uho;NQ1d4sJEW<Ci00000,0*58\r
+!AIVDM,1,1,,A,15NLlW0P02ISlTvA9025Lgw00D1K,0*00\r
+!AIVDM,1,1,,B,15Mw<ePP00ISvu@A8Hvt1?w40<2N,0*15\r
+!AIVDM,1,1,,B,15NKKqP000IR@>pA8k@J<qS600Rf,0*6F\r
+!AIVDM,1,1,,A,15Mv`CPP00ISCFJA964;Mgw408DP,0*5B\r
+!AIVDM,1,1,,A,15N0;VgP00qTE1>A7nK;:ww62@DR,0*69\r
+!AIVDM,1,1,,A,15N7th0P00ISsi@A5I@Jnww620RS,0*0B\r
+!AIVDM,1,1,,B,15N9kWP000ITA2tA7qf;lHK80pDW,0*4E\r
+!AIVDM,1,1,,A,15MwOnP000ISf8dA5DLe:RA40HD`,0*21\r
+!AIVDM,1,1,,B,13Q4j@001d0I0NLQn42SEBi40<2?,0*47\r
+!AIVDM,1,1,,B,33nW@r5Oi?0JAw>QgcVRlRU802pi,0*69\r
+!AIVDM,1,1,,A,15324`0001IT0HPA4@OUg0e808Db,0*48\r
+!AIVDM,1,1,,B,14QsFK001LOC4hPEVqVnOU;42L0V,0*25\r
+!AIVDM,1,1,,B,139h9WgP1BPFqA4MagK3Qww825Ip,0*2A\r
+!AIVDM,1,1,,A,143uhJ0P00RBLkVJo?`@0?w400S>,0*5D\r
+!AIVDM,1,1,,A,13tuE<00010sPDPOlwJK8jK60HDE,0*59\r
+!AIVDM,1,1,,A,402M4L@000Htt12>B0VPVH700`Ob,0*30\r
+!AIVDM,1,1,,A,13aBN`PP01PD:<0Md7bH1gvLR0SN,0*2D\r
+!AIVDM,1,1,,A,15BfiJ200O;0quigpiQ`:V;408DV,0*08\r
+!AIVDM,1,1,,B,35@i:F50008VidDDabp:V3?60000,0*35\r
+!AIVDM,1,1,,A,13@oW?P0010qgwLP41M8IW360L0T,0*3C\r
+!AIVDM,1,1,,B,139Ok=g00012hSpNU>t;20i82@Dh,0*7F\r
+!AIVDM,1,1,,A,33aENkHP00PCnr4ME>4hhgw622pQ,0*01\r
+!AIVDM,1,1,,B,13aFdewP1IPHDsbMalNcOOw620S4,0*5A\r
+!AIVDM,1,1,,B,13aGuE0P000LGj8NSu9JAgw62@DT,0*26\r
+!AIVDM,1,1,,A,176wWo002L0MsCNNlIgJ5p780@Dh,0*74\r
+!AIVDM,1,1,,A,13M@BJ@0010D=PrMdqDtj:I82@Dh,0*2C\r
+!AIVDM,1,1,,A,133t1BPP060O7IlMqHNiFww60D05,0*29\r
+!AIVDM,1,1,,B,139MPuP0000WA8`N`J;000760<2N,0*76\r
+!AIVDM,1,1,,A,36K2DrP02KabIlfCjC?3iRq400`1,0*7C\r
+!AIVDM,1,1,,A,33IT?;?00P03KBHLwlsddak600l@,0*26\r
+!AIVDM,1,1,,B,33aDq2wP1HPH5`4Mabe:?gv>P5dC,0*27\r
+!AIVDM,1,1,,B,4h2=aBAuho;NROb?RjQPtsQ00@D;,0*03\r
+!AIVDM,1,1,,A,168tgc0P00`Vg10DaGE5P?w605Ip,0*59\r
+!AIVDM,1,1,,A,16K2:dh002awhApD@b7qqlC80@Db,0*03\r
+!AIVDM,1,1,,A,16:>>T`P018d:s6Au3CBUww200Ro,0*01\r
+!AIVDM,2,1,0,B,53fDcp02<`IKTP4SV20hEH4q@v22222222222216HHN;E4k50PC@@j3k,0*10\r
+!AIVDM,2,2,0,B,Qp8888888888880,2*06\r
+!AIVDM,1,1,,A,19NWseh01R`hq>RAN1EbD`M4:d6d,0*47\r
+!AIVDM,1,1,,A,16:=LC001g`hsMRET5hdhJG42<2F,0*18\r
+!AIVDM,1,1,,A,13@oKDPP1i12KW2Ntfqjhww20<0F,0*16\r
+!AIVDM,1,1,,B,15MkdnPP19G>k1fK0k@8:Ow405Ip,0*22\r
+!AIVDM,1,1,,A,64R:gF40UBf204@0@2000020000002000000000,2*1E\r
+!AIVDM,1,1,,A,1595J0OP00o=D@DL;0SrF?w628DB,0*0B\r
+!AIVDM,1,1,,B,14eGEDhP01G<pG<L=DAno?w008Cm,0*61\r
+!AIVDM,1,1,,B,14eGECh00qG;SndL:U4hphg008Co,0*2C\r
+!AIVDM,1,1,,B,F030pCB2N2P5iQAoR;H6SQ01P000,0*68\r
+!AIVDM,1,1,,B,F030pD22N2P5iQAoR;H6SQ010000,0*7F\r
+!AIVDM,1,1,,B,F030pCR2N2P5iQAoR;H6SQ010000,0*18\r
+!AIVDM,1,1,,A,14eGMH@P00G<JDbL=h2Pg?w00@Cw,0*23\r
+!AIVDM,1,1,,A,14eG;i@P0pG<e6VL=EeT5?w600S0,0*50\r
+!AIVDM,1,1,,A,14eGIGgP00G<=8@L6h4bOgw600Sa,0*19\r
+!AIVDM,1,1,,A,13IgV800000CrQ8MEdUABaS405Ip,0*0C\r
+!AIVDM,1,1,,A,17f?aj0P000i?q2RABAP0?w408Dk,0*1C\r
+!AIVDM,1,1,,B,13Q`44002O07DatMA9I`vWA60HDk,0*20\r
+!AIVDM,1,1,,A,13aJH0h01N0HCfbNQiKB<1W60<0`,0*20\r
+!AIVDM,1,1,,A,83aGE9hj2d<dtLMP02vPL1N@Pm00,0*34\r
+!AIVDM,1,1,,B,33P<LaP002wgbdRNs3stkpc825lS,0*33\r
+!AIVDM,1,1,,B,14QsE<002600hqdNtEJ5G4C60<0D,0*7C\r
+!AIVDM,1,1,,B,13aDoG@P1LPHwqhMd>pb3gw2P<3S,0*29\r
+!AIVDM,1,1,,B,13P:vw@02mPBS6@Np2TC@2U808Dl,0*70\r
+!AIVDM,1,1,,B,133kV>PP00PD6BFMDnBhtgw625Ip,0*10\r
+!AIVDM,1,1,,A,140UqWkP000Rgr4K>hsh0?w40<0a,0*0F\r
+!AIVDM,1,1,,B,B3P<HH@07om>gUUR5t1PWwi5kP06,0*17\r
+!AIVDM,1,1,,A,16K8AdP000awTLLD9lGKKn5825Ip,0*5E\r
+!AIVDM,1,1,,A,1>qc9ww000OkfS@MMI5004S40H00,0*34\r
+!AIVDM,1,1,,A,16K8Dah000awB4hDB6>9AFa82D4A,0*4D\r
+!AIVDM,1,1,,B,13`hoWOP00PF?jpMad3P0?w6R0T6,0*5E\r
+!AIVDM,1,1,,A,16K2=tP001aw>PNDBMOL1aS80<4`,0*6D\r
+!AIVDM,1,1,,A,13I49l?P000FkanHmA8cRww825Ip,0*1A\r
+!AIVDM,1,1,,A,13bW`0002:0@NuPMTGhcGaA405Ip,0*68\r
+!AIVDM,1,1,,B,13P:W`0P0pOw`blMN?HsDww605Ip,0*45\r
+!AIVDM,1,1,,B,144MH?01200C8tTN;62PN0K20@Dn,0*3A\r
+!AIVDM,1,1,,B,13ao6R300k09og@MDWQ2CQe20@Dn,0*76\r
+!AIVDM,1,1,,B,13psL9P004Q1CMfNn<qdeGQ00HDL,0*07\r
+!AIVDM,1,1,,B,15?BgH00008K4bVFCHc7E;7408Db,0*4A\r
+!AIVDM,1,1,,A,38JebD1000`e3qjFC7j9Q0K60000,0*75\r
+!AIVDM,1,1,,B,15N0`FPP00IRQGfA8E;K3gw82<4f,0*19\r
+!AIVDM,1,1,,A,15N0ipPP00IS334A;t@nI?w40D21,0*09\r
+!AIVDM,1,1,,B,15ND5?0P01ISjbvA4QSaeww80@Df,0*3D\r
+!AIVDM,1,1,,A,13cWbm8P000eWULHvQO@0?w40<0B,0*3E\r
+!AIVDM,2,1,9,B,56S`6I000003734000118Tp<E=<000000000000t0HD33400000000000000,0*4B\r
+!AIVDM,2,2,9,B,00000000008,2*26\r
+!AIVDM,1,1,,A,169<pdP000`JoC0FCh=G=0g80@Di,0*7E\r
+!AIVDM,1,1,,A,13mqG3g0000KH2tQLeUW2:>t0<0<,0*56\r
+!AIVDM,1,1,,A,339L140Oh@0UGBnN`PM7ank820s1,0*17\r
+!AIVDM,1,1,,B,33QGe<50000D9d`MDpe52bE60000,0*2C\r
+!AIVDM,1,1,,B,13aGu=PP000D3FdME?G:Hgw60<3w,0*40\r
+!AIVDM,1,1,,B,139e17?P15PHSPpMa>oB?ww6R<05,0*20\r
+!AIVDM,1,1,,B,33P7su1000P8PJ<M>A4VLR760000,0*44\r
+!AIVDM,1,1,,B,33aI9EwP?w<tSF0l4Q@>4?wvPRh1,0*55\r
+!AIVDM,1,1,,B,15Mi8L0034o=qp@EWda4W3U80L0k,0*68\r
+!AIVDM,1,1,,A,13P<Fsh00R05BK@NIMttTqo408D0,0*43\r
+!AIVDM,1,1,,A,36K2<?hOj4awNP2D5lQ`NG;800v@,0*0A\r
+!AIVDM,1,1,,A,A04757QAv0agH2JdH34`5OkP3U8Nw`@;7hsuw@Q0,0*4F\r
+!AIVDM,1,1,,B,13@nfwhP020q`2vOp@?J<Ow800S`,0*42\r
+!AIVDM,1,1,,A,13aI8a?P06PFER@MaAUhggvlPHDr,0*19\r
+!AIVDM,1,1,,B,B3pro5008P@e247aDrt5wwiUkP06,0*67\r
+!AIVDM,1,1,,A,13aGut@P00PCrqJMEEpT:?w620Rb,0*56\r
+!AIVDM,1,1,,A,16K2;RP000abph0Cn7CT@bw600Rn,0*28\r
+!AIVDM,1,1,,A,13P<;WgP?w<tSF0l4Q@>4?wp0l0L,0*6D\r
+!AIVDM,1,1,,B,14eGjK0OieG;EV8KrbIWKUu400Rw,0*38\r
+!AIVDM,1,1,,B,33uAT2040E0mPktQ1PtSG2U400vQ,0*30\r
+!AIVDM,1,1,,A,13urO@002w0jDq8Q2cvTLSW20D1a,0*42\r
+!AIVDM,1,1,,A,13u=7>P0000nEq>Q0Jlslj960<21,0*63\r
+!AIVDM,1,1,,B,B3u@sp0000=Mvs8@;PP03wiUkP06,0*21\r
+!AIVDM,1,1,,A,13vD040000Pmw76PuHfL8a;80<1S,0*2A\r
+!AIVDM,1,1,,A,33c@hl3001P6fSnMQ8@9HQG807DC,0*05\r
+!AIVDM,1,1,,A,14cbMp001gwV9wLDSdbC?Re40<2c,0*59\r
+!AIVDM,1,1,,A,13@r3V;P010hKf0Q1RqJrgw808Dq,0*32\r
+!AIVDM,1,1,,A,13IVWr?P000@sBvHmE8Jugw62<0F,0*7F\r
+!AIVDM,1,1,,A,E028is@Va1Qh80V6Ph@@@@@@@@@@63Oc;DONp00003v0100,2*0D\r
+!AIVDM,1,1,,B,339p>R1P052>RcAfw<E3v?w62000,0*49\r
+!AIVDM,1,1,,B,2341R400000CTjFMHAEqNBk800SC,0*73\r
+!AIVDM,1,1,,A,14eGrSPP00ncMJPO5C8IFOw82HDp,0*3A\r
+!AIVDM,1,1,,A,13ah9>001m0I:iJNeGPajWq40PSa,0*61\r
+!AIVDM,1,1,,A,13aEPrhP10PHT=PN:OCs??w4R5Ip,0*2C\r
+!AIVDM,1,1,,A,133e`UPP000DCFlMDA2lvOw6P@Dt,0*14\r
+!AIVDM,1,1,,B,139guFgP1=PD2apMdQU40gw820SP,0*46\r
+!AIVDM,1,1,,B,13:kvh001k0aQevHgm41eQE60HDr,0*6F\r
+!AIVDM,1,1,,A,14eGP=PP00G1:l:L1Ju9J?w828Do,0*16\r
+!AIVDM,1,1,,A,13q5BP0P00Q2q0hNVMM@0?w6R<0M,0*5D\r
+!AIVDM,1,1,,B,13cSeD0P000g:?NHs5QAVOvf0<0f,0*07\r
+!AIVDM,1,1,,B,13aGDQBP0sPHmD8MgWBQrgw4RHDu,0*5F\r
+!AIVDM,1,1,,A,34S72f5003017=RLB7e6k8Pj2000,0*4F\r
+!AIVDM,1,1,,B,13aDom0P0nPD?=tMDN1;Egw62000,0*70\r
+!AIVDM,1,1,,A,13I>hf000000mc:LD=mdWPU00@Dp,0*73\r
+!AIVDM,1,1,,A,133sqNPP?w<tSF0l4Q@>4?wv0`Da,0*76\r
+!AIVDM,1,1,,A,169@?200008VhtrDab0s:2g600Sj,0*31\r
+!AIVDM,1,1,,B,13P:`4hP00OwbPJMN8pWggw605Ip,0*00\r
+!AIVDM,1,1,,A,13nI6b0P010It0`Qj1n2kgw80<1P,0*13\r
+!AIVDM,1,1,,B,13aBN>h01U0HWs@MakaH2nM8PPSH,0*08\r
+!AIVDM,1,1,,A,133sVfPP00PD>hHMDH?2@Ow625Ip,0*62\r
+!AIVDM,1,1,,A,16K8@P0Oirawgu6D8O5u<bW820Rc,0*65\r
+!AIVDM,1,1,,A,33cmhj5000OkR=LMMmCeIlo60P00,0*7F\r
+!AIVDM,1,1,,A,16K2;aP01Gb0TFLDDp017@u825Ip,0*6D\r
+!AIVDM,1,1,,B,4028j=1uho;NRNpi9j?wtk700<2S,0*21\r
+!AIVDM,1,1,,A,169TkIgP008LMan=whS@1?w42@DL,0*69\r
+!AIVDM,1,1,,A,16KJWU0000b1F`PDEvMGdq=82D3h,0*47\r
+!AIVDM,1,1,,B,403t?Iiuho;NR`SKdr>dv0G000S:,0*40\r
+!AIVDM,1,1,,A,16:R3DP01i`8a3T<V0raQoc42<80,0*7E\r
+!AIVDM,1,1,,A,169:b:002388tup<fuK6;4m408D>,0*7C\r
+!AIVDM,1,1,,A,176sf@006P88Fs2<d5Hk?2O40<43,0*11\r
+!AIVDM,1,1,,A,176tAJ0PAA87mlH<dn9tE9m40000,0*11\r
+!AIVDM,1,1,,B,15Cv7R00018F:hh=G<FTJFc62<0o,0*68\r
+!AIVDM,1,1,,A,16:B=R001>8gqW@EPuj4?ESp0@DW,0*04\r
+!AIVDM,1,1,,A,19NWt8hwh0wnM40Pdfi7U3K800S4,0*12\r
+!AIVDM,1,1,,B,13aDqfhP00PD2OnMDdF@QOw62<3w,0*54\r
+!AIVDM,1,1,,B,B3@o2kh0?0>TIbWv5nBq;wiUkP06,0*30\r
+!AIVDM,1,1,,A,4vjHC6Quho;NPwUuC`OE`6W00@CM,0*04\r
+!AIVDM,1,1,,B,433wJ5Quho;NSPDi4JMCv7700D7e,0*71\r
+!AIVDM,1,1,,B,13aGtdOP00PIMNJMdabP@ww620T0,0*34\r
+!AIVDM,1,1,,A,33AiNN3Oh911K5hNniI=Q;?800n0,0*3B\r
+!AIVDM,1,1,,A,19NWuDh038qkLLd;kL90Bh>r0@B?,0*55\r
+!AIVDM,1,1,,B,13aDpd0P0oPDV2nMe@n2nwvpRL;f,0*5F\r
+!AIVDM,1,1,,A,33S@Gn1002wWMd`Db:Oncbw00Dtb,0*6F\r
+!AIVDM,1,1,,A,13@Vm8001VOWJqpDb:G<A9q4`5Ip,0*65\r
+!AIVDM,1,1,,A,13@nmk@0010r2pJOkoabqFu60@E0,0*0E\r
+!AIVDM,1,1,,A,15N9NLPP01IS<R@F7fKFlOw60<0j,0*4C\r
+!AIVDM,1,1,,B,233e:qPP00PD1`bMDdf:Sww62@E0,0*4D\r
+!AIVDM,1,1,,A,13;5<D001I0b:B`No388Q6q208Dd,0*7E\r
+!AIVDM,1,1,,B,13aFfHwP00PD<s4Me4nP0?w6R@E0,0*6D\r
+!AIVDM,1,1,,B,13P8fQhP1NOjD1NNRe5Un?w408Dw,0*11\r
+!AIVDM,1,1,,A,138@q@0019PVp=rNc>>5HlE600ST,0*14\r
+!AIVDM,1,1,,B,13Oi>V8006Oe2?4LkmQ051q40`Dj,0*60\r
+!AIVDM,1,1,,B,13aDpH@P00PFo>@Mbeq1c?w620Su,0*1E\r
+!AIVDM,1,1,,B,38u<a<?PA<2>P21fu@885Uq80Q71,0*6A\r
+!AIVDM,1,1,,B,133rjigP00PD>L>MD?9IQ?w8RHE1,0*03\r
+!AIVDM,1,1,,A,14eGKMhP00rkraHJPiw0Fww405Ip,0*07\r
+!AIVDM,1,1,,A,168sVa0P008K37FFCLtkUgw60D5k,0*03\r
+!AIVDM,1,1,,A,23aFfl0P00PCR>dMEBA:Cgw620SB,0*36\r
+!AIVDM,1,1,,A,13:BN>0P@@Oi@LNNpONCKaW80@E1,0*15\r
+!AIVDM,1,1,,A,14aKAl0P000UD0bN`DGeWh9408D9,0*38\r
+!AIVDM,1,1,,A,13tqbl0000Pt=`tOcWFh;Vq60@E2,0*5A\r
+!AIVDM,1,1,,B,13q6@d0P0012k88NUck<C?w400S0,0*3F\r
+!AIVDM,1,1,,B,36:@ejPOh:8LRaR>2Shhm2A00000,0*7C\r
+!AIVDM,1,1,,A,13Ggvt7P0JP3DG<M09l:bOw628Dk,0*1C\r
+!AIVDM,1,1,,B,13aJGhhP04PFr<RMab9GNOw62@E2,0*60\r
+!AIVDM,1,1,,B,402Fha0000Htt<tSF0l4Q@000l2G,0*19\r
+!AIVDM,1,1,,A,34`alU001<w469L4:BdcUq7420wh,0*65\r
+!AIVDM,1,1,,A,13oedf001UwUaaPDTOgbPHG42<3E,0*73\r
+!AIVDM,1,1,,A,13aENohP00PDAIPMdQLabww82<8d,0*08\r
+!AIVDM,1,1,,A,13T?r@0P001kt?bEKOlM3gvn0@?u`hWviu,0*4D\r
+!AIVDM,1,1,,A,8000000Iv77nfN17<NPK6NVA>HhOel<KL;5gkW:pGP,4*08\r
+!AIVDM,1,1,,A,402Un7Quho;NN1tT1LESE7o00L1W,0*49\r
+!AIVDM,1,1,,B,8000000Iv79viiRPR=LM69<@<WP9Jb@dCUwCm7kS2h,4*55\r
+!AIVDM,1,1,,B,402Un4P000Htt26n5TDgV`W01t0c,0*5B\r
+!AIVDM,1,1,,B,402Un81uho;NP21<cDE21PW005Ip,0*23\r
+!AIVDM,1,1,,B,402Un71uho;NQ1qDDfF3rF700@Cn,0*45\r
+!AIVDM,1,1,,B,8000000Iv:SJhsq67cGb0LrBpA3t0oi067@D<j:tJ0,4*73\r
+!AIVDM,1,1,,A,402Un4P000Htt26n5TDgV`W01hDw,0*24\r
+!AIVDM,1,1,,A,13aa465P000LIo4NSqnF@?w60@Dm,0*0E\r
+!AIVDM,1,1,,B,13aIkM@P00PJ@qRNL=eh0?w620S7,0*5A\r
+!AIVDM,1,1,,A,13aFh=@P00PKMD:NKdSC5gw62L0g,0*25\r
+!AIVDM,1,1,,B,13abu<?000QBdNpQtOdscs1805Ip,0*73\r
+!AIVDM,1,1,,A,15NCA5gP00ISrmvA8skJuOw82@Dh,0*1F\r
+!AIVDM,1,1,,B,15NKj`PP00ISa64A70ML2gw60L1E,0*0C\r
+!AIVDM,1,1,,B,1CUL1F001uPK9FtH9PRai7m40000,0*78\r
+!AIVDM,1,1,,B,13n34;wP000iMqpRBWdh0?w60<0E,0*3B\r
+!AIVDM,1,1,,B,4025;PAuho;NR0NJbfMRhNA005Ip,0*1D\r
+!AIVDM,1,1,,B,17bNP<0P?w<tSF0l4Q@>4?wp0W3h,0*61\r
+!AIVDM,1,1,,B,13GQwD0P00PD6evMDmch0?w6RHE4,0*19\r
+!AIVDM,1,1,,A,139LF2PP1P10Jk4NsRUTl?w4J<0I,0*21\r
+!AIVDM,1,1,,A,16K8Dkg000awMehDChEjk:c600Rr,0*18\r
+!AIVDM,1,1,,A,13aDow@P00PFCaPMa0lGR?w6RD6A,0*17\r
+!AIVDM,1,1,,B,181:KE002S0csCrHnmSti:900HE3,0*61\r
+!AIVDM,1,1,,A,4h3OvjAuho;NTo=cf0Knevo00t3E,0*34\r
+!AIVDM,1,1,,A,15Mj3>g000o?@W<K;vv:6nW:08E2,0*24\r
+!AIVDM,1,1,,B,13P:v?h009OgbtTNki?TfU=40@E5,0*22\r
+!AIVDM,1,1,,2,433wFTQuho;NSP@k3jM>t>7000S:,0*74\r
+!AIVDM,1,1,,A,13aDolPP15PI7OnN5?oq?OwR2@M@,0*79\r
+!AIVDM,1,1,,A,13aGG=gP1FPIP5JN7m7;p?wT28ME,0*78\r
+!AIVDM,1,1,,A,13aGt:PP00PIWn2N8Ju@0?wT2HMb,0*2E\r
+!AIVDM,1,1,,A,13aC3<rP00PHl3pN2kW8qgwV00R7,0*36\r
+!AIVDM,1,1,,B,13id`<0P000D9WpMd@o@0?wP0<6g,0*4F\r
+!AIVDM,1,1,,B,13aDqb0P1ePFJ38MajNIIgw62D3w,0*6E\r
+!AIVDM,1,1,,A,33aGtUPOi:PI`4DN8>9:8p5VR0sh,0*7D\r
+!AIVDM,1,1,,B,13`e??gP00PIa64N8N>@0?w`2<15,0*3B\r
+!AIVDM,1,1,,A,13bok:?0010H1ppNSR31kGi20@Dd,0*55\r
+!AIVDM,1,1,,A,13`e>l@P00PHpB4N3Jc5t?w`2@Nd,0*18\r
+!AIVDM,1,1,,A,13`spOnP1<PI5GnN54=aBwwb2<17,0*05\r
+!AIVDM,1,1,,B,13aDCn@P00PIm5:N6P6D4ww`R8O7,0*58\r
+!AIVDM,1,1,,A,33b?ED00180DsTlN1@bSIRg`00pQ,0*7F\r
+!AIVDM,1,1,,B,13aDp1SP0`0IEkTN7G`@??w60hId,0*39\r
+!AIVDM,1,1,,B,23cAs20P@<PE3V`N1FwCA2id05Il,0*18\r
+!AIVDM,1,1,,A,23b?ED00180DsTlN1@bSIRg`0000,0*5F\r
+!AIVDM,1,1,,B,13aGtUPOi>PI`16N8>6Iq7wdR@Ow,0*5E\r
+!AIVDM,1,1,,B,13aGEE?P00PDT9pMdh12Dww825Ip,0*67\r
+!AIVDM,1,1,,B,13aEOe0P14PIRojN7p4<0wwd25Il,0*75\r
+!AIVDM,1,1,,B,13P7SCP000OV30VOAsqqUT=62HDT,0*61\r
+!AIVDM,1,1,,A,13bcuF0P000H@G2N:10P`gwd0@PO,0*65\r
+!AIVDM,1,1,,A,13U3;P000RPC=tHMeeamMDWh0@Ps,0*7D\r
+!AIVDM,1,1,,A,13aGEdoP0j0JF0DN6dwa@?wh0ctd,0*27\r
+!AIVDM,1,1,,A,13aFdJwP1@PH6M4N1>l9TOwhR5Il,0*7E\r
+!AIVDM,1,1,,B,169q14`0008Vf?6Da0Hd=W180<3e,0*3E\r
+!AIVDM,1,1,,A,13aEQsPP120HSPHN2T02C?wjR<2@,0*45\r
+!AIVDM,1,1,,A,13:jQ03vB=PBI`bMi2g>0@5l0HR4,0*0E\r
+!AIVDM,1,1,,A,13ckMQ50000CwwdMd<RWe8ql0@R@,0*10\r
+!AIVDM,1,1,,A,13aGFc5P1<PI1DtN4uR`Ugwn28RE,0*5C\r
+!AIVDM,1,1,,B,B3m8jU004@=`?CaQ3W85owiUoP06,0*2F\r
+!AIVDM,1,1,,A,13aENOPP00PCUa8McwIc<ww:R<8K,0*76\r
+!AIVDM,1,1,,A,16:=I6?0008RkeRCp4:5L6u5PD1u,0*02\r
+!AIVDM,1,1,,A,168tHcg0008RiFFCp<v009s620Ro,0*28\r
+!AIVDM,1,1,,A,35Bv1v10008SKp@CrD=eLR=60000,0*7A\r
+!AIVDM,1,1,,A,15D<64000r`S33rD2g:;49760<5H,0*36\r
+!AIVDM,1,1,,A,169NSQ001@8cWrHB1a=4kSc008DR,0*7D\r
+!AIVDM,1,1,,B,18Jobt001q0=2>RMIC6J3H980<4p,0*05\r
+!AIVDM,1,1,,A,16:Qwd001b`hv5`Aq8jh4@162@DW,0*39\r
+!AIVDM,1,1,,B,168upK000087BET==hO@08k62@DS,0*5F\r
+!AIVDM,1,1,,A,169AK?PP0k8d<u6ApL:r6ww208Da,0*49\r
+!AIVDM,1,1,,B,169U@HPP00`ONI`><mnh0?w62D1C,0*2D\r
+!AIVDM,1,1,,B,1690JO`00187B=t==grkG3;20@DW,0*1B\r
+!AIVDM,1,1,,B,16:fRwOP1=87Rq@=<KuLG?w60D2M,0*65\r
+!AIVDM,1,1,,B,169G:gPP?w<tSF0l4Q@>40560`Df,0*26\r
+!AIVDM,1,1,,B,1010000P0087?O<==4DEw?w60<5@,0*43\r
+!AIVDM,1,1,,B,403t?hAuho;NR`Pc:j>Kgq7008Df,0*68\r
+!AIVDM,1,1,,A,177jE;00008RsIn>pEQuT@U80HDi,0*3E\r
+!AIVDM,1,1,,A,369bIJ00268cLrDEcgUeMrkp0P01,0*6A\r
+!AIVDM,1,1,,A,169pkw8000`cko`EObQ8K35820SV,0*68\r
+!AIVDM,1,1,,A,16:JD5PP008S2G:>q681oB540@Hu,0*15\r
+!AIVDM,1,1,,B,39NWvkh028OAHQ>FKVHnwUS400W1,0*0E\r
+!AIVDM,1,1,,B,13P;GbP02tOASH6FTtGW4Ee808Do,0*15\r
+!AIVDM,1,1,,B,135OEv001hOC>ghEwo@eSbu820S?,0*60\r
+!AIVDM,1,1,,A,13sM;tgP01OEfO6F94B6Ggw40<0J,0*5C\r
+!AIVDM,1,1,,A,15DggD002@wC7EHEpHueV:u200Ri,0*23\r
+!AIVDM,1,1,,A,15C@QT0033wBV:>EiAGnLE5828E3,0*7F\r
+!AIVDM,1,1,,B,13P;c>@000ONhwrOOfVJ5iK408D9,0*21\r
+!AIVDM,1,1,,A,601uEPLpBir<048100,4*21\r
+!AIVDM,1,1,,B,13@oQRgP000qeK@OoRjbKgw828E8,0*7D\r
+!AIVDM,1,1,,A,13aHId00000Hiq2NK8jq999600SU,0*5D\r
+!AIVDM,1,1,,A,A04<g?i:7Tcip2KBH34`8?sa05USw2h0ElKwD@1U,0*27\r
+!AIVDM,1,1,,B,19NWqOU000G<QkdL<wM4JSS008Dv,0*74\r
+!AIVDM,1,1,,B,133pc>PP00PCl;tMEC<:6gv@RD8S,0*5E\r
+!AIVDM,1,1,,B,169<o6?P00`JrRvFCTTsJ?w82<55,0*2F\r
+!AIVDM,1,1,,,13P1aH?P0DP81dRMjS>7t?w828E7,0*58\r
+!AIVDM,1,1,,A,13P7JTP6A`OrtGPM3TP8`W9400S?,0*50\r
+!AIVDM,1,1,,A,100000?P?w<tSF0l4Q@>4?wp0`E6,0*35\r
+!AIVDM,1,1,,A,15NOCogP0Rr0wuNF6N741Ow820S3,0*3A\r
+!AIVDM,1,1,,B,13A=aP0013Onsi`Pfal8IVg60@Ds,0*39\r
+!AIVDM,1,1,,B,377PQE0P@90W0JDNbP7TC0e40000,0*2F\r
+!AIVDM,1,1,,2,833rfoPj2d=d<<e><QCha?aE00L0,0*38\r
+!AIVDM,2,1,7,A,53aDoTT000010;CCSV1H4q5DU<R000000000001@<@<57t0Ht00000000000,0*5C\r
+!AIVDM,2,2,7,A,00000000000,2*23\r
+!AIVDM,1,1,,A,A0476BQ>J8`<h2JpGn4P0?jG1mTEw8T8DP1D;i;v;1,0*74\r
+!AIVDM,1,1,,A,33P:LS3P@tP6Q6vNAikMvrk421v@,0*5D\r
+!AIVDM,1,1,,A,833sckPj2d=eL<v><0@@I?fE0000,0*30\r
+!AIVDM,1,1,,B,13chfQ0P000g:C@Hs?500?w405Ip,0*64\r
+!AIVDM,1,1,,B,16SWW40P0ma3>C0EH;u1A?w60HE4,0*23\r
+!AIVDM,1,1,,A,13prp100001Dlr<O<qPrlQm608GP,0*69\r
+!AIVDM,1,1,,A,15NE7mPP4`Je3R6G@8P00?w:0D2t,0*70\r
+!AIVDM,1,1,,A,133otggP0:0ChvVMG3nhpOw4P5Ip,0*72\r
+!AIVDM,1,1,,B,33`hoKGOh>PF>12Mf8>VhBq801v0,0*23\r
+!AIVDM,1,1,,,13nSNf3000P8qv8MdS:3IPUp0`E9,0*47\r
+!AIVDM,1,1,,A,15N8<TPP00IRlpH@ktr<@gw60<55,0*08\r
+!AIVDM,1,1,,A,16:9mo`0008K8r@FD82kk0m7p0Rw,0*0E\r
+!AIVDM,1,1,,A,15N0DbPP00IT6IfA5Ec2e?w80L2s,0*36\r
+!AIVDM,1,1,,B,15NLWQPP06ISImtA7PeDaOw60L<G,0*06\r
+!AIVDM,1,1,,B,15MuhLPP00ISjerA4TTs5gw828Du,0*7A\r
+!AIVDM,1,1,,A,15Sq:B?000IT5BT@jd?WIUg808Du,0*15\r
+!AIVDM,1,1,,A,15NIEcP000ISrjHA8tAqBq=805Ip,0*1E\r
+!AIVDM,1,1,,A,15Mv7fPP01IRepLA9?7siww60<4L,0*23\r
+!AIVDM,1,1,,B,15MuS0PP00IS00HA8gFKdww60HE6,0*62\r
+!AIVDM,1,1,,B,14RJK@00000HoBTNKniJ=nO82<3Q,0*32\r
+!AIVDM,1,1,,B,133nQi0P000CmKrME`krIOw82@E<,0*36\r
+!AIVDM,1,1,,A,13pr?KS00J12jGNNUO=0ohs80<0P,0*52\r
+!AIVDM,1,1,,A,133j13PP00PDFj`MDE>2aww62<6>,0*36\r
+!AIVDM,1,1,,A,16KVqwP01aawQWFD6CTa87A82D5N,0*23\r
+!AIVDM,1,1,,A,16K8CvPPBqawjAPDAhEI:WE600Rm,0*79\r
+!AIVDM,1,1,,A,403Ovl@000Htt<tSF0l4Q@100d0G,0*7A\r
+!AIVDM,1,1,,B,13P<jbOuP00P;e4HrO<bi2582HE9,0*68\r
+!AIVDM,1,1,,A,13GR1b0P0tPClD2MAVJVwww825Ip,0*78\r
+!AIVDM,1,1,,A,139RJNgP000UCQ2NWilrQOw82D1u,0*34\r
+!AIVDM,2,1,8,B,54SbLF02>H?mK8IS>2084i@T>1<D62222222221?;p4:74I20:lSm51DQ0CH,0*14\r
+!AIVDM,2,2,8,B,88888888880,2*2F\r
+!AIVDM,1,1,,B,33m:q<0PAN0JJr8Qial`r774012P,0*5A\r
+!AIVDM,1,1,,B,B3uAou00?hDgl=8OCuVO>0AUoP06,0*24\r
+!AIVDM,1,1,,B,15Mulj0001rmv6RGcEEtE3?62@DJ,0*40\r
+!AIVDM,1,1,,A,15Mwo`0P00JnGO:GVmJcM?w608DJ,0*01\r
+!AIVDM,1,1,,A,13aC2=?P1APGJstMVWWIf?w828E=,0*7A\r
+!AIVDM,1,1,,B,33`j4pPP00PCrPdMEqNjW?w6208i,0*19\r
+!AIVDM,1,1,,A,16K2>6P000awhsdDI4GL=A5620Sle:cvbH,0*49\r
+!AIVDM,1,1,,B,15Mh`3P001o?<a:K?v@sA`i:05Ip,0*7E\r
+!AIVDM,1,1,,A,13aFfPPP0KPDP8:Mdr<Fb?w820SH,0*22\r
+!AIVDM,1,1,,B,13B0?j00140jDbrPqOUtIqkF0PRS,0*30\r
+!AIVDM,1,1,,B,13u=CfP01U0mu=BPuCT876K200S5,0*0D\r
+!AIVDM,1,1,,B,11mg=5OP00Pdu`>I>lNUS?vl0@E9,0*5D\r
+!AIVDM,1,1,,B,13ciul002Q0fHu8HsP>d9qk808E:,0*59\r
+!AIVDM,1,1,,A,16K2<nh000awHPfD<8gqP7E80<3w,0*3E\r
+!AIVDM,1,1,,A,16KVnDh02wawa3pDA6@`c6s488E2,0*49\r
+!AIVDM,1,1,,A,16K8Db?000aw;QbD@;u=wiq80D3@,0*42\r
+!AIVDM,1,1,,A,13u7El002qPhwo0PoGbjiRC600Rv,0*06\r
+!AIVDM,1,1,,A,14Ut8T001K0g524Q6kB3aC;60HDU,0*4B\r
+!AIVDM,1,1,,B,13aJH?wP00PFfdjMavU00?w828E>,0*2C\r
+!AIVDM,1,1,,A,13iCv4002=032VhMMuMCdC140<3w,0*5D\r
+!AIVDM,1,1,,B,13aEOU0P000CrJ8Mdh<@0?w6R<7k,0*4B\r
+!AIVDM,1,1,,B,13aFdh0P00PL52RMhSCEuOw42HDu,0*67\r
+!AIVDM,1,1,,B,15Mj3MP000o?;GpK?rKrlq5:0<1i,0*3D\r
+!AIVDM,1,1,,A,16:Ce7PP018LG:D>09bh0?w40<16,0*3C\r
+!AIVDM,1,1,,B,403tAEiuho;NS89E5<<nomi000S:,0*72\r
+!AIVDM,1,1,,B,12wP7k0P0g8gBsPA7E3d:?w62D0g,0*55\r
+!AIVDM,1,1,,B,1663H@?vh08gTJVA8aWLTSk60@De,0*21\r
+!AIVDM,1,1,,B,16:?uo00008feuFA:n8P02362@Dg,0*1E\r
+!AIVDM,1,1,,B,18ItIv00038h1hD@w??1HP?800S5,0*1F\r
+!AIVDM,1,1,,A,33o8:H50000KIODQL?TcNK58P000,0*42\r
+!AIVDM,1,1,,B,13CsGSgP0089Kct<oOS99gw825Ip,0*30\r
+!AIVDM,1,1,,A,1690F2g0008LMPh>00M9uiI800S;,0*45\r
+!AIVDM,1,1,,B,169<r6`P018eTsVAAtqASJ120Djr,0*4C\r
+!AIVDM,1,1,,B,169D6C8P00`fn1@A:KviMOw400S4,0*52\r
+!AIVDM,1,1,,B,169D`DP0018fDBtA6VF:nH;60@Do,0*1B\r
+!AIVDM,1,1,,A,13F61d?P00NqHwh@6TLSf?w80<0l,0*7D\r
+!AIVDM,1,1,,A,133lA`8P1;PCe68MGrEM@gw42@E5,0*56\r
+!AIVDM,1,1,,B,16:>9480008Vk6<Dai4sok=82HE9,0*20\r
+!AIVDM,1,1,,A,13Msnp00000fpTLI6<utBVcp2PSC,0*0D\r
+!AIVDM,1,1,,B,13u>>3?P011Bg>DQt`i9fgw:28E@,0*37\r
+!AIVDM,1,1,,A,13aDor@P0EPRge0K>g>6hwvr2@EA,0*3E\r
+!AIVDM,1,1,,A,13aGDo3P00PD5;hMdnTSgwvrR8E@,0*03\r
+!AIVDM,1,1,,A,14eGsEH001FcCmlO4cKTQnk80<0C,0*3D\r
+!AIVDM,1,1,,A,16KPiBh001awk<8DDlGrTiI80<4P=d3vbH,0*7A\r
+!AIVDM,1,1,,A,33ew5403iowwtE`O0H0<Wb5600sh,0*77\r
+!AIVDM,1,1,,B,13aDC;8P00PDQ4dMdTvkGww628E@,0*19\r
+!AIVDM,1,1,,A,33cBm`5000Ok`@bMMt1QC9W9P000,0*09\r
+!AIVDM,1,1,,B,8000000Iv?O>Bt=Ki>bReVeucU5SD@E067@D<j:tJ0,4*2A\r
+!AIVDM,1,1,,B,13u=aJ0001Pq:rtPSLMLAWRp0D0:,0*5C\r
+!AIVDM,1,1,,B,13m32n001T0p5rRPGM3FE53600S7,0*2B\r
+!AIVDM,1,1,,A,1341BL00000Id5:Hdwl4MFi205Ip,0*52\r
+!AIVDM,1,1,,B,15Mj2wP000o>bilK=hRKE:5805Ip,0*5C\r
+!AIVDM,1,1,,B,13=I`D5P008VjT<DanF7`?w60d2t,0*48\r
+!AIVDM,1,1,,B,13aBfLhP000Cc`fMdFJMm?w80@EA,0*01\r
+!AIVDM,1,1,,,13acD`8P0006gSTMQp0bDww:0HE@,0*70\r
+!AIVDM,1,1,,2,133p6qgP0nP@USfM?1vbN?w:2D2<,0*59\r
+!AIVDM,1,1,,A,1CTDLO0000Qd=iHEeOMPD8O20P00,0*7D\r
+!AIVDM,1,1,,B,833lHWPj2d=dL=LeMPe`ShQU3800,0*2F\r
+!AIVDM,2,1,4,A,539e?E400000@>3G3;18UHE:0eL4V2222222221@<P:4740Ht035A5jAlj0AQC,0*05\r
+!AIVDM,2,2,4,A,`88888880,2*78\r
+!AIVDM,2,1,2,A,53n@Kv02@bwLh<@f221@T@E18Tq<Dr222222220t38I6640Ht7klk3p88888,0*73\r
+!AIVDM,2,2,2,A,88888888883,2*25\r
+!AIVDM,1,1,,A,13`e?<hP0f0D5jTMDj6kwOvv20Sd,0*00\r
+!AIVDM,1,1,,A,13cdUc001i0c7o6HmK:FA7W808E@,0*76\r
+!AIVDM,1,1,,B,C95jQj@3wk?8mP=18D3Q3wgVhBLjBM1kQ11111111110S3L7SRP7,0*4C\r
+!AIVDM,1,1,,A,16K8Dah000awB4hDB6>9AFa82D4Abs7vbH,0*37\r
+!AIVDM,1,1,,A,139f0`0P00PFDW6Mag7IgOw:25Ip,0*16\r
+!AIVDM,1,1,,B,24SaQh500E0Cu1BMErfb4Gw800S5,0*09\r
+!AIVDM,1,1,,B,177Ksv001<06uH>MLgtsnIk808EC,0*49\r
+!AIVDM,1,1,,B,18152wPP@;0CoKpMdHM3h2A608EC,0*0D\r
+!AIVDM,1,1,,A,16K2=tP001aw>PNDBMOL1aS80<4`pQ?vah,0*0C\r
+!AIVDM,1,1,,A,33P<GptOhSwgARdNuEGJH8S:01;h,0*22\r
+!AIVDM,1,1,,B,1CTRUT3P001d0oLEf1O5POw@0P00,0*55\r
+!AIVDM,1,1,,A,15MpAUP000IR<;PA9Mn9K;;800Rb,0*06\r
+!AIVDM,1,1,,B,15MmOb?P00ISh=bA8e7rtgw:2L4w,0*54\r
+!AIVDM,1,1,,B,13aBNBg000PC`TLMHsqH@rlvP<5C,0*49\r
+!AIVDM,1,1,,A,14eGNM?001rkr6LJPi5:r6w82<0=,0*69\r
+!AIVDM,1,1,,A,15BkuL000Ia3RpTEL0jSr3?400SS,0*25\r
+!AIVDM,1,1,,B,13ci`f00000Vc<`IE4Fb=A9:2@EB,0*64\r
+!AIVDM,1,1,,A,33pr<nSP@w12lRfNUUa7IUq40000,0*58\r
+!AIVDM,1,1,,B,13oQg600000JA1DQgaRJu5O805Ip,0*42\r
+!AIVDM,1,1,,A,14aNTh0024JmrA0G;ifJO8I60@DR,0*45\r
+!AIVDM,1,1,,B,14eGHU0000o;s?4KsI3@FbK408DV,0*70\r
+!AIVDM,1,1,,A,13oJ2r000011joRVP0ViITD00<0H,0*02\r
+!AIVDM,1,1,,A,601uEPA8ad50048100,4*01\r
+!AIVDM,1,1,,B,14QsEP@01QOw890NdU=<>aq:00Rt,0*42\r
+!AIVDM,1,1,,A,13u?jNPP00QBgJhQtKEP0?w82L0f,0*0F\r
+!AIVDM,1,1,,B,19<Ja8h00P2BLt<J`e8l@SK620RC,0*28\r
+!AIVDM,1,1,,B,133eS7PP00PD>h8MDHs@0?w828EE,0*57\r
+!AIVDM,1,1,,A,13u?jB?0000r4j2P4MRe0be605Ip,0*44\r
+!AIVDM,1,1,,A,13P;i=P000Orvp@M4Sd@05W60<16,0*61\r
+!AIVDM,2,1,1,B,A02VqLPA4I6C00@5H2fH7gnC01tOvuwaD@cu:P1f4?l3wi4GwU4070;u8@@@,0*54\r
+!AIVDM,2,2,1,B,1?nG3C4DwGGq8h3sCfuI1wgWuTp=wR`01:bb,0*58\r
+!AIVDM,1,1,,B,13aEQTHP00PD>16Md6IP0?w8R5Ip,0*2B\r
+!AIVDM,1,1,,B,16S`4w0P00a3Ok>EKPEW>gw9p<1A,0*1D\r
+!AIVDM,1,1,,A,16K8DU@000b1I7VDGSJ;4D=828Dr,0*20\r
+!AIVDM,1,1,,A,16K8Au@000awU:DD9l@bIFs:28E>,0*2F\r
+!AIVDM,1,1,,A,13aGE00P000HiobNKI;9UOw:25Ip,0*2C\r
+!AIVDM,1,1,,A,13AwPr00000pFa8P7IobKUK:2<0I,0*54\r
+!AIVDM,1,1,,A,A04757QAv0agH2JdH48`7wrq1E40vo<6F@?s7P9G,0*05\r
+!AIVDM,1,1,,A,13aDq?@P000GGo2MhW200?w6R8EF,0*65\r
+!AIVDM,1,1,,A,139LiF0P020ePH`NWw1EFgw:08EE,0*4F\r
+!AIVDM,1,1,,A,14hr:@?0000IbthHdv9Ubnc:08ED,0*21\r
+!AIVDM,1,1,,A,133ji6PP00PCugjMDplWI?w8RD7h,0*7B\r
+!AIVDM,1,1,,A,16K2<M@010b108PDCw5siaK600SP,0*13\r
+!AIVDM,1,1,,A,13aEQD0P0n0Jh3fNSg0=EOw8R5Ip,0*00\r
+!AIVDM,1,1,,B,13a8J@00230GudHN`@RRpBC600S2,0*13\r
+!AIVDM,1,1,,B,13biE60P000J;NDNTokUugw:0@EB,0*17\r
+!AIVDM,1,1,,B,139ec>?P00P`0<nNHmAhwgw6R0Rf,0*5E\r
+!AIVDM,1,1,,A,16:GHAgP007kVt<;BSHkKFE405Ip,0*69\r
+!AIVDM,1,1,,A,133be800000=IsLMD60a1Ic:08EE,0*14\r
+!AIVDM,1,1,,B,13aC41@P00PDU8FMe5PApOw825Ip,0*6D\r
+!AIVDM,1,1,,A,13`lE6002S0@NQfN1;UoT6580D5B,0*21\r
+!AIVDM,1,1,,A,34h>N:50@10g8mdHraSWK4c60Dbb,0*10\r
+!AIVDM,1,1,,B,19NS1sP02a06oALM=JW``Vq808EF,0*5C\r
+!AIVDM,1,1,,A,168svqPP0h8Ve=8DaSs31gw80<20,0*1A\r
+!AIVDM,1,1,,A,16K2=nw000b0IP6D>obB8C520HE7,0*72\r
+!AIVDM,1,1,,A,19NSAL002JO0rS845V<4uT3405Ip,0*65\r
+!AIVDM,1,1,,A,15QgeJ0036aw8bhD2pd91W=40D3C,0*2A\r
+!AIVDM,1,1,,A,133w;`PP00PCqgnMcqOqegw:RHEF,0*67\r
+!AIVDM,1,1,,B,B69Ecdh0Gitq1sRlrj4iwwiW1P06,0*39\r
+!AIVDM,1,1,,A,36K2:jhOh5awouDDCJdo<bU:00th,0*53\r
+!AIVDM,1,1,,A,169I?h002>8gIlTAhdm3VBm428Dd,0*50\r
+!AIVDM,1,1,,A,169A<`PP1N8gN9jARvE8>?w00?EU,0*79\r
+!AIVDM,1,1,,A,139`DcP00w8hHsdAk1h3`Rc20PSJ,0*28\r
+!AIVDM,1,1,,B,169?sl0P1K8PTKh>;?g8QOw605Ip,0*38\r
+!AIVDM,1,1,,B,16:fOuOP0<87Wgp=;on1Bww60<0U,0*33\r
+!AIVDM,1,1,,A,16:=I8S0008R`b<CpHLq9Hw60L2I,0*11\r
+!AIVDM,1,1,,B,177nP4PP2a8:Ru4<hF@3tww600S8,0*14\r
+!AIVDM,1,1,,A,13@nm?h0000hOELQ1djJqQU800S2,0*16\r
+!AIVDM,1,1,,B,177nPaPP1L8:<mh<j3kn6ww62@Dr,0*29\r
+!AIVDM,1,1,,A,13AsO6?000PhNLDQ1eMP0:9828EE,0*07\r
+!AIVDM,1,1,,B,176rP800018:Rpd<h>G6LSCp08Dt,0*45\r
+!AIVDM,1,1,,A,168u=aSP0I8S8u0CpFFSAR;40@J@,0*5A\r
+!AIVDM,1,1,,A,16:>Hi0P058bMq4EVKJCp3G40@J=,0*55\r
+!AIVDM,1,1,,B,11aucihP008F25`=A68@0?w7r0SO,0*39\r
+!AIVDM,1,1,,B,169pl9?000`caBbEPk4aDU7825Ip,0*78\r
+!AIVDM,1,1,,A,36:R005000`cbhvEPFGqE`I8R000,0*62\r
+!AIVDM,1,1,,A,13aDqWKP00PP@NRMO1sd3Ow62@E<,0*72\r
+!AIVDM,1,1,,A,13aGtn@P1bPD9`0MdUf9e?wlR<<B,0*54\r
+!AIVDM,1,1,,B,B6:;>sP00j70Q@5ThHk5oh:4SP00,0*24\r
+!AIVDM,1,1,,B,133grBg0000CT:RMECErKRU60<9=,0*55\r
+!AIVDM,1,1,,B,14eGF?001Wo:dAtL7O8D@SM400S>,0*56\r
+!AIVDM,1,1,,A,15C3m4002Go<<cRL0Vqd>9o:0<2k,0*18\r
+!AIVDM,1,1,,B,14eP98001pG:Cg:L;0oIQWQ60hE9,0*12\r
+!AIVDM,1,1,,B,F030p822N2P5iQAoR;H6SQ010000,0*03\r
+!AIVDM,1,1,,A,13aDGp0u1bPHHUhNTi@Rq2E808Dv,0*28\r
+!AIVDM,1,1,,A,13aEOepP00PCrh:MDh4sGOw82HEI,0*2E\r
+!AIVDM,1,1,,A,139hFS0P0HPeALbN`9Pstww828EI,0*5C\r
+!AIVDM,1,1,,B,133f01PP000D=H0MDvP00?w8P@EJ,0*02\r
+!AIVDM,1,1,,A,15Mvw00000IS8oHF8bAJ0:a60@EH,0*6C\r
+!AIVDM,1,1,,A,14QsCt@Oi0OAFjpF:hKVrUC808E9,0*13\r
+!AIVDM,1,1,,A,19NSAbh02lwD@sdES=vMPJm:05Ip,0*13\r
+!AIVDM,1,1,,B,33sO3Sg00AwF?S8F8m;EERS600SP,0*26\r
+!AIVDM,1,1,,B,177ngw002RwC088F6qeeQ:o608EJ,0*3A\r
+!AIVDM,1,1,,A,1>qc9ww000OkfS@MMI5004S60@00,0*3E\r
+!AIVDM,1,1,,A,13aDrGhP16PCtqPMbc<TWOw82<3w,0*74\r
+!AIVDM,1,1,,A,13aGEe@P00PDG8VMDRjkU?w828EI,0*76\r
+!AIVDM,1,1,,B,133WgP?0?wPD:nFMDJI>45W:05Ip,0*51\r
+!AIVDM,1,1,,B,133eU4PP00PD6G`MDjqhg?w82<6o,0*2F\r
+!AIVDM,1,1,,B,169;2fPP018Kqv0FCLT:qOw:00ST,0*62\r
+!AIVDM,1,1,,A,3018lEgP?w<tSF0l4Q@>4?wp0RpQ,0*2F\r
+!AIVDM,1,1,,A,152L:tUP00JSE9pFNDLv4?w60000,0*3E\r
+!AIVDM,1,1,,A,401rWbQuho;NR8eOTfFGgLQ008H6,0*4D\r
+!AIVDM,1,1,,A,13IV0nOP000@qorHm?AqPgw60HDv,0*70\r
+!AIVDM,1,1,,A,13aDq<@P060GqA>MaQe@?gw62D20,0*16\r
+!AIVDM,1,1,,B,155?c800010JF:6Qg`dc;n1:08EF,0*45\r
+!AIVDM,1,1,,A,13n3aW003iPJW9`Qh7urs8e82HEH,0*69\r
+!AIVDM,1,1,,B,13mGSF003FPJhjBQfq:82nG800Rm,0*6F\r
+!AIVDM,1,1,,B,13aBME0P000ClQ2MEVpP0?w608EL,0*21\r
+!AIVDM,1,1,,A,13aDCHOP00PRf`jK?Kw7;ww825Ip,0*39\r
+!AIVDM,2,1,1,B,53`vAs41u?Ee0KKSS@0ltq@4hT0000000000000l1h>64ug;0=hTQCADR0EQ,0*7B\r
+!AIVDM,2,2,1,B,CP000000000,2*35\r
+!AIVDM,1,1,,B,140UuI@0000D>2LMe0ch011805Ip,0*1A\r
+!AIVDM,1,1,,A,15N;0>0016Jll`pGWe><Pr380<0;,0*5D\r
+!AIVDM,1,1,,B,36:AH=PP088Viw:Dateo:SO820qA,0*1B\r
+!AIVDM,1,1,,B,37PD7<0OifblQWMjFwuKW9E800t@,0*49\r
+!AIVDM,1,1,,B,133n@sPP00PClq`MGbdlGww62D6J,0*3C\r
+!AIVDM,1,1,,A,13e:Qj0P000fpiRI6=<9T?w:28EK,0*58\r
+!AIVDM,1,1,,,13aDqA@P1>PIh;rN6d4qoww82D1E,0*5B\r
+!AIVDM,1,1,,B,35Wnlb16000Cr9DN2tw;8P540000,0*42\r
+!AIVDM,1,1,,A,13aBN9hP160Ccp8MHnJ6vOw608EM,0*78\r
+!AIVDM,1,1,,,100:g0P000PIa4JN8N800;98R8EH,0*00\r
+!AIVDM,1,1,,A,13bsi40023P1e5TLshAIgGo80@E8,0*29\r
+!AIVDM,2,1,5,B,53U0vp01rLjI=V3?S?U<l584L@V222222222221@7`9844ud08kKSsR8,0*61\r
+!AIVDM,2,2,5,B,888888888888880,2*22\r
+!AIVDM,1,1,,B,1:022D0001ORk1`QBuk4EVE80HE:,0*2C\r
+!AIVDM,1,1,,B,13M@Cn@02dwUlGHQ<9e;caE40@E=,0*11\r
+!AIVDM,1,1,,B,13aJHD0P1@PD2VNMDhNbQOw825Ip,0*0D\r
+!AIVDM,1,1,,A,15N8QPP000re?jVGA8ped:A:08EI,0*2B\r
+!AIVDM,1,1,,B,36:@MiUP@08VEApD`f;3>BTgpP00,0*34\r
+!AIVDM,1,1,,B,402Au11uho;NT<tSF0l4Q@000hEO,0*02\r
+!AIVDM,1,1,,,13A39`0v2PP7VeFMc4Nbd`k80@EJ,0*66\r
+!AIVDM,1,1,,A,15MwoQg000IOqw6BQv0`w2M:0D0A,0*45\r
+!AIVDM,1,1,,A,13`gb9@P010Ch8<Md@bVBgw405Ip,0*71\r
+!AIVDM,1,1,,A,4h2=a@1uho;NS02t`FM6su100@Dk,0*42\r
+!AIVDM,1,1,,B,13aFfGgP00PH=f>N9nvh0?w820Rg,0*1B\r
+!AIVDM,1,1,,B,13bBkv00000EVp4MarhP=HE800St,0*34\r
+!AIVDM,1,1,,A,13aDoP@P00PCcsbMG`F9?ww82<3w,0*17\r
+!AIVDM,1,1,,A,19u0k8?P?w<tSF0l4Q@>4?wv0l0J,0*29\r
+!AIVDM,1,1,,A,15AwF@002Bw3QMh4;OoDfki800S7,0*01\r
+!AIVDM,1,1,,A,133maoPP00PCdJbMGT5b1gw:2@EN,0*40\r
+!AIVDM,1,1,,B,13cgRg0P000g:BDHs>d0vgw80<0r,0*5C\r
+!AIVDM,1,1,,A,133Vvn001mP=;RjMEss664c60D1@,0*07\r
+!AIVDM,1,1,,B,16:A:Wg0008gl8RA8V7VjJc620Rh,0*39\r
+!AIVDM,1,1,,B,16:BQ@P017`4r<P<EGJ2Tiq820SR,0*56\r
+!AIVDM,1,1,,B,36:CeqPOhU89L:f<o=1Ec:Q8011h,0*0C\r
+!AIVDM,1,1,,A,12wdLPPP008LJJ@>0I@uVwvj05Ip,0*6D\r
+!AIVDM,1,1,,B,169ib@00008fMl@A:b94KbA00d7f,0*26\r
+!AIVDM,1,1,,B,B6:k6T@0ER2F4f3=VDv2?wiSQP06,0*0E\r
+!AIVDM,1,1,,B,16:@38`P008fI5VA6vKlVW940D3F,0*3C\r
+!AIVDM,1,1,,A,36:A9k001`8gTqhAQlGhOAC600pQ,0*40\r
+!AIVDM,1,1,,B,B6:Clg00<b1rn`3Ba<SE3wiRb1i1,0*7E\r
+!AIVDM,1,1,,B,C69DpJ000b87wL3SU0AhOwj0l@:62L>jcUUQR0000000?1891QRP,0*08\r
+!AIVDM,1,1,,A,13PhIT0000OrdLlRKDG9i7M:08EF,0*79\r
+!AIVDM,1,1,,A,15W`;:50008dpeDAuRKcE9O60PS=,0*59\r
+!AIVDM,1,1,,A,368u=pPP0T8RwRNCp:ncCHi40000,0*14\r
+!AIVDM,1,1,,A,369@5v1P00`SwlfD=TqA3gw60000,0*3E\r
+!AIVDM,1,1,,A,F030ouB2N2P6RLQUu<tC31h10000,0*1C\r
+!AIVDM,1,1,,A,369quRSOh?8S:LFCpNK`jpU80000,0*7D\r
+!AIVDM,1,1,,B,176t5d001>8:RfH<h@lTAkG805Ip,0*04\r
+!AIVDM,1,1,,A,33EplEaPC9Oe9tvE0ajIioc:00g0,0*5F\r
+!AIVDM,1,1,,A,133rncPP00PCmQvMABE00?w8R0SI,0*32\r
+!AIVDM,1,1,,B,15N7F<PP00IRm`nA9Kqd=Ow80D4S,0*52\r
+!AIVDM,1,1,,B,15MuRP0P00ISb>vA6dbLKww80D1f,0*26\r
+!AIVDM,1,1,,A,15N0eN0P00ISh?RA8fOKNww80HEC,0*1B\r
+!AIVDM,1,1,,A,15NGht0P00IT4MvA80R;H?w:20RW,0*58\r
+!AIVDM,1,1,,A,13aGuC0P00PHC0HMg@Qh0?w825Ip,0*5A\r
+!AIVDM,1,1,,B,12wj;=@u1HQdOOTET7an:m1780SS,0*60\r
+!AIVDM,1,1,,A,169G=0`000WkeF8;Bn?H9Hs800S`,0*4C\r
+!AIVDM,1,1,,B,13@oU8hP000nBBdPw3lPtOw:0@EC,0*4F\r
+!AIVDM,1,1,,A,33uDFD5000Plvl0Q9mr:AkA80Dkr,0*75\r
+!AIVDM,1,1,,A,13aGt?gP13PE=CfMcb<=8ww825Ip,0*02\r
+!AIVDM,1,1,,B,33u=L?POhi0n=H2Pw`h;9`q60000,0*13\r
+!AIVDM,1,1,,A,13u=?5?0000nMdRQ0glrVJI:0HEM,0*4B\r
+!AIVDM,1,1,,A,1342dB0000P>`erMGfLJ@mK:0HEP,0*46\r
+!AIVDM,1,1,,B,13P<<6OP0COhF@tNt?nhOww82HEP,0*63\r
+!AIVDM,1,1,,A,83aDoTPj2d<dttevLj9Pqgbm0000,0*42\r
+!AIVDM,1,1,,A,13aIj=wP00PL5Q`MhRd00?w828EQ,0*19\r
+!AIVDM,2,1,1,A,533gVhT00000uC;G;80AN0TTT00000000000001I1p:34t0Ht0@CU5iDT1CP,0*4A\r
+!AIVDM,2,2,1,A,00000000000,2*25\r
+!AIVDM,1,1,,A,33P;D3E00000PkHLD;TV17w60000,0*4A\r
+!AIVDM,1,1,,A,16SWU<001Ba3N=nEKIooQ8982HEK,0*2B\r
+!AIVDM,1,1,,A,402Fh`P000Htt<tSF0l4Q@000PS5,0*54\r
+!AIVDM,1,1,,A,13ag2r:P090CTdvMd4w=9wvP0@9?,0*7D\r
+!AIVDM,1,1,,A,13JI7:002b1cvU>E`9JoOV17@HDt,0*2B\r
+!AIVDM,1,1,,B,133gW9g0000CjIpMG2Bh7bW605Ip,0*70\r
+!AIVDM,1,1,,B,33aENrwP00PH?ObN9un05ww822r3,0*00\r
+!AIVDM,1,1,,B,15?9m400002>2>efqhB0lVC808EL,0*56\r
+!AIVDM,1,1,,B,133hGvP0000CjLHMG0u==:W605Ip,0*18\r
+!AIVDM,1,1,,A,13aFgs@P03PGP9VMaKtuT?w825Ip,0*50\r
+!AIVDM,1,1,,B,8@00000Iv?>dq4O694uA0LWe85UKtEHtSmj244rK@@,4*39\r
+!AIVDM,1,1,,B,13aJINPP01PCnV`MFFv9:ww:2D8d,0*69\r
+!AIVDM,1,1,,A,16K2=I0000b0i1VDD9clTku:05Ip,0*0A\r
+!AIVDM,1,1,,A,13m70h8000Pgw0dR0@I8B4U605Ip,0*40\r
+!AIVDM,1,1,,A,16K8Cb0000awjR8DIfBUbVM60@EK,0*28\r
+!AIVDM,1,1,,A,16K2;6O001awBSFDB;`cJae:2HEM,0*52\r
+!AIVDM,1,1,,A,402M?<h000Htt<tSF0l4Q@000T00,0*0E\r
+!AIVDM,2,1,9,A,54eG<3P053tmH?S3K00<51@4Tr0D58j1LTpA<u861q4<<0k@081Sikp2,0*70\r
+!AIVDM,2,2,9,A,Dk0CQ0000000000,2*10\r
+!AIVDM,1,1,,B,13UPFd0021PjJNTPwV6E?TG40UIp,0*2F\r
+!AIVDM,1,1,,A,18J37b002CG;SVTL4A:dFqq80@Dk,0*19\r
+!AIVDM,1,1,,B,15MmgjPP0FG?f<2KI1F;uOw:0HEI,0*27\r
+!AIVDM,1,1,,B,15N3fV0000rn1ihGbo:mAa=80L0:,0*0E\r
+!AIVDM,1,1,,B,13aGE1PP00PDPBFMdQ=segw820S?,0*20\r
+!AIVDM,1,1,,A,18HsTL00017Kga20fAPM>Pk:25Ip,0*4E\r
+!AIVDM,2,1,0,A,569wpJ02=uaP90I:221<PV1`V1aDv2222222221BH@RH84oD0H2CPj3k`888,0*4A\r
+!AIVDM,2,2,0,A,88888888880,2*24\r
+!AIVDM,1,1,,B,13aGDPPP00PD<ehMe1aPJOw82D7v,0*65\r
+!AIVDM,1,1,,B,4h5GdPQuho;NT7KFU`0fSn700HEO,0*2C\r
+!AIVDM,1,1,,B,15N0qU0P1EG4cebLM;OtHOw80D0N,0*3B\r
+!AIVDM,2,1,1,B,56SWs40017F<0000000P4p5C73400000000005l;1@B45400000000000000,0*2D\r
+!AIVDM,2,2,1,B,00000000000,2*26\r
+!AIVDM,1,1,,A,34V>5050010D3i<ME?kAvHS60000,0*1C\r
+!AIVDM,1,1,,A,14eGqlPP00L>h5hK=f5QDgv:0<0A,0*3D\r
+!AIVDM,1,1,,A,14S60D001U0r7LvOn3bejc540D1h,0*29\r
+!AIVDM,1,1,,A,38K1kH5000PDEkhMdO49K`q70000,0*25\r
+!AIVDM,1,1,,B,13P7lnAP0nOdtE4LkPdAFww82HE<,0*0C\r
+!AIVDM,1,1,,A,16:QlB0000`LMWjFBRVH64Q:0@EP,0*7C\r
+!AIVDM,1,1,,A,3815;W5000rkratJPhbm>`Q80000,0*74\r
+!AIVDM,1,1,,A,18155uh1@8oOgClBCt1S=0q60@ET,0*1E\r
+!AIVDM,1,1,,,13aGEdoP0h0JE`dN6cfplww800T0,0*03\r
+!AIVDM,1,1,,B,14SpVV?P000FBujMa`s@0?w408EW,0*6E\r
+!AIVDM,1,1,,B,177AIG0wAhR=p4=fk0Op<6S:08EO,0*40\r
+!AIVDM,1,1,,B,133snFgP00PD7svMEB`r3?w:RD7B,0*24\r
+!AIVDM,1,1,,B,14eU`d0P00L>eWhK=c4@VOw800Ss,0*4B\r
+!AIVDM,1,1,,B,402FhO1uho;NT0eBcDHnH91000Sl,0*49\r
+!AIVDM,1,1,,A,23L?MH001QP>REJMIPA34jI808EW,0*11\r
+!AIVDM,1,1,,A,13aDCGwP00PD@ftMcn0lvww82<3w,0*7C\r
+!AIVDM,1,1,,A,13oC1d000011jhhVP1VGo9ud05Il,0*76\r
+!AIVDM,1,1,,A,13nOdR0P0011a7pVOR17Rgw`08Pc,0*21\r
+!AIVDM,1,1,,B,13aGD:hP1KPI<VHN6tHWnOw82@E`,0*2C\r
+!AIVDM,1,1,,A,18Kiej0uBCc0=EQgNVu76Uo80t01,0*70\r
+!AIVDM,1,1,,B,15DItj0001PBO1JMgE77Eq8j08E`,0*31\r
+!AIVDM,1,1,,B,133jM;gP00PCqPvMEAuauOw:2<8w,0*10\r
+!AIVDM,1,1,,B,B3@nkE008P>PCI`0sD@77wj5kP06,0*6A\r
+!AIVDM,1,1,,A,15Mvr`001Ao?HwjKGJmFPE9:0@EU,0*65\r
+!AIVDM,1,1,,B,15MvaIdP00qT3g8A:Wn;I?w:2<5P,0*66\r
+!AIVDM,1,1,,B,15Mk`tPP00ISG76A8RKr3gw800So,0*7A\r
+!AIVDM,1,1,,B,15NDCn0P00ISpI<A8m5dL?w:0D3V,0*13\r
+!AIVDM,1,1,,A,17cdLN0P1GawV3JD7>J8FVO605Ip,0*60\r
+!AIVDM,1,1,,A,139K8iP02`PTrJHNuJ0;raQ408DU,0*54\r
+!AIVDM,1,1,,A,36K8BQ@P@2awUI>D9miLjnw:20u@,0*5E\r
+!AIVDM,1,1,,,13lcO20001P5C3RMijo8V19:0@EV,0*4F\r
+!AIVDM,1,1,,A,4>pf7j1ufUHtt``QrPEfg1i000S:,0*6E\r
+!AIVDM,1,1,,A,36:A9hUP008VdbRES8=a7P360000,0*26\r
+!AIVDM,1,1,,B,168uS@0P?w<tSF0l4Q@>4?vb1PS:,0*59\r
+!AIVDM,1,1,,A,39NRuo10008d=HPERoF=Nk180000,0*7D\r
+!AIVDM,1,1,,B,177=EV0Ok<`:QlJ<hHMSQ2g:05Ip,0*3F\r
+!AIVDM,1,1,,A,B3uEtdP0;hDeWf8NvwR9Swj5oP06,0*0A\r
+!AIVDM,1,1,,B,13aGuEPP000JL2jNTkQ:G?w:2D6?,0*0F\r
+!AIVDM,1,1,,B,168s64002`0H1h8NWuBjjBC:05Ip,0*09\r
+!AIVDM,1,1,,A,13F;U:300=PKB2:O5OADO3g605Ip,0*48\r
+!AIVDM,1,1,,A,339c;OPOhL0KDpnO6>Q9A87:00Pi,0*70\r
+!AIVDM,1,1,,B,14Vh0p001d0HiKPNa=5RnB?:0@EW,0*3F\r
+!AIVDM,1,1,,B,13qEU:000012kpTNUWb000W800S<,0*2E\r
+!AIVDM,1,1,,B,13bkiF00000D2=@MDd?dCRm80D<P,0*50\r
+!AIVDM,1,1,,A,33aR>V50000Hif4NK;>tJ:C82000,0*46\r
+!AIVDM,1,1,,A,14SMct00009wI4`DAaR``VO60PT?,0*6B\r
+!AIVDM,1,1,,A,A04757QAv0agH2JdH5<P7Oqa20TGw9h570,4*2A\r
+!AIVDM,1,1,,A,23@QU<000@PCRq:MFcFWvnk:00S4,0*72\r
+!AIVDM,1,1,,B,369pWcP00P8K9VLFC?r2tI3:0121,0*41\r
+!AIVDM,1,1,,A,15MqbW0P0mJdsTnGA>q3rOw:00SW,0*7F\r
+!AIVDM,1,1,,B,13n;0D0PB=0J<1`QgtE5?4;608EV,0*21\r
+!AIVDM,1,1,,B,14i5A<02jDOEbkTE0e1<Iaw82@E4,0*03\r
+!AIVDM,1,1,,B,13`emt@P00PCuh0MENooP?w82@Ec,0*27\r
+!AIVDM,1,1,,A,33aGF<@P00PChL@Md@jP0?w8R2eA,0*4A\r
+!AIVDM,2,1,6,A,5E@09`01mU;hPwC?GB104pu8lU@U>2222222220l2HT834M@0<42DPAE,0*0C\r
+!AIVDM,2,2,6,A,Ds1lQA@iH888880,2*01\r
+!AIVDM,1,1,,B,13bjGP000@0G:`LNPGE:``580<4W,0*6D\r
+!AIVDM,1,1,,B,13P<Fc@P@0P89iPN7t0WG0C:0<0I,0*77\r
+!AIVDM,1,1,,A,13aDqT0P1;PDP?`MdiGAsOw8R0S1,0*60\r
+!AIVDM,1,1,,B,133t0qPP000DelDMD6nP0?w608Ed,0*7E\r
+!AIVDM,1,1,,A,13aGrthP1;PDTVhMe>gq8wvt25Ip,0*3B\r
+!AIVDM,1,1,,A,13`fLEOP00PBb@bMfWCMQ?w00D2v,0*0D\r
+!AIVDM,1,1,,B,33@oM?wP@1OgVh<NtDWR28=:00qA,0*42\r
+!AIVDM,1,1,,B,137Vb80320PC730NEu:8jW=80D2e,0*5D\r
+!AIVDM,1,1,,B,13bQEb0001wGNe`F2<4LO9W:00SE,0*74\r
+!AIVDM,1,1,,B,18159T001hwAhsNErMTG1EW:08EU,0*17\r
+!AIVDM,1,1,,A,18KoA@002POBT?FEkEUFRU?:0<1Q,0*5E\r
+!AIVDM,1,1,,B,133gBLPP00PD>j:MDG`h0?w:2D57,0*77\r
+!AIVDM,1,1,,A,33ALbL0P@nPqi@<P3vJJnHI800q1,0*7D\r
+!AIVDM,1,1,,A,13aJGvPP00PDTjDMe3o@E?w:2@Ee,0*01\r
+!AIVDM,1,1,,A,13aGt=OP00PDQJfMe>f00?w:20Ru,0*1A\r
+!AIVDM,1,1,,A,139f<20P00PCgUBMG<fQI?w:RD3;,0*52\r
+!AIVDM,1,1,,B,1815:bh000o=T>bL<wLA?:360@EF,0*0B\r
+!AIVDM,1,1,,B,14eGc0h000o=4KtL=5ARiW;805Ip,0*06\r
+!AIVDM,1,1,,A,16K8Dkg000awMehDChEjk:c600Rr6CGvah,0*55\r
+!AIVDM,1,1,,A,333fgcUP1WPGd8TMaVWs<gw:R?OS,0*32\r
+!AIVDM,1,1,,B,13cSuf002P0fGU0Hf@JPPPK60@Ee,0*4B\r
+!AIVDM,1,1,,B,19NS90002LP8@ihMEJlp;nQ<2@Eg,0*58\r
+!AIVDM,1,1,,A,33u7If50000D:m@Md15ruUM80000,0*27\r
+!AIVDM,1,1,,B,169a4p001f`fWapA7UrDOD180@E;,0*30\r
+!AIVDM,1,1,,B,10000NwP0189GmD<nR6@0?w800SK,0*3D\r
+!AIVDM,1,1,,B,169Ckv`0008fgnrA:TaKL5Q82@EA,0*53\r
+!AIVDM,1,1,,A,B=JDae00ER7?KA3Oe9<OOwiSQP06,0*10\r
+!AIVDM,1,1,,A,133okGPP000CarTMH7F=Oww:0PS<,0*53\r
+!AIVDM,1,1,,A,169GSFPP1588Vq0<iA`@DAg605Ip,0*05\r
+!AIVDM,1,1,,A,13aFgn@P00PGP;fMaKkh0?w:R0S5,0*22\r
+!AIVDM,1,1,,A,177?Sj0000`7mOJ<dmkpNaE80<3H,0*25\r
+!AIVDM,1,1,,A,176u<j0000`7mjL<dq;P0IE9p<1H,0*5B\r
+!AIVDM,1,1,,A,16:QunPP00`M17f>2P:00?w82@ED,0*79\r
+!AIVDM,1,1,,A,16:=?;0P00`SstvFnFbeGH7405Ip,0*59\r
+!AIVDM,1,1,,B,169FlQ00008:wj4<rR5ad4?805Ip,0*68\r
+!AIVDM,1,1,,A,;03t=31uho;NS`e;KLBDS0o00000,0*02\r
+!AIVDM,1,1,,B,83`j4pPj2d<dL<fLLQ;0u@J07=L0,0*21\r
+!AIVDM,1,1,,A,16:>G=00028clt<B0bKjs@S:05Ip,0*75\r
+!AIVDM,1,1,,A,169I;n0P@38hmwDApa9R3rS800SA,0*1A\r
+!AIVDM,1,1,,B,33:1wR002;Pr4u>OhcJ7iVA803LA,0*2E\r
+!AIVDM,1,1,,A,169a:nP01f`hm74B7<m0@0380D80,0*6F\r
+!AIVDM,1,1,,A,169r?PPP008d:rHAu1u0qOw80<7E,0*16\r
+!AIVDM,1,1,,B,B69GRM00021me?3CJDvsowiWQP06,0*6E\r
+!AIVDM,1,1,,B,169<l=80008Jpe<FCdA5PhW:0D5`,0*44\r
+!AIVDM,1,1,,,13t`>2@0000I`A0N8K2rM`I:0<2S,0*2B\r
+!AIVDM,1,1,,A,13cVaV022G10TDLGFFSP0054H8DndIWv22,0*1F\r
+!AIVDM,1,1,,A,15N0;LPP00IRcE:A96@:Qgw808EM,0*61\r
+!AIVDM,1,1,,A,15Mv7TP000qT35fA85H=o`Q400Rs,0*2D\r
+!AIVDM,1,1,,B,15N5T10P00ISqcdA8hWc<ww:2<4h,0*42\r
+!AIVDM,1,1,,B,15N2NL0P01IRwd:A8AMF@?w80@EP,0*6A\r
+!AIVDM,1,1,,,13aGti001MPIf3PN=OvAJA78RHEb,0*0C\r
+!AIVDM,1,1,,A,15NJrMWP00ISo5TA2s2P0?w608ER,0*39\r
+!AIVDM,1,1,,B,15Mw=;gP00qSvunA8I7JNgw:08ES,0*52\r
+!AIVDM,1,1,,A,15N8?9`P00IRrc0A9>md7?w80HET,0*39\r
+!AIVDM,2,1,5,B,55NLp0P00001L@KKCS0`DppTHE:222222222220l0@@1753lN7ScSsR0@Sl`,0*7D\r
+!AIVDM,2,2,5,B,88888888880,2*22\r
+!AIVDM,1,1,,B,15N:>1P000qSufvA8OLMRIc:0HEW,0*62\r
+!AIVDM,1,1,,A,15MTbUPP01ISbCHA7e4bS?w:0<00,0*16\r
+!AIVDM,1,1,,B,15MvnVgP00ISShfA7LEJiOw:2HEb,0*51\r
+!AIVDM,1,1,,B,15N:AnPP00ISeCvA2UUJwww:28Ec,0*68\r
+!AIVDM,1,1,,A,16KVnDh02wawa3pDA6@`c6s488E28lovah,0*0D\r
+!AIVDM,1,1,,B,14nF?V001C11TMfNjr1ESTM608EL,0*33\r
+!AIVDM,1,1,,A,15N4cJ`000Jrjb@H@0=8vBm60<0C,0*7C\r
+!AIVDM,1,1,,A,13cleV003F0`J9LIB8lQT1A405Ip,0*20\r
+!AIVDM,1,1,,B,233RaP3PAT0>Um`MHvK<P9M608Ei,0*66\r
+!AIVDM,1,1,,A,13M@G0hP0?08Ai8NEoFhH?w60<0c,0*52\r
+!AIVDM,1,1,,A,36K2;5gPAKawHQBDBCWd`r3:20m@,0*66\r
+!AIVDM,1,1,,A,13P7U>002EPV:GJNq9<SoC580D1M,0*2E\r
+!AIVDM,1,1,,A,13aI:5GPAf<tSF0l4Q@008kv0t7w,0*36\r
+!AIVDM,1,1,,A,15N705PP00G?iH0K@Fb9kgw:2HEg,0*38\r
+!AIVDM,1,1,,A,13@ng3@0000qn`lOnt`003C<0@Ek,0*2A\r
+!AIVDM,1,1,,B,34VFDF50000D0e`MErE6wRm80000,0*0D\r
+!AIVDM,1,1,,A,18JnPf001fPmTh6Q:A8QMA7<0<0l,0*49\r
+!AIVDM,1,1,,B,13M0i`00010mN6BPuK::1DS:00RO,0*5A\r
+!AIVDM,1,1,,A,13uDWsg000PmrU<PtKrr4pU:0D1g,0*26\r
+!AIVDM,1,1,,B,13u?qPP0000n:@<Q0cHMpRu<05Ip,0*64\r
+!AIVDM,1,1,,A,13uA;v?P0s0ndJlQ19UC8?w608E7,0*1E\r
+!AIVDM,1,1,,A,16SWWs?P1ca3Er6EJ:ea2gw828Ec,0*68\r
+!AIVDM,1,1,,A,139L=@5OiFPVq>BNc2FEMTE608Dj,0*22\r
+!AIVDM,1,1,,,33P<f4CP@AP8;H0MjCjWnj7:01qP,0*10\r
+!AIVDM,1,1,,B,368sVcPOh48K9;6FD6Q=JoQ:00s0,0*0F\r
+!AIVDM,1,1,,B,33MFDR0OiGOj=kHNTu?93WE60000,0*2C\r
+!AIVDM,1,1,,B,15BBLr3P000CA`DMeRo7tww:28Ek,0*22\r
+!AIVDM,1,1,,A,17bHpl001Nb0:OFDCKW`mWs:00S;,0*68\r
+!AIVDM,1,1,,A,13APh:00000hM1`Q1Vo<`Ac:0D1V,0*2D\r
+!AIVDM,1,1,,A,168swE0P008ViGBDaUajROw:0<0e,0*48\r
+!AIVDM,1,1,,B,15MvFn001@rlsGfGGBIqh7q80<03,0*6C\r
+!AIVDM,1,1,,B,18I>or001IJqFhVGTfJ>1s9:0D0:,0*43\r
+!AIVDM,1,1,,A,601uEODhrspR04<100,4*6C\r
+!AIVDM,1,1,,B,13aGsd?P1<PESGnMdPv3LOw:R5Ip,0*37\r
+!AIVDM,1,1,,B,13cUpi0pQK0g6t@HrU80t0U80`Ej,0*36\r
+!AIVDM,1,1,,A,3341N:001G0Chj6MF>c5lle<213i,0*05\r
+!AIVDM,1,1,,A,13aDC:PP000Ce4HMd:w@0?w805Ip,0*4A\r
+!AIVDM,1,1,,B,139K`H501A0ar7jNmBu46S9405Ip,0*02\r
+!AIVDM,1,1,,B,139KSd0P00PaqbNNmdj1P?w6R@E5,0*3E\r
+!AIVDM,2,1,9,B,54RlS802<llQK89OJ20P4q<D5@T>1A84@E:22216:88764p00>lkk5QDhSlQ,0*66\r
+!AIVDM,2,2,9,B,p8888888880,2*66\r
+!AIVDM,1,1,,A,14QwWb00020aoQ4NmcbPk1O608E@,0*35\r
+!AIVDM,1,1,,A,139aUg?P000b9LHNo1ch0?w60<1m,0*4B\r
+!AIVDM,1,1,,B,139L>nPP?w0ao`jNmc5f4?w:0HER,0*44\r
+!AIVDM,1,1,,A,139KugP000PansTNmajh0A9:08Ea,0*42\r
+!AIVDM,1,1,,B,14S?:@001J0b<l2NoBbpLne:0L2i,0*56\r
+!AIVDM,1,1,,A,14SJ=B000L0apDtNmW@1UiA:0<2m,0*39\r
+!AIVDM,1,1,,A,139IHUPP0U0apPvNmaI`Www6P5Ip,0*7D\r
+!AIVDM,1,1,,A,168wMm000093`T`EL10HeCi:00SS,0*25\r
+!AIVDM,1,1,,A,14QIG<52j1KF@5H:L7`967960P00,0*5A\r
+!AIVDM,1,1,,A,833gVhPj2d=eL<vNM0NhJgbU2Q00,0*19\r
+!AIVDM,1,1,,B,14`Wco0000PBu36Mfoo<eA7<0@Em,0*19\r
+!AIVDM,1,1,,A,13M@GB@4EJOqkK4M6Hl<0qe:0<1l,0*51\r
+!AIVDM,1,1,,A,13aGCo<P00PDH`tMcqW=8Ow82<;K,0*79\r
+!AIVDM,1,1,,B,10:V:iwP01NqJgP@6i=MwOw808El,0*46\r
+!AIVDM,1,1,,A,16:9tj8P008K2DRFCMM2ogw60<4a,0*24\r
+!AIVDM,1,1,,B,17PD?00000:lLHEjG87WEa3808Eh,0*50\r
+!AIVDM,1,1,,A,8@00000Iv?O>Bt=Ki>bRE3=GPCGb1QLffSdR<Eh2GP,4*7B\r
+!AIVDM,1,1,,B,13@nhr@000PqbKrOp22aeBU<05Ip,0*35\r
+!AIVDM,1,1,,A,23P:lP?Oh@PCS7`MFe5p2nep0`En,0*27\r
+!AIVDM,1,1,,B,233vr3gP1fPCjb8MEvaP@Ow:R5Ip,0*30\r
+!AIVDM,1,1,,B,139h470P00PDEURMdfm:eww82<3w,0*4C\r
+!AIVDM,1,1,,A,39NS;65000wGEOHEeeu1mUS80000,0*19\r
+!AIVDM,1,1,,B,13sM9p0P00OGOD8Ee?8P0?w808El,0*1D\r
+!AIVDM,1,1,,A,169vkRPP008VFCRDWms@0?w800S`,0*50\r
+!AIVDM,1,1,,A,13uF31P001PmvarPtB6uca980@Eg,0*58\r
+!AIVDM,1,1,,B,13AgAn00000Ve9<IDp@6@;7805Ip,0*6B\r
+!AIVDM,1,1,,B,168sVwPP008K2ppFCNkeuOw;rHEh,0*2D\r
+!AIVDM,1,1,,A,15QChF0026PuTMdOTrt3Q2q<08Eo,0*60\r
+!AIVDM,1,1,,B,17u>=L001KR><8ifhU3WiVG608Eh,0*36\r
+!AIVDM,1,1,,B,13aGFJwP1CPFls2MafMkc?w828Eo,0*3C\r
+!AIVDM,1,1,,B,13aDp=hP00PD0fnME2Qjdww82<3w,0*4C\r
+!AIVDM,1,1,,B,19NS:@002aa3FGDEIiqQ=Q160D;v,0*19\r
+!AIVDM,1,1,,A,16KPe6001kacUGvCkcO9;GC<00RT,0*6D\r
+!AIVDM,1,1,,A,13`ekbhP000Cb@LMd6P@0?w800Rj,0*7A\r
+!AIVDM,1,1,,B,13P<i1h02nwhKirN`q3bs8g60@Eo,0*16\r
+!AIVDM,1,1,,A,23NCqt501P0>VI4MI2QdE:1:28Eo,0*39\r
+!AIVDM,1,1,,A,133u<f?P1a0CTjDMGao0;ww<00RV,0*39\r
+!AIVDM,1,1,,A,16K2;U@025abMb>CjIL2LAc:20Ru,0*3C\r
+!AIVDM,1,1,,A,18KBB4001PreikhFcR37<5c80@En,0*36\r
+!AIVDM,1,1,,B,14RUmf0Oj?0r7WNOrCbWaF7:2<2@,0*77\r
+!AIVDM,1,1,,A,15MlIMPP00JeHe6GD5dL?Ow<2000,0*14\r
+!AIVDM,1,1,,A,177h?U002=`ctl`CrjDkik5600SM,0*0A\r
+!AIVDM,1,1,,B,169EIq00038:QKD<hdjnuje82D7C,0*4D\r
+!AIVDM,1,1,,A,16:BNQPP0@`VTi4ERAc=cgw80<1=,0*4A\r
+!AIVDM,1,1,,A,15?Pb000018gEnPEKSC1GP760@EG,0*71\r
+!AIVDM,1,1,,B,14avgF001O`cj?rEP;ebVpS80@EQ,0*4C\r
+!AIVDM,1,1,,A,169piJ?Oh08ccf:EOTP;aDk:20S`,0*77\r
+!AIVDM,1,1,,A,16K2>5@000b1IJNDGUHtGT?:0D3:,0*3C\r
+!AIVDM,1,1,,A,35N:up5P00G?k2JKABb:U?w:0000,0*68\r
+!AIVDM,1,1,,A,16KJcuP000b08VnDDTgodTE:08ET,0*0E\r
+!AIVDM,1,1,,B,15Ms5N0P01ISlM4A905WnOw408E:,0*35\r
+!AIVDM,2,1,6,A,55NNskT00001L@KWOCPLuHE8pu:0lTdF0QD<d48O0PF8140Ht6h000000000,0*7C\r
+!AIVDM,2,2,6,A,00000000000,2*22\r
+!AIVDM,1,1,,A,15N03:PP00IRQFfA8EJ=@gw<0@El,0*41\r
+!AIVDM,1,1,,A,14hW;J002m02r5HLwtN9i7m805Ip,0*30\r
+!AIVDM,1,1,,B,33ctMd501r0gv>4HRuwai2G800tQ,0*0E\r
+!AIVDM,1,1,,A,16K2<4P008awMULDCJcjWAU80HE`,0*18\r
+!AIVDM,1,1,,A,33`el0@P00PCiE@MG;a@Q?w:R333,0*42\r
+!AIVDM,1,1,,A,16K2;>@000awi?tDIG1RCjm:25Ip,0*70\r
+!AIVDM,1,1,,A,36K2;iP01IawLo@DC5laqWo<20p1,0*6C\r
+!AIVDM,1,1,,B,16:D=CPP01WkUtf;BL=f4?w80<3d,0*29\r
+!AIVDM,1,1,,B,15?92B1P?w<tSF0l4Q@>4?wv0PS=,0*60\r
+!AIVDM,1,1,,B,13bkaR002rOh5=0N`wlrhHa605Ip,0*4E\r
+!AIVDM,1,1,,B,16::12PP?w<tSF0l4Q@>4?wv0`Ek,0*07\r
+!AIVDM,1,1,,,13aI8uhP000JC2rN61a00?w:05Ip,0*27\r
+!AIVDM,1,1,,B,18J2dD000L1cQuDEbkt4n3N005Ip,0*29\r
+!AIVDM,1,1,,A,14bGa6001H0JI;TQeA=WJn500<0e,0*13\r
+!AIVDM,1,1,,B,13m>oO00000Hv2lQnqupmQi<0<26,0*2E\r
+!AIVDM,1,1,,B,13aEPJhP0GPGI?TMhpFGr?w:2<36,0*3C\r
+!AIVDM,1,1,,B,24S8Dh5000PCSfBMH=jV=Tw80<6S,0*4E\r
+!AIVDM,1,1,,,33b`7@3P@GP8<k0MjKM48ii800wA,0*5A\r
+!AIVDM,1,1,,B,133pjaPP00PCQgBMFJLsk?w82<8j,0*31\r
+!AIVDM,1,1,,A,13nG=T000011oIDVPIiWQnGp0PSA,0*0D\r
+!AIVDM,1,1,,A,83`elf@j2d<dtN<MLj9Po?bi6TP0,0*5B\r
+!AIVDM,1,1,,A,13aEP8JP1APKaW:MEuTpR?w82@Er,0*2B\r
+!AIVDM,1,1,,A,13chjl?P170f3bjHtr=FrOw:05Ip,0*54\r
+!AIVDM,1,1,,B,13aGCTPP100D8NRMD6coNww4P@Es,0*28\r
+!AIVDM,1,1,,A,14`ak10001OvhUbNh7v:<SG808Ek,0*74\r
+!AIVDM,1,1,,A,13M@IVPP@0wvk6LNh8vdgHw<0<18,0*3B\r
+!AIVDM,1,1,,A,19NSA9hw1rP3o:vM2lMID7M:08Eh,0*61\r
+!AIVDM,1,1,,A,15N8bOPP0<rndb8GP=H6=gw80D0:,0*68\r
+!AIVDM,1,1,,A,13M@Db0P?w<tSF0l4Q@>4?wv0PR>,0*3B\r
+!AIVDM,1,1,,B,13m:OJ?P000K`60O<9o4Dww:2L2<,0*18\r
+!AIVDM,1,1,,B,13Ap4F001?0HW70O3??pAVO<00S9,0*40\r
+!AIVDM,1,1,,A,16KDT2@03;ac70lCkB5:D8C:05Ip,0*05\r
+!AIVDM,1,1,,A,13aDob0P1HPGHKLMajjKuOvp2HEt,0*5D\r
+!AIVDM,1,1,,A,15MusK0P0PIvOU`F=4uU:Ow:00SU,0*36\r
+!AIVDM,1,1,,A,13aDCD@P0iPCRlhMdf`TmOw:2D7w,0*28\r
+!AIVDM,1,1,,B,13P7c9PP000qgovP49BJiOw:25Ip,0*25\r
+!AIVDM,1,1,,A,13u=tD4001Pr564P4JlB2oq800SV,0*5D\r
+!AIVDM,1,1,,B,13P8Jah000wiI6fQbRtbjpM<0D0D,0*27\r
+!AIVDM,1,1,,A,13R3hf0P1U1dC`<EVTS5vOw80`Eu,0*32\r
+!AIVDM,1,1,,A,233WuF001NPCia0MEsc`2VO:0<7E,0*33\r
+!AIVDM,1,1,,A,13`e<U0P1>PGderMVp03Www:28Eu,0*7C\r
+!AIVDM,1,1,,A,14Vu@R002UwdR2hDb<vSPji608EE,0*3C\r
+!AIVDM,1,1,,A,1819<bP000KFbt`:OHIWWSu<0HEq,0*40\r
+!AIVDM,1,1,,A,15Mj26?000o?<bhK?w4JQpg<0@Er,0*28\r
+!AIVDM,1,1,,A,13ddOr0000PW@N6N`6@eTc?405Ip,0*1B\r
+!AIVDM,1,1,,B,15?meb001l8W3ohDW3R;18s<0<5v,0*32\r
+!AIVDM,1,1,,B,13aBL@5P?w<tSF0l4Q@>4?wp0W3h,0*0F\r
+!AIVDM,1,1,,A,13AC<v?01K0r414OoKvnrUW:08Ev,0*68\r
+!AIVDM,1,1,,A,15MwDwPP5dJe6aDG@k:HH?w<2L2k,0*43\r
+!AIVDM,1,1,,A,15NHN6?000qs:mhF;nOclpI80@Ek,0*62\r
+!AIVDM,1,1,,B,14eGo=PPA4G;fw@L;`Slsl3:0L2d,0*1C\r
+!AIVDM,1,1,,B,14eG<A@P13G:D<`L44f=nOw:0HEO,0*01\r
+!AIVDM,2,1,0,B,54eH0=P000000000000mJ1<D60Tm20UR2222220O000004o7094i@j1C5888,0*11\r
+!AIVDM,2,2,0,B,88888888881,2*26\r
+!AIVDM,1,1,,A,14eGmkgPCpG;f6tL6kL9@7G:0<2q,0*7A\r
+!AIVDM,1,1,,B,14eGTqPP@bG;pfBL7?IS`Pi:0@ET,0*71\r
+!AIVDM,2,1,1,B,54eGMFh29t7<0000000>pRr0<5@E>0TTV222220l189444000:5PCPkmEQD`,0*39\r
+!AIVDM,2,2,1,B,24Pc`888881,2*4A\r
+!AIVDM,1,1,,B,13`fef?000PHAkfNQm4@08182<0M,0*0D\r
+!AIVDM,1,1,,A,33`gl2001MPGvlBNPfatE9w6012@,0*6F\r
+!AIVDM,2,1,1,A,53J76l0000022220000I:1L59<PU0000000000000000052`00<0000000000000,0*65\r
+!AIVDM,2,2,1,A,0000003,2*26\r
+!AIVDM,1,1,,A,1398D8001iNsrS<4oG;cwac00<1c,0*7E\r
+!AIVDM,1,1,,A,13P:mT@022NuFgh4?2GcT9A:05Ip,0*42\r
+!AIVDM,1,1,,B,133dgtgP00PCri6MEqQC7ww82D4n,0*22\r
+!AIVDM,1,1,,A,13aBMEhP000Hp6`NKR3r=ww<20Sq,0*5E\r
+!AIVDM,1,1,,A,13U0O`?P011cmi:EcQW:Pgw<08Et,0*33\r
+!AIVDM,1,1,,A,13HOIFPP0000W>>LCn180Ow80L1=,0*53\r
+!AIVDM,1,1,,A,13450f300?014@4LB28u3rk:0D10,0*2A\r
+!AIVDM,1,1,,B,13llU400000CmE4MEnELHas60HEw,0*60\r
+!AIVDM,1,1,,B,13aGEVhP00PNwPLMqM9t?ww:2L0>,0*16\r
+!AIVDM,1,1,,A,16KJVgh01cawhPVD?CK@k@e80<2B,0*5A\r
+!AIVDM,1,1,,B,13R`M:00001d<DTEeRFWnVo405Ip,0*27\r
+!AIVDM,1,1,,A,33tssF0v0gPn=TbQ0KjRpR;:20ti,0*1E\r
+!AIVDM,1,1,,A,13sO4s?P1JOF8LTF90w@8gw60@E:,0*0B\r
+!AIVDM,1,1,,A,33ru:48v0LOE9v0F3LoFC51800tP,0*23\r
+!AIVDM,1,1,,A,16K2>t0012awRDDDAbpdb:5>0D55,0*01\r
+!AIVDM,1,1,,A,1>qc9ww000OkfS@MMI5004S80H00,0*38\r
+!AIVDM,1,1,,A,16K8Ath000awjIHDIceaTVI80D2p,0*6D\r
+!AIVDM,1,1,,B,35EH5F01AI0=N4PMh2SRHQq60000,0*3B\r
+!AIVDM,1,1,,B,15N5>>0000ISKMrF<<77CV7800Sd,0*5F\r
+!AIVDM,1,1,,A,169A=1P00@8Se8fFmpkte:c82<2g,0*0E\r
+!AIVDM,1,1,,A,133hE`g0000CT;BMEC5S32U:0HF0,0*1E\r
+!AIVDM,1,1,,A,14eGnq7000G1C9FL0GViI4G:0D05,0*26\r
+!AIVDM,1,1,,A,33aBNP?P00PCV9>Mdee@0?w:2C7k,0*30\r
+!AIVDM,1,1,,A,16SWR4000>a3V?:EK@q41Rc:0@Em,0*25\r
+!AIVDM,1,1,,A,36:BG1Q000`SNKbFjTe9U6=:0DnJ,0*08\r
+!AIVDM,1,1,,B,16:V4SQP1>86cvV=>CRIvOw80<0S,0*28\r
+!AIVDM,1,1,,B,B6:f`c@0FB1ht13Bn5DlwwiSQP06,0*59\r
+!AIVDM,1,1,,B,14SVqj001t1Qit@R61oK5I122<0?,0*49\r
+!AIVDM,1,1,,B,33RQWb3P@31cwi8EdlOeoP=809QA,0*33\r
+!AIVDM,1,1,,B,168uq:P00087BE`==hD@08I825Ip,0*07\r
+!AIVDM,1,1,,B,369I4sP01F86LDp<P=L2q27801v0,0*52\r
+!AIVDM,1,1,,B,B69CS<h00:;tb04B7gH4cwj2P@Fp,0*3B\r
+!AIVDM,1,1,,A,B69ERu00HB76I?3Ow;MvSwiW1P06,0*02\r
+!AIVDM,1,1,,A,36:Aqd0`Qb88pwh<jI:nGE?9jPv1,0*73\r
+!AIVDM,1,1,,A,16:BP80000`eqT@A891Mo3A:2@EW,0*2A\r
+!AIVDM,1,1,,B,16:fO;OP01`6FCv<Qgv00?w800Rr,0*1D\r
+!AIVDM,1,1,,A,36:I6j0P00898r0<gu?Qi?w820T0,0*28\r
+!AIVDM,1,1,,A,169AVEgP008RjPjCpQUMBww80<1e,0*1F\r
+!AIVDM,1,1,,B,16:CW1`P1F7pk7d;MIo:pgvh00Sh,0*5D\r
+!AIVDM,1,1,,B,168v9agP01WpkGj;MLHS1Ovn2<1I,0*52\r
+!AIVDM,1,1,,B,169JIl?P007pgqH;MuOP0?vp0<0c,0*48\r
+!AIVDM,1,1,,B,16:F?dPP1:WpDR@;Qdk3Gwvp0d1R,0*28\r
+!AIVDM,1,1,,B,16:GH`0000WphJN;M`rLO2Rp0H@t,0*07\r
+!AIVDM,1,1,,B,16:KN200018FEvn=G2a``H1828ER,0*78\r
+!AIVDM,1,1,,A,169Ebu`P008RnFN>odC00?w825Ip,0*4E\r
+!AIVDM,1,1,,B,13aI;BPP00PD2;LME2Cc`Ow:2<62,0*55\r
+!AIVDM,1,1,,B,133mODPP0w0G5Q@MaUsCaww<R8F1,0*6F\r
+!AIVDM,1,1,,A,13aGDmPP00PCWr:MHr1RGwv:R0SK,0*35\r
+!AIVDM,1,1,,A,13aDr`0P00PCtGhMd;EBgww:R5Ip,0*2D\r
+!AIVDM,1,1,,A,33mteo50000J@JFQgcAmjQg:0000,0*19\r
+!AIVDM,1,1,,A,13o=BP00000J>0dQh528L0mR0HLd,0*61\r
+!AIVDM,1,1,,A,133pc>PP00PCl<2MEC:Iugw<R8F2,0*34\r
+!AIVDM,1,1,,A,133fNpPP00P>hC`MCnjG@ww:2HF2,0*53\r
+!AIVDM,1,1,,A,33P;M1qOh1P7dDvMK<wcu1i<0000,0*58\r
+!AIVDM,1,1,,A,13HWr??P000@s66HmIFaT?w:00S=,0*19\r
+!AIVDM,1,1,,A,13HO5<PP050A9>dHn0V1bww80<0J,0*60\r
+!AIVDM,1,1,,A,15RU7H00?w<tSF0l4Q@>449v0d0L,0*6F\r
+!AIVDM,1,1,,A,139bF8P000PD>QrMe5R000q:05Ip,0*60\r
+!AIVDM,1,1,,B,369pWf0P@K8K9e`FCCv;VqO<00mA,0*0F\r
+!AIVDM,1,1,,B,14SBpR0000PHLWRHkFE;oaW<2HEq,0*72\r
+!AIVDM,1,1,,A,14eG;o@000o<F82L2aCriiU:0D2M,0*70\r
+!AIVDM,1,1,,B,13aENUhP00PCS2fMEBGd<gwDPpF3,0*60\r
+!AIVDM,1,1,,A,14eGr60001t>hOdK>0V@T7E:0HF2,0*0E\r
+!AIVDM,1,1,,A,340UuD0P00PDhVvMdii;Gww;23M1,0*5A\r
+!AIVDM,1,1,,A,13aC4gOP0M0`07vLc;>qlww8P8F4,0*03\r
+!AIVDM,1,1,,B,B3uF560000>jFjWtql`03wjUkP06,0*34\r
+!AIVDM,1,1,,B,13P:o>@000OnJcrPdgQ:C8>H0t0V,0*01\r
+!AIVDM,1,1,,A,13aGEOhP0v0KOm4MDRSWI?wBQd0C,0*41\r
+!AIVDM,1,1,,B,13aJG5h01APHNQ>MfiSt0IW:R<0U,0*15\r
+!AIVDM,1,1,,B,13aC2H0P1W0Cf9bMDw?:sww805Ip,0*3B\r
+!AIVDM,2,1,5,B,56::12P2BkEd8HDV220lDpN0p60LtpN1`QF222161BSD<8n>N<TA88888888,0*59\r
+!AIVDM,2,2,5,B,88888888880,2*22\r
+!AIVDM,1,1,,A,33aEPW9P00PJnc<MAwKTjww0R4OA,0*11\r
+!AIVDM,1,1,,A,15N3cb`P00G?j0>KAG:0bgw<05Ip,0*47\r
+!AIVDM,1,1,,A,15NEO?002IJeMqfGDg7`JFg:2D1E,0*37\r
+!AIVDM,1,1,,A,63P:`:<0SJPB>P7MuOt6eHIBo0,4*05\r
+!AIVDM,1,1,,B,15NDvl0P00ISd<6A3ltsCww<25Ip,0*7D\r
+!AIVDM,1,1,,A,15MwjVP001ITJ>t@tj1Ln9M:0<5f,0*04\r
+!AIVDM,1,1,,A,15MwP=0000ISS66A7=r:57k80@Es,0*28\r
+!AIVDM,1,1,,B,19NP010ujD2>cu3fmdFh0c?60<0p,0*27\r
+!AIVDM,1,1,,B,13Fted0P1iODHgHE4MT6Qgw60d2D,0*4B\r
+!AIVDM,1,1,,A,101lBLcP007K:T<0f`qh0?w:25Ip,0*3A\r
+!AIVDM,1,1,,2,133fKGPP000AJNRMD>nb;Ow<0<4S,0*46\r
+!AIVDM,1,1,,B,1696pr0000`K<ahFCEuWWVo<05Ip,0*3D\r
+!AIVDM,1,1,,A,13IbV=?00O03KHhM03BB7QM20HEq,0*67\r
+!AIVDM,1,1,,A,13HWWp0P0LP2oefLw<gsJ?w:25Ip,0*1B\r
+!AIVDM,1,1,,A,18159Uh01vNruOt493=<b:5:0<0?,0*41\r
+!AIVDM,1,1,,A,13J76l?P00O1=RL5LU>n@ww20@En,0*64\r
+!AIVDM,1,1,,A,13uCRr0P000mwshPuU69QOw:20RC,0*5C\r
+!AIVDM,1,1,,B,13ln>R00000mRKhQ<K;0?83800Rw,0*61\r
+!AIVDM,1,1,,B,13aDom@P0ePHGL8Mg5G4aOw:R5Ip,0*3F\r
+!AIVDM,1,1,,A,A04757QAv0agH2JdH5h`6OlM44h6wL0BIA3v;0tA,0*1B\r
+!AIVDM,1,1,,,33m=jF0P@<0qegdUv;T5>Js:00th,0*78\r
+!AIVDM,1,1,,A,839bF8Pj2d<dtt>==R9Pq@O55E00,0*02\r
+!AIVDM,1,1,,A,13u>=>gP001BgTpQtd<VPgw60D0e,0*17\r
+!AIVDM,1,1,,B,13cmWJ00360fiNbHm5o64Do<0D1M,0*40\r
+!AIVDM,1,1,,B,14aW;R0P1?OiALVNoH71hOw:08F6,0*11\r
+!AIVDM,2,1,2,A,A02V?Hib3Qba00@1GvEh3OnDw@@Nw5l37iOuNwpL5?lQ02<4w@0><@ct:?Mf,0*20\r
+!AIVDM,2,2,2,A,4?ho1147w8CnCP00,0*6A\r
+!AIVDM,1,1,,A,10C3ko?P00PCMhLME>@P0?w:RHF7,0*49\r
+!AIVDM,1,1,,A,13aAHN00000Bth`MfqCB2QE<08F7,0*34\r
+!AIVDM,1,1,,A,133m04PP00P>hm:MD6u5>?w:25Ip,0*22\r
+!AIVDM,1,1,,B,13pr;hPP001EIPpO7<Pr1ww<0@F7,0*01\r
+!AIVDM,1,1,,B,1CTLvv?0001c`J6Ehs:USmi80000,0*50\r
+!AIVDM,1,1,,B,139WHk00230@TS:Mtka070;605Ip,0*13\r
+!AIVDM,1,1,,A,339pR401@s0VpVLNc:Q=5Tu601o@,0*40\r
+!AIVDM,1,1,,A,168tgR@P?w<tSF0l4Q@>4?v01d2D,0*74\r
+!AIVDM,1,1,,A,13:REn0025OcnT`Np=c:aHI:05Ip,0*2A\r
+!AIVDM,2,1,5,A,577Nt:026I9=I9UWB20m<>04hLE8TF2222222216?`F4B4oT0BPC1iD`88888888,0*34\r
+!AIVDM,2,2,5,A,8888880,2*21\r
+!AIVDM,1,1,,A,4028is1uho;N9OvObpFTNFW000S:,0*4D\r
+!AIVDM,1,1,,A,D028rq@V8f00000000000000000,2*21\r
+!AIVDM,1,1,,A,E0000E@cFtJP000000000000000?iBjQ:QB2H00003RP10,4*55\r
+!AIVDM,1,1,,A,E000`D2S0a7h22h1bV62a0P0000OwP=h;=Q`@1088;jP2P0,2*6A\r
+!AIVDM,1,1,,A,4028rqAuho;N:<tSF0l4Q@7000S:,0*1D\r
+!AIVDM,1,1,,A,D028rqP7mNfp000000000000000,2*3B\r
+!AIVDM,1,1,,B,168viaPP008JieTFD?PdJww:00Rw,0*12\r
+!AIVDM,1,1,,A,33ktwLQ000OQKM@E4B`8B4Fn0000,0*0E\r
+!AIVDM,1,1,,B,33`hbf50000CuC<MEPOGJqU:0000,0*51\r
+!AIVDM,1,1,,A,13mA1H000BOrihFRJt21J5?:0<0E,0*15\r
+!AIVDM,1,1,,B,15NF2N0000rrm`bH?Fr000380@FE,0*31\r
+!AIVDM,1,1,,A,381:JFU0001d0tlEf0l3Sbm68000,0*1C\r
+!AIVDM,1,1,,A,13aDoCoP00PCjVNMdVdh9?w:28F9,0*3E\r
+!AIVDM,1,1,,A,33u=dR0PAJPnQD4Q0mp785C40000,0*1D\r
+!AIVDM,1,1,,A,13pr<l0P0012imDNUMReb?w<08F:,0*56\r
+!AIVDM,1,1,,A,13aGF=hP00PCMCLMH@LeHww:RHF:,0*68\r
+!AIVDM,1,1,,A,13a=:t00000GMwlMaJW=r5q408F:,0*6D\r
+!AIVDM,1,1,,B,339fT8gP00PCvcnMdDAhLOw:R30S,0*41\r
+!AIVDM,1,1,,A,18153:h026JuWw4GG7AcKq=800SO,0*63\r
+!AIVDM,1,1,,A,13aDrF@P1dPD=QnMdg5HGOw4R5Ip,0*40\r
+!AIVDM,1,1,,A,133qNIPP1MPCl>PMBC3h6ww:2<7s,0*5D\r
+!AIVDM,1,1,,B,13aGtQIP00PD92VMDE84uwvr28F<,0*42\r
+!AIVDM,1,1,,B,233R2L?P18PCT<8MFfD9Tww:25Ip,0*5E\r
+!AIVDM,1,1,,B,13M@DFh000OdmmpLl`D@p0?20<0O,0*51\r
+!AIVDM,1,1,,A,1018lEPP00OdoB>Llv?00?w60@ES,0*4E\r
+!AIVDM,1,1,,,13aJI1@P1CPIDPvN8TNWgOw:20SW,0*77\r
+!AIVDM,1,1,,A,B3P7R?00AWs>FHW<khDFowj5kP06,0*18\r
+!AIVDM,1,1,,A,16:;I:P0028M:s:FDtjkT8q;rD4e,0*01\r
+!AIVDM,1,1,,A,23aFeIPP1RPCRJHMH@><l?w:2<7l,0*00\r
+!AIVDM,1,1,,A,24SaQh500E0Cu0bMErfb1ou<08F=,0*15\r
+!AIVDM,1,1,,A,15N68CPP00ITEvdA7W1t:?w:0@Ew,0*05\r
+!AIVDM,1,1,,B,13c1cv001o11k54NiSKdU:940@Dw,0*2E\r
+!AIVDM,1,1,,A,15Msnd0P01ISva`A3WUbBgw<05Ip,0*5A\r
+!AIVDM,1,1,,A,15MwUh0P00IS<WNA5h8t;?w:0@F3,0*66\r
+!AIVDM,1,1,,A,15NOV9P000ISvq:A8HsLnT1<0hF4,0*18\r
+!AIVDM,1,1,,B,15Oq?H0P01ISTLNA7AJWtgw60D70,0*4E\r
+!AIVDM,1,1,,B,13aEOU@P1q0D7?fMdR5:@ww8R0S5,0*5B\r
+!AIVDM,1,1,,B,13b=HD0000PW8ElNaabec5q60`EU,0*7A\r
+!AIVDM,1,1,,A,13aFeOPP10PKQC<MEJTqt?w<20Rp,0*5A\r
+!AIVDM,1,1,,B,168sU`0P@F8K<AvFC91l>kK<0<5l,0*54\r
+!AIVDM,1,1,,A,13aI:v@P00PJqOTM@s8P0?w:2@F9,0*79\r
+!AIVDM,1,1,,A,369CI;Q0018dv48FC4P<:W9<0E0r,0*6F\r
+!AIVDM,1,1,,A,16K8B`h000awUAvD9m0P1Fu<2<48,0*10\r
+!AIVDM,1,1,,B,1441Bv0000RBHnLJo3mc4BI:20RT,0*72\r
+!AIVDM,1,1,,B,19NSC`m03>0K@6<NePdRkB;60HF:,0*1F\r
+!AIVDM,1,1,,A,33bfe80P@VPL;LnNU=3C?RE60130,0*46\r
+!AIVDM,1,1,,B,13b0oR001O0;d9pMFk0SoRu608F=,0*1E\r
+!AIVDM,1,1,,A,143Nh200002BF8<Jl0OT@b380l1=,0*42\r
+!AIVDM,1,1,,A,18Ih@`002VabFP8CjDs4kSs800SR,0*3F\r
+!AIVDM,1,1,,A,19NWq?@OiK2>8sufqqJI0WS<00S8,0*60\r
+!AIVDM,1,1,,A,23aB;@00000CNd@MHVaP>9F005It,0*4D\r
+!AIVDM,1,1,,A,16K8DmO001awBPLDB;<cm9e<08F8,0*54\r
+!AIVDM,1,1,,A,16KVj<P021awggDD<8Rdd:;<20SA,0*64\r
+!AIVDM,1,1,,A,13P;e:@01i01OeDO@Ep5PTQ:0<86,0*35\r
+!AIVDM,1,1,,B,13R6gg?P021d0n6EewORCgvd0D2v,0*5F\r
+!AIVDM,1,1,,A,13aC4p@P00PCk>lME8hh0?w:R@F@,0*1E\r
+!AIVDM,1,1,,A,15MvtiP000qSPHHF=Lq:FhC<08F>,0*4B\r
+!AIVDM,1,1,,A,13cVmD0P000VLGhGGVe`0gw408Ea,0*36\r
+!AIVDM,1,1,,A,15NHNVg00IqsRNjFG2LBGic:08F>,0*5C\r
+!AIVDM,1,1,,A,13aGu;hP1LPDPNjMdgGAfww82<:w,0*3C\r
+!AIVDM,1,1,,B,169GHkP00:7piU:;MPHUhTDr28A0,0*1E\r
+!AIVDM,1,1,,B,16:FG`1P007phd8;OFq6mQRn8l1v,0*0D\r
+!AIVDM,1,1,,B,16:GFjP0007p>MB;N4A@eh`t0HA9,0*3C\r
+!AIVDM,1,1,,B,169G7b0P1>7p0Sp;Qbd3Pwvp0D0;,0*33\r
+!AIVDM,1,1,,A,13oaGH5P1bPHQdLQon==cww:08EoS`1vPT,0*29\r
+!AIVDM,1,1,,A,13uDkH?000Ps=OtOe<qImCo<0D0G,0*4C\r
+!AIVDM,1,1,,B,169JHc`P007plpR;MCBqG6>h05Ip,0*5E\r
+!AIVDM,1,1,,B,169JG:0P1K7phAB;NBt=Cr`t0<1V,0*2A\r
+!AIVDM,1,1,,B,403tCbQuho;NNWoAJH;L7IA02@BH,0*24\r
+!AIVDM,1,1,,B,16:GAQ002;7pead;PR>0A@500HBj,0*02\r
+!AIVDM,1,1,,B,15PoSb0Ojc7o=bD;Qv?c3`rv0<1N,0*7E\r
+!AIVDM,1,1,,B,16:GDp8P017pgf0;N7t=:1q000SE,0*23\r
+!AIVDM,1,1,,B,169JG50P2CWp5<f;PeG6Om;00@CQ,0*4E\r
+!AIVDM,1,1,,B,169JF1PP2;7pbO8;Ql6niUO80<23,0*65\r
+!AIVDM,1,1,,B,13aDoMgP00PCSR:Mcr<8GOw:2@F@,0*56\r
+!AIVDM,1,1,,B,18152FAP@0QcTPhEb<T5AbA80`FA,0*14\r
+!AIVDM,1,1,,A,14hlRp002sPEACBNP:ahohe<0<59,0*62\r
+!AIVDM,1,1,,B,333su@0P00PDH5fMDHWiE?w:R04Q,0*70\r
+!AIVDM,1,1,,A,15PqTT300207V>HMKE5K>@3<08FA,0*66\r
+!AIVDM,1,1,,B,16:QsKP0007pls6;Mg7uTU940L2B,0*2C\r
+!AIVDM,1,1,,B,169GSN0P017pi2@;MP;rlww620SH,0*50\r
+!AIVDM,1,1,,B,169JEw0P007plsF;MBrk=h1605Ip,0*5E\r
+!AIVDM,1,1,,B,169JHhaP007q1R8;NAG3mVa20HIH,0*0C\r
+!AIVDM,1,1,,A,B69U?cP0C27D6tSPEGDMWwj79P06,0*58\r
+!AIVDM,1,1,,A,16:@GGPP0?`Pbfr>KEftVJC60<:V,0*39\r
+!AIVDM,1,1,,A,33ass8?Ohd0D9G@MbSqU3Ck<00th,0*2A\r
+!AIVDM,1,1,,B,177SLm001T8fgn`A84Dbj8I00UIp,0*28\r
+!AIVDM,1,1,,A,169>G9PP008PbC4>IIdb`R?80<0N,0*5A\r
+!AIVDM,1,1,,A,13Gmb>0uB:01HH@LB?o3?RS8`@E`,0*40\r
+!AIVDM,1,1,,B,402E35Quho;NOPCOD8Mki0G00<4L,0*15\r
+!AIVDM,1,1,,B,64TCa440UBf206P0@0,4*30\r
+!AIVDM,1,1,,B,13Nvwh02B1OK2P6ChO9`jW7808Ec,0*00\r
+!AIVDM,1,1,,B,6h2E:p8rEGun04<0@00000000000,0*6D\r
+!AIVDM,1,1,,A,368sVmPP@a8K<=tFC@T`ii?<0111,0*07\r
+!AIVDM,1,1,,B,15Ovc20001o@N>4KM=gG<6e<0`F9,0*44\r
+!AIVDM,1,1,,B,15Mh1l001HJkLatGCPORV25<0hEn,0*0F\r
+!AIVDM,1,1,,B,13sM@:gP01wDq=HF92eK5ww:2L06,0*76\r
+!AIVDM,1,1,,A,13M@Kd0000wiaW8Qba;q5iA<05Ip,0*13\r
+!AIVDM,1,1,,A,13c`kp?P000VbTRIE24@0?w208Ev,0*6A\r
+!AIVDM,1,1,,B,13a0:r001T0ehh`HM?I52T7<00T8,0*29\r
+!AIVDM,1,1,,A,13P<m`@0h00g994HrhcpDQi<05Ip,0*33\r
+!AIVDM,1,1,,A,13M@DN@02b0e0T@HsPq5j4e:08F1,0*23\r
+!AIVDM,1,1,,A,13c`Rd0P000e0DjI?:aoQOw80L0W,0*32\r
+!AIVDM,1,1,,B,15DnAB002B0bR5<I1R2I@WK40@F>,0*40\r
+!AIVDM,1,1,,A,16K2;6O001awBSFDB;`cJae:2HEMg0kvc7,0*4C\r
+!AIVDM,1,1,,A,13cB:b00000D;`TMdiT;7EK<2HFC,0*73\r
+!AIVDM,1,1,,B,169I6W00008L2cjFCBbIL57:20S;,0*0E\r
+!AIVDM,1,1,,A,4h3OwmQuho;NSo56IhKcvE700`F>,0*60\r
+!AIVDM,1,1,,A,13pr<70000QELM`O8JB;wl3:2<0u,0*45\r
+!AIVDM,1,1,,A,13b0cl00000HuEbNKGW2CP7:08FC,0*67\r
+!AIVDM,1,1,,A,13d<1j00270@bFTMKk=9s7o<80S5,0*32\r
+!AIVDM,1,1,,B,13Ib1p02000Fn=@Hm?E1QTE80<0d,0*64\r
+!AIVDM,1,1,,B,13`el`PP1OPGi4vMaJis`ww<25Ip,0*72\r
+!AIVDM,1,1,,B,133uLdP000PCs8lMF0HN42i:P@FD,0*67\r
+!AIVDM,1,1,,A,143MrQ800PRBMV0J`c@T;SK40d0d,0*67\r
+!AIVDM,1,1,,B,15AlrB002lIkcbF;k4L;9`k20D02,0*62\r
+!AIVDM,1,1,,A,13aIgn@P00PDT8<MeEMP0?w<2@FD,0*15\r
+!AIVDM,1,1,,B,3342=23P@GP=rgJMKwaGS5U800tP,0*02\r
+!AIVDM,1,1,,A,E028irPVa1Qh0V6Ra4Ph@@@@@@@OrFaC:RHoP00003v0100,2*02\r
+!AIVDM,1,1,,A,169ECp00008Jn:>FCsJAt2g:0`F>,0*38\r
+!AIVDM,1,1,,B,33bPC@002uwVpkdOD6ilG3S40000,0*26\r
+!AIVDM,1,1,,B,4h2=aV1uho;NSOVcELOA5mo005Ip,0*62\r
+!AIVDM,1,1,,A,4h2=aCQuho;NSOcU4<O3<ii008Dk,0*74\r
+!AIVDM,1,1,,A,4028n?iuho;NLOV`7LDb1fA00L18,0*2C\r
+!AIVDM,1,1,,A,802DD;ltP7P<WAgpPpr?lqDmg1<2J178iAa6NFVi2@qSlD2VB1L9,0*12\r
+!AIVDM,1,1,,A,13djbL001SOJ4R@Dq?kK3ptp00Sm,0*16\r
+!AIVDM,1,1,,A,43WF5n1uho;NMOM;jtC>tBQ005Ip,0*21\r
+!AIVDM,1,1,,A,13aGu0h000PCmm4MEEE003i<RHFE,0*4F\r
+!AIVDM,1,1,,A,133s06001SON0PhDrC=SB2jp20RJ,0*62\r
+!AIVDM,1,1,,A,4028j@1uho;NMOS>8NDqOko005Ip,0*5F\r
+!AIVDM,1,1,,B,14`vUp0vjkwW`DFOM1;RCAe80<0:,0*15\r
+!AIVDM,1,1,,A,B5`bdv0006mkTHRWb2NFOwjUoP06,0*3E\r
+!AIVDM,1,1,,A,D02200@kTBfq6DC6DlA@1pl0R9I,2*6B\r
+!AIVDM,1,1,,B,13fJlOh00LwU6gBOAC:@c@S:0<0l,0*10\r
+!AIVDM,1,1,,B,15NEN40P00ISctRA65aL;Ow:0L4w,0*06\r
+!AIVDM,1,1,,A,15N5WfPP00IS35:A;t1:vww<28F<,0*71\r
+!AIVDM,1,1,,B,33bPC@002uwVpq@OD6`lGkS800`@,0*65\r
+!AIVDM,1,1,,A,13aFfOhP00PDQI@Me?Rh0?w<28FE,0*3E\r
+!AIVDM,1,1,,A,16KJckh000aTenRCaDituGO:00Rdw3mvDP,0*5D\r
+!AIVDM,1,1,,A,16::0O`0008Jpr`FCcO9W0e:0HF?,0*37\r
+!AIVDM,1,1,,A,14SMct00009wI4`DAaR``VO60PT?3rOvc7,0*47\r
+!AIVDM,1,1,,A,33`va@0P00PHpI6NKnPbWww<255C,0*25\r
+!AIVDM,1,1,,A,13mwUn00160oHA8Nwqn=G:WH08J2,0*65\r
+!AIVDM,1,1,,A,13@nknh0000q>JVOlS2LCkC>05Ip,0*53\r
+!AIVDM,1,1,,A,8@2<HVh0BkQdbhW8wsUg5RuFc:E9gwejwwwwwwwwwwwwwwwwwwwwwwwwwt0,2*06\r
+!AIVDM,1,1,,B,13aFeV0P00PCu24Md:TP0?w<R@FE,0*71\r
+!AIVDM,1,1,,B,34eGBp5001L>e`hK=UJ9O1G<0000,0*7C\r
+!AIVDM,1,1,,B,13aGD:PP00PCuCLME65P0?w<R5Ip,0*57\r
+!AIVDM,1,1,,B,13pr?I000011AdPNn9FbJH580<0P,0*78\r
+!AIVDM,1,1,,B,16:@<U`000`Vhu0DaVE003M:2<2k,0*5F\r
+!AIVDM,1,1,,B,18UV0f001lwFpUpDjn1664w:0HFE,0*33\r
+!AIVDM,1,1,,A,13P:vNP000wjaI0NrgM277o80HFF,0*18\r
+!AIVDM,1,1,,B,36:cQH1000`LESnFBimkhlM:2WaP,0*79\r
+!AIVDM,1,1,,A,13aFg1wP00PCmMfMEcah0?w=2@FA,0*75\r
+!AIVDM,1,1,,B,13TTJh00001cm4hEee1=B05600Rd,0*68\r
+!AIVDM,1,1,,A,15NEcU0001rrmV8H?FcJrUa:0L0G,0*72\r
+!AIVDM,1,1,,A,13aFgbwP00PCwQ`MdEiLq?w<P8FG,0*51\r
+!AIVDM,1,1,,A,13A8QH002bP5hF`NMALTOSW60`Dv,0*7A\r
+!AIVDM,1,1,,B,13aV0j0001:l04ujI>fIdTU80D1P,0*16\r
+!AIVDM,1,1,,A,13P;T@K01;1F>g4ODjE;tqC<00S1,0*37\r
+!AIVDM,1,1,,B,169pP6P0008Jwk@FCHF556G:0000,0*03\r
+!AIVDM,1,1,,A,33mGSF003FPJhhhQfpt`2FG<01;0,0*48\r
+!AIVDM,2,1,4,A,53ocgf02AJgDh=D>2208uE88tr0I8tqB222222162A2<64db0<Tm0EPC,0*0A\r
+!AIVDM,2,2,4,A,QiD`88888888880,2*3C\r
+!AIVDM,1,1,,B,15Mf@6P000o?@t8KFBIU:qM:0HFE,0*54\r
+!AIVDM,1,1,,B,3344Ib070>P<ak0MHj=:<ig:0000,0*31\r
+!AIVDM,1,1,,B,13q6LJ000m12gUHNTn3WbF4`05J0,0*5D\r
+!AIVDM,1,1,,B,169vkEhP018VfijDa7BP0?w:0<04,0*3B\r
+!AIVDM,1,1,,A,13u?oh00000mBWnQ2bK005;80D0b,0*15\r
+!AIVDM,1,1,,B,13u=7g0v@0Pm4`BQ7p>biU1:05Ip,0*63\r
+!AIVDM,1,1,,B,13Q;7S@P10PmQQhPv6LWVgw825Ip,0*26\r
+!AIVDM,1,1,,A,13u><8P0000mJ7hQ10k@07a:0L1q,0*58\r
+!AIVDM,1,1,,A,13lrgV001j0lwVPQ8r`RdRA:0<<P,0*79\r
+!AIVDM,1,1,,B,13u=cDP000PmGUjQ1L2=QGi<0D1v,0*3E\r
+!AIVDM,1,1,,B,13P<N8EP1mOovqbLv8M2WOw<08Er,0*20\r
+!AIVDM,1,1,,B,B3uDt`P0=0>gatWtqe2e?wjUkP06,0*7A\r
+!AIVDM,2,1,3,B,533rKfT00003W;3G;3A<PE8ht<f0PthlE<00001S38223t0Ht00000000000,0*65\r
+!AIVDM,2,2,3,B,00000000000,2*24\r
+!AIVDM,1,1,,A,36K8Do@01tawLM`DB2WlVkg<0000,0*50\r
+!AIVDM,1,1,,A,13@nkv@0000hOaTQ1hdAcQk:0HFA,0*74\r
+!AIVDM,1,1,,A,16KVls001rawoIdD9Q>>1c?<0<5Q,0*21\r
+!AIVDM,1,1,,A,16K2<L0002awQrnDB9jovjQ<25Ip,0*04\r
+!AIVDM,1,1,,A,333V?v?P@8PCR=fMFO7BFiQ<2100,0*77\r
+!AIVDM,1,1,,B,143lJh00002I24tIPMl7qn=<0@FG,0*34\r
+!AIVDM,1,1,,B,4020s>Auho;NUPan`pNmQ0W00<00,0*1B\r
+!AIVDM,1,1,,A,133Pfn00000CnGdMEA5qhDW<0D8c,0*14\r
+!AIVDM,1,1,,B,13P;HIP000P6PedMGgL002I<00SD,0*6B\r
+!AIVDM,1,1,,A,13P<W00Oh0wh1`bNsM9AS8I:2@FI,0*49\r
+!AIVDM,1,1,,A,139KwCPPAA0dgQ`OHU>7<5i<0D0<,0*1F\r
+!AIVDM,1,1,,B,169FilPP0087R;@=<gedOww:0@Eq,0*28\r
+!AIVDM,1,1,,B,16:V4J@P?w<tSF0l4Q@>4?wv00Rs,0*59\r
+!AIVDM,1,1,,B,15N;0>0014Jll`pGWe><Qb3<0L0;,0*39\r
+!AIVDM,1,1,,B,15Mi<ng000o?A0BKFC<oBaM>0L1R,0*31\r
+!AIVDM,1,1,,B,B69G68P3wk?8mP=18D3Q3wf79P06,0*0C\r
+!AIVDM,1,1,,A,13aDBj0P00PDRAlMdnjj<?w:R<9F,0*3A\r
+!AIVDM,1,1,,B,33P;v@E0000HnjpNKjnMN63>0E3:,0*44\r
+!AIVDM,1,1,,A,13IgVQ000000iGHLC9tQT3?:05Ip,0*26\r
+!AIVDM,1,1,,B,15`5R40001PBF0tMLJbthbs>2HFK,0*6E\r
+!AIVDM,1,1,,A,13HOI?0P0100Vh0LCn:W`Ow:0`FH,0*0A\r
+!AIVDM,1,1,,B,13ROK20P00Qd1`rEevLBn?w:05Ip,0*4D\r
+!AIVDM,1,1,,B,36Sfg2`OiDa36j@EGlwr8HG=r11@,0*5F\r
+!AIVDM,1,1,,A,16:6ib0000`K=WLFCg3iLCM<05Ip,0*51\r
+!AIVDM,1,1,,B,15NK5oP000G@0hRK@rsq9o1:05Ip,0*09\r
+!AIVDM,1,1,,A,133uoaPP00PCp0:MF=bIT?w>2<7N,0*4D\r
+!AIVDM,1,1,,A,13uogN00000iIEfQ0>D1ap?:0`F@,0*4C\r
+!AIVDM,1,1,,A,B3u=jKP000=cBI8@Foi6;wjUkP06,0*4B\r
+!AIVDM,1,1,,B,13v0qJ00000lvAjQ9nW;s8A<0HFF,0*7F\r
+!AIVDM,1,1,,A,13@np0GP080lepLPhpD6Jww>0D0U,0*0F\r
+!AIVDM,1,1,,A,14RppN0000PD?LlMe55hCA1:2@FL,0*05\r
+!AIVDM,1,1,,B,13aIi=0P00PCn;pMEMRetww800T4,0*53\r
+!AIVDM,1,1,,A,33AP960P@QPrRGLOvEt6955:2Pwi,0*73\r
+!AIVDM,1,1,,A,16Tg080P1SabVh@CjL2C82`t00S0,0*0C\r
+!AIVDM,1,1,,B,13aIkC0P0SPG;>2Mc:41Nww<2HFM,0*16\r
+!AIVDM,1,1,,A,15QLVh002VabTOlCdkQ1ciG<0@FH,0*32\r
+!AIVDM,1,1,,B,13aGG@aP15PCeSNM?QddV?vBRL3l,0*67\r
+!AIVDM,1,1,,A,13aDCOhP?w<tSF0l4Q@>4?wvPpF>,0*35\r
+!AIVDM,1,1,,A,F030pC22N2P73FiiNesU3FR10000,0*15\r
+!AIVDM,1,1,,A,133gnHgP00PD4PHMDiuh0?w<R8FN,0*02\r
+!AIVDM,1,1,,A,1:16dn0P010g<IFHseOL<ww:0@F>,0*76\r
+!AIVDM,1,1,,B,13ciWt0P000Vo:4IFW700?w:0@F?,0*7D\r
+!AIVDM,1,1,,B,402FhUQuho;NU0dRnVGJ`UQ008FL,0*0E\r
+!AIVDM,1,1,,A,139f:vPP00PS3:jK=;H@0?w<R@FO,0*4D\r
+!AIVDM,1,1,,A,368sVk001K8K;uTFC<;WGVK>013P,0*15\r
+!AIVDM,1,1,,,13P9ECaP0105f4HMV>7p>ww>20Rb,0*75\r
+!AIVDM,1,1,,A,D02VqLPjlJfq6DK6DrMJ>4sIK6E,2*34\r
+!AIVDM,1,1,,B,140UrVgP00PD8pbMDTTKBgw<2<3w,0*0E\r
+!AIVDM,1,1,,A,16Sr5wP000a3QmfEKc1h04Q<2@FI,0*0A\r
+!AIVDM,1,1,,A,13aFdewP1IPHDp>MalVcN?w<2@FO,0*7B\r
+!AIVDM,1,1,,B,13aGDMhP00PDTVBMdbpP0?w<2<7Q,0*23\r
+!AIVDM,1,1,,B,13m7bt002=0JirjQiJ7pFnc:0PSL,0*54\r
+!AIVDM,1,1,,A,133lHWaP00PCro0MC4WV5ww:2<63,0*54\r
+!AIVDM,1,1,,A,13HU@e?P0PP33cvM0`fCKOw:28F1,0*5A\r
+!AIVDM,1,1,,A,13m;k00P0011nG0VP5PcSgwl2L0G,0*76\r
+!AIVDM,1,1,,B,13n=<t001S126JdVT9i0KhGh0<0M,0*5A\r
+!AIVDM,1,1,,B,13aI<?OP00PGDwLMhRG@0?w<20S5,0*2B\r
+!AIVDM,1,1,,A,133w5iP000PCwe8ME@>h08Q<R5Ip,0*40\r
+!AIVDM,1,1,,B,35Mu1EPOjNJduT0G@VaIf`?>0000,0*15\r
+!AIVDM,1,1,,B,13aGsR@P00PDT7HMeE`@0?w<2HFP,0*6A\r
+!AIVDM,1,1,,B,19NWsE002D0SqBlHt4mAgiE80<1K,0*69\r
+!AIVDM,1,1,,A,4028nBiuhoHtt<tSF0l4Q@700PS:,0*7D\r
+!AIVDM,1,1,,A,4028j7iuho;NNOV`nhDauqG00@B>,0*70\r
+!AIVDM,1,1,,A,13aT7d001qwJ1mHDjV5D9kE008Bs,0*3C\r
+!AIVDM,1,1,,A,4028nBQuho;NOwRP`dE1HUG00D2S,0*67\r
+!AIVDM,1,1,,A,A04757QAv0agH2JdH6l`5OkT2U8Nw`P57hsv0@U0,0*49\r
+!AIVDM,1,1,,A,13M@I0h000Oj@JFNTMcbDjc<0hFO,0*17\r
+!AIVDM,1,1,,A,E028it0Va1Qh6PR94R@@@@@@@@@OoNBH;SqC@00003v0100,2*58\r
+!AIVDM,1,1,,A,D028n?hV8P00000000000000000,2*6D\r
+!AIVDM,1,1,,A,16K2;SP000b1G1TDGh?pvo=<0D3F,0*1C\r
+!AIVDM,1,1,,A,18158G@025wPj6BDUs1K0pk20D2E,0*18\r
+!AIVDM,1,1,,A,E0000DhcFtIP000000000000000?iNqQ:QhqH00003RP10,4*01\r
+!AIVDM,1,1,,A,19TH17P024wQ6mrDHv4I97I40L3D,0*22\r
+!AIVDM,1,1,,A,13aBKa0P000D>UnMdtJh0?w:0L3w,0*39\r
+!AIVDM,1,1,,A,139f>90P00Pe?:VN`OpEOOw<25Ip,0*5B\r
+!AIVDM,1,1,,B,133k?uPP0s0DG9>MDDw2kOw:R<3?,0*41\r
+!AIVDM,1,1,,A,14S26D0riBPFgiHN`Jraf7i828F@,0*72\r
+!AIVDM,1,1,,B,E02E381`60b37a6h6Lh@@@@@@@@0;FdI?Ede`00003v000,4*3A\r
+!AIVDM,1,1,,A,13@WP6002>0FgrVN`sG9boi805Ip,0*2F\r
+!AIVDM,1,1,,A,13fpPn001f0Nd@VOLUfihQC:08FK,0*4B\r
+!AIVDM,1,1,,A,16T0WH0P1U9whPhD;f?5gDQ60PSw,0*53\r
+!AIVDM,1,1,,B,13aGCN@P000D>=6Md?Ub4gw>2@FQ,0*03\r
+!AIVDM,1,1,,A,15MuS=0P00IShLLA8S=L1?w:0<1k,0*28\r
+!AIVDM,1,1,,B,15NFJTPP00IRpq<A9Fbs5ww<25Ip,0*09\r
+!AIVDM,1,1,,A,15NM;HPP00qS5aHA7qmKGww<28FE,0*3F\r
+!AIVDM,1,1,,A,16K2?Kh000awhj<DI3VAE17<05Ip,0*36\r
+!AIVDM,1,1,,B,B3P<K8P0B7uwB57@85prGwjUkP06,0*61\r
+!AIVDM,1,1,,A,16K8Cg@000awHW`D<9Nb2oO<25Ip,0*12\r
+!AIVDM,1,1,,,33AeTN300007dCdMoMM5?69:00oA,0*2D\r
+!AIVDM,1,1,,B,169DS:PP1a8gvd0@uDL72ww:05Ip,0*25\r
+!AIVDM,1,1,,A,16K2D=0001aw>WNDBNWKGaS<28FH,0*08\r
+!AIVDM,1,1,,B,169qb8?P008fs9fA:uj01gw:28Es,0*5E\r
+!AIVDM,1,1,,A,169>:4hP?w<tSF0l4Q@>4?v00hEr,0*60\r
+!AIVDM,1,1,,B,16:B70`0008ge:6A8Rnf3`w:2D7f,0*21\r
+!AIVDM,1,1,,A,14SKS>000W`etRfA8NO9w`6h0d4e,0*79\r
+!AIVDM,1,1,,A,13aIjChP1RPCd2dME8ie:ww<R@FR,0*63\r
+!AIVDM,1,1,,A,16:>O@001p`M05B=qlC715S<0HF2,0*32\r
+!AIVDM,1,1,,A,169pl1P000`caE0EPk7INm7:2<1F,0*15\r
+!AIVDM,1,1,,B,169piGd0018ca`BEOFk5:D7<00SM,0*71\r
+!AIVDM,1,1,,B,169ucj0P008cjupEOID6eww<00SG,0*4F\r
+!AIVDM,1,1,,A,33ainV5vh0awGRtDB4;:CnQ:0000,0*0F\r
+!AIVDM,1,1,,A,4>pf7l1ufUHtt`cjk@EMM;100D1r,0*54\r
+!AIVDM,1,1,,A,169>`900008cWFPEOCgJaIO<0<1T,0*33\r
+!AIVDM,1,1,,A,169>SO`P008dS98EK:n@2Ow80@J7,0*21\r
+!AIVDM,1,1,,B,B69G?UW@EB5HOs3F?0oMgwjfkP06,0*6D\r
+!AIVDM,1,1,,A,B8t=7LP002;3CJTO77nlOwj61P06,0*17\r
+!AIVDM,1,1,,B,168upRP00487R?:=<djD<R=:00Si,0*69\r
+!AIVDM,1,1,,A,13@nt?P0000hNl:Q1bkqVQi>0HFQ,0*46\r
+!AIVDM,1,1,,A,169AAL00008d3PDAvbv5IlU:0D80,0*0F\r
+!AIVDM,1,1,,B,36:aHb100H`7DIP==blK@8s:2000,0*54\r
+!AIVDM,1,1,,A,16:84580?w<tSF0l4Q@>48sp0<35,0*7D\r
+!AIVDM,1,1,,B,13F7g40000NqIod@6Oa;cT?<08FQ,0*30\r
+!AIVDM,1,1,,A,13=I`D5P008VjT8DanE8tgw:0hFL,0*43\r
+!AIVDM,1,1,,A,13`wgT0P5ePGnwfN>kuDF?w:28FK,0*41\r
+!AIVDM,1,1,,B,833su@0j2ed<<vNLh0mhPg`57P00,0*1E\r
+!AIVDM,1,1,,A,14ccwR02010`pq2IIiqdO3G>08FQ,0*00\r
+!AIVDM,1,1,,A,139C>OwP00PWMqRNK5MRogw028Eb,0*2C\r
+!AIVDM,1,1,,A,139gdm0000PWMa@NJuULU:5808Ev,0*29\r
+!AIVDM,1,1,,B,8000000Iv7EQOPp:GdPMI?buQ7W3QIoafGJdUIPPT0,4*6C\r
+!AIVDM,1,1,,B,13aFfpPP00PDhHRMdSBmnOwLR8FS,0*40\r
+!AIVDM,1,1,,B,33a9980Oh<0=KqRMCtsP2PQ>00jP,0*5C\r
+!AIVDM,1,1,,A,33IT?;?00P03KB4Lwlv<dak<011A,0*50\r
+!AIVDM,1,1,,A,13Hj9vW00N02OGtLsus191=<0<1D,0*56\r
+!AIVDM,1,1,,A,140W:20024wv`;`LoSwqvp1>28FA,0*02\r
+!AIVDM,1,1,,A,13P8EDhP1I02`jJM0j37i?w<08FF,0*49\r
+!AIVDM,1,1,,A,33aDCH?P00PCwarMEqfHEww<208A,0*45\r
+!AIVDM,1,1,,A,33aG?N0Oh@0Co8lMdHEU1qMp0Q;1,0*09\r
+!AIVDM,1,1,,B,139eg=?P0cPeNpRNWl8AdOw<R0SO,0*56\r
+!AIVDM,1,1,,A,13UtWB002c1kI`tE3ig7Emw<00S?,0*06\r
+!AIVDM,1,1,,B,14eH0lhP00G<cG0L=5Mq@Ov`28;v,0*20\r
+!AIVDM,1,1,,A,14eGEC@000o:1RRKuq=C5UW608FI,0*24\r
+!AIVDM,1,1,,A,14eG;;0Oh9o=B1<L8bBQ3i;<0@FJ,0*16\r
+!AIVDM,1,1,,B,14eGLB0P00G<<ORL6iB;Jgw<0<2d,0*60\r
+!AIVDM,2,1,2,A,54eGDN0000000000001<uE@PE8r18T@LF222220N0PA15H00005BiAH88888,0*05\r
+!AIVDM,2,2,2,A,88888888881,2*27\r
+!AIVDM,1,1,,B,13P89nCP00OjAJvNTnK<Qww>08FT,0*25\r
+!AIVDM,1,1,,A,133Vg>000A0<MwrMHcIIOJQ>2@FT,0*41\r
+!AIVDM,1,1,,A,13aJFiPP00PCStFMdHO:nOw<2L7v,0*13\r
+!AIVDM,1,1,,B,13bG9D001hOg9aNNt6A=qs;:0@FT,0*09\r
+!AIVDM,1,1,,A,13aGs3@P00PCn>VMEMCetgwDP`FT,0*26\r
+!AIVDM,1,1,,A,152Hk2dP01Jrjp`H@0uskww>08FS,0*00\r
+!AIVDM,1,1,,B,133oAiP0000CmhfMFR10UDe>08FU,0*2A\r
+!AIVDM,1,1,,B,13aDpEPP00PGq6hMaQqH2gw<28FU,0*4C\r
+!AIVDM,1,1,,B,13Q@@`001m13DS<NwLN2DQo:08Ei,0*0E\r
+!AIVDM,1,1,,A,34`alU001;w467T4:Bl;Sa9:210@,0*5C\r
+!AIVDM,1,1,,A,38157mQ000O3`2@4o4=:gas60000,0*57\r
+!AIVDM,1,1,,A,13P7RT@P000=JUdMD;D5=Ow>00R;,0*32\r
+!AIVDM,1,1,,B,33P:owh00<OhSVPNbbD2iQi:0000,0*22\r
+!AIVDM,1,1,,A,1>qc9ww000OkfS@MMI5004S:0@00,0*32\r
+!AIVDM,1,1,,B,133u<f?P1`0CTfFMGVN@Awv@05Ip,0*6C\r
+!AIVDM,1,1,,B,33aGD90P00PCOQ=vF<:d7?v>22hS,0*07\r
+!AIVDM,1,1,,A,83aGtvPj2d<dtLtM<Q7@UgaH5`P0,0*08\r
+!AIVDM,1,1,,A,13aGD@0P00PFff`Mauw00?w<RD3t,0*1B\r
+!AIVDM,1,1,,B,233WuF0OiLPCipFMEvP7iV@>0<7U,0*53\r
+!AIVDM,1,1,,A,33aFeIPP1RPCRflMH=MLrgv>20oA,0*4D\r
+!AIVDM,1,1,,B,133otggP0<0ChtPMG3V2jwv:P<4e,0*5D\r
+!AIVDM,1,1,,A,13aBME0P000ClQ2MEVpP0?v<084J,0*5E\r
+!AIVDM,1,1,,A,233ugp5000PCTA0MHAU:gRv<0H4L,0*11\r
+!AIVDM,1,1,,B,13aGDWPP0tPCP3@MIR8;pgv>284O,0*1D\r
+!AIVDM,1,1,,A,13aDp=hP00PD0fnME2Qjdwv>2H4O,0*03\r
+!AIVDM,1,1,,B,13`rO`?0000BSW4MN0:b`8H>0@4P,0*06\r
+!AIVDM,1,1,,A,A37dlPPP1?PCa:lMIG=rg?v>2H4P,0*13\r
+!AIVDM,1,1,,B,133gnHgP00PD4O8MDivbEOv>RH4Q,0*7C\r
+!AIVDM,1,1,,A,233R2L?P1WPCTihMFfa:TOv>284R,0*7E\r
+!AIVDM,1,1,,B,13aGDmPP00PCWrfMHr32dgw6R84S,0*41\r
+!AIVDM,1,1,,A,23aFfl0P00PCR>>MEBAh0?v>20SA,0*1F\r
+!AIVDM,1,1,,A,33aJINPP01PCnVVMFFua4wv@22gi,0*54\r
+!AIVDM,1,1,,B,10F9w@wP000CrajMDhE@0?v<00S7,0*04\r
+!AIVDM,1,1,,A,13:1wR002<Pr4tHOhcJ7iVA:0000,0*53\r
+!AIVDM,1,1,,A,13aBL@5P?w<tSF0l4Q@>4?wp0PSK,0*48\r
+!AIVDM,1,1,,A,333V?v?P@FPCR8DMFNmBMif>20t@,0*7E\r
+!AIVDM,1,1,,A,13b9in00000BSVhMN1Kpd7f@05Ip,0*27\r
+!AIVDM,1,1,,B,133vAlPP1WPCLQ@MIk5Llwv@2L8C,0*59\r
+!AIVDM,1,1,,B,133dWgg0000Cj?NMG3K@?:F>0@4f,0*12\r
+!AIVDM,1,1,,B,24SaQh500H0Cu:bMErrr8H2>0@4g,0*2E\r
+!AIVDM,1,1,,A,601uEP@tH;3j<P<j00,4*51\r
+!AIVDM,1,1,,A,233SLB5000PBGABMLCWCcm>@2@4i,0*13\r
+!AIVDM,1,1,,A,239K6?50010CTGTMH5lad:T>00Rv,0*41\r
+!AIVDM,1,1,,B,139f<20P00PCgU6MG<fijgv@RH4l,0*41\r
+!AIVDM,1,1,,A,13aGFrwP?w<tSF0l4Q@>4?wv0d85,0*10\r
+!AIVDM,1,1,,A,133n3aPP00PCghbMGLdT<wv@R84m,0*6D\r
+!AIVDM,1,1,,B,19NSC`m03=0K?80NeO;2kB:H00R`,0*08\r
+!AIVDM,1,1,,B,23aEPr@P010Cm?lMEo;neww:P<5a,0*2B\r
+!AIVDM,1,1,,B,13aDpChP00PBaVpMfiHLw?w>R0SF,0*6C\r
+!AIVDM,1,1,,B,14QsuE@001PBgi2MfvSapq;B0<<I,0*03\r
+!AIVDM,1,1,,A,402E34iuho;3LPGoPJNQwwG008Gi,0*21\r
+!AIVDM,1,1,,1,13aGt6wP00PE:1dN1Q9S=gv22@16,0*42\r
+!AIVDM,1,1,,A,13aBNc0P1M0GFufMjBw5sgw:05Ip,0*56\r
+!AIVDM,1,1,,2,13bIIn0Oh1PL=W0NTWdc2A4605Ip,0*3C\r
+!AIVDM,1,1,,1,13`jecP000PEp38NCUV:UPn6081q,0*77\r
+!AIVDM,1,1,,1,13abiN70000LI70NSnsCRjb60D0H,0*66\r
+!AIVDM,1,1,,2,15ECw`002GPME?8NcO=3h2v805Ip,0*2E\r
+!AIVDM,1,1,,B,13n3aW003iPJW1TQh83brHe<2<12,0*00\r
+!AIVDM,1,1,,B,23@QU<000@PCRq4MFcDWrVm>08FW,0*3D\r
+!AIVDM,1,1,,B,13q5DNhP00PWBePN`@=00?w:R@F>,0*6A\r
+!AIVDM,1,1,,B,16:9vA80008K=a>FC0Kh093<2HFQ,0*72\r
+!AIVDM,1,1,,2,23aGtVPP1JPEr3PMwnQSvOv420S9,0*6A\r
+!AIVDM,1,1,,2,33aDp9UP1FPE;eBN1EdU:Ov2R0m1,0*46\r
+!AIVDM,1,1,,2,13aDp;@P1;PF1UhN1uiVwgv42<3w,0*14\r
+!AIVDM,1,1,,2,23aIjQPP1@PFHCVMvjw5N?v605Ip,0*63\r
+!AIVDM,1,1,,2,13aC1whP000Etf4MwDD@0?v2081o,0*3F\r
+!AIVDM,1,1,,2,13aDrVhP00PDwDRN12fh0?v6R<1n,0*26\r
+!AIVDM,1,1,,2,23aDo:mP1L0F3TDMwfMc6?wf05Ip,0*67\r
+!AIVDM,1,1,,A,13@nfe@01fPeuwlOPhb0khS<05Ip,0*00\r
+!AIVDM,1,1,,1,13aGFs0P020E<r`N1OcEJgv6R<3P,0*08\r
+!AIVDM,1,1,,2,18UQgB00000E1<HN16KB7IL40@24,0*7D\r
+!AIVDM,1,1,,2,23aI91?P00PDuuDN1HAoHOv6282B,0*6F\r
+!AIVDM,1,1,,2,33aGtW@P1CPF1:lMwf?D1gv82AmS,0*31\r
+!AIVDM,1,1,,2,133vqAPP00PEsmPMwFc00?v8R@2P,0*67\r
+!AIVDM,1,1,,2,13`emk0P00PE0NbN1:qEiwv62@2S,0*01\r
+!AIVDM,1,1,,2,23`e=7@P00PE7f2N1PMP0?v8R0S3,0*4C\r
+!AIVDM,1,1,,1,23a8BL30010DjBhN1GGP@k8<0<4O,0*41\r
+!AIVDM,1,1,,2,23aGFn@P00PE=2:N1H?rKOvJR0S;,0*22\r
+!AIVDM,1,1,,2,13bgs@?0000E226N14=qrIDL2@86,0*65\r
+!AIVDM,1,1,,A,133laJgP00PD=94MDubr:Ow>25Ip,0*2D\r
+!AIVDM,1,1,,2,13aEQhhP01PE:2dN1Q?qBwvL2<55,0*6B\r
+!AIVDM,1,1,,2,23c;Pp00010EkntMwom@H2LN0D7Q,0*3B\r
+!AIVDM,1,1,,2,13aGtN?P00PF3pfN1Mch0?vL2<3h,0*4E\r
+!AIVDM,1,1,,2,33b?ED00140DspPN1@j3G2dH00oQ,0*2A\r
+!AIVDM,1,1,,2,13aDohhP00PF2cJMwCJJ6gv>RL5k,0*60\r
+!AIVDM,1,1,,A,13aEO1UP0t0FUIJMb4gSNgw:0@F`,0*02\r
+!AIVDM,1,1,,2,13aoiP0P000E1q4N1483OgvN0<1D,0*28\r
+!AIVDM,1,1,,2,23b?ED00140DspPN1@j3G2dH0000,0*15\r
+!AIVDM,1,1,,A,16SnnH0029O1OgL4>bP;mSc<0HFK,0*3C\r
+!AIVDM,1,1,,A,15NB`b?P0lIRo9BF3H8PSgw<08FV,0*22\r
+!AIVDM,1,1,,1,13aC2SPP4FPEbLdN06lkwOvP289U,0*0D\r
+!AIVDM,1,1,,2,13`p;<0P000F0EhMwUG0d?vN0@9i,0*10\r
+!AIVDM,1,1,,A,13aEOPPP00PDa16MbAukPgwB2@Gj,0*40\r
+!AIVDM,1,1,,,33aGtUP01GPIW<TN8=0r1p1<R000,0*77\r
+!AIVDM,1,1,,B,333tUb0vAp0LASvNfLIjhj:L0110,0*09\r
+!AIVDM,1,1,,A,13aI;OhP00PCPdrMN9m@0?v@2<2w,0*70\r
+!AIVDM,1,1,,B,1001:G?P?w<tSF0l4Q@>4?wv0PR=,0*60\r
+!AIVDM,1,1,,B,137bHJ0w2hPA65>Mk2mm=CtB084n,0*4F\r
+!AIVDM,1,1,,A,14eGC@O000ncd44O5=N0liu<0<0C,0*1E\r
+!AIVDM,1,1,,A,13aIhV?P140H?A<MVbRbbww<0L5W,0*6B\r
+!AIVDM,1,1,,B,133wApgP00PCma4MABa@0?w<RL7V,0*1A\r
+!AIVDM,1,1,,B,38153om0011Ds=8O<jr6PHS80000,0*07\r
+!AIVDM,1,1,,B,13GR5BPP0lPD;@6MDehN1?w<25Ip,0*71\r
+!AIVDM,1,1,,B,14`c3p000H8:VCF<hKTmUTO:05Ip,0*27\r
+!AIVDM,1,1,,A,13l97l001W8W4p2D27q3aBu:0HFB,0*46\r
+!AIVDM,1,1,,A,13aEOdOP1?PDD=8MdSD<v?w8Pd;p,0*14\r
+!AIVDM,1,1,,B,15V=>n001POKLlNCl9nos6E>0HF`,0*66\r
+!AIVDM,1,1,,A,133lEOgP00PCv26MDtS:6gw>28Fa,0*06\r
+!AIVDM,1,1,,B,15MwNGgP00IT8rFA80b;2Ow<28FF,0*18\r
+!AIVDM,1,1,,A,15Mudb0P00ISG86A8=BLJww<0@FG,0*62\r
+!AIVDM,1,1,,B,15N0<MgP00qSIIBA7TP8sww>28FL,0*7E\r
+!AIVDM,1,1,,B,139RfSPOhIPCBFrN603`uWg>0<2D,0*38\r
+!AIVDM,1,1,,A,133oq>gP00PCrV4MDrsP0?w<2@Fb,0*49\r
+!AIVDM,1,1,,B,19NS7QS0010eVGHN`MF:RqS<00Si,0*51\r
+!AIVDM,1,1,,A,16K<Mr0021awp16D:e?00@3>0HFQ,0*0D\r
+!AIVDM,1,1,,A,16:BboP0008VA=nD`iAP04o<2<2r,0*0D\r
+!AIVDM,1,1,,A,13aFeePP0tPGReBMge<6Www<2@Fc,0*5C\r
+!AIVDM,1,1,,B,33AiNN3Oh911K5hNniI=eP5>011A,0*44\r
+!AIVDM,1,1,,B,13uEdwW0000m;sBQ9DvsUjO>2<0W,0*3A\r
+!AIVDM,1,1,,A,13uAbDg000Pnik0Q1Q?p`QO>0<1a,0*0F\r
+!AIVDM,1,1,,A,13v0mP00000mGnBQ1CH;P6Q>00Sb,0*01\r
+!AIVDM,1,1,,B,133frb00000=JLNMD@S8iqi>0D3N,0*43\r
+!AIVDM,1,1,,A,16K2<aP001awHOfD<8s72G?>05Ip,0*5F\r
+!AIVDM,2,1,8,A,59NWv=02;cb`7QEOT00m<>0l4h4L4000000000171S4??4mD0F54`0C@,0*59\r
+!AIVDM,2,2,8,A,gQl`42DP0000000,2*04\r
+!AIVDM,1,1,,B,13aDpf@P000DHt8Md8GJnww>2HFd,0*60\r
+!AIVDM,1,1,,A,13HUNH?P0NP2v=hLwaCj@Ow:20RN,0*40\r
+!AIVDM,1,1,,A,13P:NlSP00OjB;LNRdMovww>00RM,0*72\r
+!AIVDM,1,1,,B,133sfv002cP<:VHMM::s9I7:00Sf,0*55\r
+!AIVDM,1,1,,A,169DNh00018L@6tFBQprVpA>0L8n,0*29\r
+!AIVDM,1,1,,B,13fKi00001wj:mVNUU17DbM>25Ip,0*6D\r
+!AIVDM,1,1,,A,13mGVN00000G132S?qLWhjg>05Ip,0*30\r
+!AIVDM,1,1,,A,13M@g40P0i11I00Nnri7ngw<05Ip,0*78\r
+!AIVDM,1,1,,B,13HW:8g0000Cww`MEwMk`Ri:08Fe,0*6D\r
+!AIVDM,1,1,,A,13cVfc0P010g9lvHrmuFKOw800SG,0*3A\r
+!AIVDM,1,1,,A,13aENj0P1;PCqA@MEhlJ3ww:R0Sb,0*31\r
+!AIVDM,1,1,,A,13m=V`000BwnMV4PddNTdlI>28Fb,0*1D\r
+!AIVDM,1,1,,B,33aDoU0P09P@Mu2ML2JEk?w<R0n3,0*55\r
+!AIVDM,1,1,,A,33ILKT800p08M60M:T0cR9E>0000,0*57\r
+!AIVDM,1,1,,B,13aBLK?P0wPDLrrMDL1kH?w<20SN,0*4F\r
+!AIVDM,1,1,,B,H43MNI10foSP000000000000000,2*19\r
+!AIVDM,1,1,,A,13P<b>@01vPUMm:Ni0atHqm60@FG,0*2D\r
+!AIVDM,1,1,,A,133rKfgP00PD=i:MDGSu0Ow<25Ip,0*67\r
+!AIVDM,1,1,,B,15MpsWPP00Jhw4hGSo6teOw>20Sn,0*54\r
+!AIVDM,1,1,,A,85PH6MiKf8leuCki:=GMpovlV0jWT4Jm1D@5lUspO7asQn;glMfb,0*0B\r
+!AIVDM,1,1,,A,13aDqu@P00PD:u@Mcw`0AOw<R0Sn,0*1D\r
+!AIVDM,1,1,,B,13am5`0001wh52@NT04;589>0HFh,0*5E\r
+!AIVDM,1,1,,B,14a8;:0002QEKNhO8K?7nb?>00S>,0*57\r
+!AIVDM,1,1,,A,13aI9j8P00PHiVNNKFQ4s?w<2<0l,0*2D\r
+!AIVDM,1,1,,A,16:VFv0k0L`KQVPFAT;4Qgw:40Fa,0*22\r
+!AIVDM,1,1,,B,13A5:R700J0A;nDN=2u85Fa>00RG,0*13\r
+!AIVDM,1,1,,A,140UtlPP00PCmg<ME?jaJOw>25Ip,0*35\r
+!AIVDM,1,1,,A,13aFfNhP0UPDQrPMdhQ9Mgw<2HFi,0*0C\r
+!AIVDM,1,1,,B,14`VmT001>Ob6jRO>TB;6pe<00S?,0*2C\r
+!AIVDM,1,1,,A,169pKuP0008JwqlFCGeh06i<2@Fc,0*65\r
+!AIVDM,1,1,,A,33OjLf0Oi<Odu<6LjM>VUUI800sQ,0*07\r
+!AIVDM,1,1,,B,13`qM>501POe0KpLki0HQ6i<00Sm,0*3A\r
+!AIVDM,1,1,,A,14eG>6O001rkrVBJPj?LD`U>05Ip,0*78\r
+!AIVDM,1,1,,B,13P;O7wP00wdn>RLlT1P0?w<20S>,0*3C\r
+!AIVDM,1,1,,A,13aEQ6hP1bPHFQ>MagT;vwvdR8Fj,0*4C\r
+!AIVDM,1,1,,B,14Rtbb0wh00EFRfN1EWhOho<08Fj,0*4B\r
+!AIVDM,1,1,,B,15NG5iPP00ISqOVA56Ibggw>20SC,0*34\r
+!AIVDM,1,1,,A,15NNskP000qSfuLA51UL;j;>0<58,0*2E\r
+!AIVDM,1,1,,A,15MwNp0P01IRNF<A8COoIOw<0@FP,0*59\r
+!AIVDM,1,1,,B,15Mwuq0P00ISrC<A5<9qdOw<0@FQ,0*6F\r
+!AIVDM,1,1,,B,15NBTjPP00IRAo4@s@Rs0ww>25Ip,0*70\r
+!AIVDM,1,1,,B,15MvqEgP00IRNhhA8Cth0?w:00Sj,0*11\r
+!AIVDM,1,1,,B,15NFEi0P00ISfnFA4?>rnOw>25Ip,0*61\r
+!AIVDM,1,1,,B,15NKNodP00ISAgN@s3tc:gw>2@F`,0*14\r
+!AIVDM,1,1,,A,15Mu6aPP00IR<KPA9?hnogw<0<4R,0*19\r
+!AIVDM,1,1,,B,15MsuVP000ITA2DA7pq;S8I>00Rs,0*07\r
+!AIVDM,1,1,,B,15N7H20P00IShDrA8qtKpww<08Fe,0*56\r
+!AIVDM,1,1,,,33P<f4CP@AP8;GtMjCh7kR5>011h,0*7A\r
+!AIVDM,1,1,,B,133fJvPP00PD31FME9pF8?w<25Ip,0*6B\r
+!AIVDM,1,1,,A,16:Qve`000`JsS8FCU:G;kW>05Ip,0*13\r
+!AIVDM,1,1,,B,83aDp<Pj2ddL==teH1T0a?aE8w00,0*3A\r
+!AIVDM,1,1,,A,13urjj01kgQGjahOQRA7U69<00S;,0*6F\r
+!AIVDM,1,1,,B,13afw000000DBjRMdPrL7Gq>05Ip,0*2D\r
+!AIVDM,1,1,,A,16:AFEP0008S`Ll>gFR7Nh3:2D14,0*34\r
+!AIVDM,1,1,,A,169>a7P01U8cGwBEVSj<`Iw<2<1r,0*64\r
+!AIVDM,1,1,,A,16KDT@P00mawrjdDH?NUtDg<05Ip,0*12\r
+!AIVDM,1,1,,A,16:=P:PP1O8LbH0=uuUD7Ow:0D2;,0*38\r
+!AIVDM,1,1,,B,16:ALo0P008g1CnA:?Vtagw:20SO,0*6A\r
+!AIVDM,1,1,,B,13u@OV0P000sOWbOlVg<pgvp0<0I,0*18\r
+!AIVDM,1,1,,B,403tCciuho;NS<tSF0l4Q@000`FA,0*08\r
+!AIVDM,1,1,,B,16:Bcag0008fsETA:u7h04G:0<58,0*1A\r
+!AIVDM,1,1,,A,16:QsqPP008LNQ0=wG8h0?w=r0Re,0*7E\r
+!AIVDM,1,1,,A,177?Op006C`90kv<dVISnjw:0D4t,0*7F\r
+!AIVDM,1,1,,B,169a:A002G8hk>HA4Ck8IFq<0PRq,0*5D\r
+!AIVDM,1,1,,A,35A62B5001`Pm7R>EVMLUJ5:0Dm:,0*04\r
+!AIVDM,1,1,,B,B07eAFh0I2;oGD4Ac0j@?wk2PD00,0*7F\r
+!AIVDM,1,1,,A,E>j9diQQ0a2Hh;TW230a6h9cP00@=Upb?RCLh00003vP10,4*5C\r
+!AIVDM,1,1,,B,169D2PP0008g5`dA8fG=VbW=r8FH,0*4C\r
+!AIVDM,1,1,,A,169C`lwP008LU3v>3mNWJ?w<25Ip,0*6D\r
+!AIVDM,1,1,,B,16:TT43P0286uRL<NvFVpOwp0PSl,0*5B\r
+!AIVDM,1,1,,B,16:fN1?P00`7BQf==V=@0?w:0<00,0*29\r
+!AIVDM,1,1,,A,377N=B50008d5S>AvoTbWqi<0000,0*38\r
+!AIVDM,1,1,,A,16:BO>`P008dl9FAv57Lggw80DK`,0*3E\r
+!AIVDM,1,1,,A,16:=FSPP0i8gWQdATWDGaOw:2@F@,0*01\r
+!AIVDM,1,1,,B,B69Epih00B85ThSQlP003wj6kP06,0*34\r
+!AIVDM,1,1,,B,168uqL000087`PB=;qLeI23<2<4p,0*4F\r
+!AIVDM,1,1,,B,16:QcR0P1Q8QlCP>?Wg2;AS<28FH,0*7C\r
+!AIVDM,1,1,,A,16:@b0@01J8hoAPB1QIVpFA<2<80,0*5C\r
+!AIVDM,1,1,,B,169Fd7P0028:W:h<hUHRuRM<2D;8,0*53\r
+!AIVDM,1,1,,B,16:CfcPP007plod;MJ?LQOwp0UHd,0*61\r
+!AIVDM,1,1,,B,8000000Iv>?riSG4SjVKK@fol2hgb5kafGJdUIPPT0,4*41\r
+!AIVDM,1,1,,A,13aDC=hP00PD>K>Mdt1pKOw<20R>,0*25\r
+!AIVDM,1,1,,A,15MAKuP01EJ6WNL?u;qP<P;>0D0V,0*06\r
+!AIVDM,1,1,,A,139RJc00000UG1tN`Q88=6U605Ip,0*2A\r
+!AIVDM,1,1,,A,13aD00PP01PFg?lMb6A2jgw<2D2a,0*2B\r
+!AIVDM,1,1,,A,16K2>f0001aw>N4DBM>c09S>2<4U,0*4E\r
+!AIVDM,1,1,,B,237L2L0001PCNN4MHW>;cSc<0<7C,0*47\r
+!AIVDM,1,1,,B,19NWuW00068VDFvDVV9HLna>00Rg,0*77\r
+!AIVDM,1,1,,A,139Lb2P02Qvg;N66h6M>0;;805Ip,0*7F\r
+!AIVDM,1,1,,A,13n;0D0PB=0J<1`QgtE5?4960@Fg,0*6A\r
+!AIVDM,1,1,,A,13aDp0hP1=PHbFjMaAEHcOw>0D21,0*51\r
+!AIVDM,1,1,,B,13aGETPP000DI1pMdAU8tgw<0hFn,0*41\r
+!AIVDM,1,1,,B,143u`V0001RBLjLJo?`nh@K80@FA,0*13\r
+!AIVDM,1,1,,A,13M@L5P01SPr7q8OqC5SI2k<00RK,0*20\r
+!AIVDM,1,1,,A,233vr3gP1fPCjbNMEvqP?gw<R5Ip,0*04\r
+!AIVDM,1,1,,A,13@nptOP0011IpFNo89c1Ow>28FU,0*03\r
+!AIVDM,1,1,,B,13aGul?000PFiArMaqeRV6k<R0Rs,0*45\r
+!AIVDM,2,1,0,A,53P:Veh2:RH<m9@sR20l4E9<f0<4lE8tr222221@BhQAA4mQ0BiiAC3kQp888888,0*53\r
+!AIVDM,2,2,0,A,8888881,2*25\r
+!AIVDM,1,1,,A,13IeIP0000P0W5LLCmVIApi>0L1:,0*33\r
+!AIVDM,1,1,,A,13aDpawP000CPc>MFRBW0gw:P8Fo,0*5E\r
+!AIVDM,1,1,,B,15NEQsP022rmroTGWQqHIVo>0<0<,0*08\r
+!AIVDM,1,1,,B,33n`G>0Oh;0CTsPMd1;:o:jn0PwA,0*64\r
+!AIVDM,1,1,,B,33aGrU@OhC0Hpk:NL0`Q12><1R10,0*39\r
+!AIVDM,1,1,,B,139c>P001oOwBOlO4i;EETI60@Fo,0*4F\r
+!AIVDM,1,1,,A,63aGrPT0UBf206P000,4*62\r
+!AIVDM,1,1,,B,33mM@U0OivPIT=2Qev@s18w0010A,0*7D\r
+!AIVDM,1,1,,A,13n@oD0PB@0IR@HQjAHc=pht08C5,0*1E\r
+!AIVDM,1,1,,A,133PA:3P0LPH=n`Qjw@1hgw40@D1,0*7C\r
+!AIVDM,1,1,,A,33mM@U0OivPIT6tQevH;69360000,0*47\r
+!AIVDM,1,1,,A,14SH4T002<PI94FQmru`h6s605Ip,0*78\r
+!AIVDM,1,1,,B,133ivegP00PD0l:MEKlasOw>R@Fp,0*34\r
+!AIVDM,1,1,,B,239VBhP0000CSvpMH:qSG4s00@Fo,0*53\r
+!AIVDM,1,1,,A,169srP02Be0coWPH`oR=Ibe>0l0:,0*59\r
+!AIVDM,1,1,,A,13@oGOPP010rK`TOhd<9Rgw>0<1C,0*7B\r
+!AI